<?xml version="1.0" encoding="UTF-8" standalone="no" ?>
<gpx xmlns="http://www.topografix.com/GPX/1/1" xmlns:xsi="http://www.w3.org/2001/XMLSchema-instance" xsi:schemaLocation="http://www.topografix.com/GPX/1/1 http://www.topografix.com/GPX/1/1/gpx.xsd" version="1.1" creator="VisuGPX - https://www.visugpx.com">
  <metadata>
    <name>blanquefort 2018</name>
    <desc><![CDATA[11111111111111111111111111111111111111111111111111111111111111111111111111111111111111111]]></desc>
  </metadata>
  <trk>
    <name><![CDATA[Strava-1719477926 by Strava to GPX]]></name>
    <trkseg>
      <trkpt lat="44.59269" lon="0.92517">
        <ele>240.8</ele>
        <time>2018-07-22T12:29:38Z</time>
      </trkpt>
      <trkpt lat="44.59271" lon="0.9252">
        <ele>240.8</ele>
        <time>2018-07-22T12:29:45Z</time>
      </trkpt>
      <trkpt lat="44.59279" lon="0.92519">
        <ele>240.9</ele>
        <time>2018-07-22T12:31:56Z</time>
      </trkpt>
      <trkpt lat="44.59283" lon="0.92521">
        <ele>241</ele>
        <time>2018-07-22T12:31:59Z</time>
      </trkpt>
      <trkpt lat="44.59283" lon="0.92527">
        <ele>241</ele>
        <time>2018-07-22T12:32:02Z</time>
      </trkpt>
      <trkpt lat="44.5928" lon="0.92531">
        <ele>241</ele>
        <time>2018-07-22T12:32:04Z</time>
      </trkpt>
      <trkpt lat="44.59278" lon="0.92534">
        <ele>241</ele>
        <time>2018-07-22T12:32:06Z</time>
      </trkpt>
      <trkpt lat="44.59275" lon="0.92539">
        <ele>241</ele>
        <time>2018-07-22T12:32:08Z</time>
      </trkpt>
      <trkpt lat="44.59273" lon="0.92543">
        <ele>241</ele>
        <time>2018-07-22T12:32:10Z</time>
      </trkpt>
      <trkpt lat="44.59271" lon="0.92548">
        <ele>241</ele>
        <time>2018-07-22T12:32:12Z</time>
      </trkpt>
      <trkpt lat="44.5927" lon="0.92552">
        <ele>240.9</ele>
        <time>2018-07-22T12:32:14Z</time>
      </trkpt>
      <trkpt lat="44.59268" lon="0.92555">
        <ele>240.9</ele>
        <time>2018-07-22T12:32:16Z</time>
      </trkpt>
      <trkpt lat="44.59265" lon="0.92559">
        <ele>240.9</ele>
        <time>2018-07-22T12:32:18Z</time>
      </trkpt>
      <trkpt lat="44.59262" lon="0.92565">
        <ele>240.9</ele>
        <time>2018-07-22T12:32:20Z</time>
      </trkpt>
      <trkpt lat="44.59259" lon="0.92571">
        <ele>240.8</ele>
        <time>2018-07-22T12:32:22Z</time>
      </trkpt>
      <trkpt lat="44.59256" lon="0.92577">
        <ele>240.8</ele>
        <time>2018-07-22T12:32:24Z</time>
      </trkpt>
      <trkpt lat="44.59254" lon="0.9258">
        <ele>240.8</ele>
        <time>2018-07-22T12:32:25Z</time>
      </trkpt>
      <trkpt lat="44.59253" lon="0.92583">
        <ele>240.8</ele>
        <time>2018-07-22T12:32:26Z</time>
      </trkpt>
      <trkpt lat="44.59251" lon="0.92586">
        <ele>240.8</ele>
        <time>2018-07-22T12:32:27Z</time>
      </trkpt>
      <trkpt lat="44.59249" lon="0.9259">
        <ele>240.7</ele>
        <time>2018-07-22T12:32:28Z</time>
      </trkpt>
      <trkpt lat="44.59248" lon="0.92594">
        <ele>240.7</ele>
        <time>2018-07-22T12:32:29Z</time>
      </trkpt>
      <trkpt lat="44.59247" lon="0.92597">
        <ele>240.7</ele>
        <time>2018-07-22T12:32:30Z</time>
      </trkpt>
      <trkpt lat="44.59245" lon="0.926">
        <ele>240.7</ele>
        <time>2018-07-22T12:32:31Z</time>
      </trkpt>
      <trkpt lat="44.59244" lon="0.92604">
        <ele>240.7</ele>
        <time>2018-07-22T12:32:32Z</time>
      </trkpt>
      <trkpt lat="44.59242" lon="0.92607">
        <ele>240.7</ele>
        <time>2018-07-22T12:32:33Z</time>
      </trkpt>
      <trkpt lat="44.5924" lon="0.9261">
        <ele>240.7</ele>
        <time>2018-07-22T12:32:34Z</time>
      </trkpt>
      <trkpt lat="44.59238" lon="0.92615">
        <ele>240.7</ele>
        <time>2018-07-22T12:32:35Z</time>
      </trkpt>
      <trkpt lat="44.59236" lon="0.9262">
        <ele>240.7</ele>
        <time>2018-07-22T12:32:36Z</time>
      </trkpt>
      <trkpt lat="44.59234" lon="0.92625">
        <ele>240.7</ele>
        <time>2018-07-22T12:32:37Z</time>
      </trkpt>
      <trkpt lat="44.59233" lon="0.9263">
        <ele>240.7</ele>
        <time>2018-07-22T12:32:38Z</time>
      </trkpt>
      <trkpt lat="44.59231" lon="0.92634">
        <ele>240.7</ele>
        <time>2018-07-22T12:32:39Z</time>
      </trkpt>
      <trkpt lat="44.59229" lon="0.92639">
        <ele>240.7</ele>
        <time>2018-07-22T12:32:40Z</time>
      </trkpt>
      <trkpt lat="44.59227" lon="0.92643">
        <ele>240.7</ele>
        <time>2018-07-22T12:32:41Z</time>
      </trkpt>
      <trkpt lat="44.59226" lon="0.92647">
        <ele>240.7</ele>
        <time>2018-07-22T12:32:42Z</time>
      </trkpt>
      <trkpt lat="44.59224" lon="0.92652">
        <ele>240.7</ele>
        <time>2018-07-22T12:32:43Z</time>
      </trkpt>
      <trkpt lat="44.59223" lon="0.92657">
        <ele>240.7</ele>
        <time>2018-07-22T12:32:44Z</time>
      </trkpt>
      <trkpt lat="44.59221" lon="0.92661">
        <ele>240.7</ele>
        <time>2018-07-22T12:32:45Z</time>
      </trkpt>
      <trkpt lat="44.5922" lon="0.92665">
        <ele>240.7</ele>
        <time>2018-07-22T12:32:46Z</time>
      </trkpt>
      <trkpt lat="44.59218" lon="0.92669">
        <ele>240.7</ele>
        <time>2018-07-22T12:32:47Z</time>
      </trkpt>
      <trkpt lat="44.59216" lon="0.92673">
        <ele>240.8</ele>
        <time>2018-07-22T12:32:48Z</time>
      </trkpt>
      <trkpt lat="44.59214" lon="0.92677">
        <ele>240.8</ele>
        <time>2018-07-22T12:32:49Z</time>
      </trkpt>
      <trkpt lat="44.59213" lon="0.92681">
        <ele>240.8</ele>
        <time>2018-07-22T12:32:50Z</time>
      </trkpt>
      <trkpt lat="44.59211" lon="0.92685">
        <ele>240.8</ele>
        <time>2018-07-22T12:32:51Z</time>
      </trkpt>
      <trkpt lat="44.5921" lon="0.92689">
        <ele>240.8</ele>
        <time>2018-07-22T12:32:52Z</time>
      </trkpt>
      <trkpt lat="44.59208" lon="0.92694">
        <ele>240.8</ele>
        <time>2018-07-22T12:32:53Z</time>
      </trkpt>
      <trkpt lat="44.59206" lon="0.92698">
        <ele>240.8</ele>
        <time>2018-07-22T12:32:54Z</time>
      </trkpt>
      <trkpt lat="44.59205" lon="0.92702">
        <ele>240.8</ele>
        <time>2018-07-22T12:32:55Z</time>
      </trkpt>
      <trkpt lat="44.59203" lon="0.92706">
        <ele>240.9</ele>
        <time>2018-07-22T12:32:56Z</time>
      </trkpt>
      <trkpt lat="44.59202" lon="0.9271">
        <ele>240.9</ele>
        <time>2018-07-22T12:32:57Z</time>
      </trkpt>
      <trkpt lat="44.59201" lon="0.92714">
        <ele>240.9</ele>
        <time>2018-07-22T12:32:58Z</time>
      </trkpt>
      <trkpt lat="44.59199" lon="0.92718">
        <ele>240.9</ele>
        <time>2018-07-22T12:32:59Z</time>
      </trkpt>
      <trkpt lat="44.59197" lon="0.92725">
        <ele>240.9</ele>
        <time>2018-07-22T12:33:01Z</time>
      </trkpt>
      <trkpt lat="44.59197" lon="0.92729">
        <ele>240.9</ele>
        <time>2018-07-22T12:33:02Z</time>
      </trkpt>
      <trkpt lat="44.59196" lon="0.92733">
        <ele>240.9</ele>
        <time>2018-07-22T12:33:03Z</time>
      </trkpt>
      <trkpt lat="44.59196" lon="0.92737">
        <ele>241</ele>
        <time>2018-07-22T12:33:04Z</time>
      </trkpt>
      <trkpt lat="44.59197" lon="0.92741">
        <ele>241</ele>
        <time>2018-07-22T12:33:05Z</time>
      </trkpt>
      <trkpt lat="44.59198" lon="0.92745">
        <ele>241</ele>
        <time>2018-07-22T12:33:06Z</time>
      </trkpt>
      <trkpt lat="44.59199" lon="0.92749">
        <ele>241</ele>
        <time>2018-07-22T12:33:07Z</time>
      </trkpt>
      <trkpt lat="44.59202" lon="0.92753">
        <ele>240.9</ele>
        <time>2018-07-22T12:33:08Z</time>
      </trkpt>
      <trkpt lat="44.59204" lon="0.92757">
        <ele>240.8</ele>
        <time>2018-07-22T12:33:09Z</time>
      </trkpt>
      <trkpt lat="44.59207" lon="0.9276">
        <ele>240.7</ele>
        <time>2018-07-22T12:33:10Z</time>
      </trkpt>
      <trkpt lat="44.5921" lon="0.92763">
        <ele>240.7</ele>
        <time>2018-07-22T12:33:11Z</time>
      </trkpt>
      <trkpt lat="44.59213" lon="0.92766">
        <ele>240.6</ele>
        <time>2018-07-22T12:33:12Z</time>
      </trkpt>
      <trkpt lat="44.59216" lon="0.92768">
        <ele>240.5</ele>
        <time>2018-07-22T12:33:13Z</time>
      </trkpt>
      <trkpt lat="44.59219" lon="0.92771">
        <ele>240.5</ele>
        <time>2018-07-22T12:33:14Z</time>
      </trkpt>
      <trkpt lat="44.59221" lon="0.92774">
        <ele>240.4</ele>
        <time>2018-07-22T12:33:15Z</time>
      </trkpt>
      <trkpt lat="44.59224" lon="0.92777">
        <ele>240.3</ele>
        <time>2018-07-22T12:33:16Z</time>
      </trkpt>
      <trkpt lat="44.59226" lon="0.9278">
        <ele>240.2</ele>
        <time>2018-07-22T12:33:17Z</time>
      </trkpt>
      <trkpt lat="44.59228" lon="0.92784">
        <ele>240.1</ele>
        <time>2018-07-22T12:33:18Z</time>
      </trkpt>
      <trkpt lat="44.5923" lon="0.92788">
        <ele>240</ele>
        <time>2018-07-22T12:33:19Z</time>
      </trkpt>
      <trkpt lat="44.59231" lon="0.92791">
        <ele>239.9</ele>
        <time>2018-07-22T12:33:20Z</time>
      </trkpt>
      <trkpt lat="44.59233" lon="0.92795">
        <ele>239.7</ele>
        <time>2018-07-22T12:33:21Z</time>
      </trkpt>
      <trkpt lat="44.59234" lon="0.92799">
        <ele>239.6</ele>
        <time>2018-07-22T12:33:22Z</time>
      </trkpt>
      <trkpt lat="44.59235" lon="0.92803">
        <ele>239.5</ele>
        <time>2018-07-22T12:33:23Z</time>
      </trkpt>
      <trkpt lat="44.59236" lon="0.92807">
        <ele>239.4</ele>
        <time>2018-07-22T12:33:24Z</time>
      </trkpt>
      <trkpt lat="44.59238" lon="0.92811">
        <ele>239.3</ele>
        <time>2018-07-22T12:33:25Z</time>
      </trkpt>
      <trkpt lat="44.59239" lon="0.92815">
        <ele>239.2</ele>
        <time>2018-07-22T12:33:26Z</time>
      </trkpt>
      <trkpt lat="44.5924" lon="0.92819">
        <ele>239.1</ele>
        <time>2018-07-22T12:33:27Z</time>
      </trkpt>
      <trkpt lat="44.59241" lon="0.92823">
        <ele>239</ele>
        <time>2018-07-22T12:33:28Z</time>
      </trkpt>
      <trkpt lat="44.59241" lon="0.92829">
        <ele>238.9</ele>
        <time>2018-07-22T12:33:29Z</time>
      </trkpt>
      <trkpt lat="44.59242" lon="0.92834">
        <ele>238.7</ele>
        <time>2018-07-22T12:33:30Z</time>
      </trkpt>
      <trkpt lat="44.59243" lon="0.92838">
        <ele>238.6</ele>
        <time>2018-07-22T12:33:31Z</time>
      </trkpt>
      <trkpt lat="44.59244" lon="0.92843">
        <ele>238.4</ele>
        <time>2018-07-22T12:33:32Z</time>
      </trkpt>
      <trkpt lat="44.59247" lon="0.92846">
        <ele>238.2</ele>
        <time>2018-07-22T12:33:33Z</time>
      </trkpt>
      <trkpt lat="44.5925" lon="0.92849">
        <ele>238</ele>
        <time>2018-07-22T12:33:34Z</time>
      </trkpt>
      <trkpt lat="44.59255" lon="0.92848">
        <ele>237.7</ele>
        <time>2018-07-22T12:33:35Z</time>
      </trkpt>
      <trkpt lat="44.59259" lon="0.9285">
        <ele>237.8</ele>
        <time>2018-07-22T12:33:36Z</time>
      </trkpt>
      <trkpt lat="44.59264" lon="0.92852">
        <ele>237.8</ele>
        <time>2018-07-22T12:33:37Z</time>
      </trkpt>
      <trkpt lat="44.59268" lon="0.92854">
        <ele>237.9</ele>
        <time>2018-07-22T12:33:38Z</time>
      </trkpt>
      <trkpt lat="44.59273" lon="0.92856">
        <ele>238</ele>
        <time>2018-07-22T12:33:39Z</time>
      </trkpt>
      <trkpt lat="44.59278" lon="0.92858">
        <ele>238</ele>
        <time>2018-07-22T12:33:40Z</time>
      </trkpt>
      <trkpt lat="44.59282" lon="0.9286">
        <ele>238.1</ele>
        <time>2018-07-22T12:33:41Z</time>
      </trkpt>
      <trkpt lat="44.59287" lon="0.92862">
        <ele>238.1</ele>
        <time>2018-07-22T12:33:42Z</time>
      </trkpt>
      <trkpt lat="44.59292" lon="0.92863">
        <ele>238.2</ele>
        <time>2018-07-22T12:33:43Z</time>
      </trkpt>
      <trkpt lat="44.59295" lon="0.92866">
        <ele>238.1</ele>
        <time>2018-07-22T12:33:44Z</time>
      </trkpt>
      <trkpt lat="44.59301" lon="0.92868">
        <ele>238.2</ele>
        <time>2018-07-22T12:33:45Z</time>
      </trkpt>
      <trkpt lat="44.59306" lon="0.92871">
        <ele>238.2</ele>
        <time>2018-07-22T12:33:46Z</time>
      </trkpt>
      <trkpt lat="44.5931" lon="0.92874">
        <ele>238.1</ele>
        <time>2018-07-22T12:33:47Z</time>
      </trkpt>
      <trkpt lat="44.59314" lon="0.92878">
        <ele>238</ele>
        <time>2018-07-22T12:33:48Z</time>
      </trkpt>
      <trkpt lat="44.59318" lon="0.92883">
        <ele>238</ele>
        <time>2018-07-22T12:33:49Z</time>
      </trkpt>
      <trkpt lat="44.59322" lon="0.92888">
        <ele>237.9</ele>
        <time>2018-07-22T12:33:50Z</time>
      </trkpt>
      <trkpt lat="44.59326" lon="0.92892">
        <ele>237.8</ele>
        <time>2018-07-22T12:33:51Z</time>
      </trkpt>
      <trkpt lat="44.59329" lon="0.92898">
        <ele>237.7</ele>
        <time>2018-07-22T12:33:52Z</time>
      </trkpt>
      <trkpt lat="44.59332" lon="0.92902">
        <ele>237.6</ele>
        <time>2018-07-22T12:33:53Z</time>
      </trkpt>
      <trkpt lat="44.59335" lon="0.92908">
        <ele>237.5</ele>
        <time>2018-07-22T12:33:54Z</time>
      </trkpt>
      <trkpt lat="44.59337" lon="0.92913">
        <ele>237.4</ele>
        <time>2018-07-22T12:33:55Z</time>
      </trkpt>
      <trkpt lat="44.59341" lon="0.92918">
        <ele>237.4</ele>
        <time>2018-07-22T12:33:56Z</time>
      </trkpt>
      <trkpt lat="44.59345" lon="0.92923">
        <ele>237.3</ele>
        <time>2018-07-22T12:33:57Z</time>
      </trkpt>
      <trkpt lat="44.59349" lon="0.92928">
        <ele>237.3</ele>
        <time>2018-07-22T12:33:58Z</time>
      </trkpt>
      <trkpt lat="44.59354" lon="0.92934">
        <ele>237.2</ele>
        <time>2018-07-22T12:33:59Z</time>
      </trkpt>
      <trkpt lat="44.59358" lon="0.92941">
        <ele>237.2</ele>
        <time>2018-07-22T12:34:00Z</time>
      </trkpt>
      <trkpt lat="44.59362" lon="0.92946">
        <ele>237.2</ele>
        <time>2018-07-22T12:34:01Z</time>
      </trkpt>
      <trkpt lat="44.59366" lon="0.92952">
        <ele>237.2</ele>
        <time>2018-07-22T12:34:02Z</time>
      </trkpt>
      <trkpt lat="44.59369" lon="0.92958">
        <ele>237.3</ele>
        <time>2018-07-22T12:34:03Z</time>
      </trkpt>
      <trkpt lat="44.59373" lon="0.92963">
        <ele>237.4</ele>
        <time>2018-07-22T12:34:04Z</time>
      </trkpt>
      <trkpt lat="44.59377" lon="0.92968">
        <ele>237.5</ele>
        <time>2018-07-22T12:34:05Z</time>
      </trkpt>
      <trkpt lat="44.5938" lon="0.92974">
        <ele>237.6</ele>
        <time>2018-07-22T12:34:06Z</time>
      </trkpt>
      <trkpt lat="44.59384" lon="0.92979">
        <ele>237.7</ele>
        <time>2018-07-22T12:34:07Z</time>
      </trkpt>
      <trkpt lat="44.59388" lon="0.92984">
        <ele>237.8</ele>
        <time>2018-07-22T12:34:08Z</time>
      </trkpt>
      <trkpt lat="44.59392" lon="0.92989">
        <ele>237.9</ele>
        <time>2018-07-22T12:34:09Z</time>
      </trkpt>
      <trkpt lat="44.59396" lon="0.92994">
        <ele>238</ele>
        <time>2018-07-22T12:34:10Z</time>
      </trkpt>
      <trkpt lat="44.594" lon="0.92999">
        <ele>238</ele>
        <time>2018-07-22T12:34:11Z</time>
      </trkpt>
      <trkpt lat="44.59404" lon="0.93003">
        <ele>238.1</ele>
        <time>2018-07-22T12:34:12Z</time>
      </trkpt>
      <trkpt lat="44.59408" lon="0.93007">
        <ele>238.1</ele>
        <time>2018-07-22T12:34:13Z</time>
      </trkpt>
      <trkpt lat="44.59411" lon="0.93011">
        <ele>238.1</ele>
        <time>2018-07-22T12:34:14Z</time>
      </trkpt>
      <trkpt lat="44.59415" lon="0.93013">
        <ele>238</ele>
        <time>2018-07-22T12:34:15Z</time>
      </trkpt>
      <trkpt lat="44.59417" lon="0.93015">
        <ele>238</ele>
        <time>2018-07-22T12:34:16Z</time>
      </trkpt>
      <trkpt lat="44.59422" lon="0.93018">
        <ele>237.9</ele>
        <time>2018-07-22T12:34:18Z</time>
      </trkpt>
      <trkpt lat="44.59426" lon="0.9302">
        <ele>237.7</ele>
        <time>2018-07-22T12:34:19Z</time>
      </trkpt>
      <trkpt lat="44.59429" lon="0.93022">
        <ele>237.8</ele>
        <time>2018-07-22T12:34:20Z</time>
      </trkpt>
      <trkpt lat="44.59432" lon="0.93025">
        <ele>237.5</ele>
        <time>2018-07-22T12:34:21Z</time>
      </trkpt>
      <trkpt lat="44.59436" lon="0.93028">
        <ele>237.5</ele>
        <time>2018-07-22T12:34:22Z</time>
      </trkpt>
      <trkpt lat="44.5944" lon="0.93032">
        <ele>237.4</ele>
        <time>2018-07-22T12:34:23Z</time>
      </trkpt>
      <trkpt lat="44.59445" lon="0.93036">
        <ele>237</ele>
        <time>2018-07-22T12:34:24Z</time>
      </trkpt>
      <trkpt lat="44.5945" lon="0.9304">
        <ele>236.7</ele>
        <time>2018-07-22T12:34:25Z</time>
      </trkpt>
      <trkpt lat="44.59457" lon="0.93046">
        <ele>236.5</ele>
        <time>2018-07-22T12:34:26Z</time>
      </trkpt>
      <trkpt lat="44.59461" lon="0.93052">
        <ele>236.5</ele>
        <time>2018-07-22T12:34:27Z</time>
      </trkpt>
      <trkpt lat="44.59466" lon="0.93056">
        <ele>236.3</ele>
        <time>2018-07-22T12:34:28Z</time>
      </trkpt>
      <trkpt lat="44.59472" lon="0.93062">
        <ele>236.2</ele>
        <time>2018-07-22T12:34:29Z</time>
      </trkpt>
      <trkpt lat="44.59477" lon="0.93065">
        <ele>236.2</ele>
        <time>2018-07-22T12:34:30Z</time>
      </trkpt>
      <trkpt lat="44.59481" lon="0.93068">
        <ele>236.1</ele>
        <time>2018-07-22T12:34:31Z</time>
      </trkpt>
      <trkpt lat="44.59486" lon="0.93072">
        <ele>236.2</ele>
        <time>2018-07-22T12:34:32Z</time>
      </trkpt>
      <trkpt lat="44.59491" lon="0.93075">
        <ele>236</ele>
        <time>2018-07-22T12:34:33Z</time>
      </trkpt>
      <trkpt lat="44.59497" lon="0.93077">
        <ele>236</ele>
        <time>2018-07-22T12:34:34Z</time>
      </trkpt>
      <trkpt lat="44.59502" lon="0.93079">
        <ele>236</ele>
        <time>2018-07-22T12:34:35Z</time>
      </trkpt>
      <trkpt lat="44.59508" lon="0.93083">
        <ele>235.7</ele>
        <time>2018-07-22T12:34:36Z</time>
      </trkpt>
      <trkpt lat="44.59512" lon="0.93085">
        <ele>235.8</ele>
        <time>2018-07-22T12:34:37Z</time>
      </trkpt>
      <trkpt lat="44.5952" lon="0.9309">
        <ele>235.7</ele>
        <time>2018-07-22T12:34:38Z</time>
      </trkpt>
      <trkpt lat="44.59526" lon="0.93093">
        <ele>235.7</ele>
        <time>2018-07-22T12:34:39Z</time>
      </trkpt>
      <trkpt lat="44.59532" lon="0.93097">
        <ele>235.7</ele>
        <time>2018-07-22T12:34:40Z</time>
      </trkpt>
      <trkpt lat="44.59538" lon="0.931">
        <ele>235.6</ele>
        <time>2018-07-22T12:34:41Z</time>
      </trkpt>
      <trkpt lat="44.59545" lon="0.93102">
        <ele>235.6</ele>
        <time>2018-07-22T12:34:42Z</time>
      </trkpt>
      <trkpt lat="44.59551" lon="0.93104">
        <ele>235.5</ele>
        <time>2018-07-22T12:34:43Z</time>
      </trkpt>
      <trkpt lat="44.59557" lon="0.93106">
        <ele>235.5</ele>
        <time>2018-07-22T12:34:44Z</time>
      </trkpt>
      <trkpt lat="44.59562" lon="0.93108">
        <ele>235.4</ele>
        <time>2018-07-22T12:34:45Z</time>
      </trkpt>
      <trkpt lat="44.59567" lon="0.9311">
        <ele>235.5</ele>
        <time>2018-07-22T12:34:46Z</time>
      </trkpt>
      <trkpt lat="44.59572" lon="0.93114">
        <ele>235.7</ele>
        <time>2018-07-22T12:34:47Z</time>
      </trkpt>
      <trkpt lat="44.59577" lon="0.93116">
        <ele>235.6</ele>
        <time>2018-07-22T12:34:48Z</time>
      </trkpt>
      <trkpt lat="44.59581" lon="0.9312">
        <ele>235.8</ele>
        <time>2018-07-22T12:34:49Z</time>
      </trkpt>
      <trkpt lat="44.59585" lon="0.93125">
        <ele>235.9</ele>
        <time>2018-07-22T12:34:50Z</time>
      </trkpt>
      <trkpt lat="44.59589" lon="0.9313">
        <ele>236.1</ele>
        <time>2018-07-22T12:34:51Z</time>
      </trkpt>
      <trkpt lat="44.59592" lon="0.93135">
        <ele>236.3</ele>
        <time>2018-07-22T12:34:52Z</time>
      </trkpt>
      <trkpt lat="44.59596" lon="0.93138">
        <ele>236.5</ele>
        <time>2018-07-22T12:34:53Z</time>
      </trkpt>
      <trkpt lat="44.59598" lon="0.93141">
        <ele>236.7</ele>
        <time>2018-07-22T12:34:54Z</time>
      </trkpt>
      <trkpt lat="44.59602" lon="0.93145">
        <ele>236.9</ele>
        <time>2018-07-22T12:34:55Z</time>
      </trkpt>
      <trkpt lat="44.59604" lon="0.93149">
        <ele>237.2</ele>
        <time>2018-07-22T12:34:56Z</time>
      </trkpt>
      <trkpt lat="44.59608" lon="0.93154">
        <ele>237.4</ele>
        <time>2018-07-22T12:34:58Z</time>
      </trkpt>
      <trkpt lat="44.59611" lon="0.93156">
        <ele>237.4</ele>
        <time>2018-07-22T12:34:59Z</time>
      </trkpt>
      <trkpt lat="44.59614" lon="0.9316">
        <ele>237.6</ele>
        <time>2018-07-22T12:35:00Z</time>
      </trkpt>
      <trkpt lat="44.59618" lon="0.93163">
        <ele>237.8</ele>
        <time>2018-07-22T12:35:01Z</time>
      </trkpt>
      <trkpt lat="44.59621" lon="0.93166">
        <ele>237.9</ele>
        <time>2018-07-22T12:35:02Z</time>
      </trkpt>
      <trkpt lat="44.59624" lon="0.93169">
        <ele>237.9</ele>
        <time>2018-07-22T12:35:03Z</time>
      </trkpt>
      <trkpt lat="44.59626" lon="0.93172">
        <ele>238.1</ele>
        <time>2018-07-22T12:35:04Z</time>
      </trkpt>
      <trkpt lat="44.59628" lon="0.93174">
        <ele>238.2</ele>
        <time>2018-07-22T12:35:05Z</time>
      </trkpt>
      <trkpt lat="44.5963" lon="0.93177">
        <ele>238.2</ele>
        <time>2018-07-22T12:35:06Z</time>
      </trkpt>
      <trkpt lat="44.59634" lon="0.93181">
        <ele>238.3</ele>
        <time>2018-07-22T12:35:08Z</time>
      </trkpt>
      <trkpt lat="44.59636" lon="0.93184">
        <ele>238.5</ele>
        <time>2018-07-22T12:35:09Z</time>
      </trkpt>
      <trkpt lat="44.59639" lon="0.93188">
        <ele>238.7</ele>
        <time>2018-07-22T12:35:10Z</time>
      </trkpt>
      <trkpt lat="44.59641" lon="0.93191">
        <ele>238.9</ele>
        <time>2018-07-22T12:35:11Z</time>
      </trkpt>
      <trkpt lat="44.59644" lon="0.93194">
        <ele>238.9</ele>
        <time>2018-07-22T12:35:12Z</time>
      </trkpt>
      <trkpt lat="44.59647" lon="0.93197">
        <ele>239.1</ele>
        <time>2018-07-22T12:35:13Z</time>
      </trkpt>
      <trkpt lat="44.5965" lon="0.932">
        <ele>239.4</ele>
        <time>2018-07-22T12:35:14Z</time>
      </trkpt>
      <trkpt lat="44.59653" lon="0.93202">
        <ele>239.4</ele>
        <time>2018-07-22T12:35:15Z</time>
      </trkpt>
      <trkpt lat="44.59656" lon="0.93206">
        <ele>239.6</ele>
        <time>2018-07-22T12:35:16Z</time>
      </trkpt>
      <trkpt lat="44.59659" lon="0.9321">
        <ele>239.8</ele>
        <time>2018-07-22T12:35:17Z</time>
      </trkpt>
      <trkpt lat="44.59661" lon="0.93214">
        <ele>240</ele>
        <time>2018-07-22T12:35:18Z</time>
      </trkpt>
      <trkpt lat="44.59664" lon="0.9322">
        <ele>240.2</ele>
        <time>2018-07-22T12:35:19Z</time>
      </trkpt>
      <trkpt lat="44.59666" lon="0.93225">
        <ele>240.4</ele>
        <time>2018-07-22T12:35:20Z</time>
      </trkpt>
      <trkpt lat="44.59668" lon="0.9323">
        <ele>240.8</ele>
        <time>2018-07-22T12:35:21Z</time>
      </trkpt>
      <trkpt lat="44.59671" lon="0.93235">
        <ele>241</ele>
        <time>2018-07-22T12:35:22Z</time>
      </trkpt>
      <trkpt lat="44.59673" lon="0.93241">
        <ele>241.2</ele>
        <time>2018-07-22T12:35:23Z</time>
      </trkpt>
      <trkpt lat="44.59675" lon="0.93246">
        <ele>241.4</ele>
        <time>2018-07-22T12:35:24Z</time>
      </trkpt>
      <trkpt lat="44.59678" lon="0.93251">
        <ele>241.6</ele>
        <time>2018-07-22T12:35:25Z</time>
      </trkpt>
      <trkpt lat="44.5968" lon="0.93256">
        <ele>241.9</ele>
        <time>2018-07-22T12:35:26Z</time>
      </trkpt>
      <trkpt lat="44.59682" lon="0.93262">
        <ele>242.1</ele>
        <time>2018-07-22T12:35:27Z</time>
      </trkpt>
      <trkpt lat="44.59683" lon="0.93267">
        <ele>242.2</ele>
        <time>2018-07-22T12:35:28Z</time>
      </trkpt>
      <trkpt lat="44.59685" lon="0.93272">
        <ele>242.4</ele>
        <time>2018-07-22T12:35:29Z</time>
      </trkpt>
      <trkpt lat="44.59687" lon="0.93278">
        <ele>242.4</ele>
        <time>2018-07-22T12:35:30Z</time>
      </trkpt>
      <trkpt lat="44.59689" lon="0.93282">
        <ele>242.4</ele>
        <time>2018-07-22T12:35:31Z</time>
      </trkpt>
      <trkpt lat="44.59691" lon="0.93289">
        <ele>242.5</ele>
        <time>2018-07-22T12:35:32Z</time>
      </trkpt>
      <trkpt lat="44.59693" lon="0.93294">
        <ele>242.5</ele>
        <time>2018-07-22T12:35:33Z</time>
      </trkpt>
      <trkpt lat="44.59695" lon="0.93299">
        <ele>242.4</ele>
        <time>2018-07-22T12:35:34Z</time>
      </trkpt>
      <trkpt lat="44.59697" lon="0.93304">
        <ele>242.5</ele>
        <time>2018-07-22T12:35:35Z</time>
      </trkpt>
      <trkpt lat="44.59699" lon="0.93308">
        <ele>242.4</ele>
        <time>2018-07-22T12:35:36Z</time>
      </trkpt>
      <trkpt lat="44.597" lon="0.93312">
        <ele>242.5</ele>
        <time>2018-07-22T12:35:37Z</time>
      </trkpt>
      <trkpt lat="44.59702" lon="0.93316">
        <ele>242.4</ele>
        <time>2018-07-22T12:35:38Z</time>
      </trkpt>
      <trkpt lat="44.59703" lon="0.9332">
        <ele>242.4</ele>
        <time>2018-07-22T12:35:39Z</time>
      </trkpt>
      <trkpt lat="44.59706" lon="0.93325">
        <ele>242.4</ele>
        <time>2018-07-22T12:35:40Z</time>
      </trkpt>
      <trkpt lat="44.59708" lon="0.9333">
        <ele>242.3</ele>
        <time>2018-07-22T12:35:41Z</time>
      </trkpt>
      <trkpt lat="44.5971" lon="0.93334">
        <ele>242.3</ele>
        <time>2018-07-22T12:35:42Z</time>
      </trkpt>
      <trkpt lat="44.59711" lon="0.93339">
        <ele>242.3</ele>
        <time>2018-07-22T12:35:43Z</time>
      </trkpt>
      <trkpt lat="44.59714" lon="0.93344">
        <ele>242.4</ele>
        <time>2018-07-22T12:35:44Z</time>
      </trkpt>
      <trkpt lat="44.59716" lon="0.93349">
        <ele>242.5</ele>
        <time>2018-07-22T12:35:45Z</time>
      </trkpt>
      <trkpt lat="44.59718" lon="0.93353">
        <ele>242.6</ele>
        <time>2018-07-22T12:35:46Z</time>
      </trkpt>
      <trkpt lat="44.5972" lon="0.93358">
        <ele>242.7</ele>
        <time>2018-07-22T12:35:47Z</time>
      </trkpt>
      <trkpt lat="44.59722" lon="0.93363">
        <ele>242.8</ele>
        <time>2018-07-22T12:35:48Z</time>
      </trkpt>
      <trkpt lat="44.59724" lon="0.93369">
        <ele>243</ele>
        <time>2018-07-22T12:35:49Z</time>
      </trkpt>
      <trkpt lat="44.59726" lon="0.93374">
        <ele>243</ele>
        <time>2018-07-22T12:35:50Z</time>
      </trkpt>
      <trkpt lat="44.59729" lon="0.93379">
        <ele>243</ele>
        <time>2018-07-22T12:35:51Z</time>
      </trkpt>
      <trkpt lat="44.59731" lon="0.93384">
        <ele>243.2</ele>
        <time>2018-07-22T12:35:52Z</time>
      </trkpt>
      <trkpt lat="44.59734" lon="0.93389">
        <ele>243.3</ele>
        <time>2018-07-22T12:35:53Z</time>
      </trkpt>
      <trkpt lat="44.59737" lon="0.93394">
        <ele>243.5</ele>
        <time>2018-07-22T12:35:54Z</time>
      </trkpt>
      <trkpt lat="44.59739" lon="0.93399">
        <ele>243.7</ele>
        <time>2018-07-22T12:35:55Z</time>
      </trkpt>
      <trkpt lat="44.59742" lon="0.93405">
        <ele>243.8</ele>
        <time>2018-07-22T12:35:56Z</time>
      </trkpt>
      <trkpt lat="44.59744" lon="0.9341">
        <ele>244</ele>
        <time>2018-07-22T12:35:57Z</time>
      </trkpt>
      <trkpt lat="44.59747" lon="0.93415">
        <ele>244.3</ele>
        <time>2018-07-22T12:35:58Z</time>
      </trkpt>
      <trkpt lat="44.59749" lon="0.93419">
        <ele>244.6</ele>
        <time>2018-07-22T12:35:59Z</time>
      </trkpt>
      <trkpt lat="44.59752" lon="0.93424">
        <ele>244.9</ele>
        <time>2018-07-22T12:36:00Z</time>
      </trkpt>
      <trkpt lat="44.59756" lon="0.93427">
        <ele>245.1</ele>
        <time>2018-07-22T12:36:01Z</time>
      </trkpt>
      <trkpt lat="44.59759" lon="0.9343">
        <ele>245.3</ele>
        <time>2018-07-22T12:36:02Z</time>
      </trkpt>
      <trkpt lat="44.59762" lon="0.93433">
        <ele>245.6</ele>
        <time>2018-07-22T12:36:03Z</time>
      </trkpt>
      <trkpt lat="44.59766" lon="0.93435">
        <ele>245.8</ele>
        <time>2018-07-22T12:36:04Z</time>
      </trkpt>
      <trkpt lat="44.59769" lon="0.93437">
        <ele>246.1</ele>
        <time>2018-07-22T12:36:05Z</time>
      </trkpt>
      <trkpt lat="44.59774" lon="0.93439">
        <ele>246.3</ele>
        <time>2018-07-22T12:36:06Z</time>
      </trkpt>
      <trkpt lat="44.59778" lon="0.93441">
        <ele>246.6</ele>
        <time>2018-07-22T12:36:07Z</time>
      </trkpt>
      <trkpt lat="44.59782" lon="0.93443">
        <ele>246.9</ele>
        <time>2018-07-22T12:36:08Z</time>
      </trkpt>
      <trkpt lat="44.59786" lon="0.93445">
        <ele>247</ele>
        <time>2018-07-22T12:36:09Z</time>
      </trkpt>
      <trkpt lat="44.5979" lon="0.93446">
        <ele>247.2</ele>
        <time>2018-07-22T12:36:10Z</time>
      </trkpt>
      <trkpt lat="44.59794" lon="0.93448">
        <ele>247.4</ele>
        <time>2018-07-22T12:36:11Z</time>
      </trkpt>
      <trkpt lat="44.59798" lon="0.9345">
        <ele>247.6</ele>
        <time>2018-07-22T12:36:12Z</time>
      </trkpt>
      <trkpt lat="44.59803" lon="0.93452">
        <ele>247.8</ele>
        <time>2018-07-22T12:36:13Z</time>
      </trkpt>
      <trkpt lat="44.59807" lon="0.93454">
        <ele>247.9</ele>
        <time>2018-07-22T12:36:14Z</time>
      </trkpt>
      <trkpt lat="44.59811" lon="0.93456">
        <ele>248.1</ele>
        <time>2018-07-22T12:36:15Z</time>
      </trkpt>
      <trkpt lat="44.59815" lon="0.93458">
        <ele>248.2</ele>
        <time>2018-07-22T12:36:16Z</time>
      </trkpt>
      <trkpt lat="44.59819" lon="0.9346">
        <ele>248.3</ele>
        <time>2018-07-22T12:36:17Z</time>
      </trkpt>
      <trkpt lat="44.59823" lon="0.93463">
        <ele>248.4</ele>
        <time>2018-07-22T12:36:18Z</time>
      </trkpt>
      <trkpt lat="44.59826" lon="0.93466">
        <ele>248.5</ele>
        <time>2018-07-22T12:36:19Z</time>
      </trkpt>
      <trkpt lat="44.59829" lon="0.93469">
        <ele>248.6</ele>
        <time>2018-07-22T12:36:20Z</time>
      </trkpt>
      <trkpt lat="44.59832" lon="0.93473">
        <ele>248.6</ele>
        <time>2018-07-22T12:36:21Z</time>
      </trkpt>
      <trkpt lat="44.59835" lon="0.93477">
        <ele>248.6</ele>
        <time>2018-07-22T12:36:22Z</time>
      </trkpt>
      <trkpt lat="44.59838" lon="0.9348">
        <ele>248.6</ele>
        <time>2018-07-22T12:36:23Z</time>
      </trkpt>
      <trkpt lat="44.5984" lon="0.93484">
        <ele>248.8</ele>
        <time>2018-07-22T12:36:24Z</time>
      </trkpt>
      <trkpt lat="44.59842" lon="0.93488">
        <ele>249</ele>
        <time>2018-07-22T12:36:25Z</time>
      </trkpt>
      <trkpt lat="44.59845" lon="0.93492">
        <ele>249.2</ele>
        <time>2018-07-22T12:36:26Z</time>
      </trkpt>
      <trkpt lat="44.59847" lon="0.93496">
        <ele>249.3</ele>
        <time>2018-07-22T12:36:27Z</time>
      </trkpt>
      <trkpt lat="44.5985" lon="0.935">
        <ele>249.3</ele>
        <time>2018-07-22T12:36:28Z</time>
      </trkpt>
      <trkpt lat="44.59852" lon="0.93503">
        <ele>249.4</ele>
        <time>2018-07-22T12:36:29Z</time>
      </trkpt>
      <trkpt lat="44.59855" lon="0.93507">
        <ele>249.4</ele>
        <time>2018-07-22T12:36:30Z</time>
      </trkpt>
      <trkpt lat="44.59858" lon="0.9351">
        <ele>249.6</ele>
        <time>2018-07-22T12:36:31Z</time>
      </trkpt>
      <trkpt lat="44.59862" lon="0.93513">
        <ele>249.7</ele>
        <time>2018-07-22T12:36:32Z</time>
      </trkpt>
      <trkpt lat="44.59866" lon="0.93516">
        <ele>249.7</ele>
        <time>2018-07-22T12:36:33Z</time>
      </trkpt>
      <trkpt lat="44.5987" lon="0.93518">
        <ele>249.7</ele>
        <time>2018-07-22T12:36:34Z</time>
      </trkpt>
      <trkpt lat="44.59874" lon="0.93521">
        <ele>249.7</ele>
        <time>2018-07-22T12:36:35Z</time>
      </trkpt>
      <trkpt lat="44.59879" lon="0.93522">
        <ele>249.7</ele>
        <time>2018-07-22T12:36:36Z</time>
      </trkpt>
      <trkpt lat="44.59883" lon="0.93524">
        <ele>249.8</ele>
        <time>2018-07-22T12:36:37Z</time>
      </trkpt>
      <trkpt lat="44.59887" lon="0.93526">
        <ele>249.8</ele>
        <time>2018-07-22T12:36:38Z</time>
      </trkpt>
      <trkpt lat="44.59892" lon="0.93528">
        <ele>249.9</ele>
        <time>2018-07-22T12:36:39Z</time>
      </trkpt>
      <trkpt lat="44.59896" lon="0.93531">
        <ele>250</ele>
        <time>2018-07-22T12:36:40Z</time>
      </trkpt>
      <trkpt lat="44.59901" lon="0.93533">
        <ele>250.1</ele>
        <time>2018-07-22T12:36:41Z</time>
      </trkpt>
      <trkpt lat="44.59905" lon="0.93534">
        <ele>250.2</ele>
        <time>2018-07-22T12:36:42Z</time>
      </trkpt>
      <trkpt lat="44.59908" lon="0.93535">
        <ele>250.3</ele>
        <time>2018-07-22T12:36:43Z</time>
      </trkpt>
      <trkpt lat="44.59911" lon="0.93537">
        <ele>250.3</ele>
        <time>2018-07-22T12:36:44Z</time>
      </trkpt>
      <trkpt lat="44.59914" lon="0.9354">
        <ele>250.3</ele>
        <time>2018-07-22T12:36:45Z</time>
      </trkpt>
      <trkpt lat="44.59918" lon="0.93542">
        <ele>250.5</ele>
        <time>2018-07-22T12:36:46Z</time>
      </trkpt>
      <trkpt lat="44.59923" lon="0.93544">
        <ele>250.7</ele>
        <time>2018-07-22T12:36:47Z</time>
      </trkpt>
      <trkpt lat="44.59928" lon="0.93546">
        <ele>250.9</ele>
        <time>2018-07-22T12:36:48Z</time>
      </trkpt>
      <trkpt lat="44.59933" lon="0.93545">
        <ele>251</ele>
        <time>2018-07-22T12:36:49Z</time>
      </trkpt>
      <trkpt lat="44.59937" lon="0.93545">
        <ele>251.1</ele>
        <time>2018-07-22T12:36:50Z</time>
      </trkpt>
      <trkpt lat="44.59943" lon="0.93542">
        <ele>251.2</ele>
        <time>2018-07-22T12:36:51Z</time>
      </trkpt>
      <trkpt lat="44.59948" lon="0.93542">
        <ele>251.3</ele>
        <time>2018-07-22T12:36:52Z</time>
      </trkpt>
      <trkpt lat="44.59952" lon="0.93541">
        <ele>251.5</ele>
        <time>2018-07-22T12:36:53Z</time>
      </trkpt>
      <trkpt lat="44.59956" lon="0.93541">
        <ele>251.8</ele>
        <time>2018-07-22T12:36:54Z</time>
      </trkpt>
      <trkpt lat="44.5996" lon="0.93541">
        <ele>252</ele>
        <time>2018-07-22T12:36:55Z</time>
      </trkpt>
      <trkpt lat="44.59964" lon="0.93541">
        <ele>252.2</ele>
        <time>2018-07-22T12:36:56Z</time>
      </trkpt>
      <trkpt lat="44.59968" lon="0.93541">
        <ele>252.4</ele>
        <time>2018-07-22T12:36:57Z</time>
      </trkpt>
      <trkpt lat="44.59971" lon="0.93542">
        <ele>252.8</ele>
        <time>2018-07-22T12:36:58Z</time>
      </trkpt>
      <trkpt lat="44.59975" lon="0.93543">
        <ele>253.1</ele>
        <time>2018-07-22T12:36:59Z</time>
      </trkpt>
      <trkpt lat="44.59979" lon="0.93545">
        <ele>253.4</ele>
        <time>2018-07-22T12:37:00Z</time>
      </trkpt>
      <trkpt lat="44.59983" lon="0.93547">
        <ele>253.6</ele>
        <time>2018-07-22T12:37:01Z</time>
      </trkpt>
      <trkpt lat="44.59987" lon="0.93549">
        <ele>253.8</ele>
        <time>2018-07-22T12:37:02Z</time>
      </trkpt>
      <trkpt lat="44.5999" lon="0.93551">
        <ele>254</ele>
        <time>2018-07-22T12:37:03Z</time>
      </trkpt>
      <trkpt lat="44.59994" lon="0.93553">
        <ele>254.1</ele>
        <time>2018-07-22T12:37:04Z</time>
      </trkpt>
      <trkpt lat="44.59997" lon="0.93555">
        <ele>254.4</ele>
        <time>2018-07-22T12:37:05Z</time>
      </trkpt>
      <trkpt lat="44.60001" lon="0.93557">
        <ele>254.7</ele>
        <time>2018-07-22T12:37:06Z</time>
      </trkpt>
      <trkpt lat="44.60004" lon="0.93559">
        <ele>255</ele>
        <time>2018-07-22T12:37:07Z</time>
      </trkpt>
      <trkpt lat="44.60008" lon="0.93562">
        <ele>255.3</ele>
        <time>2018-07-22T12:37:08Z</time>
      </trkpt>
      <trkpt lat="44.60011" lon="0.93564">
        <ele>255.4</ele>
        <time>2018-07-22T12:37:09Z</time>
      </trkpt>
      <trkpt lat="44.60014" lon="0.93566">
        <ele>255.5</ele>
        <time>2018-07-22T12:37:10Z</time>
      </trkpt>
      <trkpt lat="44.60017" lon="0.93568">
        <ele>255.7</ele>
        <time>2018-07-22T12:37:11Z</time>
      </trkpt>
      <trkpt lat="44.60021" lon="0.93569">
        <ele>255.9</ele>
        <time>2018-07-22T12:37:12Z</time>
      </trkpt>
      <trkpt lat="44.60024" lon="0.93572">
        <ele>256.2</ele>
        <time>2018-07-22T12:37:13Z</time>
      </trkpt>
      <trkpt lat="44.60027" lon="0.93574">
        <ele>256.4</ele>
        <time>2018-07-22T12:37:14Z</time>
      </trkpt>
      <trkpt lat="44.60031" lon="0.93577">
        <ele>256.7</ele>
        <time>2018-07-22T12:37:15Z</time>
      </trkpt>
      <trkpt lat="44.60034" lon="0.93579">
        <ele>256.9</ele>
        <time>2018-07-22T12:37:16Z</time>
      </trkpt>
      <trkpt lat="44.60038" lon="0.93581">
        <ele>257.1</ele>
        <time>2018-07-22T12:37:17Z</time>
      </trkpt>
      <trkpt lat="44.60041" lon="0.93583">
        <ele>257.3</ele>
        <time>2018-07-22T12:37:18Z</time>
      </trkpt>
      <trkpt lat="44.60044" lon="0.93585">
        <ele>257.6</ele>
        <time>2018-07-22T12:37:19Z</time>
      </trkpt>
      <trkpt lat="44.60047" lon="0.93588">
        <ele>257.7</ele>
        <time>2018-07-22T12:37:20Z</time>
      </trkpt>
      <trkpt lat="44.60051" lon="0.93591">
        <ele>257.9</ele>
        <time>2018-07-22T12:37:21Z</time>
      </trkpt>
      <trkpt lat="44.60054" lon="0.93593">
        <ele>258</ele>
        <time>2018-07-22T12:37:22Z</time>
      </trkpt>
      <trkpt lat="44.60058" lon="0.93595">
        <ele>258.2</ele>
        <time>2018-07-22T12:37:23Z</time>
      </trkpt>
      <trkpt lat="44.60061" lon="0.93597">
        <ele>258.4</ele>
        <time>2018-07-22T12:37:24Z</time>
      </trkpt>
      <trkpt lat="44.60065" lon="0.93599">
        <ele>258.5</ele>
        <time>2018-07-22T12:37:25Z</time>
      </trkpt>
      <trkpt lat="44.60069" lon="0.93601">
        <ele>258.7</ele>
        <time>2018-07-22T12:37:26Z</time>
      </trkpt>
      <trkpt lat="44.60073" lon="0.93602">
        <ele>258.9</ele>
        <time>2018-07-22T12:37:27Z</time>
      </trkpt>
      <trkpt lat="44.60077" lon="0.93604">
        <ele>259</ele>
        <time>2018-07-22T12:37:28Z</time>
      </trkpt>
      <trkpt lat="44.6008" lon="0.93606">
        <ele>259.2</ele>
        <time>2018-07-22T12:37:29Z</time>
      </trkpt>
      <trkpt lat="44.60084" lon="0.93608">
        <ele>259.3</ele>
        <time>2018-07-22T12:37:30Z</time>
      </trkpt>
      <trkpt lat="44.60088" lon="0.93609">
        <ele>259.5</ele>
        <time>2018-07-22T12:37:31Z</time>
      </trkpt>
      <trkpt lat="44.60092" lon="0.93611">
        <ele>259.8</ele>
        <time>2018-07-22T12:37:32Z</time>
      </trkpt>
      <trkpt lat="44.60096" lon="0.93613">
        <ele>259.9</ele>
        <time>2018-07-22T12:37:33Z</time>
      </trkpt>
      <trkpt lat="44.601" lon="0.93615">
        <ele>260</ele>
        <time>2018-07-22T12:37:34Z</time>
      </trkpt>
      <trkpt lat="44.60104" lon="0.93616">
        <ele>260.2</ele>
        <time>2018-07-22T12:37:35Z</time>
      </trkpt>
      <trkpt lat="44.60109" lon="0.93618">
        <ele>260.4</ele>
        <time>2018-07-22T12:37:36Z</time>
      </trkpt>
      <trkpt lat="44.60113" lon="0.93621">
        <ele>260.6</ele>
        <time>2018-07-22T12:37:37Z</time>
      </trkpt>
      <trkpt lat="44.60118" lon="0.93623">
        <ele>260.8</ele>
        <time>2018-07-22T12:37:38Z</time>
      </trkpt>
      <trkpt lat="44.60122" lon="0.93627">
        <ele>260.9</ele>
        <time>2018-07-22T12:37:39Z</time>
      </trkpt>
      <trkpt lat="44.60127" lon="0.93631">
        <ele>261</ele>
        <time>2018-07-22T12:37:40Z</time>
      </trkpt>
      <trkpt lat="44.60132" lon="0.93632">
        <ele>261.2</ele>
        <time>2018-07-22T12:37:41Z</time>
      </trkpt>
      <trkpt lat="44.60136" lon="0.93634">
        <ele>261.3</ele>
        <time>2018-07-22T12:37:42Z</time>
      </trkpt>
      <trkpt lat="44.60141" lon="0.93635">
        <ele>261.4</ele>
        <time>2018-07-22T12:37:43Z</time>
      </trkpt>
      <trkpt lat="44.60145" lon="0.93638">
        <ele>261.6</ele>
        <time>2018-07-22T12:37:44Z</time>
      </trkpt>
      <trkpt lat="44.60149" lon="0.93637">
        <ele>261.8</ele>
        <time>2018-07-22T12:37:45Z</time>
      </trkpt>
      <trkpt lat="44.60153" lon="0.93638">
        <ele>261.9</ele>
        <time>2018-07-22T12:37:46Z</time>
      </trkpt>
      <trkpt lat="44.60158" lon="0.93638">
        <ele>261.9</ele>
        <time>2018-07-22T12:37:47Z</time>
      </trkpt>
      <trkpt lat="44.60162" lon="0.9364">
        <ele>262</ele>
        <time>2018-07-22T12:37:48Z</time>
      </trkpt>
      <trkpt lat="44.60165" lon="0.93641">
        <ele>262.1</ele>
        <time>2018-07-22T12:37:49Z</time>
      </trkpt>
      <trkpt lat="44.60168" lon="0.93643">
        <ele>262.1</ele>
        <time>2018-07-22T12:37:50Z</time>
      </trkpt>
      <trkpt lat="44.60172" lon="0.93644">
        <ele>262.1</ele>
        <time>2018-07-22T12:37:51Z</time>
      </trkpt>
      <trkpt lat="44.60176" lon="0.93645">
        <ele>262.2</ele>
        <time>2018-07-22T12:37:52Z</time>
      </trkpt>
      <trkpt lat="44.60179" lon="0.93645">
        <ele>262.2</ele>
        <time>2018-07-22T12:37:53Z</time>
      </trkpt>
      <trkpt lat="44.60182" lon="0.93646">
        <ele>262.2</ele>
        <time>2018-07-22T12:37:54Z</time>
      </trkpt>
      <trkpt lat="44.60186" lon="0.93647">
        <ele>262.3</ele>
        <time>2018-07-22T12:37:55Z</time>
      </trkpt>
      <trkpt lat="44.60189" lon="0.93646">
        <ele>262.3</ele>
        <time>2018-07-22T12:37:56Z</time>
      </trkpt>
      <trkpt lat="44.60192" lon="0.93647">
        <ele>262.4</ele>
        <time>2018-07-22T12:37:57Z</time>
      </trkpt>
      <trkpt lat="44.60194" lon="0.93647">
        <ele>262.4</ele>
        <time>2018-07-22T12:37:58Z</time>
      </trkpt>
      <trkpt lat="44.60199" lon="0.93649">
        <ele>262.5</ele>
        <time>2018-07-22T12:38:00Z</time>
      </trkpt>
      <trkpt lat="44.60202" lon="0.93652">
        <ele>262.5</ele>
        <time>2018-07-22T12:38:02Z</time>
      </trkpt>
      <trkpt lat="44.60207" lon="0.93651">
        <ele>262.6</ele>
        <time>2018-07-22T12:38:04Z</time>
      </trkpt>
      <trkpt lat="44.60209" lon="0.93647">
        <ele>262.6</ele>
        <time>2018-07-22T12:38:05Z</time>
      </trkpt>
      <trkpt lat="44.60212" lon="0.93643">
        <ele>262.6</ele>
        <time>2018-07-22T12:38:06Z</time>
      </trkpt>
      <trkpt lat="44.60214" lon="0.93638">
        <ele>263</ele>
        <time>2018-07-22T12:38:07Z</time>
      </trkpt>
      <trkpt lat="44.60217" lon="0.93634">
        <ele>263.2</ele>
        <time>2018-07-22T12:38:08Z</time>
      </trkpt>
      <trkpt lat="44.60219" lon="0.93629">
        <ele>263.5</ele>
        <time>2018-07-22T12:38:09Z</time>
      </trkpt>
      <trkpt lat="44.60221" lon="0.93624">
        <ele>263.8</ele>
        <time>2018-07-22T12:38:10Z</time>
      </trkpt>
      <trkpt lat="44.60224" lon="0.93621">
        <ele>264.1</ele>
        <time>2018-07-22T12:38:11Z</time>
      </trkpt>
      <trkpt lat="44.60226" lon="0.93617">
        <ele>264.2</ele>
        <time>2018-07-22T12:38:12Z</time>
      </trkpt>
      <trkpt lat="44.60229" lon="0.93615">
        <ele>264.5</ele>
        <time>2018-07-22T12:38:13Z</time>
      </trkpt>
      <trkpt lat="44.60231" lon="0.93614">
        <ele>264.5</ele>
        <time>2018-07-22T12:38:14Z</time>
      </trkpt>
      <trkpt lat="44.60234" lon="0.93612">
        <ele>264.6</ele>
        <time>2018-07-22T12:38:15Z</time>
      </trkpt>
      <trkpt lat="44.60237" lon="0.9361">
        <ele>264.8</ele>
        <time>2018-07-22T12:38:16Z</time>
      </trkpt>
      <trkpt lat="44.60241" lon="0.93607">
        <ele>264.8</ele>
        <time>2018-07-22T12:38:17Z</time>
      </trkpt>
      <trkpt lat="44.60243" lon="0.93605">
        <ele>264.9</ele>
        <time>2018-07-22T12:38:18Z</time>
      </trkpt>
      <trkpt lat="44.60246" lon="0.936">
        <ele>265</ele>
        <time>2018-07-22T12:38:20Z</time>
      </trkpt>
      <trkpt lat="44.60248" lon="0.93597">
        <ele>265.1</ele>
        <time>2018-07-22T12:38:21Z</time>
      </trkpt>
      <trkpt lat="44.6025" lon="0.93594">
        <ele>265.2</ele>
        <time>2018-07-22T12:38:22Z</time>
      </trkpt>
      <trkpt lat="44.60253" lon="0.9359">
        <ele>265.2</ele>
        <time>2018-07-22T12:38:23Z</time>
      </trkpt>
      <trkpt lat="44.60255" lon="0.93587">
        <ele>265.2</ele>
        <time>2018-07-22T12:38:24Z</time>
      </trkpt>
      <trkpt lat="44.60258" lon="0.93583">
        <ele>265.2</ele>
        <time>2018-07-22T12:38:25Z</time>
      </trkpt>
      <trkpt lat="44.6026" lon="0.9358">
        <ele>265.2</ele>
        <time>2018-07-22T12:38:26Z</time>
      </trkpt>
      <trkpt lat="44.60263" lon="0.93577">
        <ele>265.2</ele>
        <time>2018-07-22T12:38:27Z</time>
      </trkpt>
      <trkpt lat="44.60265" lon="0.93574">
        <ele>265.2</ele>
        <time>2018-07-22T12:38:28Z</time>
      </trkpt>
      <trkpt lat="44.60268" lon="0.93571">
        <ele>265.2</ele>
        <time>2018-07-22T12:38:29Z</time>
      </trkpt>
      <trkpt lat="44.60271" lon="0.93568">
        <ele>265.2</ele>
        <time>2018-07-22T12:38:30Z</time>
      </trkpt>
      <trkpt lat="44.60274" lon="0.93565">
        <ele>265.1</ele>
        <time>2018-07-22T12:38:31Z</time>
      </trkpt>
      <trkpt lat="44.60277" lon="0.93561">
        <ele>264.9</ele>
        <time>2018-07-22T12:38:32Z</time>
      </trkpt>
      <trkpt lat="44.6028" lon="0.93557">
        <ele>264.7</ele>
        <time>2018-07-22T12:38:33Z</time>
      </trkpt>
      <trkpt lat="44.60283" lon="0.93552">
        <ele>264.4</ele>
        <time>2018-07-22T12:38:34Z</time>
      </trkpt>
      <trkpt lat="44.60285" lon="0.93546">
        <ele>264</ele>
        <time>2018-07-22T12:38:35Z</time>
      </trkpt>
      <trkpt lat="44.60287" lon="0.93541">
        <ele>264</ele>
        <time>2018-07-22T12:38:36Z</time>
      </trkpt>
      <trkpt lat="44.60288" lon="0.93536">
        <ele>263.7</ele>
        <time>2018-07-22T12:38:37Z</time>
      </trkpt>
      <trkpt lat="44.6029" lon="0.9353">
        <ele>263.6</ele>
        <time>2018-07-22T12:38:38Z</time>
      </trkpt>
      <trkpt lat="44.60291" lon="0.93524">
        <ele>263.3</ele>
        <time>2018-07-22T12:38:39Z</time>
      </trkpt>
      <trkpt lat="44.60292" lon="0.93516">
        <ele>263.3</ele>
        <time>2018-07-22T12:38:40Z</time>
      </trkpt>
      <trkpt lat="44.60293" lon="0.93509">
        <ele>263.3</ele>
        <time>2018-07-22T12:38:41Z</time>
      </trkpt>
      <trkpt lat="44.60294" lon="0.93503">
        <ele>263.2</ele>
        <time>2018-07-22T12:38:42Z</time>
      </trkpt>
      <trkpt lat="44.60295" lon="0.93496">
        <ele>263.2</ele>
        <time>2018-07-22T12:38:43Z</time>
      </trkpt>
      <trkpt lat="44.60296" lon="0.93484">
        <ele>263.1</ele>
        <time>2018-07-22T12:38:44Z</time>
      </trkpt>
      <trkpt lat="44.60297" lon="0.93475">
        <ele>262.9</ele>
        <time>2018-07-22T12:38:45Z</time>
      </trkpt>
      <trkpt lat="44.60299" lon="0.93468">
        <ele>262.6</ele>
        <time>2018-07-22T12:38:46Z</time>
      </trkpt>
      <trkpt lat="44.603" lon="0.93462">
        <ele>262.4</ele>
        <time>2018-07-22T12:38:47Z</time>
      </trkpt>
      <trkpt lat="44.603" lon="0.93457">
        <ele>262.1</ele>
        <time>2018-07-22T12:38:48Z</time>
      </trkpt>
      <trkpt lat="44.60301" lon="0.93451">
        <ele>261.8</ele>
        <time>2018-07-22T12:38:49Z</time>
      </trkpt>
      <trkpt lat="44.60301" lon="0.93446">
        <ele>261.6</ele>
        <time>2018-07-22T12:38:50Z</time>
      </trkpt>
      <trkpt lat="44.60304" lon="0.9344">
        <ele>261.3</ele>
        <time>2018-07-22T12:38:51Z</time>
      </trkpt>
      <trkpt lat="44.60306" lon="0.93435">
        <ele>260.9</ele>
        <time>2018-07-22T12:38:52Z</time>
      </trkpt>
      <trkpt lat="44.60308" lon="0.9343">
        <ele>260.6</ele>
        <time>2018-07-22T12:38:53Z</time>
      </trkpt>
      <trkpt lat="44.60311" lon="0.93423">
        <ele>260.3</ele>
        <time>2018-07-22T12:38:54Z</time>
      </trkpt>
      <trkpt lat="44.60312" lon="0.93417">
        <ele>259.8</ele>
        <time>2018-07-22T12:38:55Z</time>
      </trkpt>
      <trkpt lat="44.60314" lon="0.93409">
        <ele>259.4</ele>
        <time>2018-07-22T12:38:56Z</time>
      </trkpt>
      <trkpt lat="44.60319" lon="0.93404">
        <ele>259.1</ele>
        <time>2018-07-22T12:38:57Z</time>
      </trkpt>
      <trkpt lat="44.60319" lon="0.934">
        <ele>258.9</ele>
        <time>2018-07-22T12:38:58Z</time>
      </trkpt>
      <trkpt lat="44.6032" lon="0.93393">
        <ele>258.7</ele>
        <time>2018-07-22T12:38:59Z</time>
      </trkpt>
      <trkpt lat="44.60321" lon="0.93388">
        <ele>258.3</ele>
        <time>2018-07-22T12:39:00Z</time>
      </trkpt>
      <trkpt lat="44.60322" lon="0.93383">
        <ele>258</ele>
        <time>2018-07-22T12:39:01Z</time>
      </trkpt>
      <trkpt lat="44.60325" lon="0.93376">
        <ele>257.8</ele>
        <time>2018-07-22T12:39:02Z</time>
      </trkpt>
      <trkpt lat="44.60326" lon="0.93373">
        <ele>257.6</ele>
        <time>2018-07-22T12:39:03Z</time>
      </trkpt>
      <trkpt lat="44.60326" lon="0.93368">
        <ele>257.5</ele>
        <time>2018-07-22T12:39:04Z</time>
      </trkpt>
      <trkpt lat="44.60326" lon="0.93364">
        <ele>257.4</ele>
        <time>2018-07-22T12:39:05Z</time>
      </trkpt>
      <trkpt lat="44.60328" lon="0.93356">
        <ele>257.3</ele>
        <time>2018-07-22T12:39:06Z</time>
      </trkpt>
      <trkpt lat="44.6033" lon="0.9335">
        <ele>257.2</ele>
        <time>2018-07-22T12:39:07Z</time>
      </trkpt>
      <trkpt lat="44.60332" lon="0.93345">
        <ele>257.3</ele>
        <time>2018-07-22T12:39:08Z</time>
      </trkpt>
      <trkpt lat="44.60334" lon="0.93339">
        <ele>257.3</ele>
        <time>2018-07-22T12:39:09Z</time>
      </trkpt>
      <trkpt lat="44.60336" lon="0.93327">
        <ele>257.6</ele>
        <time>2018-07-22T12:39:10Z</time>
      </trkpt>
      <trkpt lat="44.60336" lon="0.9332">
        <ele>257.7</ele>
        <time>2018-07-22T12:39:11Z</time>
      </trkpt>
      <trkpt lat="44.60337" lon="0.93314">
        <ele>257.9</ele>
        <time>2018-07-22T12:39:12Z</time>
      </trkpt>
      <trkpt lat="44.6034" lon="0.93308">
        <ele>258</ele>
        <time>2018-07-22T12:39:13Z</time>
      </trkpt>
      <trkpt lat="44.6034" lon="0.933">
        <ele>258.3</ele>
        <time>2018-07-22T12:39:14Z</time>
      </trkpt>
      <trkpt lat="44.60341" lon="0.93292">
        <ele>258.5</ele>
        <time>2018-07-22T12:39:15Z</time>
      </trkpt>
      <trkpt lat="44.6034" lon="0.93285">
        <ele>258.8</ele>
        <time>2018-07-22T12:39:16Z</time>
      </trkpt>
      <trkpt lat="44.60343" lon="0.9328">
        <ele>258.9</ele>
        <time>2018-07-22T12:39:17Z</time>
      </trkpt>
      <trkpt lat="44.60344" lon="0.93269">
        <ele>259.2</ele>
        <time>2018-07-22T12:39:18Z</time>
      </trkpt>
      <trkpt lat="44.60344" lon="0.93259">
        <ele>259.5</ele>
        <time>2018-07-22T12:39:19Z</time>
      </trkpt>
      <trkpt lat="44.60343" lon="0.93252">
        <ele>259.6</ele>
        <time>2018-07-22T12:39:20Z</time>
      </trkpt>
      <trkpt lat="44.60342" lon="0.93242">
        <ele>259.8</ele>
        <time>2018-07-22T12:39:21Z</time>
      </trkpt>
      <trkpt lat="44.6034" lon="0.93235">
        <ele>260</ele>
        <time>2018-07-22T12:39:22Z</time>
      </trkpt>
      <trkpt lat="44.60338" lon="0.93228">
        <ele>260.2</ele>
        <time>2018-07-22T12:39:23Z</time>
      </trkpt>
      <trkpt lat="44.60336" lon="0.9322">
        <ele>260.4</ele>
        <time>2018-07-22T12:39:24Z</time>
      </trkpt>
      <trkpt lat="44.60334" lon="0.93214">
        <ele>260.4</ele>
        <time>2018-07-22T12:39:25Z</time>
      </trkpt>
      <trkpt lat="44.60332" lon="0.93205">
        <ele>260.5</ele>
        <time>2018-07-22T12:39:26Z</time>
      </trkpt>
      <trkpt lat="44.60331" lon="0.93198">
        <ele>260.6</ele>
        <time>2018-07-22T12:39:27Z</time>
      </trkpt>
      <trkpt lat="44.60329" lon="0.93191">
        <ele>260.7</ele>
        <time>2018-07-22T12:39:28Z</time>
      </trkpt>
      <trkpt lat="44.60326" lon="0.93182">
        <ele>260.7</ele>
        <time>2018-07-22T12:39:29Z</time>
      </trkpt>
      <trkpt lat="44.6032" lon="0.93172">
        <ele>260.7</ele>
        <time>2018-07-22T12:39:30Z</time>
      </trkpt>
      <trkpt lat="44.60317" lon="0.93164">
        <ele>260.7</ele>
        <time>2018-07-22T12:39:31Z</time>
      </trkpt>
      <trkpt lat="44.60315" lon="0.93156">
        <ele>260.5</ele>
        <time>2018-07-22T12:39:32Z</time>
      </trkpt>
      <trkpt lat="44.60311" lon="0.93149">
        <ele>260.4</ele>
        <time>2018-07-22T12:39:33Z</time>
      </trkpt>
      <trkpt lat="44.60308" lon="0.93142">
        <ele>260.2</ele>
        <time>2018-07-22T12:39:34Z</time>
      </trkpt>
      <trkpt lat="44.60303" lon="0.93135">
        <ele>260</ele>
        <time>2018-07-22T12:39:35Z</time>
      </trkpt>
      <trkpt lat="44.60298" lon="0.93129">
        <ele>259.7</ele>
        <time>2018-07-22T12:39:36Z</time>
      </trkpt>
      <trkpt lat="44.60292" lon="0.93124">
        <ele>259.5</ele>
        <time>2018-07-22T12:39:37Z</time>
      </trkpt>
      <trkpt lat="44.60289" lon="0.93117">
        <ele>259.2</ele>
        <time>2018-07-22T12:39:38Z</time>
      </trkpt>
      <trkpt lat="44.60285" lon="0.93111">
        <ele>259</ele>
        <time>2018-07-22T12:39:39Z</time>
      </trkpt>
      <trkpt lat="44.60283" lon="0.93104">
        <ele>258.8</ele>
        <time>2018-07-22T12:39:40Z</time>
      </trkpt>
      <trkpt lat="44.60282" lon="0.93098">
        <ele>258.7</ele>
        <time>2018-07-22T12:39:41Z</time>
      </trkpt>
      <trkpt lat="44.60282" lon="0.93092">
        <ele>258.5</ele>
        <time>2018-07-22T12:39:42Z</time>
      </trkpt>
      <trkpt lat="44.60283" lon="0.93085">
        <ele>258.4</ele>
        <time>2018-07-22T12:39:43Z</time>
      </trkpt>
      <trkpt lat="44.60282" lon="0.93078">
        <ele>258.2</ele>
        <time>2018-07-22T12:39:44Z</time>
      </trkpt>
      <trkpt lat="44.60282" lon="0.93072">
        <ele>258.1</ele>
        <time>2018-07-22T12:39:45Z</time>
      </trkpt>
      <trkpt lat="44.60283" lon="0.93064">
        <ele>257.8</ele>
        <time>2018-07-22T12:39:46Z</time>
      </trkpt>
      <trkpt lat="44.60285" lon="0.93053">
        <ele>257.5</ele>
        <time>2018-07-22T12:39:47Z</time>
      </trkpt>
      <trkpt lat="44.60285" lon="0.93046">
        <ele>257.4</ele>
        <time>2018-07-22T12:39:48Z</time>
      </trkpt>
      <trkpt lat="44.60289" lon="0.93035">
        <ele>257</ele>
        <time>2018-07-22T12:39:50Z</time>
      </trkpt>
      <trkpt lat="44.60291" lon="0.93028">
        <ele>256.8</ele>
        <time>2018-07-22T12:39:51Z</time>
      </trkpt>
      <trkpt lat="44.60292" lon="0.93022">
        <ele>256.2</ele>
        <time>2018-07-22T12:39:52Z</time>
      </trkpt>
      <trkpt lat="44.60291" lon="0.93015">
        <ele>255.6</ele>
        <time>2018-07-22T12:39:53Z</time>
      </trkpt>
      <trkpt lat="44.6029" lon="0.93005">
        <ele>254.9</ele>
        <time>2018-07-22T12:39:54Z</time>
      </trkpt>
      <trkpt lat="44.60288" lon="0.92999">
        <ele>254.6</ele>
        <time>2018-07-22T12:39:55Z</time>
      </trkpt>
      <trkpt lat="44.60288" lon="0.92992">
        <ele>253.9</ele>
        <time>2018-07-22T12:39:56Z</time>
      </trkpt>
      <trkpt lat="44.60287" lon="0.92983">
        <ele>253.3</ele>
        <time>2018-07-22T12:39:57Z</time>
      </trkpt>
      <trkpt lat="44.60286" lon="0.92978">
        <ele>253</ele>
        <time>2018-07-22T12:39:58Z</time>
      </trkpt>
      <trkpt lat="44.60283" lon="0.92964">
        <ele>252.3</ele>
        <time>2018-07-22T12:39:59Z</time>
      </trkpt>
      <trkpt lat="44.60282" lon="0.92952">
        <ele>251.6</ele>
        <time>2018-07-22T12:40:00Z</time>
      </trkpt>
      <trkpt lat="44.60281" lon="0.92941">
        <ele>251.2</ele>
        <time>2018-07-22T12:40:01Z</time>
      </trkpt>
      <trkpt lat="44.6028" lon="0.92932">
        <ele>250.9</ele>
        <time>2018-07-22T12:40:02Z</time>
      </trkpt>
      <trkpt lat="44.60277" lon="0.92929">
        <ele>250.9</ele>
        <time>2018-07-22T12:40:03Z</time>
      </trkpt>
      <trkpt lat="44.60276" lon="0.92919">
        <ele>250.7</ele>
        <time>2018-07-22T12:40:04Z</time>
      </trkpt>
      <trkpt lat="44.60274" lon="0.92914">
        <ele>250.8</ele>
        <time>2018-07-22T12:40:05Z</time>
      </trkpt>
      <trkpt lat="44.60273" lon="0.92907">
        <ele>250.6</ele>
        <time>2018-07-22T12:40:06Z</time>
      </trkpt>
      <trkpt lat="44.60272" lon="0.92901">
        <ele>250.5</ele>
        <time>2018-07-22T12:40:07Z</time>
      </trkpt>
      <trkpt lat="44.60272" lon="0.92896">
        <ele>250.5</ele>
        <time>2018-07-22T12:40:08Z</time>
      </trkpt>
      <trkpt lat="44.6027" lon="0.92888">
        <ele>250.5</ele>
        <time>2018-07-22T12:40:10Z</time>
      </trkpt>
      <trkpt lat="44.60268" lon="0.92879">
        <ele>250.5</ele>
        <time>2018-07-22T12:40:12Z</time>
      </trkpt>
      <trkpt lat="44.60269" lon="0.92873">
        <ele>250.4</ele>
        <time>2018-07-22T12:40:14Z</time>
      </trkpt>
      <trkpt lat="44.60268" lon="0.92868">
        <ele>250.3</ele>
        <time>2018-07-22T12:40:15Z</time>
      </trkpt>
      <trkpt lat="44.60266" lon="0.92864">
        <ele>250.3</ele>
        <time>2018-07-22T12:40:16Z</time>
      </trkpt>
      <trkpt lat="44.60266" lon="0.9286">
        <ele>250.3</ele>
        <time>2018-07-22T12:40:17Z</time>
      </trkpt>
      <trkpt lat="44.60264" lon="0.92853">
        <ele>250.3</ele>
        <time>2018-07-22T12:40:19Z</time>
      </trkpt>
      <trkpt lat="44.60263" lon="0.92849">
        <ele>250.3</ele>
        <time>2018-07-22T12:40:20Z</time>
      </trkpt>
      <trkpt lat="44.60262" lon="0.92845">
        <ele>250.2</ele>
        <time>2018-07-22T12:40:21Z</time>
      </trkpt>
      <trkpt lat="44.60261" lon="0.92841">
        <ele>250.2</ele>
        <time>2018-07-22T12:40:22Z</time>
      </trkpt>
      <trkpt lat="44.6026" lon="0.92836">
        <ele>250.1</ele>
        <time>2018-07-22T12:40:23Z</time>
      </trkpt>
      <trkpt lat="44.60259" lon="0.92832">
        <ele>250.1</ele>
        <time>2018-07-22T12:40:24Z</time>
      </trkpt>
      <trkpt lat="44.60258" lon="0.92828">
        <ele>250</ele>
        <time>2018-07-22T12:40:25Z</time>
      </trkpt>
      <trkpt lat="44.60257" lon="0.92822">
        <ele>249.9</ele>
        <time>2018-07-22T12:40:26Z</time>
      </trkpt>
      <trkpt lat="44.60256" lon="0.92816">
        <ele>249.7</ele>
        <time>2018-07-22T12:40:28Z</time>
      </trkpt>
      <trkpt lat="44.60255" lon="0.9281">
        <ele>249.6</ele>
        <time>2018-07-22T12:40:30Z</time>
      </trkpt>
      <trkpt lat="44.60253" lon="0.92802">
        <ele>249.4</ele>
        <time>2018-07-22T12:40:32Z</time>
      </trkpt>
      <trkpt lat="44.60253" lon="0.92798">
        <ele>249.4</ele>
        <time>2018-07-22T12:40:33Z</time>
      </trkpt>
      <trkpt lat="44.60251" lon="0.92794">
        <ele>249.4</ele>
        <time>2018-07-22T12:40:34Z</time>
      </trkpt>
      <trkpt lat="44.60249" lon="0.92789">
        <ele>249.4</ele>
        <time>2018-07-22T12:40:35Z</time>
      </trkpt>
      <trkpt lat="44.60247" lon="0.92783">
        <ele>249.3</ele>
        <time>2018-07-22T12:40:36Z</time>
      </trkpt>
      <trkpt lat="44.60246" lon="0.92778">
        <ele>249.1</ele>
        <time>2018-07-22T12:40:37Z</time>
      </trkpt>
      <trkpt lat="44.60246" lon="0.92774">
        <ele>249</ele>
        <time>2018-07-22T12:40:38Z</time>
      </trkpt>
      <trkpt lat="44.60248" lon="0.92769">
        <ele>247.3</ele>
        <time>2018-07-22T12:40:39Z</time>
      </trkpt>
      <trkpt lat="44.6025" lon="0.92766">
        <ele>247.4</ele>
        <time>2018-07-22T12:40:40Z</time>
      </trkpt>
      <trkpt lat="44.60253" lon="0.92762">
        <ele>247.6</ele>
        <time>2018-07-22T12:40:41Z</time>
      </trkpt>
      <trkpt lat="44.60257" lon="0.92759">
        <ele>247.7</ele>
        <time>2018-07-22T12:40:42Z</time>
      </trkpt>
      <trkpt lat="44.6026" lon="0.92755">
        <ele>248</ele>
        <time>2018-07-22T12:40:43Z</time>
      </trkpt>
      <trkpt lat="44.60264" lon="0.92751">
        <ele>248.2</ele>
        <time>2018-07-22T12:40:44Z</time>
      </trkpt>
      <trkpt lat="44.60267" lon="0.92747">
        <ele>248.4</ele>
        <time>2018-07-22T12:40:45Z</time>
      </trkpt>
      <trkpt lat="44.60271" lon="0.92744">
        <ele>248.7</ele>
        <time>2018-07-22T12:40:46Z</time>
      </trkpt>
      <trkpt lat="44.60274" lon="0.92741">
        <ele>249</ele>
        <time>2018-07-22T12:40:47Z</time>
      </trkpt>
      <trkpt lat="44.60277" lon="0.92737">
        <ele>249.3</ele>
        <time>2018-07-22T12:40:48Z</time>
      </trkpt>
      <trkpt lat="44.60281" lon="0.92734">
        <ele>249.5</ele>
        <time>2018-07-22T12:40:49Z</time>
      </trkpt>
      <trkpt lat="44.60284" lon="0.92731">
        <ele>249.8</ele>
        <time>2018-07-22T12:40:50Z</time>
      </trkpt>
      <trkpt lat="44.60288" lon="0.92729">
        <ele>250</ele>
        <time>2018-07-22T12:40:51Z</time>
      </trkpt>
      <trkpt lat="44.60292" lon="0.92727">
        <ele>250.2</ele>
        <time>2018-07-22T12:40:52Z</time>
      </trkpt>
      <trkpt lat="44.60296" lon="0.92725">
        <ele>250.4</ele>
        <time>2018-07-22T12:40:53Z</time>
      </trkpt>
      <trkpt lat="44.603" lon="0.92723">
        <ele>250.5</ele>
        <time>2018-07-22T12:40:54Z</time>
      </trkpt>
      <trkpt lat="44.60304" lon="0.92721">
        <ele>250.6</ele>
        <time>2018-07-22T12:40:55Z</time>
      </trkpt>
      <trkpt lat="44.60308" lon="0.9272">
        <ele>250.8</ele>
        <time>2018-07-22T12:40:56Z</time>
      </trkpt>
      <trkpt lat="44.60313" lon="0.92718">
        <ele>250.9</ele>
        <time>2018-07-22T12:40:57Z</time>
      </trkpt>
      <trkpt lat="44.60317" lon="0.92718">
        <ele>251.1</ele>
        <time>2018-07-22T12:40:58Z</time>
      </trkpt>
      <trkpt lat="44.60323" lon="0.92717">
        <ele>251.1</ele>
        <time>2018-07-22T12:40:59Z</time>
      </trkpt>
      <trkpt lat="44.60327" lon="0.92717">
        <ele>251.1</ele>
        <time>2018-07-22T12:41:00Z</time>
      </trkpt>
      <trkpt lat="44.60333" lon="0.92717">
        <ele>251.1</ele>
        <time>2018-07-22T12:41:01Z</time>
      </trkpt>
      <trkpt lat="44.60337" lon="0.92717">
        <ele>251.2</ele>
        <time>2018-07-22T12:41:02Z</time>
      </trkpt>
      <trkpt lat="44.60342" lon="0.92717">
        <ele>251.3</ele>
        <time>2018-07-22T12:41:03Z</time>
      </trkpt>
      <trkpt lat="44.60347" lon="0.92718">
        <ele>251.3</ele>
        <time>2018-07-22T12:41:04Z</time>
      </trkpt>
      <trkpt lat="44.60351" lon="0.92718">
        <ele>251.4</ele>
        <time>2018-07-22T12:41:05Z</time>
      </trkpt>
      <trkpt lat="44.60355" lon="0.92719">
        <ele>251.4</ele>
        <time>2018-07-22T12:41:06Z</time>
      </trkpt>
      <trkpt lat="44.6036" lon="0.92718">
        <ele>251.4</ele>
        <time>2018-07-22T12:41:07Z</time>
      </trkpt>
      <trkpt lat="44.60363" lon="0.92718">
        <ele>251.4</ele>
        <time>2018-07-22T12:41:08Z</time>
      </trkpt>
      <trkpt lat="44.60367" lon="0.92718">
        <ele>251.3</ele>
        <time>2018-07-22T12:41:09Z</time>
      </trkpt>
      <trkpt lat="44.60371" lon="0.92718">
        <ele>251.1</ele>
        <time>2018-07-22T12:41:10Z</time>
      </trkpt>
      <trkpt lat="44.60375" lon="0.92717">
        <ele>251</ele>
        <time>2018-07-22T12:41:11Z</time>
      </trkpt>
      <trkpt lat="44.60379" lon="0.92717">
        <ele>251.1</ele>
        <time>2018-07-22T12:41:12Z</time>
      </trkpt>
      <trkpt lat="44.60383" lon="0.92716">
        <ele>251.1</ele>
        <time>2018-07-22T12:41:13Z</time>
      </trkpt>
      <trkpt lat="44.60387" lon="0.92716">
        <ele>251.1</ele>
        <time>2018-07-22T12:41:14Z</time>
      </trkpt>
      <trkpt lat="44.60391" lon="0.92716">
        <ele>251</ele>
        <time>2018-07-22T12:41:15Z</time>
      </trkpt>
      <trkpt lat="44.60395" lon="0.92716">
        <ele>251</ele>
        <time>2018-07-22T12:41:16Z</time>
      </trkpt>
      <trkpt lat="44.60399" lon="0.92715">
        <ele>250.9</ele>
        <time>2018-07-22T12:41:17Z</time>
      </trkpt>
      <trkpt lat="44.60404" lon="0.92714">
        <ele>250.8</ele>
        <time>2018-07-22T12:41:18Z</time>
      </trkpt>
      <trkpt lat="44.60409" lon="0.92712">
        <ele>250.5</ele>
        <time>2018-07-22T12:41:19Z</time>
      </trkpt>
      <trkpt lat="44.60414" lon="0.9271">
        <ele>250.3</ele>
        <time>2018-07-22T12:41:20Z</time>
      </trkpt>
      <trkpt lat="44.60419" lon="0.92709">
        <ele>250.1</ele>
        <time>2018-07-22T12:41:21Z</time>
      </trkpt>
      <trkpt lat="44.60424" lon="0.92709">
        <ele>250</ele>
        <time>2018-07-22T12:41:22Z</time>
      </trkpt>
      <trkpt lat="44.6043" lon="0.92705">
        <ele>249.7</ele>
        <time>2018-07-22T12:41:23Z</time>
      </trkpt>
      <trkpt lat="44.60436" lon="0.92703">
        <ele>249.5</ele>
        <time>2018-07-22T12:41:24Z</time>
      </trkpt>
      <trkpt lat="44.60443" lon="0.92697">
        <ele>249.1</ele>
        <time>2018-07-22T12:41:25Z</time>
      </trkpt>
      <trkpt lat="44.60448" lon="0.92693">
        <ele>248.8</ele>
        <time>2018-07-22T12:41:26Z</time>
      </trkpt>
      <trkpt lat="44.60455" lon="0.92689">
        <ele>248.4</ele>
        <time>2018-07-22T12:41:27Z</time>
      </trkpt>
      <trkpt lat="44.60462" lon="0.92687">
        <ele>247.9</ele>
        <time>2018-07-22T12:41:28Z</time>
      </trkpt>
      <trkpt lat="44.60468" lon="0.92685">
        <ele>247.6</ele>
        <time>2018-07-22T12:41:29Z</time>
      </trkpt>
      <trkpt lat="44.60475" lon="0.92679">
        <ele>247.2</ele>
        <time>2018-07-22T12:41:30Z</time>
      </trkpt>
      <trkpt lat="44.60481" lon="0.92675">
        <ele>247</ele>
        <time>2018-07-22T12:41:31Z</time>
      </trkpt>
      <trkpt lat="44.6049" lon="0.92675">
        <ele>246.6</ele>
        <time>2018-07-22T12:41:32Z</time>
      </trkpt>
      <trkpt lat="44.60494" lon="0.92672">
        <ele>246.4</ele>
        <time>2018-07-22T12:41:33Z</time>
      </trkpt>
      <trkpt lat="44.605" lon="0.92668">
        <ele>246.1</ele>
        <time>2018-07-22T12:41:34Z</time>
      </trkpt>
      <trkpt lat="44.60507" lon="0.92661">
        <ele>245.7</ele>
        <time>2018-07-22T12:41:35Z</time>
      </trkpt>
      <trkpt lat="44.60513" lon="0.92658">
        <ele>245.4</ele>
        <time>2018-07-22T12:41:36Z</time>
      </trkpt>
      <trkpt lat="44.60518" lon="0.92655">
        <ele>245</ele>
        <time>2018-07-22T12:41:37Z</time>
      </trkpt>
      <trkpt lat="44.60524" lon="0.92647">
        <ele>244.6</ele>
        <time>2018-07-22T12:41:38Z</time>
      </trkpt>
      <trkpt lat="44.60528" lon="0.92642">
        <ele>244.4</ele>
        <time>2018-07-22T12:41:39Z</time>
      </trkpt>
      <trkpt lat="44.60531" lon="0.92639">
        <ele>244.2</ele>
        <time>2018-07-22T12:41:40Z</time>
      </trkpt>
      <trkpt lat="44.60533" lon="0.92637">
        <ele>244.1</ele>
        <time>2018-07-22T12:41:41Z</time>
      </trkpt>
      <trkpt lat="44.60536" lon="0.92635">
        <ele>244</ele>
        <time>2018-07-22T12:41:42Z</time>
      </trkpt>
      <trkpt lat="44.6054" lon="0.92632">
        <ele>243.8</ele>
        <time>2018-07-22T12:41:43Z</time>
      </trkpt>
      <trkpt lat="44.60544" lon="0.92631">
        <ele>243.5</ele>
        <time>2018-07-22T12:41:44Z</time>
      </trkpt>
      <trkpt lat="44.6055" lon="0.92635">
        <ele>243.4</ele>
        <time>2018-07-22T12:41:46Z</time>
      </trkpt>
      <trkpt lat="44.60553" lon="0.92636">
        <ele>243.2</ele>
        <time>2018-07-22T12:41:47Z</time>
      </trkpt>
      <trkpt lat="44.60556" lon="0.92638">
        <ele>243</ele>
        <time>2018-07-22T12:41:48Z</time>
      </trkpt>
      <trkpt lat="44.6056" lon="0.92641">
        <ele>242.7</ele>
        <time>2018-07-22T12:41:49Z</time>
      </trkpt>
      <trkpt lat="44.60563" lon="0.92642">
        <ele>242.5</ele>
        <time>2018-07-22T12:41:50Z</time>
      </trkpt>
      <trkpt lat="44.60567" lon="0.92644">
        <ele>242.3</ele>
        <time>2018-07-22T12:41:51Z</time>
      </trkpt>
      <trkpt lat="44.60572" lon="0.92646">
        <ele>242</ele>
        <time>2018-07-22T12:41:52Z</time>
      </trkpt>
      <trkpt lat="44.60577" lon="0.92649">
        <ele>241.9</ele>
        <time>2018-07-22T12:41:53Z</time>
      </trkpt>
      <trkpt lat="44.60581" lon="0.92652">
        <ele>241.6</ele>
        <time>2018-07-22T12:41:54Z</time>
      </trkpt>
      <trkpt lat="44.60584" lon="0.92654">
        <ele>241.4</ele>
        <time>2018-07-22T12:41:55Z</time>
      </trkpt>
      <trkpt lat="44.60587" lon="0.92656">
        <ele>241.2</ele>
        <time>2018-07-22T12:41:56Z</time>
      </trkpt>
      <trkpt lat="44.60591" lon="0.92659">
        <ele>241</ele>
        <time>2018-07-22T12:41:57Z</time>
      </trkpt>
      <trkpt lat="44.60623" lon="0.92666">
        <ele>240.3</ele>
        <time>2018-07-22T12:41:59Z</time>
      </trkpt>
      <trkpt lat="44.60632" lon="0.92665">
        <ele>240.1</ele>
        <time>2018-07-22T12:42:00Z</time>
      </trkpt>
      <trkpt lat="44.60638" lon="0.92677">
        <ele>239.5</ele>
        <time>2018-07-22T12:42:01Z</time>
      </trkpt>
      <trkpt lat="44.60647" lon="0.9268">
        <ele>239.3</ele>
        <time>2018-07-22T12:42:02Z</time>
      </trkpt>
      <trkpt lat="44.60655" lon="0.92685">
        <ele>238.8</ele>
        <time>2018-07-22T12:42:03Z</time>
      </trkpt>
      <trkpt lat="44.6066" lon="0.9269">
        <ele>238.5</ele>
        <time>2018-07-22T12:42:04Z</time>
      </trkpt>
      <trkpt lat="44.60667" lon="0.92695">
        <ele>238.1</ele>
        <time>2018-07-22T12:42:05Z</time>
      </trkpt>
      <trkpt lat="44.60675" lon="0.92699">
        <ele>237.7</ele>
        <time>2018-07-22T12:42:06Z</time>
      </trkpt>
      <trkpt lat="44.60683" lon="0.92699">
        <ele>237.5</ele>
        <time>2018-07-22T12:42:07Z</time>
      </trkpt>
      <trkpt lat="44.6069" lon="0.927">
        <ele>237.4</ele>
        <time>2018-07-22T12:42:08Z</time>
      </trkpt>
      <trkpt lat="44.60697" lon="0.927">
        <ele>237.1</ele>
        <time>2018-07-22T12:42:09Z</time>
      </trkpt>
      <trkpt lat="44.60707" lon="0.927">
        <ele>236.9</ele>
        <time>2018-07-22T12:42:10Z</time>
      </trkpt>
      <trkpt lat="44.60714" lon="0.92702">
        <ele>236.7</ele>
        <time>2018-07-22T12:42:11Z</time>
      </trkpt>
      <trkpt lat="44.60724" lon="0.92705">
        <ele>236.4</ele>
        <time>2018-07-22T12:42:12Z</time>
      </trkpt>
      <trkpt lat="44.6073" lon="0.92706">
        <ele>236.2</ele>
        <time>2018-07-22T12:42:13Z</time>
      </trkpt>
      <trkpt lat="44.60736" lon="0.92706">
        <ele>236</ele>
        <time>2018-07-22T12:42:14Z</time>
      </trkpt>
      <trkpt lat="44.60739" lon="0.92706">
        <ele>235.9</ele>
        <time>2018-07-22T12:42:15Z</time>
      </trkpt>
      <trkpt lat="44.60743" lon="0.92702">
        <ele>235.8</ele>
        <time>2018-07-22T12:42:16Z</time>
      </trkpt>
      <trkpt lat="44.60747" lon="0.92696">
        <ele>235.7</ele>
        <time>2018-07-22T12:42:17Z</time>
      </trkpt>
      <trkpt lat="44.60752" lon="0.92689">
        <ele>235.5</ele>
        <time>2018-07-22T12:42:18Z</time>
      </trkpt>
      <trkpt lat="44.60758" lon="0.92683">
        <ele>235.1</ele>
        <time>2018-07-22T12:42:19Z</time>
      </trkpt>
      <trkpt lat="44.60763" lon="0.92675">
        <ele>234.6</ele>
        <time>2018-07-22T12:42:20Z</time>
      </trkpt>
      <trkpt lat="44.6077" lon="0.92669">
        <ele>234.1</ele>
        <time>2018-07-22T12:42:21Z</time>
      </trkpt>
      <trkpt lat="44.60777" lon="0.92659">
        <ele>233.3</ele>
        <time>2018-07-22T12:42:22Z</time>
      </trkpt>
      <trkpt lat="44.60782" lon="0.92651">
        <ele>232.7</ele>
        <time>2018-07-22T12:42:23Z</time>
      </trkpt>
      <trkpt lat="44.60786" lon="0.92644">
        <ele>232</ele>
        <time>2018-07-22T12:42:24Z</time>
      </trkpt>
      <trkpt lat="44.6079" lon="0.92638">
        <ele>231.7</ele>
        <time>2018-07-22T12:42:25Z</time>
      </trkpt>
      <trkpt lat="44.60796" lon="0.9263">
        <ele>231.2</ele>
        <time>2018-07-22T12:42:26Z</time>
      </trkpt>
      <trkpt lat="44.60802" lon="0.92624">
        <ele>230.5</ele>
        <time>2018-07-22T12:42:27Z</time>
      </trkpt>
      <trkpt lat="44.60809" lon="0.92616">
        <ele>229.9</ele>
        <time>2018-07-22T12:42:28Z</time>
      </trkpt>
      <trkpt lat="44.60816" lon="0.92609">
        <ele>228.9</ele>
        <time>2018-07-22T12:42:29Z</time>
      </trkpt>
      <trkpt lat="44.60824" lon="0.92604">
        <ele>228</ele>
        <time>2018-07-22T12:42:30Z</time>
      </trkpt>
      <trkpt lat="44.6083" lon="0.92599">
        <ele>227.1</ele>
        <time>2018-07-22T12:42:31Z</time>
      </trkpt>
      <trkpt lat="44.60839" lon="0.92584">
        <ele>225.1</ele>
        <time>2018-07-22T12:42:32Z</time>
      </trkpt>
      <trkpt lat="44.60846" lon="0.9258">
        <ele>224.3</ele>
        <time>2018-07-22T12:42:33Z</time>
      </trkpt>
      <trkpt lat="44.60852" lon="0.92574">
        <ele>223.7</ele>
        <time>2018-07-22T12:42:34Z</time>
      </trkpt>
      <trkpt lat="44.60859" lon="0.92568">
        <ele>222.8</ele>
        <time>2018-07-22T12:42:35Z</time>
      </trkpt>
      <trkpt lat="44.60865" lon="0.9256">
        <ele>222.1</ele>
        <time>2018-07-22T12:42:36Z</time>
      </trkpt>
      <trkpt lat="44.60877" lon="0.92545">
        <ele>220.5</ele>
        <time>2018-07-22T12:42:37Z</time>
      </trkpt>
      <trkpt lat="44.60884" lon="0.92535">
        <ele>219.7</ele>
        <time>2018-07-22T12:42:38Z</time>
      </trkpt>
      <trkpt lat="44.60892" lon="0.92528">
        <ele>218.8</ele>
        <time>2018-07-22T12:42:39Z</time>
      </trkpt>
      <trkpt lat="44.60901" lon="0.92525">
        <ele>217.5</ele>
        <time>2018-07-22T12:42:40Z</time>
      </trkpt>
      <trkpt lat="44.60908" lon="0.9252">
        <ele>216.1</ele>
        <time>2018-07-22T12:42:41Z</time>
      </trkpt>
      <trkpt lat="44.60916" lon="0.92516">
        <ele>215.1</ele>
        <time>2018-07-22T12:42:42Z</time>
      </trkpt>
      <trkpt lat="44.60923" lon="0.92511">
        <ele>213.6</ele>
        <time>2018-07-22T12:42:43Z</time>
      </trkpt>
      <trkpt lat="44.60932" lon="0.92508">
        <ele>212.8</ele>
        <time>2018-07-22T12:42:44Z</time>
      </trkpt>
      <trkpt lat="44.6094" lon="0.92501">
        <ele>211.8</ele>
        <time>2018-07-22T12:42:45Z</time>
      </trkpt>
      <trkpt lat="44.60944" lon="0.92501">
        <ele>211.4</ele>
        <time>2018-07-22T12:42:46Z</time>
      </trkpt>
      <trkpt lat="44.60953" lon="0.92488">
        <ele>210.8</ele>
        <time>2018-07-22T12:42:47Z</time>
      </trkpt>
      <trkpt lat="44.6096" lon="0.92481">
        <ele>210.1</ele>
        <time>2018-07-22T12:42:48Z</time>
      </trkpt>
      <trkpt lat="44.60965" lon="0.92473">
        <ele>209.7</ele>
        <time>2018-07-22T12:42:49Z</time>
      </trkpt>
      <trkpt lat="44.60972" lon="0.92464">
        <ele>209</ele>
        <time>2018-07-22T12:42:50Z</time>
      </trkpt>
      <trkpt lat="44.60977" lon="0.92458">
        <ele>208.4</ele>
        <time>2018-07-22T12:42:51Z</time>
      </trkpt>
      <trkpt lat="44.60984" lon="0.9245">
        <ele>207.7</ele>
        <time>2018-07-22T12:42:52Z</time>
      </trkpt>
      <trkpt lat="44.60992" lon="0.9244">
        <ele>206.9</ele>
        <time>2018-07-22T12:42:53Z</time>
      </trkpt>
      <trkpt lat="44.60997" lon="0.92435">
        <ele>206.2</ele>
        <time>2018-07-22T12:42:54Z</time>
      </trkpt>
      <trkpt lat="44.61003" lon="0.9243">
        <ele>205.1</ele>
        <time>2018-07-22T12:42:55Z</time>
      </trkpt>
      <trkpt lat="44.61008" lon="0.92425">
        <ele>204.5</ele>
        <time>2018-07-22T12:42:56Z</time>
      </trkpt>
      <trkpt lat="44.61013" lon="0.92418">
        <ele>203.2</ele>
        <time>2018-07-22T12:42:57Z</time>
      </trkpt>
      <trkpt lat="44.61017" lon="0.92414">
        <ele>202.4</ele>
        <time>2018-07-22T12:42:58Z</time>
      </trkpt>
      <trkpt lat="44.61023" lon="0.92407">
        <ele>201.2</ele>
        <time>2018-07-22T12:42:59Z</time>
      </trkpt>
      <trkpt lat="44.61029" lon="0.92403">
        <ele>199.8</ele>
        <time>2018-07-22T12:43:00Z</time>
      </trkpt>
      <trkpt lat="44.61033" lon="0.92397">
        <ele>198.2</ele>
        <time>2018-07-22T12:43:01Z</time>
      </trkpt>
      <trkpt lat="44.61038" lon="0.92392">
        <ele>197.4</ele>
        <time>2018-07-22T12:43:02Z</time>
      </trkpt>
      <trkpt lat="44.61043" lon="0.92392">
        <ele>196.6</ele>
        <time>2018-07-22T12:43:03Z</time>
      </trkpt>
      <trkpt lat="44.6105" lon="0.92386">
        <ele>195.3</ele>
        <time>2018-07-22T12:43:04Z</time>
      </trkpt>
      <trkpt lat="44.61058" lon="0.92381">
        <ele>193.6</ele>
        <time>2018-07-22T12:43:05Z</time>
      </trkpt>
      <trkpt lat="44.61065" lon="0.92375">
        <ele>192.3</ele>
        <time>2018-07-22T12:43:06Z</time>
      </trkpt>
      <trkpt lat="44.61074" lon="0.92369">
        <ele>190.4</ele>
        <time>2018-07-22T12:43:07Z</time>
      </trkpt>
      <trkpt lat="44.6108" lon="0.92368">
        <ele>189.4</ele>
        <time>2018-07-22T12:43:08Z</time>
      </trkpt>
      <trkpt lat="44.61087" lon="0.92368">
        <ele>188.4</ele>
        <time>2018-07-22T12:43:09Z</time>
      </trkpt>
      <trkpt lat="44.61095" lon="0.92369">
        <ele>187</ele>
        <time>2018-07-22T12:43:10Z</time>
      </trkpt>
      <trkpt lat="44.61102" lon="0.92372">
        <ele>186.4</ele>
        <time>2018-07-22T12:43:11Z</time>
      </trkpt>
      <trkpt lat="44.61108" lon="0.92374">
        <ele>185.5</ele>
        <time>2018-07-22T12:43:12Z</time>
      </trkpt>
      <trkpt lat="44.61114" lon="0.92373">
        <ele>184.6</ele>
        <time>2018-07-22T12:43:13Z</time>
      </trkpt>
      <trkpt lat="44.61119" lon="0.92375">
        <ele>184</ele>
        <time>2018-07-22T12:43:14Z</time>
      </trkpt>
      <trkpt lat="44.61123" lon="0.92378">
        <ele>183.5</ele>
        <time>2018-07-22T12:43:15Z</time>
      </trkpt>
      <trkpt lat="44.61128" lon="0.92382">
        <ele>183</ele>
        <time>2018-07-22T12:43:16Z</time>
      </trkpt>
      <trkpt lat="44.61136" lon="0.92379">
        <ele>182.1</ele>
        <time>2018-07-22T12:43:17Z</time>
      </trkpt>
      <trkpt lat="44.6114" lon="0.9238">
        <ele>181.8</ele>
        <time>2018-07-22T12:43:18Z</time>
      </trkpt>
      <trkpt lat="44.61144" lon="0.92381">
        <ele>181.5</ele>
        <time>2018-07-22T12:43:19Z</time>
      </trkpt>
      <trkpt lat="44.6115" lon="0.92385">
        <ele>181.4</ele>
        <time>2018-07-22T12:43:20Z</time>
      </trkpt>
      <trkpt lat="44.61153" lon="0.92386">
        <ele>181.2</ele>
        <time>2018-07-22T12:43:21Z</time>
      </trkpt>
      <trkpt lat="44.61156" lon="0.92392">
        <ele>181.3</ele>
        <time>2018-07-22T12:43:22Z</time>
      </trkpt>
      <trkpt lat="44.61159" lon="0.92393">
        <ele>181.4</ele>
        <time>2018-07-22T12:43:23Z</time>
      </trkpt>
      <trkpt lat="44.61164" lon="0.92393">
        <ele>181.3</ele>
        <time>2018-07-22T12:43:24Z</time>
      </trkpt>
      <trkpt lat="44.61173" lon="0.92386">
        <ele>181.1</ele>
        <time>2018-07-22T12:43:25Z</time>
      </trkpt>
      <trkpt lat="44.61178" lon="0.92388">
        <ele>181.5</ele>
        <time>2018-07-22T12:43:26Z</time>
      </trkpt>
      <trkpt lat="44.61184" lon="0.92386">
        <ele>181.9</ele>
        <time>2018-07-22T12:43:27Z</time>
      </trkpt>
      <trkpt lat="44.61191" lon="0.92383">
        <ele>182.5</ele>
        <time>2018-07-22T12:43:28Z</time>
      </trkpt>
      <trkpt lat="44.61198" lon="0.9238">
        <ele>183.8</ele>
        <time>2018-07-22T12:43:29Z</time>
      </trkpt>
      <trkpt lat="44.61205" lon="0.92379">
        <ele>184.8</ele>
        <time>2018-07-22T12:43:30Z</time>
      </trkpt>
      <trkpt lat="44.61211" lon="0.92376">
        <ele>185.7</ele>
        <time>2018-07-22T12:43:31Z</time>
      </trkpt>
      <trkpt lat="44.61216" lon="0.92375">
        <ele>185.7</ele>
        <time>2018-07-22T12:43:32Z</time>
      </trkpt>
      <trkpt lat="44.61221" lon="0.92373">
        <ele>185.8</ele>
        <time>2018-07-22T12:43:33Z</time>
      </trkpt>
      <trkpt lat="44.61226" lon="0.92373">
        <ele>185.8</ele>
        <time>2018-07-22T12:43:34Z</time>
      </trkpt>
      <trkpt lat="44.61232" lon="0.92375">
        <ele>185.8</ele>
        <time>2018-07-22T12:43:35Z</time>
      </trkpt>
      <trkpt lat="44.61234" lon="0.92379">
        <ele>185.9</ele>
        <time>2018-07-22T12:43:36Z</time>
      </trkpt>
      <trkpt lat="44.61237" lon="0.92383">
        <ele>185.9</ele>
        <time>2018-07-22T12:43:37Z</time>
      </trkpt>
      <trkpt lat="44.61238" lon="0.9239">
        <ele>185.9</ele>
        <time>2018-07-22T12:43:38Z</time>
      </trkpt>
      <trkpt lat="44.61241" lon="0.92395">
        <ele>185.9</ele>
        <time>2018-07-22T12:43:39Z</time>
      </trkpt>
      <trkpt lat="44.61244" lon="0.924">
        <ele>186</ele>
        <time>2018-07-22T12:43:40Z</time>
      </trkpt>
      <trkpt lat="44.61247" lon="0.92405">
        <ele>186</ele>
        <time>2018-07-22T12:43:41Z</time>
      </trkpt>
      <trkpt lat="44.61251" lon="0.9241">
        <ele>186</ele>
        <time>2018-07-22T12:43:42Z</time>
      </trkpt>
      <trkpt lat="44.61254" lon="0.92415">
        <ele>186.1</ele>
        <time>2018-07-22T12:43:43Z</time>
      </trkpt>
      <trkpt lat="44.61258" lon="0.9242">
        <ele>186.2</ele>
        <time>2018-07-22T12:43:44Z</time>
      </trkpt>
      <trkpt lat="44.61261" lon="0.92425">
        <ele>186.4</ele>
        <time>2018-07-22T12:43:45Z</time>
      </trkpt>
      <trkpt lat="44.61266" lon="0.92431">
        <ele>186.5</ele>
        <time>2018-07-22T12:43:46Z</time>
      </trkpt>
      <trkpt lat="44.61267" lon="0.92436">
        <ele>186.7</ele>
        <time>2018-07-22T12:43:47Z</time>
      </trkpt>
      <trkpt lat="44.61271" lon="0.9244">
        <ele>186.8</ele>
        <time>2018-07-22T12:43:48Z</time>
      </trkpt>
      <trkpt lat="44.61275" lon="0.92445">
        <ele>187</ele>
        <time>2018-07-22T12:43:49Z</time>
      </trkpt>
      <trkpt lat="44.61277" lon="0.92448">
        <ele>187.2</ele>
        <time>2018-07-22T12:43:50Z</time>
      </trkpt>
      <trkpt lat="44.61281" lon="0.92452">
        <ele>187.4</ele>
        <time>2018-07-22T12:43:51Z</time>
      </trkpt>
      <trkpt lat="44.61284" lon="0.92456">
        <ele>187.6</ele>
        <time>2018-07-22T12:43:52Z</time>
      </trkpt>
      <trkpt lat="44.61287" lon="0.9246">
        <ele>187.8</ele>
        <time>2018-07-22T12:43:53Z</time>
      </trkpt>
      <trkpt lat="44.61291" lon="0.92464">
        <ele>188</ele>
        <time>2018-07-22T12:43:54Z</time>
      </trkpt>
      <trkpt lat="44.61295" lon="0.92469">
        <ele>188.3</ele>
        <time>2018-07-22T12:43:55Z</time>
      </trkpt>
      <trkpt lat="44.61298" lon="0.92473">
        <ele>188.5</ele>
        <time>2018-07-22T12:43:56Z</time>
      </trkpt>
      <trkpt lat="44.61301" lon="0.92477">
        <ele>188.8</ele>
        <time>2018-07-22T12:43:57Z</time>
      </trkpt>
      <trkpt lat="44.61304" lon="0.92481">
        <ele>189.1</ele>
        <time>2018-07-22T12:43:58Z</time>
      </trkpt>
      <trkpt lat="44.61306" lon="0.92485">
        <ele>189.3</ele>
        <time>2018-07-22T12:43:59Z</time>
      </trkpt>
      <trkpt lat="44.61309" lon="0.9249">
        <ele>189.6</ele>
        <time>2018-07-22T12:44:00Z</time>
      </trkpt>
      <trkpt lat="44.61311" lon="0.92494">
        <ele>189.8</ele>
        <time>2018-07-22T12:44:01Z</time>
      </trkpt>
      <trkpt lat="44.61314" lon="0.92499">
        <ele>190</ele>
        <time>2018-07-22T12:44:02Z</time>
      </trkpt>
      <trkpt lat="44.61316" lon="0.92503">
        <ele>190.2</ele>
        <time>2018-07-22T12:44:03Z</time>
      </trkpt>
      <trkpt lat="44.61319" lon="0.92508">
        <ele>190.5</ele>
        <time>2018-07-22T12:44:04Z</time>
      </trkpt>
      <trkpt lat="44.61322" lon="0.92512">
        <ele>190.7</ele>
        <time>2018-07-22T12:44:05Z</time>
      </trkpt>
      <trkpt lat="44.61325" lon="0.92517">
        <ele>190.9</ele>
        <time>2018-07-22T12:44:06Z</time>
      </trkpt>
      <trkpt lat="44.61328" lon="0.92521">
        <ele>191.1</ele>
        <time>2018-07-22T12:44:07Z</time>
      </trkpt>
      <trkpt lat="44.61331" lon="0.92526">
        <ele>191.3</ele>
        <time>2018-07-22T12:44:08Z</time>
      </trkpt>
      <trkpt lat="44.61334" lon="0.9253">
        <ele>191.5</ele>
        <time>2018-07-22T12:44:09Z</time>
      </trkpt>
      <trkpt lat="44.61337" lon="0.92534">
        <ele>191.6</ele>
        <time>2018-07-22T12:44:10Z</time>
      </trkpt>
      <trkpt lat="44.61339" lon="0.92538">
        <ele>191.8</ele>
        <time>2018-07-22T12:44:11Z</time>
      </trkpt>
      <trkpt lat="44.61342" lon="0.92541">
        <ele>192</ele>
        <time>2018-07-22T12:44:12Z</time>
      </trkpt>
      <trkpt lat="44.61346" lon="0.92545">
        <ele>192.2</ele>
        <time>2018-07-22T12:44:13Z</time>
      </trkpt>
      <trkpt lat="44.61349" lon="0.92548">
        <ele>192.3</ele>
        <time>2018-07-22T12:44:14Z</time>
      </trkpt>
      <trkpt lat="44.61352" lon="0.92551">
        <ele>192.4</ele>
        <time>2018-07-22T12:44:15Z</time>
      </trkpt>
      <trkpt lat="44.61356" lon="0.92553">
        <ele>192.6</ele>
        <time>2018-07-22T12:44:16Z</time>
      </trkpt>
      <trkpt lat="44.61359" lon="0.92556">
        <ele>192.7</ele>
        <time>2018-07-22T12:44:17Z</time>
      </trkpt>
      <trkpt lat="44.61363" lon="0.92559">
        <ele>193</ele>
        <time>2018-07-22T12:44:18Z</time>
      </trkpt>
      <trkpt lat="44.61366" lon="0.92561">
        <ele>193.2</ele>
        <time>2018-07-22T12:44:19Z</time>
      </trkpt>
      <trkpt lat="44.6137" lon="0.92564">
        <ele>193.5</ele>
        <time>2018-07-22T12:44:20Z</time>
      </trkpt>
      <trkpt lat="44.61374" lon="0.92567">
        <ele>193.7</ele>
        <time>2018-07-22T12:44:21Z</time>
      </trkpt>
      <trkpt lat="44.61377" lon="0.9257">
        <ele>193.9</ele>
        <time>2018-07-22T12:44:22Z</time>
      </trkpt>
      <trkpt lat="44.61381" lon="0.92572">
        <ele>194.1</ele>
        <time>2018-07-22T12:44:23Z</time>
      </trkpt>
      <trkpt lat="44.61385" lon="0.92575">
        <ele>194.4</ele>
        <time>2018-07-22T12:44:24Z</time>
      </trkpt>
      <trkpt lat="44.61388" lon="0.92577">
        <ele>194.6</ele>
        <time>2018-07-22T12:44:25Z</time>
      </trkpt>
      <trkpt lat="44.61392" lon="0.9258">
        <ele>194.8</ele>
        <time>2018-07-22T12:44:26Z</time>
      </trkpt>
      <trkpt lat="44.61396" lon="0.92582">
        <ele>195</ele>
        <time>2018-07-22T12:44:27Z</time>
      </trkpt>
      <trkpt lat="44.61399" lon="0.92584">
        <ele>194.9</ele>
        <time>2018-07-22T12:44:28Z</time>
      </trkpt>
      <trkpt lat="44.61403" lon="0.92586">
        <ele>194.9</ele>
        <time>2018-07-22T12:44:29Z</time>
      </trkpt>
      <trkpt lat="44.61406" lon="0.92588">
        <ele>194.8</ele>
        <time>2018-07-22T12:44:30Z</time>
      </trkpt>
      <trkpt lat="44.61409" lon="0.92591">
        <ele>194.7</ele>
        <time>2018-07-22T12:44:31Z</time>
      </trkpt>
      <trkpt lat="44.61413" lon="0.92593">
        <ele>194.7</ele>
        <time>2018-07-22T12:44:32Z</time>
      </trkpt>
      <trkpt lat="44.61416" lon="0.92595">
        <ele>194.7</ele>
        <time>2018-07-22T12:44:33Z</time>
      </trkpt>
      <trkpt lat="44.6142" lon="0.92597">
        <ele>194.6</ele>
        <time>2018-07-22T12:44:34Z</time>
      </trkpt>
      <trkpt lat="44.61423" lon="0.92599">
        <ele>194.6</ele>
        <time>2018-07-22T12:44:35Z</time>
      </trkpt>
      <trkpt lat="44.61427" lon="0.92601">
        <ele>194.5</ele>
        <time>2018-07-22T12:44:36Z</time>
      </trkpt>
      <trkpt lat="44.61431" lon="0.92604">
        <ele>194.5</ele>
        <time>2018-07-22T12:44:37Z</time>
      </trkpt>
      <trkpt lat="44.61434" lon="0.92606">
        <ele>194.5</ele>
        <time>2018-07-22T12:44:38Z</time>
      </trkpt>
      <trkpt lat="44.61437" lon="0.92609">
        <ele>194.4</ele>
        <time>2018-07-22T12:44:39Z</time>
      </trkpt>
      <trkpt lat="44.61441" lon="0.92612">
        <ele>194.4</ele>
        <time>2018-07-22T12:44:40Z</time>
      </trkpt>
      <trkpt lat="44.61444" lon="0.92615">
        <ele>194.4</ele>
        <time>2018-07-22T12:44:41Z</time>
      </trkpt>
      <trkpt lat="44.61447" lon="0.92618">
        <ele>194.3</ele>
        <time>2018-07-22T12:44:42Z</time>
      </trkpt>
      <trkpt lat="44.61449" lon="0.92622">
        <ele>194.3</ele>
        <time>2018-07-22T12:44:43Z</time>
      </trkpt>
      <trkpt lat="44.61452" lon="0.92626">
        <ele>194.3</ele>
        <time>2018-07-22T12:44:44Z</time>
      </trkpt>
      <trkpt lat="44.61454" lon="0.9263">
        <ele>194.2</ele>
        <time>2018-07-22T12:44:45Z</time>
      </trkpt>
      <trkpt lat="44.61456" lon="0.92635">
        <ele>194.2</ele>
        <time>2018-07-22T12:44:46Z</time>
      </trkpt>
      <trkpt lat="44.61457" lon="0.92639">
        <ele>194.2</ele>
        <time>2018-07-22T12:44:47Z</time>
      </trkpt>
      <trkpt lat="44.61459" lon="0.92644">
        <ele>194.1</ele>
        <time>2018-07-22T12:44:48Z</time>
      </trkpt>
      <trkpt lat="44.61459" lon="0.92648">
        <ele>194.1</ele>
        <time>2018-07-22T12:44:49Z</time>
      </trkpt>
      <trkpt lat="44.6146" lon="0.92653">
        <ele>194.1</ele>
        <time>2018-07-22T12:44:50Z</time>
      </trkpt>
      <trkpt lat="44.6146" lon="0.92657">
        <ele>194.1</ele>
        <time>2018-07-22T12:44:51Z</time>
      </trkpt>
      <trkpt lat="44.6146" lon="0.92663">
        <ele>194</ele>
        <time>2018-07-22T12:44:52Z</time>
      </trkpt>
      <trkpt lat="44.6146" lon="0.92668">
        <ele>194</ele>
        <time>2018-07-22T12:44:53Z</time>
      </trkpt>
      <trkpt lat="44.6146" lon="0.92674">
        <ele>194.2</ele>
        <time>2018-07-22T12:44:54Z</time>
      </trkpt>
      <trkpt lat="44.61458" lon="0.92681">
        <ele>194.5</ele>
        <time>2018-07-22T12:44:55Z</time>
      </trkpt>
      <trkpt lat="44.61457" lon="0.92689">
        <ele>194.7</ele>
        <time>2018-07-22T12:44:56Z</time>
      </trkpt>
      <trkpt lat="44.61456" lon="0.92698">
        <ele>194.9</ele>
        <time>2018-07-22T12:44:57Z</time>
      </trkpt>
      <trkpt lat="44.61456" lon="0.92705">
        <ele>195</ele>
        <time>2018-07-22T12:44:58Z</time>
      </trkpt>
      <trkpt lat="44.61456" lon="0.92714">
        <ele>195.3</ele>
        <time>2018-07-22T12:44:59Z</time>
      </trkpt>
      <trkpt lat="44.61456" lon="0.92724">
        <ele>195.3</ele>
        <time>2018-07-22T12:45:00Z</time>
      </trkpt>
      <trkpt lat="44.61457" lon="0.92732">
        <ele>195.4</ele>
        <time>2018-07-22T12:45:01Z</time>
      </trkpt>
      <trkpt lat="44.61458" lon="0.92741">
        <ele>195.4</ele>
        <time>2018-07-22T12:45:02Z</time>
      </trkpt>
      <trkpt lat="44.61461" lon="0.92751">
        <ele>195.5</ele>
        <time>2018-07-22T12:45:03Z</time>
      </trkpt>
      <trkpt lat="44.61464" lon="0.92759">
        <ele>195.5</ele>
        <time>2018-07-22T12:45:04Z</time>
      </trkpt>
      <trkpt lat="44.61469" lon="0.92766">
        <ele>195.5</ele>
        <time>2018-07-22T12:45:05Z</time>
      </trkpt>
      <trkpt lat="44.61475" lon="0.92772">
        <ele>195.5</ele>
        <time>2018-07-22T12:45:06Z</time>
      </trkpt>
      <trkpt lat="44.61482" lon="0.92778">
        <ele>195.4</ele>
        <time>2018-07-22T12:45:07Z</time>
      </trkpt>
      <trkpt lat="44.6149" lon="0.92784">
        <ele>195.3</ele>
        <time>2018-07-22T12:45:08Z</time>
      </trkpt>
      <trkpt lat="44.61496" lon="0.92789">
        <ele>195.2</ele>
        <time>2018-07-22T12:45:09Z</time>
      </trkpt>
      <trkpt lat="44.61504" lon="0.92793">
        <ele>195</ele>
        <time>2018-07-22T12:45:10Z</time>
      </trkpt>
      <trkpt lat="44.61511" lon="0.92798">
        <ele>194.8</ele>
        <time>2018-07-22T12:45:11Z</time>
      </trkpt>
      <trkpt lat="44.61516" lon="0.92804">
        <ele>194.6</ele>
        <time>2018-07-22T12:45:12Z</time>
      </trkpt>
      <trkpt lat="44.61522" lon="0.92811">
        <ele>194.5</ele>
        <time>2018-07-22T12:45:13Z</time>
      </trkpt>
      <trkpt lat="44.61526" lon="0.92818">
        <ele>194.3</ele>
        <time>2018-07-22T12:45:14Z</time>
      </trkpt>
      <trkpt lat="44.61531" lon="0.92825">
        <ele>194.1</ele>
        <time>2018-07-22T12:45:15Z</time>
      </trkpt>
      <trkpt lat="44.61535" lon="0.92832">
        <ele>194</ele>
        <time>2018-07-22T12:45:16Z</time>
      </trkpt>
      <trkpt lat="44.61539" lon="0.92837">
        <ele>194</ele>
        <time>2018-07-22T12:45:17Z</time>
      </trkpt>
      <trkpt lat="44.61543" lon="0.92843">
        <ele>194</ele>
        <time>2018-07-22T12:45:18Z</time>
      </trkpt>
      <trkpt lat="44.61548" lon="0.9285">
        <ele>194</ele>
        <time>2018-07-22T12:45:19Z</time>
      </trkpt>
      <trkpt lat="44.61552" lon="0.92855">
        <ele>194</ele>
        <time>2018-07-22T12:45:20Z</time>
      </trkpt>
      <trkpt lat="44.61555" lon="0.92861">
        <ele>194</ele>
        <time>2018-07-22T12:45:21Z</time>
      </trkpt>
      <trkpt lat="44.61557" lon="0.92867">
        <ele>194</ele>
        <time>2018-07-22T12:45:22Z</time>
      </trkpt>
      <trkpt lat="44.61561" lon="0.92873">
        <ele>194</ele>
        <time>2018-07-22T12:45:23Z</time>
      </trkpt>
      <trkpt lat="44.61563" lon="0.92879">
        <ele>194</ele>
        <time>2018-07-22T12:45:24Z</time>
      </trkpt>
      <trkpt lat="44.61565" lon="0.92885">
        <ele>194</ele>
        <time>2018-07-22T12:45:25Z</time>
      </trkpt>
      <trkpt lat="44.61567" lon="0.92891">
        <ele>194.1</ele>
        <time>2018-07-22T12:45:26Z</time>
      </trkpt>
      <trkpt lat="44.61569" lon="0.92897">
        <ele>194.1</ele>
        <time>2018-07-22T12:45:27Z</time>
      </trkpt>
      <trkpt lat="44.61571" lon="0.92902">
        <ele>194.1</ele>
        <time>2018-07-22T12:45:28Z</time>
      </trkpt>
      <trkpt lat="44.61574" lon="0.92908">
        <ele>194.1</ele>
        <time>2018-07-22T12:45:29Z</time>
      </trkpt>
      <trkpt lat="44.61576" lon="0.92914">
        <ele>194.1</ele>
        <time>2018-07-22T12:45:30Z</time>
      </trkpt>
      <trkpt lat="44.61579" lon="0.9292">
        <ele>194.1</ele>
        <time>2018-07-22T12:45:31Z</time>
      </trkpt>
      <trkpt lat="44.61582" lon="0.92928">
        <ele>194.1</ele>
        <time>2018-07-22T12:45:32Z</time>
      </trkpt>
      <trkpt lat="44.61585" lon="0.92935">
        <ele>194.1</ele>
        <time>2018-07-22T12:45:33Z</time>
      </trkpt>
      <trkpt lat="44.61589" lon="0.92942">
        <ele>194.1</ele>
        <time>2018-07-22T12:45:34Z</time>
      </trkpt>
      <trkpt lat="44.61592" lon="0.92947">
        <ele>194.1</ele>
        <time>2018-07-22T12:45:35Z</time>
      </trkpt>
      <trkpt lat="44.61595" lon="0.92952">
        <ele>194.1</ele>
        <time>2018-07-22T12:45:36Z</time>
      </trkpt>
      <trkpt lat="44.61597" lon="0.92957">
        <ele>194.2</ele>
        <time>2018-07-22T12:45:37Z</time>
      </trkpt>
      <trkpt lat="44.616" lon="0.92961">
        <ele>194.2</ele>
        <time>2018-07-22T12:45:38Z</time>
      </trkpt>
      <trkpt lat="44.61603" lon="0.92967">
        <ele>194.2</ele>
        <time>2018-07-22T12:45:39Z</time>
      </trkpt>
      <trkpt lat="44.61607" lon="0.92973">
        <ele>194.2</ele>
        <time>2018-07-22T12:45:40Z</time>
      </trkpt>
      <trkpt lat="44.61611" lon="0.92977">
        <ele>194.2</ele>
        <time>2018-07-22T12:45:41Z</time>
      </trkpt>
      <trkpt lat="44.61615" lon="0.92983">
        <ele>194.3</ele>
        <time>2018-07-22T12:45:42Z</time>
      </trkpt>
      <trkpt lat="44.61619" lon="0.92988">
        <ele>194.3</ele>
        <time>2018-07-22T12:45:43Z</time>
      </trkpt>
      <trkpt lat="44.61621" lon="0.92996">
        <ele>194.4</ele>
        <time>2018-07-22T12:45:44Z</time>
      </trkpt>
      <trkpt lat="44.61625" lon="0.93001">
        <ele>194.4</ele>
        <time>2018-07-22T12:45:45Z</time>
      </trkpt>
      <trkpt lat="44.61627" lon="0.93008">
        <ele>194.5</ele>
        <time>2018-07-22T12:45:46Z</time>
      </trkpt>
      <trkpt lat="44.61627" lon="0.93016">
        <ele>194.6</ele>
        <time>2018-07-22T12:45:47Z</time>
      </trkpt>
      <trkpt lat="44.61629" lon="0.93022">
        <ele>194.8</ele>
        <time>2018-07-22T12:45:48Z</time>
      </trkpt>
      <trkpt lat="44.61628" lon="0.93028">
        <ele>194.9</ele>
        <time>2018-07-22T12:45:49Z</time>
      </trkpt>
      <trkpt lat="44.61629" lon="0.93036">
        <ele>195</ele>
        <time>2018-07-22T12:45:50Z</time>
      </trkpt>
      <trkpt lat="44.61629" lon="0.93043">
        <ele>195.1</ele>
        <time>2018-07-22T12:45:51Z</time>
      </trkpt>
      <trkpt lat="44.61629" lon="0.93051">
        <ele>195.4</ele>
        <time>2018-07-22T12:45:52Z</time>
      </trkpt>
      <trkpt lat="44.61629" lon="0.93057">
        <ele>195.7</ele>
        <time>2018-07-22T12:45:53Z</time>
      </trkpt>
      <trkpt lat="44.61628" lon="0.93064">
        <ele>195.9</ele>
        <time>2018-07-22T12:45:54Z</time>
      </trkpt>
      <trkpt lat="44.61627" lon="0.93072">
        <ele>196.2</ele>
        <time>2018-07-22T12:45:55Z</time>
      </trkpt>
      <trkpt lat="44.61627" lon="0.93083">
        <ele>196.4</ele>
        <time>2018-07-22T12:45:56Z</time>
      </trkpt>
      <trkpt lat="44.61627" lon="0.9309">
        <ele>196.4</ele>
        <time>2018-07-22T12:45:57Z</time>
      </trkpt>
      <trkpt lat="44.61626" lon="0.93098">
        <ele>196.5</ele>
        <time>2018-07-22T12:45:58Z</time>
      </trkpt>
      <trkpt lat="44.61626" lon="0.93106">
        <ele>196.5</ele>
        <time>2018-07-22T12:45:59Z</time>
      </trkpt>
      <trkpt lat="44.61625" lon="0.93115">
        <ele>196.6</ele>
        <time>2018-07-22T12:46:00Z</time>
      </trkpt>
      <trkpt lat="44.61627" lon="0.93123">
        <ele>196.7</ele>
        <time>2018-07-22T12:46:01Z</time>
      </trkpt>
      <trkpt lat="44.61629" lon="0.93131">
        <ele>196.7</ele>
        <time>2018-07-22T12:46:02Z</time>
      </trkpt>
      <trkpt lat="44.6163" lon="0.93138">
        <ele>196.8</ele>
        <time>2018-07-22T12:46:03Z</time>
      </trkpt>
      <trkpt lat="44.61634" lon="0.93147">
        <ele>196.9</ele>
        <time>2018-07-22T12:46:04Z</time>
      </trkpt>
      <trkpt lat="44.61637" lon="0.93154">
        <ele>196.9</ele>
        <time>2018-07-22T12:46:05Z</time>
      </trkpt>
      <trkpt lat="44.61641" lon="0.9316">
        <ele>196.9</ele>
        <time>2018-07-22T12:46:06Z</time>
      </trkpt>
      <trkpt lat="44.61644" lon="0.93167">
        <ele>196.9</ele>
        <time>2018-07-22T12:46:07Z</time>
      </trkpt>
      <trkpt lat="44.61647" lon="0.93174">
        <ele>197</ele>
        <time>2018-07-22T12:46:08Z</time>
      </trkpt>
      <trkpt lat="44.61649" lon="0.93181">
        <ele>197</ele>
        <time>2018-07-22T12:46:09Z</time>
      </trkpt>
      <trkpt lat="44.61653" lon="0.93187">
        <ele>197</ele>
        <time>2018-07-22T12:46:10Z</time>
      </trkpt>
      <trkpt lat="44.61655" lon="0.93192">
        <ele>197</ele>
        <time>2018-07-22T12:46:11Z</time>
      </trkpt>
      <trkpt lat="44.61659" lon="0.93197">
        <ele>197</ele>
        <time>2018-07-22T12:46:12Z</time>
      </trkpt>
      <trkpt lat="44.61662" lon="0.93204">
        <ele>197</ele>
        <time>2018-07-22T12:46:13Z</time>
      </trkpt>
      <trkpt lat="44.61665" lon="0.9321">
        <ele>197</ele>
        <time>2018-07-22T12:46:14Z</time>
      </trkpt>
      <trkpt lat="44.61668" lon="0.93217">
        <ele>197</ele>
        <time>2018-07-22T12:46:15Z</time>
      </trkpt>
      <trkpt lat="44.61672" lon="0.93222">
        <ele>197</ele>
        <time>2018-07-22T12:46:16Z</time>
      </trkpt>
      <trkpt lat="44.61674" lon="0.93228">
        <ele>197.1</ele>
        <time>2018-07-22T12:46:17Z</time>
      </trkpt>
      <trkpt lat="44.61678" lon="0.93234">
        <ele>197.1</ele>
        <time>2018-07-22T12:46:18Z</time>
      </trkpt>
      <trkpt lat="44.61681" lon="0.9324">
        <ele>197.1</ele>
        <time>2018-07-22T12:46:19Z</time>
      </trkpt>
      <trkpt lat="44.61685" lon="0.93246">
        <ele>197.1</ele>
        <time>2018-07-22T12:46:20Z</time>
      </trkpt>
      <trkpt lat="44.61687" lon="0.93252">
        <ele>197.1</ele>
        <time>2018-07-22T12:46:21Z</time>
      </trkpt>
      <trkpt lat="44.6169" lon="0.93258">
        <ele>197.1</ele>
        <time>2018-07-22T12:46:22Z</time>
      </trkpt>
      <trkpt lat="44.61693" lon="0.93264">
        <ele>197.1</ele>
        <time>2018-07-22T12:46:23Z</time>
      </trkpt>
      <trkpt lat="44.61695" lon="0.93269">
        <ele>197.2</ele>
        <time>2018-07-22T12:46:24Z</time>
      </trkpt>
      <trkpt lat="44.61698" lon="0.93274">
        <ele>197.2</ele>
        <time>2018-07-22T12:46:25Z</time>
      </trkpt>
      <trkpt lat="44.617" lon="0.93282">
        <ele>197.2</ele>
        <time>2018-07-22T12:46:26Z</time>
      </trkpt>
      <trkpt lat="44.61702" lon="0.93288">
        <ele>197.2</ele>
        <time>2018-07-22T12:46:27Z</time>
      </trkpt>
      <trkpt lat="44.61705" lon="0.93294">
        <ele>197.2</ele>
        <time>2018-07-22T12:46:28Z</time>
      </trkpt>
      <trkpt lat="44.61707" lon="0.933">
        <ele>197.2</ele>
        <time>2018-07-22T12:46:29Z</time>
      </trkpt>
      <trkpt lat="44.61711" lon="0.93307">
        <ele>197.3</ele>
        <time>2018-07-22T12:46:30Z</time>
      </trkpt>
      <trkpt lat="44.61713" lon="0.93313">
        <ele>197.3</ele>
        <time>2018-07-22T12:46:31Z</time>
      </trkpt>
      <trkpt lat="44.61715" lon="0.93319">
        <ele>197.3</ele>
        <time>2018-07-22T12:46:32Z</time>
      </trkpt>
      <trkpt lat="44.61717" lon="0.93325">
        <ele>197.4</ele>
        <time>2018-07-22T12:46:33Z</time>
      </trkpt>
      <trkpt lat="44.61719" lon="0.93331">
        <ele>197.5</ele>
        <time>2018-07-22T12:46:34Z</time>
      </trkpt>
      <trkpt lat="44.61722" lon="0.93337">
        <ele>197.6</ele>
        <time>2018-07-22T12:46:35Z</time>
      </trkpt>
      <trkpt lat="44.61723" lon="0.93342">
        <ele>197.7</ele>
        <time>2018-07-22T12:46:36Z</time>
      </trkpt>
      <trkpt lat="44.61724" lon="0.93348">
        <ele>197.8</ele>
        <time>2018-07-22T12:46:37Z</time>
      </trkpt>
      <trkpt lat="44.61727" lon="0.93355">
        <ele>198</ele>
        <time>2018-07-22T12:46:38Z</time>
      </trkpt>
      <trkpt lat="44.61728" lon="0.9336">
        <ele>198.1</ele>
        <time>2018-07-22T12:46:39Z</time>
      </trkpt>
      <trkpt lat="44.61731" lon="0.93367">
        <ele>198.4</ele>
        <time>2018-07-22T12:46:40Z</time>
      </trkpt>
      <trkpt lat="44.61733" lon="0.93375">
        <ele>198.7</ele>
        <time>2018-07-22T12:46:41Z</time>
      </trkpt>
      <trkpt lat="44.61735" lon="0.93381">
        <ele>198.9</ele>
        <time>2018-07-22T12:46:42Z</time>
      </trkpt>
      <trkpt lat="44.61737" lon="0.93387">
        <ele>199.1</ele>
        <time>2018-07-22T12:46:43Z</time>
      </trkpt>
      <trkpt lat="44.61739" lon="0.93394">
        <ele>199.2</ele>
        <time>2018-07-22T12:46:44Z</time>
      </trkpt>
      <trkpt lat="44.61741" lon="0.93401">
        <ele>199.3</ele>
        <time>2018-07-22T12:46:45Z</time>
      </trkpt>
      <trkpt lat="44.61742" lon="0.93407">
        <ele>199.3</ele>
        <time>2018-07-22T12:46:46Z</time>
      </trkpt>
      <trkpt lat="44.61743" lon="0.93414">
        <ele>199.4</ele>
        <time>2018-07-22T12:46:47Z</time>
      </trkpt>
      <trkpt lat="44.61744" lon="0.93419">
        <ele>199.5</ele>
        <time>2018-07-22T12:46:48Z</time>
      </trkpt>
      <trkpt lat="44.61745" lon="0.93426">
        <ele>199.6</ele>
        <time>2018-07-22T12:46:49Z</time>
      </trkpt>
      <trkpt lat="44.61747" lon="0.93432">
        <ele>199.6</ele>
        <time>2018-07-22T12:46:50Z</time>
      </trkpt>
      <trkpt lat="44.61748" lon="0.93438">
        <ele>199.7</ele>
        <time>2018-07-22T12:46:51Z</time>
      </trkpt>
      <trkpt lat="44.61749" lon="0.93444">
        <ele>199.8</ele>
        <time>2018-07-22T12:46:52Z</time>
      </trkpt>
      <trkpt lat="44.61749" lon="0.9345">
        <ele>199.8</ele>
        <time>2018-07-22T12:46:53Z</time>
      </trkpt>
      <trkpt lat="44.61749" lon="0.93456">
        <ele>199.9</ele>
        <time>2018-07-22T12:46:54Z</time>
      </trkpt>
      <trkpt lat="44.6175" lon="0.93462">
        <ele>199.9</ele>
        <time>2018-07-22T12:46:55Z</time>
      </trkpt>
      <trkpt lat="44.6175" lon="0.93469">
        <ele>200</ele>
        <time>2018-07-22T12:46:56Z</time>
      </trkpt>
      <trkpt lat="44.61751" lon="0.93475">
        <ele>200.1</ele>
        <time>2018-07-22T12:46:57Z</time>
      </trkpt>
      <trkpt lat="44.61752" lon="0.93481">
        <ele>200.1</ele>
        <time>2018-07-22T12:46:58Z</time>
      </trkpt>
      <trkpt lat="44.61752" lon="0.93489">
        <ele>200.2</ele>
        <time>2018-07-22T12:46:59Z</time>
      </trkpt>
      <trkpt lat="44.61752" lon="0.93495">
        <ele>200.4</ele>
        <time>2018-07-22T12:47:00Z</time>
      </trkpt>
      <trkpt lat="44.61752" lon="0.93501">
        <ele>200.6</ele>
        <time>2018-07-22T12:47:01Z</time>
      </trkpt>
      <trkpt lat="44.61753" lon="0.93509">
        <ele>200.8</ele>
        <time>2018-07-22T12:47:02Z</time>
      </trkpt>
      <trkpt lat="44.61755" lon="0.93515">
        <ele>201.1</ele>
        <time>2018-07-22T12:47:03Z</time>
      </trkpt>
      <trkpt lat="44.61756" lon="0.93523">
        <ele>201.3</ele>
        <time>2018-07-22T12:47:04Z</time>
      </trkpt>
      <trkpt lat="44.61757" lon="0.9353">
        <ele>201.4</ele>
        <time>2018-07-22T12:47:05Z</time>
      </trkpt>
      <trkpt lat="44.61758" lon="0.93536">
        <ele>201.5</ele>
        <time>2018-07-22T12:47:06Z</time>
      </trkpt>
      <trkpt lat="44.6176" lon="0.93543">
        <ele>201.5</ele>
        <time>2018-07-22T12:47:07Z</time>
      </trkpt>
      <trkpt lat="44.61762" lon="0.93549">
        <ele>201.6</ele>
        <time>2018-07-22T12:47:08Z</time>
      </trkpt>
      <trkpt lat="44.61763" lon="0.93554">
        <ele>201.6</ele>
        <time>2018-07-22T12:47:09Z</time>
      </trkpt>
      <trkpt lat="44.61765" lon="0.9356">
        <ele>201.7</ele>
        <time>2018-07-22T12:47:10Z</time>
      </trkpt>
      <trkpt lat="44.61768" lon="0.9357">
        <ele>201.8</ele>
        <time>2018-07-22T12:47:11Z</time>
      </trkpt>
      <trkpt lat="44.61771" lon="0.93578">
        <ele>201.9</ele>
        <time>2018-07-22T12:47:12Z</time>
      </trkpt>
      <trkpt lat="44.61773" lon="0.93583">
        <ele>202</ele>
        <time>2018-07-22T12:47:13Z</time>
      </trkpt>
      <trkpt lat="44.61775" lon="0.93589">
        <ele>202.1</ele>
        <time>2018-07-22T12:47:14Z</time>
      </trkpt>
      <trkpt lat="44.61777" lon="0.93594">
        <ele>202.1</ele>
        <time>2018-07-22T12:47:15Z</time>
      </trkpt>
      <trkpt lat="44.61779" lon="0.93599">
        <ele>202.2</ele>
        <time>2018-07-22T12:47:16Z</time>
      </trkpt>
      <trkpt lat="44.61781" lon="0.93604">
        <ele>202.3</ele>
        <time>2018-07-22T12:47:17Z</time>
      </trkpt>
      <trkpt lat="44.61784" lon="0.93611">
        <ele>202.3</ele>
        <time>2018-07-22T12:47:18Z</time>
      </trkpt>
      <trkpt lat="44.61786" lon="0.93615">
        <ele>202.4</ele>
        <time>2018-07-22T12:47:19Z</time>
      </trkpt>
      <trkpt lat="44.61788" lon="0.9362">
        <ele>202.4</ele>
        <time>2018-07-22T12:47:20Z</time>
      </trkpt>
      <trkpt lat="44.6179" lon="0.93624">
        <ele>202.5</ele>
        <time>2018-07-22T12:47:21Z</time>
      </trkpt>
      <trkpt lat="44.61793" lon="0.93632">
        <ele>202.6</ele>
        <time>2018-07-22T12:47:22Z</time>
      </trkpt>
      <trkpt lat="44.61796" lon="0.93638">
        <ele>202.7</ele>
        <time>2018-07-22T12:47:23Z</time>
      </trkpt>
      <trkpt lat="44.61799" lon="0.93641">
        <ele>202.9</ele>
        <time>2018-07-22T12:47:24Z</time>
      </trkpt>
      <trkpt lat="44.61803" lon="0.93646">
        <ele>203.1</ele>
        <time>2018-07-22T12:47:25Z</time>
      </trkpt>
      <trkpt lat="44.61805" lon="0.93651">
        <ele>203.3</ele>
        <time>2018-07-22T12:47:26Z</time>
      </trkpt>
      <trkpt lat="44.61808" lon="0.93656">
        <ele>203.5</ele>
        <time>2018-07-22T12:47:27Z</time>
      </trkpt>
      <trkpt lat="44.61807" lon="0.93667">
        <ele>203.7</ele>
        <time>2018-07-22T12:47:28Z</time>
      </trkpt>
      <trkpt lat="44.61809" lon="0.93673">
        <ele>203.8</ele>
        <time>2018-07-22T12:47:29Z</time>
      </trkpt>
      <trkpt lat="44.61812" lon="0.93679">
        <ele>203.8</ele>
        <time>2018-07-22T12:47:30Z</time>
      </trkpt>
      <trkpt lat="44.61814" lon="0.93684">
        <ele>203.8</ele>
        <time>2018-07-22T12:47:31Z</time>
      </trkpt>
      <trkpt lat="44.61817" lon="0.93688">
        <ele>203.9</ele>
        <time>2018-07-22T12:47:33Z</time>
      </trkpt>
      <trkpt lat="44.61821" lon="0.93696">
        <ele>203.9</ele>
        <time>2018-07-22T12:47:35Z</time>
      </trkpt>
      <trkpt lat="44.61822" lon="0.93702">
        <ele>204</ele>
        <time>2018-07-22T12:47:36Z</time>
      </trkpt>
      <trkpt lat="44.61824" lon="0.93707">
        <ele>204</ele>
        <time>2018-07-22T12:47:37Z</time>
      </trkpt>
      <trkpt lat="44.61826" lon="0.93712">
        <ele>204</ele>
        <time>2018-07-22T12:47:38Z</time>
      </trkpt>
      <trkpt lat="44.61829" lon="0.93718">
        <ele>204.1</ele>
        <time>2018-07-22T12:47:39Z</time>
      </trkpt>
      <trkpt lat="44.6183" lon="0.93724">
        <ele>204.1</ele>
        <time>2018-07-22T12:47:40Z</time>
      </trkpt>
      <trkpt lat="44.61831" lon="0.93729">
        <ele>204.1</ele>
        <time>2018-07-22T12:47:41Z</time>
      </trkpt>
      <trkpt lat="44.61833" lon="0.93735">
        <ele>204.1</ele>
        <time>2018-07-22T12:47:42Z</time>
      </trkpt>
      <trkpt lat="44.61836" lon="0.93737">
        <ele>204.1</ele>
        <time>2018-07-22T12:47:43Z</time>
      </trkpt>
      <trkpt lat="44.61839" lon="0.93739">
        <ele>204.1</ele>
        <time>2018-07-22T12:47:44Z</time>
      </trkpt>
      <trkpt lat="44.61844" lon="0.93739">
        <ele>204.2</ele>
        <time>2018-07-22T12:47:45Z</time>
      </trkpt>
      <trkpt lat="44.61851" lon="0.93734">
        <ele>204.2</ele>
        <time>2018-07-22T12:47:46Z</time>
      </trkpt>
      <trkpt lat="44.61857" lon="0.93733">
        <ele>204.3</ele>
        <time>2018-07-22T12:47:47Z</time>
      </trkpt>
      <trkpt lat="44.61861" lon="0.9373">
        <ele>204.4</ele>
        <time>2018-07-22T12:47:48Z</time>
      </trkpt>
      <trkpt lat="44.61866" lon="0.93728">
        <ele>204.5</ele>
        <time>2018-07-22T12:47:49Z</time>
      </trkpt>
      <trkpt lat="44.61871" lon="0.93727">
        <ele>204.6</ele>
        <time>2018-07-22T12:47:50Z</time>
      </trkpt>
      <trkpt lat="44.61876" lon="0.93725">
        <ele>204.7</ele>
        <time>2018-07-22T12:47:51Z</time>
      </trkpt>
      <trkpt lat="44.61881" lon="0.93723">
        <ele>204.8</ele>
        <time>2018-07-22T12:47:52Z</time>
      </trkpt>
      <trkpt lat="44.61886" lon="0.93721">
        <ele>204.9</ele>
        <time>2018-07-22T12:47:53Z</time>
      </trkpt>
      <trkpt lat="44.6189" lon="0.93719">
        <ele>205</ele>
        <time>2018-07-22T12:47:54Z</time>
      </trkpt>
      <trkpt lat="44.61895" lon="0.93713">
        <ele>205.2</ele>
        <time>2018-07-22T12:47:55Z</time>
      </trkpt>
      <trkpt lat="44.61899" lon="0.93709">
        <ele>205.3</ele>
        <time>2018-07-22T12:47:56Z</time>
      </trkpt>
      <trkpt lat="44.61903" lon="0.93706">
        <ele>205.4</ele>
        <time>2018-07-22T12:47:57Z</time>
      </trkpt>
      <trkpt lat="44.61908" lon="0.93703">
        <ele>205.6</ele>
        <time>2018-07-22T12:47:58Z</time>
      </trkpt>
      <trkpt lat="44.61913" lon="0.937">
        <ele>205.8</ele>
        <time>2018-07-22T12:47:59Z</time>
      </trkpt>
      <trkpt lat="44.61917" lon="0.93697">
        <ele>206</ele>
        <time>2018-07-22T12:48:00Z</time>
      </trkpt>
      <trkpt lat="44.61921" lon="0.93695">
        <ele>206.1</ele>
        <time>2018-07-22T12:48:01Z</time>
      </trkpt>
      <trkpt lat="44.61925" lon="0.93693">
        <ele>206.3</ele>
        <time>2018-07-22T12:48:02Z</time>
      </trkpt>
      <trkpt lat="44.6193" lon="0.9369">
        <ele>206.4</ele>
        <time>2018-07-22T12:48:03Z</time>
      </trkpt>
      <trkpt lat="44.61934" lon="0.93687">
        <ele>206.5</ele>
        <time>2018-07-22T12:48:04Z</time>
      </trkpt>
      <trkpt lat="44.61937" lon="0.93684">
        <ele>206.6</ele>
        <time>2018-07-22T12:48:05Z</time>
      </trkpt>
      <trkpt lat="44.61941" lon="0.93681">
        <ele>206.7</ele>
        <time>2018-07-22T12:48:06Z</time>
      </trkpt>
      <trkpt lat="44.61943" lon="0.93678">
        <ele>206.8</ele>
        <time>2018-07-22T12:48:07Z</time>
      </trkpt>
      <trkpt lat="44.61948" lon="0.93674">
        <ele>206.8</ele>
        <time>2018-07-22T12:48:08Z</time>
      </trkpt>
      <trkpt lat="44.61952" lon="0.93672">
        <ele>206.9</ele>
        <time>2018-07-22T12:48:09Z</time>
      </trkpt>
      <trkpt lat="44.61955" lon="0.9367">
        <ele>207</ele>
        <time>2018-07-22T12:48:10Z</time>
      </trkpt>
      <trkpt lat="44.61957" lon="0.93668">
        <ele>207.1</ele>
        <time>2018-07-22T12:48:11Z</time>
      </trkpt>
      <trkpt lat="44.6196" lon="0.93664">
        <ele>207.2</ele>
        <time>2018-07-22T12:48:12Z</time>
      </trkpt>
      <trkpt lat="44.61963" lon="0.93662">
        <ele>207.3</ele>
        <time>2018-07-22T12:48:13Z</time>
      </trkpt>
      <trkpt lat="44.61966" lon="0.93659">
        <ele>207.4</ele>
        <time>2018-07-22T12:48:14Z</time>
      </trkpt>
      <trkpt lat="44.61969" lon="0.93656">
        <ele>207.6</ele>
        <time>2018-07-22T12:48:15Z</time>
      </trkpt>
      <trkpt lat="44.61972" lon="0.93654">
        <ele>207.7</ele>
        <time>2018-07-22T12:48:16Z</time>
      </trkpt>
      <trkpt lat="44.61975" lon="0.93651">
        <ele>207.9</ele>
        <time>2018-07-22T12:48:17Z</time>
      </trkpt>
      <trkpt lat="44.61978" lon="0.93648">
        <ele>208.1</ele>
        <time>2018-07-22T12:48:18Z</time>
      </trkpt>
      <trkpt lat="44.61981" lon="0.93645">
        <ele>208.4</ele>
        <time>2018-07-22T12:48:19Z</time>
      </trkpt>
      <trkpt lat="44.61984" lon="0.93643">
        <ele>208.5</ele>
        <time>2018-07-22T12:48:20Z</time>
      </trkpt>
      <trkpt lat="44.61986" lon="0.93641">
        <ele>208.8</ele>
        <time>2018-07-22T12:48:21Z</time>
      </trkpt>
      <trkpt lat="44.61989" lon="0.93639">
        <ele>208.8</ele>
        <time>2018-07-22T12:48:22Z</time>
      </trkpt>
      <trkpt lat="44.61991" lon="0.93637">
        <ele>209.2</ele>
        <time>2018-07-22T12:48:23Z</time>
      </trkpt>
      <trkpt lat="44.61995" lon="0.93633">
        <ele>209.6</ele>
        <time>2018-07-22T12:48:25Z</time>
      </trkpt>
      <trkpt lat="44.61998" lon="0.9363">
        <ele>209.8</ele>
        <time>2018-07-22T12:48:27Z</time>
      </trkpt>
      <trkpt lat="44.62002" lon="0.93628">
        <ele>210.4</ele>
        <time>2018-07-22T12:48:29Z</time>
      </trkpt>
      <trkpt lat="44.62006" lon="0.93624">
        <ele>210.9</ele>
        <time>2018-07-22T12:48:31Z</time>
      </trkpt>
      <trkpt lat="44.62009" lon="0.93621">
        <ele>211.1</ele>
        <time>2018-07-22T12:48:32Z</time>
      </trkpt>
      <trkpt lat="44.62012" lon="0.93618">
        <ele>211.6</ele>
        <time>2018-07-22T12:48:33Z</time>
      </trkpt>
      <trkpt lat="44.62015" lon="0.93616">
        <ele>211.8</ele>
        <time>2018-07-22T12:48:34Z</time>
      </trkpt>
      <trkpt lat="44.6202" lon="0.93612">
        <ele>212.4</ele>
        <time>2018-07-22T12:48:36Z</time>
      </trkpt>
      <trkpt lat="44.62022" lon="0.9361">
        <ele>213</ele>
        <time>2018-07-22T12:48:37Z</time>
      </trkpt>
      <trkpt lat="44.62026" lon="0.93606">
        <ele>213.9</ele>
        <time>2018-07-22T12:48:39Z</time>
      </trkpt>
      <trkpt lat="44.62029" lon="0.93604">
        <ele>214.1</ele>
        <time>2018-07-22T12:48:40Z</time>
      </trkpt>
      <trkpt lat="44.62032" lon="0.93601">
        <ele>214.9</ele>
        <time>2018-07-22T12:48:41Z</time>
      </trkpt>
      <trkpt lat="44.62035" lon="0.936">
        <ele>214.9</ele>
        <time>2018-07-22T12:48:42Z</time>
      </trkpt>
      <trkpt lat="44.6204" lon="0.93598">
        <ele>215.3</ele>
        <time>2018-07-22T12:48:44Z</time>
      </trkpt>
      <trkpt lat="44.62044" lon="0.93596">
        <ele>216.2</ele>
        <time>2018-07-22T12:48:46Z</time>
      </trkpt>
      <trkpt lat="44.62047" lon="0.93593">
        <ele>216.8</ele>
        <time>2018-07-22T12:48:47Z</time>
      </trkpt>
      <trkpt lat="44.6205" lon="0.9359">
        <ele>217</ele>
        <time>2018-07-22T12:48:48Z</time>
      </trkpt>
      <trkpt lat="44.62052" lon="0.93587">
        <ele>217.7</ele>
        <time>2018-07-22T12:48:49Z</time>
      </trkpt>
      <trkpt lat="44.62056" lon="0.93585">
        <ele>218.4</ele>
        <time>2018-07-22T12:48:51Z</time>
      </trkpt>
      <trkpt lat="44.62059" lon="0.93584">
        <ele>218.7</ele>
        <time>2018-07-22T12:48:53Z</time>
      </trkpt>
      <trkpt lat="44.62065" lon="0.93585">
        <ele>218.8</ele>
        <time>2018-07-22T12:48:55Z</time>
      </trkpt>
      <trkpt lat="44.62068" lon="0.93585">
        <ele>218.9</ele>
        <time>2018-07-22T12:48:56Z</time>
      </trkpt>
      <trkpt lat="44.62073" lon="0.93584">
        <ele>219</ele>
        <time>2018-07-22T12:48:58Z</time>
      </trkpt>
      <trkpt lat="44.62077" lon="0.93583">
        <ele>219.1</ele>
        <time>2018-07-22T12:49:00Z</time>
      </trkpt>
      <trkpt lat="44.6208" lon="0.93582">
        <ele>219.2</ele>
        <time>2018-07-22T12:49:02Z</time>
      </trkpt>
      <trkpt lat="44.62085" lon="0.93581">
        <ele>219.9</ele>
        <time>2018-07-22T12:49:04Z</time>
      </trkpt>
      <trkpt lat="44.62087" lon="0.93581">
        <ele>220</ele>
        <time>2018-07-22T12:49:05Z</time>
      </trkpt>
      <trkpt lat="44.62091" lon="0.9358">
        <ele>220.1</ele>
        <time>2018-07-22T12:49:06Z</time>
      </trkpt>
      <trkpt lat="44.62095" lon="0.93577">
        <ele>220.7</ele>
        <time>2018-07-22T12:49:07Z</time>
      </trkpt>
      <trkpt lat="44.621" lon="0.93574">
        <ele>220.9</ele>
        <time>2018-07-22T12:49:08Z</time>
      </trkpt>
      <trkpt lat="44.62103" lon="0.93572">
        <ele>221.4</ele>
        <time>2018-07-22T12:49:09Z</time>
      </trkpt>
      <trkpt lat="44.62106" lon="0.9357">
        <ele>221.5</ele>
        <time>2018-07-22T12:49:10Z</time>
      </trkpt>
      <trkpt lat="44.6211" lon="0.93568">
        <ele>222</ele>
        <time>2018-07-22T12:49:11Z</time>
      </trkpt>
      <trkpt lat="44.62114" lon="0.93567">
        <ele>222.1</ele>
        <time>2018-07-22T12:49:12Z</time>
      </trkpt>
      <trkpt lat="44.62117" lon="0.93568">
        <ele>222.1</ele>
        <time>2018-07-22T12:49:13Z</time>
      </trkpt>
      <trkpt lat="44.62121" lon="0.93568">
        <ele>222.2</ele>
        <time>2018-07-22T12:49:14Z</time>
      </trkpt>
      <trkpt lat="44.62125" lon="0.93569">
        <ele>221.9</ele>
        <time>2018-07-22T12:49:16Z</time>
      </trkpt>
      <trkpt lat="44.62129" lon="0.93569">
        <ele>221.9</ele>
        <time>2018-07-22T12:49:17Z</time>
      </trkpt>
      <trkpt lat="44.62132" lon="0.9357">
        <ele>222</ele>
        <time>2018-07-22T12:49:18Z</time>
      </trkpt>
      <trkpt lat="44.62136" lon="0.9357">
        <ele>222.1</ele>
        <time>2018-07-22T12:49:19Z</time>
      </trkpt>
      <trkpt lat="44.6214" lon="0.93571">
        <ele>222.2</ele>
        <time>2018-07-22T12:49:20Z</time>
      </trkpt>
      <trkpt lat="44.62144" lon="0.93571">
        <ele>222.2</ele>
        <time>2018-07-22T12:49:21Z</time>
      </trkpt>
      <trkpt lat="44.62148" lon="0.93571">
        <ele>222.3</ele>
        <time>2018-07-22T12:49:22Z</time>
      </trkpt>
      <trkpt lat="44.62153" lon="0.93572">
        <ele>222.2</ele>
        <time>2018-07-22T12:49:23Z</time>
      </trkpt>
      <trkpt lat="44.62157" lon="0.93574">
        <ele>221.9</ele>
        <time>2018-07-22T12:49:24Z</time>
      </trkpt>
      <trkpt lat="44.62161" lon="0.93576">
        <ele>221.8</ele>
        <time>2018-07-22T12:49:25Z</time>
      </trkpt>
      <trkpt lat="44.62165" lon="0.93578">
        <ele>221.5</ele>
        <time>2018-07-22T12:49:27Z</time>
      </trkpt>
      <trkpt lat="44.62169" lon="0.93581">
        <ele>221.4</ele>
        <time>2018-07-22T12:49:28Z</time>
      </trkpt>
      <trkpt lat="44.62172" lon="0.93584">
        <ele>221</ele>
        <time>2018-07-22T12:49:29Z</time>
      </trkpt>
      <trkpt lat="44.62174" lon="0.93588">
        <ele>220.6</ele>
        <time>2018-07-22T12:49:30Z</time>
      </trkpt>
      <trkpt lat="44.62177" lon="0.9359">
        <ele>220.1</ele>
        <time>2018-07-22T12:49:31Z</time>
      </trkpt>
      <trkpt lat="44.62179" lon="0.93593">
        <ele>219.9</ele>
        <time>2018-07-22T12:49:32Z</time>
      </trkpt>
      <trkpt lat="44.62182" lon="0.93596">
        <ele>219.4</ele>
        <time>2018-07-22T12:49:33Z</time>
      </trkpt>
      <trkpt lat="44.62185" lon="0.93599">
        <ele>219.2</ele>
        <time>2018-07-22T12:49:34Z</time>
      </trkpt>
      <trkpt lat="44.62188" lon="0.93604">
        <ele>218.5</ele>
        <time>2018-07-22T12:49:36Z</time>
      </trkpt>
      <trkpt lat="44.62192" lon="0.93607">
        <ele>218.3</ele>
        <time>2018-07-22T12:49:38Z</time>
      </trkpt>
      <trkpt lat="44.62196" lon="0.93606">
        <ele>218.1</ele>
        <time>2018-07-22T12:49:40Z</time>
      </trkpt>
      <trkpt lat="44.62201" lon="0.93598">
        <ele>218.1</ele>
        <time>2018-07-22T12:49:42Z</time>
      </trkpt>
      <trkpt lat="44.62204" lon="0.93592">
        <ele>218.1</ele>
        <time>2018-07-22T12:49:43Z</time>
      </trkpt>
      <trkpt lat="44.62206" lon="0.93588">
        <ele>218.3</ele>
        <time>2018-07-22T12:49:44Z</time>
      </trkpt>
      <trkpt lat="44.62209" lon="0.93583">
        <ele>218.3</ele>
        <time>2018-07-22T12:49:45Z</time>
      </trkpt>
      <trkpt lat="44.62213" lon="0.93584">
        <ele>217.8</ele>
        <time>2018-07-22T12:49:46Z</time>
      </trkpt>
      <trkpt lat="44.62219" lon="0.93577">
        <ele>217.7</ele>
        <time>2018-07-22T12:49:47Z</time>
      </trkpt>
      <trkpt lat="44.62222" lon="0.93574">
        <ele>217.7</ele>
        <time>2018-07-22T12:49:48Z</time>
      </trkpt>
      <trkpt lat="44.62224" lon="0.93568">
        <ele>217.9</ele>
        <time>2018-07-22T12:49:49Z</time>
      </trkpt>
      <trkpt lat="44.62225" lon="0.93563">
        <ele>218</ele>
        <time>2018-07-22T12:49:50Z</time>
      </trkpt>
      <trkpt lat="44.62227" lon="0.93556">
        <ele>218.1</ele>
        <time>2018-07-22T12:49:51Z</time>
      </trkpt>
      <trkpt lat="44.6223" lon="0.93551">
        <ele>218.3</ele>
        <time>2018-07-22T12:49:52Z</time>
      </trkpt>
      <trkpt lat="44.62232" lon="0.93545">
        <ele>218.3</ele>
        <time>2018-07-22T12:49:53Z</time>
      </trkpt>
      <trkpt lat="44.62234" lon="0.9354">
        <ele>218.3</ele>
        <time>2018-07-22T12:49:54Z</time>
      </trkpt>
      <trkpt lat="44.62235" lon="0.93536">
        <ele>218.5</ele>
        <time>2018-07-22T12:49:55Z</time>
      </trkpt>
      <trkpt lat="44.62236" lon="0.93532">
        <ele>218.6</ele>
        <time>2018-07-22T12:49:56Z</time>
      </trkpt>
      <trkpt lat="44.62237" lon="0.93525">
        <ele>218.7</ele>
        <time>2018-07-22T12:49:58Z</time>
      </trkpt>
      <trkpt lat="44.62238" lon="0.9352">
        <ele>218.9</ele>
        <time>2018-07-22T12:49:59Z</time>
      </trkpt>
      <trkpt lat="44.62239" lon="0.93514">
        <ele>219</ele>
        <time>2018-07-22T12:50:00Z</time>
      </trkpt>
      <trkpt lat="44.6224" lon="0.93506">
        <ele>219.2</ele>
        <time>2018-07-22T12:50:01Z</time>
      </trkpt>
      <trkpt lat="44.62241" lon="0.93499">
        <ele>219.4</ele>
        <time>2018-07-22T12:50:02Z</time>
      </trkpt>
      <trkpt lat="44.62241" lon="0.93492">
        <ele>219.6</ele>
        <time>2018-07-22T12:50:03Z</time>
      </trkpt>
      <trkpt lat="44.62242" lon="0.93485">
        <ele>219.9</ele>
        <time>2018-07-22T12:50:04Z</time>
      </trkpt>
      <trkpt lat="44.62242" lon="0.93479">
        <ele>220.1</ele>
        <time>2018-07-22T12:50:05Z</time>
      </trkpt>
      <trkpt lat="44.62241" lon="0.93474">
        <ele>220.3</ele>
        <time>2018-07-22T12:50:06Z</time>
      </trkpt>
      <trkpt lat="44.62241" lon="0.9347">
        <ele>220.6</ele>
        <time>2018-07-22T12:50:07Z</time>
      </trkpt>
      <trkpt lat="44.62241" lon="0.93465">
        <ele>220.8</ele>
        <time>2018-07-22T12:50:08Z</time>
      </trkpt>
      <trkpt lat="44.6224" lon="0.93458">
        <ele>220.9</ele>
        <time>2018-07-22T12:50:10Z</time>
      </trkpt>
      <trkpt lat="44.62241" lon="0.93452">
        <ele>221.1</ele>
        <time>2018-07-22T12:50:12Z</time>
      </trkpt>
      <trkpt lat="44.62241" lon="0.93448">
        <ele>221.2</ele>
        <time>2018-07-22T12:50:13Z</time>
      </trkpt>
      <trkpt lat="44.62241" lon="0.93442">
        <ele>221.2</ele>
        <time>2018-07-22T12:50:14Z</time>
      </trkpt>
      <trkpt lat="44.62241" lon="0.93437">
        <ele>221.2</ele>
        <time>2018-07-22T12:50:15Z</time>
      </trkpt>
      <trkpt lat="44.6224" lon="0.93432">
        <ele>221.2</ele>
        <time>2018-07-22T12:50:16Z</time>
      </trkpt>
      <trkpt lat="44.6224" lon="0.93424">
        <ele>221.1</ele>
        <time>2018-07-22T12:50:18Z</time>
      </trkpt>
      <trkpt lat="44.6224" lon="0.9342">
        <ele>221</ele>
        <time>2018-07-22T12:50:19Z</time>
      </trkpt>
      <trkpt lat="44.62241" lon="0.93414">
        <ele>220.9</ele>
        <time>2018-07-22T12:50:20Z</time>
      </trkpt>
      <trkpt lat="44.62242" lon="0.93408">
        <ele>220.7</ele>
        <time>2018-07-22T12:50:21Z</time>
      </trkpt>
      <trkpt lat="44.62244" lon="0.93402">
        <ele>220.4</ele>
        <time>2018-07-22T12:50:22Z</time>
      </trkpt>
      <trkpt lat="44.62245" lon="0.93395">
        <ele>220.2</ele>
        <time>2018-07-22T12:50:23Z</time>
      </trkpt>
      <trkpt lat="44.62247" lon="0.93388">
        <ele>219.9</ele>
        <time>2018-07-22T12:50:24Z</time>
      </trkpt>
      <trkpt lat="44.62248" lon="0.93382">
        <ele>219.7</ele>
        <time>2018-07-22T12:50:25Z</time>
      </trkpt>
      <trkpt lat="44.62249" lon="0.93376">
        <ele>219.6</ele>
        <time>2018-07-22T12:50:26Z</time>
      </trkpt>
      <trkpt lat="44.6225" lon="0.93371">
        <ele>219.4</ele>
        <time>2018-07-22T12:50:27Z</time>
      </trkpt>
      <trkpt lat="44.62251" lon="0.93365">
        <ele>219.4</ele>
        <time>2018-07-22T12:50:28Z</time>
      </trkpt>
      <trkpt lat="44.62252" lon="0.93359">
        <ele>219.3</ele>
        <time>2018-07-22T12:50:29Z</time>
      </trkpt>
      <trkpt lat="44.62252" lon="0.93352">
        <ele>219.1</ele>
        <time>2018-07-22T12:50:30Z</time>
      </trkpt>
      <trkpt lat="44.62254" lon="0.93343">
        <ele>219</ele>
        <time>2018-07-22T12:50:31Z</time>
      </trkpt>
      <trkpt lat="44.62256" lon="0.93335">
        <ele>218.9</ele>
        <time>2018-07-22T12:50:32Z</time>
      </trkpt>
      <trkpt lat="44.62259" lon="0.93328">
        <ele>218.8</ele>
        <time>2018-07-22T12:50:33Z</time>
      </trkpt>
      <trkpt lat="44.62261" lon="0.93322">
        <ele>218.7</ele>
        <time>2018-07-22T12:50:34Z</time>
      </trkpt>
      <trkpt lat="44.62264" lon="0.93315">
        <ele>218.7</ele>
        <time>2018-07-22T12:50:35Z</time>
      </trkpt>
      <trkpt lat="44.62267" lon="0.93309">
        <ele>218.7</ele>
        <time>2018-07-22T12:50:36Z</time>
      </trkpt>
      <trkpt lat="44.62271" lon="0.93303">
        <ele>218.7</ele>
        <time>2018-07-22T12:50:37Z</time>
      </trkpt>
      <trkpt lat="44.6228" lon="0.93292">
        <ele>218.8</ele>
        <time>2018-07-22T12:50:38Z</time>
      </trkpt>
      <trkpt lat="44.62284" lon="0.93289">
        <ele>218.9</ele>
        <time>2018-07-22T12:50:39Z</time>
      </trkpt>
      <trkpt lat="44.62287" lon="0.93286">
        <ele>218.9</ele>
        <time>2018-07-22T12:50:40Z</time>
      </trkpt>
      <trkpt lat="44.62291" lon="0.93282">
        <ele>219</ele>
        <time>2018-07-22T12:50:41Z</time>
      </trkpt>
      <trkpt lat="44.62298" lon="0.93273">
        <ele>219.1</ele>
        <time>2018-07-22T12:50:42Z</time>
      </trkpt>
      <trkpt lat="44.62299" lon="0.93267">
        <ele>219</ele>
        <time>2018-07-22T12:50:43Z</time>
      </trkpt>
      <trkpt lat="44.62301" lon="0.93262">
        <ele>219.1</ele>
        <time>2018-07-22T12:50:44Z</time>
      </trkpt>
      <trkpt lat="44.62303" lon="0.93258">
        <ele>219.1</ele>
        <time>2018-07-22T12:50:45Z</time>
      </trkpt>
      <trkpt lat="44.62306" lon="0.93255">
        <ele>219.2</ele>
        <time>2018-07-22T12:50:46Z</time>
      </trkpt>
      <trkpt lat="44.62309" lon="0.9325">
        <ele>219.2</ele>
        <time>2018-07-22T12:50:47Z</time>
      </trkpt>
      <trkpt lat="44.62312" lon="0.93245">
        <ele>219.3</ele>
        <time>2018-07-22T12:50:48Z</time>
      </trkpt>
      <trkpt lat="44.62315" lon="0.93241">
        <ele>219.3</ele>
        <time>2018-07-22T12:50:49Z</time>
      </trkpt>
      <trkpt lat="44.62318" lon="0.93238">
        <ele>219.4</ele>
        <time>2018-07-22T12:50:50Z</time>
      </trkpt>
      <trkpt lat="44.62321" lon="0.93235">
        <ele>219.4</ele>
        <time>2018-07-22T12:50:51Z</time>
      </trkpt>
      <trkpt lat="44.62324" lon="0.93232">
        <ele>219.4</ele>
        <time>2018-07-22T12:50:52Z</time>
      </trkpt>
      <trkpt lat="44.62327" lon="0.93229">
        <ele>219.5</ele>
        <time>2018-07-22T12:50:54Z</time>
      </trkpt>
      <trkpt lat="44.62331" lon="0.93228">
        <ele>219.6</ele>
        <time>2018-07-22T12:50:56Z</time>
      </trkpt>
      <trkpt lat="44.62334" lon="0.93225">
        <ele>219.6</ele>
        <time>2018-07-22T12:50:57Z</time>
      </trkpt>
      <trkpt lat="44.62337" lon="0.93223">
        <ele>219.7</ele>
        <time>2018-07-22T12:50:58Z</time>
      </trkpt>
      <trkpt lat="44.6234" lon="0.93219">
        <ele>219.8</ele>
        <time>2018-07-22T12:50:59Z</time>
      </trkpt>
      <trkpt lat="44.62343" lon="0.93215">
        <ele>219.8</ele>
        <time>2018-07-22T12:51:00Z</time>
      </trkpt>
      <trkpt lat="44.62346" lon="0.9321">
        <ele>219.9</ele>
        <time>2018-07-22T12:51:01Z</time>
      </trkpt>
      <trkpt lat="44.62349" lon="0.93206">
        <ele>219.9</ele>
        <time>2018-07-22T12:51:02Z</time>
      </trkpt>
      <trkpt lat="44.62353" lon="0.93203">
        <ele>220.1</ele>
        <time>2018-07-22T12:51:04Z</time>
      </trkpt>
      <trkpt lat="44.62356" lon="0.932">
        <ele>220.2</ele>
        <time>2018-07-22T12:51:05Z</time>
      </trkpt>
      <trkpt lat="44.62359" lon="0.93198">
        <ele>220.1</ele>
        <time>2018-07-22T12:51:06Z</time>
      </trkpt>
      <trkpt lat="44.62361" lon="0.93195">
        <ele>220.2</ele>
        <time>2018-07-22T12:51:07Z</time>
      </trkpt>
      <trkpt lat="44.62365" lon="0.9319">
        <ele>220.2</ele>
        <time>2018-07-22T12:51:08Z</time>
      </trkpt>
      <trkpt lat="44.62368" lon="0.93186">
        <ele>220.4</ele>
        <time>2018-07-22T12:51:09Z</time>
      </trkpt>
      <trkpt lat="44.62372" lon="0.93181">
        <ele>220.4</ele>
        <time>2018-07-22T12:51:10Z</time>
      </trkpt>
      <trkpt lat="44.62376" lon="0.93178">
        <ele>220.5</ele>
        <time>2018-07-22T12:51:11Z</time>
      </trkpt>
      <trkpt lat="44.62381" lon="0.93175">
        <ele>220.7</ele>
        <time>2018-07-22T12:51:12Z</time>
      </trkpt>
      <trkpt lat="44.62385" lon="0.93173">
        <ele>220.8</ele>
        <time>2018-07-22T12:51:13Z</time>
      </trkpt>
      <trkpt lat="44.6239" lon="0.93172">
        <ele>221.1</ele>
        <time>2018-07-22T12:51:14Z</time>
      </trkpt>
      <trkpt lat="44.62395" lon="0.93171">
        <ele>221.2</ele>
        <time>2018-07-22T12:51:15Z</time>
      </trkpt>
      <trkpt lat="44.62399" lon="0.93171">
        <ele>221.5</ele>
        <time>2018-07-22T12:51:16Z</time>
      </trkpt>
      <trkpt lat="44.62403" lon="0.9317">
        <ele>221.6</ele>
        <time>2018-07-22T12:51:17Z</time>
      </trkpt>
      <trkpt lat="44.62407" lon="0.9317">
        <ele>221.8</ele>
        <time>2018-07-22T12:51:18Z</time>
      </trkpt>
      <trkpt lat="44.62412" lon="0.93171">
        <ele>222.1</ele>
        <time>2018-07-22T12:51:19Z</time>
      </trkpt>
      <trkpt lat="44.62417" lon="0.93172">
        <ele>222.4</ele>
        <time>2018-07-22T12:51:20Z</time>
      </trkpt>
      <trkpt lat="44.62422" lon="0.93173">
        <ele>222.6</ele>
        <time>2018-07-22T12:51:21Z</time>
      </trkpt>
      <trkpt lat="44.62426" lon="0.93175">
        <ele>223</ele>
        <time>2018-07-22T12:51:22Z</time>
      </trkpt>
      <trkpt lat="44.62434" lon="0.93179">
        <ele>223.3</ele>
        <time>2018-07-22T12:51:23Z</time>
      </trkpt>
      <trkpt lat="44.62438" lon="0.93182">
        <ele>223.6</ele>
        <time>2018-07-22T12:51:24Z</time>
      </trkpt>
      <trkpt lat="44.62441" lon="0.93188">
        <ele>223.7</ele>
        <time>2018-07-22T12:51:25Z</time>
      </trkpt>
      <trkpt lat="44.62444" lon="0.93191">
        <ele>224</ele>
        <time>2018-07-22T12:51:26Z</time>
      </trkpt>
      <trkpt lat="44.62449" lon="0.93193">
        <ele>224.2</ele>
        <time>2018-07-22T12:51:27Z</time>
      </trkpt>
      <trkpt lat="44.62453" lon="0.93194">
        <ele>224.3</ele>
        <time>2018-07-22T12:51:28Z</time>
      </trkpt>
      <trkpt lat="44.62458" lon="0.93195">
        <ele>224.5</ele>
        <time>2018-07-22T12:51:29Z</time>
      </trkpt>
      <trkpt lat="44.62461" lon="0.93197">
        <ele>224.7</ele>
        <time>2018-07-22T12:51:30Z</time>
      </trkpt>
      <trkpt lat="44.62464" lon="0.932">
        <ele>224.8</ele>
        <time>2018-07-22T12:51:31Z</time>
      </trkpt>
      <trkpt lat="44.62468" lon="0.932">
        <ele>224.9</ele>
        <time>2018-07-22T12:51:32Z</time>
      </trkpt>
      <trkpt lat="44.62472" lon="0.93201">
        <ele>225.1</ele>
        <time>2018-07-22T12:51:33Z</time>
      </trkpt>
      <trkpt lat="44.62475" lon="0.93201">
        <ele>225.2</ele>
        <time>2018-07-22T12:51:34Z</time>
      </trkpt>
      <trkpt lat="44.62479" lon="0.93201">
        <ele>225.2</ele>
        <time>2018-07-22T12:51:35Z</time>
      </trkpt>
      <trkpt lat="44.62482" lon="0.93201">
        <ele>225.3</ele>
        <time>2018-07-22T12:51:36Z</time>
      </trkpt>
      <trkpt lat="44.62485" lon="0.93201">
        <ele>225.4</ele>
        <time>2018-07-22T12:51:37Z</time>
      </trkpt>
      <trkpt lat="44.6249" lon="0.93201">
        <ele>225.5</ele>
        <time>2018-07-22T12:51:39Z</time>
      </trkpt>
      <trkpt lat="44.62494" lon="0.93202">
        <ele>225.5</ele>
        <time>2018-07-22T12:51:40Z</time>
      </trkpt>
      <trkpt lat="44.62497" lon="0.93202">
        <ele>225.6</ele>
        <time>2018-07-22T12:51:41Z</time>
      </trkpt>
      <trkpt lat="44.62501" lon="0.93202">
        <ele>225.7</ele>
        <time>2018-07-22T12:51:42Z</time>
      </trkpt>
      <trkpt lat="44.62504" lon="0.93202">
        <ele>225.7</ele>
        <time>2018-07-22T12:51:43Z</time>
      </trkpt>
      <trkpt lat="44.62507" lon="0.93201">
        <ele>225.8</ele>
        <time>2018-07-22T12:51:44Z</time>
      </trkpt>
      <trkpt lat="44.6251" lon="0.932">
        <ele>225.7</ele>
        <time>2018-07-22T12:51:45Z</time>
      </trkpt>
      <trkpt lat="44.62513" lon="0.93199">
        <ele>225.6</ele>
        <time>2018-07-22T12:51:46Z</time>
      </trkpt>
      <trkpt lat="44.62517" lon="0.932">
        <ele>225.5</ele>
        <time>2018-07-22T12:51:47Z</time>
      </trkpt>
      <trkpt lat="44.62521" lon="0.93202">
        <ele>225.5</ele>
        <time>2018-07-22T12:51:48Z</time>
      </trkpt>
      <trkpt lat="44.62525" lon="0.93206">
        <ele>225.4</ele>
        <time>2018-07-22T12:51:49Z</time>
      </trkpt>
      <trkpt lat="44.62529" lon="0.9321">
        <ele>225.3</ele>
        <time>2018-07-22T12:51:50Z</time>
      </trkpt>
      <trkpt lat="44.62532" lon="0.93215">
        <ele>225.3</ele>
        <time>2018-07-22T12:51:51Z</time>
      </trkpt>
      <trkpt lat="44.62537" lon="0.93221">
        <ele>225.4</ele>
        <time>2018-07-22T12:51:52Z</time>
      </trkpt>
      <trkpt lat="44.62541" lon="0.93226">
        <ele>225.4</ele>
        <time>2018-07-22T12:51:53Z</time>
      </trkpt>
      <trkpt lat="44.62544" lon="0.9323">
        <ele>225.5</ele>
        <time>2018-07-22T12:51:54Z</time>
      </trkpt>
      <trkpt lat="44.62549" lon="0.93234">
        <ele>225.7</ele>
        <time>2018-07-22T12:51:55Z</time>
      </trkpt>
      <trkpt lat="44.62552" lon="0.93238">
        <ele>225.8</ele>
        <time>2018-07-22T12:51:56Z</time>
      </trkpt>
      <trkpt lat="44.62555" lon="0.93242">
        <ele>226</ele>
        <time>2018-07-22T12:51:57Z</time>
      </trkpt>
      <trkpt lat="44.62559" lon="0.93246">
        <ele>226.2</ele>
        <time>2018-07-22T12:51:58Z</time>
      </trkpt>
      <trkpt lat="44.62562" lon="0.93249">
        <ele>226.4</ele>
        <time>2018-07-22T12:51:59Z</time>
      </trkpt>
      <trkpt lat="44.62567" lon="0.93253">
        <ele>226.7</ele>
        <time>2018-07-22T12:52:00Z</time>
      </trkpt>
      <trkpt lat="44.62568" lon="0.93257">
        <ele>226.9</ele>
        <time>2018-07-22T12:52:01Z</time>
      </trkpt>
      <trkpt lat="44.62572" lon="0.93261">
        <ele>227.1</ele>
        <time>2018-07-22T12:52:02Z</time>
      </trkpt>
      <trkpt lat="44.62574" lon="0.93265">
        <ele>227.3</ele>
        <time>2018-07-22T12:52:03Z</time>
      </trkpt>
      <trkpt lat="44.62577" lon="0.93268">
        <ele>227.5</ele>
        <time>2018-07-22T12:52:04Z</time>
      </trkpt>
      <trkpt lat="44.6258" lon="0.93271">
        <ele>227.7</ele>
        <time>2018-07-22T12:52:05Z</time>
      </trkpt>
      <trkpt lat="44.62584" lon="0.93275">
        <ele>228</ele>
        <time>2018-07-22T12:52:06Z</time>
      </trkpt>
      <trkpt lat="44.62587" lon="0.93278">
        <ele>228.2</ele>
        <time>2018-07-22T12:52:07Z</time>
      </trkpt>
      <trkpt lat="44.6259" lon="0.93282">
        <ele>228.4</ele>
        <time>2018-07-22T12:52:08Z</time>
      </trkpt>
      <trkpt lat="44.62594" lon="0.93286">
        <ele>228.5</ele>
        <time>2018-07-22T12:52:09Z</time>
      </trkpt>
      <trkpt lat="44.62597" lon="0.9329">
        <ele>228.5</ele>
        <time>2018-07-22T12:52:10Z</time>
      </trkpt>
      <trkpt lat="44.62599" lon="0.93295">
        <ele>228.6</ele>
        <time>2018-07-22T12:52:11Z</time>
      </trkpt>
      <trkpt lat="44.62601" lon="0.93301">
        <ele>228.7</ele>
        <time>2018-07-22T12:52:12Z</time>
      </trkpt>
      <trkpt lat="44.62602" lon="0.93306">
        <ele>228.8</ele>
        <time>2018-07-22T12:52:13Z</time>
      </trkpt>
      <trkpt lat="44.62603" lon="0.9331">
        <ele>228.9</ele>
        <time>2018-07-22T12:52:14Z</time>
      </trkpt>
      <trkpt lat="44.62604" lon="0.93315">
        <ele>229</ele>
        <time>2018-07-22T12:52:15Z</time>
      </trkpt>
      <trkpt lat="44.62605" lon="0.93322">
        <ele>229.3</ele>
        <time>2018-07-22T12:52:17Z</time>
      </trkpt>
      <trkpt lat="44.62606" lon="0.93327">
        <ele>229.5</ele>
        <time>2018-07-22T12:52:18Z</time>
      </trkpt>
      <trkpt lat="44.62607" lon="0.93332">
        <ele>229.6</ele>
        <time>2018-07-22T12:52:19Z</time>
      </trkpt>
      <trkpt lat="44.62608" lon="0.93337">
        <ele>229.8</ele>
        <time>2018-07-22T12:52:20Z</time>
      </trkpt>
      <trkpt lat="44.62609" lon="0.93342">
        <ele>230</ele>
        <time>2018-07-22T12:52:21Z</time>
      </trkpt>
      <trkpt lat="44.62611" lon="0.93347">
        <ele>230.1</ele>
        <time>2018-07-22T12:52:22Z</time>
      </trkpt>
      <trkpt lat="44.62612" lon="0.93353">
        <ele>230.2</ele>
        <time>2018-07-22T12:52:23Z</time>
      </trkpt>
      <trkpt lat="44.62614" lon="0.93359">
        <ele>230.3</ele>
        <time>2018-07-22T12:52:24Z</time>
      </trkpt>
      <trkpt lat="44.62615" lon="0.93365">
        <ele>230.4</ele>
        <time>2018-07-22T12:52:25Z</time>
      </trkpt>
      <trkpt lat="44.62617" lon="0.9337">
        <ele>230.6</ele>
        <time>2018-07-22T12:52:26Z</time>
      </trkpt>
      <trkpt lat="44.62619" lon="0.93375">
        <ele>230.6</ele>
        <time>2018-07-22T12:52:27Z</time>
      </trkpt>
      <trkpt lat="44.62621" lon="0.9338">
        <ele>230.7</ele>
        <time>2018-07-22T12:52:28Z</time>
      </trkpt>
      <trkpt lat="44.62623" lon="0.93385">
        <ele>230.7</ele>
        <time>2018-07-22T12:52:29Z</time>
      </trkpt>
      <trkpt lat="44.62627" lon="0.93392">
        <ele>230.8</ele>
        <time>2018-07-22T12:52:30Z</time>
      </trkpt>
      <trkpt lat="44.62632" lon="0.93395">
        <ele>230.8</ele>
        <time>2018-07-22T12:52:31Z</time>
      </trkpt>
      <trkpt lat="44.62637" lon="0.93401">
        <ele>230.9</ele>
        <time>2018-07-22T12:52:32Z</time>
      </trkpt>
      <trkpt lat="44.62641" lon="0.93404">
        <ele>231.1</ele>
        <time>2018-07-22T12:52:33Z</time>
      </trkpt>
      <trkpt lat="44.62645" lon="0.93407">
        <ele>231.2</ele>
        <time>2018-07-22T12:52:34Z</time>
      </trkpt>
      <trkpt lat="44.62649" lon="0.9341">
        <ele>231.5</ele>
        <time>2018-07-22T12:52:35Z</time>
      </trkpt>
      <trkpt lat="44.62654" lon="0.93412">
        <ele>231.7</ele>
        <time>2018-07-22T12:52:36Z</time>
      </trkpt>
      <trkpt lat="44.62658" lon="0.93413">
        <ele>231.8</ele>
        <time>2018-07-22T12:52:37Z</time>
      </trkpt>
      <trkpt lat="44.62663" lon="0.93414">
        <ele>232.2</ele>
        <time>2018-07-22T12:52:38Z</time>
      </trkpt>
      <trkpt lat="44.62667" lon="0.93414">
        <ele>232.6</ele>
        <time>2018-07-22T12:52:39Z</time>
      </trkpt>
      <trkpt lat="44.62672" lon="0.93415">
        <ele>232.9</ele>
        <time>2018-07-22T12:52:40Z</time>
      </trkpt>
      <trkpt lat="44.62676" lon="0.93415">
        <ele>233.1</ele>
        <time>2018-07-22T12:52:41Z</time>
      </trkpt>
      <trkpt lat="44.62679" lon="0.93415">
        <ele>233.4</ele>
        <time>2018-07-22T12:52:42Z</time>
      </trkpt>
      <trkpt lat="44.62682" lon="0.93414">
        <ele>233.7</ele>
        <time>2018-07-22T12:52:43Z</time>
      </trkpt>
      <trkpt lat="44.62686" lon="0.93413">
        <ele>234.1</ele>
        <time>2018-07-22T12:52:44Z</time>
      </trkpt>
      <trkpt lat="44.62689" lon="0.93411">
        <ele>234.4</ele>
        <time>2018-07-22T12:52:45Z</time>
      </trkpt>
      <trkpt lat="44.62693" lon="0.93409">
        <ele>234.7</ele>
        <time>2018-07-22T12:52:46Z</time>
      </trkpt>
      <trkpt lat="44.62696" lon="0.93408">
        <ele>235.1</ele>
        <time>2018-07-22T12:52:47Z</time>
      </trkpt>
      <trkpt lat="44.62698" lon="0.93406">
        <ele>235.4</ele>
        <time>2018-07-22T12:52:48Z</time>
      </trkpt>
      <trkpt lat="44.62701" lon="0.93404">
        <ele>235.6</ele>
        <time>2018-07-22T12:52:49Z</time>
      </trkpt>
      <trkpt lat="44.62705" lon="0.93401">
        <ele>235.9</ele>
        <time>2018-07-22T12:52:50Z</time>
      </trkpt>
      <trkpt lat="44.62708" lon="0.93399">
        <ele>236.1</ele>
        <time>2018-07-22T12:52:51Z</time>
      </trkpt>
      <trkpt lat="44.62711" lon="0.93397">
        <ele>236.4</ele>
        <time>2018-07-22T12:52:52Z</time>
      </trkpt>
      <trkpt lat="44.62714" lon="0.93394">
        <ele>236.7</ele>
        <time>2018-07-22T12:52:53Z</time>
      </trkpt>
      <trkpt lat="44.62716" lon="0.93392">
        <ele>237</ele>
        <time>2018-07-22T12:52:54Z</time>
      </trkpt>
      <trkpt lat="44.62719" lon="0.9339">
        <ele>237.2</ele>
        <time>2018-07-22T12:52:55Z</time>
      </trkpt>
      <trkpt lat="44.62722" lon="0.93387">
        <ele>237.4</ele>
        <time>2018-07-22T12:52:56Z</time>
      </trkpt>
      <trkpt lat="44.62724" lon="0.93386">
        <ele>237.7</ele>
        <time>2018-07-22T12:52:57Z</time>
      </trkpt>
      <trkpt lat="44.62727" lon="0.93384">
        <ele>238.1</ele>
        <time>2018-07-22T12:52:58Z</time>
      </trkpt>
      <trkpt lat="44.6273" lon="0.93382">
        <ele>238.4</ele>
        <time>2018-07-22T12:52:59Z</time>
      </trkpt>
      <trkpt lat="44.62734" lon="0.93379">
        <ele>239.1</ele>
        <time>2018-07-22T12:53:01Z</time>
      </trkpt>
      <trkpt lat="44.62737" lon="0.93377">
        <ele>239.5</ele>
        <time>2018-07-22T12:53:02Z</time>
      </trkpt>
      <trkpt lat="44.6274" lon="0.93376">
        <ele>239.9</ele>
        <time>2018-07-22T12:53:03Z</time>
      </trkpt>
      <trkpt lat="44.62744" lon="0.93373">
        <ele>240.5</ele>
        <time>2018-07-22T12:53:05Z</time>
      </trkpt>
      <trkpt lat="44.62749" lon="0.9337">
        <ele>241.2</ele>
        <time>2018-07-22T12:53:07Z</time>
      </trkpt>
      <trkpt lat="44.62754" lon="0.93367">
        <ele>241.8</ele>
        <time>2018-07-22T12:53:09Z</time>
      </trkpt>
      <trkpt lat="44.62758" lon="0.93363">
        <ele>242.2</ele>
        <time>2018-07-22T12:53:11Z</time>
      </trkpt>
      <trkpt lat="44.62761" lon="0.93362">
        <ele>242.5</ele>
        <time>2018-07-22T12:53:12Z</time>
      </trkpt>
      <trkpt lat="44.62763" lon="0.9336">
        <ele>242.7</ele>
        <time>2018-07-22T12:53:13Z</time>
      </trkpt>
      <trkpt lat="44.62768" lon="0.93357">
        <ele>243.3</ele>
        <time>2018-07-22T12:53:15Z</time>
      </trkpt>
      <trkpt lat="44.62771" lon="0.93356">
        <ele>243.7</ele>
        <time>2018-07-22T12:53:17Z</time>
      </trkpt>
      <trkpt lat="44.62776" lon="0.93355">
        <ele>244.1</ele>
        <time>2018-07-22T12:53:19Z</time>
      </trkpt>
      <trkpt lat="44.62778" lon="0.93354">
        <ele>244.4</ele>
        <time>2018-07-22T12:53:20Z</time>
      </trkpt>
      <trkpt lat="44.62783" lon="0.93351">
        <ele>244.8</ele>
        <time>2018-07-22T12:53:22Z</time>
      </trkpt>
      <trkpt lat="44.62788" lon="0.93349">
        <ele>245.2</ele>
        <time>2018-07-22T12:53:24Z</time>
      </trkpt>
      <trkpt lat="44.62792" lon="0.9335">
        <ele>245.4</ele>
        <time>2018-07-22T12:53:26Z</time>
      </trkpt>
      <trkpt lat="44.62796" lon="0.93349">
        <ele>245.6</ele>
        <time>2018-07-22T12:53:28Z</time>
      </trkpt>
      <trkpt lat="44.62801" lon="0.93346">
        <ele>246</ele>
        <time>2018-07-22T12:53:30Z</time>
      </trkpt>
      <trkpt lat="44.62806" lon="0.93344">
        <ele>246.4</ele>
        <time>2018-07-22T12:53:32Z</time>
      </trkpt>
      <trkpt lat="44.62809" lon="0.93342">
        <ele>246.6</ele>
        <time>2018-07-22T12:53:33Z</time>
      </trkpt>
      <trkpt lat="44.62814" lon="0.9334">
        <ele>246.9</ele>
        <time>2018-07-22T12:53:35Z</time>
      </trkpt>
      <trkpt lat="44.62816" lon="0.93339">
        <ele>247</ele>
        <time>2018-07-22T12:53:36Z</time>
      </trkpt>
      <trkpt lat="44.62822" lon="0.93337">
        <ele>247.3</ele>
        <time>2018-07-22T12:53:38Z</time>
      </trkpt>
      <trkpt lat="44.62825" lon="0.93336">
        <ele>247.4</ele>
        <time>2018-07-22T12:53:39Z</time>
      </trkpt>
      <trkpt lat="44.62828" lon="0.93335">
        <ele>247.6</ele>
        <time>2018-07-22T12:53:40Z</time>
      </trkpt>
      <trkpt lat="44.62831" lon="0.93333">
        <ele>247.7</ele>
        <time>2018-07-22T12:53:41Z</time>
      </trkpt>
      <trkpt lat="44.62833" lon="0.93332">
        <ele>247.9</ele>
        <time>2018-07-22T12:53:42Z</time>
      </trkpt>
      <trkpt lat="44.62836" lon="0.9333">
        <ele>248</ele>
        <time>2018-07-22T12:53:43Z</time>
      </trkpt>
      <trkpt lat="44.62839" lon="0.93329">
        <ele>248.2</ele>
        <time>2018-07-22T12:53:44Z</time>
      </trkpt>
      <trkpt lat="44.62842" lon="0.93327">
        <ele>248.3</ele>
        <time>2018-07-22T12:53:45Z</time>
      </trkpt>
      <trkpt lat="44.62845" lon="0.93326">
        <ele>248.4</ele>
        <time>2018-07-22T12:53:46Z</time>
      </trkpt>
      <trkpt lat="44.62848" lon="0.93324">
        <ele>248.5</ele>
        <time>2018-07-22T12:53:47Z</time>
      </trkpt>
      <trkpt lat="44.6285" lon="0.93323">
        <ele>248.6</ele>
        <time>2018-07-22T12:53:48Z</time>
      </trkpt>
      <trkpt lat="44.62853" lon="0.93322">
        <ele>248.6</ele>
        <time>2018-07-22T12:53:49Z</time>
      </trkpt>
      <trkpt lat="44.62856" lon="0.93322">
        <ele>248.7</ele>
        <time>2018-07-22T12:53:50Z</time>
      </trkpt>
      <trkpt lat="44.62859" lon="0.93322">
        <ele>248.7</ele>
        <time>2018-07-22T12:53:51Z</time>
      </trkpt>
      <trkpt lat="44.62861" lon="0.93321">
        <ele>248.8</ele>
        <time>2018-07-22T12:53:52Z</time>
      </trkpt>
      <trkpt lat="44.62864" lon="0.9332">
        <ele>248.9</ele>
        <time>2018-07-22T12:53:53Z</time>
      </trkpt>
      <trkpt lat="44.62868" lon="0.93318">
        <ele>249</ele>
        <time>2018-07-22T12:53:54Z</time>
      </trkpt>
      <trkpt lat="44.62871" lon="0.93317">
        <ele>249.1</ele>
        <time>2018-07-22T12:53:55Z</time>
      </trkpt>
      <trkpt lat="44.62874" lon="0.93316">
        <ele>249.2</ele>
        <time>2018-07-22T12:53:56Z</time>
      </trkpt>
      <trkpt lat="44.62877" lon="0.93314">
        <ele>249.3</ele>
        <time>2018-07-22T12:53:57Z</time>
      </trkpt>
      <trkpt lat="44.6288" lon="0.93313">
        <ele>249.3</ele>
        <time>2018-07-22T12:53:58Z</time>
      </trkpt>
      <trkpt lat="44.62883" lon="0.93311">
        <ele>249.4</ele>
        <time>2018-07-22T12:53:59Z</time>
      </trkpt>
      <trkpt lat="44.62886" lon="0.9331">
        <ele>249.4</ele>
        <time>2018-07-22T12:54:00Z</time>
      </trkpt>
      <trkpt lat="44.62889" lon="0.93309">
        <ele>249.5</ele>
        <time>2018-07-22T12:54:01Z</time>
      </trkpt>
      <trkpt lat="44.62893" lon="0.93308">
        <ele>249.7</ele>
        <time>2018-07-22T12:54:02Z</time>
      </trkpt>
      <trkpt lat="44.62897" lon="0.93308">
        <ele>249.7</ele>
        <time>2018-07-22T12:54:03Z</time>
      </trkpt>
      <trkpt lat="44.629" lon="0.93307">
        <ele>249.8</ele>
        <time>2018-07-22T12:54:04Z</time>
      </trkpt>
      <trkpt lat="44.62904" lon="0.93307">
        <ele>249.9</ele>
        <time>2018-07-22T12:54:05Z</time>
      </trkpt>
      <trkpt lat="44.62908" lon="0.93306">
        <ele>250</ele>
        <time>2018-07-22T12:54:06Z</time>
      </trkpt>
      <trkpt lat="44.62911" lon="0.93306">
        <ele>250.2</ele>
        <time>2018-07-22T12:54:07Z</time>
      </trkpt>
      <trkpt lat="44.62915" lon="0.93305">
        <ele>250.3</ele>
        <time>2018-07-22T12:54:08Z</time>
      </trkpt>
      <trkpt lat="44.62918" lon="0.93304">
        <ele>250.4</ele>
        <time>2018-07-22T12:54:09Z</time>
      </trkpt>
      <trkpt lat="44.62922" lon="0.93304">
        <ele>250.6</ele>
        <time>2018-07-22T12:54:10Z</time>
      </trkpt>
      <trkpt lat="44.62926" lon="0.93303">
        <ele>250.7</ele>
        <time>2018-07-22T12:54:11Z</time>
      </trkpt>
      <trkpt lat="44.6293" lon="0.93303">
        <ele>250.9</ele>
        <time>2018-07-22T12:54:12Z</time>
      </trkpt>
      <trkpt lat="44.62933" lon="0.93302">
        <ele>251</ele>
        <time>2018-07-22T12:54:13Z</time>
      </trkpt>
      <trkpt lat="44.62936" lon="0.93302">
        <ele>251.1</ele>
        <time>2018-07-22T12:54:14Z</time>
      </trkpt>
      <trkpt lat="44.62939" lon="0.93302">
        <ele>251.3</ele>
        <time>2018-07-22T12:54:15Z</time>
      </trkpt>
      <trkpt lat="44.62943" lon="0.93302">
        <ele>251.5</ele>
        <time>2018-07-22T12:54:16Z</time>
      </trkpt>
      <trkpt lat="44.62946" lon="0.93301">
        <ele>251.7</ele>
        <time>2018-07-22T12:54:17Z</time>
      </trkpt>
      <trkpt lat="44.6295" lon="0.93301">
        <ele>251.8</ele>
        <time>2018-07-22T12:54:18Z</time>
      </trkpt>
      <trkpt lat="44.62954" lon="0.93301">
        <ele>252</ele>
        <time>2018-07-22T12:54:19Z</time>
      </trkpt>
      <trkpt lat="44.62958" lon="0.933">
        <ele>252.1</ele>
        <time>2018-07-22T12:54:20Z</time>
      </trkpt>
      <trkpt lat="44.62963" lon="0.93299">
        <ele>252.3</ele>
        <time>2018-07-22T12:54:21Z</time>
      </trkpt>
      <trkpt lat="44.62968" lon="0.93297">
        <ele>252.5</ele>
        <time>2018-07-22T12:54:22Z</time>
      </trkpt>
      <trkpt lat="44.62972" lon="0.93297">
        <ele>252.7</ele>
        <time>2018-07-22T12:54:23Z</time>
      </trkpt>
      <trkpt lat="44.62976" lon="0.93298">
        <ele>252.8</ele>
        <time>2018-07-22T12:54:24Z</time>
      </trkpt>
      <trkpt lat="44.62981" lon="0.93296">
        <ele>253</ele>
        <time>2018-07-22T12:54:25Z</time>
      </trkpt>
      <trkpt lat="44.62987" lon="0.93291">
        <ele>253.2</ele>
        <time>2018-07-22T12:54:26Z</time>
      </trkpt>
      <trkpt lat="44.62992" lon="0.93291">
        <ele>253.3</ele>
        <time>2018-07-22T12:54:27Z</time>
      </trkpt>
      <trkpt lat="44.62996" lon="0.93291">
        <ele>253.4</ele>
        <time>2018-07-22T12:54:28Z</time>
      </trkpt>
      <trkpt lat="44.63001" lon="0.93291">
        <ele>253.5</ele>
        <time>2018-07-22T12:54:29Z</time>
      </trkpt>
      <trkpt lat="44.63005" lon="0.93292">
        <ele>253.5</ele>
        <time>2018-07-22T12:54:30Z</time>
      </trkpt>
      <trkpt lat="44.63009" lon="0.93293">
        <ele>253.6</ele>
        <time>2018-07-22T12:54:31Z</time>
      </trkpt>
      <trkpt lat="44.63013" lon="0.93292">
        <ele>253.7</ele>
        <time>2018-07-22T12:54:32Z</time>
      </trkpt>
      <trkpt lat="44.63017" lon="0.9329">
        <ele>253.7</ele>
        <time>2018-07-22T12:54:33Z</time>
      </trkpt>
      <trkpt lat="44.63021" lon="0.93291">
        <ele>253.8</ele>
        <time>2018-07-22T12:54:35Z</time>
      </trkpt>
      <trkpt lat="44.63026" lon="0.93293">
        <ele>253.9</ele>
        <time>2018-07-22T12:54:36Z</time>
      </trkpt>
      <trkpt lat="44.63031" lon="0.93294">
        <ele>253.9</ele>
        <time>2018-07-22T12:54:37Z</time>
      </trkpt>
      <trkpt lat="44.63037" lon="0.93295">
        <ele>254</ele>
        <time>2018-07-22T12:54:38Z</time>
      </trkpt>
      <trkpt lat="44.63042" lon="0.93296">
        <ele>254.1</ele>
        <time>2018-07-22T12:54:39Z</time>
      </trkpt>
      <trkpt lat="44.63047" lon="0.93297">
        <ele>254.2</ele>
        <time>2018-07-22T12:54:40Z</time>
      </trkpt>
      <trkpt lat="44.63053" lon="0.93296">
        <ele>254.3</ele>
        <time>2018-07-22T12:54:41Z</time>
      </trkpt>
      <trkpt lat="44.63059" lon="0.93296">
        <ele>254.4</ele>
        <time>2018-07-22T12:54:42Z</time>
      </trkpt>
      <trkpt lat="44.63065" lon="0.93295">
        <ele>254.6</ele>
        <time>2018-07-22T12:54:43Z</time>
      </trkpt>
      <trkpt lat="44.6307" lon="0.93294">
        <ele>254.7</ele>
        <time>2018-07-22T12:54:44Z</time>
      </trkpt>
      <trkpt lat="44.63076" lon="0.93291">
        <ele>254.8</ele>
        <time>2018-07-22T12:54:45Z</time>
      </trkpt>
      <trkpt lat="44.63081" lon="0.93289">
        <ele>255</ele>
        <time>2018-07-22T12:54:46Z</time>
      </trkpt>
      <trkpt lat="44.63085" lon="0.93286">
        <ele>255.1</ele>
        <time>2018-07-22T12:54:47Z</time>
      </trkpt>
      <trkpt lat="44.63089" lon="0.93285">
        <ele>255.2</ele>
        <time>2018-07-22T12:54:48Z</time>
      </trkpt>
      <trkpt lat="44.63094" lon="0.93281">
        <ele>255.3</ele>
        <time>2018-07-22T12:54:49Z</time>
      </trkpt>
      <trkpt lat="44.631" lon="0.93279">
        <ele>255.4</ele>
        <time>2018-07-22T12:54:50Z</time>
      </trkpt>
      <trkpt lat="44.63105" lon="0.93274">
        <ele>255.5</ele>
        <time>2018-07-22T12:54:51Z</time>
      </trkpt>
      <trkpt lat="44.6311" lon="0.93271">
        <ele>255.5</ele>
        <time>2018-07-22T12:54:52Z</time>
      </trkpt>
      <trkpt lat="44.63116" lon="0.93268">
        <ele>255.5</ele>
        <time>2018-07-22T12:54:53Z</time>
      </trkpt>
      <trkpt lat="44.63122" lon="0.93264">
        <ele>255.5</ele>
        <time>2018-07-22T12:54:54Z</time>
      </trkpt>
      <trkpt lat="44.63126" lon="0.93261">
        <ele>255.5</ele>
        <time>2018-07-22T12:54:55Z</time>
      </trkpt>
      <trkpt lat="44.63132" lon="0.93259">
        <ele>255.5</ele>
        <time>2018-07-22T12:54:56Z</time>
      </trkpt>
      <trkpt lat="44.63137" lon="0.93256">
        <ele>255.6</ele>
        <time>2018-07-22T12:54:57Z</time>
      </trkpt>
      <trkpt lat="44.63142" lon="0.93252">
        <ele>255.8</ele>
        <time>2018-07-22T12:54:58Z</time>
      </trkpt>
      <trkpt lat="44.63148" lon="0.93251">
        <ele>255.9</ele>
        <time>2018-07-22T12:54:59Z</time>
      </trkpt>
      <trkpt lat="44.63153" lon="0.93249">
        <ele>256.1</ele>
        <time>2018-07-22T12:55:00Z</time>
      </trkpt>
      <trkpt lat="44.63159" lon="0.93248">
        <ele>256.3</ele>
        <time>2018-07-22T12:55:01Z</time>
      </trkpt>
      <trkpt lat="44.63164" lon="0.93249">
        <ele>256.4</ele>
        <time>2018-07-22T12:55:02Z</time>
      </trkpt>
      <trkpt lat="44.63169" lon="0.93248">
        <ele>256.7</ele>
        <time>2018-07-22T12:55:03Z</time>
      </trkpt>
      <trkpt lat="44.63174" lon="0.93249">
        <ele>257</ele>
        <time>2018-07-22T12:55:04Z</time>
      </trkpt>
      <trkpt lat="44.6318" lon="0.9325">
        <ele>257.3</ele>
        <time>2018-07-22T12:55:05Z</time>
      </trkpt>
      <trkpt lat="44.63186" lon="0.93251">
        <ele>257.5</ele>
        <time>2018-07-22T12:55:06Z</time>
      </trkpt>
      <trkpt lat="44.6319" lon="0.93253">
        <ele>257.8</ele>
        <time>2018-07-22T12:55:07Z</time>
      </trkpt>
      <trkpt lat="44.63195" lon="0.93254">
        <ele>257.9</ele>
        <time>2018-07-22T12:55:08Z</time>
      </trkpt>
      <trkpt lat="44.63199" lon="0.93255">
        <ele>257.9</ele>
        <time>2018-07-22T12:55:09Z</time>
      </trkpt>
      <trkpt lat="44.63203" lon="0.93256">
        <ele>258</ele>
        <time>2018-07-22T12:55:10Z</time>
      </trkpt>
      <trkpt lat="44.63207" lon="0.93257">
        <ele>258.1</ele>
        <time>2018-07-22T12:55:11Z</time>
      </trkpt>
      <trkpt lat="44.63212" lon="0.93257">
        <ele>258.2</ele>
        <time>2018-07-22T12:55:12Z</time>
      </trkpt>
      <trkpt lat="44.63216" lon="0.93258">
        <ele>258.3</ele>
        <time>2018-07-22T12:55:13Z</time>
      </trkpt>
      <trkpt lat="44.63219" lon="0.9326">
        <ele>258.3</ele>
        <time>2018-07-22T12:55:14Z</time>
      </trkpt>
      <trkpt lat="44.63223" lon="0.93262">
        <ele>258.3</ele>
        <time>2018-07-22T12:55:15Z</time>
      </trkpt>
      <trkpt lat="44.63226" lon="0.93263">
        <ele>258.4</ele>
        <time>2018-07-22T12:55:16Z</time>
      </trkpt>
      <trkpt lat="44.63229" lon="0.93265">
        <ele>258.5</ele>
        <time>2018-07-22T12:55:17Z</time>
      </trkpt>
      <trkpt lat="44.63232" lon="0.93267">
        <ele>258.5</ele>
        <time>2018-07-22T12:55:18Z</time>
      </trkpt>
      <trkpt lat="44.63235" lon="0.93269">
        <ele>258.5</ele>
        <time>2018-07-22T12:55:19Z</time>
      </trkpt>
      <trkpt lat="44.63239" lon="0.93272">
        <ele>258.6</ele>
        <time>2018-07-22T12:55:20Z</time>
      </trkpt>
      <trkpt lat="44.63242" lon="0.93275">
        <ele>258.8</ele>
        <time>2018-07-22T12:55:21Z</time>
      </trkpt>
      <trkpt lat="44.63245" lon="0.93278">
        <ele>259</ele>
        <time>2018-07-22T12:55:22Z</time>
      </trkpt>
      <trkpt lat="44.63249" lon="0.93281">
        <ele>259.1</ele>
        <time>2018-07-22T12:55:23Z</time>
      </trkpt>
      <trkpt lat="44.63253" lon="0.93283">
        <ele>259.6</ele>
        <time>2018-07-22T12:55:24Z</time>
      </trkpt>
      <trkpt lat="44.63257" lon="0.93285">
        <ele>260.1</ele>
        <time>2018-07-22T12:55:25Z</time>
      </trkpt>
      <trkpt lat="44.63262" lon="0.93286">
        <ele>260.2</ele>
        <time>2018-07-22T12:55:26Z</time>
      </trkpt>
      <trkpt lat="44.63265" lon="0.93289">
        <ele>260.2</ele>
        <time>2018-07-22T12:55:27Z</time>
      </trkpt>
      <trkpt lat="44.63268" lon="0.93292">
        <ele>260.7</ele>
        <time>2018-07-22T12:55:28Z</time>
      </trkpt>
      <trkpt lat="44.63271" lon="0.93297">
        <ele>261.2</ele>
        <time>2018-07-22T12:55:29Z</time>
      </trkpt>
      <trkpt lat="44.63273" lon="0.93301">
        <ele>261.7</ele>
        <time>2018-07-22T12:55:30Z</time>
      </trkpt>
      <trkpt lat="44.63277" lon="0.93304">
        <ele>262.2</ele>
        <time>2018-07-22T12:55:32Z</time>
      </trkpt>
      <trkpt lat="44.6328" lon="0.93306">
        <ele>262.3</ele>
        <time>2018-07-22T12:55:33Z</time>
      </trkpt>
      <trkpt lat="44.63279" lon="0.93311">
        <ele>263.2</ele>
        <time>2018-07-22T12:55:35Z</time>
      </trkpt>
      <trkpt lat="44.63279" lon="0.93315">
        <ele>263.6</ele>
        <time>2018-07-22T12:55:36Z</time>
      </trkpt>
      <trkpt lat="44.63279" lon="0.93323">
        <ele>264.1</ele>
        <time>2018-07-22T12:55:38Z</time>
      </trkpt>
      <trkpt lat="44.63281" lon="0.93328">
        <ele>264.7</ele>
        <time>2018-07-22T12:55:39Z</time>
      </trkpt>
      <trkpt lat="44.63282" lon="0.93332">
        <ele>265.8</ele>
        <time>2018-07-22T12:55:40Z</time>
      </trkpt>
      <trkpt lat="44.63284" lon="0.93337">
        <ele>266.3</ele>
        <time>2018-07-22T12:55:41Z</time>
      </trkpt>
      <trkpt lat="44.63286" lon="0.93342">
        <ele>266.8</ele>
        <time>2018-07-22T12:55:43Z</time>
      </trkpt>
      <trkpt lat="44.63287" lon="0.93346">
        <ele>267.3</ele>
        <time>2018-07-22T12:55:44Z</time>
      </trkpt>
      <trkpt lat="44.63289" lon="0.93351">
        <ele>267.7</ele>
        <time>2018-07-22T12:55:45Z</time>
      </trkpt>
      <trkpt lat="44.6329" lon="0.93355">
        <ele>268.1</ele>
        <time>2018-07-22T12:55:46Z</time>
      </trkpt>
      <trkpt lat="44.63292" lon="0.93361">
        <ele>268.5</ele>
        <time>2018-07-22T12:55:48Z</time>
      </trkpt>
      <trkpt lat="44.63293" lon="0.93368">
        <ele>269.2</ele>
        <time>2018-07-22T12:55:50Z</time>
      </trkpt>
      <trkpt lat="44.63294" lon="0.93372">
        <ele>269.6</ele>
        <time>2018-07-22T12:55:51Z</time>
      </trkpt>
      <trkpt lat="44.63295" lon="0.93378">
        <ele>269.9</ele>
        <time>2018-07-22T12:55:53Z</time>
      </trkpt>
      <trkpt lat="44.63295" lon="0.93382">
        <ele>270.3</ele>
        <time>2018-07-22T12:55:55Z</time>
      </trkpt>
      <trkpt lat="44.63295" lon="0.93387">
        <ele>270.8</ele>
        <time>2018-07-22T12:55:56Z</time>
      </trkpt>
      <trkpt lat="44.63296" lon="0.93391">
        <ele>271.1</ele>
        <time>2018-07-22T12:55:57Z</time>
      </trkpt>
      <trkpt lat="44.63298" lon="0.93395">
        <ele>271.4</ele>
        <time>2018-07-22T12:55:58Z</time>
      </trkpt>
      <trkpt lat="44.633" lon="0.93398">
        <ele>271.6</ele>
        <time>2018-07-22T12:55:59Z</time>
      </trkpt>
      <trkpt lat="44.63302" lon="0.93402">
        <ele>271.9</ele>
        <time>2018-07-22T12:56:00Z</time>
      </trkpt>
      <trkpt lat="44.63304" lon="0.93406">
        <ele>272.1</ele>
        <time>2018-07-22T12:56:01Z</time>
      </trkpt>
      <trkpt lat="44.63306" lon="0.9341">
        <ele>272.3</ele>
        <time>2018-07-22T12:56:02Z</time>
      </trkpt>
      <trkpt lat="44.63308" lon="0.93414">
        <ele>272.6</ele>
        <time>2018-07-22T12:56:03Z</time>
      </trkpt>
      <trkpt lat="44.63311" lon="0.93418">
        <ele>272.9</ele>
        <time>2018-07-22T12:56:04Z</time>
      </trkpt>
      <trkpt lat="44.63314" lon="0.93421">
        <ele>272.8</ele>
        <time>2018-07-22T12:56:05Z</time>
      </trkpt>
      <trkpt lat="44.63316" lon="0.93423">
        <ele>273.1</ele>
        <time>2018-07-22T12:56:06Z</time>
      </trkpt>
      <trkpt lat="44.63319" lon="0.93425">
        <ele>273.1</ele>
        <time>2018-07-22T12:56:07Z</time>
      </trkpt>
      <trkpt lat="44.63321" lon="0.93427">
        <ele>273.3</ele>
        <time>2018-07-22T12:56:08Z</time>
      </trkpt>
      <trkpt lat="44.63324" lon="0.93429">
        <ele>273.3</ele>
        <time>2018-07-22T12:56:09Z</time>
      </trkpt>
      <trkpt lat="44.63327" lon="0.93431">
        <ele>273.5</ele>
        <time>2018-07-22T12:56:10Z</time>
      </trkpt>
      <trkpt lat="44.6333" lon="0.93433">
        <ele>273.5</ele>
        <time>2018-07-22T12:56:11Z</time>
      </trkpt>
      <trkpt lat="44.63333" lon="0.93435">
        <ele>273.6</ele>
        <time>2018-07-22T12:56:12Z</time>
      </trkpt>
      <trkpt lat="44.63335" lon="0.93437">
        <ele>273.8</ele>
        <time>2018-07-22T12:56:13Z</time>
      </trkpt>
      <trkpt lat="44.63338" lon="0.93439">
        <ele>273.8</ele>
        <time>2018-07-22T12:56:14Z</time>
      </trkpt>
      <trkpt lat="44.63342" lon="0.93443">
        <ele>274.1</ele>
        <time>2018-07-22T12:56:16Z</time>
      </trkpt>
      <trkpt lat="44.63344" lon="0.93446">
        <ele>274.3</ele>
        <time>2018-07-22T12:56:17Z</time>
      </trkpt>
      <trkpt lat="44.63348" lon="0.9345">
        <ele>274.6</ele>
        <time>2018-07-22T12:56:19Z</time>
      </trkpt>
      <trkpt lat="44.63352" lon="0.93455">
        <ele>274.9</ele>
        <time>2018-07-22T12:56:21Z</time>
      </trkpt>
      <trkpt lat="44.63355" lon="0.93459">
        <ele>275.1</ele>
        <time>2018-07-22T12:56:23Z</time>
      </trkpt>
      <trkpt lat="44.63358" lon="0.93463">
        <ele>275.4</ele>
        <time>2018-07-22T12:56:25Z</time>
      </trkpt>
      <trkpt lat="44.63361" lon="0.93467">
        <ele>275.7</ele>
        <time>2018-07-22T12:56:27Z</time>
      </trkpt>
      <trkpt lat="44.63364" lon="0.93471">
        <ele>275.8</ele>
        <time>2018-07-22T12:56:29Z</time>
      </trkpt>
      <trkpt lat="44.63366" lon="0.93474">
        <ele>276.1</ele>
        <time>2018-07-22T12:56:31Z</time>
      </trkpt>
      <trkpt lat="44.6337" lon="0.93477">
        <ele>276.2</ele>
        <time>2018-07-22T12:56:33Z</time>
      </trkpt>
      <trkpt lat="44.63374" lon="0.93478">
        <ele>276.3</ele>
        <time>2018-07-22T12:56:35Z</time>
      </trkpt>
      <trkpt lat="44.63379" lon="0.93477">
        <ele>276.5</ele>
        <time>2018-07-22T12:56:37Z</time>
      </trkpt>
      <trkpt lat="44.63384" lon="0.93477">
        <ele>276.5</ele>
        <time>2018-07-22T12:56:39Z</time>
      </trkpt>
      <trkpt lat="44.63389" lon="0.93477">
        <ele>276.7</ele>
        <time>2018-07-22T12:56:41Z</time>
      </trkpt>
      <trkpt lat="44.63392" lon="0.93476">
        <ele>276.8</ele>
        <time>2018-07-22T12:56:43Z</time>
      </trkpt>
      <trkpt lat="44.63395" lon="0.93475">
        <ele>276.9</ele>
        <time>2018-07-22T12:56:45Z</time>
      </trkpt>
      <trkpt lat="44.63399" lon="0.93474">
        <ele>276.8</ele>
        <time>2018-07-22T12:56:46Z</time>
      </trkpt>
      <trkpt lat="44.63402" lon="0.93473">
        <ele>276.9</ele>
        <time>2018-07-22T12:56:47Z</time>
      </trkpt>
      <trkpt lat="44.63404" lon="0.93473">
        <ele>277</ele>
        <time>2018-07-22T12:56:48Z</time>
      </trkpt>
      <trkpt lat="44.63409" lon="0.93474">
        <ele>277.3</ele>
        <time>2018-07-22T12:56:50Z</time>
      </trkpt>
      <trkpt lat="44.63413" lon="0.93477">
        <ele>277.5</ele>
        <time>2018-07-22T12:56:52Z</time>
      </trkpt>
      <trkpt lat="44.63416" lon="0.93478">
        <ele>277.7</ele>
        <time>2018-07-22T12:56:53Z</time>
      </trkpt>
      <trkpt lat="44.63418" lon="0.93481">
        <ele>277.7</ele>
        <time>2018-07-22T12:56:54Z</time>
      </trkpt>
      <trkpt lat="44.63421" lon="0.93483">
        <ele>278</ele>
        <time>2018-07-22T12:56:55Z</time>
      </trkpt>
      <trkpt lat="44.63425" lon="0.93484">
        <ele>278.2</ele>
        <time>2018-07-22T12:56:56Z</time>
      </trkpt>
      <trkpt lat="44.63428" lon="0.93485">
        <ele>278.4</ele>
        <time>2018-07-22T12:56:57Z</time>
      </trkpt>
      <trkpt lat="44.63431" lon="0.93485">
        <ele>278.5</ele>
        <time>2018-07-22T12:56:58Z</time>
      </trkpt>
      <trkpt lat="44.63434" lon="0.93485">
        <ele>278.6</ele>
        <time>2018-07-22T12:56:59Z</time>
      </trkpt>
      <trkpt lat="44.63437" lon="0.93484">
        <ele>278.7</ele>
        <time>2018-07-22T12:57:00Z</time>
      </trkpt>
      <trkpt lat="44.6344" lon="0.93483">
        <ele>278.7</ele>
        <time>2018-07-22T12:57:01Z</time>
      </trkpt>
      <trkpt lat="44.63442" lon="0.93482">
        <ele>278.6</ele>
        <time>2018-07-22T12:57:02Z</time>
      </trkpt>
      <trkpt lat="44.63445" lon="0.9348">
        <ele>278.8</ele>
        <time>2018-07-22T12:57:03Z</time>
      </trkpt>
      <trkpt lat="44.63449" lon="0.93478">
        <ele>278.7</ele>
        <time>2018-07-22T12:57:04Z</time>
      </trkpt>
      <trkpt lat="44.63452" lon="0.93476">
        <ele>278.8</ele>
        <time>2018-07-22T12:57:05Z</time>
      </trkpt>
      <trkpt lat="44.63455" lon="0.93475">
        <ele>278.9</ele>
        <time>2018-07-22T12:57:06Z</time>
      </trkpt>
      <trkpt lat="44.63458" lon="0.93474">
        <ele>279</ele>
        <time>2018-07-22T12:57:07Z</time>
      </trkpt>
      <trkpt lat="44.63461" lon="0.93473">
        <ele>279.1</ele>
        <time>2018-07-22T12:57:08Z</time>
      </trkpt>
      <trkpt lat="44.63465" lon="0.93473">
        <ele>279.2</ele>
        <time>2018-07-22T12:57:09Z</time>
      </trkpt>
      <trkpt lat="44.63468" lon="0.93472">
        <ele>279.2</ele>
        <time>2018-07-22T12:57:10Z</time>
      </trkpt>
      <trkpt lat="44.63471" lon="0.93471">
        <ele>279.3</ele>
        <time>2018-07-22T12:57:11Z</time>
      </trkpt>
      <trkpt lat="44.63474" lon="0.93469">
        <ele>279.2</ele>
        <time>2018-07-22T12:57:12Z</time>
      </trkpt>
      <trkpt lat="44.63478" lon="0.93468">
        <ele>279.3</ele>
        <time>2018-07-22T12:57:13Z</time>
      </trkpt>
      <trkpt lat="44.63481" lon="0.93467">
        <ele>279.4</ele>
        <time>2018-07-22T12:57:14Z</time>
      </trkpt>
      <trkpt lat="44.63484" lon="0.93466">
        <ele>279.4</ele>
        <time>2018-07-22T12:57:15Z</time>
      </trkpt>
      <trkpt lat="44.63487" lon="0.93465">
        <ele>279.4</ele>
        <time>2018-07-22T12:57:16Z</time>
      </trkpt>
      <trkpt lat="44.6349" lon="0.93465">
        <ele>279.3</ele>
        <time>2018-07-22T12:57:17Z</time>
      </trkpt>
      <trkpt lat="44.63493" lon="0.93465">
        <ele>279.3</ele>
        <time>2018-07-22T12:57:18Z</time>
      </trkpt>
      <trkpt lat="44.63496" lon="0.93465">
        <ele>279.3</ele>
        <time>2018-07-22T12:57:19Z</time>
      </trkpt>
      <trkpt lat="44.63499" lon="0.93465">
        <ele>279.4</ele>
        <time>2018-07-22T12:57:20Z</time>
      </trkpt>
      <trkpt lat="44.63503" lon="0.93465">
        <ele>279.4</ele>
        <time>2018-07-22T12:57:21Z</time>
      </trkpt>
      <trkpt lat="44.63506" lon="0.93464">
        <ele>279.3</ele>
        <time>2018-07-22T12:57:22Z</time>
      </trkpt>
      <trkpt lat="44.6351" lon="0.93463">
        <ele>279.3</ele>
        <time>2018-07-22T12:57:23Z</time>
      </trkpt>
      <trkpt lat="44.63514" lon="0.93462">
        <ele>279.3</ele>
        <time>2018-07-22T12:57:24Z</time>
      </trkpt>
      <trkpt lat="44.63519" lon="0.93461">
        <ele>279.2</ele>
        <time>2018-07-22T12:57:25Z</time>
      </trkpt>
      <trkpt lat="44.63526" lon="0.93458">
        <ele>279</ele>
        <time>2018-07-22T12:57:26Z</time>
      </trkpt>
      <trkpt lat="44.63531" lon="0.93459">
        <ele>279</ele>
        <time>2018-07-22T12:57:27Z</time>
      </trkpt>
      <trkpt lat="44.63535" lon="0.9346">
        <ele>278.9</ele>
        <time>2018-07-22T12:57:28Z</time>
      </trkpt>
      <trkpt lat="44.6354" lon="0.93459">
        <ele>278.9</ele>
        <time>2018-07-22T12:57:29Z</time>
      </trkpt>
      <trkpt lat="44.63545" lon="0.93461">
        <ele>278.8</ele>
        <time>2018-07-22T12:57:30Z</time>
      </trkpt>
      <trkpt lat="44.6355" lon="0.93461">
        <ele>278.7</ele>
        <time>2018-07-22T12:57:31Z</time>
      </trkpt>
      <trkpt lat="44.63555" lon="0.9346">
        <ele>278.7</ele>
        <time>2018-07-22T12:57:32Z</time>
      </trkpt>
      <trkpt lat="44.6356" lon="0.93458">
        <ele>278.6</ele>
        <time>2018-07-22T12:57:33Z</time>
      </trkpt>
      <trkpt lat="44.63565" lon="0.93455">
        <ele>278.7</ele>
        <time>2018-07-22T12:57:34Z</time>
      </trkpt>
      <trkpt lat="44.6357" lon="0.93445">
        <ele>278.9</ele>
        <time>2018-07-22T12:57:35Z</time>
      </trkpt>
      <trkpt lat="44.63573" lon="0.93443">
        <ele>278.9</ele>
        <time>2018-07-22T12:57:36Z</time>
      </trkpt>
      <trkpt lat="44.63577" lon="0.93438">
        <ele>279</ele>
        <time>2018-07-22T12:57:37Z</time>
      </trkpt>
      <trkpt lat="44.63581" lon="0.93436">
        <ele>279</ele>
        <time>2018-07-22T12:57:38Z</time>
      </trkpt>
      <trkpt lat="44.63584" lon="0.93433">
        <ele>279.1</ele>
        <time>2018-07-22T12:57:39Z</time>
      </trkpt>
      <trkpt lat="44.63587" lon="0.93431">
        <ele>279.1</ele>
        <time>2018-07-22T12:57:40Z</time>
      </trkpt>
      <trkpt lat="44.63591" lon="0.93426">
        <ele>279.3</ele>
        <time>2018-07-22T12:57:41Z</time>
      </trkpt>
      <trkpt lat="44.63593" lon="0.93421">
        <ele>279.4</ele>
        <time>2018-07-22T12:57:42Z</time>
      </trkpt>
      <trkpt lat="44.63595" lon="0.93417">
        <ele>279.5</ele>
        <time>2018-07-22T12:57:43Z</time>
      </trkpt>
      <trkpt lat="44.63598" lon="0.93412">
        <ele>279.5</ele>
        <time>2018-07-22T12:57:45Z</time>
      </trkpt>
      <trkpt lat="44.63602" lon="0.93409">
        <ele>279.6</ele>
        <time>2018-07-22T12:57:47Z</time>
      </trkpt>
      <trkpt lat="44.63605" lon="0.93406">
        <ele>279.6</ele>
        <time>2018-07-22T12:57:48Z</time>
      </trkpt>
      <trkpt lat="44.63608" lon="0.93406">
        <ele>279.6</ele>
        <time>2018-07-22T12:57:49Z</time>
      </trkpt>
      <trkpt lat="44.63611" lon="0.93406">
        <ele>279.6</ele>
        <time>2018-07-22T12:57:50Z</time>
      </trkpt>
      <trkpt lat="44.63615" lon="0.93406">
        <ele>279.6</ele>
        <time>2018-07-22T12:57:51Z</time>
      </trkpt>
      <trkpt lat="44.63619" lon="0.93406">
        <ele>279.6</ele>
        <time>2018-07-22T12:57:52Z</time>
      </trkpt>
      <trkpt lat="44.63621" lon="0.93407">
        <ele>279.6</ele>
        <time>2018-07-22T12:57:53Z</time>
      </trkpt>
      <trkpt lat="44.63624" lon="0.93408">
        <ele>279.6</ele>
        <time>2018-07-22T12:57:54Z</time>
      </trkpt>
      <trkpt lat="44.63628" lon="0.9341">
        <ele>279.4</ele>
        <time>2018-07-22T12:57:55Z</time>
      </trkpt>
      <trkpt lat="44.63631" lon="0.93413">
        <ele>279.4</ele>
        <time>2018-07-22T12:57:56Z</time>
      </trkpt>
      <trkpt lat="44.63634" lon="0.93415">
        <ele>279.3</ele>
        <time>2018-07-22T12:57:57Z</time>
      </trkpt>
      <trkpt lat="44.63638" lon="0.93416">
        <ele>279.3</ele>
        <time>2018-07-22T12:57:59Z</time>
      </trkpt>
      <trkpt lat="44.63641" lon="0.93418">
        <ele>279.1</ele>
        <time>2018-07-22T12:58:01Z</time>
      </trkpt>
      <trkpt lat="44.63645" lon="0.93421">
        <ele>279.1</ele>
        <time>2018-07-22T12:58:02Z</time>
      </trkpt>
      <trkpt lat="44.63648" lon="0.93423">
        <ele>278.9</ele>
        <time>2018-07-22T12:58:03Z</time>
      </trkpt>
      <trkpt lat="44.63652" lon="0.93424">
        <ele>278.9</ele>
        <time>2018-07-22T12:58:04Z</time>
      </trkpt>
      <trkpt lat="44.63655" lon="0.93425">
        <ele>278.9</ele>
        <time>2018-07-22T12:58:05Z</time>
      </trkpt>
      <trkpt lat="44.63659" lon="0.93425">
        <ele>278.9</ele>
        <time>2018-07-22T12:58:06Z</time>
      </trkpt>
      <trkpt lat="44.63662" lon="0.93424">
        <ele>278.9</ele>
        <time>2018-07-22T12:58:07Z</time>
      </trkpt>
      <trkpt lat="44.63666" lon="0.93423">
        <ele>278.9</ele>
        <time>2018-07-22T12:58:08Z</time>
      </trkpt>
      <trkpt lat="44.6367" lon="0.93421">
        <ele>279</ele>
        <time>2018-07-22T12:58:09Z</time>
      </trkpt>
      <trkpt lat="44.63674" lon="0.93419">
        <ele>279</ele>
        <time>2018-07-22T12:58:10Z</time>
      </trkpt>
      <trkpt lat="44.63679" lon="0.93418">
        <ele>279.2</ele>
        <time>2018-07-22T12:58:11Z</time>
      </trkpt>
      <trkpt lat="44.63683" lon="0.93417">
        <ele>279.1</ele>
        <time>2018-07-22T12:58:12Z</time>
      </trkpt>
      <trkpt lat="44.63688" lon="0.93416">
        <ele>279.1</ele>
        <time>2018-07-22T12:58:13Z</time>
      </trkpt>
      <trkpt lat="44.63693" lon="0.93417">
        <ele>279.1</ele>
        <time>2018-07-22T12:58:14Z</time>
      </trkpt>
      <trkpt lat="44.63703" lon="0.93422">
        <ele>278.9</ele>
        <time>2018-07-22T12:58:15Z</time>
      </trkpt>
      <trkpt lat="44.63707" lon="0.93426">
        <ele>278.7</ele>
        <time>2018-07-22T12:58:16Z</time>
      </trkpt>
      <trkpt lat="44.63713" lon="0.93431">
        <ele>278.5</ele>
        <time>2018-07-22T12:58:17Z</time>
      </trkpt>
      <trkpt lat="44.63718" lon="0.93434">
        <ele>278.5</ele>
        <time>2018-07-22T12:58:18Z</time>
      </trkpt>
      <trkpt lat="44.63724" lon="0.93439">
        <ele>278.4</ele>
        <time>2018-07-22T12:58:19Z</time>
      </trkpt>
      <trkpt lat="44.63728" lon="0.93443">
        <ele>278.2</ele>
        <time>2018-07-22T12:58:20Z</time>
      </trkpt>
      <trkpt lat="44.63731" lon="0.93445">
        <ele>278.2</ele>
        <time>2018-07-22T12:58:21Z</time>
      </trkpt>
      <trkpt lat="44.63733" lon="0.93451">
        <ele>278.1</ele>
        <time>2018-07-22T12:58:22Z</time>
      </trkpt>
      <trkpt lat="44.63733" lon="0.93457">
        <ele>278</ele>
        <time>2018-07-22T12:58:23Z</time>
      </trkpt>
      <trkpt lat="44.63735" lon="0.93464">
        <ele>277.9</ele>
        <time>2018-07-22T12:58:24Z</time>
      </trkpt>
      <trkpt lat="44.63736" lon="0.93468">
        <ele>277.8</ele>
        <time>2018-07-22T12:58:25Z</time>
      </trkpt>
      <trkpt lat="44.63738" lon="0.93473">
        <ele>277.8</ele>
        <time>2018-07-22T12:58:26Z</time>
      </trkpt>
      <trkpt lat="44.6374" lon="0.93476">
        <ele>277.7</ele>
        <time>2018-07-22T12:58:27Z</time>
      </trkpt>
      <trkpt lat="44.63744" lon="0.93483">
        <ele>277.6</ele>
        <time>2018-07-22T12:58:28Z</time>
      </trkpt>
      <trkpt lat="44.63747" lon="0.93489">
        <ele>277.5</ele>
        <time>2018-07-22T12:58:30Z</time>
      </trkpt>
      <trkpt lat="44.63748" lon="0.93493">
        <ele>277.4</ele>
        <time>2018-07-22T12:58:31Z</time>
      </trkpt>
      <trkpt lat="44.6375" lon="0.93497">
        <ele>277.3</ele>
        <time>2018-07-22T12:58:32Z</time>
      </trkpt>
      <trkpt lat="44.63751" lon="0.93501">
        <ele>277.2</ele>
        <time>2018-07-22T12:58:33Z</time>
      </trkpt>
      <trkpt lat="44.63753" lon="0.93507">
        <ele>277.2</ele>
        <time>2018-07-22T12:58:34Z</time>
      </trkpt>
      <trkpt lat="44.63754" lon="0.93512">
        <ele>277.1</ele>
        <time>2018-07-22T12:58:35Z</time>
      </trkpt>
      <trkpt lat="44.63755" lon="0.93519">
        <ele>276.9</ele>
        <time>2018-07-22T12:58:36Z</time>
      </trkpt>
      <trkpt lat="44.63758" lon="0.93527">
        <ele>276.7</ele>
        <time>2018-07-22T12:58:37Z</time>
      </trkpt>
      <trkpt lat="44.6376" lon="0.93534">
        <ele>276.6</ele>
        <time>2018-07-22T12:58:38Z</time>
      </trkpt>
      <trkpt lat="44.63767" lon="0.93549">
        <ele>276.1</ele>
        <time>2018-07-22T12:58:39Z</time>
      </trkpt>
      <trkpt lat="44.63769" lon="0.93558">
        <ele>275.8</ele>
        <time>2018-07-22T12:58:40Z</time>
      </trkpt>
      <trkpt lat="44.63771" lon="0.93565">
        <ele>275.5</ele>
        <time>2018-07-22T12:58:41Z</time>
      </trkpt>
      <trkpt lat="44.63773" lon="0.93571">
        <ele>275.4</ele>
        <time>2018-07-22T12:58:42Z</time>
      </trkpt>
      <trkpt lat="44.63769" lon="0.93583">
        <ele>275.2</ele>
        <time>2018-07-22T12:58:43Z</time>
      </trkpt>
      <trkpt lat="44.63769" lon="0.93589">
        <ele>275.1</ele>
        <time>2018-07-22T12:58:44Z</time>
      </trkpt>
      <trkpt lat="44.63768" lon="0.93596">
        <ele>274.8</ele>
        <time>2018-07-22T12:58:45Z</time>
      </trkpt>
      <trkpt lat="44.63767" lon="0.93601">
        <ele>274.7</ele>
        <time>2018-07-22T12:58:46Z</time>
      </trkpt>
      <trkpt lat="44.63768" lon="0.93607">
        <ele>274.4</ele>
        <time>2018-07-22T12:58:47Z</time>
      </trkpt>
      <trkpt lat="44.6377" lon="0.93612">
        <ele>274.2</ele>
        <time>2018-07-22T12:58:48Z</time>
      </trkpt>
      <trkpt lat="44.63773" lon="0.93619">
        <ele>274</ele>
        <time>2018-07-22T12:58:49Z</time>
      </trkpt>
      <trkpt lat="44.63775" lon="0.93624">
        <ele>273.9</ele>
        <time>2018-07-22T12:58:50Z</time>
      </trkpt>
      <trkpt lat="44.63778" lon="0.93632">
        <ele>273.6</ele>
        <time>2018-07-22T12:58:51Z</time>
      </trkpt>
      <trkpt lat="44.6378" lon="0.9364">
        <ele>273.4</ele>
        <time>2018-07-22T12:58:52Z</time>
      </trkpt>
      <trkpt lat="44.63781" lon="0.93647">
        <ele>273.2</ele>
        <time>2018-07-22T12:58:53Z</time>
      </trkpt>
      <trkpt lat="44.63781" lon="0.93654">
        <ele>273.1</ele>
        <time>2018-07-22T12:58:54Z</time>
      </trkpt>
      <trkpt lat="44.63782" lon="0.93667">
        <ele>272.9</ele>
        <time>2018-07-22T12:58:55Z</time>
      </trkpt>
      <trkpt lat="44.63783" lon="0.93673">
        <ele>272.8</ele>
        <time>2018-07-22T12:58:56Z</time>
      </trkpt>
      <trkpt lat="44.63783" lon="0.93679">
        <ele>272.8</ele>
        <time>2018-07-22T12:58:57Z</time>
      </trkpt>
      <trkpt lat="44.63789" lon="0.93684">
        <ele>272.8</ele>
        <time>2018-07-22T12:58:58Z</time>
      </trkpt>
      <trkpt lat="44.63793" lon="0.93688">
        <ele>272.8</ele>
        <time>2018-07-22T12:58:59Z</time>
      </trkpt>
      <trkpt lat="44.63796" lon="0.9369">
        <ele>272.9</ele>
        <time>2018-07-22T12:59:00Z</time>
      </trkpt>
      <trkpt lat="44.638" lon="0.93693">
        <ele>272.9</ele>
        <time>2018-07-22T12:59:01Z</time>
      </trkpt>
      <trkpt lat="44.63806" lon="0.93694">
        <ele>273</ele>
        <time>2018-07-22T12:59:02Z</time>
      </trkpt>
      <trkpt lat="44.63809" lon="0.93696">
        <ele>273</ele>
        <time>2018-07-22T12:59:03Z</time>
      </trkpt>
      <trkpt lat="44.63815" lon="0.93699">
        <ele>273.1</ele>
        <time>2018-07-22T12:59:04Z</time>
      </trkpt>
      <trkpt lat="44.6382" lon="0.93699">
        <ele>273.1</ele>
        <time>2018-07-22T12:59:05Z</time>
      </trkpt>
      <trkpt lat="44.63825" lon="0.93699">
        <ele>273.1</ele>
        <time>2018-07-22T12:59:06Z</time>
      </trkpt>
      <trkpt lat="44.63828" lon="0.93699">
        <ele>273.2</ele>
        <time>2018-07-22T12:59:07Z</time>
      </trkpt>
      <trkpt lat="44.63831" lon="0.93698">
        <ele>273.2</ele>
        <time>2018-07-22T12:59:08Z</time>
      </trkpt>
      <trkpt lat="44.63835" lon="0.93698">
        <ele>273.2</ele>
        <time>2018-07-22T12:59:09Z</time>
      </trkpt>
      <trkpt lat="44.63839" lon="0.93699">
        <ele>273.2</ele>
        <time>2018-07-22T12:59:10Z</time>
      </trkpt>
      <trkpt lat="44.63841" lon="0.93713">
        <ele>273.1</ele>
        <time>2018-07-22T12:59:11Z</time>
      </trkpt>
      <trkpt lat="44.63847" lon="0.93722">
        <ele>272.9</ele>
        <time>2018-07-22T12:59:13Z</time>
      </trkpt>
      <trkpt lat="44.63852" lon="0.93729">
        <ele>272.8</ele>
        <time>2018-07-22T12:59:14Z</time>
      </trkpt>
      <trkpt lat="44.63859" lon="0.93738">
        <ele>272.6</ele>
        <time>2018-07-22T12:59:15Z</time>
      </trkpt>
      <trkpt lat="44.63862" lon="0.93745">
        <ele>272.4</ele>
        <time>2018-07-22T12:59:16Z</time>
      </trkpt>
      <trkpt lat="44.63865" lon="0.93751">
        <ele>272.3</ele>
        <time>2018-07-22T12:59:17Z</time>
      </trkpt>
      <trkpt lat="44.63868" lon="0.93758">
        <ele>272.1</ele>
        <time>2018-07-22T12:59:18Z</time>
      </trkpt>
      <trkpt lat="44.63872" lon="0.93764">
        <ele>272</ele>
        <time>2018-07-22T12:59:19Z</time>
      </trkpt>
      <trkpt lat="44.63875" lon="0.93771">
        <ele>271.9</ele>
        <time>2018-07-22T12:59:20Z</time>
      </trkpt>
      <trkpt lat="44.63877" lon="0.93775">
        <ele>271.9</ele>
        <time>2018-07-22T12:59:21Z</time>
      </trkpt>
      <trkpt lat="44.63878" lon="0.9378">
        <ele>271.8</ele>
        <time>2018-07-22T12:59:22Z</time>
      </trkpt>
      <trkpt lat="44.6388" lon="0.93787">
        <ele>271.7</ele>
        <time>2018-07-22T12:59:23Z</time>
      </trkpt>
      <trkpt lat="44.63883" lon="0.93797">
        <ele>271.6</ele>
        <time>2018-07-22T12:59:24Z</time>
      </trkpt>
      <trkpt lat="44.63884" lon="0.93802">
        <ele>271.6</ele>
        <time>2018-07-22T12:59:25Z</time>
      </trkpt>
      <trkpt lat="44.6389" lon="0.93803">
        <ele>271.6</ele>
        <time>2018-07-22T12:59:27Z</time>
      </trkpt>
      <trkpt lat="44.63893" lon="0.93802">
        <ele>271.6</ele>
        <time>2018-07-22T12:59:28Z</time>
      </trkpt>
      <trkpt lat="44.63899" lon="0.93798">
        <ele>271.6</ele>
        <time>2018-07-22T12:59:29Z</time>
      </trkpt>
      <trkpt lat="44.63904" lon="0.93795">
        <ele>271.6</ele>
        <time>2018-07-22T12:59:30Z</time>
      </trkpt>
      <trkpt lat="44.63908" lon="0.9379">
        <ele>271.6</ele>
        <time>2018-07-22T12:59:31Z</time>
      </trkpt>
      <trkpt lat="44.63911" lon="0.93785">
        <ele>271.7</ele>
        <time>2018-07-22T12:59:32Z</time>
      </trkpt>
      <trkpt lat="44.63913" lon="0.93783">
        <ele>271.8</ele>
        <time>2018-07-22T12:59:33Z</time>
      </trkpt>
      <trkpt lat="44.63918" lon="0.9378">
        <ele>271.8</ele>
        <time>2018-07-22T12:59:34Z</time>
      </trkpt>
      <trkpt lat="44.63923" lon="0.93781">
        <ele>271.9</ele>
        <time>2018-07-22T12:59:35Z</time>
      </trkpt>
      <trkpt lat="44.63928" lon="0.93784">
        <ele>271.9</ele>
        <time>2018-07-22T12:59:36Z</time>
      </trkpt>
      <trkpt lat="44.63933" lon="0.93787">
        <ele>272.1</ele>
        <time>2018-07-22T12:59:37Z</time>
      </trkpt>
      <trkpt lat="44.63936" lon="0.93793">
        <ele>272</ele>
        <time>2018-07-22T12:59:38Z</time>
      </trkpt>
      <trkpt lat="44.63938" lon="0.93799">
        <ele>272</ele>
        <time>2018-07-22T12:59:39Z</time>
      </trkpt>
      <trkpt lat="44.63942" lon="0.93805">
        <ele>271.9</ele>
        <time>2018-07-22T12:59:40Z</time>
      </trkpt>
      <trkpt lat="44.63944" lon="0.93808">
        <ele>271.9</ele>
        <time>2018-07-22T12:59:41Z</time>
      </trkpt>
      <trkpt lat="44.63946" lon="0.93813">
        <ele>271.8</ele>
        <time>2018-07-22T12:59:42Z</time>
      </trkpt>
      <trkpt lat="44.63948" lon="0.93819">
        <ele>271.8</ele>
        <time>2018-07-22T12:59:43Z</time>
      </trkpt>
      <trkpt lat="44.63951" lon="0.93826">
        <ele>271.7</ele>
        <time>2018-07-22T12:59:44Z</time>
      </trkpt>
      <trkpt lat="44.63954" lon="0.93829">
        <ele>271.7</ele>
        <time>2018-07-22T12:59:45Z</time>
      </trkpt>
      <trkpt lat="44.63956" lon="0.93833">
        <ele>271.6</ele>
        <time>2018-07-22T12:59:46Z</time>
      </trkpt>
      <trkpt lat="44.63956" lon="0.93837">
        <ele>271.5</ele>
        <time>2018-07-22T12:59:47Z</time>
      </trkpt>
      <trkpt lat="44.63959" lon="0.93845">
        <ele>271.4</ele>
        <time>2018-07-22T12:59:48Z</time>
      </trkpt>
      <trkpt lat="44.63961" lon="0.93851">
        <ele>271.4</ele>
        <time>2018-07-22T12:59:49Z</time>
      </trkpt>
      <trkpt lat="44.63963" lon="0.93856">
        <ele>271.3</ele>
        <time>2018-07-22T12:59:50Z</time>
      </trkpt>
      <trkpt lat="44.63964" lon="0.93861">
        <ele>271.3</ele>
        <time>2018-07-22T12:59:51Z</time>
      </trkpt>
      <trkpt lat="44.63965" lon="0.93866">
        <ele>271.2</ele>
        <time>2018-07-22T12:59:52Z</time>
      </trkpt>
      <trkpt lat="44.63965" lon="0.93871">
        <ele>271.2</ele>
        <time>2018-07-22T12:59:53Z</time>
      </trkpt>
      <trkpt lat="44.63966" lon="0.93876">
        <ele>271.2</ele>
        <time>2018-07-22T12:59:54Z</time>
      </trkpt>
      <trkpt lat="44.63968" lon="0.93881">
        <ele>271.2</ele>
        <time>2018-07-22T12:59:55Z</time>
      </trkpt>
      <trkpt lat="44.63969" lon="0.93886">
        <ele>271.2</ele>
        <time>2018-07-22T12:59:56Z</time>
      </trkpt>
      <trkpt lat="44.63971" lon="0.9389">
        <ele>271.2</ele>
        <time>2018-07-22T12:59:57Z</time>
      </trkpt>
      <trkpt lat="44.63972" lon="0.93897">
        <ele>271.2</ele>
        <time>2018-07-22T12:59:59Z</time>
      </trkpt>
      <trkpt lat="44.63974" lon="0.93901">
        <ele>271.2</ele>
        <time>2018-07-22T13:00:00Z</time>
      </trkpt>
      <trkpt lat="44.63975" lon="0.93906">
        <ele>271.2</ele>
        <time>2018-07-22T13:00:01Z</time>
      </trkpt>
      <trkpt lat="44.63976" lon="0.93911">
        <ele>271.2</ele>
        <time>2018-07-22T13:00:02Z</time>
      </trkpt>
      <trkpt lat="44.63976" lon="0.93916">
        <ele>271.1</ele>
        <time>2018-07-22T13:00:03Z</time>
      </trkpt>
      <trkpt lat="44.63975" lon="0.93922">
        <ele>271.1</ele>
        <time>2018-07-22T13:00:04Z</time>
      </trkpt>
      <trkpt lat="44.63973" lon="0.93928">
        <ele>271.1</ele>
        <time>2018-07-22T13:00:05Z</time>
      </trkpt>
      <trkpt lat="44.63971" lon="0.93938">
        <ele>271</ele>
        <time>2018-07-22T13:00:06Z</time>
      </trkpt>
      <trkpt lat="44.63968" lon="0.93943">
        <ele>271</ele>
        <time>2018-07-22T13:00:07Z</time>
      </trkpt>
      <trkpt lat="44.63965" lon="0.93948">
        <ele>271</ele>
        <time>2018-07-22T13:00:08Z</time>
      </trkpt>
      <trkpt lat="44.63963" lon="0.93953">
        <ele>270.9</ele>
        <time>2018-07-22T13:00:09Z</time>
      </trkpt>
      <trkpt lat="44.6396" lon="0.93957">
        <ele>270.9</ele>
        <time>2018-07-22T13:00:10Z</time>
      </trkpt>
      <trkpt lat="44.63958" lon="0.93961">
        <ele>270.9</ele>
        <time>2018-07-22T13:00:11Z</time>
      </trkpt>
      <trkpt lat="44.63956" lon="0.93967">
        <ele>270.9</ele>
        <time>2018-07-22T13:00:12Z</time>
      </trkpt>
      <trkpt lat="44.63956" lon="0.93972">
        <ele>270.9</ele>
        <time>2018-07-22T13:00:13Z</time>
      </trkpt>
      <trkpt lat="44.63955" lon="0.93978">
        <ele>270.8</ele>
        <time>2018-07-22T13:00:14Z</time>
      </trkpt>
      <trkpt lat="44.63956" lon="0.93984">
        <ele>270.7</ele>
        <time>2018-07-22T13:00:15Z</time>
      </trkpt>
      <trkpt lat="44.63957" lon="0.93991">
        <ele>270.6</ele>
        <time>2018-07-22T13:00:16Z</time>
      </trkpt>
      <trkpt lat="44.63957" lon="0.93996">
        <ele>270.5</ele>
        <time>2018-07-22T13:00:17Z</time>
      </trkpt>
      <trkpt lat="44.63959" lon="0.94001">
        <ele>270.3</ele>
        <time>2018-07-22T13:00:18Z</time>
      </trkpt>
      <trkpt lat="44.6396" lon="0.94005">
        <ele>270.1</ele>
        <time>2018-07-22T13:00:19Z</time>
      </trkpt>
      <trkpt lat="44.63962" lon="0.9401">
        <ele>270</ele>
        <time>2018-07-22T13:00:20Z</time>
      </trkpt>
      <trkpt lat="44.63964" lon="0.94015">
        <ele>269.6</ele>
        <time>2018-07-22T13:00:21Z</time>
      </trkpt>
      <trkpt lat="44.63965" lon="0.94021">
        <ele>269.4</ele>
        <time>2018-07-22T13:00:22Z</time>
      </trkpt>
      <trkpt lat="44.63964" lon="0.94029">
        <ele>269</ele>
        <time>2018-07-22T13:00:23Z</time>
      </trkpt>
      <trkpt lat="44.63965" lon="0.94036">
        <ele>268.8</ele>
        <time>2018-07-22T13:00:24Z</time>
      </trkpt>
      <trkpt lat="44.63966" lon="0.94043">
        <ele>268.3</ele>
        <time>2018-07-22T13:00:25Z</time>
      </trkpt>
      <trkpt lat="44.63967" lon="0.94049">
        <ele>267.9</ele>
        <time>2018-07-22T13:00:26Z</time>
      </trkpt>
      <trkpt lat="44.6397" lon="0.94058">
        <ele>267.5</ele>
        <time>2018-07-22T13:00:27Z</time>
      </trkpt>
      <trkpt lat="44.63971" lon="0.94065">
        <ele>267.3</ele>
        <time>2018-07-22T13:00:28Z</time>
      </trkpt>
      <trkpt lat="44.63971" lon="0.94073">
        <ele>266.9</ele>
        <time>2018-07-22T13:00:29Z</time>
      </trkpt>
      <trkpt lat="44.6397" lon="0.9408">
        <ele>266.6</ele>
        <time>2018-07-22T13:00:30Z</time>
      </trkpt>
      <trkpt lat="44.6397" lon="0.94087">
        <ele>266.5</ele>
        <time>2018-07-22T13:00:31Z</time>
      </trkpt>
      <trkpt lat="44.63971" lon="0.94092">
        <ele>266.1</ele>
        <time>2018-07-22T13:00:32Z</time>
      </trkpt>
      <trkpt lat="44.63974" lon="0.94098">
        <ele>266</ele>
        <time>2018-07-22T13:00:33Z</time>
      </trkpt>
      <trkpt lat="44.63978" lon="0.94103">
        <ele>265.8</ele>
        <time>2018-07-22T13:00:34Z</time>
      </trkpt>
      <trkpt lat="44.63981" lon="0.94108">
        <ele>265.7</ele>
        <time>2018-07-22T13:00:35Z</time>
      </trkpt>
      <trkpt lat="44.63983" lon="0.9411">
        <ele>265.5</ele>
        <time>2018-07-22T13:00:36Z</time>
      </trkpt>
      <trkpt lat="44.63986" lon="0.94113">
        <ele>265.5</ele>
        <time>2018-07-22T13:00:37Z</time>
      </trkpt>
      <trkpt lat="44.63989" lon="0.94117">
        <ele>265.4</ele>
        <time>2018-07-22T13:00:38Z</time>
      </trkpt>
      <trkpt lat="44.63991" lon="0.94122">
        <ele>265.1</ele>
        <time>2018-07-22T13:00:39Z</time>
      </trkpt>
      <trkpt lat="44.63992" lon="0.94128">
        <ele>264.9</ele>
        <time>2018-07-22T13:00:40Z</time>
      </trkpt>
      <trkpt lat="44.63993" lon="0.94132">
        <ele>264.7</ele>
        <time>2018-07-22T13:00:42Z</time>
      </trkpt>
      <trkpt lat="44.63993" lon="0.94136">
        <ele>264.6</ele>
        <time>2018-07-22T13:00:45Z</time>
      </trkpt>
      <trkpt lat="44.63992" lon="0.9414">
        <ele>264.4</ele>
        <time>2018-07-22T13:00:47Z</time>
      </trkpt>
      <trkpt lat="44.63994" lon="0.94145">
        <ele>264.2</ele>
        <time>2018-07-22T13:00:49Z</time>
      </trkpt>
      <trkpt lat="44.63996" lon="0.94151">
        <ele>264.1</ele>
        <time>2018-07-22T13:00:51Z</time>
      </trkpt>
      <trkpt lat="44.63996" lon="0.94159">
        <ele>263.8</ele>
        <time>2018-07-22T13:00:53Z</time>
      </trkpt>
      <trkpt lat="44.63995" lon="0.94165">
        <ele>263.6</ele>
        <time>2018-07-22T13:00:54Z</time>
      </trkpt>
      <trkpt lat="44.63994" lon="0.94171">
        <ele>263.5</ele>
        <time>2018-07-22T13:00:55Z</time>
      </trkpt>
      <trkpt lat="44.63993" lon="0.94183">
        <ele>263.3</ele>
        <time>2018-07-22T13:00:56Z</time>
      </trkpt>
      <trkpt lat="44.63992" lon="0.9419">
        <ele>263.3</ele>
        <time>2018-07-22T13:00:57Z</time>
      </trkpt>
      <trkpt lat="44.63991" lon="0.94194">
        <ele>263.2</ele>
        <time>2018-07-22T13:00:58Z</time>
      </trkpt>
      <trkpt lat="44.63988" lon="0.94199">
        <ele>263.2</ele>
        <time>2018-07-22T13:00:59Z</time>
      </trkpt>
      <trkpt lat="44.63986" lon="0.94205">
        <ele>263.1</ele>
        <time>2018-07-22T13:01:00Z</time>
      </trkpt>
      <trkpt lat="44.63982" lon="0.94209">
        <ele>263.1</ele>
        <time>2018-07-22T13:01:01Z</time>
      </trkpt>
      <trkpt lat="44.63978" lon="0.94215">
        <ele>263.1</ele>
        <time>2018-07-22T13:01:02Z</time>
      </trkpt>
      <trkpt lat="44.63975" lon="0.94221">
        <ele>263.2</ele>
        <time>2018-07-22T13:01:03Z</time>
      </trkpt>
      <trkpt lat="44.63974" lon="0.94226">
        <ele>263.2</ele>
        <time>2018-07-22T13:01:04Z</time>
      </trkpt>
      <trkpt lat="44.63971" lon="0.9423">
        <ele>263.2</ele>
        <time>2018-07-22T13:01:05Z</time>
      </trkpt>
      <trkpt lat="44.63971" lon="0.94238">
        <ele>263.3</ele>
        <time>2018-07-22T13:01:06Z</time>
      </trkpt>
      <trkpt lat="44.6397" lon="0.94247">
        <ele>263.3</ele>
        <time>2018-07-22T13:01:07Z</time>
      </trkpt>
      <trkpt lat="44.63968" lon="0.94251">
        <ele>263.4</ele>
        <time>2018-07-22T13:01:08Z</time>
      </trkpt>
      <trkpt lat="44.63967" lon="0.94258">
        <ele>263.4</ele>
        <time>2018-07-22T13:01:09Z</time>
      </trkpt>
      <trkpt lat="44.63967" lon="0.94264">
        <ele>263.5</ele>
        <time>2018-07-22T13:01:10Z</time>
      </trkpt>
      <trkpt lat="44.63967" lon="0.94272">
        <ele>263.7</ele>
        <time>2018-07-22T13:01:11Z</time>
      </trkpt>
      <trkpt lat="44.63969" lon="0.94276">
        <ele>263.7</ele>
        <time>2018-07-22T13:01:12Z</time>
      </trkpt>
      <trkpt lat="44.6397" lon="0.94283">
        <ele>263.9</ele>
        <time>2018-07-22T13:01:13Z</time>
      </trkpt>
      <trkpt lat="44.63971" lon="0.94287">
        <ele>264</ele>
        <time>2018-07-22T13:01:14Z</time>
      </trkpt>
      <trkpt lat="44.63971" lon="0.94292">
        <ele>264.1</ele>
        <time>2018-07-22T13:01:15Z</time>
      </trkpt>
      <trkpt lat="44.63972" lon="0.94296">
        <ele>264.2</ele>
        <time>2018-07-22T13:01:16Z</time>
      </trkpt>
      <trkpt lat="44.63972" lon="0.94304">
        <ele>264.5</ele>
        <time>2018-07-22T13:01:18Z</time>
      </trkpt>
      <trkpt lat="44.63973" lon="0.94308">
        <ele>264.7</ele>
        <time>2018-07-22T13:01:19Z</time>
      </trkpt>
      <trkpt lat="44.63974" lon="0.94313">
        <ele>264.8</ele>
        <time>2018-07-22T13:01:20Z</time>
      </trkpt>
      <trkpt lat="44.63973" lon="0.94319">
        <ele>265</ele>
        <time>2018-07-22T13:01:21Z</time>
      </trkpt>
      <trkpt lat="44.63972" lon="0.94323">
        <ele>265.1</ele>
        <time>2018-07-22T13:01:22Z</time>
      </trkpt>
      <trkpt lat="44.6397" lon="0.94328">
        <ele>265.3</ele>
        <time>2018-07-22T13:01:23Z</time>
      </trkpt>
      <trkpt lat="44.63968" lon="0.94332">
        <ele>265.6</ele>
        <time>2018-07-22T13:01:24Z</time>
      </trkpt>
      <trkpt lat="44.63965" lon="0.94337">
        <ele>265.8</ele>
        <time>2018-07-22T13:01:25Z</time>
      </trkpt>
      <trkpt lat="44.63962" lon="0.94342">
        <ele>265.9</ele>
        <time>2018-07-22T13:01:26Z</time>
      </trkpt>
      <trkpt lat="44.63959" lon="0.94347">
        <ele>266.1</ele>
        <time>2018-07-22T13:01:27Z</time>
      </trkpt>
      <trkpt lat="44.63956" lon="0.94353">
        <ele>266.3</ele>
        <time>2018-07-22T13:01:28Z</time>
      </trkpt>
      <trkpt lat="44.63954" lon="0.94358">
        <ele>266.5</ele>
        <time>2018-07-22T13:01:29Z</time>
      </trkpt>
      <trkpt lat="44.63953" lon="0.94363">
        <ele>266.7</ele>
        <time>2018-07-22T13:01:30Z</time>
      </trkpt>
      <trkpt lat="44.63954" lon="0.94368">
        <ele>266.8</ele>
        <time>2018-07-22T13:01:31Z</time>
      </trkpt>
      <trkpt lat="44.63956" lon="0.94373">
        <ele>266.9</ele>
        <time>2018-07-22T13:01:32Z</time>
      </trkpt>
      <trkpt lat="44.63958" lon="0.94378">
        <ele>266.9</ele>
        <time>2018-07-22T13:01:33Z</time>
      </trkpt>
      <trkpt lat="44.6396" lon="0.94381">
        <ele>267</ele>
        <time>2018-07-22T13:01:34Z</time>
      </trkpt>
      <trkpt lat="44.63963" lon="0.94384">
        <ele>266.9</ele>
        <time>2018-07-22T13:01:35Z</time>
      </trkpt>
      <trkpt lat="44.63966" lon="0.94386">
        <ele>267</ele>
        <time>2018-07-22T13:01:36Z</time>
      </trkpt>
      <trkpt lat="44.63969" lon="0.94388">
        <ele>267</ele>
        <time>2018-07-22T13:01:37Z</time>
      </trkpt>
      <trkpt lat="44.63972" lon="0.9439">
        <ele>267</ele>
        <time>2018-07-22T13:01:38Z</time>
      </trkpt>
      <trkpt lat="44.63976" lon="0.94392">
        <ele>267</ele>
        <time>2018-07-22T13:01:39Z</time>
      </trkpt>
      <trkpt lat="44.63981" lon="0.94394">
        <ele>267</ele>
        <time>2018-07-22T13:01:40Z</time>
      </trkpt>
      <trkpt lat="44.63986" lon="0.94394">
        <ele>267</ele>
        <time>2018-07-22T13:01:41Z</time>
      </trkpt>
      <trkpt lat="44.6399" lon="0.94394">
        <ele>267</ele>
        <time>2018-07-22T13:01:42Z</time>
      </trkpt>
      <trkpt lat="44.63993" lon="0.94394">
        <ele>267</ele>
        <time>2018-07-22T13:01:43Z</time>
      </trkpt>
      <trkpt lat="44.63997" lon="0.94394">
        <ele>267</ele>
        <time>2018-07-22T13:01:44Z</time>
      </trkpt>
      <trkpt lat="44.64001" lon="0.94394">
        <ele>267.1</ele>
        <time>2018-07-22T13:01:45Z</time>
      </trkpt>
      <trkpt lat="44.64004" lon="0.94394">
        <ele>267.1</ele>
        <time>2018-07-22T13:01:46Z</time>
      </trkpt>
      <trkpt lat="44.64007" lon="0.94394">
        <ele>267.2</ele>
        <time>2018-07-22T13:01:47Z</time>
      </trkpt>
      <trkpt lat="44.64011" lon="0.94393">
        <ele>267.3</ele>
        <time>2018-07-22T13:01:48Z</time>
      </trkpt>
      <trkpt lat="44.64015" lon="0.94393">
        <ele>267.3</ele>
        <time>2018-07-22T13:01:49Z</time>
      </trkpt>
      <trkpt lat="44.64018" lon="0.94393">
        <ele>267.4</ele>
        <time>2018-07-22T13:01:50Z</time>
      </trkpt>
      <trkpt lat="44.64022" lon="0.94395">
        <ele>267.5</ele>
        <time>2018-07-22T13:01:51Z</time>
      </trkpt>
      <trkpt lat="44.64025" lon="0.94396">
        <ele>267.6</ele>
        <time>2018-07-22T13:01:52Z</time>
      </trkpt>
      <trkpt lat="44.64027" lon="0.94399">
        <ele>267.7</ele>
        <time>2018-07-22T13:01:53Z</time>
      </trkpt>
      <trkpt lat="44.6403" lon="0.94401">
        <ele>267.9</ele>
        <time>2018-07-22T13:01:54Z</time>
      </trkpt>
      <trkpt lat="44.64033" lon="0.94404">
        <ele>268</ele>
        <time>2018-07-22T13:01:56Z</time>
      </trkpt>
      <trkpt lat="44.64033" lon="0.94409">
        <ele>267.9</ele>
        <time>2018-07-22T13:01:58Z</time>
      </trkpt>
      <trkpt lat="44.64031" lon="0.94413">
        <ele>267.7</ele>
        <time>2018-07-22T13:02:00Z</time>
      </trkpt>
      <trkpt lat="44.64027" lon="0.94416">
        <ele>267.6</ele>
        <time>2018-07-22T13:02:03Z</time>
      </trkpt>
      <trkpt lat="44.64024" lon="0.94417">
        <ele>267.5</ele>
        <time>2018-07-22T13:02:05Z</time>
      </trkpt>
      <trkpt lat="44.6402" lon="0.9442">
        <ele>267.4</ele>
        <time>2018-07-22T13:02:07Z</time>
      </trkpt>
      <trkpt lat="44.64016" lon="0.94422">
        <ele>267.4</ele>
        <time>2018-07-22T13:02:09Z</time>
      </trkpt>
      <trkpt lat="44.64011" lon="0.94425">
        <ele>267.3</ele>
        <time>2018-07-22T13:02:11Z</time>
      </trkpt>
      <trkpt lat="44.64007" lon="0.94428">
        <ele>267.2</ele>
        <time>2018-07-22T13:02:13Z</time>
      </trkpt>
      <trkpt lat="44.64003" lon="0.94431">
        <ele>267.2</ele>
        <time>2018-07-22T13:02:15Z</time>
      </trkpt>
      <trkpt lat="44.64" lon="0.94432">
        <ele>267.1</ele>
        <time>2018-07-22T13:02:16Z</time>
      </trkpt>
      <trkpt lat="44.63997" lon="0.94433">
        <ele>267.1</ele>
        <time>2018-07-22T13:02:17Z</time>
      </trkpt>
      <trkpt lat="44.63995" lon="0.94435">
        <ele>267.1</ele>
        <time>2018-07-22T13:02:18Z</time>
      </trkpt>
      <trkpt lat="44.63992" lon="0.94436">
        <ele>267.1</ele>
        <time>2018-07-22T13:02:19Z</time>
      </trkpt>
      <trkpt lat="44.63989" lon="0.94438">
        <ele>267.1</ele>
        <time>2018-07-22T13:02:20Z</time>
      </trkpt>
      <trkpt lat="44.63985" lon="0.94441">
        <ele>267.2</ele>
        <time>2018-07-22T13:02:21Z</time>
      </trkpt>
      <trkpt lat="44.63977" lon="0.94443">
        <ele>267.2</ele>
        <time>2018-07-22T13:02:22Z</time>
      </trkpt>
      <trkpt lat="44.63968" lon="0.94451">
        <ele>267.3</ele>
        <time>2018-07-22T13:02:23Z</time>
      </trkpt>
      <trkpt lat="44.63963" lon="0.94453">
        <ele>267.3</ele>
        <time>2018-07-22T13:02:24Z</time>
      </trkpt>
      <trkpt lat="44.63958" lon="0.94454">
        <ele>267.4</ele>
        <time>2018-07-22T13:02:25Z</time>
      </trkpt>
      <trkpt lat="44.63952" lon="0.94457">
        <ele>267.4</ele>
        <time>2018-07-22T13:02:26Z</time>
      </trkpt>
      <trkpt lat="44.63945" lon="0.94459">
        <ele>267.4</ele>
        <time>2018-07-22T13:02:27Z</time>
      </trkpt>
      <trkpt lat="44.63938" lon="0.94465">
        <ele>267.2</ele>
        <time>2018-07-22T13:02:28Z</time>
      </trkpt>
      <trkpt lat="44.63932" lon="0.94475">
        <ele>266.9</ele>
        <time>2018-07-22T13:02:29Z</time>
      </trkpt>
      <trkpt lat="44.63926" lon="0.94478">
        <ele>266.6</ele>
        <time>2018-07-22T13:02:30Z</time>
      </trkpt>
      <trkpt lat="44.63919" lon="0.94484">
        <ele>266.1</ele>
        <time>2018-07-22T13:02:31Z</time>
      </trkpt>
      <trkpt lat="44.63914" lon="0.9449">
        <ele>265.7</ele>
        <time>2018-07-22T13:02:32Z</time>
      </trkpt>
      <trkpt lat="44.63909" lon="0.94494">
        <ele>265.2</ele>
        <time>2018-07-22T13:02:33Z</time>
      </trkpt>
      <trkpt lat="44.63906" lon="0.94504">
        <ele>264.6</ele>
        <time>2018-07-22T13:02:34Z</time>
      </trkpt>
      <trkpt lat="44.63902" lon="0.9451">
        <ele>264.1</ele>
        <time>2018-07-22T13:02:35Z</time>
      </trkpt>
      <trkpt lat="44.63895" lon="0.94517">
        <ele>263.4</ele>
        <time>2018-07-22T13:02:36Z</time>
      </trkpt>
      <trkpt lat="44.63888" lon="0.94525">
        <ele>262.8</ele>
        <time>2018-07-22T13:02:37Z</time>
      </trkpt>
      <trkpt lat="44.63883" lon="0.94531">
        <ele>262.3</ele>
        <time>2018-07-22T13:02:38Z</time>
      </trkpt>
      <trkpt lat="44.63875" lon="0.94539">
        <ele>261.9</ele>
        <time>2018-07-22T13:02:39Z</time>
      </trkpt>
      <trkpt lat="44.63867" lon="0.94546">
        <ele>261.5</ele>
        <time>2018-07-22T13:02:40Z</time>
      </trkpt>
      <trkpt lat="44.6386" lon="0.94552">
        <ele>261.2</ele>
        <time>2018-07-22T13:02:41Z</time>
      </trkpt>
      <trkpt lat="44.63854" lon="0.94562">
        <ele>260.9</ele>
        <time>2018-07-22T13:02:42Z</time>
      </trkpt>
      <trkpt lat="44.63846" lon="0.9457">
        <ele>260.6</ele>
        <time>2018-07-22T13:02:43Z</time>
      </trkpt>
      <trkpt lat="44.63838" lon="0.94579">
        <ele>259.9</ele>
        <time>2018-07-22T13:02:44Z</time>
      </trkpt>
      <trkpt lat="44.6383" lon="0.94587">
        <ele>259.1</ele>
        <time>2018-07-22T13:02:45Z</time>
      </trkpt>
      <trkpt lat="44.63822" lon="0.94595">
        <ele>258.5</ele>
        <time>2018-07-22T13:02:46Z</time>
      </trkpt>
      <trkpt lat="44.63815" lon="0.94603">
        <ele>257.9</ele>
        <time>2018-07-22T13:02:47Z</time>
      </trkpt>
      <trkpt lat="44.63807" lon="0.94609">
        <ele>257.4</ele>
        <time>2018-07-22T13:02:48Z</time>
      </trkpt>
      <trkpt lat="44.638" lon="0.94616">
        <ele>256.8</ele>
        <time>2018-07-22T13:02:49Z</time>
      </trkpt>
      <trkpt lat="44.63792" lon="0.94623">
        <ele>256.1</ele>
        <time>2018-07-22T13:02:50Z</time>
      </trkpt>
      <trkpt lat="44.63785" lon="0.94632">
        <ele>255.4</ele>
        <time>2018-07-22T13:02:51Z</time>
      </trkpt>
      <trkpt lat="44.63777" lon="0.94641">
        <ele>254.7</ele>
        <time>2018-07-22T13:02:52Z</time>
      </trkpt>
      <trkpt lat="44.63771" lon="0.94649">
        <ele>254.2</ele>
        <time>2018-07-22T13:02:53Z</time>
      </trkpt>
      <trkpt lat="44.63765" lon="0.94657">
        <ele>253.6</ele>
        <time>2018-07-22T13:02:54Z</time>
      </trkpt>
      <trkpt lat="44.63759" lon="0.94665">
        <ele>253.2</ele>
        <time>2018-07-22T13:02:55Z</time>
      </trkpt>
      <trkpt lat="44.63753" lon="0.94672">
        <ele>252.9</ele>
        <time>2018-07-22T13:02:56Z</time>
      </trkpt>
      <trkpt lat="44.63748" lon="0.94678">
        <ele>252.8</ele>
        <time>2018-07-22T13:02:57Z</time>
      </trkpt>
      <trkpt lat="44.63741" lon="0.94687">
        <ele>252.5</ele>
        <time>2018-07-22T13:02:58Z</time>
      </trkpt>
      <trkpt lat="44.63735" lon="0.94694">
        <ele>252.3</ele>
        <time>2018-07-22T13:02:59Z</time>
      </trkpt>
      <trkpt lat="44.63729" lon="0.94702">
        <ele>252.1</ele>
        <time>2018-07-22T13:03:00Z</time>
      </trkpt>
      <trkpt lat="44.63724" lon="0.9471">
        <ele>251.9</ele>
        <time>2018-07-22T13:03:01Z</time>
      </trkpt>
      <trkpt lat="44.63718" lon="0.94717">
        <ele>251.9</ele>
        <time>2018-07-22T13:03:02Z</time>
      </trkpt>
      <trkpt lat="44.63714" lon="0.94724">
        <ele>251.7</ele>
        <time>2018-07-22T13:03:03Z</time>
      </trkpt>
      <trkpt lat="44.63709" lon="0.9473">
        <ele>251.7</ele>
        <time>2018-07-22T13:03:04Z</time>
      </trkpt>
      <trkpt lat="44.63703" lon="0.94738">
        <ele>251.6</ele>
        <time>2018-07-22T13:03:05Z</time>
      </trkpt>
      <trkpt lat="44.63697" lon="0.94746">
        <ele>251.6</ele>
        <time>2018-07-22T13:03:06Z</time>
      </trkpt>
      <trkpt lat="44.63692" lon="0.94752">
        <ele>251.7</ele>
        <time>2018-07-22T13:03:07Z</time>
      </trkpt>
      <trkpt lat="44.63688" lon="0.94758">
        <ele>251.8</ele>
        <time>2018-07-22T13:03:08Z</time>
      </trkpt>
      <trkpt lat="44.63684" lon="0.94763">
        <ele>251.9</ele>
        <time>2018-07-22T13:03:09Z</time>
      </trkpt>
      <trkpt lat="44.6368" lon="0.94766">
        <ele>252</ele>
        <time>2018-07-22T13:03:10Z</time>
      </trkpt>
      <trkpt lat="44.63677" lon="0.94767">
        <ele>252</ele>
        <time>2018-07-22T13:03:11Z</time>
      </trkpt>
      <trkpt lat="44.63673" lon="0.94771">
        <ele>252.1</ele>
        <time>2018-07-22T13:03:13Z</time>
      </trkpt>
      <trkpt lat="44.63669" lon="0.94775">
        <ele>252.3</ele>
        <time>2018-07-22T13:04:10Z</time>
      </trkpt>
      <trkpt lat="44.63668" lon="0.94778">
        <ele>252.2</ele>
        <time>2018-07-22T13:04:11Z</time>
      </trkpt>
      <trkpt lat="44.63665" lon="0.94777">
        <ele>251.9</ele>
        <time>2018-07-22T13:04:18Z</time>
      </trkpt>
      <trkpt lat="44.63663" lon="0.94774">
        <ele>251.6</ele>
        <time>2018-07-22T13:04:30Z</time>
      </trkpt>
      <trkpt lat="44.63664" lon="0.94771">
        <ele>251.4</ele>
        <time>2018-07-22T13:04:33Z</time>
      </trkpt>
      <trkpt lat="44.63661" lon="0.94774">
        <ele>251.1</ele>
        <time>2018-07-22T13:05:22Z</time>
      </trkpt>
      <trkpt lat="44.63663" lon="0.94771">
        <ele>250.9</ele>
        <time>2018-07-22T13:05:27Z</time>
      </trkpt>
      <trkpt lat="44.63666" lon="0.94768">
        <ele>250.6</ele>
        <time>2018-07-22T13:05:31Z</time>
      </trkpt>
      <trkpt lat="44.63667" lon="0.94772">
        <ele>250.4</ele>
        <time>2018-07-22T13:05:39Z</time>
      </trkpt>
      <trkpt lat="44.63668" lon="0.94777">
        <ele>250.2</ele>
        <time>2018-07-22T13:05:43Z</time>
      </trkpt>
      <trkpt lat="44.63667" lon="0.94773">
        <ele>250</ele>
        <time>2018-07-22T13:06:18Z</time>
      </trkpt>
      <trkpt lat="44.63663" lon="0.94769">
        <ele>249.8</ele>
        <time>2018-07-22T13:06:20Z</time>
      </trkpt>
      <trkpt lat="44.63659" lon="0.94766">
        <ele>249.8</ele>
        <time>2018-07-22T13:06:21Z</time>
      </trkpt>
      <trkpt lat="44.63656" lon="0.94764">
        <ele>249.8</ele>
        <time>2018-07-22T13:06:22Z</time>
      </trkpt>
      <trkpt lat="44.63652" lon="0.94763">
        <ele>249.7</ele>
        <time>2018-07-22T13:06:23Z</time>
      </trkpt>
      <trkpt lat="44.63648" lon="0.94762">
        <ele>249.7</ele>
        <time>2018-07-22T13:06:24Z</time>
      </trkpt>
      <trkpt lat="44.63643" lon="0.94762">
        <ele>249.5</ele>
        <time>2018-07-22T13:06:25Z</time>
      </trkpt>
      <trkpt lat="44.63638" lon="0.94761">
        <ele>249.5</ele>
        <time>2018-07-22T13:06:26Z</time>
      </trkpt>
      <trkpt lat="44.63633" lon="0.94759">
        <ele>249.5</ele>
        <time>2018-07-22T13:06:27Z</time>
      </trkpt>
      <trkpt lat="44.63628" lon="0.94758">
        <ele>249.5</ele>
        <time>2018-07-22T13:06:28Z</time>
      </trkpt>
      <trkpt lat="44.63622" lon="0.94758">
        <ele>249.4</ele>
        <time>2018-07-22T13:06:29Z</time>
      </trkpt>
      <trkpt lat="44.63618" lon="0.94757">
        <ele>249.4</ele>
        <time>2018-07-22T13:06:30Z</time>
      </trkpt>
      <trkpt lat="44.63611" lon="0.94755">
        <ele>249.2</ele>
        <time>2018-07-22T13:06:31Z</time>
      </trkpt>
      <trkpt lat="44.63606" lon="0.94754">
        <ele>249</ele>
        <time>2018-07-22T13:06:32Z</time>
      </trkpt>
      <trkpt lat="44.63599" lon="0.94753">
        <ele>248.9</ele>
        <time>2018-07-22T13:06:33Z</time>
      </trkpt>
      <trkpt lat="44.63592" lon="0.94751">
        <ele>248.7</ele>
        <time>2018-07-22T13:06:34Z</time>
      </trkpt>
      <trkpt lat="44.63585" lon="0.94751">
        <ele>248.4</ele>
        <time>2018-07-22T13:06:35Z</time>
      </trkpt>
      <trkpt lat="44.63578" lon="0.94752">
        <ele>248.3</ele>
        <time>2018-07-22T13:06:36Z</time>
      </trkpt>
      <trkpt lat="44.63571" lon="0.94753">
        <ele>248</ele>
        <time>2018-07-22T13:06:37Z</time>
      </trkpt>
      <trkpt lat="44.63565" lon="0.94754">
        <ele>247.7</ele>
        <time>2018-07-22T13:06:38Z</time>
      </trkpt>
      <trkpt lat="44.63557" lon="0.94755">
        <ele>247.4</ele>
        <time>2018-07-22T13:06:39Z</time>
      </trkpt>
      <trkpt lat="44.63551" lon="0.94757">
        <ele>247</ele>
        <time>2018-07-22T13:06:40Z</time>
      </trkpt>
      <trkpt lat="44.63545" lon="0.94759">
        <ele>246.6</ele>
        <time>2018-07-22T13:06:41Z</time>
      </trkpt>
      <trkpt lat="44.63538" lon="0.9476">
        <ele>246.3</ele>
        <time>2018-07-22T13:06:42Z</time>
      </trkpt>
      <trkpt lat="44.63531" lon="0.94761">
        <ele>246</ele>
        <time>2018-07-22T13:06:43Z</time>
      </trkpt>
      <trkpt lat="44.63525" lon="0.94763">
        <ele>245.6</ele>
        <time>2018-07-22T13:06:44Z</time>
      </trkpt>
      <trkpt lat="44.63519" lon="0.94765">
        <ele>245.2</ele>
        <time>2018-07-22T13:06:45Z</time>
      </trkpt>
      <trkpt lat="44.63511" lon="0.94764">
        <ele>244.8</ele>
        <time>2018-07-22T13:06:46Z</time>
      </trkpt>
      <trkpt lat="44.63505" lon="0.94766">
        <ele>244.5</ele>
        <time>2018-07-22T13:06:47Z</time>
      </trkpt>
      <trkpt lat="44.63498" lon="0.94768">
        <ele>244.1</ele>
        <time>2018-07-22T13:06:48Z</time>
      </trkpt>
      <trkpt lat="44.63492" lon="0.94769">
        <ele>243.9</ele>
        <time>2018-07-22T13:06:49Z</time>
      </trkpt>
      <trkpt lat="44.63486" lon="0.94772">
        <ele>243.7</ele>
        <time>2018-07-22T13:06:50Z</time>
      </trkpt>
      <trkpt lat="44.63479" lon="0.94774">
        <ele>243.2</ele>
        <time>2018-07-22T13:06:51Z</time>
      </trkpt>
      <trkpt lat="44.63473" lon="0.94775">
        <ele>242.9</ele>
        <time>2018-07-22T13:06:52Z</time>
      </trkpt>
      <trkpt lat="44.63468" lon="0.94778">
        <ele>242.7</ele>
        <time>2018-07-22T13:06:53Z</time>
      </trkpt>
      <trkpt lat="44.63461" lon="0.94784">
        <ele>242.6</ele>
        <time>2018-07-22T13:06:54Z</time>
      </trkpt>
      <trkpt lat="44.63455" lon="0.94786">
        <ele>242.5</ele>
        <time>2018-07-22T13:06:55Z</time>
      </trkpt>
      <trkpt lat="44.63451" lon="0.94788">
        <ele>242.5</ele>
        <time>2018-07-22T13:06:56Z</time>
      </trkpt>
      <trkpt lat="44.63446" lon="0.94789">
        <ele>242.4</ele>
        <time>2018-07-22T13:06:57Z</time>
      </trkpt>
      <trkpt lat="44.63441" lon="0.94792">
        <ele>242.3</ele>
        <time>2018-07-22T13:06:58Z</time>
      </trkpt>
      <trkpt lat="44.63437" lon="0.94796">
        <ele>242.6</ele>
        <time>2018-07-22T13:06:59Z</time>
      </trkpt>
      <trkpt lat="44.63432" lon="0.948">
        <ele>242.7</ele>
        <time>2018-07-22T13:07:00Z</time>
      </trkpt>
      <trkpt lat="44.63428" lon="0.94804">
        <ele>242.7</ele>
        <time>2018-07-22T13:07:01Z</time>
      </trkpt>
      <trkpt lat="44.63423" lon="0.94811">
        <ele>242.8</ele>
        <time>2018-07-22T13:07:02Z</time>
      </trkpt>
      <trkpt lat="44.6342" lon="0.94816">
        <ele>242.9</ele>
        <time>2018-07-22T13:07:03Z</time>
      </trkpt>
      <trkpt lat="44.63415" lon="0.9482">
        <ele>243</ele>
        <time>2018-07-22T13:07:04Z</time>
      </trkpt>
      <trkpt lat="44.6341" lon="0.94822">
        <ele>243</ele>
        <time>2018-07-22T13:07:05Z</time>
      </trkpt>
      <trkpt lat="44.63407" lon="0.9483">
        <ele>243.2</ele>
        <time>2018-07-22T13:07:06Z</time>
      </trkpt>
      <trkpt lat="44.63404" lon="0.94837">
        <ele>243.4</ele>
        <time>2018-07-22T13:07:07Z</time>
      </trkpt>
      <trkpt lat="44.63402" lon="0.94844">
        <ele>243.7</ele>
        <time>2018-07-22T13:07:08Z</time>
      </trkpt>
      <trkpt lat="44.634" lon="0.9485">
        <ele>243.9</ele>
        <time>2018-07-22T13:07:09Z</time>
      </trkpt>
      <trkpt lat="44.63398" lon="0.94857">
        <ele>244.1</ele>
        <time>2018-07-22T13:07:10Z</time>
      </trkpt>
      <trkpt lat="44.63396" lon="0.9486">
        <ele>244.2</ele>
        <time>2018-07-22T13:07:11Z</time>
      </trkpt>
      <trkpt lat="44.63395" lon="0.94867">
        <ele>244.5</ele>
        <time>2018-07-22T13:07:12Z</time>
      </trkpt>
      <trkpt lat="44.63392" lon="0.94873">
        <ele>244.8</ele>
        <time>2018-07-22T13:07:13Z</time>
      </trkpt>
      <trkpt lat="44.63391" lon="0.9488">
        <ele>244.9</ele>
        <time>2018-07-22T13:07:14Z</time>
      </trkpt>
      <trkpt lat="44.63389" lon="0.94886">
        <ele>245.1</ele>
        <time>2018-07-22T13:07:15Z</time>
      </trkpt>
      <trkpt lat="44.63387" lon="0.94891">
        <ele>245.3</ele>
        <time>2018-07-22T13:07:16Z</time>
      </trkpt>
      <trkpt lat="44.63384" lon="0.94897">
        <ele>245.5</ele>
        <time>2018-07-22T13:07:17Z</time>
      </trkpt>
      <trkpt lat="44.63382" lon="0.94904">
        <ele>245.7</ele>
        <time>2018-07-22T13:07:18Z</time>
      </trkpt>
      <trkpt lat="44.63379" lon="0.94911">
        <ele>246</ele>
        <time>2018-07-22T13:07:19Z</time>
      </trkpt>
      <trkpt lat="44.63377" lon="0.94915">
        <ele>246.2</ele>
        <time>2018-07-22T13:07:20Z</time>
      </trkpt>
      <trkpt lat="44.63375" lon="0.94921">
        <ele>246.4</ele>
        <time>2018-07-22T13:07:21Z</time>
      </trkpt>
      <trkpt lat="44.63372" lon="0.94932">
        <ele>246.8</ele>
        <time>2018-07-22T13:07:22Z</time>
      </trkpt>
      <trkpt lat="44.63371" lon="0.94936">
        <ele>247</ele>
        <time>2018-07-22T13:07:23Z</time>
      </trkpt>
      <trkpt lat="44.63368" lon="0.94938">
        <ele>247.2</ele>
        <time>2018-07-22T13:07:24Z</time>
      </trkpt>
      <trkpt lat="44.63366" lon="0.94942">
        <ele>247.4</ele>
        <time>2018-07-22T13:07:25Z</time>
      </trkpt>
      <trkpt lat="44.63365" lon="0.94953">
        <ele>248</ele>
        <time>2018-07-22T13:07:26Z</time>
      </trkpt>
      <trkpt lat="44.63362" lon="0.94959">
        <ele>248.4</ele>
        <time>2018-07-22T13:07:28Z</time>
      </trkpt>
      <trkpt lat="44.6336" lon="0.94963">
        <ele>248.7</ele>
        <time>2018-07-22T13:07:29Z</time>
      </trkpt>
      <trkpt lat="44.63357" lon="0.94967">
        <ele>248.9</ele>
        <time>2018-07-22T13:07:30Z</time>
      </trkpt>
      <trkpt lat="44.63355" lon="0.9497">
        <ele>249.3</ele>
        <time>2018-07-22T13:07:31Z</time>
      </trkpt>
      <trkpt lat="44.63353" lon="0.94974">
        <ele>249.7</ele>
        <time>2018-07-22T13:07:32Z</time>
      </trkpt>
      <trkpt lat="44.63351" lon="0.94977">
        <ele>250.1</ele>
        <time>2018-07-22T13:07:33Z</time>
      </trkpt>
      <trkpt lat="44.63348" lon="0.94981">
        <ele>250.3</ele>
        <time>2018-07-22T13:07:34Z</time>
      </trkpt>
      <trkpt lat="44.63346" lon="0.94986">
        <ele>250.6</ele>
        <time>2018-07-22T13:07:35Z</time>
      </trkpt>
      <trkpt lat="44.63344" lon="0.94991">
        <ele>250.8</ele>
        <time>2018-07-22T13:07:36Z</time>
      </trkpt>
      <trkpt lat="44.6334" lon="0.95">
        <ele>251.2</ele>
        <time>2018-07-22T13:07:37Z</time>
      </trkpt>
      <trkpt lat="44.63336" lon="0.95003">
        <ele>251.2</ele>
        <time>2018-07-22T13:07:38Z</time>
      </trkpt>
      <trkpt lat="44.63333" lon="0.95006">
        <ele>251.2</ele>
        <time>2018-07-22T13:07:39Z</time>
      </trkpt>
      <trkpt lat="44.63329" lon="0.95011">
        <ele>251.5</ele>
        <time>2018-07-22T13:07:40Z</time>
      </trkpt>
      <trkpt lat="44.63326" lon="0.95016">
        <ele>251.8</ele>
        <time>2018-07-22T13:07:41Z</time>
      </trkpt>
      <trkpt lat="44.6332" lon="0.95021">
        <ele>252.2</ele>
        <time>2018-07-22T13:07:42Z</time>
      </trkpt>
      <trkpt lat="44.63318" lon="0.95028">
        <ele>252.5</ele>
        <time>2018-07-22T13:07:43Z</time>
      </trkpt>
      <trkpt lat="44.63316" lon="0.95033">
        <ele>252.7</ele>
        <time>2018-07-22T13:07:44Z</time>
      </trkpt>
      <trkpt lat="44.63313" lon="0.95038">
        <ele>252.8</ele>
        <time>2018-07-22T13:07:45Z</time>
      </trkpt>
      <trkpt lat="44.6331" lon="0.95042">
        <ele>253</ele>
        <time>2018-07-22T13:07:46Z</time>
      </trkpt>
      <trkpt lat="44.63307" lon="0.95046">
        <ele>253.1</ele>
        <time>2018-07-22T13:07:47Z</time>
      </trkpt>
      <trkpt lat="44.63305" lon="0.95051">
        <ele>253.3</ele>
        <time>2018-07-22T13:07:48Z</time>
      </trkpt>
      <trkpt lat="44.63303" lon="0.95056">
        <ele>253.4</ele>
        <time>2018-07-22T13:07:49Z</time>
      </trkpt>
      <trkpt lat="44.63301" lon="0.95061">
        <ele>253.3</ele>
        <time>2018-07-22T13:07:50Z</time>
      </trkpt>
      <trkpt lat="44.633" lon="0.95065">
        <ele>253.3</ele>
        <time>2018-07-22T13:07:51Z</time>
      </trkpt>
      <trkpt lat="44.63297" lon="0.95068">
        <ele>253.3</ele>
        <time>2018-07-22T13:07:52Z</time>
      </trkpt>
      <trkpt lat="44.63295" lon="0.95071">
        <ele>253.2</ele>
        <time>2018-07-22T13:07:53Z</time>
      </trkpt>
      <trkpt lat="44.63291" lon="0.95073">
        <ele>253.1</ele>
        <time>2018-07-22T13:07:54Z</time>
      </trkpt>
      <trkpt lat="44.63288" lon="0.95075">
        <ele>252.9</ele>
        <time>2018-07-22T13:07:55Z</time>
      </trkpt>
      <trkpt lat="44.63285" lon="0.95076">
        <ele>252.7</ele>
        <time>2018-07-22T13:07:56Z</time>
      </trkpt>
      <trkpt lat="44.63281" lon="0.95078">
        <ele>252.7</ele>
        <time>2018-07-22T13:07:57Z</time>
      </trkpt>
      <trkpt lat="44.63278" lon="0.9508">
        <ele>252.7</ele>
        <time>2018-07-22T13:07:58Z</time>
      </trkpt>
      <trkpt lat="44.63275" lon="0.95082">
        <ele>252.6</ele>
        <time>2018-07-22T13:07:59Z</time>
      </trkpt>
      <trkpt lat="44.6327" lon="0.95088">
        <ele>252.3</ele>
        <time>2018-07-22T13:08:01Z</time>
      </trkpt>
      <trkpt lat="44.63267" lon="0.95091">
        <ele>252.2</ele>
        <time>2018-07-22T13:08:02Z</time>
      </trkpt>
      <trkpt lat="44.63264" lon="0.95095">
        <ele>252.1</ele>
        <time>2018-07-22T13:08:03Z</time>
      </trkpt>
      <trkpt lat="44.63261" lon="0.95097">
        <ele>251.9</ele>
        <time>2018-07-22T13:08:04Z</time>
      </trkpt>
      <trkpt lat="44.63258" lon="0.95099">
        <ele>251.8</ele>
        <time>2018-07-22T13:08:05Z</time>
      </trkpt>
      <trkpt lat="44.63254" lon="0.95101">
        <ele>251.7</ele>
        <time>2018-07-22T13:08:06Z</time>
      </trkpt>
      <trkpt lat="44.63251" lon="0.95102">
        <ele>251.5</ele>
        <time>2018-07-22T13:08:07Z</time>
      </trkpt>
      <trkpt lat="44.63247" lon="0.95104">
        <ele>251.3</ele>
        <time>2018-07-22T13:08:08Z</time>
      </trkpt>
      <trkpt lat="44.63244" lon="0.95107">
        <ele>251.2</ele>
        <time>2018-07-22T13:08:09Z</time>
      </trkpt>
      <trkpt lat="44.63241" lon="0.9511">
        <ele>251.1</ele>
        <time>2018-07-22T13:08:10Z</time>
      </trkpt>
      <trkpt lat="44.63237" lon="0.95112">
        <ele>251.1</ele>
        <time>2018-07-22T13:08:11Z</time>
      </trkpt>
      <trkpt lat="44.63233" lon="0.95115">
        <ele>251</ele>
        <time>2018-07-22T13:08:12Z</time>
      </trkpt>
      <trkpt lat="44.6323" lon="0.95118">
        <ele>250.8</ele>
        <time>2018-07-22T13:08:13Z</time>
      </trkpt>
      <trkpt lat="44.63226" lon="0.95122">
        <ele>250.7</ele>
        <time>2018-07-22T13:08:14Z</time>
      </trkpt>
      <trkpt lat="44.63222" lon="0.95126">
        <ele>250.6</ele>
        <time>2018-07-22T13:08:15Z</time>
      </trkpt>
      <trkpt lat="44.63217" lon="0.95129">
        <ele>250.5</ele>
        <time>2018-07-22T13:08:16Z</time>
      </trkpt>
      <trkpt lat="44.63196" lon="0.95139">
        <ele>250.6</ele>
        <time>2018-07-22T13:08:18Z</time>
      </trkpt>
      <trkpt lat="44.63192" lon="0.95141">
        <ele>250.6</ele>
        <time>2018-07-22T13:08:19Z</time>
      </trkpt>
      <trkpt lat="44.63184" lon="0.95144">
        <ele>250.5</ele>
        <time>2018-07-22T13:08:20Z</time>
      </trkpt>
      <trkpt lat="44.63178" lon="0.95148">
        <ele>250.5</ele>
        <time>2018-07-22T13:08:21Z</time>
      </trkpt>
      <trkpt lat="44.63172" lon="0.95151">
        <ele>250.5</ele>
        <time>2018-07-22T13:08:22Z</time>
      </trkpt>
      <trkpt lat="44.63167" lon="0.95155">
        <ele>250.5</ele>
        <time>2018-07-22T13:08:23Z</time>
      </trkpt>
      <trkpt lat="44.63161" lon="0.9516">
        <ele>250.3</ele>
        <time>2018-07-22T13:08:24Z</time>
      </trkpt>
      <trkpt lat="44.63157" lon="0.95164">
        <ele>250.2</ele>
        <time>2018-07-22T13:08:25Z</time>
      </trkpt>
      <trkpt lat="44.6315" lon="0.95168">
        <ele>250.1</ele>
        <time>2018-07-22T13:08:26Z</time>
      </trkpt>
      <trkpt lat="44.63146" lon="0.95168">
        <ele>249.9</ele>
        <time>2018-07-22T13:08:27Z</time>
      </trkpt>
      <trkpt lat="44.63143" lon="0.95171">
        <ele>249.7</ele>
        <time>2018-07-22T13:08:28Z</time>
      </trkpt>
      <trkpt lat="44.6314" lon="0.95171">
        <ele>249.6</ele>
        <time>2018-07-22T13:08:29Z</time>
      </trkpt>
      <trkpt lat="44.63135" lon="0.95172">
        <ele>249.4</ele>
        <time>2018-07-22T13:08:31Z</time>
      </trkpt>
      <trkpt lat="44.63132" lon="0.95165">
        <ele>249.4</ele>
        <time>2018-07-22T13:08:33Z</time>
      </trkpt>
      <trkpt lat="44.63132" lon="0.95161">
        <ele>249.3</ele>
        <time>2018-07-22T13:08:34Z</time>
      </trkpt>
      <trkpt lat="44.63129" lon="0.95154">
        <ele>249.3</ele>
        <time>2018-07-22T13:08:36Z</time>
      </trkpt>
      <trkpt lat="44.63124" lon="0.95153">
        <ele>249</ele>
        <time>2018-07-22T13:08:37Z</time>
      </trkpt>
      <trkpt lat="44.6312" lon="0.95152">
        <ele>248.8</ele>
        <time>2018-07-22T13:08:38Z</time>
      </trkpt>
      <trkpt lat="44.63114" lon="0.95154">
        <ele>248.5</ele>
        <time>2018-07-22T13:08:39Z</time>
      </trkpt>
      <trkpt lat="44.63108" lon="0.95155">
        <ele>248</ele>
        <time>2018-07-22T13:08:40Z</time>
      </trkpt>
      <trkpt lat="44.63103" lon="0.95155">
        <ele>247.6</ele>
        <time>2018-07-22T13:08:41Z</time>
      </trkpt>
      <trkpt lat="44.63091" lon="0.95158">
        <ele>246.6</ele>
        <time>2018-07-22T13:08:42Z</time>
      </trkpt>
      <trkpt lat="44.63089" lon="0.95155">
        <ele>246.5</ele>
        <time>2018-07-22T13:08:43Z</time>
      </trkpt>
      <trkpt lat="44.63084" lon="0.95153">
        <ele>245.8</ele>
        <time>2018-07-22T13:08:44Z</time>
      </trkpt>
      <trkpt lat="44.63077" lon="0.9515">
        <ele>244.9</ele>
        <time>2018-07-22T13:08:45Z</time>
      </trkpt>
      <trkpt lat="44.63073" lon="0.95147">
        <ele>244.1</ele>
        <time>2018-07-22T13:08:46Z</time>
      </trkpt>
      <trkpt lat="44.63068" lon="0.95145">
        <ele>243.7</ele>
        <time>2018-07-22T13:08:47Z</time>
      </trkpt>
      <trkpt lat="44.63062" lon="0.95145">
        <ele>243.2</ele>
        <time>2018-07-22T13:08:48Z</time>
      </trkpt>
      <trkpt lat="44.63058" lon="0.95147">
        <ele>242.6</ele>
        <time>2018-07-22T13:08:49Z</time>
      </trkpt>
      <trkpt lat="44.63053" lon="0.95149">
        <ele>242.3</ele>
        <time>2018-07-22T13:08:50Z</time>
      </trkpt>
      <trkpt lat="44.63047" lon="0.95151">
        <ele>241.8</ele>
        <time>2018-07-22T13:08:51Z</time>
      </trkpt>
      <trkpt lat="44.63042" lon="0.95154">
        <ele>241.2</ele>
        <time>2018-07-22T13:08:52Z</time>
      </trkpt>
      <trkpt lat="44.63038" lon="0.95158">
        <ele>240.9</ele>
        <time>2018-07-22T13:08:53Z</time>
      </trkpt>
      <trkpt lat="44.63032" lon="0.95164">
        <ele>240.4</ele>
        <time>2018-07-22T13:08:54Z</time>
      </trkpt>
      <trkpt lat="44.63028" lon="0.95169">
        <ele>240.2</ele>
        <time>2018-07-22T13:08:55Z</time>
      </trkpt>
      <trkpt lat="44.63024" lon="0.95176">
        <ele>239.9</ele>
        <time>2018-07-22T13:08:56Z</time>
      </trkpt>
      <trkpt lat="44.63021" lon="0.95182">
        <ele>239.9</ele>
        <time>2018-07-22T13:08:57Z</time>
      </trkpt>
      <trkpt lat="44.63015" lon="0.95187">
        <ele>239.7</ele>
        <time>2018-07-22T13:08:58Z</time>
      </trkpt>
      <trkpt lat="44.63011" lon="0.95194">
        <ele>239.6</ele>
        <time>2018-07-22T13:08:59Z</time>
      </trkpt>
      <trkpt lat="44.63006" lon="0.95198">
        <ele>239.2</ele>
        <time>2018-07-22T13:09:00Z</time>
      </trkpt>
      <trkpt lat="44.63001" lon="0.95203">
        <ele>239</ele>
        <time>2018-07-22T13:09:01Z</time>
      </trkpt>
      <trkpt lat="44.62996" lon="0.95206">
        <ele>238.7</ele>
        <time>2018-07-22T13:09:02Z</time>
      </trkpt>
      <trkpt lat="44.62993" lon="0.95208">
        <ele>238.5</ele>
        <time>2018-07-22T13:09:03Z</time>
      </trkpt>
      <trkpt lat="44.6299" lon="0.95212">
        <ele>238.4</ele>
        <time>2018-07-22T13:09:04Z</time>
      </trkpt>
      <trkpt lat="44.62987" lon="0.95216">
        <ele>238.2</ele>
        <time>2018-07-22T13:09:05Z</time>
      </trkpt>
      <trkpt lat="44.6298" lon="0.95219">
        <ele>238.1</ele>
        <time>2018-07-22T13:09:06Z</time>
      </trkpt>
      <trkpt lat="44.62975" lon="0.95221">
        <ele>237.9</ele>
        <time>2018-07-22T13:09:07Z</time>
      </trkpt>
      <trkpt lat="44.6297" lon="0.95222">
        <ele>237.8</ele>
        <time>2018-07-22T13:09:08Z</time>
      </trkpt>
      <trkpt lat="44.62962" lon="0.95226">
        <ele>237.4</ele>
        <time>2018-07-22T13:09:09Z</time>
      </trkpt>
      <trkpt lat="44.62957" lon="0.95229">
        <ele>237.1</ele>
        <time>2018-07-22T13:09:10Z</time>
      </trkpt>
      <trkpt lat="44.62951" lon="0.95237">
        <ele>237</ele>
        <time>2018-07-22T13:09:11Z</time>
      </trkpt>
      <trkpt lat="44.62945" lon="0.9524">
        <ele>237</ele>
        <time>2018-07-22T13:09:12Z</time>
      </trkpt>
      <trkpt lat="44.62939" lon="0.95242">
        <ele>237</ele>
        <time>2018-07-22T13:09:13Z</time>
      </trkpt>
      <trkpt lat="44.62932" lon="0.95241">
        <ele>236.9</ele>
        <time>2018-07-22T13:09:14Z</time>
      </trkpt>
      <trkpt lat="44.6293" lon="0.95246">
        <ele>236.8</ele>
        <time>2018-07-22T13:09:15Z</time>
      </trkpt>
      <trkpt lat="44.62924" lon="0.95249">
        <ele>236.7</ele>
        <time>2018-07-22T13:09:17Z</time>
      </trkpt>
      <trkpt lat="44.62919" lon="0.9525">
        <ele>236.5</ele>
        <time>2018-07-22T13:09:18Z</time>
      </trkpt>
      <trkpt lat="44.62915" lon="0.95251">
        <ele>236.5</ele>
        <time>2018-07-22T13:09:19Z</time>
      </trkpt>
      <trkpt lat="44.62909" lon="0.95254">
        <ele>236.6</ele>
        <time>2018-07-22T13:09:20Z</time>
      </trkpt>
      <trkpt lat="44.62904" lon="0.95257">
        <ele>236.6</ele>
        <time>2018-07-22T13:09:21Z</time>
      </trkpt>
      <trkpt lat="44.62899" lon="0.95258">
        <ele>236.5</ele>
        <time>2018-07-22T13:09:22Z</time>
      </trkpt>
      <trkpt lat="44.62895" lon="0.95258">
        <ele>236.4</ele>
        <time>2018-07-22T13:09:23Z</time>
      </trkpt>
      <trkpt lat="44.62892" lon="0.9526">
        <ele>236.4</ele>
        <time>2018-07-22T13:09:24Z</time>
      </trkpt>
      <trkpt lat="44.62886" lon="0.95263">
        <ele>236.8</ele>
        <time>2018-07-22T13:09:25Z</time>
      </trkpt>
      <trkpt lat="44.62881" lon="0.95264">
        <ele>237.2</ele>
        <time>2018-07-22T13:09:26Z</time>
      </trkpt>
      <trkpt lat="44.62878" lon="0.95269">
        <ele>237.5</ele>
        <time>2018-07-22T13:09:27Z</time>
      </trkpt>
      <trkpt lat="44.62873" lon="0.95272">
        <ele>237.8</ele>
        <time>2018-07-22T13:09:28Z</time>
      </trkpt>
      <trkpt lat="44.62868" lon="0.95276">
        <ele>238</ele>
        <time>2018-07-22T13:09:29Z</time>
      </trkpt>
      <trkpt lat="44.62864" lon="0.95277">
        <ele>238.2</ele>
        <time>2018-07-22T13:09:30Z</time>
      </trkpt>
      <trkpt lat="44.6286" lon="0.9528">
        <ele>238.2</ele>
        <time>2018-07-22T13:09:31Z</time>
      </trkpt>
      <trkpt lat="44.62857" lon="0.95284">
        <ele>238</ele>
        <time>2018-07-22T13:09:32Z</time>
      </trkpt>
      <trkpt lat="44.62852" lon="0.95287">
        <ele>238.1</ele>
        <time>2018-07-22T13:09:33Z</time>
      </trkpt>
      <trkpt lat="44.62849" lon="0.95288">
        <ele>238.2</ele>
        <time>2018-07-22T13:09:34Z</time>
      </trkpt>
      <trkpt lat="44.62844" lon="0.95291">
        <ele>238.1</ele>
        <time>2018-07-22T13:09:35Z</time>
      </trkpt>
      <trkpt lat="44.6284" lon="0.9529">
        <ele>238.1</ele>
        <time>2018-07-22T13:09:36Z</time>
      </trkpt>
      <trkpt lat="44.62836" lon="0.95291">
        <ele>238.1</ele>
        <time>2018-07-22T13:09:37Z</time>
      </trkpt>
      <trkpt lat="44.62831" lon="0.95293">
        <ele>238.2</ele>
        <time>2018-07-22T13:09:38Z</time>
      </trkpt>
      <trkpt lat="44.62823" lon="0.95294">
        <ele>238.6</ele>
        <time>2018-07-22T13:09:39Z</time>
      </trkpt>
      <trkpt lat="44.62818" lon="0.95295">
        <ele>238.7</ele>
        <time>2018-07-22T13:09:40Z</time>
      </trkpt>
      <trkpt lat="44.62813" lon="0.95297">
        <ele>238.9</ele>
        <time>2018-07-22T13:09:41Z</time>
      </trkpt>
      <trkpt lat="44.62803" lon="0.95299">
        <ele>239.3</ele>
        <time>2018-07-22T13:09:42Z</time>
      </trkpt>
      <trkpt lat="44.62797" lon="0.95302">
        <ele>239.4</ele>
        <time>2018-07-22T13:09:43Z</time>
      </trkpt>
      <trkpt lat="44.62786" lon="0.9531">
        <ele>239.9</ele>
        <time>2018-07-22T13:09:44Z</time>
      </trkpt>
      <trkpt lat="44.62779" lon="0.95311">
        <ele>240</ele>
        <time>2018-07-22T13:09:45Z</time>
      </trkpt>
      <trkpt lat="44.62771" lon="0.95315">
        <ele>239.8</ele>
        <time>2018-07-22T13:09:46Z</time>
      </trkpt>
      <trkpt lat="44.62764" lon="0.95319">
        <ele>239.8</ele>
        <time>2018-07-22T13:09:47Z</time>
      </trkpt>
      <trkpt lat="44.62758" lon="0.95322">
        <ele>239.7</ele>
        <time>2018-07-22T13:09:48Z</time>
      </trkpt>
      <trkpt lat="44.62751" lon="0.95328">
        <ele>239.7</ele>
        <time>2018-07-22T13:09:49Z</time>
      </trkpt>
      <trkpt lat="44.62744" lon="0.95334">
        <ele>240</ele>
        <time>2018-07-22T13:09:50Z</time>
      </trkpt>
      <trkpt lat="44.62738" lon="0.95337">
        <ele>239.8</ele>
        <time>2018-07-22T13:09:51Z</time>
      </trkpt>
      <trkpt lat="44.62731" lon="0.95342">
        <ele>239.9</ele>
        <time>2018-07-22T13:09:52Z</time>
      </trkpt>
      <trkpt lat="44.62724" lon="0.95346">
        <ele>239.6</ele>
        <time>2018-07-22T13:09:53Z</time>
      </trkpt>
      <trkpt lat="44.62716" lon="0.95351">
        <ele>239.4</ele>
        <time>2018-07-22T13:09:54Z</time>
      </trkpt>
      <trkpt lat="44.62709" lon="0.95356">
        <ele>239</ele>
        <time>2018-07-22T13:09:55Z</time>
      </trkpt>
      <trkpt lat="44.62703" lon="0.9536">
        <ele>238.5</ele>
        <time>2018-07-22T13:09:56Z</time>
      </trkpt>
      <trkpt lat="44.62696" lon="0.95367">
        <ele>238.3</ele>
        <time>2018-07-22T13:09:57Z</time>
      </trkpt>
      <trkpt lat="44.62688" lon="0.95374">
        <ele>238</ele>
        <time>2018-07-22T13:09:58Z</time>
      </trkpt>
      <trkpt lat="44.62681" lon="0.9538">
        <ele>237.8</ele>
        <time>2018-07-22T13:09:59Z</time>
      </trkpt>
      <trkpt lat="44.62673" lon="0.95384">
        <ele>237.5</ele>
        <time>2018-07-22T13:10:00Z</time>
      </trkpt>
      <trkpt lat="44.62666" lon="0.95389">
        <ele>237.1</ele>
        <time>2018-07-22T13:10:01Z</time>
      </trkpt>
      <trkpt lat="44.62657" lon="0.95393">
        <ele>236.7</ele>
        <time>2018-07-22T13:10:02Z</time>
      </trkpt>
      <trkpt lat="44.6265" lon="0.95397">
        <ele>236.4</ele>
        <time>2018-07-22T13:10:03Z</time>
      </trkpt>
      <trkpt lat="44.62642" lon="0.95401">
        <ele>236.2</ele>
        <time>2018-07-22T13:10:04Z</time>
      </trkpt>
      <trkpt lat="44.62635" lon="0.95405">
        <ele>236.1</ele>
        <time>2018-07-22T13:10:05Z</time>
      </trkpt>
      <trkpt lat="44.62628" lon="0.95408">
        <ele>235.8</ele>
        <time>2018-07-22T13:10:06Z</time>
      </trkpt>
      <trkpt lat="44.62621" lon="0.9541">
        <ele>235.7</ele>
        <time>2018-07-22T13:10:07Z</time>
      </trkpt>
      <trkpt lat="44.62614" lon="0.95414">
        <ele>235.8</ele>
        <time>2018-07-22T13:10:08Z</time>
      </trkpt>
      <trkpt lat="44.62607" lon="0.95416">
        <ele>235.8</ele>
        <time>2018-07-22T13:10:09Z</time>
      </trkpt>
      <trkpt lat="44.62601" lon="0.95419">
        <ele>235.8</ele>
        <time>2018-07-22T13:10:10Z</time>
      </trkpt>
      <trkpt lat="44.62594" lon="0.95423">
        <ele>235.8</ele>
        <time>2018-07-22T13:10:11Z</time>
      </trkpt>
      <trkpt lat="44.62588" lon="0.95426">
        <ele>235.6</ele>
        <time>2018-07-22T13:10:12Z</time>
      </trkpt>
      <trkpt lat="44.62581" lon="0.95429">
        <ele>235.7</ele>
        <time>2018-07-22T13:10:13Z</time>
      </trkpt>
      <trkpt lat="44.62574" lon="0.95431">
        <ele>235.5</ele>
        <time>2018-07-22T13:10:14Z</time>
      </trkpt>
      <trkpt lat="44.62567" lon="0.95432">
        <ele>235.4</ele>
        <time>2018-07-22T13:10:15Z</time>
      </trkpt>
      <trkpt lat="44.62557" lon="0.95429">
        <ele>235.4</ele>
        <time>2018-07-22T13:10:16Z</time>
      </trkpt>
      <trkpt lat="44.62549" lon="0.95431">
        <ele>235.1</ele>
        <time>2018-07-22T13:10:17Z</time>
      </trkpt>
      <trkpt lat="44.6254" lon="0.95429">
        <ele>234.7</ele>
        <time>2018-07-22T13:10:18Z</time>
      </trkpt>
      <trkpt lat="44.62531" lon="0.95429">
        <ele>234.3</ele>
        <time>2018-07-22T13:10:19Z</time>
      </trkpt>
      <trkpt lat="44.62524" lon="0.95427">
        <ele>234.1</ele>
        <time>2018-07-22T13:10:20Z</time>
      </trkpt>
      <trkpt lat="44.62516" lon="0.95425">
        <ele>234</ele>
        <time>2018-07-22T13:10:21Z</time>
      </trkpt>
      <trkpt lat="44.62508" lon="0.95424">
        <ele>233.9</ele>
        <time>2018-07-22T13:10:22Z</time>
      </trkpt>
      <trkpt lat="44.62501" lon="0.95422">
        <ele>233.9</ele>
        <time>2018-07-22T13:10:23Z</time>
      </trkpt>
      <trkpt lat="44.62494" lon="0.95419">
        <ele>233.8</ele>
        <time>2018-07-22T13:10:24Z</time>
      </trkpt>
      <trkpt lat="44.62487" lon="0.95416">
        <ele>233.8</ele>
        <time>2018-07-22T13:10:25Z</time>
      </trkpt>
      <trkpt lat="44.62478" lon="0.95413">
        <ele>233.8</ele>
        <time>2018-07-22T13:10:26Z</time>
      </trkpt>
      <trkpt lat="44.62472" lon="0.9541">
        <ele>234</ele>
        <time>2018-07-22T13:10:27Z</time>
      </trkpt>
      <trkpt lat="44.62465" lon="0.95407">
        <ele>234.1</ele>
        <time>2018-07-22T13:10:28Z</time>
      </trkpt>
      <trkpt lat="44.62458" lon="0.95403">
        <ele>234.3</ele>
        <time>2018-07-22T13:10:29Z</time>
      </trkpt>
      <trkpt lat="44.62452" lon="0.95398">
        <ele>234.6</ele>
        <time>2018-07-22T13:10:31Z</time>
      </trkpt>
      <trkpt lat="44.62445" lon="0.95393">
        <ele>234.7</ele>
        <time>2018-07-22T13:10:32Z</time>
      </trkpt>
      <trkpt lat="44.62437" lon="0.95389">
        <ele>235</ele>
        <time>2018-07-22T13:10:33Z</time>
      </trkpt>
      <trkpt lat="44.62429" lon="0.95386">
        <ele>235.2</ele>
        <time>2018-07-22T13:10:34Z</time>
      </trkpt>
      <trkpt lat="44.62421" lon="0.95383">
        <ele>235.4</ele>
        <time>2018-07-22T13:10:35Z</time>
      </trkpt>
      <trkpt lat="44.62411" lon="0.95382">
        <ele>235.6</ele>
        <time>2018-07-22T13:10:36Z</time>
      </trkpt>
      <trkpt lat="44.62402" lon="0.95379">
        <ele>235.9</ele>
        <time>2018-07-22T13:10:37Z</time>
      </trkpt>
      <trkpt lat="44.62395" lon="0.95376">
        <ele>236.1</ele>
        <time>2018-07-22T13:10:38Z</time>
      </trkpt>
      <trkpt lat="44.62388" lon="0.95372">
        <ele>236.4</ele>
        <time>2018-07-22T13:10:39Z</time>
      </trkpt>
      <trkpt lat="44.62382" lon="0.9537">
        <ele>236.6</ele>
        <time>2018-07-22T13:10:40Z</time>
      </trkpt>
      <trkpt lat="44.62373" lon="0.95369">
        <ele>236.8</ele>
        <time>2018-07-22T13:10:41Z</time>
      </trkpt>
      <trkpt lat="44.62366" lon="0.95367">
        <ele>237</ele>
        <time>2018-07-22T13:10:42Z</time>
      </trkpt>
      <trkpt lat="44.62359" lon="0.95365">
        <ele>237.2</ele>
        <time>2018-07-22T13:10:43Z</time>
      </trkpt>
      <trkpt lat="44.62357" lon="0.95362">
        <ele>237.3</ele>
        <time>2018-07-22T13:10:44Z</time>
      </trkpt>
      <trkpt lat="44.62349" lon="0.95361">
        <ele>237.4</ele>
        <time>2018-07-22T13:10:45Z</time>
      </trkpt>
      <trkpt lat="44.62343" lon="0.9536">
        <ele>237.6</ele>
        <time>2018-07-22T13:10:46Z</time>
      </trkpt>
      <trkpt lat="44.62331" lon="0.95359">
        <ele>237.8</ele>
        <time>2018-07-22T13:10:47Z</time>
      </trkpt>
      <trkpt lat="44.62322" lon="0.9536">
        <ele>237.8</ele>
        <time>2018-07-22T13:10:48Z</time>
      </trkpt>
      <trkpt lat="44.62315" lon="0.95362">
        <ele>237.9</ele>
        <time>2018-07-22T13:10:49Z</time>
      </trkpt>
      <trkpt lat="44.62308" lon="0.95363">
        <ele>237.9</ele>
        <time>2018-07-22T13:10:50Z</time>
      </trkpt>
      <trkpt lat="44.62302" lon="0.95363">
        <ele>237.9</ele>
        <time>2018-07-22T13:10:51Z</time>
      </trkpt>
      <trkpt lat="44.62298" lon="0.95362">
        <ele>237.9</ele>
        <time>2018-07-22T13:10:52Z</time>
      </trkpt>
      <trkpt lat="44.62291" lon="0.95362">
        <ele>237.8</ele>
        <time>2018-07-22T13:10:53Z</time>
      </trkpt>
      <trkpt lat="44.62285" lon="0.9536">
        <ele>237.8</ele>
        <time>2018-07-22T13:10:54Z</time>
      </trkpt>
      <trkpt lat="44.6228" lon="0.95359">
        <ele>237.7</ele>
        <time>2018-07-22T13:10:55Z</time>
      </trkpt>
      <trkpt lat="44.62276" lon="0.95359">
        <ele>237.7</ele>
        <time>2018-07-22T13:10:56Z</time>
      </trkpt>
      <trkpt lat="44.6227" lon="0.95359">
        <ele>237.7</ele>
        <time>2018-07-22T13:10:57Z</time>
      </trkpt>
      <trkpt lat="44.62264" lon="0.95356">
        <ele>237.7</ele>
        <time>2018-07-22T13:10:58Z</time>
      </trkpt>
      <trkpt lat="44.6226" lon="0.95355">
        <ele>237.7</ele>
        <time>2018-07-22T13:10:59Z</time>
      </trkpt>
      <trkpt lat="44.62254" lon="0.95354">
        <ele>237.6</ele>
        <time>2018-07-22T13:11:00Z</time>
      </trkpt>
      <trkpt lat="44.62249" lon="0.95353">
        <ele>237.6</ele>
        <time>2018-07-22T13:11:01Z</time>
      </trkpt>
      <trkpt lat="44.62244" lon="0.95354">
        <ele>237.5</ele>
        <time>2018-07-22T13:11:02Z</time>
      </trkpt>
      <trkpt lat="44.62239" lon="0.95352">
        <ele>237.5</ele>
        <time>2018-07-22T13:11:03Z</time>
      </trkpt>
      <trkpt lat="44.62232" lon="0.95351">
        <ele>237.4</ele>
        <time>2018-07-22T13:11:04Z</time>
      </trkpt>
      <trkpt lat="44.62227" lon="0.95349">
        <ele>237.3</ele>
        <time>2018-07-22T13:11:05Z</time>
      </trkpt>
      <trkpt lat="44.62223" lon="0.95347">
        <ele>237.2</ele>
        <time>2018-07-22T13:11:06Z</time>
      </trkpt>
      <trkpt lat="44.62218" lon="0.95344">
        <ele>237.2</ele>
        <time>2018-07-22T13:11:07Z</time>
      </trkpt>
      <trkpt lat="44.62212" lon="0.95341">
        <ele>237.2</ele>
        <time>2018-07-22T13:11:08Z</time>
      </trkpt>
      <trkpt lat="44.62207" lon="0.95338">
        <ele>237.2</ele>
        <time>2018-07-22T13:11:09Z</time>
      </trkpt>
      <trkpt lat="44.62201" lon="0.95337">
        <ele>237.3</ele>
        <time>2018-07-22T13:11:10Z</time>
      </trkpt>
      <trkpt lat="44.62195" lon="0.95336">
        <ele>237.6</ele>
        <time>2018-07-22T13:11:11Z</time>
      </trkpt>
      <trkpt lat="44.62189" lon="0.95335">
        <ele>237.9</ele>
        <time>2018-07-22T13:11:12Z</time>
      </trkpt>
      <trkpt lat="44.62184" lon="0.95334">
        <ele>238.2</ele>
        <time>2018-07-22T13:11:13Z</time>
      </trkpt>
      <trkpt lat="44.62179" lon="0.95333">
        <ele>238.4</ele>
        <time>2018-07-22T13:11:14Z</time>
      </trkpt>
      <trkpt lat="44.62175" lon="0.95333">
        <ele>238.7</ele>
        <time>2018-07-22T13:11:15Z</time>
      </trkpt>
      <trkpt lat="44.62171" lon="0.95332">
        <ele>238.9</ele>
        <time>2018-07-22T13:11:16Z</time>
      </trkpt>
      <trkpt lat="44.62167" lon="0.95329">
        <ele>239.3</ele>
        <time>2018-07-22T13:11:17Z</time>
      </trkpt>
      <trkpt lat="44.62163" lon="0.95326">
        <ele>239.6</ele>
        <time>2018-07-22T13:11:18Z</time>
      </trkpt>
      <trkpt lat="44.62158" lon="0.95325">
        <ele>239.9</ele>
        <time>2018-07-22T13:11:19Z</time>
      </trkpt>
      <trkpt lat="44.62156" lon="0.95323">
        <ele>240</ele>
        <time>2018-07-22T13:11:20Z</time>
      </trkpt>
      <trkpt lat="44.62153" lon="0.95322">
        <ele>240.3</ele>
        <time>2018-07-22T13:11:21Z</time>
      </trkpt>
      <trkpt lat="44.62149" lon="0.95321">
        <ele>240.7</ele>
        <time>2018-07-22T13:11:22Z</time>
      </trkpt>
      <trkpt lat="44.62146" lon="0.95321">
        <ele>241</ele>
        <time>2018-07-22T13:11:23Z</time>
      </trkpt>
      <trkpt lat="44.62141" lon="0.95321">
        <ele>241.4</ele>
        <time>2018-07-22T13:11:24Z</time>
      </trkpt>
      <trkpt lat="44.62138" lon="0.9532">
        <ele>241.7</ele>
        <time>2018-07-22T13:11:25Z</time>
      </trkpt>
      <trkpt lat="44.62135" lon="0.95319">
        <ele>242</ele>
        <time>2018-07-22T13:11:26Z</time>
      </trkpt>
      <trkpt lat="44.62131" lon="0.95318">
        <ele>242.2</ele>
        <time>2018-07-22T13:11:27Z</time>
      </trkpt>
      <trkpt lat="44.62128" lon="0.95317">
        <ele>242.5</ele>
        <time>2018-07-22T13:11:28Z</time>
      </trkpt>
      <trkpt lat="44.62125" lon="0.95316">
        <ele>242.7</ele>
        <time>2018-07-22T13:11:29Z</time>
      </trkpt>
      <trkpt lat="44.62122" lon="0.95316">
        <ele>242.9</ele>
        <time>2018-07-22T13:11:30Z</time>
      </trkpt>
      <trkpt lat="44.62118" lon="0.95315">
        <ele>243.1</ele>
        <time>2018-07-22T13:11:31Z</time>
      </trkpt>
      <trkpt lat="44.62115" lon="0.95316">
        <ele>243.3</ele>
        <time>2018-07-22T13:11:32Z</time>
      </trkpt>
      <trkpt lat="44.62112" lon="0.95316">
        <ele>243.5</ele>
        <time>2018-07-22T13:11:33Z</time>
      </trkpt>
      <trkpt lat="44.62109" lon="0.95316">
        <ele>243.7</ele>
        <time>2018-07-22T13:11:34Z</time>
      </trkpt>
      <trkpt lat="44.62106" lon="0.95316">
        <ele>243.8</ele>
        <time>2018-07-22T13:11:35Z</time>
      </trkpt>
      <trkpt lat="44.62102" lon="0.95316">
        <ele>243.9</ele>
        <time>2018-07-22T13:11:36Z</time>
      </trkpt>
      <trkpt lat="44.62099" lon="0.95316">
        <ele>244.1</ele>
        <time>2018-07-22T13:11:37Z</time>
      </trkpt>
      <trkpt lat="44.62096" lon="0.95316">
        <ele>244.3</ele>
        <time>2018-07-22T13:11:38Z</time>
      </trkpt>
      <trkpt lat="44.62092" lon="0.95317">
        <ele>244.5</ele>
        <time>2018-07-22T13:11:39Z</time>
      </trkpt>
      <trkpt lat="44.62088" lon="0.95318">
        <ele>244.7</ele>
        <time>2018-07-22T13:11:40Z</time>
      </trkpt>
      <trkpt lat="44.62083" lon="0.95318">
        <ele>244.9</ele>
        <time>2018-07-22T13:11:41Z</time>
      </trkpt>
      <trkpt lat="44.62079" lon="0.95318">
        <ele>245.1</ele>
        <time>2018-07-22T13:11:42Z</time>
      </trkpt>
      <trkpt lat="44.62074" lon="0.95318">
        <ele>245.4</ele>
        <time>2018-07-22T13:11:43Z</time>
      </trkpt>
      <trkpt lat="44.62069" lon="0.95317">
        <ele>245.6</ele>
        <time>2018-07-22T13:11:44Z</time>
      </trkpt>
      <trkpt lat="44.62063" lon="0.95316">
        <ele>245.9</ele>
        <time>2018-07-22T13:11:45Z</time>
      </trkpt>
      <trkpt lat="44.62059" lon="0.95314">
        <ele>246.1</ele>
        <time>2018-07-22T13:11:46Z</time>
      </trkpt>
      <trkpt lat="44.62054" lon="0.95313">
        <ele>246.4</ele>
        <time>2018-07-22T13:11:47Z</time>
      </trkpt>
      <trkpt lat="44.62049" lon="0.95311">
        <ele>246.7</ele>
        <time>2018-07-22T13:11:48Z</time>
      </trkpt>
      <trkpt lat="44.62044" lon="0.95309">
        <ele>247</ele>
        <time>2018-07-22T13:11:49Z</time>
      </trkpt>
      <trkpt lat="44.62039" lon="0.95307">
        <ele>247.2</ele>
        <time>2018-07-22T13:11:50Z</time>
      </trkpt>
      <trkpt lat="44.62034" lon="0.95305">
        <ele>247.5</ele>
        <time>2018-07-22T13:11:51Z</time>
      </trkpt>
      <trkpt lat="44.62028" lon="0.95303">
        <ele>247.8</ele>
        <time>2018-07-22T13:11:52Z</time>
      </trkpt>
      <trkpt lat="44.62023" lon="0.953">
        <ele>247.9</ele>
        <time>2018-07-22T13:11:53Z</time>
      </trkpt>
      <trkpt lat="44.62018" lon="0.95297">
        <ele>248.2</ele>
        <time>2018-07-22T13:11:54Z</time>
      </trkpt>
      <trkpt lat="44.62013" lon="0.95295">
        <ele>248.4</ele>
        <time>2018-07-22T13:11:55Z</time>
      </trkpt>
      <trkpt lat="44.62008" lon="0.95292">
        <ele>248.6</ele>
        <time>2018-07-22T13:11:56Z</time>
      </trkpt>
      <trkpt lat="44.62003" lon="0.95289">
        <ele>248.8</ele>
        <time>2018-07-22T13:11:57Z</time>
      </trkpt>
      <trkpt lat="44.61998" lon="0.95285">
        <ele>249</ele>
        <time>2018-07-22T13:11:58Z</time>
      </trkpt>
      <trkpt lat="44.61992" lon="0.95282">
        <ele>249.1</ele>
        <time>2018-07-22T13:11:59Z</time>
      </trkpt>
      <trkpt lat="44.61987" lon="0.9528">
        <ele>249.2</ele>
        <time>2018-07-22T13:12:00Z</time>
      </trkpt>
      <trkpt lat="44.61983" lon="0.95277">
        <ele>249.4</ele>
        <time>2018-07-22T13:12:01Z</time>
      </trkpt>
      <trkpt lat="44.61978" lon="0.95275">
        <ele>249.5</ele>
        <time>2018-07-22T13:12:02Z</time>
      </trkpt>
      <trkpt lat="44.61973" lon="0.95272">
        <ele>249.7</ele>
        <time>2018-07-22T13:12:03Z</time>
      </trkpt>
      <trkpt lat="44.61968" lon="0.9527">
        <ele>249.8</ele>
        <time>2018-07-22T13:12:04Z</time>
      </trkpt>
      <trkpt lat="44.61964" lon="0.95268">
        <ele>249.9</ele>
        <time>2018-07-22T13:12:05Z</time>
      </trkpt>
      <trkpt lat="44.61959" lon="0.95266">
        <ele>250</ele>
        <time>2018-07-22T13:12:06Z</time>
      </trkpt>
      <trkpt lat="44.61955" lon="0.95265">
        <ele>250</ele>
        <time>2018-07-22T13:12:07Z</time>
      </trkpt>
      <trkpt lat="44.6195" lon="0.95264">
        <ele>250.1</ele>
        <time>2018-07-22T13:12:08Z</time>
      </trkpt>
      <trkpt lat="44.61945" lon="0.95263">
        <ele>250.3</ele>
        <time>2018-07-22T13:12:09Z</time>
      </trkpt>
      <trkpt lat="44.6194" lon="0.95262">
        <ele>250.4</ele>
        <time>2018-07-22T13:12:10Z</time>
      </trkpt>
      <trkpt lat="44.61934" lon="0.95261">
        <ele>250.6</ele>
        <time>2018-07-22T13:12:11Z</time>
      </trkpt>
      <trkpt lat="44.61929" lon="0.9526">
        <ele>250.8</ele>
        <time>2018-07-22T13:12:12Z</time>
      </trkpt>
      <trkpt lat="44.61923" lon="0.95257">
        <ele>251</ele>
        <time>2018-07-22T13:12:13Z</time>
      </trkpt>
      <trkpt lat="44.61917" lon="0.95254">
        <ele>251.2</ele>
        <time>2018-07-22T13:12:14Z</time>
      </trkpt>
      <trkpt lat="44.61913" lon="0.95252">
        <ele>251.4</ele>
        <time>2018-07-22T13:12:15Z</time>
      </trkpt>
      <trkpt lat="44.61908" lon="0.95248">
        <ele>251.5</ele>
        <time>2018-07-22T13:12:16Z</time>
      </trkpt>
      <trkpt lat="44.61903" lon="0.95245">
        <ele>251.7</ele>
        <time>2018-07-22T13:12:17Z</time>
      </trkpt>
      <trkpt lat="44.61897" lon="0.95243">
        <ele>251.9</ele>
        <time>2018-07-22T13:12:18Z</time>
      </trkpt>
      <trkpt lat="44.61891" lon="0.95239">
        <ele>252.1</ele>
        <time>2018-07-22T13:12:19Z</time>
      </trkpt>
      <trkpt lat="44.61885" lon="0.95236">
        <ele>252.2</ele>
        <time>2018-07-22T13:12:20Z</time>
      </trkpt>
      <trkpt lat="44.61878" lon="0.95237">
        <ele>252.3</ele>
        <time>2018-07-22T13:12:21Z</time>
      </trkpt>
      <trkpt lat="44.61873" lon="0.95236">
        <ele>252.4</ele>
        <time>2018-07-22T13:12:22Z</time>
      </trkpt>
      <trkpt lat="44.61865" lon="0.95234">
        <ele>252.6</ele>
        <time>2018-07-22T13:12:23Z</time>
      </trkpt>
      <trkpt lat="44.61859" lon="0.95235">
        <ele>252.6</ele>
        <time>2018-07-22T13:12:24Z</time>
      </trkpt>
      <trkpt lat="44.61854" lon="0.95233">
        <ele>252.6</ele>
        <time>2018-07-22T13:12:25Z</time>
      </trkpt>
      <trkpt lat="44.61849" lon="0.95232">
        <ele>252.6</ele>
        <time>2018-07-22T13:12:26Z</time>
      </trkpt>
      <trkpt lat="44.61844" lon="0.95232">
        <ele>252.6</ele>
        <time>2018-07-22T13:12:27Z</time>
      </trkpt>
      <trkpt lat="44.61841" lon="0.9523">
        <ele>252.7</ele>
        <time>2018-07-22T13:12:28Z</time>
      </trkpt>
      <trkpt lat="44.61836" lon="0.95229">
        <ele>252.6</ele>
        <time>2018-07-22T13:12:29Z</time>
      </trkpt>
      <trkpt lat="44.61828" lon="0.95227">
        <ele>252.5</ele>
        <time>2018-07-22T13:12:30Z</time>
      </trkpt>
      <trkpt lat="44.61823" lon="0.95227">
        <ele>252.4</ele>
        <time>2018-07-22T13:12:32Z</time>
      </trkpt>
      <trkpt lat="44.61816" lon="0.95224">
        <ele>252.1</ele>
        <time>2018-07-22T13:12:34Z</time>
      </trkpt>
      <trkpt lat="44.6181" lon="0.95223">
        <ele>251.9</ele>
        <time>2018-07-22T13:12:35Z</time>
      </trkpt>
      <trkpt lat="44.61806" lon="0.95221">
        <ele>251.6</ele>
        <time>2018-07-22T13:12:36Z</time>
      </trkpt>
      <trkpt lat="44.618" lon="0.95222">
        <ele>251.4</ele>
        <time>2018-07-22T13:12:37Z</time>
      </trkpt>
      <trkpt lat="44.61796" lon="0.95221">
        <ele>251.3</ele>
        <time>2018-07-22T13:12:38Z</time>
      </trkpt>
      <trkpt lat="44.61788" lon="0.95222">
        <ele>250.9</ele>
        <time>2018-07-22T13:12:39Z</time>
      </trkpt>
      <trkpt lat="44.61784" lon="0.9522">
        <ele>250.7</ele>
        <time>2018-07-22T13:12:40Z</time>
      </trkpt>
      <trkpt lat="44.61779" lon="0.95218">
        <ele>250.5</ele>
        <time>2018-07-22T13:12:41Z</time>
      </trkpt>
      <trkpt lat="44.61775" lon="0.95216">
        <ele>250.3</ele>
        <time>2018-07-22T13:12:42Z</time>
      </trkpt>
      <trkpt lat="44.61769" lon="0.95217">
        <ele>250.1</ele>
        <time>2018-07-22T13:12:43Z</time>
      </trkpt>
      <trkpt lat="44.61766" lon="0.95216">
        <ele>250.1</ele>
        <time>2018-07-22T13:12:44Z</time>
      </trkpt>
      <trkpt lat="44.61762" lon="0.95216">
        <ele>250</ele>
        <time>2018-07-22T13:12:45Z</time>
      </trkpt>
      <trkpt lat="44.61757" lon="0.95215">
        <ele>249.8</ele>
        <time>2018-07-22T13:12:46Z</time>
      </trkpt>
      <trkpt lat="44.61752" lon="0.95214">
        <ele>249.6</ele>
        <time>2018-07-22T13:12:47Z</time>
      </trkpt>
      <trkpt lat="44.61747" lon="0.95213">
        <ele>249.5</ele>
        <time>2018-07-22T13:12:48Z</time>
      </trkpt>
      <trkpt lat="44.61743" lon="0.95212">
        <ele>249.3</ele>
        <time>2018-07-22T13:12:49Z</time>
      </trkpt>
      <trkpt lat="44.61738" lon="0.9521">
        <ele>249.2</ele>
        <time>2018-07-22T13:12:50Z</time>
      </trkpt>
      <trkpt lat="44.61732" lon="0.95208">
        <ele>249.4</ele>
        <time>2018-07-22T13:12:51Z</time>
      </trkpt>
      <trkpt lat="44.61728" lon="0.95206">
        <ele>249.6</ele>
        <time>2018-07-22T13:12:52Z</time>
      </trkpt>
      <trkpt lat="44.61723" lon="0.95204">
        <ele>249.7</ele>
        <time>2018-07-22T13:12:53Z</time>
      </trkpt>
      <trkpt lat="44.61718" lon="0.95201">
        <ele>249.8</ele>
        <time>2018-07-22T13:12:54Z</time>
      </trkpt>
      <trkpt lat="44.61713" lon="0.952">
        <ele>249.8</ele>
        <time>2018-07-22T13:12:55Z</time>
      </trkpt>
      <trkpt lat="44.61708" lon="0.95199">
        <ele>249.8</ele>
        <time>2018-07-22T13:12:56Z</time>
      </trkpt>
      <trkpt lat="44.61702" lon="0.95198">
        <ele>249.8</ele>
        <time>2018-07-22T13:12:57Z</time>
      </trkpt>
      <trkpt lat="44.61697" lon="0.95197">
        <ele>249.6</ele>
        <time>2018-07-22T13:12:58Z</time>
      </trkpt>
      <trkpt lat="44.61691" lon="0.95197">
        <ele>249.5</ele>
        <time>2018-07-22T13:12:59Z</time>
      </trkpt>
      <trkpt lat="44.61686" lon="0.95196">
        <ele>249.4</ele>
        <time>2018-07-22T13:13:00Z</time>
      </trkpt>
      <trkpt lat="44.61681" lon="0.95197">
        <ele>249.2</ele>
        <time>2018-07-22T13:13:01Z</time>
      </trkpt>
      <trkpt lat="44.61676" lon="0.95197">
        <ele>249.1</ele>
        <time>2018-07-22T13:13:02Z</time>
      </trkpt>
      <trkpt lat="44.61671" lon="0.95196">
        <ele>249.1</ele>
        <time>2018-07-22T13:13:03Z</time>
      </trkpt>
      <trkpt lat="44.61667" lon="0.95196">
        <ele>249</ele>
        <time>2018-07-22T13:13:04Z</time>
      </trkpt>
      <trkpt lat="44.61662" lon="0.95194">
        <ele>249</ele>
        <time>2018-07-22T13:13:05Z</time>
      </trkpt>
      <trkpt lat="44.61658" lon="0.95194">
        <ele>249</ele>
        <time>2018-07-22T13:13:06Z</time>
      </trkpt>
      <trkpt lat="44.61653" lon="0.95193">
        <ele>249.1</ele>
        <time>2018-07-22T13:13:07Z</time>
      </trkpt>
      <trkpt lat="44.61649" lon="0.95193">
        <ele>249.1</ele>
        <time>2018-07-22T13:13:08Z</time>
      </trkpt>
      <trkpt lat="44.61644" lon="0.95192">
        <ele>249.1</ele>
        <time>2018-07-22T13:13:09Z</time>
      </trkpt>
      <trkpt lat="44.61637" lon="0.95192">
        <ele>249.2</ele>
        <time>2018-07-22T13:13:10Z</time>
      </trkpt>
      <trkpt lat="44.61632" lon="0.95191">
        <ele>249.3</ele>
        <time>2018-07-22T13:13:11Z</time>
      </trkpt>
      <trkpt lat="44.61629" lon="0.95188">
        <ele>249.5</ele>
        <time>2018-07-22T13:13:13Z</time>
      </trkpt>
      <trkpt lat="44.61624" lon="0.95186">
        <ele>249.7</ele>
        <time>2018-07-22T13:13:14Z</time>
      </trkpt>
      <trkpt lat="44.6162" lon="0.95182">
        <ele>249.8</ele>
        <time>2018-07-22T13:13:15Z</time>
      </trkpt>
      <trkpt lat="44.61611" lon="0.95182">
        <ele>250.2</ele>
        <time>2018-07-22T13:13:16Z</time>
      </trkpt>
      <trkpt lat="44.61605" lon="0.95181">
        <ele>250.3</ele>
        <time>2018-07-22T13:13:17Z</time>
      </trkpt>
      <trkpt lat="44.616" lon="0.95181">
        <ele>250.4</ele>
        <time>2018-07-22T13:13:18Z</time>
      </trkpt>
      <trkpt lat="44.61593" lon="0.9518">
        <ele>250.5</ele>
        <time>2018-07-22T13:13:19Z</time>
      </trkpt>
      <trkpt lat="44.61585" lon="0.95182">
        <ele>250.7</ele>
        <time>2018-07-22T13:13:20Z</time>
      </trkpt>
      <trkpt lat="44.61577" lon="0.95184">
        <ele>250.9</ele>
        <time>2018-07-22T13:13:21Z</time>
      </trkpt>
      <trkpt lat="44.61573" lon="0.95184">
        <ele>251</ele>
        <time>2018-07-22T13:13:22Z</time>
      </trkpt>
      <trkpt lat="44.61565" lon="0.95184">
        <ele>250.9</ele>
        <time>2018-07-22T13:13:23Z</time>
      </trkpt>
      <trkpt lat="44.61559" lon="0.95186">
        <ele>250.8</ele>
        <time>2018-07-22T13:13:24Z</time>
      </trkpt>
      <trkpt lat="44.6155" lon="0.95189">
        <ele>250.7</ele>
        <time>2018-07-22T13:13:25Z</time>
      </trkpt>
      <trkpt lat="44.61544" lon="0.95192">
        <ele>250.6</ele>
        <time>2018-07-22T13:13:26Z</time>
      </trkpt>
      <trkpt lat="44.61538" lon="0.95194">
        <ele>250.5</ele>
        <time>2018-07-22T13:13:27Z</time>
      </trkpt>
      <trkpt lat="44.61533" lon="0.95196">
        <ele>250.4</ele>
        <time>2018-07-22T13:13:28Z</time>
      </trkpt>
      <trkpt lat="44.61529" lon="0.95198">
        <ele>250.4</ele>
        <time>2018-07-22T13:13:29Z</time>
      </trkpt>
      <trkpt lat="44.61523" lon="0.95202">
        <ele>250.3</ele>
        <time>2018-07-22T13:13:30Z</time>
      </trkpt>
      <trkpt lat="44.61518" lon="0.95203">
        <ele>250.2</ele>
        <time>2018-07-22T13:13:31Z</time>
      </trkpt>
      <trkpt lat="44.61512" lon="0.95208">
        <ele>250.1</ele>
        <time>2018-07-22T13:13:32Z</time>
      </trkpt>
      <trkpt lat="44.61507" lon="0.95213">
        <ele>249.9</ele>
        <time>2018-07-22T13:13:33Z</time>
      </trkpt>
      <trkpt lat="44.61502" lon="0.95219">
        <ele>249.7</ele>
        <time>2018-07-22T13:13:34Z</time>
      </trkpt>
      <trkpt lat="44.61496" lon="0.95224">
        <ele>249.5</ele>
        <time>2018-07-22T13:13:35Z</time>
      </trkpt>
      <trkpt lat="44.61488" lon="0.95229">
        <ele>249.3</ele>
        <time>2018-07-22T13:13:36Z</time>
      </trkpt>
      <trkpt lat="44.61482" lon="0.95234">
        <ele>249</ele>
        <time>2018-07-22T13:13:37Z</time>
      </trkpt>
      <trkpt lat="44.61475" lon="0.9524">
        <ele>248.5</ele>
        <time>2018-07-22T13:13:38Z</time>
      </trkpt>
      <trkpt lat="44.61467" lon="0.95246">
        <ele>248</ele>
        <time>2018-07-22T13:13:39Z</time>
      </trkpt>
      <trkpt lat="44.61458" lon="0.95255">
        <ele>247.3</ele>
        <time>2018-07-22T13:13:40Z</time>
      </trkpt>
      <trkpt lat="44.61451" lon="0.95261">
        <ele>246.8</ele>
        <time>2018-07-22T13:13:41Z</time>
      </trkpt>
      <trkpt lat="44.61443" lon="0.95271">
        <ele>246.2</ele>
        <time>2018-07-22T13:13:42Z</time>
      </trkpt>
      <trkpt lat="44.61436" lon="0.95277">
        <ele>245.6</ele>
        <time>2018-07-22T13:13:43Z</time>
      </trkpt>
      <trkpt lat="44.61429" lon="0.95283">
        <ele>245.1</ele>
        <time>2018-07-22T13:13:44Z</time>
      </trkpt>
      <trkpt lat="44.6142" lon="0.9529">
        <ele>244.6</ele>
        <time>2018-07-22T13:13:45Z</time>
      </trkpt>
      <trkpt lat="44.61411" lon="0.95296">
        <ele>244.2</ele>
        <time>2018-07-22T13:13:46Z</time>
      </trkpt>
      <trkpt lat="44.61404" lon="0.95302">
        <ele>243.8</ele>
        <time>2018-07-22T13:13:47Z</time>
      </trkpt>
      <trkpt lat="44.61396" lon="0.95308">
        <ele>243.5</ele>
        <time>2018-07-22T13:13:48Z</time>
      </trkpt>
      <trkpt lat="44.61388" lon="0.95312">
        <ele>243.3</ele>
        <time>2018-07-22T13:13:49Z</time>
      </trkpt>
      <trkpt lat="44.6138" lon="0.95317">
        <ele>243.1</ele>
        <time>2018-07-22T13:13:50Z</time>
      </trkpt>
      <trkpt lat="44.61373" lon="0.95322">
        <ele>243</ele>
        <time>2018-07-22T13:13:51Z</time>
      </trkpt>
      <trkpt lat="44.61365" lon="0.95328">
        <ele>243</ele>
        <time>2018-07-22T13:13:52Z</time>
      </trkpt>
      <trkpt lat="44.61358" lon="0.95333">
        <ele>243.1</ele>
        <time>2018-07-22T13:13:53Z</time>
      </trkpt>
      <trkpt lat="44.61351" lon="0.95337">
        <ele>243.3</ele>
        <time>2018-07-22T13:13:54Z</time>
      </trkpt>
      <trkpt lat="44.61345" lon="0.95341">
        <ele>243.4</ele>
        <time>2018-07-22T13:13:55Z</time>
      </trkpt>
      <trkpt lat="44.61339" lon="0.95345">
        <ele>243.5</ele>
        <time>2018-07-22T13:13:56Z</time>
      </trkpt>
      <trkpt lat="44.61333" lon="0.95348">
        <ele>243.5</ele>
        <time>2018-07-22T13:13:57Z</time>
      </trkpt>
      <trkpt lat="44.61327" lon="0.95352">
        <ele>243.6</ele>
        <time>2018-07-22T13:13:58Z</time>
      </trkpt>
      <trkpt lat="44.61321" lon="0.95355">
        <ele>243.6</ele>
        <time>2018-07-22T13:13:59Z</time>
      </trkpt>
      <trkpt lat="44.61315" lon="0.95359">
        <ele>243.6</ele>
        <time>2018-07-22T13:14:00Z</time>
      </trkpt>
      <trkpt lat="44.61309" lon="0.95363">
        <ele>243.6</ele>
        <time>2018-07-22T13:14:01Z</time>
      </trkpt>
      <trkpt lat="44.61303" lon="0.95367">
        <ele>243.6</ele>
        <time>2018-07-22T13:14:02Z</time>
      </trkpt>
      <trkpt lat="44.61298" lon="0.95372">
        <ele>243.6</ele>
        <time>2018-07-22T13:14:03Z</time>
      </trkpt>
      <trkpt lat="44.61292" lon="0.95378">
        <ele>243.5</ele>
        <time>2018-07-22T13:14:04Z</time>
      </trkpt>
      <trkpt lat="44.61286" lon="0.95382">
        <ele>243.5</ele>
        <time>2018-07-22T13:14:05Z</time>
      </trkpt>
      <trkpt lat="44.61281" lon="0.95385">
        <ele>243.4</ele>
        <time>2018-07-22T13:14:06Z</time>
      </trkpt>
      <trkpt lat="44.61276" lon="0.95388">
        <ele>243.2</ele>
        <time>2018-07-22T13:14:07Z</time>
      </trkpt>
      <trkpt lat="44.6127" lon="0.9539">
        <ele>242.9</ele>
        <time>2018-07-22T13:14:08Z</time>
      </trkpt>
      <trkpt lat="44.61265" lon="0.95396">
        <ele>242.7</ele>
        <time>2018-07-22T13:14:09Z</time>
      </trkpt>
      <trkpt lat="44.61261" lon="0.95398">
        <ele>242.6</ele>
        <time>2018-07-22T13:14:10Z</time>
      </trkpt>
      <trkpt lat="44.61253" lon="0.95403">
        <ele>242</ele>
        <time>2018-07-22T13:14:11Z</time>
      </trkpt>
      <trkpt lat="44.61246" lon="0.95405">
        <ele>241.7</ele>
        <time>2018-07-22T13:14:12Z</time>
      </trkpt>
      <trkpt lat="44.61241" lon="0.95409">
        <ele>241.2</ele>
        <time>2018-07-22T13:14:13Z</time>
      </trkpt>
      <trkpt lat="44.61236" lon="0.95411">
        <ele>240.8</ele>
        <time>2018-07-22T13:14:14Z</time>
      </trkpt>
      <trkpt lat="44.61228" lon="0.95416">
        <ele>240.2</ele>
        <time>2018-07-22T13:14:15Z</time>
      </trkpt>
      <trkpt lat="44.61223" lon="0.95419">
        <ele>240</ele>
        <time>2018-07-22T13:14:16Z</time>
      </trkpt>
      <trkpt lat="44.61219" lon="0.95424">
        <ele>239.8</ele>
        <time>2018-07-22T13:14:17Z</time>
      </trkpt>
      <trkpt lat="44.61213" lon="0.95425">
        <ele>239.6</ele>
        <time>2018-07-22T13:14:18Z</time>
      </trkpt>
      <trkpt lat="44.6121" lon="0.95429">
        <ele>239.4</ele>
        <time>2018-07-22T13:14:19Z</time>
      </trkpt>
      <trkpt lat="44.61207" lon="0.95433">
        <ele>239.2</ele>
        <time>2018-07-22T13:14:20Z</time>
      </trkpt>
      <trkpt lat="44.61182" lon="0.95447">
        <ele>237.5</ele>
        <time>2018-07-22T13:14:22Z</time>
      </trkpt>
      <trkpt lat="44.6117" lon="0.95453">
        <ele>237</ele>
        <time>2018-07-22T13:14:23Z</time>
      </trkpt>
      <trkpt lat="44.61162" lon="0.95455">
        <ele>236.7</ele>
        <time>2018-07-22T13:14:24Z</time>
      </trkpt>
      <trkpt lat="44.61154" lon="0.95458">
        <ele>236.7</ele>
        <time>2018-07-22T13:14:25Z</time>
      </trkpt>
      <trkpt lat="44.61147" lon="0.95457">
        <ele>236.6</ele>
        <time>2018-07-22T13:14:26Z</time>
      </trkpt>
      <trkpt lat="44.61141" lon="0.95465">
        <ele>236.5</ele>
        <time>2018-07-22T13:14:27Z</time>
      </trkpt>
      <trkpt lat="44.61136" lon="0.95473">
        <ele>236.3</ele>
        <time>2018-07-22T13:14:28Z</time>
      </trkpt>
      <trkpt lat="44.6113" lon="0.95479">
        <ele>236.3</ele>
        <time>2018-07-22T13:14:29Z</time>
      </trkpt>
      <trkpt lat="44.61125" lon="0.95491">
        <ele>236.3</ele>
        <time>2018-07-22T13:14:30Z</time>
      </trkpt>
      <trkpt lat="44.6112" lon="0.955">
        <ele>236.2</ele>
        <time>2018-07-22T13:14:31Z</time>
      </trkpt>
      <trkpt lat="44.61117" lon="0.9551">
        <ele>236.1</ele>
        <time>2018-07-22T13:14:32Z</time>
      </trkpt>
      <trkpt lat="44.61113" lon="0.95519">
        <ele>236</ele>
        <time>2018-07-22T13:14:33Z</time>
      </trkpt>
      <trkpt lat="44.61111" lon="0.95529">
        <ele>235.8</ele>
        <time>2018-07-22T13:14:34Z</time>
      </trkpt>
      <trkpt lat="44.61109" lon="0.9554">
        <ele>235.8</ele>
        <time>2018-07-22T13:14:35Z</time>
      </trkpt>
      <trkpt lat="44.61106" lon="0.9555">
        <ele>235.8</ele>
        <time>2018-07-22T13:14:36Z</time>
      </trkpt>
      <trkpt lat="44.61101" lon="0.95559">
        <ele>235.9</ele>
        <time>2018-07-22T13:14:37Z</time>
      </trkpt>
      <trkpt lat="44.61097" lon="0.95568">
        <ele>236.2</ele>
        <time>2018-07-22T13:14:38Z</time>
      </trkpt>
      <trkpt lat="44.61092" lon="0.95575">
        <ele>236.4</ele>
        <time>2018-07-22T13:14:39Z</time>
      </trkpt>
      <trkpt lat="44.61088" lon="0.95584">
        <ele>236.8</ele>
        <time>2018-07-22T13:14:40Z</time>
      </trkpt>
      <trkpt lat="44.61084" lon="0.95592">
        <ele>237.2</ele>
        <time>2018-07-22T13:14:41Z</time>
      </trkpt>
      <trkpt lat="44.6108" lon="0.956">
        <ele>237.5</ele>
        <time>2018-07-22T13:14:42Z</time>
      </trkpt>
      <trkpt lat="44.61077" lon="0.95609">
        <ele>237.6</ele>
        <time>2018-07-22T13:14:43Z</time>
      </trkpt>
      <trkpt lat="44.61074" lon="0.95618">
        <ele>237.8</ele>
        <time>2018-07-22T13:14:44Z</time>
      </trkpt>
      <trkpt lat="44.6107" lon="0.95626">
        <ele>237.9</ele>
        <time>2018-07-22T13:14:45Z</time>
      </trkpt>
      <trkpt lat="44.61066" lon="0.95636">
        <ele>238</ele>
        <time>2018-07-22T13:14:46Z</time>
      </trkpt>
      <trkpt lat="44.61063" lon="0.95645">
        <ele>238.1</ele>
        <time>2018-07-22T13:14:47Z</time>
      </trkpt>
      <trkpt lat="44.6106" lon="0.95653">
        <ele>238.1</ele>
        <time>2018-07-22T13:14:48Z</time>
      </trkpt>
      <trkpt lat="44.61057" lon="0.95661">
        <ele>238.2</ele>
        <time>2018-07-22T13:14:49Z</time>
      </trkpt>
      <trkpt lat="44.61053" lon="0.9567">
        <ele>238.3</ele>
        <time>2018-07-22T13:14:50Z</time>
      </trkpt>
      <trkpt lat="44.61049" lon="0.95679">
        <ele>238.4</ele>
        <time>2018-07-22T13:14:51Z</time>
      </trkpt>
      <trkpt lat="44.61046" lon="0.95687">
        <ele>238.6</ele>
        <time>2018-07-22T13:14:52Z</time>
      </trkpt>
      <trkpt lat="44.61042" lon="0.95696">
        <ele>238.8</ele>
        <time>2018-07-22T13:14:53Z</time>
      </trkpt>
      <trkpt lat="44.61038" lon="0.95705">
        <ele>239.1</ele>
        <time>2018-07-22T13:14:54Z</time>
      </trkpt>
      <trkpt lat="44.61035" lon="0.95715">
        <ele>239.4</ele>
        <time>2018-07-22T13:14:55Z</time>
      </trkpt>
      <trkpt lat="44.61032" lon="0.95724">
        <ele>239.8</ele>
        <time>2018-07-22T13:14:56Z</time>
      </trkpt>
      <trkpt lat="44.61028" lon="0.95736">
        <ele>240.2</ele>
        <time>2018-07-22T13:14:57Z</time>
      </trkpt>
      <trkpt lat="44.61025" lon="0.95749">
        <ele>240.4</ele>
        <time>2018-07-22T13:14:58Z</time>
      </trkpt>
      <trkpt lat="44.61022" lon="0.95759">
        <ele>240.4</ele>
        <time>2018-07-22T13:14:59Z</time>
      </trkpt>
      <trkpt lat="44.6102" lon="0.9577">
        <ele>240.2</ele>
        <time>2018-07-22T13:15:00Z</time>
      </trkpt>
      <trkpt lat="44.61017" lon="0.95781">
        <ele>239.7</ele>
        <time>2018-07-22T13:15:01Z</time>
      </trkpt>
      <trkpt lat="44.61014" lon="0.95793">
        <ele>238.9</ele>
        <time>2018-07-22T13:15:02Z</time>
      </trkpt>
      <trkpt lat="44.61011" lon="0.95805">
        <ele>238.2</ele>
        <time>2018-07-22T13:15:03Z</time>
      </trkpt>
      <trkpt lat="44.61009" lon="0.9582">
        <ele>237.6</ele>
        <time>2018-07-22T13:15:04Z</time>
      </trkpt>
      <trkpt lat="44.61006" lon="0.95831">
        <ele>237.2</ele>
        <time>2018-07-22T13:15:05Z</time>
      </trkpt>
      <trkpt lat="44.61004" lon="0.95845">
        <ele>237</ele>
        <time>2018-07-22T13:15:06Z</time>
      </trkpt>
      <trkpt lat="44.61" lon="0.95857">
        <ele>236.7</ele>
        <time>2018-07-22T13:15:07Z</time>
      </trkpt>
      <trkpt lat="44.60998" lon="0.95869">
        <ele>236.6</ele>
        <time>2018-07-22T13:15:08Z</time>
      </trkpt>
      <trkpt lat="44.60996" lon="0.95881">
        <ele>236.6</ele>
        <time>2018-07-22T13:15:09Z</time>
      </trkpt>
      <trkpt lat="44.60994" lon="0.95892">
        <ele>236.6</ele>
        <time>2018-07-22T13:15:10Z</time>
      </trkpt>
      <trkpt lat="44.60992" lon="0.95903">
        <ele>236.4</ele>
        <time>2018-07-22T13:15:11Z</time>
      </trkpt>
      <trkpt lat="44.6099" lon="0.95915">
        <ele>236.1</ele>
        <time>2018-07-22T13:15:12Z</time>
      </trkpt>
      <trkpt lat="44.60985" lon="0.95924">
        <ele>235.7</ele>
        <time>2018-07-22T13:15:13Z</time>
      </trkpt>
      <trkpt lat="44.6098" lon="0.95937">
        <ele>235.3</ele>
        <time>2018-07-22T13:15:14Z</time>
      </trkpt>
      <trkpt lat="44.60975" lon="0.95948">
        <ele>235</ele>
        <time>2018-07-22T13:15:15Z</time>
      </trkpt>
      <trkpt lat="44.60969" lon="0.95956">
        <ele>234.7</ele>
        <time>2018-07-22T13:15:16Z</time>
      </trkpt>
      <trkpt lat="44.60963" lon="0.95964">
        <ele>234.6</ele>
        <time>2018-07-22T13:15:17Z</time>
      </trkpt>
      <trkpt lat="44.60956" lon="0.95972">
        <ele>234.2</ele>
        <time>2018-07-22T13:15:18Z</time>
      </trkpt>
      <trkpt lat="44.60951" lon="0.95979">
        <ele>233.7</ele>
        <time>2018-07-22T13:15:19Z</time>
      </trkpt>
      <trkpt lat="44.60945" lon="0.95986">
        <ele>233.4</ele>
        <time>2018-07-22T13:15:20Z</time>
      </trkpt>
      <trkpt lat="44.60939" lon="0.95992">
        <ele>233.1</ele>
        <time>2018-07-22T13:15:21Z</time>
      </trkpt>
      <trkpt lat="44.60932" lon="0.96">
        <ele>232.7</ele>
        <time>2018-07-22T13:15:22Z</time>
      </trkpt>
      <trkpt lat="44.60925" lon="0.96007">
        <ele>232.4</ele>
        <time>2018-07-22T13:15:23Z</time>
      </trkpt>
      <trkpt lat="44.60918" lon="0.96014">
        <ele>232</ele>
        <time>2018-07-22T13:15:24Z</time>
      </trkpt>
      <trkpt lat="44.60911" lon="0.96022">
        <ele>231.6</ele>
        <time>2018-07-22T13:15:25Z</time>
      </trkpt>
      <trkpt lat="44.60902" lon="0.9603">
        <ele>231</ele>
        <time>2018-07-22T13:15:26Z</time>
      </trkpt>
      <trkpt lat="44.60894" lon="0.96038">
        <ele>230.3</ele>
        <time>2018-07-22T13:15:27Z</time>
      </trkpt>
      <trkpt lat="44.60886" lon="0.96045">
        <ele>229.7</ele>
        <time>2018-07-22T13:15:28Z</time>
      </trkpt>
      <trkpt lat="44.60877" lon="0.96053">
        <ele>228.9</ele>
        <time>2018-07-22T13:15:29Z</time>
      </trkpt>
      <trkpt lat="44.60868" lon="0.96061">
        <ele>228.3</ele>
        <time>2018-07-22T13:15:30Z</time>
      </trkpt>
      <trkpt lat="44.60859" lon="0.96068">
        <ele>227.7</ele>
        <time>2018-07-22T13:15:31Z</time>
      </trkpt>
      <trkpt lat="44.60849" lon="0.96074">
        <ele>226.9</ele>
        <time>2018-07-22T13:15:32Z</time>
      </trkpt>
      <trkpt lat="44.60839" lon="0.96081">
        <ele>226.2</ele>
        <time>2018-07-22T13:15:33Z</time>
      </trkpt>
      <trkpt lat="44.60829" lon="0.96086">
        <ele>225.5</ele>
        <time>2018-07-22T13:15:34Z</time>
      </trkpt>
      <trkpt lat="44.6082" lon="0.96092">
        <ele>224.9</ele>
        <time>2018-07-22T13:15:35Z</time>
      </trkpt>
      <trkpt lat="44.6081" lon="0.96098">
        <ele>224.4</ele>
        <time>2018-07-22T13:15:36Z</time>
      </trkpt>
      <trkpt lat="44.60801" lon="0.96102">
        <ele>224</ele>
        <time>2018-07-22T13:15:37Z</time>
      </trkpt>
      <trkpt lat="44.60792" lon="0.96107">
        <ele>223.4</ele>
        <time>2018-07-22T13:15:38Z</time>
      </trkpt>
      <trkpt lat="44.60782" lon="0.96112">
        <ele>222.8</ele>
        <time>2018-07-22T13:15:39Z</time>
      </trkpt>
      <trkpt lat="44.60773" lon="0.96115">
        <ele>222</ele>
        <time>2018-07-22T13:15:40Z</time>
      </trkpt>
      <trkpt lat="44.60765" lon="0.9612">
        <ele>221.4</ele>
        <time>2018-07-22T13:15:41Z</time>
      </trkpt>
      <trkpt lat="44.60757" lon="0.96124">
        <ele>220.9</ele>
        <time>2018-07-22T13:15:42Z</time>
      </trkpt>
      <trkpt lat="44.60748" lon="0.96131">
        <ele>220.5</ele>
        <time>2018-07-22T13:15:43Z</time>
      </trkpt>
      <trkpt lat="44.60741" lon="0.96138">
        <ele>220.1</ele>
        <time>2018-07-22T13:15:44Z</time>
      </trkpt>
      <trkpt lat="44.60735" lon="0.96145">
        <ele>219.7</ele>
        <time>2018-07-22T13:15:45Z</time>
      </trkpt>
      <trkpt lat="44.60729" lon="0.96153">
        <ele>219.4</ele>
        <time>2018-07-22T13:15:46Z</time>
      </trkpt>
      <trkpt lat="44.60722" lon="0.9616">
        <ele>219.1</ele>
        <time>2018-07-22T13:15:47Z</time>
      </trkpt>
      <trkpt lat="44.60717" lon="0.96167">
        <ele>218.8</ele>
        <time>2018-07-22T13:15:48Z</time>
      </trkpt>
      <trkpt lat="44.6071" lon="0.96174">
        <ele>218.4</ele>
        <time>2018-07-22T13:15:49Z</time>
      </trkpt>
      <trkpt lat="44.60704" lon="0.96181">
        <ele>218.2</ele>
        <time>2018-07-22T13:15:50Z</time>
      </trkpt>
      <trkpt lat="44.60699" lon="0.96187">
        <ele>218.1</ele>
        <time>2018-07-22T13:15:51Z</time>
      </trkpt>
      <trkpt lat="44.60694" lon="0.96194">
        <ele>218</ele>
        <time>2018-07-22T13:15:52Z</time>
      </trkpt>
      <trkpt lat="44.6069" lon="0.96201">
        <ele>218</ele>
        <time>2018-07-22T13:15:53Z</time>
      </trkpt>
      <trkpt lat="44.60686" lon="0.96209">
        <ele>218</ele>
        <time>2018-07-22T13:15:54Z</time>
      </trkpt>
      <trkpt lat="44.60681" lon="0.96215">
        <ele>218</ele>
        <time>2018-07-22T13:15:55Z</time>
      </trkpt>
      <trkpt lat="44.60679" lon="0.9622">
        <ele>218.1</ele>
        <time>2018-07-22T13:15:56Z</time>
      </trkpt>
      <trkpt lat="44.60673" lon="0.96228">
        <ele>218.1</ele>
        <time>2018-07-22T13:15:57Z</time>
      </trkpt>
      <trkpt lat="44.60669" lon="0.96235">
        <ele>218.1</ele>
        <time>2018-07-22T13:15:58Z</time>
      </trkpt>
      <trkpt lat="44.60664" lon="0.96242">
        <ele>218.1</ele>
        <time>2018-07-22T13:15:59Z</time>
      </trkpt>
      <trkpt lat="44.60659" lon="0.96249">
        <ele>217.9</ele>
        <time>2018-07-22T13:16:00Z</time>
      </trkpt>
      <trkpt lat="44.60654" lon="0.96261">
        <ele>217.6</ele>
        <time>2018-07-22T13:16:01Z</time>
      </trkpt>
      <trkpt lat="44.60651" lon="0.96268">
        <ele>217.5</ele>
        <time>2018-07-22T13:16:02Z</time>
      </trkpt>
      <trkpt lat="44.60648" lon="0.96277">
        <ele>217.4</ele>
        <time>2018-07-22T13:16:03Z</time>
      </trkpt>
      <trkpt lat="44.60645" lon="0.96288">
        <ele>217.2</ele>
        <time>2018-07-22T13:16:04Z</time>
      </trkpt>
      <trkpt lat="44.60641" lon="0.96298">
        <ele>216.8</ele>
        <time>2018-07-22T13:16:05Z</time>
      </trkpt>
      <trkpt lat="44.60638" lon="0.9631">
        <ele>216.5</ele>
        <time>2018-07-22T13:16:06Z</time>
      </trkpt>
      <trkpt lat="44.60636" lon="0.96321">
        <ele>216.2</ele>
        <time>2018-07-22T13:16:07Z</time>
      </trkpt>
      <trkpt lat="44.60633" lon="0.96331">
        <ele>216</ele>
        <time>2018-07-22T13:16:08Z</time>
      </trkpt>
      <trkpt lat="44.60629" lon="0.96342">
        <ele>215.7</ele>
        <time>2018-07-22T13:16:09Z</time>
      </trkpt>
      <trkpt lat="44.60625" lon="0.96353">
        <ele>215.1</ele>
        <time>2018-07-22T13:16:10Z</time>
      </trkpt>
      <trkpt lat="44.60623" lon="0.96363">
        <ele>214.8</ele>
        <time>2018-07-22T13:16:11Z</time>
      </trkpt>
      <trkpt lat="44.60623" lon="0.96372">
        <ele>214.4</ele>
        <time>2018-07-22T13:16:12Z</time>
      </trkpt>
      <trkpt lat="44.60623" lon="0.96382">
        <ele>214</ele>
        <time>2018-07-22T13:16:13Z</time>
      </trkpt>
      <trkpt lat="44.60624" lon="0.96392">
        <ele>213.6</ele>
        <time>2018-07-22T13:16:14Z</time>
      </trkpt>
      <trkpt lat="44.60626" lon="0.96403">
        <ele>213.1</ele>
        <time>2018-07-22T13:16:15Z</time>
      </trkpt>
      <trkpt lat="44.60628" lon="0.96415">
        <ele>212.6</ele>
        <time>2018-07-22T13:16:16Z</time>
      </trkpt>
      <trkpt lat="44.60629" lon="0.96427">
        <ele>212.2</ele>
        <time>2018-07-22T13:16:17Z</time>
      </trkpt>
      <trkpt lat="44.6063" lon="0.96439">
        <ele>211.8</ele>
        <time>2018-07-22T13:16:18Z</time>
      </trkpt>
      <trkpt lat="44.6063" lon="0.96452">
        <ele>211.5</ele>
        <time>2018-07-22T13:16:19Z</time>
      </trkpt>
      <trkpt lat="44.6063" lon="0.96464">
        <ele>211.3</ele>
        <time>2018-07-22T13:16:20Z</time>
      </trkpt>
      <trkpt lat="44.6063" lon="0.96481">
        <ele>210.8</ele>
        <time>2018-07-22T13:16:21Z</time>
      </trkpt>
      <trkpt lat="44.60631" lon="0.96494">
        <ele>210.1</ele>
        <time>2018-07-22T13:16:22Z</time>
      </trkpt>
      <trkpt lat="44.6063" lon="0.96506">
        <ele>209.6</ele>
        <time>2018-07-22T13:16:23Z</time>
      </trkpt>
      <trkpt lat="44.60631" lon="0.96516">
        <ele>209.2</ele>
        <time>2018-07-22T13:16:24Z</time>
      </trkpt>
      <trkpt lat="44.60631" lon="0.9653">
        <ele>209</ele>
        <time>2018-07-22T13:16:25Z</time>
      </trkpt>
      <trkpt lat="44.6063" lon="0.96543">
        <ele>209</ele>
        <time>2018-07-22T13:16:26Z</time>
      </trkpt>
      <trkpt lat="44.60631" lon="0.96556">
        <ele>209</ele>
        <time>2018-07-22T13:16:27Z</time>
      </trkpt>
      <trkpt lat="44.60633" lon="0.9657">
        <ele>209.1</ele>
        <time>2018-07-22T13:16:28Z</time>
      </trkpt>
      <trkpt lat="44.60634" lon="0.96584">
        <ele>209.2</ele>
        <time>2018-07-22T13:16:29Z</time>
      </trkpt>
      <trkpt lat="44.60636" lon="0.96602">
        <ele>209.4</ele>
        <time>2018-07-22T13:16:30Z</time>
      </trkpt>
      <trkpt lat="44.60637" lon="0.96613">
        <ele>209.5</ele>
        <time>2018-07-22T13:16:31Z</time>
      </trkpt>
      <trkpt lat="44.60637" lon="0.96625">
        <ele>209.6</ele>
        <time>2018-07-22T13:16:32Z</time>
      </trkpt>
      <trkpt lat="44.60635" lon="0.96636">
        <ele>209.7</ele>
        <time>2018-07-22T13:16:33Z</time>
      </trkpt>
      <trkpt lat="44.60633" lon="0.96646">
        <ele>209.8</ele>
        <time>2018-07-22T13:16:34Z</time>
      </trkpt>
      <trkpt lat="44.6063" lon="0.96655">
        <ele>209.9</ele>
        <time>2018-07-22T13:16:35Z</time>
      </trkpt>
      <trkpt lat="44.60627" lon="0.96665">
        <ele>210</ele>
        <time>2018-07-22T13:16:36Z</time>
      </trkpt>
      <trkpt lat="44.60627" lon="0.96674">
        <ele>210</ele>
        <time>2018-07-22T13:16:37Z</time>
      </trkpt>
      <trkpt lat="44.60624" lon="0.96683">
        <ele>210.1</ele>
        <time>2018-07-22T13:16:38Z</time>
      </trkpt>
      <trkpt lat="44.60623" lon="0.96687">
        <ele>210.1</ele>
        <time>2018-07-22T13:16:39Z</time>
      </trkpt>
      <trkpt lat="44.60622" lon="0.96695">
        <ele>210.2</ele>
        <time>2018-07-22T13:16:40Z</time>
      </trkpt>
      <trkpt lat="44.60623" lon="0.96704">
        <ele>210.2</ele>
        <time>2018-07-22T13:16:41Z</time>
      </trkpt>
      <trkpt lat="44.60625" lon="0.96713">
        <ele>210.2</ele>
        <time>2018-07-22T13:16:42Z</time>
      </trkpt>
      <trkpt lat="44.60626" lon="0.96721">
        <ele>210.2</ele>
        <time>2018-07-22T13:16:43Z</time>
      </trkpt>
      <trkpt lat="44.60628" lon="0.96731">
        <ele>210</ele>
        <time>2018-07-22T13:16:44Z</time>
      </trkpt>
      <trkpt lat="44.60631" lon="0.9674">
        <ele>209.8</ele>
        <time>2018-07-22T13:16:45Z</time>
      </trkpt>
      <trkpt lat="44.60631" lon="0.96747">
        <ele>209.6</ele>
        <time>2018-07-22T13:16:46Z</time>
      </trkpt>
      <trkpt lat="44.60633" lon="0.96757">
        <ele>209.4</ele>
        <time>2018-07-22T13:16:47Z</time>
      </trkpt>
      <trkpt lat="44.60637" lon="0.96764">
        <ele>209.2</ele>
        <time>2018-07-22T13:16:48Z</time>
      </trkpt>
      <trkpt lat="44.60639" lon="0.96771">
        <ele>208.9</ele>
        <time>2018-07-22T13:16:49Z</time>
      </trkpt>
      <trkpt lat="44.60642" lon="0.96777">
        <ele>208.6</ele>
        <time>2018-07-22T13:16:50Z</time>
      </trkpt>
      <trkpt lat="44.60644" lon="0.96785">
        <ele>208</ele>
        <time>2018-07-22T13:16:51Z</time>
      </trkpt>
      <trkpt lat="44.60646" lon="0.96794">
        <ele>207.3</ele>
        <time>2018-07-22T13:16:52Z</time>
      </trkpt>
      <trkpt lat="44.60647" lon="0.968">
        <ele>206.8</ele>
        <time>2018-07-22T13:16:53Z</time>
      </trkpt>
      <trkpt lat="44.60647" lon="0.96808">
        <ele>206.4</ele>
        <time>2018-07-22T13:16:54Z</time>
      </trkpt>
      <trkpt lat="44.60647" lon="0.96815">
        <ele>206</ele>
        <time>2018-07-22T13:16:55Z</time>
      </trkpt>
      <trkpt lat="44.60645" lon="0.96823">
        <ele>205.5</ele>
        <time>2018-07-22T13:16:56Z</time>
      </trkpt>
      <trkpt lat="44.60642" lon="0.9683">
        <ele>205.1</ele>
        <time>2018-07-22T13:16:57Z</time>
      </trkpt>
      <trkpt lat="44.60639" lon="0.96837">
        <ele>204.7</ele>
        <time>2018-07-22T13:16:58Z</time>
      </trkpt>
      <trkpt lat="44.60637" lon="0.96844">
        <ele>204.4</ele>
        <time>2018-07-22T13:16:59Z</time>
      </trkpt>
      <trkpt lat="44.60626" lon="0.96848">
        <ele>203.9</ele>
        <time>2018-07-22T13:17:00Z</time>
      </trkpt>
      <trkpt lat="44.6062" lon="0.96852">
        <ele>203.6</ele>
        <time>2018-07-22T13:17:01Z</time>
      </trkpt>
      <trkpt lat="44.60615" lon="0.96856">
        <ele>203.5</ele>
        <time>2018-07-22T13:17:02Z</time>
      </trkpt>
      <trkpt lat="44.60609" lon="0.9686">
        <ele>203.4</ele>
        <time>2018-07-22T13:17:03Z</time>
      </trkpt>
      <trkpt lat="44.60604" lon="0.96863">
        <ele>203.2</ele>
        <time>2018-07-22T13:17:04Z</time>
      </trkpt>
      <trkpt lat="44.60598" lon="0.96866">
        <ele>203</ele>
        <time>2018-07-22T13:17:05Z</time>
      </trkpt>
      <trkpt lat="44.6059" lon="0.96881">
        <ele>199.9</ele>
        <time>2018-07-22T13:17:06Z</time>
      </trkpt>
      <trkpt lat="44.60584" lon="0.96888">
        <ele>199.7</ele>
        <time>2018-07-22T13:17:07Z</time>
      </trkpt>
      <trkpt lat="44.60577" lon="0.96899">
        <ele>197.8</ele>
        <time>2018-07-22T13:17:08Z</time>
      </trkpt>
      <trkpt lat="44.60572" lon="0.96907">
        <ele>197</ele>
        <time>2018-07-22T13:17:09Z</time>
      </trkpt>
      <trkpt lat="44.60564" lon="0.96914">
        <ele>195.7</ele>
        <time>2018-07-22T13:17:10Z</time>
      </trkpt>
      <trkpt lat="44.60556" lon="0.96922">
        <ele>194.4</ele>
        <time>2018-07-22T13:17:11Z</time>
      </trkpt>
      <trkpt lat="44.6055" lon="0.96932">
        <ele>192.6</ele>
        <time>2018-07-22T13:17:12Z</time>
      </trkpt>
      <trkpt lat="44.60542" lon="0.96941">
        <ele>191.1</ele>
        <time>2018-07-22T13:17:13Z</time>
      </trkpt>
      <trkpt lat="44.60536" lon="0.96949">
        <ele>189.8</ele>
        <time>2018-07-22T13:17:14Z</time>
      </trkpt>
      <trkpt lat="44.60527" lon="0.96957">
        <ele>189.2</ele>
        <time>2018-07-22T13:17:15Z</time>
      </trkpt>
      <trkpt lat="44.60519" lon="0.96962">
        <ele>189.5</ele>
        <time>2018-07-22T13:17:16Z</time>
      </trkpt>
      <trkpt lat="44.60511" lon="0.96963">
        <ele>189</ele>
        <time>2018-07-22T13:17:17Z</time>
      </trkpt>
      <trkpt lat="44.60503" lon="0.96965">
        <ele>190.5</ele>
        <time>2018-07-22T13:17:18Z</time>
      </trkpt>
      <trkpt lat="44.60493" lon="0.96967">
        <ele>191.9</ele>
        <time>2018-07-22T13:17:19Z</time>
      </trkpt>
      <trkpt lat="44.60484" lon="0.96974">
        <ele>190.2</ele>
        <time>2018-07-22T13:17:20Z</time>
      </trkpt>
      <trkpt lat="44.60475" lon="0.96977">
        <ele>189.8</ele>
        <time>2018-07-22T13:17:21Z</time>
      </trkpt>
      <trkpt lat="44.60466" lon="0.96983">
        <ele>189.2</ele>
        <time>2018-07-22T13:17:22Z</time>
      </trkpt>
      <trkpt lat="44.60457" lon="0.96987">
        <ele>188.5</ele>
        <time>2018-07-22T13:17:23Z</time>
      </trkpt>
      <trkpt lat="44.60448" lon="0.96991">
        <ele>187.8</ele>
        <time>2018-07-22T13:17:24Z</time>
      </trkpt>
      <trkpt lat="44.6044" lon="0.96994">
        <ele>186.8</ele>
        <time>2018-07-22T13:17:25Z</time>
      </trkpt>
      <trkpt lat="44.60432" lon="0.96998">
        <ele>186.1</ele>
        <time>2018-07-22T13:17:26Z</time>
      </trkpt>
      <trkpt lat="44.60426" lon="0.96999">
        <ele>186.4</ele>
        <time>2018-07-22T13:17:27Z</time>
      </trkpt>
      <trkpt lat="44.6042" lon="0.97001">
        <ele>186.8</ele>
        <time>2018-07-22T13:17:28Z</time>
      </trkpt>
      <trkpt lat="44.60407" lon="0.97008">
        <ele>184.9</ele>
        <time>2018-07-22T13:17:29Z</time>
      </trkpt>
      <trkpt lat="44.604" lon="0.9701">
        <ele>184</ele>
        <time>2018-07-22T13:17:30Z</time>
      </trkpt>
      <trkpt lat="44.6039" lon="0.97019">
        <ele>183.5</ele>
        <time>2018-07-22T13:17:31Z</time>
      </trkpt>
      <trkpt lat="44.6038" lon="0.97023">
        <ele>181.7</ele>
        <time>2018-07-22T13:17:32Z</time>
      </trkpt>
      <trkpt lat="44.60374" lon="0.97034">
        <ele>179.7</ele>
        <time>2018-07-22T13:17:33Z</time>
      </trkpt>
      <trkpt lat="44.60368" lon="0.97041">
        <ele>178</ele>
        <time>2018-07-22T13:17:34Z</time>
      </trkpt>
      <trkpt lat="44.60365" lon="0.97045">
        <ele>177.1</ele>
        <time>2018-07-22T13:17:35Z</time>
      </trkpt>
      <trkpt lat="44.60364" lon="0.97051">
        <ele>175.5</ele>
        <time>2018-07-22T13:17:36Z</time>
      </trkpt>
      <trkpt lat="44.60361" lon="0.97057">
        <ele>174.6</ele>
        <time>2018-07-22T13:17:37Z</time>
      </trkpt>
      <trkpt lat="44.60357" lon="0.97065">
        <ele>173.2</ele>
        <time>2018-07-22T13:17:38Z</time>
      </trkpt>
      <trkpt lat="44.60354" lon="0.97075">
        <ele>170.2</ele>
        <time>2018-07-22T13:17:39Z</time>
      </trkpt>
      <trkpt lat="44.6035" lon="0.97088">
        <ele>167.7</ele>
        <time>2018-07-22T13:17:40Z</time>
      </trkpt>
      <trkpt lat="44.6035" lon="0.971">
        <ele>165.6</ele>
        <time>2018-07-22T13:17:41Z</time>
      </trkpt>
      <trkpt lat="44.60348" lon="0.97107">
        <ele>164.3</ele>
        <time>2018-07-22T13:17:42Z</time>
      </trkpt>
      <trkpt lat="44.60345" lon="0.9712">
        <ele>162.3</ele>
        <time>2018-07-22T13:17:43Z</time>
      </trkpt>
      <trkpt lat="44.60344" lon="0.97131">
        <ele>160.1</ele>
        <time>2018-07-22T13:17:44Z</time>
      </trkpt>
      <trkpt lat="44.60341" lon="0.97143">
        <ele>159.2</ele>
        <time>2018-07-22T13:17:45Z</time>
      </trkpt>
      <trkpt lat="44.60338" lon="0.97152">
        <ele>157.6</ele>
        <time>2018-07-22T13:17:46Z</time>
      </trkpt>
      <trkpt lat="44.60337" lon="0.97158">
        <ele>156.8</ele>
        <time>2018-07-22T13:17:47Z</time>
      </trkpt>
      <trkpt lat="44.60334" lon="0.97163">
        <ele>156.4</ele>
        <time>2018-07-22T13:17:48Z</time>
      </trkpt>
      <trkpt lat="44.60329" lon="0.97167">
        <ele>156.5</ele>
        <time>2018-07-22T13:17:49Z</time>
      </trkpt>
      <trkpt lat="44.60324" lon="0.97171">
        <ele>156</ele>
        <time>2018-07-22T13:17:50Z</time>
      </trkpt>
      <trkpt lat="44.60319" lon="0.97172">
        <ele>156.5</ele>
        <time>2018-07-22T13:17:51Z</time>
      </trkpt>
      <trkpt lat="44.60313" lon="0.97171">
        <ele>156.8</ele>
        <time>2018-07-22T13:17:52Z</time>
      </trkpt>
      <trkpt lat="44.6031" lon="0.97169">
        <ele>156.8</ele>
        <time>2018-07-22T13:17:53Z</time>
      </trkpt>
      <trkpt lat="44.60307" lon="0.97168">
        <ele>157.5</ele>
        <time>2018-07-22T13:17:54Z</time>
      </trkpt>
      <trkpt lat="44.60304" lon="0.9717">
        <ele>156.8</ele>
        <time>2018-07-22T13:17:55Z</time>
      </trkpt>
      <trkpt lat="44.60304" lon="0.97177">
        <ele>155.8</ele>
        <time>2018-07-22T13:17:57Z</time>
      </trkpt>
      <trkpt lat="44.60304" lon="0.97182">
        <ele>154.3</ele>
        <time>2018-07-22T13:17:58Z</time>
      </trkpt>
      <trkpt lat="44.60308" lon="0.97186">
        <ele>153.2</ele>
        <time>2018-07-22T13:17:59Z</time>
      </trkpt>
      <trkpt lat="44.60312" lon="0.97193">
        <ele>152.3</ele>
        <time>2018-07-22T13:18:00Z</time>
      </trkpt>
      <trkpt lat="44.60317" lon="0.97199">
        <ele>152.3</ele>
        <time>2018-07-22T13:18:01Z</time>
      </trkpt>
      <trkpt lat="44.60322" lon="0.97206">
        <ele>152.4</ele>
        <time>2018-07-22T13:18:02Z</time>
      </trkpt>
      <trkpt lat="44.60327" lon="0.97215">
        <ele>152.5</ele>
        <time>2018-07-22T13:18:03Z</time>
      </trkpt>
      <trkpt lat="44.6033" lon="0.97224">
        <ele>152.7</ele>
        <time>2018-07-22T13:18:04Z</time>
      </trkpt>
      <trkpt lat="44.60334" lon="0.97231">
        <ele>152.8</ele>
        <time>2018-07-22T13:18:05Z</time>
      </trkpt>
      <trkpt lat="44.60336" lon="0.97236">
        <ele>152.9</ele>
        <time>2018-07-22T13:18:06Z</time>
      </trkpt>
      <trkpt lat="44.60341" lon="0.97239">
        <ele>153</ele>
        <time>2018-07-22T13:18:07Z</time>
      </trkpt>
      <trkpt lat="44.60345" lon="0.97241">
        <ele>153</ele>
        <time>2018-07-22T13:18:08Z</time>
      </trkpt>
      <trkpt lat="44.60349" lon="0.9724">
        <ele>152.9</ele>
        <time>2018-07-22T13:18:09Z</time>
      </trkpt>
      <trkpt lat="44.60353" lon="0.97236">
        <ele>152.9</ele>
        <time>2018-07-22T13:18:10Z</time>
      </trkpt>
      <trkpt lat="44.60356" lon="0.97234">
        <ele>152.8</ele>
        <time>2018-07-22T13:18:11Z</time>
      </trkpt>
      <trkpt lat="44.6036" lon="0.97236">
        <ele>152.8</ele>
        <time>2018-07-22T13:18:13Z</time>
      </trkpt>
      <trkpt lat="44.60361" lon="0.9724">
        <ele>152.8</ele>
        <time>2018-07-22T13:18:14Z</time>
      </trkpt>
      <trkpt lat="44.60357" lon="0.97242">
        <ele>152.9</ele>
        <time>2018-07-22T13:18:16Z</time>
      </trkpt>
      <trkpt lat="44.60355" lon="0.97245">
        <ele>152.9</ele>
        <time>2018-07-22T13:18:17Z</time>
      </trkpt>
      <trkpt lat="44.60352" lon="0.97248">
        <ele>152.9</ele>
        <time>2018-07-22T13:18:18Z</time>
      </trkpt>
      <trkpt lat="44.6035" lon="0.97253">
        <ele>152.9</ele>
        <time>2018-07-22T13:18:19Z</time>
      </trkpt>
      <trkpt lat="44.60348" lon="0.97257">
        <ele>152.2</ele>
        <time>2018-07-22T13:18:20Z</time>
      </trkpt>
      <trkpt lat="44.60346" lon="0.97263">
        <ele>151.7</ele>
        <time>2018-07-22T13:18:21Z</time>
      </trkpt>
      <trkpt lat="44.60346" lon="0.97269">
        <ele>151.3</ele>
        <time>2018-07-22T13:18:22Z</time>
      </trkpt>
      <trkpt lat="44.60345" lon="0.97277">
        <ele>150.7</ele>
        <time>2018-07-22T13:18:23Z</time>
      </trkpt>
      <trkpt lat="44.60346" lon="0.97285">
        <ele>150.1</ele>
        <time>2018-07-22T13:18:24Z</time>
      </trkpt>
      <trkpt lat="44.60346" lon="0.97293">
        <ele>149.5</ele>
        <time>2018-07-22T13:18:25Z</time>
      </trkpt>
      <trkpt lat="44.60347" lon="0.97301">
        <ele>148.9</ele>
        <time>2018-07-22T13:18:26Z</time>
      </trkpt>
      <trkpt lat="44.60347" lon="0.97308">
        <ele>148.4</ele>
        <time>2018-07-22T13:18:27Z</time>
      </trkpt>
      <trkpt lat="44.60347" lon="0.97316">
        <ele>147.8</ele>
        <time>2018-07-22T13:18:28Z</time>
      </trkpt>
      <trkpt lat="44.60347" lon="0.97324">
        <ele>146.9</ele>
        <time>2018-07-22T13:18:29Z</time>
      </trkpt>
      <trkpt lat="44.60347" lon="0.97333">
        <ele>145.8</ele>
        <time>2018-07-22T13:18:30Z</time>
      </trkpt>
      <trkpt lat="44.60347" lon="0.97343">
        <ele>144.5</ele>
        <time>2018-07-22T13:18:31Z</time>
      </trkpt>
      <trkpt lat="44.60348" lon="0.97352">
        <ele>143.3</ele>
        <time>2018-07-22T13:18:32Z</time>
      </trkpt>
      <trkpt lat="44.60347" lon="0.9736">
        <ele>142</ele>
        <time>2018-07-22T13:18:33Z</time>
      </trkpt>
      <trkpt lat="44.60347" lon="0.97372">
        <ele>139.8</ele>
        <time>2018-07-22T13:18:34Z</time>
      </trkpt>
      <trkpt lat="44.60345" lon="0.97379">
        <ele>138.9</ele>
        <time>2018-07-22T13:18:35Z</time>
      </trkpt>
      <trkpt lat="44.60344" lon="0.97386">
        <ele>138.9</ele>
        <time>2018-07-22T13:18:36Z</time>
      </trkpt>
      <trkpt lat="44.60341" lon="0.97395">
        <ele>138.8</ele>
        <time>2018-07-22T13:18:37Z</time>
      </trkpt>
      <trkpt lat="44.60337" lon="0.97401">
        <ele>138.8</ele>
        <time>2018-07-22T13:18:38Z</time>
      </trkpt>
      <trkpt lat="44.60334" lon="0.97406">
        <ele>138.8</ele>
        <time>2018-07-22T13:18:39Z</time>
      </trkpt>
      <trkpt lat="44.6033" lon="0.97412">
        <ele>138.8</ele>
        <time>2018-07-22T13:18:40Z</time>
      </trkpt>
      <trkpt lat="44.60326" lon="0.97418">
        <ele>138.8</ele>
        <time>2018-07-22T13:18:41Z</time>
      </trkpt>
      <trkpt lat="44.60323" lon="0.97421">
        <ele>138.8</ele>
        <time>2018-07-22T13:18:42Z</time>
      </trkpt>
      <trkpt lat="44.60322" lon="0.97429">
        <ele>138.8</ele>
        <time>2018-07-22T13:18:43Z</time>
      </trkpt>
      <trkpt lat="44.60319" lon="0.97433">
        <ele>138.8</ele>
        <time>2018-07-22T13:18:44Z</time>
      </trkpt>
      <trkpt lat="44.60315" lon="0.9744">
        <ele>138.8</ele>
        <time>2018-07-22T13:18:45Z</time>
      </trkpt>
      <trkpt lat="44.60311" lon="0.97445">
        <ele>138.8</ele>
        <time>2018-07-22T13:18:46Z</time>
      </trkpt>
      <trkpt lat="44.60309" lon="0.97449">
        <ele>138.9</ele>
        <time>2018-07-22T13:18:47Z</time>
      </trkpt>
      <trkpt lat="44.60306" lon="0.97455">
        <ele>138.9</ele>
        <time>2018-07-22T13:18:48Z</time>
      </trkpt>
      <trkpt lat="44.60302" lon="0.9746">
        <ele>139</ele>
        <time>2018-07-22T13:18:49Z</time>
      </trkpt>
      <trkpt lat="44.60299" lon="0.97464">
        <ele>139</ele>
        <time>2018-07-22T13:18:50Z</time>
      </trkpt>
      <trkpt lat="44.60297" lon="0.97467">
        <ele>139.1</ele>
        <time>2018-07-22T13:18:51Z</time>
      </trkpt>
      <trkpt lat="44.60293" lon="0.97471">
        <ele>139.2</ele>
        <time>2018-07-22T13:18:52Z</time>
      </trkpt>
      <trkpt lat="44.60292" lon="0.97475">
        <ele>139.2</ele>
        <time>2018-07-22T13:18:53Z</time>
      </trkpt>
      <trkpt lat="44.60288" lon="0.97478">
        <ele>139.3</ele>
        <time>2018-07-22T13:18:55Z</time>
      </trkpt>
      <trkpt lat="44.60286" lon="0.97481">
        <ele>139.4</ele>
        <time>2018-07-22T13:18:56Z</time>
      </trkpt>
      <trkpt lat="44.60283" lon="0.97481">
        <ele>139.5</ele>
        <time>2018-07-22T13:18:57Z</time>
      </trkpt>
      <trkpt lat="44.60278" lon="0.97477">
        <ele>139.7</ele>
        <time>2018-07-22T13:18:58Z</time>
      </trkpt>
      <trkpt lat="44.60273" lon="0.97472">
        <ele>139.8</ele>
        <time>2018-07-22T13:18:59Z</time>
      </trkpt>
      <trkpt lat="44.60266" lon="0.97471">
        <ele>139.2</ele>
        <time>2018-07-22T13:19:00Z</time>
      </trkpt>
      <trkpt lat="44.60263" lon="0.97466">
        <ele>138.2</ele>
        <time>2018-07-22T13:19:01Z</time>
      </trkpt>
      <trkpt lat="44.6026" lon="0.97461">
        <ele>137.9</ele>
        <time>2018-07-22T13:19:02Z</time>
      </trkpt>
      <trkpt lat="44.60257" lon="0.97458">
        <ele>137.3</ele>
        <time>2018-07-22T13:19:03Z</time>
      </trkpt>
      <trkpt lat="44.60253" lon="0.97455">
        <ele>136.7</ele>
        <time>2018-07-22T13:19:04Z</time>
      </trkpt>
      <trkpt lat="44.6025" lon="0.97451">
        <ele>136.4</ele>
        <time>2018-07-22T13:19:05Z</time>
      </trkpt>
      <trkpt lat="44.60247" lon="0.97447">
        <ele>136.3</ele>
        <time>2018-07-22T13:19:06Z</time>
      </trkpt>
      <trkpt lat="44.60244" lon="0.97443">
        <ele>136.2</ele>
        <time>2018-07-22T13:19:07Z</time>
      </trkpt>
      <trkpt lat="44.60239" lon="0.97439">
        <ele>136.2</ele>
        <time>2018-07-22T13:19:08Z</time>
      </trkpt>
      <trkpt lat="44.60235" lon="0.97436">
        <ele>136.6</ele>
        <time>2018-07-22T13:19:09Z</time>
      </trkpt>
      <trkpt lat="44.60237" lon="0.97432">
        <ele>136.3</ele>
        <time>2018-07-22T13:19:10Z</time>
      </trkpt>
      <trkpt lat="44.60239" lon="0.97425">
        <ele>136</ele>
        <time>2018-07-22T13:19:12Z</time>
      </trkpt>
      <trkpt lat="44.60234" lon="0.97419">
        <ele>136</ele>
        <time>2018-07-22T13:19:14Z</time>
      </trkpt>
      <trkpt lat="44.60237" lon="0.97413">
        <ele>135.5</ele>
        <time>2018-07-22T13:19:16Z</time>
      </trkpt>
      <trkpt lat="44.60235" lon="0.9741">
        <ele>135.7</ele>
        <time>2018-07-22T13:19:17Z</time>
      </trkpt>
      <trkpt lat="44.60231" lon="0.97407">
        <ele>135.8</ele>
        <time>2018-07-22T13:19:18Z</time>
      </trkpt>
      <trkpt lat="44.60229" lon="0.97405">
        <ele>136</ele>
        <time>2018-07-22T13:19:19Z</time>
      </trkpt>
      <trkpt lat="44.60229" lon="0.974">
        <ele>135.9</ele>
        <time>2018-07-22T13:19:21Z</time>
      </trkpt>
      <trkpt lat="44.60228" lon="0.97397">
        <ele>135.9</ele>
        <time>2018-07-22T13:19:23Z</time>
      </trkpt>
      <trkpt lat="44.60227" lon="0.97392">
        <ele>135.6</ele>
        <time>2018-07-22T13:19:25Z</time>
      </trkpt>
      <trkpt lat="44.60224" lon="0.97387">
        <ele>135.8</ele>
        <time>2018-07-22T13:19:27Z</time>
      </trkpt>
      <trkpt lat="44.60221" lon="0.97383">
        <ele>136.1</ele>
        <time>2018-07-22T13:19:29Z</time>
      </trkpt>
      <trkpt lat="44.60218" lon="0.97377">
        <ele>136.5</ele>
        <time>2018-07-22T13:19:31Z</time>
      </trkpt>
      <trkpt lat="44.60216" lon="0.97374">
        <ele>136.8</ele>
        <time>2018-07-22T13:19:32Z</time>
      </trkpt>
      <trkpt lat="44.60215" lon="0.9737">
        <ele>136.7</ele>
        <time>2018-07-22T13:19:33Z</time>
      </trkpt>
      <trkpt lat="44.60214" lon="0.97363">
        <ele>137</ele>
        <time>2018-07-22T13:19:35Z</time>
      </trkpt>
      <trkpt lat="44.60212" lon="0.97356">
        <ele>136.7</ele>
        <time>2018-07-22T13:19:37Z</time>
      </trkpt>
      <trkpt lat="44.6021" lon="0.9735">
        <ele>137</ele>
        <time>2018-07-22T13:19:39Z</time>
      </trkpt>
      <trkpt lat="44.60208" lon="0.97345">
        <ele>136.8</ele>
        <time>2018-07-22T13:19:41Z</time>
      </trkpt>
      <trkpt lat="44.60208" lon="0.97341">
        <ele>137.1</ele>
        <time>2018-07-22T13:19:43Z</time>
      </trkpt>
      <trkpt lat="44.60208" lon="0.97333">
        <ele>136.7</ele>
        <time>2018-07-22T13:19:45Z</time>
      </trkpt>
      <trkpt lat="44.60207" lon="0.97329">
        <ele>136.6</ele>
        <time>2018-07-22T13:19:46Z</time>
      </trkpt>
      <trkpt lat="44.60206" lon="0.97323">
        <ele>136.2</ele>
        <time>2018-07-22T13:19:47Z</time>
      </trkpt>
      <trkpt lat="44.60202" lon="0.97317">
        <ele>136.5</ele>
        <time>2018-07-22T13:19:48Z</time>
      </trkpt>
      <trkpt lat="44.60197" lon="0.97312">
        <ele>137.2</ele>
        <time>2018-07-22T13:19:49Z</time>
      </trkpt>
      <trkpt lat="44.60193" lon="0.97309">
        <ele>137.6</ele>
        <time>2018-07-22T13:19:50Z</time>
      </trkpt>
      <trkpt lat="44.60187" lon="0.97305">
        <ele>138.7</ele>
        <time>2018-07-22T13:19:51Z</time>
      </trkpt>
      <trkpt lat="44.60182" lon="0.973">
        <ele>139.7</ele>
        <time>2018-07-22T13:19:52Z</time>
      </trkpt>
      <trkpt lat="44.60177" lon="0.97295">
        <ele>140.9</ele>
        <time>2018-07-22T13:19:53Z</time>
      </trkpt>
      <trkpt lat="44.60171" lon="0.9729">
        <ele>142</ele>
        <time>2018-07-22T13:19:54Z</time>
      </trkpt>
      <trkpt lat="44.60165" lon="0.97285">
        <ele>142.6</ele>
        <time>2018-07-22T13:19:55Z</time>
      </trkpt>
      <trkpt lat="44.60158" lon="0.9728">
        <ele>143.3</ele>
        <time>2018-07-22T13:19:56Z</time>
      </trkpt>
      <trkpt lat="44.60152" lon="0.97275">
        <ele>143.9</ele>
        <time>2018-07-22T13:19:57Z</time>
      </trkpt>
      <trkpt lat="44.60147" lon="0.97269">
        <ele>144</ele>
        <time>2018-07-22T13:19:58Z</time>
      </trkpt>
      <trkpt lat="44.60142" lon="0.97263">
        <ele>144.1</ele>
        <time>2018-07-22T13:19:59Z</time>
      </trkpt>
      <trkpt lat="44.60137" lon="0.97256">
        <ele>144.5</ele>
        <time>2018-07-22T13:20:00Z</time>
      </trkpt>
      <trkpt lat="44.60132" lon="0.97251">
        <ele>144.5</ele>
        <time>2018-07-22T13:20:01Z</time>
      </trkpt>
      <trkpt lat="44.60127" lon="0.97244">
        <ele>144.2</ele>
        <time>2018-07-22T13:20:02Z</time>
      </trkpt>
      <trkpt lat="44.60122" lon="0.97238">
        <ele>144</ele>
        <time>2018-07-22T13:20:03Z</time>
      </trkpt>
      <trkpt lat="44.60118" lon="0.97231">
        <ele>143.5</ele>
        <time>2018-07-22T13:20:04Z</time>
      </trkpt>
      <trkpt lat="44.60113" lon="0.97225">
        <ele>143</ele>
        <time>2018-07-22T13:20:05Z</time>
      </trkpt>
      <trkpt lat="44.60108" lon="0.97218">
        <ele>142.8</ele>
        <time>2018-07-22T13:20:06Z</time>
      </trkpt>
      <trkpt lat="44.601" lon="0.97212">
        <ele>142.4</ele>
        <time>2018-07-22T13:20:07Z</time>
      </trkpt>
      <trkpt lat="44.60097" lon="0.97206">
        <ele>142.2</ele>
        <time>2018-07-22T13:20:08Z</time>
      </trkpt>
      <trkpt lat="44.60093" lon="0.97198">
        <ele>141.6</ele>
        <time>2018-07-22T13:20:09Z</time>
      </trkpt>
      <trkpt lat="44.60089" lon="0.9719">
        <ele>141</ele>
        <time>2018-07-22T13:20:10Z</time>
      </trkpt>
      <trkpt lat="44.60084" lon="0.97183">
        <ele>140.9</ele>
        <time>2018-07-22T13:20:11Z</time>
      </trkpt>
      <trkpt lat="44.6008" lon="0.97177">
        <ele>140.3</ele>
        <time>2018-07-22T13:20:12Z</time>
      </trkpt>
      <trkpt lat="44.60076" lon="0.97173">
        <ele>139.9</ele>
        <time>2018-07-22T13:20:13Z</time>
      </trkpt>
      <trkpt lat="44.60071" lon="0.97169">
        <ele>139.9</ele>
        <time>2018-07-22T13:20:14Z</time>
      </trkpt>
      <trkpt lat="44.60066" lon="0.97169">
        <ele>139.4</ele>
        <time>2018-07-22T13:20:15Z</time>
      </trkpt>
      <trkpt lat="44.60062" lon="0.97171">
        <ele>139.8</ele>
        <time>2018-07-22T13:20:16Z</time>
      </trkpt>
      <trkpt lat="44.60056" lon="0.97176">
        <ele>140.1</ele>
        <time>2018-07-22T13:20:17Z</time>
      </trkpt>
      <trkpt lat="44.60052" lon="0.97181">
        <ele>140.4</ele>
        <time>2018-07-22T13:20:18Z</time>
      </trkpt>
      <trkpt lat="44.60047" lon="0.97187">
        <ele>141.1</ele>
        <time>2018-07-22T13:20:19Z</time>
      </trkpt>
      <trkpt lat="44.60043" lon="0.97191">
        <ele>141.5</ele>
        <time>2018-07-22T13:20:20Z</time>
      </trkpt>
      <trkpt lat="44.60037" lon="0.97193">
        <ele>141.3</ele>
        <time>2018-07-22T13:20:21Z</time>
      </trkpt>
      <trkpt lat="44.60031" lon="0.97193">
        <ele>141.2</ele>
        <time>2018-07-22T13:20:22Z</time>
      </trkpt>
      <trkpt lat="44.60025" lon="0.97193">
        <ele>141.1</ele>
        <time>2018-07-22T13:20:23Z</time>
      </trkpt>
      <trkpt lat="44.60017" lon="0.97189">
        <ele>140.5</ele>
        <time>2018-07-22T13:20:24Z</time>
      </trkpt>
      <trkpt lat="44.6001" lon="0.97184">
        <ele>140</ele>
        <time>2018-07-22T13:20:25Z</time>
      </trkpt>
      <trkpt lat="44.60004" lon="0.9718">
        <ele>139.7</ele>
        <time>2018-07-22T13:20:26Z</time>
      </trkpt>
      <trkpt lat="44.59999" lon="0.97175">
        <ele>139.4</ele>
        <time>2018-07-22T13:20:27Z</time>
      </trkpt>
      <trkpt lat="44.59994" lon="0.9717">
        <ele>139.2</ele>
        <time>2018-07-22T13:20:28Z</time>
      </trkpt>
      <trkpt lat="44.59987" lon="0.97166">
        <ele>139.1</ele>
        <time>2018-07-22T13:20:29Z</time>
      </trkpt>
      <trkpt lat="44.59979" lon="0.97162">
        <ele>139</ele>
        <time>2018-07-22T13:20:30Z</time>
      </trkpt>
      <trkpt lat="44.59973" lon="0.97159">
        <ele>138.9</ele>
        <time>2018-07-22T13:20:31Z</time>
      </trkpt>
      <trkpt lat="44.59968" lon="0.97155">
        <ele>138.9</ele>
        <time>2018-07-22T13:20:32Z</time>
      </trkpt>
      <trkpt lat="44.59963" lon="0.97151">
        <ele>138.9</ele>
        <time>2018-07-22T13:20:33Z</time>
      </trkpt>
      <trkpt lat="44.59958" lon="0.97146">
        <ele>138.8</ele>
        <time>2018-07-22T13:20:34Z</time>
      </trkpt>
      <trkpt lat="44.59955" lon="0.97141">
        <ele>138.8</ele>
        <time>2018-07-22T13:20:35Z</time>
      </trkpt>
      <trkpt lat="44.59953" lon="0.97133">
        <ele>138.6</ele>
        <time>2018-07-22T13:20:36Z</time>
      </trkpt>
      <trkpt lat="44.59952" lon="0.97123">
        <ele>138.3</ele>
        <time>2018-07-22T13:20:37Z</time>
      </trkpt>
      <trkpt lat="44.59951" lon="0.97114">
        <ele>138.2</ele>
        <time>2018-07-22T13:20:38Z</time>
      </trkpt>
      <trkpt lat="44.59948" lon="0.97107">
        <ele>138.2</ele>
        <time>2018-07-22T13:20:39Z</time>
      </trkpt>
      <trkpt lat="44.59946" lon="0.97099">
        <ele>137.9</ele>
        <time>2018-07-22T13:20:40Z</time>
      </trkpt>
      <trkpt lat="44.59945" lon="0.97092">
        <ele>138</ele>
        <time>2018-07-22T13:20:41Z</time>
      </trkpt>
      <trkpt lat="44.59945" lon="0.97085">
        <ele>137.7</ele>
        <time>2018-07-22T13:20:42Z</time>
      </trkpt>
      <trkpt lat="44.59944" lon="0.97079">
        <ele>137.4</ele>
        <time>2018-07-22T13:20:43Z</time>
      </trkpt>
      <trkpt lat="44.59943" lon="0.97074">
        <ele>137.3</ele>
        <time>2018-07-22T13:20:44Z</time>
      </trkpt>
      <trkpt lat="44.59941" lon="0.9707">
        <ele>137.3</ele>
        <time>2018-07-22T13:20:45Z</time>
      </trkpt>
      <trkpt lat="44.59939" lon="0.97064">
        <ele>137.2</ele>
        <time>2018-07-22T13:20:47Z</time>
      </trkpt>
      <trkpt lat="44.59938" lon="0.97059">
        <ele>137.2</ele>
        <time>2018-07-22T13:20:49Z</time>
      </trkpt>
      <trkpt lat="44.59937" lon="0.97053">
        <ele>136.9</ele>
        <time>2018-07-22T13:20:51Z</time>
      </trkpt>
      <trkpt lat="44.59937" lon="0.97049">
        <ele>137</ele>
        <time>2018-07-22T13:20:53Z</time>
      </trkpt>
      <trkpt lat="44.59937" lon="0.97044">
        <ele>136.8</ele>
        <time>2018-07-22T13:20:56Z</time>
      </trkpt>
      <trkpt lat="44.59937" lon="0.9704">
        <ele>136.8</ele>
        <time>2018-07-22T13:20:58Z</time>
      </trkpt>
      <trkpt lat="44.59936" lon="0.97036">
        <ele>137</ele>
        <time>2018-07-22T13:21:00Z</time>
      </trkpt>
      <trkpt lat="44.59933" lon="0.97033">
        <ele>137.1</ele>
        <time>2018-07-22T13:21:02Z</time>
      </trkpt>
      <trkpt lat="44.5993" lon="0.97031">
        <ele>137.3</ele>
        <time>2018-07-22T13:21:05Z</time>
      </trkpt>
      <trkpt lat="44.59927" lon="0.97029">
        <ele>137.6</ele>
        <time>2018-07-22T13:21:07Z</time>
      </trkpt>
      <trkpt lat="44.59924" lon="0.97028">
        <ele>137.9</ele>
        <time>2018-07-22T13:21:10Z</time>
      </trkpt>
      <trkpt lat="44.59921" lon="0.97027">
        <ele>138.6</ele>
        <time>2018-07-22T13:21:13Z</time>
      </trkpt>
      <trkpt lat="44.59918" lon="0.97026">
        <ele>138.6</ele>
        <time>2018-07-22T13:21:15Z</time>
      </trkpt>
      <trkpt lat="44.59916" lon="0.97024">
        <ele>139.1</ele>
        <time>2018-07-22T13:21:17Z</time>
      </trkpt>
      <trkpt lat="44.59912" lon="0.97022">
        <ele>139.5</ele>
        <time>2018-07-22T13:21:20Z</time>
      </trkpt>
      <trkpt lat="44.5991" lon="0.9702">
        <ele>140</ele>
        <time>2018-07-22T13:21:22Z</time>
      </trkpt>
      <trkpt lat="44.59907" lon="0.97018">
        <ele>140.3</ele>
        <time>2018-07-22T13:21:24Z</time>
      </trkpt>
      <trkpt lat="44.59904" lon="0.97016">
        <ele>140.7</ele>
        <time>2018-07-22T13:21:26Z</time>
      </trkpt>
      <trkpt lat="44.59901" lon="0.97014">
        <ele>141</ele>
        <time>2018-07-22T13:21:29Z</time>
      </trkpt>
      <trkpt lat="44.59899" lon="0.97011">
        <ele>141.4</ele>
        <time>2018-07-22T13:21:32Z</time>
      </trkpt>
      <trkpt lat="44.59896" lon="0.97008">
        <ele>141.7</ele>
        <time>2018-07-22T13:21:35Z</time>
      </trkpt>
      <trkpt lat="44.59894" lon="0.97005">
        <ele>141.6</ele>
        <time>2018-07-22T13:21:37Z</time>
      </trkpt>
      <trkpt lat="44.59893" lon="0.97001">
        <ele>141.9</ele>
        <time>2018-07-22T13:21:39Z</time>
      </trkpt>
      <trkpt lat="44.59893" lon="0.96997">
        <ele>141.8</ele>
        <time>2018-07-22T13:21:41Z</time>
      </trkpt>
      <trkpt lat="44.5989" lon="0.96997">
        <ele>142.4</ele>
        <time>2018-07-22T13:21:44Z</time>
      </trkpt>
      <trkpt lat="44.59887" lon="0.97">
        <ele>143.1</ele>
        <time>2018-07-22T13:21:47Z</time>
      </trkpt>
      <trkpt lat="44.59884" lon="0.97">
        <ele>143.7</ele>
        <time>2018-07-22T13:21:50Z</time>
      </trkpt>
      <trkpt lat="44.59881" lon="0.97">
        <ele>143.7</ele>
        <time>2018-07-22T13:21:53Z</time>
      </trkpt>
      <trkpt lat="44.59878" lon="0.97">
        <ele>144.7</ele>
        <time>2018-07-22T13:21:56Z</time>
      </trkpt>
      <trkpt lat="44.59875" lon="0.96999">
        <ele>145.3</ele>
        <time>2018-07-22T13:22:00Z</time>
      </trkpt>
      <trkpt lat="44.59873" lon="0.96997">
        <ele>145.2</ele>
        <time>2018-07-22T13:22:03Z</time>
      </trkpt>
      <trkpt lat="44.5987" lon="0.96997">
        <ele>145.8</ele>
        <time>2018-07-22T13:22:06Z</time>
      </trkpt>
      <trkpt lat="44.59866" lon="0.96996">
        <ele>146.4</ele>
        <time>2018-07-22T13:22:11Z</time>
      </trkpt>
      <trkpt lat="44.59863" lon="0.96993">
        <ele>147.1</ele>
        <time>2018-07-22T13:22:14Z</time>
      </trkpt>
      <trkpt lat="44.59862" lon="0.96989">
        <ele>147.7</ele>
        <time>2018-07-22T13:22:21Z</time>
      </trkpt>
      <trkpt lat="44.59865" lon="0.96985">
        <ele>146.9</ele>
        <time>2018-07-22T13:22:24Z</time>
      </trkpt>
      <trkpt lat="44.59866" lon="0.9698">
        <ele>146.5</ele>
        <time>2018-07-22T13:22:27Z</time>
      </trkpt>
      <trkpt lat="44.59865" lon="0.96976">
        <ele>146.5</ele>
        <time>2018-07-22T13:22:29Z</time>
      </trkpt>
      <trkpt lat="44.59862" lon="0.96975">
        <ele>146.9</ele>
        <time>2018-07-22T13:22:33Z</time>
      </trkpt>
      <trkpt lat="44.59861" lon="0.96971">
        <ele>146.6</ele>
        <time>2018-07-22T13:23:24Z</time>
      </trkpt>
      <trkpt lat="44.59858" lon="0.96966">
        <ele>146.9</ele>
        <time>2018-07-22T13:23:26Z</time>
      </trkpt>
      <trkpt lat="44.59856" lon="0.96964">
        <ele>147.6</ele>
        <time>2018-07-22T13:23:27Z</time>
      </trkpt>
      <trkpt lat="44.59853" lon="0.96958">
        <ele>147.4</ele>
        <time>2018-07-22T13:23:29Z</time>
      </trkpt>
      <trkpt lat="44.59851" lon="0.96955">
        <ele>147.5</ele>
        <time>2018-07-22T13:23:30Z</time>
      </trkpt>
      <trkpt lat="44.59849" lon="0.96951">
        <ele>147.7</ele>
        <time>2018-07-22T13:23:31Z</time>
      </trkpt>
      <trkpt lat="44.59845" lon="0.96947">
        <ele>147.9</ele>
        <time>2018-07-22T13:23:32Z</time>
      </trkpt>
      <trkpt lat="44.59843" lon="0.96944">
        <ele>148.1</ele>
        <time>2018-07-22T13:23:33Z</time>
      </trkpt>
      <trkpt lat="44.5984" lon="0.96938">
        <ele>148.3</ele>
        <time>2018-07-22T13:23:35Z</time>
      </trkpt>
      <trkpt lat="44.59833" lon="0.9693">
        <ele>148.7</ele>
        <time>2018-07-22T13:23:36Z</time>
      </trkpt>
      <trkpt lat="44.5983" lon="0.96926">
        <ele>148.8</ele>
        <time>2018-07-22T13:23:37Z</time>
      </trkpt>
      <trkpt lat="44.59828" lon="0.9692">
        <ele>149.4</ele>
        <time>2018-07-22T13:23:38Z</time>
      </trkpt>
      <trkpt lat="44.59825" lon="0.96915">
        <ele>148.8</ele>
        <time>2018-07-22T13:23:39Z</time>
      </trkpt>
      <trkpt lat="44.59822" lon="0.96909">
        <ele>148.8</ele>
        <time>2018-07-22T13:23:40Z</time>
      </trkpt>
      <trkpt lat="44.59819" lon="0.96906">
        <ele>148.7</ele>
        <time>2018-07-22T13:23:41Z</time>
      </trkpt>
      <trkpt lat="44.59818" lon="0.969">
        <ele>148.2</ele>
        <time>2018-07-22T13:23:42Z</time>
      </trkpt>
      <trkpt lat="44.59815" lon="0.96896">
        <ele>148.1</ele>
        <time>2018-07-22T13:23:43Z</time>
      </trkpt>
      <trkpt lat="44.59812" lon="0.96891">
        <ele>148</ele>
        <time>2018-07-22T13:23:44Z</time>
      </trkpt>
      <trkpt lat="44.59809" lon="0.96887">
        <ele>147.9</ele>
        <time>2018-07-22T13:23:45Z</time>
      </trkpt>
      <trkpt lat="44.59805" lon="0.96883">
        <ele>147.9</ele>
        <time>2018-07-22T13:23:46Z</time>
      </trkpt>
      <trkpt lat="44.59804" lon="0.96879">
        <ele>147.8</ele>
        <time>2018-07-22T13:23:47Z</time>
      </trkpt>
      <trkpt lat="44.598" lon="0.96876">
        <ele>147.8</ele>
        <time>2018-07-22T13:23:48Z</time>
      </trkpt>
      <trkpt lat="44.59797" lon="0.96872">
        <ele>147.7</ele>
        <time>2018-07-22T13:23:49Z</time>
      </trkpt>
      <trkpt lat="44.59794" lon="0.96867">
        <ele>147.6</ele>
        <time>2018-07-22T13:23:50Z</time>
      </trkpt>
      <trkpt lat="44.59789" lon="0.96864">
        <ele>148</ele>
        <time>2018-07-22T13:23:51Z</time>
      </trkpt>
      <trkpt lat="44.59786" lon="0.9686">
        <ele>148.5</ele>
        <time>2018-07-22T13:23:52Z</time>
      </trkpt>
      <trkpt lat="44.5978" lon="0.96856">
        <ele>149</ele>
        <time>2018-07-22T13:23:53Z</time>
      </trkpt>
      <trkpt lat="44.59776" lon="0.96853">
        <ele>148.9</ele>
        <time>2018-07-22T13:23:54Z</time>
      </trkpt>
      <trkpt lat="44.59772" lon="0.9685">
        <ele>148.8</ele>
        <time>2018-07-22T13:23:55Z</time>
      </trkpt>
      <trkpt lat="44.59765" lon="0.96849">
        <ele>149.8</ele>
        <time>2018-07-22T13:23:56Z</time>
      </trkpt>
      <trkpt lat="44.59768" lon="0.96847">
        <ele>149.1</ele>
        <time>2018-07-22T13:23:57Z</time>
      </trkpt>
      <trkpt lat="44.59764" lon="0.96849">
        <ele>150.3</ele>
        <time>2018-07-22T13:23:58Z</time>
      </trkpt>
      <trkpt lat="44.5976" lon="0.96849">
        <ele>150.8</ele>
        <time>2018-07-22T13:23:59Z</time>
      </trkpt>
      <trkpt lat="44.59753" lon="0.96849">
        <ele>151.9</ele>
        <time>2018-07-22T13:24:01Z</time>
      </trkpt>
      <trkpt lat="44.59748" lon="0.96848">
        <ele>153</ele>
        <time>2018-07-22T13:24:03Z</time>
      </trkpt>
      <trkpt lat="44.59744" lon="0.96847">
        <ele>153.5</ele>
        <time>2018-07-22T13:24:04Z</time>
      </trkpt>
      <trkpt lat="44.59739" lon="0.96846">
        <ele>153.8</ele>
        <time>2018-07-22T13:24:05Z</time>
      </trkpt>
      <trkpt lat="44.59733" lon="0.96846">
        <ele>154.8</ele>
        <time>2018-07-22T13:24:06Z</time>
      </trkpt>
      <trkpt lat="44.59727" lon="0.96846">
        <ele>155.7</ele>
        <time>2018-07-22T13:24:07Z</time>
      </trkpt>
      <trkpt lat="44.59721" lon="0.96845">
        <ele>156.7</ele>
        <time>2018-07-22T13:24:08Z</time>
      </trkpt>
      <trkpt lat="44.59716" lon="0.96843">
        <ele>157.6</ele>
        <time>2018-07-22T13:24:09Z</time>
      </trkpt>
      <trkpt lat="44.5971" lon="0.96841">
        <ele>157.5</ele>
        <time>2018-07-22T13:24:10Z</time>
      </trkpt>
      <trkpt lat="44.59704" lon="0.96834">
        <ele>157.1</ele>
        <time>2018-07-22T13:24:11Z</time>
      </trkpt>
      <trkpt lat="44.59701" lon="0.96827">
        <ele>157.5</ele>
        <time>2018-07-22T13:24:12Z</time>
      </trkpt>
      <trkpt lat="44.59696" lon="0.96818">
        <ele>157</ele>
        <time>2018-07-22T13:24:13Z</time>
      </trkpt>
      <trkpt lat="44.59694" lon="0.9681">
        <ele>156.5</ele>
        <time>2018-07-22T13:24:14Z</time>
      </trkpt>
      <trkpt lat="44.59691" lon="0.96802">
        <ele>156</ele>
        <time>2018-07-22T13:24:15Z</time>
      </trkpt>
      <trkpt lat="44.59687" lon="0.96793">
        <ele>155.3</ele>
        <time>2018-07-22T13:24:16Z</time>
      </trkpt>
      <trkpt lat="44.59682" lon="0.96785">
        <ele>155.1</ele>
        <time>2018-07-22T13:24:17Z</time>
      </trkpt>
      <trkpt lat="44.59676" lon="0.96779">
        <ele>155.5</ele>
        <time>2018-07-22T13:24:18Z</time>
      </trkpt>
      <trkpt lat="44.59672" lon="0.96773">
        <ele>154.7</ele>
        <time>2018-07-22T13:24:19Z</time>
      </trkpt>
      <trkpt lat="44.59664" lon="0.96768">
        <ele>155.1</ele>
        <time>2018-07-22T13:24:20Z</time>
      </trkpt>
      <trkpt lat="44.59661" lon="0.96765">
        <ele>155.4</ele>
        <time>2018-07-22T13:24:21Z</time>
      </trkpt>
      <trkpt lat="44.59654" lon="0.96761">
        <ele>155.6</ele>
        <time>2018-07-22T13:24:22Z</time>
      </trkpt>
      <trkpt lat="44.59647" lon="0.96756">
        <ele>155.9</ele>
        <time>2018-07-22T13:24:23Z</time>
      </trkpt>
      <trkpt lat="44.59643" lon="0.96752">
        <ele>155.7</ele>
        <time>2018-07-22T13:24:24Z</time>
      </trkpt>
      <trkpt lat="44.59637" lon="0.96749">
        <ele>156.5</ele>
        <time>2018-07-22T13:24:25Z</time>
      </trkpt>
      <trkpt lat="44.59633" lon="0.96744">
        <ele>156.5</ele>
        <time>2018-07-22T13:24:26Z</time>
      </trkpt>
      <trkpt lat="44.59629" lon="0.9674">
        <ele>156</ele>
        <time>2018-07-22T13:24:27Z</time>
      </trkpt>
      <trkpt lat="44.59626" lon="0.96735">
        <ele>154.7</ele>
        <time>2018-07-22T13:24:28Z</time>
      </trkpt>
      <trkpt lat="44.59622" lon="0.96729">
        <ele>154.1</ele>
        <time>2018-07-22T13:24:29Z</time>
      </trkpt>
      <trkpt lat="44.59618" lon="0.96721">
        <ele>152.7</ele>
        <time>2018-07-22T13:24:30Z</time>
      </trkpt>
      <trkpt lat="44.59616" lon="0.96712">
        <ele>151.2</ele>
        <time>2018-07-22T13:24:31Z</time>
      </trkpt>
      <trkpt lat="44.59614" lon="0.96704">
        <ele>149.6</ele>
        <time>2018-07-22T13:24:32Z</time>
      </trkpt>
      <trkpt lat="44.59612" lon="0.96696">
        <ele>148</ele>
        <time>2018-07-22T13:24:33Z</time>
      </trkpt>
      <trkpt lat="44.59612" lon="0.96687">
        <ele>146.3</ele>
        <time>2018-07-22T13:24:34Z</time>
      </trkpt>
      <trkpt lat="44.59608" lon="0.9668">
        <ele>144.4</ele>
        <time>2018-07-22T13:24:35Z</time>
      </trkpt>
      <trkpt lat="44.59604" lon="0.96673">
        <ele>143.6</ele>
        <time>2018-07-22T13:24:36Z</time>
      </trkpt>
      <trkpt lat="44.59601" lon="0.96666">
        <ele>141.9</ele>
        <time>2018-07-22T13:24:37Z</time>
      </trkpt>
      <trkpt lat="44.59598" lon="0.96661">
        <ele>141</ele>
        <time>2018-07-22T13:24:38Z</time>
      </trkpt>
      <trkpt lat="44.59599" lon="0.96656">
        <ele>140.3</ele>
        <time>2018-07-22T13:24:39Z</time>
      </trkpt>
      <trkpt lat="44.59603" lon="0.96653">
        <ele>139.9</ele>
        <time>2018-07-22T13:24:40Z</time>
      </trkpt>
      <trkpt lat="44.59606" lon="0.96652">
        <ele>140.1</ele>
        <time>2018-07-22T13:24:41Z</time>
      </trkpt>
      <trkpt lat="44.59612" lon="0.96653">
        <ele>140.3</ele>
        <time>2018-07-22T13:24:42Z</time>
      </trkpt>
      <trkpt lat="44.59618" lon="0.96652">
        <ele>140.6</ele>
        <time>2018-07-22T13:24:43Z</time>
      </trkpt>
      <trkpt lat="44.59622" lon="0.9665">
        <ele>140.2</ele>
        <time>2018-07-22T13:24:44Z</time>
      </trkpt>
      <trkpt lat="44.59625" lon="0.96646">
        <ele>140.3</ele>
        <time>2018-07-22T13:24:45Z</time>
      </trkpt>
      <trkpt lat="44.59628" lon="0.96641">
        <ele>139.3</ele>
        <time>2018-07-22T13:24:46Z</time>
      </trkpt>
      <trkpt lat="44.5963" lon="0.96634">
        <ele>138.9</ele>
        <time>2018-07-22T13:24:47Z</time>
      </trkpt>
      <trkpt lat="44.59631" lon="0.96626">
        <ele>138.2</ele>
        <time>2018-07-22T13:24:48Z</time>
      </trkpt>
      <trkpt lat="44.59634" lon="0.96619">
        <ele>137.7</ele>
        <time>2018-07-22T13:24:49Z</time>
      </trkpt>
      <trkpt lat="44.59636" lon="0.96616">
        <ele>137.7</ele>
        <time>2018-07-22T13:24:50Z</time>
      </trkpt>
      <trkpt lat="44.5964" lon="0.96613">
        <ele>137.6</ele>
        <time>2018-07-22T13:24:51Z</time>
      </trkpt>
      <trkpt lat="44.59644" lon="0.9661">
        <ele>137.6</ele>
        <time>2018-07-22T13:24:52Z</time>
      </trkpt>
      <trkpt lat="44.59651" lon="0.96607">
        <ele>137.4</ele>
        <time>2018-07-22T13:24:54Z</time>
      </trkpt>
      <trkpt lat="44.59656" lon="0.96605">
        <ele>137.3</ele>
        <time>2018-07-22T13:24:55Z</time>
      </trkpt>
      <trkpt lat="44.59661" lon="0.96606">
        <ele>137.3</ele>
        <time>2018-07-22T13:24:56Z</time>
      </trkpt>
      <trkpt lat="44.59665" lon="0.96604">
        <ele>137.2</ele>
        <time>2018-07-22T13:24:57Z</time>
      </trkpt>
      <trkpt lat="44.59671" lon="0.96602">
        <ele>137.1</ele>
        <time>2018-07-22T13:24:58Z</time>
      </trkpt>
      <trkpt lat="44.59674" lon="0.96605">
        <ele>137</ele>
        <time>2018-07-22T13:24:59Z</time>
      </trkpt>
      <trkpt lat="44.59678" lon="0.96607">
        <ele>136.9</ele>
        <time>2018-07-22T13:25:00Z</time>
      </trkpt>
      <trkpt lat="44.59681" lon="0.96608">
        <ele>136.9</ele>
        <time>2018-07-22T13:25:01Z</time>
      </trkpt>
      <trkpt lat="44.59686" lon="0.96608">
        <ele>136.8</ele>
        <time>2018-07-22T13:25:02Z</time>
      </trkpt>
      <trkpt lat="44.59689" lon="0.96607">
        <ele>136.8</ele>
        <time>2018-07-22T13:25:03Z</time>
      </trkpt>
      <trkpt lat="44.59689" lon="0.96602">
        <ele>136.8</ele>
        <time>2018-07-22T13:25:06Z</time>
      </trkpt>
      <trkpt lat="44.59686" lon="0.96599">
        <ele>136.8</ele>
        <time>2018-07-22T13:25:07Z</time>
      </trkpt>
      <trkpt lat="44.59684" lon="0.96595">
        <ele>136.9</ele>
        <time>2018-07-22T13:25:08Z</time>
      </trkpt>
      <trkpt lat="44.59681" lon="0.96591">
        <ele>136.9</ele>
        <time>2018-07-22T13:25:09Z</time>
      </trkpt>
      <trkpt lat="44.59678" lon="0.96587">
        <ele>137</ele>
        <time>2018-07-22T13:25:10Z</time>
      </trkpt>
      <trkpt lat="44.5968" lon="0.96576">
        <ele>137.1</ele>
        <time>2018-07-22T13:25:11Z</time>
      </trkpt>
      <trkpt lat="44.59679" lon="0.96569">
        <ele>137.2</ele>
        <time>2018-07-22T13:25:12Z</time>
      </trkpt>
      <trkpt lat="44.59678" lon="0.96562">
        <ele>138.3</ele>
        <time>2018-07-22T13:25:13Z</time>
      </trkpt>
      <trkpt lat="44.5968" lon="0.96556">
        <ele>139.4</ele>
        <time>2018-07-22T13:25:14Z</time>
      </trkpt>
      <trkpt lat="44.59681" lon="0.96549">
        <ele>140.8</ele>
        <time>2018-07-22T13:25:15Z</time>
      </trkpt>
      <trkpt lat="44.59683" lon="0.96541">
        <ele>142.9</ele>
        <time>2018-07-22T13:25:16Z</time>
      </trkpt>
      <trkpt lat="44.59685" lon="0.96539">
        <ele>142.9</ele>
        <time>2018-07-22T13:25:17Z</time>
      </trkpt>
      <trkpt lat="44.59682" lon="0.96531">
        <ele>144</ele>
        <time>2018-07-22T13:25:18Z</time>
      </trkpt>
      <trkpt lat="44.59676" lon="0.96524">
        <ele>145.2</ele>
        <time>2018-07-22T13:25:19Z</time>
      </trkpt>
      <trkpt lat="44.59671" lon="0.96521">
        <ele>144.7</ele>
        <time>2018-07-22T13:25:20Z</time>
      </trkpt>
      <trkpt lat="44.59666" lon="0.96517">
        <ele>144.2</ele>
        <time>2018-07-22T13:25:21Z</time>
      </trkpt>
      <trkpt lat="44.59661" lon="0.96513">
        <ele>143.6</ele>
        <time>2018-07-22T13:25:22Z</time>
      </trkpt>
      <trkpt lat="44.59657" lon="0.96509">
        <ele>143.3</ele>
        <time>2018-07-22T13:25:23Z</time>
      </trkpt>
      <trkpt lat="44.59653" lon="0.96506">
        <ele>143.6</ele>
        <time>2018-07-22T13:25:24Z</time>
      </trkpt>
      <trkpt lat="44.5965" lon="0.96497">
        <ele>144.8</ele>
        <time>2018-07-22T13:25:26Z</time>
      </trkpt>
      <trkpt lat="44.59644" lon="0.96495">
        <ele>144.3</ele>
        <time>2018-07-22T13:25:27Z</time>
      </trkpt>
      <trkpt lat="44.5964" lon="0.96488">
        <ele>144.4</ele>
        <time>2018-07-22T13:25:28Z</time>
      </trkpt>
      <trkpt lat="44.59634" lon="0.96487">
        <ele>142.9</ele>
        <time>2018-07-22T13:25:29Z</time>
      </trkpt>
      <trkpt lat="44.59627" lon="0.96486">
        <ele>141.6</ele>
        <time>2018-07-22T13:25:30Z</time>
      </trkpt>
      <trkpt lat="44.59624" lon="0.96484">
        <ele>140.9</ele>
        <time>2018-07-22T13:25:31Z</time>
      </trkpt>
      <trkpt lat="44.59621" lon="0.96481">
        <ele>141.1</ele>
        <time>2018-07-22T13:25:32Z</time>
      </trkpt>
      <trkpt lat="44.59618" lon="0.96476">
        <ele>141.2</ele>
        <time>2018-07-22T13:25:33Z</time>
      </trkpt>
      <trkpt lat="44.59611" lon="0.96474">
        <ele>139.6</ele>
        <time>2018-07-22T13:25:34Z</time>
      </trkpt>
      <trkpt lat="44.59607" lon="0.96472">
        <ele>139.5</ele>
        <time>2018-07-22T13:25:35Z</time>
      </trkpt>
      <trkpt lat="44.59602" lon="0.96469">
        <ele>138.7</ele>
        <time>2018-07-22T13:25:36Z</time>
      </trkpt>
      <trkpt lat="44.59597" lon="0.96466">
        <ele>137.3</ele>
        <time>2018-07-22T13:25:37Z</time>
      </trkpt>
      <trkpt lat="44.59595" lon="0.96463">
        <ele>138</ele>
        <time>2018-07-22T13:25:38Z</time>
      </trkpt>
      <trkpt lat="44.59591" lon="0.96459">
        <ele>137.9</ele>
        <time>2018-07-22T13:25:39Z</time>
      </trkpt>
      <trkpt lat="44.59589" lon="0.96457">
        <ele>137.2</ele>
        <time>2018-07-22T13:25:40Z</time>
      </trkpt>
      <trkpt lat="44.59586" lon="0.96455">
        <ele>137</ele>
        <time>2018-07-22T13:25:41Z</time>
      </trkpt>
      <trkpt lat="44.59583" lon="0.96452">
        <ele>136.2</ele>
        <time>2018-07-22T13:25:42Z</time>
      </trkpt>
      <trkpt lat="44.59581" lon="0.9645">
        <ele>136</ele>
        <time>2018-07-22T13:25:43Z</time>
      </trkpt>
      <trkpt lat="44.59578" lon="0.96448">
        <ele>135.8</ele>
        <time>2018-07-22T13:25:44Z</time>
      </trkpt>
      <trkpt lat="44.59576" lon="0.96445">
        <ele>135.8</ele>
        <time>2018-07-22T13:25:45Z</time>
      </trkpt>
      <trkpt lat="44.59572" lon="0.96442">
        <ele>135.1</ele>
        <time>2018-07-22T13:25:47Z</time>
      </trkpt>
      <trkpt lat="44.59569" lon="0.9644">
        <ele>134.4</ele>
        <time>2018-07-22T13:25:49Z</time>
      </trkpt>
      <trkpt lat="44.59564" lon="0.96438">
        <ele>134.3</ele>
        <time>2018-07-22T13:25:51Z</time>
      </trkpt>
      <trkpt lat="44.59561" lon="0.96437">
        <ele>133.7</ele>
        <time>2018-07-22T13:25:53Z</time>
      </trkpt>
      <trkpt lat="44.59558" lon="0.96433">
        <ele>133.6</ele>
        <time>2018-07-22T13:25:56Z</time>
      </trkpt>
      <trkpt lat="44.59553" lon="0.9643">
        <ele>133</ele>
        <time>2018-07-22T13:25:58Z</time>
      </trkpt>
      <trkpt lat="44.59548" lon="0.96428">
        <ele>132.5</ele>
        <time>2018-07-22T13:26:00Z</time>
      </trkpt>
      <trkpt lat="44.59544" lon="0.96426">
        <ele>132.1</ele>
        <time>2018-07-22T13:26:02Z</time>
      </trkpt>
      <trkpt lat="44.59541" lon="0.96424">
        <ele>131.8</ele>
        <time>2018-07-22T13:26:04Z</time>
      </trkpt>
      <trkpt lat="44.59537" lon="0.96421">
        <ele>131.9</ele>
        <time>2018-07-22T13:26:06Z</time>
      </trkpt>
      <trkpt lat="44.59534" lon="0.96419">
        <ele>131.6</ele>
        <time>2018-07-22T13:26:07Z</time>
      </trkpt>
      <trkpt lat="44.59532" lon="0.96418">
        <ele>131.7</ele>
        <time>2018-07-22T13:26:08Z</time>
      </trkpt>
      <trkpt lat="44.59529" lon="0.96417">
        <ele>131.4</ele>
        <time>2018-07-22T13:26:09Z</time>
      </trkpt>
      <trkpt lat="44.59524" lon="0.96415">
        <ele>131.1</ele>
        <time>2018-07-22T13:26:11Z</time>
      </trkpt>
      <trkpt lat="44.59521" lon="0.96414">
        <ele>130.8</ele>
        <time>2018-07-22T13:26:12Z</time>
      </trkpt>
      <trkpt lat="44.59517" lon="0.96413">
        <ele>130.7</ele>
        <time>2018-07-22T13:26:13Z</time>
      </trkpt>
      <trkpt lat="44.59514" lon="0.96412">
        <ele>130.5</ele>
        <time>2018-07-22T13:26:14Z</time>
      </trkpt>
      <trkpt lat="44.59511" lon="0.96411">
        <ele>130.3</ele>
        <time>2018-07-22T13:26:15Z</time>
      </trkpt>
      <trkpt lat="44.59508" lon="0.9641">
        <ele>130.3</ele>
        <time>2018-07-22T13:26:16Z</time>
      </trkpt>
      <trkpt lat="44.59506" lon="0.96409">
        <ele>130.5</ele>
        <time>2018-07-22T13:26:17Z</time>
      </trkpt>
      <trkpt lat="44.59503" lon="0.96408">
        <ele>130.3</ele>
        <time>2018-07-22T13:26:18Z</time>
      </trkpt>
      <trkpt lat="44.595" lon="0.96407">
        <ele>130</ele>
        <time>2018-07-22T13:26:19Z</time>
      </trkpt>
      <trkpt lat="44.59495" lon="0.96406">
        <ele>129.7</ele>
        <time>2018-07-22T13:26:21Z</time>
      </trkpt>
      <trkpt lat="44.59492" lon="0.96406">
        <ele>129.5</ele>
        <time>2018-07-22T13:26:22Z</time>
      </trkpt>
      <trkpt lat="44.59489" lon="0.96406">
        <ele>129.5</ele>
        <time>2018-07-22T13:26:23Z</time>
      </trkpt>
      <trkpt lat="44.59484" lon="0.96406">
        <ele>129.4</ele>
        <time>2018-07-22T13:26:25Z</time>
      </trkpt>
      <trkpt lat="44.5948" lon="0.96405">
        <ele>129.9</ele>
        <time>2018-07-22T13:26:27Z</time>
      </trkpt>
      <trkpt lat="44.59477" lon="0.96404">
        <ele>130</ele>
        <time>2018-07-22T13:26:28Z</time>
      </trkpt>
      <trkpt lat="44.59474" lon="0.96403">
        <ele>130.1</ele>
        <time>2018-07-22T13:26:29Z</time>
      </trkpt>
      <trkpt lat="44.59469" lon="0.96402">
        <ele>130.2</ele>
        <time>2018-07-22T13:26:31Z</time>
      </trkpt>
      <trkpt lat="44.59466" lon="0.96401">
        <ele>130.3</ele>
        <time>2018-07-22T13:26:32Z</time>
      </trkpt>
      <trkpt lat="44.59463" lon="0.96401">
        <ele>131.1</ele>
        <time>2018-07-22T13:26:33Z</time>
      </trkpt>
      <trkpt lat="44.5946" lon="0.964">
        <ele>131.3</ele>
        <time>2018-07-22T13:26:34Z</time>
      </trkpt>
      <trkpt lat="44.59455" lon="0.964">
        <ele>131.8</ele>
        <time>2018-07-22T13:26:36Z</time>
      </trkpt>
      <trkpt lat="44.59451" lon="0.964">
        <ele>132</ele>
        <time>2018-07-22T13:26:38Z</time>
      </trkpt>
      <trkpt lat="44.59446" lon="0.964">
        <ele>132.3</ele>
        <time>2018-07-22T13:26:40Z</time>
      </trkpt>
      <trkpt lat="44.59442" lon="0.96399">
        <ele>132.4</ele>
        <time>2018-07-22T13:26:42Z</time>
      </trkpt>
      <trkpt lat="44.59437" lon="0.96399">
        <ele>132.7</ele>
        <time>2018-07-22T13:26:44Z</time>
      </trkpt>
      <trkpt lat="44.59432" lon="0.96399">
        <ele>132.8</ele>
        <time>2018-07-22T13:26:46Z</time>
      </trkpt>
      <trkpt lat="44.59428" lon="0.96398">
        <ele>132.8</ele>
        <time>2018-07-22T13:26:48Z</time>
      </trkpt>
      <trkpt lat="44.59424" lon="0.96399">
        <ele>132.8</ele>
        <time>2018-07-22T13:26:50Z</time>
      </trkpt>
      <trkpt lat="44.5942" lon="0.96399">
        <ele>132.8</ele>
        <time>2018-07-22T13:26:52Z</time>
      </trkpt>
      <trkpt lat="44.59416" lon="0.96399">
        <ele>132.7</ele>
        <time>2018-07-22T13:26:54Z</time>
      </trkpt>
      <trkpt lat="44.59411" lon="0.96398">
        <ele>132.6</ele>
        <time>2018-07-22T13:26:56Z</time>
      </trkpt>
      <trkpt lat="44.59409" lon="0.96397">
        <ele>132.5</ele>
        <time>2018-07-22T13:26:57Z</time>
      </trkpt>
      <trkpt lat="44.59407" lon="0.96394">
        <ele>132.3</ele>
        <time>2018-07-22T13:26:58Z</time>
      </trkpt>
      <trkpt lat="44.59406" lon="0.96389">
        <ele>132.2</ele>
        <time>2018-07-22T13:26:59Z</time>
      </trkpt>
      <trkpt lat="44.59406" lon="0.96385">
        <ele>132.1</ele>
        <time>2018-07-22T13:27:00Z</time>
      </trkpt>
      <trkpt lat="44.59407" lon="0.96381">
        <ele>131.9</ele>
        <time>2018-07-22T13:27:01Z</time>
      </trkpt>
      <trkpt lat="44.59408" lon="0.96376">
        <ele>132</ele>
        <time>2018-07-22T13:27:02Z</time>
      </trkpt>
      <trkpt lat="44.59409" lon="0.96371">
        <ele>131.8</ele>
        <time>2018-07-22T13:27:03Z</time>
      </trkpt>
      <trkpt lat="44.59411" lon="0.96366">
        <ele>131.6</ele>
        <time>2018-07-22T13:27:05Z</time>
      </trkpt>
      <trkpt lat="44.59414" lon="0.96359">
        <ele>131.6</ele>
        <time>2018-07-22T13:27:07Z</time>
      </trkpt>
      <trkpt lat="44.59416" lon="0.96355">
        <ele>131.4</ele>
        <time>2018-07-22T13:27:08Z</time>
      </trkpt>
      <trkpt lat="44.59419" lon="0.96351">
        <ele>131.4</ele>
        <time>2018-07-22T13:27:09Z</time>
      </trkpt>
      <trkpt lat="44.59423" lon="0.96346">
        <ele>131.4</ele>
        <time>2018-07-22T13:27:10Z</time>
      </trkpt>
      <trkpt lat="44.59427" lon="0.96342">
        <ele>131.6</ele>
        <time>2018-07-22T13:27:11Z</time>
      </trkpt>
      <trkpt lat="44.59431" lon="0.96335">
        <ele>131.5</ele>
        <time>2018-07-22T13:27:12Z</time>
      </trkpt>
      <trkpt lat="44.59435" lon="0.96331">
        <ele>131.7</ele>
        <time>2018-07-22T13:27:13Z</time>
      </trkpt>
      <trkpt lat="44.5944" lon="0.96325">
        <ele>132</ele>
        <time>2018-07-22T13:27:14Z</time>
      </trkpt>
      <trkpt lat="44.59443" lon="0.96316">
        <ele>132.4</ele>
        <time>2018-07-22T13:27:15Z</time>
      </trkpt>
      <trkpt lat="44.59445" lon="0.9631">
        <ele>132.8</ele>
        <time>2018-07-22T13:27:16Z</time>
      </trkpt>
      <trkpt lat="44.59446" lon="0.96304">
        <ele>132.8</ele>
        <time>2018-07-22T13:27:17Z</time>
      </trkpt>
      <trkpt lat="44.59448" lon="0.96298">
        <ele>133</ele>
        <time>2018-07-22T13:27:18Z</time>
      </trkpt>
      <trkpt lat="44.59451" lon="0.96293">
        <ele>133</ele>
        <time>2018-07-22T13:27:19Z</time>
      </trkpt>
      <trkpt lat="44.59452" lon="0.96287">
        <ele>132.9</ele>
        <time>2018-07-22T13:27:20Z</time>
      </trkpt>
      <trkpt lat="44.59455" lon="0.96282">
        <ele>132.9</ele>
        <time>2018-07-22T13:27:22Z</time>
      </trkpt>
      <trkpt lat="44.59456" lon="0.96277">
        <ele>132.7</ele>
        <time>2018-07-22T13:27:24Z</time>
      </trkpt>
      <trkpt lat="44.59458" lon="0.96272">
        <ele>132.6</ele>
        <time>2018-07-22T13:27:27Z</time>
      </trkpt>
      <trkpt lat="44.59457" lon="0.96268">
        <ele>131.8</ele>
        <time>2018-07-22T13:27:52Z</time>
      </trkpt>
      <trkpt lat="44.59459" lon="0.96264">
        <ele>131.8</ele>
        <time>2018-07-22T13:27:53Z</time>
      </trkpt>
      <trkpt lat="44.59461" lon="0.96261">
        <ele>131.6</ele>
        <time>2018-07-22T13:27:54Z</time>
      </trkpt>
      <trkpt lat="44.59463" lon="0.96256">
        <ele>131.4</ele>
        <time>2018-07-22T13:27:55Z</time>
      </trkpt>
      <trkpt lat="44.59464" lon="0.96251">
        <ele>131</ele>
        <time>2018-07-22T13:27:56Z</time>
      </trkpt>
      <trkpt lat="44.59465" lon="0.96246">
        <ele>130.1</ele>
        <time>2018-07-22T13:27:57Z</time>
      </trkpt>
      <trkpt lat="44.59466" lon="0.96241">
        <ele>130</ele>
        <time>2018-07-22T13:27:58Z</time>
      </trkpt>
      <trkpt lat="44.59467" lon="0.96237">
        <ele>129.8</ele>
        <time>2018-07-22T13:27:59Z</time>
      </trkpt>
      <trkpt lat="44.59468" lon="0.96232">
        <ele>129.8</ele>
        <time>2018-07-22T13:28:00Z</time>
      </trkpt>
      <trkpt lat="44.59468" lon="0.96226">
        <ele>129.8</ele>
        <time>2018-07-22T13:28:01Z</time>
      </trkpt>
      <trkpt lat="44.59469" lon="0.9622">
        <ele>130.5</ele>
        <time>2018-07-22T13:28:02Z</time>
      </trkpt>
      <trkpt lat="44.59469" lon="0.96215">
        <ele>131</ele>
        <time>2018-07-22T13:28:03Z</time>
      </trkpt>
      <trkpt lat="44.5947" lon="0.96211">
        <ele>131.6</ele>
        <time>2018-07-22T13:28:04Z</time>
      </trkpt>
      <trkpt lat="44.59471" lon="0.96207">
        <ele>132.2</ele>
        <time>2018-07-22T13:28:05Z</time>
      </trkpt>
      <trkpt lat="44.59472" lon="0.96202">
        <ele>133</ele>
        <time>2018-07-22T13:28:06Z</time>
      </trkpt>
      <trkpt lat="44.59473" lon="0.96196">
        <ele>133.7</ele>
        <time>2018-07-22T13:28:07Z</time>
      </trkpt>
      <trkpt lat="44.59475" lon="0.9619">
        <ele>135.1</ele>
        <time>2018-07-22T13:28:08Z</time>
      </trkpt>
      <trkpt lat="44.59476" lon="0.96185">
        <ele>135.8</ele>
        <time>2018-07-22T13:28:09Z</time>
      </trkpt>
      <trkpt lat="44.59477" lon="0.96179">
        <ele>136.5</ele>
        <time>2018-07-22T13:28:10Z</time>
      </trkpt>
      <trkpt lat="44.59477" lon="0.96174">
        <ele>137.1</ele>
        <time>2018-07-22T13:28:11Z</time>
      </trkpt>
      <trkpt lat="44.59476" lon="0.96168">
        <ele>138.4</ele>
        <time>2018-07-22T13:28:12Z</time>
      </trkpt>
      <trkpt lat="44.59475" lon="0.96162">
        <ele>138.4</ele>
        <time>2018-07-22T13:28:13Z</time>
      </trkpt>
      <trkpt lat="44.59473" lon="0.96157">
        <ele>138.3</ele>
        <time>2018-07-22T13:28:14Z</time>
      </trkpt>
      <trkpt lat="44.59471" lon="0.96152">
        <ele>138.2</ele>
        <time>2018-07-22T13:28:15Z</time>
      </trkpt>
      <trkpt lat="44.59469" lon="0.96149">
        <ele>138.1</ele>
        <time>2018-07-22T13:28:16Z</time>
      </trkpt>
      <trkpt lat="44.59467" lon="0.96145">
        <ele>137.9</ele>
        <time>2018-07-22T13:28:18Z</time>
      </trkpt>
      <trkpt lat="44.59464" lon="0.96142">
        <ele>137.8</ele>
        <time>2018-07-22T13:28:20Z</time>
      </trkpt>
      <trkpt lat="44.59459" lon="0.96139">
        <ele>138.2</ele>
        <time>2018-07-22T13:28:22Z</time>
      </trkpt>
      <trkpt lat="44.59456" lon="0.96136">
        <ele>137.7</ele>
        <time>2018-07-22T13:28:24Z</time>
      </trkpt>
      <trkpt lat="44.59453" lon="0.96132">
        <ele>138</ele>
        <time>2018-07-22T13:28:26Z</time>
      </trkpt>
      <trkpt lat="44.59449" lon="0.96128">
        <ele>138.3</ele>
        <time>2018-07-22T13:28:28Z</time>
      </trkpt>
      <trkpt lat="44.59445" lon="0.96124">
        <ele>138.6</ele>
        <time>2018-07-22T13:28:30Z</time>
      </trkpt>
      <trkpt lat="44.59441" lon="0.96119">
        <ele>138.3</ele>
        <time>2018-07-22T13:28:32Z</time>
      </trkpt>
      <trkpt lat="44.59437" lon="0.96114">
        <ele>138.5</ele>
        <time>2018-07-22T13:28:34Z</time>
      </trkpt>
      <trkpt lat="44.59434" lon="0.96109">
        <ele>139.2</ele>
        <time>2018-07-22T13:28:36Z</time>
      </trkpt>
      <trkpt lat="44.59434" lon="0.96104">
        <ele>139.8</ele>
        <time>2018-07-22T13:28:38Z</time>
      </trkpt>
      <trkpt lat="44.59434" lon="0.961">
        <ele>140.3</ele>
        <time>2018-07-22T13:28:40Z</time>
      </trkpt>
      <trkpt lat="44.59437" lon="0.96097">
        <ele>140.9</ele>
        <time>2018-07-22T13:28:43Z</time>
      </trkpt>
      <trkpt lat="44.59441" lon="0.96096">
        <ele>142.1</ele>
        <time>2018-07-22T13:28:45Z</time>
      </trkpt>
      <trkpt lat="44.59444" lon="0.96097">
        <ele>142.6</ele>
        <time>2018-07-22T13:28:47Z</time>
      </trkpt>
      <trkpt lat="44.59448" lon="0.96098">
        <ele>143.1</ele>
        <time>2018-07-22T13:28:50Z</time>
      </trkpt>
      <trkpt lat="44.59451" lon="0.96098">
        <ele>143.6</ele>
        <time>2018-07-22T13:28:53Z</time>
      </trkpt>
      <trkpt lat="44.59454" lon="0.96097">
        <ele>144.1</ele>
        <time>2018-07-22T13:28:56Z</time>
      </trkpt>
      <trkpt lat="44.59457" lon="0.96096">
        <ele>145.2</ele>
        <time>2018-07-22T13:29:00Z</time>
      </trkpt>
      <trkpt lat="44.5946" lon="0.96095">
        <ele>145.6</ele>
        <time>2018-07-22T13:29:02Z</time>
      </trkpt>
      <trkpt lat="44.59463" lon="0.96095">
        <ele>146</ele>
        <time>2018-07-22T13:29:04Z</time>
      </trkpt>
      <trkpt lat="44.59466" lon="0.96094">
        <ele>146.4</ele>
        <time>2018-07-22T13:29:06Z</time>
      </trkpt>
      <trkpt lat="44.59469" lon="0.96093">
        <ele>146.8</ele>
        <time>2018-07-22T13:29:08Z</time>
      </trkpt>
      <trkpt lat="44.59472" lon="0.96093">
        <ele>146.8</ele>
        <time>2018-07-22T13:29:14Z</time>
      </trkpt>
      <trkpt lat="44.59475" lon="0.96093">
        <ele>147.4</ele>
        <time>2018-07-22T13:29:16Z</time>
      </trkpt>
      <trkpt lat="44.59479" lon="0.96091">
        <ele>148.5</ele>
        <time>2018-07-22T13:29:18Z</time>
      </trkpt>
      <trkpt lat="44.59484" lon="0.9609">
        <ele>148.8</ele>
        <time>2018-07-22T13:29:20Z</time>
      </trkpt>
      <trkpt lat="44.59487" lon="0.96089">
        <ele>149</ele>
        <time>2018-07-22T13:29:22Z</time>
      </trkpt>
      <trkpt lat="44.5949" lon="0.96089">
        <ele>149.4</ele>
        <time>2018-07-22T13:29:24Z</time>
      </trkpt>
      <trkpt lat="44.59493" lon="0.96089">
        <ele>149.4</ele>
        <time>2018-07-22T13:29:26Z</time>
      </trkpt>
      <trkpt lat="44.59497" lon="0.9609">
        <ele>149.7</ele>
        <time>2018-07-22T13:29:28Z</time>
      </trkpt>
      <trkpt lat="44.595" lon="0.9609">
        <ele>149.8</ele>
        <time>2018-07-22T13:29:30Z</time>
      </trkpt>
      <trkpt lat="44.59504" lon="0.96091">
        <ele>149.9</ele>
        <time>2018-07-22T13:29:32Z</time>
      </trkpt>
      <trkpt lat="44.59507" lon="0.96092">
        <ele>149</ele>
        <time>2018-07-22T13:29:34Z</time>
      </trkpt>
      <trkpt lat="44.5951" lon="0.96093">
        <ele>149.1</ele>
        <time>2018-07-22T13:29:36Z</time>
      </trkpt>
      <trkpt lat="44.59513" lon="0.96096">
        <ele>149</ele>
        <time>2018-07-22T13:29:39Z</time>
      </trkpt>
      <trkpt lat="44.59517" lon="0.96096">
        <ele>149</ele>
        <time>2018-07-22T13:29:41Z</time>
      </trkpt>
      <trkpt lat="44.5952" lon="0.96095">
        <ele>148.9</ele>
        <time>2018-07-22T13:29:45Z</time>
      </trkpt>
      <trkpt lat="44.59523" lon="0.96094">
        <ele>148.8</ele>
        <time>2018-07-22T13:29:48Z</time>
      </trkpt>
      <trkpt lat="44.59526" lon="0.96097">
        <ele>147.6</ele>
        <time>2018-07-22T13:29:52Z</time>
      </trkpt>
      <trkpt lat="44.5953" lon="0.96095">
        <ele>148.3</ele>
        <time>2018-07-22T13:29:54Z</time>
      </trkpt>
      <trkpt lat="44.59533" lon="0.96092">
        <ele>148.2</ele>
        <time>2018-07-22T13:29:56Z</time>
      </trkpt>
      <trkpt lat="44.59537" lon="0.96091">
        <ele>149.1</ele>
        <time>2018-07-22T13:29:58Z</time>
      </trkpt>
      <trkpt lat="44.5954" lon="0.96091">
        <ele>148.9</ele>
        <time>2018-07-22T13:30:00Z</time>
      </trkpt>
      <trkpt lat="44.59543" lon="0.9609">
        <ele>148.7</ele>
        <time>2018-07-22T13:30:02Z</time>
      </trkpt>
      <trkpt lat="44.59548" lon="0.96084">
        <ele>149.5</ele>
        <time>2018-07-22T13:30:06Z</time>
      </trkpt>
      <trkpt lat="44.59552" lon="0.96082">
        <ele>150.6</ele>
        <time>2018-07-22T13:30:08Z</time>
      </trkpt>
      <trkpt lat="44.59555" lon="0.96079">
        <ele>150.4</ele>
        <time>2018-07-22T13:30:10Z</time>
      </trkpt>
      <trkpt lat="44.59557" lon="0.96076">
        <ele>151.7</ele>
        <time>2018-07-22T13:30:13Z</time>
      </trkpt>
      <trkpt lat="44.59559" lon="0.96072">
        <ele>152.8</ele>
        <time>2018-07-22T13:30:16Z</time>
      </trkpt>
      <trkpt lat="44.59561" lon="0.96069">
        <ele>153.9</ele>
        <time>2018-07-22T13:30:18Z</time>
      </trkpt>
      <trkpt lat="44.59564" lon="0.96065">
        <ele>155.1</ele>
        <time>2018-07-22T13:30:21Z</time>
      </trkpt>
      <trkpt lat="44.59566" lon="0.9606">
        <ele>156.4</ele>
        <time>2018-07-22T13:30:24Z</time>
      </trkpt>
      <trkpt lat="44.59567" lon="0.96056">
        <ele>157.5</ele>
        <time>2018-07-22T13:30:26Z</time>
      </trkpt>
      <trkpt lat="44.59569" lon="0.96052">
        <ele>158.7</ele>
        <time>2018-07-22T13:30:28Z</time>
      </trkpt>
      <trkpt lat="44.5957" lon="0.96049">
        <ele>159.8</ele>
        <time>2018-07-22T13:30:30Z</time>
      </trkpt>
      <trkpt lat="44.5957" lon="0.96043">
        <ele>160.9</ele>
        <time>2018-07-22T13:30:32Z</time>
      </trkpt>
      <trkpt lat="44.5957" lon="0.96039">
        <ele>161.9</ele>
        <time>2018-07-22T13:30:34Z</time>
      </trkpt>
      <trkpt lat="44.5957" lon="0.96034">
        <ele>163</ele>
        <time>2018-07-22T13:30:37Z</time>
      </trkpt>
      <trkpt lat="44.59571" lon="0.96029">
        <ele>164</ele>
        <time>2018-07-22T13:30:40Z</time>
      </trkpt>
      <trkpt lat="44.59571" lon="0.96025">
        <ele>165.1</ele>
        <time>2018-07-22T13:30:43Z</time>
      </trkpt>
      <trkpt lat="44.5957" lon="0.9602">
        <ele>166</ele>
        <time>2018-07-22T13:30:46Z</time>
      </trkpt>
      <trkpt lat="44.59569" lon="0.96016">
        <ele>167.1</ele>
        <time>2018-07-22T13:30:49Z</time>
      </trkpt>
      <trkpt lat="44.59571" lon="0.96012">
        <ele>167.7</ele>
        <time>2018-07-22T13:30:52Z</time>
      </trkpt>
      <trkpt lat="44.59571" lon="0.96007">
        <ele>168.4</ele>
        <time>2018-07-22T13:30:55Z</time>
      </trkpt>
      <trkpt lat="44.59571" lon="0.96003">
        <ele>169.1</ele>
        <time>2018-07-22T13:30:57Z</time>
      </trkpt>
      <trkpt lat="44.59572" lon="0.95998">
        <ele>169.8</ele>
        <time>2018-07-22T13:30:59Z</time>
      </trkpt>
      <trkpt lat="44.59572" lon="0.95994">
        <ele>170.5</ele>
        <time>2018-07-22T13:31:01Z</time>
      </trkpt>
      <trkpt lat="44.59572" lon="0.9599">
        <ele>171</ele>
        <time>2018-07-22T13:31:03Z</time>
      </trkpt>
      <trkpt lat="44.59573" lon="0.95985">
        <ele>171.7</ele>
        <time>2018-07-22T13:31:05Z</time>
      </trkpt>
      <trkpt lat="44.59573" lon="0.95981">
        <ele>172.3</ele>
        <time>2018-07-22T13:31:07Z</time>
      </trkpt>
      <trkpt lat="44.59575" lon="0.95975">
        <ele>173.6</ele>
        <time>2018-07-22T13:31:10Z</time>
      </trkpt>
      <trkpt lat="44.59576" lon="0.9597">
        <ele>174.1</ele>
        <time>2018-07-22T13:31:12Z</time>
      </trkpt>
      <trkpt lat="44.59577" lon="0.95966">
        <ele>174.6</ele>
        <time>2018-07-22T13:31:14Z</time>
      </trkpt>
      <trkpt lat="44.59576" lon="0.95961">
        <ele>175.1</ele>
        <time>2018-07-22T13:31:16Z</time>
      </trkpt>
      <trkpt lat="44.59576" lon="0.95956">
        <ele>175.6</ele>
        <time>2018-07-22T13:31:19Z</time>
      </trkpt>
      <trkpt lat="44.59575" lon="0.95951">
        <ele>176.1</ele>
        <time>2018-07-22T13:31:21Z</time>
      </trkpt>
      <trkpt lat="44.59574" lon="0.95946">
        <ele>176.5</ele>
        <time>2018-07-22T13:31:23Z</time>
      </trkpt>
      <trkpt lat="44.59573" lon="0.95941">
        <ele>177.4</ele>
        <time>2018-07-22T13:31:25Z</time>
      </trkpt>
      <trkpt lat="44.59571" lon="0.95937">
        <ele>177.9</ele>
        <time>2018-07-22T13:31:27Z</time>
      </trkpt>
      <trkpt lat="44.59571" lon="0.95931">
        <ele>178.3</ele>
        <time>2018-07-22T13:31:29Z</time>
      </trkpt>
      <trkpt lat="44.59572" lon="0.95927">
        <ele>178.6</ele>
        <time>2018-07-22T13:31:31Z</time>
      </trkpt>
      <trkpt lat="44.59574" lon="0.95923">
        <ele>178.9</ele>
        <time>2018-07-22T13:31:33Z</time>
      </trkpt>
      <trkpt lat="44.59575" lon="0.95917">
        <ele>179.3</ele>
        <time>2018-07-22T13:31:36Z</time>
      </trkpt>
      <trkpt lat="44.59575" lon="0.95912">
        <ele>179.6</ele>
        <time>2018-07-22T13:31:38Z</time>
      </trkpt>
      <trkpt lat="44.59575" lon="0.95906">
        <ele>180.2</ele>
        <time>2018-07-22T13:31:40Z</time>
      </trkpt>
      <trkpt lat="44.59575" lon="0.959">
        <ele>180.6</ele>
        <time>2018-07-22T13:31:42Z</time>
      </trkpt>
      <trkpt lat="44.59574" lon="0.95895">
        <ele>180.9</ele>
        <time>2018-07-22T13:31:44Z</time>
      </trkpt>
      <trkpt lat="44.59575" lon="0.95891">
        <ele>181.2</ele>
        <time>2018-07-22T13:31:46Z</time>
      </trkpt>
      <trkpt lat="44.59577" lon="0.95887">
        <ele>181.6</ele>
        <time>2018-07-22T13:31:48Z</time>
      </trkpt>
      <trkpt lat="44.59578" lon="0.95882">
        <ele>181.9</ele>
        <time>2018-07-22T13:31:50Z</time>
      </trkpt>
      <trkpt lat="44.59576" lon="0.95877">
        <ele>182.4</ele>
        <time>2018-07-22T13:31:52Z</time>
      </trkpt>
      <trkpt lat="44.59575" lon="0.95871">
        <ele>182.7</ele>
        <time>2018-07-22T13:31:54Z</time>
      </trkpt>
      <trkpt lat="44.59576" lon="0.95865">
        <ele>182.9</ele>
        <time>2018-07-22T13:31:56Z</time>
      </trkpt>
      <trkpt lat="44.59577" lon="0.95862">
        <ele>183.1</ele>
        <time>2018-07-22T13:31:57Z</time>
      </trkpt>
      <trkpt lat="44.59579" lon="0.95856">
        <ele>183.5</ele>
        <time>2018-07-22T13:31:59Z</time>
      </trkpt>
      <trkpt lat="44.59581" lon="0.95851">
        <ele>183.7</ele>
        <time>2018-07-22T13:32:01Z</time>
      </trkpt>
      <trkpt lat="44.59582" lon="0.95847">
        <ele>184</ele>
        <time>2018-07-22T13:32:03Z</time>
      </trkpt>
      <trkpt lat="44.59582" lon="0.95841">
        <ele>184.2</ele>
        <time>2018-07-22T13:32:05Z</time>
      </trkpt>
      <trkpt lat="44.59582" lon="0.95834">
        <ele>184.7</ele>
        <time>2018-07-22T13:32:07Z</time>
      </trkpt>
      <trkpt lat="44.59582" lon="0.95829">
        <ele>184.9</ele>
        <time>2018-07-22T13:32:08Z</time>
      </trkpt>
      <trkpt lat="44.59584" lon="0.95823">
        <ele>185.1</ele>
        <time>2018-07-22T13:32:10Z</time>
      </trkpt>
      <trkpt lat="44.59586" lon="0.95818">
        <ele>185.4</ele>
        <time>2018-07-22T13:32:12Z</time>
      </trkpt>
      <trkpt lat="44.59588" lon="0.95812">
        <ele>185.8</ele>
        <time>2018-07-22T13:32:14Z</time>
      </trkpt>
      <trkpt lat="44.59588" lon="0.95807">
        <ele>186.1</ele>
        <time>2018-07-22T13:32:16Z</time>
      </trkpt>
      <trkpt lat="44.59588" lon="0.95802">
        <ele>186.3</ele>
        <time>2018-07-22T13:32:18Z</time>
      </trkpt>
      <trkpt lat="44.59587" lon="0.95797">
        <ele>186.5</ele>
        <time>2018-07-22T13:32:20Z</time>
      </trkpt>
      <trkpt lat="44.59587" lon="0.95792">
        <ele>186.8</ele>
        <time>2018-07-22T13:32:22Z</time>
      </trkpt>
      <trkpt lat="44.59587" lon="0.95787">
        <ele>187.2</ele>
        <time>2018-07-22T13:32:25Z</time>
      </trkpt>
      <trkpt lat="44.59589" lon="0.95783">
        <ele>187.3</ele>
        <time>2018-07-22T13:32:27Z</time>
      </trkpt>
      <trkpt lat="44.59589" lon="0.9578">
        <ele>187.5</ele>
        <time>2018-07-22T13:32:29Z</time>
      </trkpt>
      <trkpt lat="44.5959" lon="0.95776">
        <ele>187.7</ele>
        <time>2018-07-22T13:32:31Z</time>
      </trkpt>
      <trkpt lat="44.59591" lon="0.95771">
        <ele>188</ele>
        <time>2018-07-22T13:32:33Z</time>
      </trkpt>
      <trkpt lat="44.59592" lon="0.95766">
        <ele>188.4</ele>
        <time>2018-07-22T13:32:35Z</time>
      </trkpt>
      <trkpt lat="44.59592" lon="0.95761">
        <ele>188.6</ele>
        <time>2018-07-22T13:32:37Z</time>
      </trkpt>
      <trkpt lat="44.59592" lon="0.95756">
        <ele>188.8</ele>
        <time>2018-07-22T13:32:39Z</time>
      </trkpt>
      <trkpt lat="44.59593" lon="0.95752">
        <ele>188.9</ele>
        <time>2018-07-22T13:32:41Z</time>
      </trkpt>
      <trkpt lat="44.59595" lon="0.95747">
        <ele>189.1</ele>
        <time>2018-07-22T13:32:43Z</time>
      </trkpt>
      <trkpt lat="44.59596" lon="0.95743">
        <ele>189.3</ele>
        <time>2018-07-22T13:32:45Z</time>
      </trkpt>
      <trkpt lat="44.59597" lon="0.95739">
        <ele>189.4</ele>
        <time>2018-07-22T13:32:47Z</time>
      </trkpt>
      <trkpt lat="44.596" lon="0.95733">
        <ele>189.6</ele>
        <time>2018-07-22T13:32:50Z</time>
      </trkpt>
      <trkpt lat="44.59602" lon="0.95727">
        <ele>189.7</ele>
        <time>2018-07-22T13:32:52Z</time>
      </trkpt>
      <trkpt lat="44.59605" lon="0.95721">
        <ele>189.9</ele>
        <time>2018-07-22T13:32:54Z</time>
      </trkpt>
      <trkpt lat="44.59607" lon="0.95714">
        <ele>190.1</ele>
        <time>2018-07-22T13:32:56Z</time>
      </trkpt>
      <trkpt lat="44.59607" lon="0.95709">
        <ele>190.2</ele>
        <time>2018-07-22T13:32:58Z</time>
      </trkpt>
      <trkpt lat="44.59609" lon="0.95703">
        <ele>190.2</ele>
        <time>2018-07-22T13:33:00Z</time>
      </trkpt>
      <trkpt lat="44.5961" lon="0.95699">
        <ele>190.4</ele>
        <time>2018-07-22T13:33:02Z</time>
      </trkpt>
      <trkpt lat="44.59612" lon="0.95693">
        <ele>190.4</ele>
        <time>2018-07-22T13:33:05Z</time>
      </trkpt>
      <trkpt lat="44.59611" lon="0.95688">
        <ele>190.5</ele>
        <time>2018-07-22T13:33:07Z</time>
      </trkpt>
      <trkpt lat="44.59611" lon="0.95682">
        <ele>190.6</ele>
        <time>2018-07-22T13:33:09Z</time>
      </trkpt>
      <trkpt lat="44.59611" lon="0.95677">
        <ele>190.6</ele>
        <time>2018-07-22T13:33:11Z</time>
      </trkpt>
      <trkpt lat="44.5961" lon="0.95672">
        <ele>190.6</ele>
        <time>2018-07-22T13:33:13Z</time>
      </trkpt>
      <trkpt lat="44.59609" lon="0.95667">
        <ele>190.6</ele>
        <time>2018-07-22T13:33:15Z</time>
      </trkpt>
      <trkpt lat="44.59609" lon="0.95662">
        <ele>190.6</ele>
        <time>2018-07-22T13:33:17Z</time>
      </trkpt>
      <trkpt lat="44.59609" lon="0.95657">
        <ele>190.8</ele>
        <time>2018-07-22T13:33:19Z</time>
      </trkpt>
      <trkpt lat="44.5961" lon="0.95653">
        <ele>190.8</ele>
        <time>2018-07-22T13:33:21Z</time>
      </trkpt>
      <trkpt lat="44.59612" lon="0.9565">
        <ele>190.9</ele>
        <time>2018-07-22T13:33:23Z</time>
      </trkpt>
      <trkpt lat="44.59616" lon="0.95646">
        <ele>191.2</ele>
        <time>2018-07-22T13:33:25Z</time>
      </trkpt>
      <trkpt lat="44.59616" lon="0.95642">
        <ele>191.3</ele>
        <time>2018-07-22T13:33:27Z</time>
      </trkpt>
      <trkpt lat="44.59613" lon="0.95638">
        <ele>191.1</ele>
        <time>2018-07-22T13:33:29Z</time>
      </trkpt>
      <trkpt lat="44.59611" lon="0.95635">
        <ele>191</ele>
        <time>2018-07-22T13:33:30Z</time>
      </trkpt>
      <trkpt lat="44.59609" lon="0.95633">
        <ele>190.9</ele>
        <time>2018-07-22T13:33:31Z</time>
      </trkpt>
      <trkpt lat="44.59606" lon="0.95627">
        <ele>191.1</ele>
        <time>2018-07-22T13:33:33Z</time>
      </trkpt>
      <trkpt lat="44.59605" lon="0.95623">
        <ele>191.1</ele>
        <time>2018-07-22T13:33:34Z</time>
      </trkpt>
      <trkpt lat="44.59602" lon="0.9562">
        <ele>191.1</ele>
        <time>2018-07-22T13:33:35Z</time>
      </trkpt>
      <trkpt lat="44.596" lon="0.95616">
        <ele>191.1</ele>
        <time>2018-07-22T13:33:36Z</time>
      </trkpt>
      <trkpt lat="44.59597" lon="0.95613">
        <ele>191.3</ele>
        <time>2018-07-22T13:33:37Z</time>
      </trkpt>
      <trkpt lat="44.59593" lon="0.9561">
        <ele>191.3</ele>
        <time>2018-07-22T13:33:38Z</time>
      </trkpt>
      <trkpt lat="44.59589" lon="0.95606">
        <ele>191.4</ele>
        <time>2018-07-22T13:33:39Z</time>
      </trkpt>
      <trkpt lat="44.59585" lon="0.95603">
        <ele>191.3</ele>
        <time>2018-07-22T13:33:40Z</time>
      </trkpt>
      <trkpt lat="44.59583" lon="0.95601">
        <ele>191.5</ele>
        <time>2018-07-22T13:33:41Z</time>
      </trkpt>
      <trkpt lat="44.5958" lon="0.95597">
        <ele>191.6</ele>
        <time>2018-07-22T13:33:43Z</time>
      </trkpt>
      <trkpt lat="44.59578" lon="0.95593">
        <ele>191.8</ele>
        <time>2018-07-22T13:33:45Z</time>
      </trkpt>
      <trkpt lat="44.59577" lon="0.95589">
        <ele>192.1</ele>
        <time>2018-07-22T13:33:47Z</time>
      </trkpt>
      <trkpt lat="44.59577" lon="0.95585">
        <ele>192.4</ele>
        <time>2018-07-22T13:33:49Z</time>
      </trkpt>
      <trkpt lat="44.59574" lon="0.9558">
        <ele>193</ele>
        <time>2018-07-22T13:33:51Z</time>
      </trkpt>
      <trkpt lat="44.59572" lon="0.95575">
        <ele>193.5</ele>
        <time>2018-07-22T13:33:53Z</time>
      </trkpt>
      <trkpt lat="44.59571" lon="0.95571">
        <ele>194</ele>
        <time>2018-07-22T13:33:56Z</time>
      </trkpt>
      <trkpt lat="44.5957" lon="0.95565">
        <ele>194.4</ele>
        <time>2018-07-22T13:33:59Z</time>
      </trkpt>
      <trkpt lat="44.5957" lon="0.9556">
        <ele>194.9</ele>
        <time>2018-07-22T13:34:01Z</time>
      </trkpt>
      <trkpt lat="44.59568" lon="0.95556">
        <ele>195.5</ele>
        <time>2018-07-22T13:34:03Z</time>
      </trkpt>
      <trkpt lat="44.59566" lon="0.95552">
        <ele>196.1</ele>
        <time>2018-07-22T13:34:05Z</time>
      </trkpt>
      <trkpt lat="44.59565" lon="0.95546">
        <ele>196.9</ele>
        <time>2018-07-22T13:34:07Z</time>
      </trkpt>
      <trkpt lat="44.59566" lon="0.95541">
        <ele>197.2</ele>
        <time>2018-07-22T13:34:10Z</time>
      </trkpt>
      <trkpt lat="44.59565" lon="0.95535">
        <ele>197.5</ele>
        <time>2018-07-22T13:34:13Z</time>
      </trkpt>
      <trkpt lat="44.59564" lon="0.9553">
        <ele>197.8</ele>
        <time>2018-07-22T13:34:15Z</time>
      </trkpt>
      <trkpt lat="44.59564" lon="0.95525">
        <ele>198.1</ele>
        <time>2018-07-22T13:34:17Z</time>
      </trkpt>
      <trkpt lat="44.59564" lon="0.95521">
        <ele>198.7</ele>
        <time>2018-07-22T13:34:19Z</time>
      </trkpt>
      <trkpt lat="44.59563" lon="0.95517">
        <ele>199</ele>
        <time>2018-07-22T13:34:21Z</time>
      </trkpt>
      <trkpt lat="44.59563" lon="0.95511">
        <ele>199.5</ele>
        <time>2018-07-22T13:34:24Z</time>
      </trkpt>
      <trkpt lat="44.59563" lon="0.95505">
        <ele>199.8</ele>
        <time>2018-07-22T13:34:26Z</time>
      </trkpt>
      <trkpt lat="44.59562" lon="0.955">
        <ele>200.2</ele>
        <time>2018-07-22T13:34:28Z</time>
      </trkpt>
      <trkpt lat="44.59561" lon="0.95495">
        <ele>200.5</ele>
        <time>2018-07-22T13:34:30Z</time>
      </trkpt>
      <trkpt lat="44.59561" lon="0.95491">
        <ele>201.3</ele>
        <time>2018-07-22T13:34:32Z</time>
      </trkpt>
      <trkpt lat="44.59561" lon="0.95486">
        <ele>201.6</ele>
        <time>2018-07-22T13:34:34Z</time>
      </trkpt>
      <trkpt lat="44.59561" lon="0.95482">
        <ele>202</ele>
        <time>2018-07-22T13:34:36Z</time>
      </trkpt>
      <trkpt lat="44.59561" lon="0.95478">
        <ele>202.3</ele>
        <time>2018-07-22T13:34:39Z</time>
      </trkpt>
      <trkpt lat="44.5956" lon="0.95472">
        <ele>202.7</ele>
        <time>2018-07-22T13:34:42Z</time>
      </trkpt>
      <trkpt lat="44.59562" lon="0.95468">
        <ele>203</ele>
        <time>2018-07-22T13:34:44Z</time>
      </trkpt>
      <trkpt lat="44.59562" lon="0.95463">
        <ele>203.2</ele>
        <time>2018-07-22T13:34:47Z</time>
      </trkpt>
      <trkpt lat="44.59562" lon="0.95458">
        <ele>203.5</ele>
        <time>2018-07-22T13:34:51Z</time>
      </trkpt>
      <trkpt lat="44.59562" lon="0.95454">
        <ele>203.7</ele>
        <time>2018-07-22T13:34:55Z</time>
      </trkpt>
      <trkpt lat="44.59563" lon="0.95449">
        <ele>203.9</ele>
        <time>2018-07-22T13:34:58Z</time>
      </trkpt>
      <trkpt lat="44.59566" lon="0.95446">
        <ele>203.8</ele>
        <time>2018-07-22T13:35:00Z</time>
      </trkpt>
      <trkpt lat="44.59568" lon="0.95441">
        <ele>203.7</ele>
        <time>2018-07-22T13:35:02Z</time>
      </trkpt>
      <trkpt lat="44.59569" lon="0.95437">
        <ele>203.9</ele>
        <time>2018-07-22T13:35:04Z</time>
      </trkpt>
      <trkpt lat="44.59569" lon="0.95431">
        <ele>204.1</ele>
        <time>2018-07-22T13:35:06Z</time>
      </trkpt>
      <trkpt lat="44.59569" lon="0.95424">
        <ele>204.6</ele>
        <time>2018-07-22T13:35:08Z</time>
      </trkpt>
      <trkpt lat="44.59569" lon="0.9542">
        <ele>204.8</ele>
        <time>2018-07-22T13:35:09Z</time>
      </trkpt>
      <trkpt lat="44.59569" lon="0.95415">
        <ele>205.1</ele>
        <time>2018-07-22T13:35:11Z</time>
      </trkpt>
      <trkpt lat="44.59569" lon="0.9541">
        <ele>205.4</ele>
        <time>2018-07-22T13:35:13Z</time>
      </trkpt>
      <trkpt lat="44.59569" lon="0.95404">
        <ele>206</ele>
        <time>2018-07-22T13:35:15Z</time>
      </trkpt>
      <trkpt lat="44.59568" lon="0.95398">
        <ele>206.3</ele>
        <time>2018-07-22T13:35:18Z</time>
      </trkpt>
      <trkpt lat="44.59566" lon="0.95393">
        <ele>206.6</ele>
        <time>2018-07-22T13:35:20Z</time>
      </trkpt>
      <trkpt lat="44.59565" lon="0.95388">
        <ele>207.4</ele>
        <time>2018-07-22T13:35:22Z</time>
      </trkpt>
      <trkpt lat="44.59565" lon="0.95382">
        <ele>207.6</ele>
        <time>2018-07-22T13:35:24Z</time>
      </trkpt>
      <trkpt lat="44.59565" lon="0.95377">
        <ele>207.8</ele>
        <time>2018-07-22T13:35:26Z</time>
      </trkpt>
      <trkpt lat="44.59566" lon="0.95372">
        <ele>208</ele>
        <time>2018-07-22T13:35:28Z</time>
      </trkpt>
      <trkpt lat="44.59566" lon="0.95367">
        <ele>208.1</ele>
        <time>2018-07-22T13:35:30Z</time>
      </trkpt>
      <trkpt lat="44.59566" lon="0.95363">
        <ele>208.3</ele>
        <time>2018-07-22T13:35:32Z</time>
      </trkpt>
      <trkpt lat="44.59566" lon="0.95359">
        <ele>208.5</ele>
        <time>2018-07-22T13:35:34Z</time>
      </trkpt>
      <trkpt lat="44.59568" lon="0.95356">
        <ele>208.4</ele>
        <time>2018-07-22T13:35:36Z</time>
      </trkpt>
      <trkpt lat="44.59569" lon="0.95352">
        <ele>208.3</ele>
        <time>2018-07-22T13:35:38Z</time>
      </trkpt>
      <trkpt lat="44.59571" lon="0.95348">
        <ele>208.5</ele>
        <time>2018-07-22T13:35:41Z</time>
      </trkpt>
      <trkpt lat="44.5957" lon="0.95344">
        <ele>208.7</ele>
        <time>2018-07-22T13:35:44Z</time>
      </trkpt>
      <trkpt lat="44.5957" lon="0.95338">
        <ele>209</ele>
        <time>2018-07-22T13:35:47Z</time>
      </trkpt>
      <trkpt lat="44.59572" lon="0.95332">
        <ele>209.2</ele>
        <time>2018-07-22T13:35:49Z</time>
      </trkpt>
      <trkpt lat="44.59575" lon="0.95327">
        <ele>209.5</ele>
        <time>2018-07-22T13:35:51Z</time>
      </trkpt>
      <trkpt lat="44.59575" lon="0.95321">
        <ele>209.8</ele>
        <time>2018-07-22T13:35:53Z</time>
      </trkpt>
      <trkpt lat="44.59574" lon="0.95316">
        <ele>210</ele>
        <time>2018-07-22T13:35:55Z</time>
      </trkpt>
      <trkpt lat="44.59574" lon="0.95311">
        <ele>210.6</ele>
        <time>2018-07-22T13:35:57Z</time>
      </trkpt>
      <trkpt lat="44.59575" lon="0.95306">
        <ele>210.8</ele>
        <time>2018-07-22T13:35:59Z</time>
      </trkpt>
      <trkpt lat="44.59575" lon="0.95302">
        <ele>210.8</ele>
        <time>2018-07-22T13:36:01Z</time>
      </trkpt>
      <trkpt lat="44.59577" lon="0.95298">
        <ele>210.9</ele>
        <time>2018-07-22T13:36:03Z</time>
      </trkpt>
      <trkpt lat="44.59578" lon="0.95293">
        <ele>211.3</ele>
        <time>2018-07-22T13:36:05Z</time>
      </trkpt>
      <trkpt lat="44.59577" lon="0.95288">
        <ele>211.5</ele>
        <time>2018-07-22T13:36:07Z</time>
      </trkpt>
      <trkpt lat="44.59578" lon="0.95284">
        <ele>211.6</ele>
        <time>2018-07-22T13:36:09Z</time>
      </trkpt>
      <trkpt lat="44.59577" lon="0.9528">
        <ele>211.8</ele>
        <time>2018-07-22T13:36:11Z</time>
      </trkpt>
      <trkpt lat="44.59575" lon="0.95277">
        <ele>211.9</ele>
        <time>2018-07-22T13:36:13Z</time>
      </trkpt>
      <trkpt lat="44.59573" lon="0.95271">
        <ele>212.2</ele>
        <time>2018-07-22T13:36:15Z</time>
      </trkpt>
      <trkpt lat="44.59573" lon="0.95265">
        <ele>212.4</ele>
        <time>2018-07-22T13:36:17Z</time>
      </trkpt>
      <trkpt lat="44.59573" lon="0.9526">
        <ele>212.6</ele>
        <time>2018-07-22T13:36:19Z</time>
      </trkpt>
      <trkpt lat="44.59573" lon="0.95255">
        <ele>212.7</ele>
        <time>2018-07-22T13:36:21Z</time>
      </trkpt>
      <trkpt lat="44.59573" lon="0.95251">
        <ele>213.1</ele>
        <time>2018-07-22T13:36:24Z</time>
      </trkpt>
      <trkpt lat="44.59574" lon="0.95246">
        <ele>213.3</ele>
        <time>2018-07-22T13:36:26Z</time>
      </trkpt>
      <trkpt lat="44.59575" lon="0.95242">
        <ele>213.2</ele>
        <time>2018-07-22T13:36:28Z</time>
      </trkpt>
      <trkpt lat="44.59576" lon="0.95235">
        <ele>213.2</ele>
        <time>2018-07-22T13:36:30Z</time>
      </trkpt>
      <trkpt lat="44.59578" lon="0.95229">
        <ele>213.2</ele>
        <time>2018-07-22T13:36:32Z</time>
      </trkpt>
      <trkpt lat="44.59579" lon="0.95223">
        <ele>213.2</ele>
        <time>2018-07-22T13:36:34Z</time>
      </trkpt>
      <trkpt lat="44.5958" lon="0.95219">
        <ele>213.2</ele>
        <time>2018-07-22T13:36:36Z</time>
      </trkpt>
      <trkpt lat="44.59581" lon="0.95214">
        <ele>213.7</ele>
        <time>2018-07-22T13:36:38Z</time>
      </trkpt>
      <trkpt lat="44.59582" lon="0.9521">
        <ele>213.9</ele>
        <time>2018-07-22T13:36:39Z</time>
      </trkpt>
      <trkpt lat="44.59583" lon="0.95206">
        <ele>214</ele>
        <time>2018-07-22T13:36:40Z</time>
      </trkpt>
      <trkpt lat="44.59585" lon="0.95201">
        <ele>214.2</ele>
        <time>2018-07-22T13:36:42Z</time>
      </trkpt>
      <trkpt lat="44.59588" lon="0.95197">
        <ele>214.5</ele>
        <time>2018-07-22T13:36:44Z</time>
      </trkpt>
      <trkpt lat="44.59591" lon="0.95194">
        <ele>214.7</ele>
        <time>2018-07-22T13:36:45Z</time>
      </trkpt>
      <trkpt lat="44.59593" lon="0.95192">
        <ele>214.8</ele>
        <time>2018-07-22T13:36:46Z</time>
      </trkpt>
      <trkpt lat="44.59596" lon="0.95186">
        <ele>215.1</ele>
        <time>2018-07-22T13:36:48Z</time>
      </trkpt>
      <trkpt lat="44.59599" lon="0.95181">
        <ele>215.4</ele>
        <time>2018-07-22T13:36:50Z</time>
      </trkpt>
      <trkpt lat="44.59602" lon="0.95175">
        <ele>215.8</ele>
        <time>2018-07-22T13:36:52Z</time>
      </trkpt>
      <trkpt lat="44.59604" lon="0.9517">
        <ele>216</ele>
        <time>2018-07-22T13:36:54Z</time>
      </trkpt>
      <trkpt lat="44.59606" lon="0.95165">
        <ele>216.2</ele>
        <time>2018-07-22T13:36:56Z</time>
      </trkpt>
      <trkpt lat="44.59608" lon="0.95161">
        <ele>216.4</ele>
        <time>2018-07-22T13:36:59Z</time>
      </trkpt>
      <trkpt lat="44.59611" lon="0.95156">
        <ele>216.6</ele>
        <time>2018-07-22T13:37:01Z</time>
      </trkpt>
      <trkpt lat="44.59613" lon="0.95152">
        <ele>216.9</ele>
        <time>2018-07-22T13:37:03Z</time>
      </trkpt>
      <trkpt lat="44.59615" lon="0.95147">
        <ele>217.1</ele>
        <time>2018-07-22T13:37:05Z</time>
      </trkpt>
      <trkpt lat="44.59617" lon="0.95144">
        <ele>217.4</ele>
        <time>2018-07-22T13:37:07Z</time>
      </trkpt>
      <trkpt lat="44.59621" lon="0.95139">
        <ele>217.6</ele>
        <time>2018-07-22T13:37:09Z</time>
      </trkpt>
      <trkpt lat="44.59624" lon="0.95137">
        <ele>217.8</ele>
        <time>2018-07-22T13:37:10Z</time>
      </trkpt>
      <trkpt lat="44.59626" lon="0.95134">
        <ele>217.9</ele>
        <time>2018-07-22T13:37:11Z</time>
      </trkpt>
      <trkpt lat="44.59628" lon="0.95132">
        <ele>218.1</ele>
        <time>2018-07-22T13:37:12Z</time>
      </trkpt>
      <trkpt lat="44.5963" lon="0.95129">
        <ele>218.3</ele>
        <time>2018-07-22T13:37:13Z</time>
      </trkpt>
      <trkpt lat="44.59634" lon="0.95126">
        <ele>218.6</ele>
        <time>2018-07-22T13:37:15Z</time>
      </trkpt>
      <trkpt lat="44.59638" lon="0.95124">
        <ele>218.8</ele>
        <time>2018-07-22T13:37:17Z</time>
      </trkpt>
      <trkpt lat="44.59641" lon="0.9512">
        <ele>219.1</ele>
        <time>2018-07-22T13:37:19Z</time>
      </trkpt>
      <trkpt lat="44.59644" lon="0.95117">
        <ele>219.3</ele>
        <time>2018-07-22T13:37:21Z</time>
      </trkpt>
      <trkpt lat="44.59647" lon="0.95114">
        <ele>219.5</ele>
        <time>2018-07-22T13:37:24Z</time>
      </trkpt>
      <trkpt lat="44.59649" lon="0.9511">
        <ele>219.7</ele>
        <time>2018-07-22T13:37:26Z</time>
      </trkpt>
      <trkpt lat="44.59653" lon="0.95107">
        <ele>219.9</ele>
        <time>2018-07-22T13:37:28Z</time>
      </trkpt>
      <trkpt lat="44.59657" lon="0.95104">
        <ele>220.1</ele>
        <time>2018-07-22T13:37:30Z</time>
      </trkpt>
      <trkpt lat="44.59659" lon="0.95102">
        <ele>220.3</ele>
        <time>2018-07-22T13:37:31Z</time>
      </trkpt>
      <trkpt lat="44.59663" lon="0.95098">
        <ele>220.5</ele>
        <time>2018-07-22T13:37:33Z</time>
      </trkpt>
      <trkpt lat="44.59666" lon="0.95094">
        <ele>220.6</ele>
        <time>2018-07-22T13:37:35Z</time>
      </trkpt>
      <trkpt lat="44.59668" lon="0.95087">
        <ele>221</ele>
        <time>2018-07-22T13:37:37Z</time>
      </trkpt>
      <trkpt lat="44.59667" lon="0.9508">
        <ele>221.3</ele>
        <time>2018-07-22T13:37:39Z</time>
      </trkpt>
      <trkpt lat="44.59664" lon="0.95077">
        <ele>221.4</ele>
        <time>2018-07-22T13:37:41Z</time>
      </trkpt>
      <trkpt lat="44.5966" lon="0.95076">
        <ele>221.3</ele>
        <time>2018-07-22T13:37:43Z</time>
      </trkpt>
      <trkpt lat="44.59657" lon="0.95072">
        <ele>221.3</ele>
        <time>2018-07-22T13:37:45Z</time>
      </trkpt>
      <trkpt lat="44.59654" lon="0.95067">
        <ele>221.2</ele>
        <time>2018-07-22T13:37:47Z</time>
      </trkpt>
      <trkpt lat="44.59651" lon="0.95064">
        <ele>221.1</ele>
        <time>2018-07-22T13:37:48Z</time>
      </trkpt>
      <trkpt lat="44.59649" lon="0.9506">
        <ele>221.3</ele>
        <time>2018-07-22T13:37:49Z</time>
      </trkpt>
      <trkpt lat="44.59647" lon="0.95056">
        <ele>221.1</ele>
        <time>2018-07-22T13:37:50Z</time>
      </trkpt>
      <trkpt lat="44.59645" lon="0.9505">
        <ele>221</ele>
        <time>2018-07-22T13:37:51Z</time>
      </trkpt>
      <trkpt lat="44.59644" lon="0.95045">
        <ele>221.2</ele>
        <time>2018-07-22T13:37:52Z</time>
      </trkpt>
      <trkpt lat="44.59647" lon="0.95036">
        <ele>221.7</ele>
        <time>2018-07-22T13:37:53Z</time>
      </trkpt>
      <trkpt lat="44.59648" lon="0.95029">
        <ele>221.9</ele>
        <time>2018-07-22T13:37:54Z</time>
      </trkpt>
      <trkpt lat="44.59649" lon="0.95021">
        <ele>222.4</ele>
        <time>2018-07-22T13:37:55Z</time>
      </trkpt>
      <trkpt lat="44.59651" lon="0.95016">
        <ele>222.5</ele>
        <time>2018-07-22T13:37:56Z</time>
      </trkpt>
      <trkpt lat="44.59652" lon="0.9501">
        <ele>223.1</ele>
        <time>2018-07-22T13:37:57Z</time>
      </trkpt>
      <trkpt lat="44.59655" lon="0.95007">
        <ele>223.4</ele>
        <time>2018-07-22T13:37:58Z</time>
      </trkpt>
      <trkpt lat="44.59658" lon="0.95003">
        <ele>223.9</ele>
        <time>2018-07-22T13:38:00Z</time>
      </trkpt>
      <trkpt lat="44.59661" lon="0.95">
        <ele>224.1</ele>
        <time>2018-07-22T13:38:02Z</time>
      </trkpt>
      <trkpt lat="44.59664" lon="0.94997">
        <ele>224.8</ele>
        <time>2018-07-22T13:38:04Z</time>
      </trkpt>
      <trkpt lat="44.59668" lon="0.94996">
        <ele>225.1</ele>
        <time>2018-07-22T13:38:06Z</time>
      </trkpt>
      <trkpt lat="44.59671" lon="0.94995">
        <ele>225.5</ele>
        <time>2018-07-22T13:38:08Z</time>
      </trkpt>
      <trkpt lat="44.59675" lon="0.94996">
        <ele>225.8</ele>
        <time>2018-07-22T13:38:10Z</time>
      </trkpt>
      <trkpt lat="44.59679" lon="0.94997">
        <ele>226.1</ele>
        <time>2018-07-22T13:38:12Z</time>
      </trkpt>
      <trkpt lat="44.59682" lon="0.94998">
        <ele>226.3</ele>
        <time>2018-07-22T13:38:14Z</time>
      </trkpt>
      <trkpt lat="44.59685" lon="0.95">
        <ele>226.5</ele>
        <time>2018-07-22T13:38:16Z</time>
      </trkpt>
      <trkpt lat="44.59689" lon="0.95001">
        <ele>226.9</ele>
        <time>2018-07-22T13:38:18Z</time>
      </trkpt>
      <trkpt lat="44.59693" lon="0.95">
        <ele>227.1</ele>
        <time>2018-07-22T13:38:20Z</time>
      </trkpt>
      <trkpt lat="44.59696" lon="0.94998">
        <ele>227.3</ele>
        <time>2018-07-22T13:38:22Z</time>
      </trkpt>
      <trkpt lat="44.59697" lon="0.94994">
        <ele>227.6</ele>
        <time>2018-07-22T13:38:25Z</time>
      </trkpt>
      <trkpt lat="44.59699" lon="0.94989">
        <ele>227.9</ele>
        <time>2018-07-22T13:38:29Z</time>
      </trkpt>
      <trkpt lat="44.59701" lon="0.94984">
        <ele>228.4</ele>
        <time>2018-07-22T13:38:31Z</time>
      </trkpt>
      <trkpt lat="44.59703" lon="0.9498">
        <ele>228.6</ele>
        <time>2018-07-22T13:38:33Z</time>
      </trkpt>
      <trkpt lat="44.59704" lon="0.94976">
        <ele>228.9</ele>
        <time>2018-07-22T13:38:35Z</time>
      </trkpt>
      <trkpt lat="44.59705" lon="0.9497">
        <ele>229.1</ele>
        <time>2018-07-22T13:38:37Z</time>
      </trkpt>
      <trkpt lat="44.59706" lon="0.94964">
        <ele>229.3</ele>
        <time>2018-07-22T13:38:39Z</time>
      </trkpt>
      <trkpt lat="44.59708" lon="0.94958">
        <ele>229.8</ele>
        <time>2018-07-22T13:38:41Z</time>
      </trkpt>
      <trkpt lat="44.5971" lon="0.94953">
        <ele>230.1</ele>
        <time>2018-07-22T13:38:43Z</time>
      </trkpt>
      <trkpt lat="44.59712" lon="0.94949">
        <ele>230.3</ele>
        <time>2018-07-22T13:38:45Z</time>
      </trkpt>
      <trkpt lat="44.59714" lon="0.94945">
        <ele>230.6</ele>
        <time>2018-07-22T13:38:47Z</time>
      </trkpt>
      <trkpt lat="44.59715" lon="0.94941">
        <ele>230.7</ele>
        <time>2018-07-22T13:38:49Z</time>
      </trkpt>
      <trkpt lat="44.59716" lon="0.94937">
        <ele>231</ele>
        <time>2018-07-22T13:38:51Z</time>
      </trkpt>
      <trkpt lat="44.59718" lon="0.94933">
        <ele>231.1</ele>
        <time>2018-07-22T13:38:53Z</time>
      </trkpt>
      <trkpt lat="44.5972" lon="0.94928">
        <ele>231.3</ele>
        <time>2018-07-22T13:38:56Z</time>
      </trkpt>
      <trkpt lat="44.59721" lon="0.94924">
        <ele>231.3</ele>
        <time>2018-07-22T13:38:58Z</time>
      </trkpt>
      <trkpt lat="44.59721" lon="0.94919">
        <ele>231.3</ele>
        <time>2018-07-22T13:39:01Z</time>
      </trkpt>
      <trkpt lat="44.59724" lon="0.94914">
        <ele>231.5</ele>
        <time>2018-07-22T13:39:03Z</time>
      </trkpt>
      <trkpt lat="44.59726" lon="0.94909">
        <ele>231.6</ele>
        <time>2018-07-22T13:39:05Z</time>
      </trkpt>
      <trkpt lat="44.59727" lon="0.94905">
        <ele>231.6</ele>
        <time>2018-07-22T13:39:07Z</time>
      </trkpt>
      <trkpt lat="44.59728" lon="0.94901">
        <ele>231.6</ele>
        <time>2018-07-22T13:39:08Z</time>
      </trkpt>
      <trkpt lat="44.5973" lon="0.94897">
        <ele>231.7</ele>
        <time>2018-07-22T13:39:09Z</time>
      </trkpt>
      <trkpt lat="44.59732" lon="0.94894">
        <ele>231.8</ele>
        <time>2018-07-22T13:39:10Z</time>
      </trkpt>
      <trkpt lat="44.59734" lon="0.94891">
        <ele>231.9</ele>
        <time>2018-07-22T13:39:11Z</time>
      </trkpt>
      <trkpt lat="44.59736" lon="0.94888">
        <ele>232</ele>
        <time>2018-07-22T13:39:12Z</time>
      </trkpt>
      <trkpt lat="44.5974" lon="0.94884">
        <ele>232</ele>
        <time>2018-07-22T13:39:13Z</time>
      </trkpt>
      <trkpt lat="44.59743" lon="0.9488">
        <ele>232.1</ele>
        <time>2018-07-22T13:39:14Z</time>
      </trkpt>
      <trkpt lat="44.59746" lon="0.94876">
        <ele>232.1</ele>
        <time>2018-07-22T13:39:15Z</time>
      </trkpt>
      <trkpt lat="44.5975" lon="0.94872">
        <ele>232.3</ele>
        <time>2018-07-22T13:39:16Z</time>
      </trkpt>
      <trkpt lat="44.59754" lon="0.94869">
        <ele>232.4</ele>
        <time>2018-07-22T13:39:17Z</time>
      </trkpt>
      <trkpt lat="44.59758" lon="0.94865">
        <ele>232.5</ele>
        <time>2018-07-22T13:39:18Z</time>
      </trkpt>
      <trkpt lat="44.59762" lon="0.9486">
        <ele>232.6</ele>
        <time>2018-07-22T13:39:19Z</time>
      </trkpt>
      <trkpt lat="44.59768" lon="0.9485">
        <ele>232.6</ele>
        <time>2018-07-22T13:39:20Z</time>
      </trkpt>
      <trkpt lat="44.59772" lon="0.94846">
        <ele>232.7</ele>
        <time>2018-07-22T13:39:21Z</time>
      </trkpt>
      <trkpt lat="44.59776" lon="0.94842">
        <ele>232.9</ele>
        <time>2018-07-22T13:39:22Z</time>
      </trkpt>
      <trkpt lat="44.59779" lon="0.94838">
        <ele>233</ele>
        <time>2018-07-22T13:39:23Z</time>
      </trkpt>
      <trkpt lat="44.59783" lon="0.94833">
        <ele>233.2</ele>
        <time>2018-07-22T13:39:24Z</time>
      </trkpt>
      <trkpt lat="44.59787" lon="0.94828">
        <ele>233.5</ele>
        <time>2018-07-22T13:39:25Z</time>
      </trkpt>
      <trkpt lat="44.5979" lon="0.94824">
        <ele>233.7</ele>
        <time>2018-07-22T13:39:26Z</time>
      </trkpt>
      <trkpt lat="44.5979" lon="0.94817">
        <ele>233.8</ele>
        <time>2018-07-22T13:39:27Z</time>
      </trkpt>
      <trkpt lat="44.59792" lon="0.94811">
        <ele>233.7</ele>
        <time>2018-07-22T13:39:28Z</time>
      </trkpt>
      <trkpt lat="44.59794" lon="0.94803">
        <ele>233.9</ele>
        <time>2018-07-22T13:39:29Z</time>
      </trkpt>
      <trkpt lat="44.59798" lon="0.94797">
        <ele>234.1</ele>
        <time>2018-07-22T13:39:30Z</time>
      </trkpt>
      <trkpt lat="44.59801" lon="0.94791">
        <ele>234.2</ele>
        <time>2018-07-22T13:39:31Z</time>
      </trkpt>
      <trkpt lat="44.59806" lon="0.94783">
        <ele>234.5</ele>
        <time>2018-07-22T13:39:33Z</time>
      </trkpt>
      <trkpt lat="44.59813" lon="0.94774">
        <ele>234.6</ele>
        <time>2018-07-22T13:39:34Z</time>
      </trkpt>
      <trkpt lat="44.59817" lon="0.94768">
        <ele>234.7</ele>
        <time>2018-07-22T13:39:35Z</time>
      </trkpt>
      <trkpt lat="44.59821" lon="0.94762">
        <ele>234.8</ele>
        <time>2018-07-22T13:39:36Z</time>
      </trkpt>
      <trkpt lat="44.59826" lon="0.94755">
        <ele>234.8</ele>
        <time>2018-07-22T13:39:37Z</time>
      </trkpt>
      <trkpt lat="44.59828" lon="0.94751">
        <ele>234.7</ele>
        <time>2018-07-22T13:39:38Z</time>
      </trkpt>
      <trkpt lat="44.5983" lon="0.94743">
        <ele>234.6</ele>
        <time>2018-07-22T13:39:39Z</time>
      </trkpt>
      <trkpt lat="44.59832" lon="0.94734">
        <ele>234.4</ele>
        <time>2018-07-22T13:39:40Z</time>
      </trkpt>
      <trkpt lat="44.59834" lon="0.94729">
        <ele>234.3</ele>
        <time>2018-07-22T13:39:41Z</time>
      </trkpt>
      <trkpt lat="44.59836" lon="0.94716">
        <ele>233.6</ele>
        <time>2018-07-22T13:39:42Z</time>
      </trkpt>
      <trkpt lat="44.59837" lon="0.94707">
        <ele>233.1</ele>
        <time>2018-07-22T13:39:43Z</time>
      </trkpt>
      <trkpt lat="44.59838" lon="0.947">
        <ele>232.5</ele>
        <time>2018-07-22T13:39:44Z</time>
      </trkpt>
      <trkpt lat="44.59846" lon="0.94696">
        <ele>232</ele>
        <time>2018-07-22T13:39:45Z</time>
      </trkpt>
      <trkpt lat="44.59848" lon="0.94687">
        <ele>231.2</ele>
        <time>2018-07-22T13:39:46Z</time>
      </trkpt>
      <trkpt lat="44.59852" lon="0.9468">
        <ele>230.4</ele>
        <time>2018-07-22T13:39:47Z</time>
      </trkpt>
      <trkpt lat="44.59856" lon="0.94672">
        <ele>230.1</ele>
        <time>2018-07-22T13:39:48Z</time>
      </trkpt>
      <trkpt lat="44.59859" lon="0.94664">
        <ele>229.5</ele>
        <time>2018-07-22T13:39:49Z</time>
      </trkpt>
      <trkpt lat="44.59864" lon="0.94653">
        <ele>229</ele>
        <time>2018-07-22T13:39:50Z</time>
      </trkpt>
      <trkpt lat="44.59869" lon="0.94642">
        <ele>228.9</ele>
        <time>2018-07-22T13:39:51Z</time>
      </trkpt>
      <trkpt lat="44.59872" lon="0.94632">
        <ele>229</ele>
        <time>2018-07-22T13:39:52Z</time>
      </trkpt>
      <trkpt lat="44.59875" lon="0.94624">
        <ele>229.2</ele>
        <time>2018-07-22T13:39:53Z</time>
      </trkpt>
      <trkpt lat="44.59879" lon="0.94614">
        <ele>229.4</ele>
        <time>2018-07-22T13:39:54Z</time>
      </trkpt>
      <trkpt lat="44.59881" lon="0.94604">
        <ele>229.7</ele>
        <time>2018-07-22T13:39:55Z</time>
      </trkpt>
      <trkpt lat="44.59883" lon="0.94596">
        <ele>229.9</ele>
        <time>2018-07-22T13:39:56Z</time>
      </trkpt>
      <trkpt lat="44.59885" lon="0.9459">
        <ele>230.2</ele>
        <time>2018-07-22T13:39:57Z</time>
      </trkpt>
      <trkpt lat="44.59887" lon="0.94581">
        <ele>230.4</ele>
        <time>2018-07-22T13:39:58Z</time>
      </trkpt>
      <trkpt lat="44.59889" lon="0.94574">
        <ele>230.7</ele>
        <time>2018-07-22T13:39:59Z</time>
      </trkpt>
      <trkpt lat="44.59891" lon="0.94565">
        <ele>230.9</ele>
        <time>2018-07-22T13:40:00Z</time>
      </trkpt>
      <trkpt lat="44.59892" lon="0.94557">
        <ele>231.3</ele>
        <time>2018-07-22T13:40:01Z</time>
      </trkpt>
      <trkpt lat="44.59894" lon="0.94551">
        <ele>231.7</ele>
        <time>2018-07-22T13:40:02Z</time>
      </trkpt>
      <trkpt lat="44.59895" lon="0.94544">
        <ele>231.9</ele>
        <time>2018-07-22T13:40:03Z</time>
      </trkpt>
      <trkpt lat="44.59897" lon="0.94537">
        <ele>232.3</ele>
        <time>2018-07-22T13:40:04Z</time>
      </trkpt>
      <trkpt lat="44.59898" lon="0.94529">
        <ele>232.7</ele>
        <time>2018-07-22T13:40:05Z</time>
      </trkpt>
      <trkpt lat="44.59899" lon="0.94521">
        <ele>233</ele>
        <time>2018-07-22T13:40:06Z</time>
      </trkpt>
      <trkpt lat="44.59898" lon="0.94513">
        <ele>233.2</ele>
        <time>2018-07-22T13:40:07Z</time>
      </trkpt>
      <trkpt lat="44.599" lon="0.94505">
        <ele>233.5</ele>
        <time>2018-07-22T13:40:08Z</time>
      </trkpt>
      <trkpt lat="44.59902" lon="0.94498">
        <ele>233.7</ele>
        <time>2018-07-22T13:40:09Z</time>
      </trkpt>
      <trkpt lat="44.59904" lon="0.9449">
        <ele>233.9</ele>
        <time>2018-07-22T13:40:10Z</time>
      </trkpt>
      <trkpt lat="44.59904" lon="0.94482">
        <ele>234.2</ele>
        <time>2018-07-22T13:40:11Z</time>
      </trkpt>
      <trkpt lat="44.59906" lon="0.94475">
        <ele>234.2</ele>
        <time>2018-07-22T13:40:12Z</time>
      </trkpt>
      <trkpt lat="44.59906" lon="0.94467">
        <ele>234.5</ele>
        <time>2018-07-22T13:40:13Z</time>
      </trkpt>
      <trkpt lat="44.59907" lon="0.94459">
        <ele>234.9</ele>
        <time>2018-07-22T13:40:14Z</time>
      </trkpt>
      <trkpt lat="44.59908" lon="0.94453">
        <ele>235.2</ele>
        <time>2018-07-22T13:40:15Z</time>
      </trkpt>
      <trkpt lat="44.59909" lon="0.94446">
        <ele>235.5</ele>
        <time>2018-07-22T13:40:16Z</time>
      </trkpt>
      <trkpt lat="44.59911" lon="0.94438">
        <ele>236.1</ele>
        <time>2018-07-22T13:40:17Z</time>
      </trkpt>
      <trkpt lat="44.59904" lon="0.94431">
        <ele>236.8</ele>
        <time>2018-07-22T13:40:18Z</time>
      </trkpt>
      <trkpt lat="44.59907" lon="0.94424">
        <ele>237.2</ele>
        <time>2018-07-22T13:40:19Z</time>
      </trkpt>
      <trkpt lat="44.59903" lon="0.94417">
        <ele>237.9</ele>
        <time>2018-07-22T13:40:20Z</time>
      </trkpt>
      <trkpt lat="44.59904" lon="0.9441">
        <ele>238.2</ele>
        <time>2018-07-22T13:40:21Z</time>
      </trkpt>
      <trkpt lat="44.59904" lon="0.94403">
        <ele>238.7</ele>
        <time>2018-07-22T13:40:22Z</time>
      </trkpt>
      <trkpt lat="44.59903" lon="0.94397">
        <ele>239</ele>
        <time>2018-07-22T13:40:23Z</time>
      </trkpt>
      <trkpt lat="44.59904" lon="0.94392">
        <ele>239.4</ele>
        <time>2018-07-22T13:40:24Z</time>
      </trkpt>
      <trkpt lat="44.59906" lon="0.94387">
        <ele>239.6</ele>
        <time>2018-07-22T13:40:25Z</time>
      </trkpt>
      <trkpt lat="44.59908" lon="0.9438">
        <ele>239.9</ele>
        <time>2018-07-22T13:40:26Z</time>
      </trkpt>
      <trkpt lat="44.59907" lon="0.94373">
        <ele>240.3</ele>
        <time>2018-07-22T13:40:27Z</time>
      </trkpt>
      <trkpt lat="44.59908" lon="0.94367">
        <ele>240.8</ele>
        <time>2018-07-22T13:40:28Z</time>
      </trkpt>
      <trkpt lat="44.59909" lon="0.94361">
        <ele>241.1</ele>
        <time>2018-07-22T13:40:29Z</time>
      </trkpt>
      <trkpt lat="44.59906" lon="0.94358">
        <ele>241.4</ele>
        <time>2018-07-22T13:40:30Z</time>
      </trkpt>
      <trkpt lat="44.59906" lon="0.94354">
        <ele>241.4</ele>
        <time>2018-07-22T13:40:31Z</time>
      </trkpt>
      <trkpt lat="44.59903" lon="0.9435">
        <ele>241.7</ele>
        <time>2018-07-22T13:40:32Z</time>
      </trkpt>
      <trkpt lat="44.59901" lon="0.94346">
        <ele>241.8</ele>
        <time>2018-07-22T13:40:33Z</time>
      </trkpt>
      <trkpt lat="44.59895" lon="0.94343">
        <ele>241.9</ele>
        <time>2018-07-22T13:40:34Z</time>
      </trkpt>
      <trkpt lat="44.59893" lon="0.9434">
        <ele>242.2</ele>
        <time>2018-07-22T13:40:35Z</time>
      </trkpt>
      <trkpt lat="44.59889" lon="0.94335">
        <ele>242.2</ele>
        <time>2018-07-22T13:40:36Z</time>
      </trkpt>
      <trkpt lat="44.59887" lon="0.94333">
        <ele>242.2</ele>
        <time>2018-07-22T13:40:37Z</time>
      </trkpt>
      <trkpt lat="44.59884" lon="0.9433">
        <ele>242.5</ele>
        <time>2018-07-22T13:40:38Z</time>
      </trkpt>
      <trkpt lat="44.59882" lon="0.94327">
        <ele>242.7</ele>
        <time>2018-07-22T13:40:39Z</time>
      </trkpt>
      <trkpt lat="44.5988" lon="0.94324">
        <ele>242.7</ele>
        <time>2018-07-22T13:40:40Z</time>
      </trkpt>
      <trkpt lat="44.59877" lon="0.9432">
        <ele>242.9</ele>
        <time>2018-07-22T13:40:41Z</time>
      </trkpt>
      <trkpt lat="44.59875" lon="0.94315">
        <ele>243.1</ele>
        <time>2018-07-22T13:40:42Z</time>
      </trkpt>
      <trkpt lat="44.59872" lon="0.9431">
        <ele>243.6</ele>
        <time>2018-07-22T13:40:43Z</time>
      </trkpt>
      <trkpt lat="44.5987" lon="0.94305">
        <ele>243.8</ele>
        <time>2018-07-22T13:40:44Z</time>
      </trkpt>
      <trkpt lat="44.59869" lon="0.94301">
        <ele>244</ele>
        <time>2018-07-22T13:40:45Z</time>
      </trkpt>
      <trkpt lat="44.59867" lon="0.94295">
        <ele>244.2</ele>
        <time>2018-07-22T13:40:47Z</time>
      </trkpt>
      <trkpt lat="44.59865" lon="0.94292">
        <ele>244.4</ele>
        <time>2018-07-22T13:40:48Z</time>
      </trkpt>
      <trkpt lat="44.59862" lon="0.94288">
        <ele>244.6</ele>
        <time>2018-07-22T13:40:49Z</time>
      </trkpt>
      <trkpt lat="44.59859" lon="0.94284">
        <ele>244.8</ele>
        <time>2018-07-22T13:40:50Z</time>
      </trkpt>
      <trkpt lat="44.59856" lon="0.9428">
        <ele>245</ele>
        <time>2018-07-22T13:40:51Z</time>
      </trkpt>
      <trkpt lat="44.59854" lon="0.94277">
        <ele>245.1</ele>
        <time>2018-07-22T13:40:52Z</time>
      </trkpt>
      <trkpt lat="44.59852" lon="0.94273">
        <ele>245.3</ele>
        <time>2018-07-22T13:40:53Z</time>
      </trkpt>
      <trkpt lat="44.5985" lon="0.9427">
        <ele>245.5</ele>
        <time>2018-07-22T13:40:54Z</time>
      </trkpt>
      <trkpt lat="44.59847" lon="0.94267">
        <ele>245.6</ele>
        <time>2018-07-22T13:40:55Z</time>
      </trkpt>
      <trkpt lat="44.59844" lon="0.94263">
        <ele>245.7</ele>
        <time>2018-07-22T13:40:56Z</time>
      </trkpt>
      <trkpt lat="44.5984" lon="0.9426">
        <ele>245.5</ele>
        <time>2018-07-22T13:40:57Z</time>
      </trkpt>
      <trkpt lat="44.59837" lon="0.94257">
        <ele>245.5</ele>
        <time>2018-07-22T13:40:58Z</time>
      </trkpt>
      <trkpt lat="44.59834" lon="0.94254">
        <ele>245.5</ele>
        <time>2018-07-22T13:40:59Z</time>
      </trkpt>
      <trkpt lat="44.59832" lon="0.94249">
        <ele>245.3</ele>
        <time>2018-07-22T13:41:00Z</time>
      </trkpt>
      <trkpt lat="44.59829" lon="0.94244">
        <ele>245.6</ele>
        <time>2018-07-22T13:41:01Z</time>
      </trkpt>
      <trkpt lat="44.59827" lon="0.94239">
        <ele>245.2</ele>
        <time>2018-07-22T13:41:02Z</time>
      </trkpt>
      <trkpt lat="44.59825" lon="0.94235">
        <ele>245</ele>
        <time>2018-07-22T13:41:03Z</time>
      </trkpt>
      <trkpt lat="44.59822" lon="0.94231">
        <ele>244.8</ele>
        <time>2018-07-22T13:41:04Z</time>
      </trkpt>
      <trkpt lat="44.59819" lon="0.94225">
        <ele>244.6</ele>
        <time>2018-07-22T13:41:05Z</time>
      </trkpt>
      <trkpt lat="44.59816" lon="0.94219">
        <ele>244.5</ele>
        <time>2018-07-22T13:41:06Z</time>
      </trkpt>
      <trkpt lat="44.59811" lon="0.94203">
        <ele>244.3</ele>
        <time>2018-07-22T13:41:07Z</time>
      </trkpt>
      <trkpt lat="44.59809" lon="0.94196">
        <ele>243.9</ele>
        <time>2018-07-22T13:41:08Z</time>
      </trkpt>
      <trkpt lat="44.59802" lon="0.94188">
        <ele>243.3</ele>
        <time>2018-07-22T13:41:09Z</time>
      </trkpt>
      <trkpt lat="44.59795" lon="0.94181">
        <ele>242.5</ele>
        <time>2018-07-22T13:41:10Z</time>
      </trkpt>
      <trkpt lat="44.5979" lon="0.94173">
        <ele>242.6</ele>
        <time>2018-07-22T13:41:11Z</time>
      </trkpt>
      <trkpt lat="44.59789" lon="0.94163">
        <ele>242.6</ele>
        <time>2018-07-22T13:41:12Z</time>
      </trkpt>
      <trkpt lat="44.59789" lon="0.94154">
        <ele>242.9</ele>
        <time>2018-07-22T13:41:13Z</time>
      </trkpt>
      <trkpt lat="44.59787" lon="0.94145">
        <ele>243</ele>
        <time>2018-07-22T13:41:14Z</time>
      </trkpt>
      <trkpt lat="44.59788" lon="0.94134">
        <ele>243</ele>
        <time>2018-07-22T13:41:16Z</time>
      </trkpt>
      <trkpt lat="44.59789" lon="0.94125">
        <ele>242.8</ele>
        <time>2018-07-22T13:41:17Z</time>
      </trkpt>
      <trkpt lat="44.59792" lon="0.94114">
        <ele>242.9</ele>
        <time>2018-07-22T13:41:18Z</time>
      </trkpt>
      <trkpt lat="44.59792" lon="0.94108">
        <ele>242.5</ele>
        <time>2018-07-22T13:41:19Z</time>
      </trkpt>
      <trkpt lat="44.59793" lon="0.94097">
        <ele>242.4</ele>
        <time>2018-07-22T13:41:20Z</time>
      </trkpt>
      <trkpt lat="44.59796" lon="0.94087">
        <ele>242.3</ele>
        <time>2018-07-22T13:41:21Z</time>
      </trkpt>
      <trkpt lat="44.59791" lon="0.94083">
        <ele>241.5</ele>
        <time>2018-07-22T13:41:22Z</time>
      </trkpt>
      <trkpt lat="44.59791" lon="0.94078">
        <ele>241.5</ele>
        <time>2018-07-22T13:41:23Z</time>
      </trkpt>
      <trkpt lat="44.59796" lon="0.94068">
        <ele>242</ele>
        <time>2018-07-22T13:41:24Z</time>
      </trkpt>
      <trkpt lat="44.59798" lon="0.94059">
        <ele>241.9</ele>
        <time>2018-07-22T13:41:25Z</time>
      </trkpt>
      <trkpt lat="44.598" lon="0.94047">
        <ele>241.8</ele>
        <time>2018-07-22T13:41:26Z</time>
      </trkpt>
      <trkpt lat="44.59799" lon="0.94034">
        <ele>241.3</ele>
        <time>2018-07-22T13:41:27Z</time>
      </trkpt>
      <trkpt lat="44.59798" lon="0.94022">
        <ele>240.5</ele>
        <time>2018-07-22T13:41:28Z</time>
      </trkpt>
      <trkpt lat="44.59797" lon="0.94013">
        <ele>240.1</ele>
        <time>2018-07-22T13:41:29Z</time>
      </trkpt>
      <trkpt lat="44.59794" lon="0.94004">
        <ele>239.3</ele>
        <time>2018-07-22T13:41:30Z</time>
      </trkpt>
      <trkpt lat="44.59781" lon="0.93995">
        <ele>238</ele>
        <time>2018-07-22T13:41:31Z</time>
      </trkpt>
      <trkpt lat="44.59774" lon="0.93986">
        <ele>237.3</ele>
        <time>2018-07-22T13:41:32Z</time>
      </trkpt>
      <trkpt lat="44.59771" lon="0.93975">
        <ele>237.1</ele>
        <time>2018-07-22T13:41:33Z</time>
      </trkpt>
      <trkpt lat="44.5977" lon="0.93964">
        <ele>236.9</ele>
        <time>2018-07-22T13:41:34Z</time>
      </trkpt>
      <trkpt lat="44.59763" lon="0.93956">
        <ele>236.5</ele>
        <time>2018-07-22T13:41:35Z</time>
      </trkpt>
      <trkpt lat="44.59762" lon="0.93948">
        <ele>236.5</ele>
        <time>2018-07-22T13:41:36Z</time>
      </trkpt>
      <trkpt lat="44.59759" lon="0.93942">
        <ele>236.2</ele>
        <time>2018-07-22T13:41:37Z</time>
      </trkpt>
      <trkpt lat="44.59759" lon="0.93933">
        <ele>236</ele>
        <time>2018-07-22T13:41:38Z</time>
      </trkpt>
      <trkpt lat="44.59757" lon="0.93925">
        <ele>236</ele>
        <time>2018-07-22T13:41:39Z</time>
      </trkpt>
      <trkpt lat="44.59757" lon="0.93919">
        <ele>236</ele>
        <time>2018-07-22T13:41:40Z</time>
      </trkpt>
      <trkpt lat="44.59756" lon="0.93912">
        <ele>236.1</ele>
        <time>2018-07-22T13:41:41Z</time>
      </trkpt>
      <trkpt lat="44.59755" lon="0.93904">
        <ele>236.1</ele>
        <time>2018-07-22T13:41:42Z</time>
      </trkpt>
      <trkpt lat="44.59752" lon="0.93897">
        <ele>236.2</ele>
        <time>2018-07-22T13:41:43Z</time>
      </trkpt>
      <trkpt lat="44.59753" lon="0.93893">
        <ele>236.3</ele>
        <time>2018-07-22T13:41:44Z</time>
      </trkpt>
      <trkpt lat="44.59755" lon="0.93888">
        <ele>236.7</ele>
        <time>2018-07-22T13:41:45Z</time>
      </trkpt>
      <trkpt lat="44.59755" lon="0.9388">
        <ele>237</ele>
        <time>2018-07-22T13:41:46Z</time>
      </trkpt>
      <trkpt lat="44.5975" lon="0.93875">
        <ele>237.1</ele>
        <time>2018-07-22T13:41:48Z</time>
      </trkpt>
      <trkpt lat="44.59747" lon="0.93874">
        <ele>237</ele>
        <time>2018-07-22T13:41:49Z</time>
      </trkpt>
      <trkpt lat="44.59743" lon="0.93874">
        <ele>236.8</ele>
        <time>2018-07-22T13:41:53Z</time>
      </trkpt>
      <trkpt lat="44.59732" lon="0.9388">
        <ele>236.6</ele>
        <time>2018-07-22T13:43:25Z</time>
      </trkpt>
      <trkpt lat="44.5973" lon="0.93883">
        <ele>236.5</ele>
        <time>2018-07-22T13:43:29Z</time>
      </trkpt>
      <trkpt lat="44.59731" lon="0.93879">
        <ele>236.6</ele>
        <time>2018-07-22T13:43:33Z</time>
      </trkpt>
      <trkpt lat="44.59731" lon="0.93875">
        <ele>236.6</ele>
        <time>2018-07-22T13:43:37Z</time>
      </trkpt>
      <trkpt lat="44.5973" lon="0.93871">
        <ele>236.6</ele>
        <time>2018-07-22T13:44:27Z</time>
      </trkpt>
      <trkpt lat="44.59727" lon="0.93865">
        <ele>236.7</ele>
        <time>2018-07-22T13:44:29Z</time>
      </trkpt>
      <trkpt lat="44.59724" lon="0.93859">
        <ele>236.7</ele>
        <time>2018-07-22T13:44:31Z</time>
      </trkpt>
      <trkpt lat="44.59723" lon="0.93855">
        <ele>236.8</ele>
        <time>2018-07-22T13:44:32Z</time>
      </trkpt>
      <trkpt lat="44.59721" lon="0.93852">
        <ele>236.8</ele>
        <time>2018-07-22T13:44:33Z</time>
      </trkpt>
      <trkpt lat="44.59719" lon="0.93848">
        <ele>236.8</ele>
        <time>2018-07-22T13:44:34Z</time>
      </trkpt>
      <trkpt lat="44.59717" lon="0.93845">
        <ele>236.9</ele>
        <time>2018-07-22T13:44:35Z</time>
      </trkpt>
      <trkpt lat="44.59714" lon="0.93841">
        <ele>236.9</ele>
        <time>2018-07-22T13:44:36Z</time>
      </trkpt>
      <trkpt lat="44.59711" lon="0.93838">
        <ele>237</ele>
        <time>2018-07-22T13:44:37Z</time>
      </trkpt>
      <trkpt lat="44.59709" lon="0.93835">
        <ele>237</ele>
        <time>2018-07-22T13:44:38Z</time>
      </trkpt>
      <trkpt lat="44.59707" lon="0.93832">
        <ele>237.1</ele>
        <time>2018-07-22T13:44:39Z</time>
      </trkpt>
      <trkpt lat="44.59704" lon="0.93829">
        <ele>237.2</ele>
        <time>2018-07-22T13:44:40Z</time>
      </trkpt>
      <trkpt lat="44.59702" lon="0.93826">
        <ele>237.2</ele>
        <time>2018-07-22T13:44:41Z</time>
      </trkpt>
      <trkpt lat="44.597" lon="0.93823">
        <ele>237.3</ele>
        <time>2018-07-22T13:44:42Z</time>
      </trkpt>
      <trkpt lat="44.59698" lon="0.9382">
        <ele>237.3</ele>
        <time>2018-07-22T13:44:43Z</time>
      </trkpt>
      <trkpt lat="44.59696" lon="0.93817">
        <ele>237.3</ele>
        <time>2018-07-22T13:44:44Z</time>
      </trkpt>
      <trkpt lat="44.59694" lon="0.93814">
        <ele>237.4</ele>
        <time>2018-07-22T13:44:45Z</time>
      </trkpt>
      <trkpt lat="44.59691" lon="0.93811">
        <ele>237.4</ele>
        <time>2018-07-22T13:44:46Z</time>
      </trkpt>
      <trkpt lat="44.59688" lon="0.93808">
        <ele>237.5</ele>
        <time>2018-07-22T13:44:47Z</time>
      </trkpt>
      <trkpt lat="44.59686" lon="0.93805">
        <ele>237.5</ele>
        <time>2018-07-22T13:44:48Z</time>
      </trkpt>
      <trkpt lat="44.59684" lon="0.93802">
        <ele>237.6</ele>
        <time>2018-07-22T13:44:49Z</time>
      </trkpt>
      <trkpt lat="44.59682" lon="0.93798">
        <ele>237.6</ele>
        <time>2018-07-22T13:44:50Z</time>
      </trkpt>
      <trkpt lat="44.59679" lon="0.93795">
        <ele>237.7</ele>
        <time>2018-07-22T13:44:51Z</time>
      </trkpt>
      <trkpt lat="44.59677" lon="0.93791">
        <ele>237.7</ele>
        <time>2018-07-22T13:44:52Z</time>
      </trkpt>
      <trkpt lat="44.59675" lon="0.93789">
        <ele>237.8</ele>
        <time>2018-07-22T13:44:53Z</time>
      </trkpt>
      <trkpt lat="44.59672" lon="0.93784">
        <ele>237.9</ele>
        <time>2018-07-22T13:44:55Z</time>
      </trkpt>
      <trkpt lat="44.59668" lon="0.93778">
        <ele>237.9</ele>
        <time>2018-07-22T13:44:57Z</time>
      </trkpt>
      <trkpt lat="44.59665" lon="0.93773">
        <ele>238</ele>
        <time>2018-07-22T13:44:59Z</time>
      </trkpt>
      <trkpt lat="44.59662" lon="0.93767">
        <ele>238.1</ele>
        <time>2018-07-22T13:45:01Z</time>
      </trkpt>
      <trkpt lat="44.59659" lon="0.93764">
        <ele>238.2</ele>
        <time>2018-07-22T13:45:02Z</time>
      </trkpt>
      <trkpt lat="44.59657" lon="0.93762">
        <ele>238.3</ele>
        <time>2018-07-22T13:45:03Z</time>
      </trkpt>
      <trkpt lat="44.59654" lon="0.93759">
        <ele>238.3</ele>
        <time>2018-07-22T13:45:04Z</time>
      </trkpt>
      <trkpt lat="44.59651" lon="0.93757">
        <ele>238.4</ele>
        <time>2018-07-22T13:45:05Z</time>
      </trkpt>
      <trkpt lat="44.59648" lon="0.93755">
        <ele>238.5</ele>
        <time>2018-07-22T13:45:06Z</time>
      </trkpt>
      <trkpt lat="44.59644" lon="0.93752">
        <ele>238.6</ele>
        <time>2018-07-22T13:45:07Z</time>
      </trkpt>
      <trkpt lat="44.5964" lon="0.9375">
        <ele>238.7</ele>
        <time>2018-07-22T13:45:08Z</time>
      </trkpt>
      <trkpt lat="44.59636" lon="0.93748">
        <ele>238.8</ele>
        <time>2018-07-22T13:45:09Z</time>
      </trkpt>
      <trkpt lat="44.59633" lon="0.93745">
        <ele>238.5</ele>
        <time>2018-07-22T13:45:10Z</time>
      </trkpt>
      <trkpt lat="44.59629" lon="0.93741">
        <ele>238.3</ele>
        <time>2018-07-22T13:45:11Z</time>
      </trkpt>
      <trkpt lat="44.59625" lon="0.93737">
        <ele>238.2</ele>
        <time>2018-07-22T13:45:12Z</time>
      </trkpt>
      <trkpt lat="44.59622" lon="0.93732">
        <ele>238.1</ele>
        <time>2018-07-22T13:45:13Z</time>
      </trkpt>
      <trkpt lat="44.59618" lon="0.93728">
        <ele>237.9</ele>
        <time>2018-07-22T13:45:14Z</time>
      </trkpt>
      <trkpt lat="44.59615" lon="0.93724">
        <ele>237.8</ele>
        <time>2018-07-22T13:45:15Z</time>
      </trkpt>
      <trkpt lat="44.59612" lon="0.9372">
        <ele>237.8</ele>
        <time>2018-07-22T13:45:16Z</time>
      </trkpt>
      <trkpt lat="44.5961" lon="0.93717">
        <ele>237.8</ele>
        <time>2018-07-22T13:45:17Z</time>
      </trkpt>
      <trkpt lat="44.59608" lon="0.93713">
        <ele>237.8</ele>
        <time>2018-07-22T13:45:18Z</time>
      </trkpt>
      <trkpt lat="44.59606" lon="0.93709">
        <ele>237.7</ele>
        <time>2018-07-22T13:45:19Z</time>
      </trkpt>
      <trkpt lat="44.59604" lon="0.93704">
        <ele>237.7</ele>
        <time>2018-07-22T13:45:20Z</time>
      </trkpt>
      <trkpt lat="44.59603" lon="0.93699">
        <ele>237.7</ele>
        <time>2018-07-22T13:45:21Z</time>
      </trkpt>
      <trkpt lat="44.59601" lon="0.93694">
        <ele>237.8</ele>
        <time>2018-07-22T13:45:22Z</time>
      </trkpt>
      <trkpt lat="44.59599" lon="0.93689">
        <ele>237.7</ele>
        <time>2018-07-22T13:45:23Z</time>
      </trkpt>
      <trkpt lat="44.59598" lon="0.93684">
        <ele>237.8</ele>
        <time>2018-07-22T13:45:24Z</time>
      </trkpt>
      <trkpt lat="44.59597" lon="0.93678">
        <ele>237.7</ele>
        <time>2018-07-22T13:45:25Z</time>
      </trkpt>
      <trkpt lat="44.59596" lon="0.93674">
        <ele>237.8</ele>
        <time>2018-07-22T13:45:26Z</time>
      </trkpt>
      <trkpt lat="44.59597" lon="0.9367">
        <ele>237.8</ele>
        <time>2018-07-22T13:45:27Z</time>
      </trkpt>
      <trkpt lat="44.59597" lon="0.93666">
        <ele>238</ele>
        <time>2018-07-22T13:45:28Z</time>
      </trkpt>
      <trkpt lat="44.59598" lon="0.93661">
        <ele>238</ele>
        <time>2018-07-22T13:45:29Z</time>
      </trkpt>
      <trkpt lat="44.59599" lon="0.93655">
        <ele>238.1</ele>
        <time>2018-07-22T13:45:30Z</time>
      </trkpt>
      <trkpt lat="44.596" lon="0.93649">
        <ele>238.3</ele>
        <time>2018-07-22T13:45:31Z</time>
      </trkpt>
      <trkpt lat="44.59601" lon="0.93644">
        <ele>238.4</ele>
        <time>2018-07-22T13:45:32Z</time>
      </trkpt>
      <trkpt lat="44.59602" lon="0.93639">
        <ele>238.4</ele>
        <time>2018-07-22T13:45:33Z</time>
      </trkpt>
      <trkpt lat="44.59602" lon="0.93634">
        <ele>238.4</ele>
        <time>2018-07-22T13:45:34Z</time>
      </trkpt>
      <trkpt lat="44.59602" lon="0.93629">
        <ele>238.5</ele>
        <time>2018-07-22T13:45:35Z</time>
      </trkpt>
      <trkpt lat="44.59602" lon="0.93625">
        <ele>238.5</ele>
        <time>2018-07-22T13:45:36Z</time>
      </trkpt>
      <trkpt lat="44.59602" lon="0.9362">
        <ele>238.5</ele>
        <time>2018-07-22T13:45:37Z</time>
      </trkpt>
      <trkpt lat="44.59601" lon="0.93615">
        <ele>238.6</ele>
        <time>2018-07-22T13:45:38Z</time>
      </trkpt>
      <trkpt lat="44.59601" lon="0.93612">
        <ele>238.5</ele>
        <time>2018-07-22T13:45:39Z</time>
      </trkpt>
      <trkpt lat="44.596" lon="0.93607">
        <ele>238.6</ele>
        <time>2018-07-22T13:45:40Z</time>
      </trkpt>
      <trkpt lat="44.59599" lon="0.93602">
        <ele>238.6</ele>
        <time>2018-07-22T13:45:41Z</time>
      </trkpt>
      <trkpt lat="44.59598" lon="0.93596">
        <ele>238.6</ele>
        <time>2018-07-22T13:45:42Z</time>
      </trkpt>
      <trkpt lat="44.59596" lon="0.9359">
        <ele>238.6</ele>
        <time>2018-07-22T13:45:43Z</time>
      </trkpt>
      <trkpt lat="44.59594" lon="0.93584">
        <ele>238.7</ele>
        <time>2018-07-22T13:45:44Z</time>
      </trkpt>
      <trkpt lat="44.59592" lon="0.93578">
        <ele>238.7</ele>
        <time>2018-07-22T13:45:45Z</time>
      </trkpt>
      <trkpt lat="44.59587" lon="0.93568">
        <ele>238.9</ele>
        <time>2018-07-22T13:45:46Z</time>
      </trkpt>
      <trkpt lat="44.59585" lon="0.93564">
        <ele>239</ele>
        <time>2018-07-22T13:45:47Z</time>
      </trkpt>
      <trkpt lat="44.59582" lon="0.93558">
        <ele>239</ele>
        <time>2018-07-22T13:45:48Z</time>
      </trkpt>
      <trkpt lat="44.5958" lon="0.93552">
        <ele>239.1</ele>
        <time>2018-07-22T13:45:49Z</time>
      </trkpt>
      <trkpt lat="44.5958" lon="0.93545">
        <ele>239.4</ele>
        <time>2018-07-22T13:45:50Z</time>
      </trkpt>
      <trkpt lat="44.59579" lon="0.9354">
        <ele>239.5</ele>
        <time>2018-07-22T13:45:51Z</time>
      </trkpt>
      <trkpt lat="44.59577" lon="0.93534">
        <ele>239.6</ele>
        <time>2018-07-22T13:45:52Z</time>
      </trkpt>
      <trkpt lat="44.59576" lon="0.93529">
        <ele>239.8</ele>
        <time>2018-07-22T13:45:53Z</time>
      </trkpt>
      <trkpt lat="44.59574" lon="0.93524">
        <ele>240</ele>
        <time>2018-07-22T13:45:54Z</time>
      </trkpt>
      <trkpt lat="44.59572" lon="0.93519">
        <ele>240.1</ele>
        <time>2018-07-22T13:45:55Z</time>
      </trkpt>
      <trkpt lat="44.5957" lon="0.93515">
        <ele>240.2</ele>
        <time>2018-07-22T13:45:56Z</time>
      </trkpt>
      <trkpt lat="44.59567" lon="0.93509">
        <ele>240.4</ele>
        <time>2018-07-22T13:45:58Z</time>
      </trkpt>
      <trkpt lat="44.59565" lon="0.93505">
        <ele>240.5</ele>
        <time>2018-07-22T13:45:59Z</time>
      </trkpt>
      <trkpt lat="44.59562" lon="0.93501">
        <ele>240.7</ele>
        <time>2018-07-22T13:46:00Z</time>
      </trkpt>
      <trkpt lat="44.59559" lon="0.93496">
        <ele>240.9</ele>
        <time>2018-07-22T13:46:01Z</time>
      </trkpt>
      <trkpt lat="44.59557" lon="0.93491">
        <ele>241.2</ele>
        <time>2018-07-22T13:46:02Z</time>
      </trkpt>
      <trkpt lat="44.59554" lon="0.93486">
        <ele>241.2</ele>
        <time>2018-07-22T13:46:03Z</time>
      </trkpt>
      <trkpt lat="44.59553" lon="0.9348">
        <ele>241.4</ele>
        <time>2018-07-22T13:46:04Z</time>
      </trkpt>
      <trkpt lat="44.59552" lon="0.93475">
        <ele>241.5</ele>
        <time>2018-07-22T13:46:05Z</time>
      </trkpt>
      <trkpt lat="44.5955" lon="0.93471">
        <ele>241.7</ele>
        <time>2018-07-22T13:46:06Z</time>
      </trkpt>
      <trkpt lat="44.59549" lon="0.93466">
        <ele>241.8</ele>
        <time>2018-07-22T13:46:07Z</time>
      </trkpt>
      <trkpt lat="44.59547" lon="0.93461">
        <ele>242.1</ele>
        <time>2018-07-22T13:46:08Z</time>
      </trkpt>
      <trkpt lat="44.59546" lon="0.93456">
        <ele>242.2</ele>
        <time>2018-07-22T13:46:09Z</time>
      </trkpt>
      <trkpt lat="44.59545" lon="0.93452">
        <ele>242.3</ele>
        <time>2018-07-22T13:46:10Z</time>
      </trkpt>
      <trkpt lat="44.59543" lon="0.93448">
        <ele>242.4</ele>
        <time>2018-07-22T13:46:11Z</time>
      </trkpt>
      <trkpt lat="44.59542" lon="0.93444">
        <ele>242.4</ele>
        <time>2018-07-22T13:46:12Z</time>
      </trkpt>
      <trkpt lat="44.59541" lon="0.93439">
        <ele>242.6</ele>
        <time>2018-07-22T13:46:13Z</time>
      </trkpt>
      <trkpt lat="44.59539" lon="0.93435">
        <ele>242.6</ele>
        <time>2018-07-22T13:46:14Z</time>
      </trkpt>
      <trkpt lat="44.59538" lon="0.9343">
        <ele>242.7</ele>
        <time>2018-07-22T13:46:15Z</time>
      </trkpt>
      <trkpt lat="44.59538" lon="0.93425">
        <ele>242.7</ele>
        <time>2018-07-22T13:46:16Z</time>
      </trkpt>
      <trkpt lat="44.59537" lon="0.93421">
        <ele>242.6</ele>
        <time>2018-07-22T13:46:17Z</time>
      </trkpt>
      <trkpt lat="44.59536" lon="0.93416">
        <ele>242.7</ele>
        <time>2018-07-22T13:46:18Z</time>
      </trkpt>
      <trkpt lat="44.59533" lon="0.93411">
        <ele>242.8</ele>
        <time>2018-07-22T13:46:19Z</time>
      </trkpt>
      <trkpt lat="44.59529" lon="0.93406">
        <ele>242.8</ele>
        <time>2018-07-22T13:46:20Z</time>
      </trkpt>
      <trkpt lat="44.59526" lon="0.93402">
        <ele>242.8</ele>
        <time>2018-07-22T13:46:21Z</time>
      </trkpt>
      <trkpt lat="44.59523" lon="0.93398">
        <ele>242.8</ele>
        <time>2018-07-22T13:46:22Z</time>
      </trkpt>
      <trkpt lat="44.59521" lon="0.93395">
        <ele>242.7</ele>
        <time>2018-07-22T13:46:23Z</time>
      </trkpt>
      <trkpt lat="44.59518" lon="0.93391">
        <ele>242.7</ele>
        <time>2018-07-22T13:46:24Z</time>
      </trkpt>
      <trkpt lat="44.59515" lon="0.93387">
        <ele>242.7</ele>
        <time>2018-07-22T13:46:25Z</time>
      </trkpt>
      <trkpt lat="44.59512" lon="0.93383">
        <ele>242.6</ele>
        <time>2018-07-22T13:46:26Z</time>
      </trkpt>
      <trkpt lat="44.5951" lon="0.93378">
        <ele>242.5</ele>
        <time>2018-07-22T13:46:27Z</time>
      </trkpt>
      <trkpt lat="44.59508" lon="0.93374">
        <ele>242.4</ele>
        <time>2018-07-22T13:46:28Z</time>
      </trkpt>
      <trkpt lat="44.59505" lon="0.9337">
        <ele>242.2</ele>
        <time>2018-07-22T13:46:29Z</time>
      </trkpt>
      <trkpt lat="44.59503" lon="0.93366">
        <ele>242.1</ele>
        <time>2018-07-22T13:46:30Z</time>
      </trkpt>
      <trkpt lat="44.59501" lon="0.93362">
        <ele>242.1</ele>
        <time>2018-07-22T13:46:31Z</time>
      </trkpt>
      <trkpt lat="44.59499" lon="0.93359">
        <ele>242</ele>
        <time>2018-07-22T13:46:32Z</time>
      </trkpt>
      <trkpt lat="44.59497" lon="0.93355">
        <ele>241.9</ele>
        <time>2018-07-22T13:46:33Z</time>
      </trkpt>
      <trkpt lat="44.59494" lon="0.93351">
        <ele>241.8</ele>
        <time>2018-07-22T13:46:34Z</time>
      </trkpt>
      <trkpt lat="44.59493" lon="0.93348">
        <ele>241.7</ele>
        <time>2018-07-22T13:46:35Z</time>
      </trkpt>
      <trkpt lat="44.59492" lon="0.93344">
        <ele>241.6</ele>
        <time>2018-07-22T13:46:36Z</time>
      </trkpt>
      <trkpt lat="44.59491" lon="0.9334">
        <ele>241.4</ele>
        <time>2018-07-22T13:46:37Z</time>
      </trkpt>
      <trkpt lat="44.5949" lon="0.93333">
        <ele>241.3</ele>
        <time>2018-07-22T13:46:39Z</time>
      </trkpt>
      <trkpt lat="44.59489" lon="0.93329">
        <ele>241.2</ele>
        <time>2018-07-22T13:46:40Z</time>
      </trkpt>
      <trkpt lat="44.59487" lon="0.93325">
        <ele>241</ele>
        <time>2018-07-22T13:46:41Z</time>
      </trkpt>
      <trkpt lat="44.59485" lon="0.93321">
        <ele>240.9</ele>
        <time>2018-07-22T13:46:42Z</time>
      </trkpt>
      <trkpt lat="44.59482" lon="0.93316">
        <ele>240.8</ele>
        <time>2018-07-22T13:46:43Z</time>
      </trkpt>
      <trkpt lat="44.59479" lon="0.93311">
        <ele>240.6</ele>
        <time>2018-07-22T13:46:44Z</time>
      </trkpt>
      <trkpt lat="44.59477" lon="0.93307">
        <ele>240.5</ele>
        <time>2018-07-22T13:46:45Z</time>
      </trkpt>
      <trkpt lat="44.59475" lon="0.93303">
        <ele>240.4</ele>
        <time>2018-07-22T13:46:46Z</time>
      </trkpt>
      <trkpt lat="44.59472" lon="0.93298">
        <ele>240.3</ele>
        <time>2018-07-22T13:46:47Z</time>
      </trkpt>
      <trkpt lat="44.59468" lon="0.93292">
        <ele>240.2</ele>
        <time>2018-07-22T13:46:48Z</time>
      </trkpt>
      <trkpt lat="44.59465" lon="0.93287">
        <ele>240.1</ele>
        <time>2018-07-22T13:46:49Z</time>
      </trkpt>
      <trkpt lat="44.59462" lon="0.93282">
        <ele>240</ele>
        <time>2018-07-22T13:46:50Z</time>
      </trkpt>
      <trkpt lat="44.5946" lon="0.93276">
        <ele>239.8</ele>
        <time>2018-07-22T13:46:51Z</time>
      </trkpt>
      <trkpt lat="44.59454" lon="0.93267">
        <ele>239.8</ele>
        <time>2018-07-22T13:46:52Z</time>
      </trkpt>
      <trkpt lat="44.59451" lon="0.93261">
        <ele>239.7</ele>
        <time>2018-07-22T13:46:53Z</time>
      </trkpt>
      <trkpt lat="44.5945" lon="0.93256">
        <ele>239.6</ele>
        <time>2018-07-22T13:46:54Z</time>
      </trkpt>
      <trkpt lat="44.59449" lon="0.93251">
        <ele>239.6</ele>
        <time>2018-07-22T13:46:55Z</time>
      </trkpt>
      <trkpt lat="44.59447" lon="0.93246">
        <ele>239.5</ele>
        <time>2018-07-22T13:46:56Z</time>
      </trkpt>
      <trkpt lat="44.59446" lon="0.9324">
        <ele>239.4</ele>
        <time>2018-07-22T13:46:57Z</time>
      </trkpt>
      <trkpt lat="44.59443" lon="0.93234">
        <ele>239.3</ele>
        <time>2018-07-22T13:46:58Z</time>
      </trkpt>
      <trkpt lat="44.59443" lon="0.93229">
        <ele>239.2</ele>
        <time>2018-07-22T13:46:59Z</time>
      </trkpt>
      <trkpt lat="44.59441" lon="0.93224">
        <ele>239.1</ele>
        <time>2018-07-22T13:47:00Z</time>
      </trkpt>
      <trkpt lat="44.5944" lon="0.9322">
        <ele>239.1</ele>
        <time>2018-07-22T13:47:01Z</time>
      </trkpt>
      <trkpt lat="44.59439" lon="0.93214">
        <ele>239</ele>
        <time>2018-07-22T13:47:02Z</time>
      </trkpt>
      <trkpt lat="44.59438" lon="0.9321">
        <ele>238.9</ele>
        <time>2018-07-22T13:47:03Z</time>
      </trkpt>
      <trkpt lat="44.59436" lon="0.93205">
        <ele>238.8</ele>
        <time>2018-07-22T13:47:04Z</time>
      </trkpt>
      <trkpt lat="44.59435" lon="0.932">
        <ele>238.7</ele>
        <time>2018-07-22T13:47:05Z</time>
      </trkpt>
      <trkpt lat="44.59433" lon="0.93195">
        <ele>238.7</ele>
        <time>2018-07-22T13:47:06Z</time>
      </trkpt>
      <trkpt lat="44.59432" lon="0.9319">
        <ele>238.6</ele>
        <time>2018-07-22T13:47:07Z</time>
      </trkpt>
      <trkpt lat="44.5943" lon="0.93185">
        <ele>238.5</ele>
        <time>2018-07-22T13:47:08Z</time>
      </trkpt>
      <trkpt lat="44.59429" lon="0.9318">
        <ele>238.5</ele>
        <time>2018-07-22T13:47:09Z</time>
      </trkpt>
      <trkpt lat="44.59427" lon="0.93174">
        <ele>238.4</ele>
        <time>2018-07-22T13:47:10Z</time>
      </trkpt>
      <trkpt lat="44.59426" lon="0.93169">
        <ele>238.4</ele>
        <time>2018-07-22T13:47:11Z</time>
      </trkpt>
      <trkpt lat="44.59424" lon="0.93164">
        <ele>238.4</ele>
        <time>2018-07-22T13:47:12Z</time>
      </trkpt>
      <trkpt lat="44.59423" lon="0.93159">
        <ele>238.4</ele>
        <time>2018-07-22T13:47:13Z</time>
      </trkpt>
      <trkpt lat="44.59422" lon="0.93155">
        <ele>238.4</ele>
        <time>2018-07-22T13:47:14Z</time>
      </trkpt>
      <trkpt lat="44.59421" lon="0.9315">
        <ele>238.5</ele>
        <time>2018-07-22T13:47:15Z</time>
      </trkpt>
      <trkpt lat="44.59421" lon="0.93146">
        <ele>238.5</ele>
        <time>2018-07-22T13:47:16Z</time>
      </trkpt>
      <trkpt lat="44.5942" lon="0.93142">
        <ele>238.5</ele>
        <time>2018-07-22T13:47:17Z</time>
      </trkpt>
      <trkpt lat="44.59419" lon="0.93136">
        <ele>238.6</ele>
        <time>2018-07-22T13:47:19Z</time>
      </trkpt>
      <trkpt lat="44.59419" lon="0.93132">
        <ele>238.6</ele>
        <time>2018-07-22T13:47:22Z</time>
      </trkpt>
      <trkpt lat="44.5942" lon="0.93128">
        <ele>238.6</ele>
        <time>2018-07-22T13:47:29Z</time>
      </trkpt>
      <trkpt lat="44.5942" lon="0.93122">
        <ele>238.6</ele>
        <time>2018-07-22T13:47:34Z</time>
      </trkpt>
      <trkpt lat="44.5942" lon="0.93118">
        <ele>238.7</ele>
        <time>2018-07-22T13:47:35Z</time>
      </trkpt>
      <trkpt lat="44.59419" lon="0.93113">
        <ele>238.8</ele>
        <time>2018-07-22T13:47:36Z</time>
      </trkpt>
      <trkpt lat="44.59419" lon="0.93107">
        <ele>238.8</ele>
        <time>2018-07-22T13:47:37Z</time>
      </trkpt>
      <trkpt lat="44.59418" lon="0.93102">
        <ele>238.8</ele>
        <time>2018-07-22T13:47:38Z</time>
      </trkpt>
      <trkpt lat="44.59417" lon="0.93097">
        <ele>238.8</ele>
        <time>2018-07-22T13:47:39Z</time>
      </trkpt>
      <trkpt lat="44.59416" lon="0.93092">
        <ele>238.8</ele>
        <time>2018-07-22T13:47:40Z</time>
      </trkpt>
      <trkpt lat="44.59416" lon="0.93088">
        <ele>238.8</ele>
        <time>2018-07-22T13:47:41Z</time>
      </trkpt>
      <trkpt lat="44.59416" lon="0.93083">
        <ele>238.7</ele>
        <time>2018-07-22T13:47:42Z</time>
      </trkpt>
      <trkpt lat="44.59416" lon="0.93078">
        <ele>238.7</ele>
        <time>2018-07-22T13:47:43Z</time>
      </trkpt>
      <trkpt lat="44.59415" lon="0.93072">
        <ele>238.7</ele>
        <time>2018-07-22T13:47:44Z</time>
      </trkpt>
      <trkpt lat="44.59415" lon="0.93067">
        <ele>238.6</ele>
        <time>2018-07-22T13:47:45Z</time>
      </trkpt>
      <trkpt lat="44.59415" lon="0.93062">
        <ele>238.6</ele>
        <time>2018-07-22T13:47:46Z</time>
      </trkpt>
      <trkpt lat="44.59415" lon="0.93057">
        <ele>238.5</ele>
        <time>2018-07-22T13:47:47Z</time>
      </trkpt>
      <trkpt lat="44.59415" lon="0.93052">
        <ele>238.5</ele>
        <time>2018-07-22T13:47:48Z</time>
      </trkpt>
      <trkpt lat="44.59415" lon="0.93047">
        <ele>238.4</ele>
        <time>2018-07-22T13:47:49Z</time>
      </trkpt>
      <trkpt lat="44.59415" lon="0.93041">
        <ele>238.4</ele>
        <time>2018-07-22T13:47:50Z</time>
      </trkpt>
      <trkpt lat="44.59415" lon="0.93034">
        <ele>238.3</ele>
        <time>2018-07-22T13:47:51Z</time>
      </trkpt>
      <trkpt lat="44.59414" lon="0.93028">
        <ele>238.2</ele>
        <time>2018-07-22T13:47:52Z</time>
      </trkpt>
      <trkpt lat="44.59414" lon="0.93021">
        <ele>238.1</ele>
        <time>2018-07-22T13:47:53Z</time>
      </trkpt>
      <trkpt lat="44.59409" lon="0.93013">
        <ele>238.2</ele>
        <time>2018-07-22T13:47:54Z</time>
      </trkpt>
      <trkpt lat="44.59405" lon="0.93008">
        <ele>238.1</ele>
        <time>2018-07-22T13:47:55Z</time>
      </trkpt>
      <trkpt lat="44.59401" lon="0.93003">
        <ele>238.1</ele>
        <time>2018-07-22T13:47:56Z</time>
      </trkpt>
      <trkpt lat="44.59396" lon="0.92998">
        <ele>238.1</ele>
        <time>2018-07-22T13:47:57Z</time>
      </trkpt>
      <trkpt lat="44.59392" lon="0.92993">
        <ele>237.9</ele>
        <time>2018-07-22T13:47:58Z</time>
      </trkpt>
      <trkpt lat="44.59387" lon="0.92988">
        <ele>237.9</ele>
        <time>2018-07-22T13:47:59Z</time>
      </trkpt>
      <trkpt lat="44.59383" lon="0.92983">
        <ele>237.8</ele>
        <time>2018-07-22T13:48:00Z</time>
      </trkpt>
      <trkpt lat="44.59379" lon="0.92977">
        <ele>237.7</ele>
        <time>2018-07-22T13:48:01Z</time>
      </trkpt>
      <trkpt lat="44.59375" lon="0.9297">
        <ele>237.6</ele>
        <time>2018-07-22T13:48:02Z</time>
      </trkpt>
      <trkpt lat="44.59372" lon="0.92966">
        <ele>237.5</ele>
        <time>2018-07-22T13:48:03Z</time>
      </trkpt>
      <trkpt lat="44.59369" lon="0.92962">
        <ele>237.4</ele>
        <time>2018-07-22T13:48:04Z</time>
      </trkpt>
      <trkpt lat="44.59366" lon="0.92957">
        <ele>237.3</ele>
        <time>2018-07-22T13:48:05Z</time>
      </trkpt>
      <trkpt lat="44.59362" lon="0.92953">
        <ele>237.2</ele>
        <time>2018-07-22T13:48:06Z</time>
      </trkpt>
      <trkpt lat="44.5936" lon="0.92948">
        <ele>237.2</ele>
        <time>2018-07-22T13:48:07Z</time>
      </trkpt>
      <trkpt lat="44.59357" lon="0.92944">
        <ele>237.2</ele>
        <time>2018-07-22T13:48:08Z</time>
      </trkpt>
      <trkpt lat="44.59355" lon="0.92939">
        <ele>237.2</ele>
        <time>2018-07-22T13:48:09Z</time>
      </trkpt>
      <trkpt lat="44.59353" lon="0.92935">
        <ele>237.2</ele>
        <time>2018-07-22T13:48:10Z</time>
      </trkpt>
      <trkpt lat="44.5935" lon="0.92931">
        <ele>237.2</ele>
        <time>2018-07-22T13:48:11Z</time>
      </trkpt>
      <trkpt lat="44.59347" lon="0.92926">
        <ele>237.2</ele>
        <time>2018-07-22T13:48:12Z</time>
      </trkpt>
      <trkpt lat="44.59343" lon="0.92922">
        <ele>237.3</ele>
        <time>2018-07-22T13:48:13Z</time>
      </trkpt>
      <trkpt lat="44.5934" lon="0.92917">
        <ele>237.3</ele>
        <time>2018-07-22T13:48:14Z</time>
      </trkpt>
      <trkpt lat="44.59338" lon="0.92913">
        <ele>237.3</ele>
        <time>2018-07-22T13:48:15Z</time>
      </trkpt>
      <trkpt lat="44.59335" lon="0.92909">
        <ele>237.4</ele>
        <time>2018-07-22T13:48:16Z</time>
      </trkpt>
      <trkpt lat="44.59333" lon="0.92905">
        <ele>237.5</ele>
        <time>2018-07-22T13:48:17Z</time>
      </trkpt>
      <trkpt lat="44.59331" lon="0.92902">
        <ele>237.6</ele>
        <time>2018-07-22T13:48:18Z</time>
      </trkpt>
      <trkpt lat="44.59328" lon="0.92898">
        <ele>237.6</ele>
        <time>2018-07-22T13:48:19Z</time>
      </trkpt>
      <trkpt lat="44.59325" lon="0.92893">
        <ele>237.7</ele>
        <time>2018-07-22T13:48:20Z</time>
      </trkpt>
      <trkpt lat="44.59322" lon="0.92889">
        <ele>237.8</ele>
        <time>2018-07-22T13:48:21Z</time>
      </trkpt>
      <trkpt lat="44.59319" lon="0.92885">
        <ele>237.8</ele>
        <time>2018-07-22T13:48:22Z</time>
      </trkpt>
      <trkpt lat="44.59316" lon="0.9288">
        <ele>237.9</ele>
        <time>2018-07-22T13:48:23Z</time>
      </trkpt>
      <trkpt lat="44.59312" lon="0.92876">
        <ele>238</ele>
        <time>2018-07-22T13:48:24Z</time>
      </trkpt>
      <trkpt lat="44.59308" lon="0.92873">
        <ele>238.1</ele>
        <time>2018-07-22T13:48:25Z</time>
      </trkpt>
      <trkpt lat="44.59305" lon="0.9287">
        <ele>238</ele>
        <time>2018-07-22T13:48:26Z</time>
      </trkpt>
      <trkpt lat="44.59301" lon="0.92867">
        <ele>238.1</ele>
        <time>2018-07-22T13:48:27Z</time>
      </trkpt>
      <trkpt lat="44.59297" lon="0.92864">
        <ele>238.1</ele>
        <time>2018-07-22T13:48:28Z</time>
      </trkpt>
      <trkpt lat="44.59293" lon="0.92862">
        <ele>238</ele>
        <time>2018-07-22T13:48:29Z</time>
      </trkpt>
      <trkpt lat="44.59289" lon="0.9286">
        <ele>238</ele>
        <time>2018-07-22T13:48:30Z</time>
      </trkpt>
      <trkpt lat="44.59285" lon="0.92859">
        <ele>238</ele>
        <time>2018-07-22T13:48:31Z</time>
      </trkpt>
      <trkpt lat="44.59281" lon="0.92856">
        <ele>237.9</ele>
        <time>2018-07-22T13:48:32Z</time>
      </trkpt>
      <trkpt lat="44.59277" lon="0.92855">
        <ele>237.9</ele>
        <time>2018-07-22T13:48:33Z</time>
      </trkpt>
      <trkpt lat="44.59274" lon="0.92853">
        <ele>237.8</ele>
        <time>2018-07-22T13:48:34Z</time>
      </trkpt>
      <trkpt lat="44.5927" lon="0.9285">
        <ele>237.8</ele>
        <time>2018-07-22T13:48:35Z</time>
      </trkpt>
      <trkpt lat="44.59266" lon="0.92848">
        <ele>237.7</ele>
        <time>2018-07-22T13:48:36Z</time>
      </trkpt>
      <trkpt lat="44.59261" lon="0.92845">
        <ele>237.7</ele>
        <time>2018-07-22T13:48:37Z</time>
      </trkpt>
      <trkpt lat="44.59257" lon="0.92842">
        <ele>237.7</ele>
        <time>2018-07-22T13:48:38Z</time>
      </trkpt>
      <trkpt lat="44.59252" lon="0.92841">
        <ele>238</ele>
        <time>2018-07-22T13:48:39Z</time>
      </trkpt>
      <trkpt lat="44.5925" lon="0.92841">
        <ele>238.1</ele>
        <time>2018-07-22T13:48:40Z</time>
      </trkpt>
      <trkpt lat="44.59246" lon="0.92839">
        <ele>238.3</ele>
        <time>2018-07-22T13:48:41Z</time>
      </trkpt>
      <trkpt lat="44.59244" lon="0.92838">
        <ele>238.5</ele>
        <time>2018-07-22T13:48:42Z</time>
      </trkpt>
      <trkpt lat="44.5924" lon="0.92836">
        <ele>238.7</ele>
        <time>2018-07-22T13:48:43Z</time>
      </trkpt>
      <trkpt lat="44.59237" lon="0.92831">
        <ele>238.9</ele>
        <time>2018-07-22T13:48:44Z</time>
      </trkpt>
      <trkpt lat="44.59235" lon="0.92827">
        <ele>239</ele>
        <time>2018-07-22T13:48:45Z</time>
      </trkpt>
      <trkpt lat="44.59234" lon="0.92821">
        <ele>239.2</ele>
        <time>2018-07-22T13:48:46Z</time>
      </trkpt>
      <trkpt lat="44.59234" lon="0.92816">
        <ele>239.3</ele>
        <time>2018-07-22T13:48:47Z</time>
      </trkpt>
      <trkpt lat="44.59234" lon="0.92811">
        <ele>239.4</ele>
        <time>2018-07-22T13:48:48Z</time>
      </trkpt>
      <trkpt lat="44.59232" lon="0.92806">
        <ele>239.5</ele>
        <time>2018-07-22T13:48:49Z</time>
      </trkpt>
      <trkpt lat="44.59231" lon="0.92801">
        <ele>239.6</ele>
        <time>2018-07-22T13:48:50Z</time>
      </trkpt>
      <trkpt lat="44.59229" lon="0.92797">
        <ele>239.8</ele>
        <time>2018-07-22T13:48:51Z</time>
      </trkpt>
      <trkpt lat="44.59227" lon="0.92793">
        <ele>239.9</ele>
        <time>2018-07-22T13:48:52Z</time>
      </trkpt>
      <trkpt lat="44.59226" lon="0.92788">
        <ele>240</ele>
        <time>2018-07-22T13:48:53Z</time>
      </trkpt>
      <trkpt lat="44.59225" lon="0.92784">
        <ele>240.2</ele>
        <time>2018-07-22T13:48:54Z</time>
      </trkpt>
      <trkpt lat="44.59223" lon="0.9278">
        <ele>240.3</ele>
        <time>2018-07-22T13:48:55Z</time>
      </trkpt>
      <trkpt lat="44.5922" lon="0.92776">
        <ele>240.4</ele>
        <time>2018-07-22T13:48:56Z</time>
      </trkpt>
      <trkpt lat="44.59218" lon="0.92772">
        <ele>240.5</ele>
        <time>2018-07-22T13:48:57Z</time>
      </trkpt>
      <trkpt lat="44.59215" lon="0.92768">
        <ele>240.6</ele>
        <time>2018-07-22T13:48:58Z</time>
      </trkpt>
      <trkpt lat="44.59212" lon="0.92765">
        <ele>240.6</ele>
        <time>2018-07-22T13:48:59Z</time>
      </trkpt>
      <trkpt lat="44.59209" lon="0.92762">
        <ele>240.7</ele>
        <time>2018-07-22T13:49:00Z</time>
      </trkpt>
      <trkpt lat="44.59206" lon="0.92759">
        <ele>240.8</ele>
        <time>2018-07-22T13:49:01Z</time>
      </trkpt>
      <trkpt lat="44.59203" lon="0.92757">
        <ele>240.9</ele>
        <time>2018-07-22T13:49:02Z</time>
      </trkpt>
      <trkpt lat="44.592" lon="0.92756">
        <ele>240.9</ele>
        <time>2018-07-22T13:49:03Z</time>
      </trkpt>
      <trkpt lat="44.59197" lon="0.92753">
        <ele>241</ele>
        <time>2018-07-22T13:49:04Z</time>
      </trkpt>
      <trkpt lat="44.59195" lon="0.92749">
        <ele>241</ele>
        <time>2018-07-22T13:49:05Z</time>
      </trkpt>
      <trkpt lat="44.59193" lon="0.92745">
        <ele>241</ele>
        <time>2018-07-22T13:49:06Z</time>
      </trkpt>
      <trkpt lat="44.59191" lon="0.9274">
        <ele>241</ele>
        <time>2018-07-22T13:49:07Z</time>
      </trkpt>
      <trkpt lat="44.59189" lon="0.92735">
        <ele>240.9</ele>
        <time>2018-07-22T13:49:08Z</time>
      </trkpt>
      <trkpt lat="44.59189" lon="0.9273">
        <ele>240.9</ele>
        <time>2018-07-22T13:49:09Z</time>
      </trkpt>
      <trkpt lat="44.59188" lon="0.92725">
        <ele>240.9</ele>
        <time>2018-07-22T13:49:10Z</time>
      </trkpt>
      <trkpt lat="44.59189" lon="0.9272">
        <ele>240.9</ele>
        <time>2018-07-22T13:49:11Z</time>
      </trkpt>
      <trkpt lat="44.59191" lon="0.92714">
        <ele>240.9</ele>
        <time>2018-07-22T13:49:12Z</time>
      </trkpt>
      <trkpt lat="44.59192" lon="0.92709">
        <ele>240.9</ele>
        <time>2018-07-22T13:49:13Z</time>
      </trkpt>
      <trkpt lat="44.59194" lon="0.92703">
        <ele>240.9</ele>
        <time>2018-07-22T13:49:14Z</time>
      </trkpt>
      <trkpt lat="44.59197" lon="0.92697">
        <ele>240.8</ele>
        <time>2018-07-22T13:49:15Z</time>
      </trkpt>
      <trkpt lat="44.59199" lon="0.9269">
        <ele>240.8</ele>
        <time>2018-07-22T13:49:16Z</time>
      </trkpt>
      <trkpt lat="44.59201" lon="0.92682">
        <ele>240.8</ele>
        <time>2018-07-22T13:49:17Z</time>
      </trkpt>
      <trkpt lat="44.59204" lon="0.92676">
        <ele>240.8</ele>
        <time>2018-07-22T13:49:18Z</time>
      </trkpt>
      <trkpt lat="44.59205" lon="0.9267">
        <ele>240.8</ele>
        <time>2018-07-22T13:49:19Z</time>
      </trkpt>
      <trkpt lat="44.59209" lon="0.92664">
        <ele>240.7</ele>
        <time>2018-07-22T13:49:20Z</time>
      </trkpt>
      <trkpt lat="44.59211" lon="0.92659">
        <ele>240.7</ele>
        <time>2018-07-22T13:49:21Z</time>
      </trkpt>
      <trkpt lat="44.59217" lon="0.92651">
        <ele>240.7</ele>
        <time>2018-07-22T13:49:22Z</time>
      </trkpt>
      <trkpt lat="44.59219" lon="0.92646">
        <ele>240.7</ele>
        <time>2018-07-22T13:49:23Z</time>
      </trkpt>
      <trkpt lat="44.59222" lon="0.9264">
        <ele>240.7</ele>
        <time>2018-07-22T13:49:24Z</time>
      </trkpt>
      <trkpt lat="44.59224" lon="0.92632">
        <ele>240.7</ele>
        <time>2018-07-22T13:49:25Z</time>
      </trkpt>
      <trkpt lat="44.59228" lon="0.92626">
        <ele>240.7</ele>
        <time>2018-07-22T13:49:26Z</time>
      </trkpt>
      <trkpt lat="44.5923" lon="0.92621">
        <ele>240.7</ele>
        <time>2018-07-22T13:49:27Z</time>
      </trkpt>
      <trkpt lat="44.59233" lon="0.92616">
        <ele>240.7</ele>
        <time>2018-07-22T13:49:28Z</time>
      </trkpt>
      <trkpt lat="44.59235" lon="0.9261">
        <ele>240.7</ele>
        <time>2018-07-22T13:49:29Z</time>
      </trkpt>
      <trkpt lat="44.59238" lon="0.92604">
        <ele>240.7</ele>
        <time>2018-07-22T13:49:30Z</time>
      </trkpt>
      <trkpt lat="44.5924" lon="0.92599">
        <ele>240.7</ele>
        <time>2018-07-22T13:49:31Z</time>
      </trkpt>
      <trkpt lat="44.59242" lon="0.92594">
        <ele>240.7</ele>
        <time>2018-07-22T13:49:32Z</time>
      </trkpt>
      <trkpt lat="44.59245" lon="0.92589">
        <ele>240.7</ele>
        <time>2018-07-22T13:49:33Z</time>
      </trkpt>
      <trkpt lat="44.59248" lon="0.92583">
        <ele>240.7</ele>
        <time>2018-07-22T13:49:34Z</time>
      </trkpt>
      <trkpt lat="44.5925" lon="0.92578">
        <ele>240.8</ele>
        <time>2018-07-22T13:49:35Z</time>
      </trkpt>
      <trkpt lat="44.59253" lon="0.92576">
        <ele>240.8</ele>
        <time>2018-07-22T13:49:36Z</time>
      </trkpt>
      <trkpt lat="44.59255" lon="0.92571">
        <ele>240.8</ele>
        <time>2018-07-22T13:49:37Z</time>
      </trkpt>
      <trkpt lat="44.59259" lon="0.92569">
        <ele>240.8</ele>
        <time>2018-07-22T13:49:38Z</time>
      </trkpt>
      <trkpt lat="44.59261" lon="0.92564">
        <ele>240.9</ele>
        <time>2018-07-22T13:49:39Z</time>
      </trkpt>
      <trkpt lat="44.59263" lon="0.92558">
        <ele>240.9</ele>
        <time>2018-07-22T13:49:40Z</time>
      </trkpt>
      <trkpt lat="44.59267" lon="0.92558">
        <ele>240.9</ele>
        <time>2018-07-22T13:49:41Z</time>
      </trkpt>
      <trkpt lat="44.5927" lon="0.92555">
        <ele>240.9</ele>
        <time>2018-07-22T13:49:42Z</time>
      </trkpt>
      <trkpt lat="44.59271" lon="0.9255">
        <ele>240.9</ele>
        <time>2018-07-22T13:49:43Z</time>
      </trkpt>
      <trkpt lat="44.59274" lon="0.92545">
        <ele>241</ele>
        <time>2018-07-22T13:49:45Z</time>
      </trkpt>
      <trkpt lat="44.59277" lon="0.92539">
        <ele>241</ele>
        <time>2018-07-22T13:49:47Z</time>
      </trkpt>
      <trkpt lat="44.59279" lon="0.92534">
        <ele>241</ele>
        <time>2018-07-22T13:49:49Z</time>
      </trkpt>
      <trkpt lat="44.59281" lon="0.92529">
        <ele>241</ele>
        <time>2018-07-22T13:49:51Z</time>
      </trkpt>
      <trkpt lat="44.59279" lon="0.92523">
        <ele>241</ele>
        <time>2018-07-22T13:49:53Z</time>
      </trkpt>
      <trkpt lat="44.59277" lon="0.9252">
        <ele>241</ele>
        <time>2018-07-22T13:49:55Z</time>
      </trkpt>
      <trkpt lat="44.59274" lon="0.92518">
        <ele>241</ele>
        <time>2018-07-22T13:49:57Z</time>
      </trkpt>
      <trkpt lat="44.59271" lon="0.92517">
        <ele>240.9</ele>
        <time>2018-07-22T13:49:59Z</time>
      </trkpt>
      <trkpt lat="44.59267" lon="0.92515">
        <ele>240.9</ele>
        <time>2018-07-22T13:50:01Z</time>
      </trkpt>
      <trkpt lat="44.59265" lon="0.92515">
        <ele>240.9</ele>
        <time>2018-07-22T13:50:08Z</time>
      </trkpt>
      <trkpt lat="44.59256" lon="0.92525">
        <ele>241</ele>
        <time>2018-07-22T13:54:01Z</time>
      </trkpt>
      <trkpt lat="44.59258" lon="0.92522">
        <ele>241</ele>
        <time>2018-07-22T13:54:03Z</time>
      </trkpt>
      <trkpt lat="44.59259" lon="0.92518">
        <ele>240.9</ele>
        <time>2018-07-22T13:54:09Z</time>
      </trkpt>
      <trkpt lat="44.59262" lon="0.92517">
        <ele>240.9</ele>
        <time>2018-07-22T13:54:12Z</time>
      </trkpt>
      <trkpt lat="44.59266" lon="0.92517">
        <ele>241</ele>
        <time>2018-07-22T13:54:14Z</time>
      </trkpt>
      <trkpt lat="44.5927" lon="0.9252">
        <ele>241</ele>
        <time>2018-07-22T13:54:16Z</time>
      </trkpt>
      <trkpt lat="44.59275" lon="0.92522">
        <ele>241</ele>
        <time>2018-07-22T13:54:18Z</time>
      </trkpt>
      <trkpt lat="44.59281" lon="0.92523">
        <ele>241</ele>
        <time>2018-07-22T13:54:20Z</time>
      </trkpt>
      <trkpt lat="44.59285" lon="0.92522">
        <ele>241</ele>
        <time>2018-07-22T13:54:22Z</time>
      </trkpt>
      <trkpt lat="44.59289" lon="0.92517">
        <ele>240.9</ele>
        <time>2018-07-22T13:54:24Z</time>
      </trkpt>
      <trkpt lat="44.5929" lon="0.92512">
        <ele>240.9</ele>
        <time>2018-07-22T13:54:26Z</time>
      </trkpt>
      <trkpt lat="44.59293" lon="0.92508">
        <ele>240.9</ele>
        <time>2018-07-22T13:54:28Z</time>
      </trkpt>
      <trkpt lat="44.59296" lon="0.92502">
        <ele>240.9</ele>
        <time>2018-07-22T13:54:30Z</time>
      </trkpt>
      <trkpt lat="44.59297" lon="0.92498">
        <ele>240.9</ele>
        <time>2018-07-22T13:54:31Z</time>
      </trkpt>
      <trkpt lat="44.59299" lon="0.92494">
        <ele>240.8</ele>
        <time>2018-07-22T13:54:32Z</time>
      </trkpt>
      <trkpt lat="44.593" lon="0.92489">
        <ele>240.8</ele>
        <time>2018-07-22T13:54:33Z</time>
      </trkpt>
      <trkpt lat="44.59302" lon="0.92484">
        <ele>240.8</ele>
        <time>2018-07-22T13:54:34Z</time>
      </trkpt>
      <trkpt lat="44.59303" lon="0.92479">
        <ele>240.7</ele>
        <time>2018-07-22T13:54:35Z</time>
      </trkpt>
      <trkpt lat="44.59305" lon="0.92474">
        <ele>240.7</ele>
        <time>2018-07-22T13:54:36Z</time>
      </trkpt>
      <trkpt lat="44.59306" lon="0.92469">
        <ele>240.6</ele>
        <time>2018-07-22T13:54:37Z</time>
      </trkpt>
      <trkpt lat="44.59307" lon="0.92464">
        <ele>240.6</ele>
        <time>2018-07-22T13:54:38Z</time>
      </trkpt>
      <trkpt lat="44.59309" lon="0.92459">
        <ele>240.6</ele>
        <time>2018-07-22T13:54:39Z</time>
      </trkpt>
      <trkpt lat="44.5931" lon="0.92455">
        <ele>240.5</ele>
        <time>2018-07-22T13:54:40Z</time>
      </trkpt>
      <trkpt lat="44.59311" lon="0.9245">
        <ele>240.5</ele>
        <time>2018-07-22T13:54:41Z</time>
      </trkpt>
      <trkpt lat="44.59312" lon="0.92445">
        <ele>240.4</ele>
        <time>2018-07-22T13:54:42Z</time>
      </trkpt>
      <trkpt lat="44.59312" lon="0.92441">
        <ele>240.4</ele>
        <time>2018-07-22T13:54:43Z</time>
      </trkpt>
      <trkpt lat="44.59313" lon="0.92437">
        <ele>240.3</ele>
        <time>2018-07-22T13:54:44Z</time>
      </trkpt>
      <trkpt lat="44.59313" lon="0.92432">
        <ele>240.3</ele>
        <time>2018-07-22T13:54:45Z</time>
      </trkpt>
      <trkpt lat="44.59314" lon="0.92427">
        <ele>240.2</ele>
        <time>2018-07-22T13:54:46Z</time>
      </trkpt>
      <trkpt lat="44.59313" lon="0.92423">
        <ele>240.1</ele>
        <time>2018-07-22T13:54:47Z</time>
      </trkpt>
      <trkpt lat="44.59312" lon="0.92419">
        <ele>240.1</ele>
        <time>2018-07-22T13:54:48Z</time>
      </trkpt>
      <trkpt lat="44.5931" lon="0.92414">
        <ele>240</ele>
        <time>2018-07-22T13:54:49Z</time>
      </trkpt>
      <trkpt lat="44.59309" lon="0.92409">
        <ele>239.9</ele>
        <time>2018-07-22T13:54:50Z</time>
      </trkpt>
      <trkpt lat="44.59307" lon="0.92404">
        <ele>239.8</ele>
        <time>2018-07-22T13:54:51Z</time>
      </trkpt>
      <trkpt lat="44.59306" lon="0.92398">
        <ele>239.6</ele>
        <time>2018-07-22T13:54:52Z</time>
      </trkpt>
      <trkpt lat="44.59305" lon="0.92391">
        <ele>239.3</ele>
        <time>2018-07-22T13:54:53Z</time>
      </trkpt>
      <trkpt lat="44.59304" lon="0.92384">
        <ele>239.1</ele>
        <time>2018-07-22T13:54:54Z</time>
      </trkpt>
      <trkpt lat="44.59302" lon="0.92377">
        <ele>238.7</ele>
        <time>2018-07-22T13:54:55Z</time>
      </trkpt>
      <trkpt lat="44.593" lon="0.9237">
        <ele>238.3</ele>
        <time>2018-07-22T13:54:56Z</time>
      </trkpt>
      <trkpt lat="44.59299" lon="0.92364">
        <ele>238.2</ele>
        <time>2018-07-22T13:54:57Z</time>
      </trkpt>
      <trkpt lat="44.59297" lon="0.92357">
        <ele>237.9</ele>
        <time>2018-07-22T13:54:58Z</time>
      </trkpt>
      <trkpt lat="44.59296" lon="0.9235">
        <ele>237.7</ele>
        <time>2018-07-22T13:54:59Z</time>
      </trkpt>
      <trkpt lat="44.59294" lon="0.92344">
        <ele>237.4</ele>
        <time>2018-07-22T13:55:00Z</time>
      </trkpt>
      <trkpt lat="44.59293" lon="0.92336">
        <ele>237.2</ele>
        <time>2018-07-22T13:55:01Z</time>
      </trkpt>
      <trkpt lat="44.59291" lon="0.9233">
        <ele>237.1</ele>
        <time>2018-07-22T13:55:02Z</time>
      </trkpt>
      <trkpt lat="44.59289" lon="0.92324">
        <ele>236.9</ele>
        <time>2018-07-22T13:55:03Z</time>
      </trkpt>
      <trkpt lat="44.59287" lon="0.92317">
        <ele>236.7</ele>
        <time>2018-07-22T13:55:04Z</time>
      </trkpt>
      <trkpt lat="44.59286" lon="0.92308">
        <ele>236.5</ele>
        <time>2018-07-22T13:55:05Z</time>
      </trkpt>
      <trkpt lat="44.59284" lon="0.92299">
        <ele>236.2</ele>
        <time>2018-07-22T13:55:06Z</time>
      </trkpt>
      <trkpt lat="44.59283" lon="0.92291">
        <ele>236</ele>
        <time>2018-07-22T13:55:07Z</time>
      </trkpt>
      <trkpt lat="44.59282" lon="0.92283">
        <ele>235.6</ele>
        <time>2018-07-22T13:55:08Z</time>
      </trkpt>
      <trkpt lat="44.59281" lon="0.92275">
        <ele>235.4</ele>
        <time>2018-07-22T13:55:09Z</time>
      </trkpt>
      <trkpt lat="44.5928" lon="0.92268">
        <ele>235.2</ele>
        <time>2018-07-22T13:55:10Z</time>
      </trkpt>
      <trkpt lat="44.59277" lon="0.92259">
        <ele>234.9</ele>
        <time>2018-07-22T13:55:11Z</time>
      </trkpt>
      <trkpt lat="44.59274" lon="0.9225">
        <ele>234.6</ele>
        <time>2018-07-22T13:55:12Z</time>
      </trkpt>
      <trkpt lat="44.59271" lon="0.92241">
        <ele>234.2</ele>
        <time>2018-07-22T13:55:13Z</time>
      </trkpt>
      <trkpt lat="44.59269" lon="0.92231">
        <ele>233.9</ele>
        <time>2018-07-22T13:55:14Z</time>
      </trkpt>
      <trkpt lat="44.59267" lon="0.9222">
        <ele>233.5</ele>
        <time>2018-07-22T13:55:15Z</time>
      </trkpt>
      <trkpt lat="44.59265" lon="0.92209">
        <ele>233.3</ele>
        <time>2018-07-22T13:55:16Z</time>
      </trkpt>
      <trkpt lat="44.59263" lon="0.92197">
        <ele>233</ele>
        <time>2018-07-22T13:55:17Z</time>
      </trkpt>
      <trkpt lat="44.59261" lon="0.92186">
        <ele>233</ele>
        <time>2018-07-22T13:55:18Z</time>
      </trkpt>
      <trkpt lat="44.59258" lon="0.92173">
        <ele>233</ele>
        <time>2018-07-22T13:55:19Z</time>
      </trkpt>
      <trkpt lat="44.59254" lon="0.92162">
        <ele>233.2</ele>
        <time>2018-07-22T13:55:20Z</time>
      </trkpt>
      <trkpt lat="44.59252" lon="0.92151">
        <ele>233.4</ele>
        <time>2018-07-22T13:55:21Z</time>
      </trkpt>
      <trkpt lat="44.5925" lon="0.92141">
        <ele>233.6</ele>
        <time>2018-07-22T13:55:22Z</time>
      </trkpt>
      <trkpt lat="44.59249" lon="0.9213">
        <ele>233.8</ele>
        <time>2018-07-22T13:55:23Z</time>
      </trkpt>
      <trkpt lat="44.59248" lon="0.92121">
        <ele>234</ele>
        <time>2018-07-22T13:55:24Z</time>
      </trkpt>
      <trkpt lat="44.59247" lon="0.92115">
        <ele>234.1</ele>
        <time>2018-07-22T13:55:25Z</time>
      </trkpt>
      <trkpt lat="44.59244" lon="0.9211">
        <ele>234.3</ele>
        <time>2018-07-22T13:55:26Z</time>
      </trkpt>
      <trkpt lat="44.59243" lon="0.92105">
        <ele>234.4</ele>
        <time>2018-07-22T13:55:27Z</time>
      </trkpt>
      <trkpt lat="44.59241" lon="0.92098">
        <ele>234.6</ele>
        <time>2018-07-22T13:55:29Z</time>
      </trkpt>
      <trkpt lat="44.59239" lon="0.9209">
        <ele>234.9</ele>
        <time>2018-07-22T13:55:31Z</time>
      </trkpt>
      <trkpt lat="44.59238" lon="0.92086">
        <ele>234.9</ele>
        <time>2018-07-22T13:55:32Z</time>
      </trkpt>
      <trkpt lat="44.59238" lon="0.92082">
        <ele>235</ele>
        <time>2018-07-22T13:55:33Z</time>
      </trkpt>
      <trkpt lat="44.59237" lon="0.92078">
        <ele>235.1</ele>
        <time>2018-07-22T13:55:34Z</time>
      </trkpt>
      <trkpt lat="44.59237" lon="0.92073">
        <ele>235.2</ele>
        <time>2018-07-22T13:55:35Z</time>
      </trkpt>
      <trkpt lat="44.59236" lon="0.92069">
        <ele>235.3</ele>
        <time>2018-07-22T13:55:36Z</time>
      </trkpt>
      <trkpt lat="44.59236" lon="0.92064">
        <ele>235.5</ele>
        <time>2018-07-22T13:55:37Z</time>
      </trkpt>
      <trkpt lat="44.59235" lon="0.9206">
        <ele>235.6</ele>
        <time>2018-07-22T13:55:38Z</time>
      </trkpt>
      <trkpt lat="44.59234" lon="0.92055">
        <ele>235.7</ele>
        <time>2018-07-22T13:55:39Z</time>
      </trkpt>
      <trkpt lat="44.59233" lon="0.92051">
        <ele>235.8</ele>
        <time>2018-07-22T13:55:40Z</time>
      </trkpt>
      <trkpt lat="44.59233" lon="0.92046">
        <ele>235.9</ele>
        <time>2018-07-22T13:55:41Z</time>
      </trkpt>
      <trkpt lat="44.59233" lon="0.92041">
        <ele>236</ele>
        <time>2018-07-22T13:55:42Z</time>
      </trkpt>
      <trkpt lat="44.59233" lon="0.92037">
        <ele>235.9</ele>
        <time>2018-07-22T13:55:43Z</time>
      </trkpt>
      <trkpt lat="44.59233" lon="0.92032">
        <ele>236</ele>
        <time>2018-07-22T13:55:44Z</time>
      </trkpt>
      <trkpt lat="44.59234" lon="0.92028">
        <ele>236</ele>
        <time>2018-07-22T13:55:45Z</time>
      </trkpt>
      <trkpt lat="44.59234" lon="0.92024">
        <ele>236</ele>
        <time>2018-07-22T13:55:46Z</time>
      </trkpt>
      <trkpt lat="44.59235" lon="0.92016">
        <ele>235.9</ele>
        <time>2018-07-22T13:55:48Z</time>
      </trkpt>
      <trkpt lat="44.59235" lon="0.92012">
        <ele>235.8</ele>
        <time>2018-07-22T13:55:49Z</time>
      </trkpt>
      <trkpt lat="44.59235" lon="0.92008">
        <ele>235.7</ele>
        <time>2018-07-22T13:55:50Z</time>
      </trkpt>
      <trkpt lat="44.59234" lon="0.92004">
        <ele>235.6</ele>
        <time>2018-07-22T13:55:51Z</time>
      </trkpt>
      <trkpt lat="44.59233" lon="0.92">
        <ele>235.4</ele>
        <time>2018-07-22T13:55:52Z</time>
      </trkpt>
      <trkpt lat="44.59232" lon="0.91995">
        <ele>235.3</ele>
        <time>2018-07-22T13:55:53Z</time>
      </trkpt>
      <trkpt lat="44.59232" lon="0.9199">
        <ele>235.2</ele>
        <time>2018-07-22T13:55:54Z</time>
      </trkpt>
      <trkpt lat="44.5923" lon="0.91985">
        <ele>235</ele>
        <time>2018-07-22T13:55:55Z</time>
      </trkpt>
      <trkpt lat="44.59229" lon="0.9198">
        <ele>234.7</ele>
        <time>2018-07-22T13:55:56Z</time>
      </trkpt>
      <trkpt lat="44.59228" lon="0.91974">
        <ele>234.6</ele>
        <time>2018-07-22T13:55:57Z</time>
      </trkpt>
      <trkpt lat="44.59228" lon="0.91968">
        <ele>234.4</ele>
        <time>2018-07-22T13:55:58Z</time>
      </trkpt>
      <trkpt lat="44.59227" lon="0.91963">
        <ele>234.2</ele>
        <time>2018-07-22T13:55:59Z</time>
      </trkpt>
      <trkpt lat="44.59227" lon="0.91957">
        <ele>234.1</ele>
        <time>2018-07-22T13:56:00Z</time>
      </trkpt>
      <trkpt lat="44.59226" lon="0.91951">
        <ele>234</ele>
        <time>2018-07-22T13:56:01Z</time>
      </trkpt>
      <trkpt lat="44.59227" lon="0.91942">
        <ele>233.7</ele>
        <time>2018-07-22T13:56:02Z</time>
      </trkpt>
      <trkpt lat="44.59227" lon="0.91936">
        <ele>233.6</ele>
        <time>2018-07-22T13:56:03Z</time>
      </trkpt>
      <trkpt lat="44.59227" lon="0.9193">
        <ele>233.5</ele>
        <time>2018-07-22T13:56:04Z</time>
      </trkpt>
      <trkpt lat="44.59227" lon="0.91925">
        <ele>233.4</ele>
        <time>2018-07-22T13:56:05Z</time>
      </trkpt>
      <trkpt lat="44.59227" lon="0.91919">
        <ele>233.4</ele>
        <time>2018-07-22T13:56:06Z</time>
      </trkpt>
      <trkpt lat="44.59226" lon="0.91914">
        <ele>233.3</ele>
        <time>2018-07-22T13:56:07Z</time>
      </trkpt>
      <trkpt lat="44.59226" lon="0.91906">
        <ele>233.3</ele>
        <time>2018-07-22T13:56:08Z</time>
      </trkpt>
      <trkpt lat="44.59225" lon="0.91899">
        <ele>233.3</ele>
        <time>2018-07-22T13:56:09Z</time>
      </trkpt>
      <trkpt lat="44.59225" lon="0.91893">
        <ele>233.3</ele>
        <time>2018-07-22T13:56:10Z</time>
      </trkpt>
      <trkpt lat="44.59225" lon="0.91887">
        <ele>233.2</ele>
        <time>2018-07-22T13:56:11Z</time>
      </trkpt>
      <trkpt lat="44.59225" lon="0.9188">
        <ele>233.2</ele>
        <time>2018-07-22T13:56:12Z</time>
      </trkpt>
      <trkpt lat="44.59227" lon="0.91875">
        <ele>233.2</ele>
        <time>2018-07-22T13:56:13Z</time>
      </trkpt>
      <trkpt lat="44.59229" lon="0.91869">
        <ele>233</ele>
        <time>2018-07-22T13:56:14Z</time>
      </trkpt>
      <trkpt lat="44.59231" lon="0.91864">
        <ele>232.8</ele>
        <time>2018-07-22T13:56:15Z</time>
      </trkpt>
      <trkpt lat="44.59235" lon="0.91862">
        <ele>232.6</ele>
        <time>2018-07-22T13:56:16Z</time>
      </trkpt>
      <trkpt lat="44.59238" lon="0.91859">
        <ele>232.4</ele>
        <time>2018-07-22T13:56:17Z</time>
      </trkpt>
      <trkpt lat="44.5924" lon="0.91856">
        <ele>232.2</ele>
        <time>2018-07-22T13:56:18Z</time>
      </trkpt>
      <trkpt lat="44.59244" lon="0.91845">
        <ele>232.1</ele>
        <time>2018-07-22T13:56:20Z</time>
      </trkpt>
      <trkpt lat="44.59246" lon="0.91839">
        <ele>231.9</ele>
        <time>2018-07-22T13:56:21Z</time>
      </trkpt>
      <trkpt lat="44.59248" lon="0.9183">
        <ele>231.9</ele>
        <time>2018-07-22T13:56:22Z</time>
      </trkpt>
      <trkpt lat="44.5925" lon="0.91822">
        <ele>231.8</ele>
        <time>2018-07-22T13:56:23Z</time>
      </trkpt>
      <trkpt lat="44.59251" lon="0.91813">
        <ele>231.8</ele>
        <time>2018-07-22T13:56:24Z</time>
      </trkpt>
      <trkpt lat="44.59253" lon="0.91804">
        <ele>231.8</ele>
        <time>2018-07-22T13:56:25Z</time>
      </trkpt>
      <trkpt lat="44.59258" lon="0.91797">
        <ele>231.7</ele>
        <time>2018-07-22T13:56:26Z</time>
      </trkpt>
      <trkpt lat="44.59259" lon="0.91791">
        <ele>231.8</ele>
        <time>2018-07-22T13:56:27Z</time>
      </trkpt>
      <trkpt lat="44.59259" lon="0.91786">
        <ele>231.8</ele>
        <time>2018-07-22T13:56:28Z</time>
      </trkpt>
      <trkpt lat="44.59263" lon="0.91787">
        <ele>231.8</ele>
        <time>2018-07-22T13:56:30Z</time>
      </trkpt>
      <trkpt lat="44.59267" lon="0.91784">
        <ele>231.7</ele>
        <time>2018-07-22T13:56:32Z</time>
      </trkpt>
      <trkpt lat="44.59271" lon="0.91782">
        <ele>231.8</ele>
        <time>2018-07-22T13:56:33Z</time>
      </trkpt>
      <trkpt lat="44.59274" lon="0.91781">
        <ele>231.7</ele>
        <time>2018-07-22T13:56:34Z</time>
      </trkpt>
      <trkpt lat="44.59278" lon="0.9178">
        <ele>231.7</ele>
        <time>2018-07-22T13:56:35Z</time>
      </trkpt>
      <trkpt lat="44.59283" lon="0.91776">
        <ele>231.7</ele>
        <time>2018-07-22T13:56:36Z</time>
      </trkpt>
      <trkpt lat="44.59288" lon="0.91771">
        <ele>231.8</ele>
        <time>2018-07-22T13:56:37Z</time>
      </trkpt>
      <trkpt lat="44.59292" lon="0.91768">
        <ele>232</ele>
        <time>2018-07-22T13:56:38Z</time>
      </trkpt>
      <trkpt lat="44.59297" lon="0.91765">
        <ele>232.1</ele>
        <time>2018-07-22T13:56:39Z</time>
      </trkpt>
      <trkpt lat="44.59302" lon="0.91763">
        <ele>232</ele>
        <time>2018-07-22T13:56:40Z</time>
      </trkpt>
      <trkpt lat="44.59312" lon="0.91756">
        <ele>232</ele>
        <time>2018-07-22T13:56:41Z</time>
      </trkpt>
      <trkpt lat="44.59319" lon="0.91755">
        <ele>231.7</ele>
        <time>2018-07-22T13:56:42Z</time>
      </trkpt>
      <trkpt lat="44.59325" lon="0.91751">
        <ele>231.6</ele>
        <time>2018-07-22T13:56:43Z</time>
      </trkpt>
      <trkpt lat="44.5933" lon="0.91746">
        <ele>231.5</ele>
        <time>2018-07-22T13:56:44Z</time>
      </trkpt>
      <trkpt lat="44.59337" lon="0.9174">
        <ele>231.3</ele>
        <time>2018-07-22T13:56:45Z</time>
      </trkpt>
      <trkpt lat="44.59342" lon="0.91738">
        <ele>230.8</ele>
        <time>2018-07-22T13:56:46Z</time>
      </trkpt>
      <trkpt lat="44.59348" lon="0.91737">
        <ele>230.4</ele>
        <time>2018-07-22T13:56:47Z</time>
      </trkpt>
      <trkpt lat="44.59355" lon="0.91736">
        <ele>229.8</ele>
        <time>2018-07-22T13:56:48Z</time>
      </trkpt>
      <trkpt lat="44.59365" lon="0.91731">
        <ele>228.8</ele>
        <time>2018-07-22T13:56:49Z</time>
      </trkpt>
      <trkpt lat="44.59376" lon="0.91725">
        <ele>227.8</ele>
        <time>2018-07-22T13:56:50Z</time>
      </trkpt>
      <trkpt lat="44.59379" lon="0.91725">
        <ele>227.4</ele>
        <time>2018-07-22T13:56:51Z</time>
      </trkpt>
      <trkpt lat="44.59385" lon="0.91725">
        <ele>226.7</ele>
        <time>2018-07-22T13:56:52Z</time>
      </trkpt>
      <trkpt lat="44.59391" lon="0.91727">
        <ele>225.9</ele>
        <time>2018-07-22T13:56:53Z</time>
      </trkpt>
      <trkpt lat="44.59397" lon="0.91725">
        <ele>225.2</ele>
        <time>2018-07-22T13:56:54Z</time>
      </trkpt>
      <trkpt lat="44.59402" lon="0.91724">
        <ele>224.7</ele>
        <time>2018-07-22T13:56:55Z</time>
      </trkpt>
      <trkpt lat="44.59405" lon="0.91724">
        <ele>224.5</ele>
        <time>2018-07-22T13:56:56Z</time>
      </trkpt>
      <trkpt lat="44.5941" lon="0.9172">
        <ele>224.4</ele>
        <time>2018-07-22T13:56:57Z</time>
      </trkpt>
      <trkpt lat="44.59414" lon="0.91719">
        <ele>224.1</ele>
        <time>2018-07-22T13:56:58Z</time>
      </trkpt>
      <trkpt lat="44.59411" lon="0.91723">
        <ele>224.2</ele>
        <time>2018-07-22T13:56:59Z</time>
      </trkpt>
      <trkpt lat="44.59414" lon="0.91719">
        <ele>224.1</ele>
        <time>2018-07-22T13:57:01Z</time>
      </trkpt>
      <trkpt lat="44.5942" lon="0.91715">
        <ele>223.9</ele>
        <time>2018-07-22T13:57:03Z</time>
      </trkpt>
      <trkpt lat="44.59423" lon="0.91715">
        <ele>223.9</ele>
        <time>2018-07-22T13:57:05Z</time>
      </trkpt>
      <trkpt lat="44.59428" lon="0.91714">
        <ele>223.9</ele>
        <time>2018-07-22T13:57:07Z</time>
      </trkpt>
      <trkpt lat="44.59433" lon="0.91714">
        <ele>223.8</ele>
        <time>2018-07-22T13:57:09Z</time>
      </trkpt>
      <trkpt lat="44.59436" lon="0.91713">
        <ele>223.8</ele>
        <time>2018-07-22T13:57:10Z</time>
      </trkpt>
      <trkpt lat="44.59441" lon="0.91709">
        <ele>223.8</ele>
        <time>2018-07-22T13:57:12Z</time>
      </trkpt>
      <trkpt lat="44.59444" lon="0.91706">
        <ele>223.8</ele>
        <time>2018-07-22T13:57:13Z</time>
      </trkpt>
      <trkpt lat="44.59446" lon="0.91704">
        <ele>223.8</ele>
        <time>2018-07-22T13:57:14Z</time>
      </trkpt>
      <trkpt lat="44.59449" lon="0.91703">
        <ele>223.8</ele>
        <time>2018-07-22T13:57:15Z</time>
      </trkpt>
      <trkpt lat="44.59451" lon="0.91701">
        <ele>223.7</ele>
        <time>2018-07-22T13:57:16Z</time>
      </trkpt>
      <trkpt lat="44.59454" lon="0.91698">
        <ele>223.7</ele>
        <time>2018-07-22T13:57:17Z</time>
      </trkpt>
      <trkpt lat="44.59456" lon="0.91695">
        <ele>223.7</ele>
        <time>2018-07-22T13:57:18Z</time>
      </trkpt>
      <trkpt lat="44.59458" lon="0.91692">
        <ele>223.6</ele>
        <time>2018-07-22T13:57:19Z</time>
      </trkpt>
      <trkpt lat="44.59461" lon="0.91687">
        <ele>223.6</ele>
        <time>2018-07-22T13:57:21Z</time>
      </trkpt>
      <trkpt lat="44.59466" lon="0.9168">
        <ele>223.5</ele>
        <time>2018-07-22T13:57:23Z</time>
      </trkpt>
      <trkpt lat="44.59469" lon="0.91676">
        <ele>223.5</ele>
        <time>2018-07-22T13:57:24Z</time>
      </trkpt>
      <trkpt lat="44.59472" lon="0.91672">
        <ele>223.4</ele>
        <time>2018-07-22T13:57:25Z</time>
      </trkpt>
      <trkpt lat="44.59475" lon="0.91668">
        <ele>223.4</ele>
        <time>2018-07-22T13:57:26Z</time>
      </trkpt>
      <trkpt lat="44.59477" lon="0.91664">
        <ele>223.4</ele>
        <time>2018-07-22T13:57:27Z</time>
      </trkpt>
      <trkpt lat="44.59481" lon="0.9166">
        <ele>223.3</ele>
        <time>2018-07-22T13:57:29Z</time>
      </trkpt>
      <trkpt lat="44.59486" lon="0.91656">
        <ele>223.3</ele>
        <time>2018-07-22T13:57:31Z</time>
      </trkpt>
      <trkpt lat="44.5949" lon="0.91652">
        <ele>223.2</ele>
        <time>2018-07-22T13:57:33Z</time>
      </trkpt>
      <trkpt lat="44.59494" lon="0.9165">
        <ele>223.2</ele>
        <time>2018-07-22T13:57:35Z</time>
      </trkpt>
      <trkpt lat="44.59498" lon="0.91648">
        <ele>223.2</ele>
        <time>2018-07-22T13:57:37Z</time>
      </trkpt>
      <trkpt lat="44.59501" lon="0.91646">
        <ele>223.2</ele>
        <time>2018-07-22T13:57:39Z</time>
      </trkpt>
      <trkpt lat="44.59504" lon="0.91644">
        <ele>223.1</ele>
        <time>2018-07-22T13:57:41Z</time>
      </trkpt>
      <trkpt lat="44.59507" lon="0.91643">
        <ele>223.1</ele>
        <time>2018-07-22T13:57:43Z</time>
      </trkpt>
      <trkpt lat="44.59511" lon="0.91643">
        <ele>223.2</ele>
        <time>2018-07-22T13:57:46Z</time>
      </trkpt>
      <trkpt lat="44.59515" lon="0.91644">
        <ele>223.3</ele>
        <time>2018-07-22T13:57:48Z</time>
      </trkpt>
      <trkpt lat="44.59518" lon="0.91644">
        <ele>223.3</ele>
        <time>2018-07-22T13:57:50Z</time>
      </trkpt>
      <trkpt lat="44.59521" lon="0.91643">
        <ele>223.4</ele>
        <time>2018-07-22T13:57:52Z</time>
      </trkpt>
      <trkpt lat="44.59525" lon="0.91641">
        <ele>223.3</ele>
        <time>2018-07-22T13:57:54Z</time>
      </trkpt>
      <trkpt lat="44.59529" lon="0.91639">
        <ele>223.4</ele>
        <time>2018-07-22T13:57:55Z</time>
      </trkpt>
      <trkpt lat="44.59532" lon="0.91636">
        <ele>223.3</ele>
        <time>2018-07-22T13:57:56Z</time>
      </trkpt>
      <trkpt lat="44.59536" lon="0.91634">
        <ele>223.5</ele>
        <time>2018-07-22T13:57:57Z</time>
      </trkpt>
      <trkpt lat="44.5954" lon="0.91631">
        <ele>223.4</ele>
        <time>2018-07-22T13:57:58Z</time>
      </trkpt>
      <trkpt lat="44.59545" lon="0.91628">
        <ele>223.2</ele>
        <time>2018-07-22T13:57:59Z</time>
      </trkpt>
      <trkpt lat="44.59549" lon="0.91626">
        <ele>223.4</ele>
        <time>2018-07-22T13:58:00Z</time>
      </trkpt>
      <trkpt lat="44.59554" lon="0.91624">
        <ele>223.2</ele>
        <time>2018-07-22T13:58:01Z</time>
      </trkpt>
      <trkpt lat="44.59558" lon="0.91622">
        <ele>223.4</ele>
        <time>2018-07-22T13:58:02Z</time>
      </trkpt>
      <trkpt lat="44.59563" lon="0.91621">
        <ele>223.5</ele>
        <time>2018-07-22T13:58:03Z</time>
      </trkpt>
      <trkpt lat="44.59567" lon="0.9162">
        <ele>223.5</ele>
        <time>2018-07-22T13:58:04Z</time>
      </trkpt>
      <trkpt lat="44.59571" lon="0.91619">
        <ele>223.6</ele>
        <time>2018-07-22T13:58:05Z</time>
      </trkpt>
      <trkpt lat="44.59576" lon="0.91618">
        <ele>223.8</ele>
        <time>2018-07-22T13:58:06Z</time>
      </trkpt>
      <trkpt lat="44.5958" lon="0.91617">
        <ele>223.9</ele>
        <time>2018-07-22T13:58:07Z</time>
      </trkpt>
      <trkpt lat="44.59584" lon="0.91617">
        <ele>224</ele>
        <time>2018-07-22T13:58:08Z</time>
      </trkpt>
      <trkpt lat="44.59595" lon="0.91617">
        <ele>224.5</ele>
        <time>2018-07-22T13:58:09Z</time>
      </trkpt>
      <trkpt lat="44.59604" lon="0.91614">
        <ele>224.5</ele>
        <time>2018-07-22T13:58:10Z</time>
      </trkpt>
      <trkpt lat="44.59609" lon="0.91613">
        <ele>224.7</ele>
        <time>2018-07-22T13:58:11Z</time>
      </trkpt>
      <trkpt lat="44.59613" lon="0.9161">
        <ele>224.7</ele>
        <time>2018-07-22T13:58:12Z</time>
      </trkpt>
      <trkpt lat="44.59618" lon="0.91606">
        <ele>224.7</ele>
        <time>2018-07-22T13:58:13Z</time>
      </trkpt>
      <trkpt lat="44.59624" lon="0.91601">
        <ele>224.6</ele>
        <time>2018-07-22T13:58:14Z</time>
      </trkpt>
      <trkpt lat="44.59629" lon="0.91597">
        <ele>224.6</ele>
        <time>2018-07-22T13:58:15Z</time>
      </trkpt>
      <trkpt lat="44.59634" lon="0.91595">
        <ele>224.8</ele>
        <time>2018-07-22T13:58:16Z</time>
      </trkpt>
      <trkpt lat="44.59639" lon="0.91593">
        <ele>224.7</ele>
        <time>2018-07-22T13:58:17Z</time>
      </trkpt>
      <trkpt lat="44.59644" lon="0.9159">
        <ele>224.9</ele>
        <time>2018-07-22T13:58:18Z</time>
      </trkpt>
      <trkpt lat="44.59648" lon="0.91587">
        <ele>224.8</ele>
        <time>2018-07-22T13:58:19Z</time>
      </trkpt>
      <trkpt lat="44.59653" lon="0.91585">
        <ele>224.9</ele>
        <time>2018-07-22T13:58:20Z</time>
      </trkpt>
      <trkpt lat="44.59656" lon="0.91583">
        <ele>225</ele>
        <time>2018-07-22T13:58:21Z</time>
      </trkpt>
      <trkpt lat="44.59659" lon="0.91582">
        <ele>225.2</ele>
        <time>2018-07-22T13:58:22Z</time>
      </trkpt>
      <trkpt lat="44.59664" lon="0.9158">
        <ele>225.3</ele>
        <time>2018-07-22T13:58:24Z</time>
      </trkpt>
      <trkpt lat="44.59668" lon="0.91578">
        <ele>225.4</ele>
        <time>2018-07-22T13:58:25Z</time>
      </trkpt>
      <trkpt lat="44.59673" lon="0.91576">
        <ele>225.4</ele>
        <time>2018-07-22T13:58:26Z</time>
      </trkpt>
      <trkpt lat="44.59678" lon="0.91575">
        <ele>225.6</ele>
        <time>2018-07-22T13:58:27Z</time>
      </trkpt>
      <trkpt lat="44.59683" lon="0.91573">
        <ele>225.9</ele>
        <time>2018-07-22T13:58:28Z</time>
      </trkpt>
      <trkpt lat="44.59686" lon="0.91572">
        <ele>225.9</ele>
        <time>2018-07-22T13:58:29Z</time>
      </trkpt>
      <trkpt lat="44.59689" lon="0.91571">
        <ele>225.9</ele>
        <time>2018-07-22T13:58:30Z</time>
      </trkpt>
      <trkpt lat="44.59694" lon="0.91568">
        <ele>225.9</ele>
        <time>2018-07-22T13:58:32Z</time>
      </trkpt>
      <trkpt lat="44.59696" lon="0.91565">
        <ele>225.9</ele>
        <time>2018-07-22T13:58:33Z</time>
      </trkpt>
      <trkpt lat="44.59699" lon="0.91561">
        <ele>225.9</ele>
        <time>2018-07-22T13:58:34Z</time>
      </trkpt>
      <trkpt lat="44.59701" lon="0.91556">
        <ele>225.9</ele>
        <time>2018-07-22T13:58:35Z</time>
      </trkpt>
      <trkpt lat="44.59702" lon="0.91551">
        <ele>225.9</ele>
        <time>2018-07-22T13:58:36Z</time>
      </trkpt>
      <trkpt lat="44.59704" lon="0.91544">
        <ele>225.9</ele>
        <time>2018-07-22T13:58:37Z</time>
      </trkpt>
      <trkpt lat="44.59705" lon="0.91538">
        <ele>225.9</ele>
        <time>2018-07-22T13:58:38Z</time>
      </trkpt>
      <trkpt lat="44.59706" lon="0.91531">
        <ele>225.9</ele>
        <time>2018-07-22T13:58:39Z</time>
      </trkpt>
      <trkpt lat="44.59707" lon="0.91521">
        <ele>225.9</ele>
        <time>2018-07-22T13:58:40Z</time>
      </trkpt>
      <trkpt lat="44.59708" lon="0.91514">
        <ele>225.9</ele>
        <time>2018-07-22T13:58:41Z</time>
      </trkpt>
      <trkpt lat="44.59709" lon="0.91508">
        <ele>225.9</ele>
        <time>2018-07-22T13:58:42Z</time>
      </trkpt>
      <trkpt lat="44.5971" lon="0.91501">
        <ele>225.9</ele>
        <time>2018-07-22T13:58:43Z</time>
      </trkpt>
      <trkpt lat="44.59711" lon="0.91495">
        <ele>225.9</ele>
        <time>2018-07-22T13:58:44Z</time>
      </trkpt>
      <trkpt lat="44.59712" lon="0.91488">
        <ele>226</ele>
        <time>2018-07-22T13:58:45Z</time>
      </trkpt>
      <trkpt lat="44.59713" lon="0.91481">
        <ele>226</ele>
        <time>2018-07-22T13:58:46Z</time>
      </trkpt>
      <trkpt lat="44.59714" lon="0.91473">
        <ele>226.1</ele>
        <time>2018-07-22T13:58:47Z</time>
      </trkpt>
      <trkpt lat="44.59716" lon="0.91466">
        <ele>226.3</ele>
        <time>2018-07-22T13:58:48Z</time>
      </trkpt>
      <trkpt lat="44.59717" lon="0.91458">
        <ele>226.5</ele>
        <time>2018-07-22T13:58:49Z</time>
      </trkpt>
      <trkpt lat="44.59719" lon="0.91451">
        <ele>226.6</ele>
        <time>2018-07-22T13:58:50Z</time>
      </trkpt>
      <trkpt lat="44.59719" lon="0.91444">
        <ele>226.8</ele>
        <time>2018-07-22T13:58:51Z</time>
      </trkpt>
      <trkpt lat="44.5972" lon="0.91437">
        <ele>227</ele>
        <time>2018-07-22T13:58:52Z</time>
      </trkpt>
      <trkpt lat="44.59722" lon="0.91429">
        <ele>227.1</ele>
        <time>2018-07-22T13:58:53Z</time>
      </trkpt>
      <trkpt lat="44.59721" lon="0.91422">
        <ele>227.2</ele>
        <time>2018-07-22T13:58:54Z</time>
      </trkpt>
      <trkpt lat="44.59722" lon="0.91416">
        <ele>227.3</ele>
        <time>2018-07-22T13:58:55Z</time>
      </trkpt>
      <trkpt lat="44.59723" lon="0.91409">
        <ele>227.4</ele>
        <time>2018-07-22T13:58:56Z</time>
      </trkpt>
      <trkpt lat="44.59723" lon="0.91402">
        <ele>227.4</ele>
        <time>2018-07-22T13:58:57Z</time>
      </trkpt>
      <trkpt lat="44.59724" lon="0.91396">
        <ele>227.5</ele>
        <time>2018-07-22T13:58:58Z</time>
      </trkpt>
      <trkpt lat="44.59726" lon="0.9139">
        <ele>227.6</ele>
        <time>2018-07-22T13:58:59Z</time>
      </trkpt>
      <trkpt lat="44.59725" lon="0.91384">
        <ele>227.8</ele>
        <time>2018-07-22T13:59:00Z</time>
      </trkpt>
      <trkpt lat="44.59726" lon="0.91377">
        <ele>228</ele>
        <time>2018-07-22T13:59:01Z</time>
      </trkpt>
      <trkpt lat="44.59727" lon="0.91371">
        <ele>228.1</ele>
        <time>2018-07-22T13:59:02Z</time>
      </trkpt>
      <trkpt lat="44.59727" lon="0.91366">
        <ele>228.3</ele>
        <time>2018-07-22T13:59:03Z</time>
      </trkpt>
      <trkpt lat="44.59728" lon="0.91361">
        <ele>228.4</ele>
        <time>2018-07-22T13:59:04Z</time>
      </trkpt>
      <trkpt lat="44.59729" lon="0.91357">
        <ele>228.4</ele>
        <time>2018-07-22T13:59:05Z</time>
      </trkpt>
      <trkpt lat="44.59729" lon="0.9135">
        <ele>228.5</ele>
        <time>2018-07-22T13:59:07Z</time>
      </trkpt>
      <trkpt lat="44.59733" lon="0.91345">
        <ele>228.5</ele>
        <time>2018-07-22T13:59:09Z</time>
      </trkpt>
      <trkpt lat="44.59733" lon="0.91341">
        <ele>228.5</ele>
        <time>2018-07-22T13:59:11Z</time>
      </trkpt>
      <trkpt lat="44.59735" lon="0.91337">
        <ele>228.5</ele>
        <time>2018-07-22T13:59:13Z</time>
      </trkpt>
      <trkpt lat="44.59736" lon="0.91333">
        <ele>228.5</ele>
        <time>2018-07-22T13:59:15Z</time>
      </trkpt>
      <trkpt lat="44.59736" lon="0.91326">
        <ele>228.6</ele>
        <time>2018-07-22T13:59:17Z</time>
      </trkpt>
      <trkpt lat="44.59737" lon="0.91318">
        <ele>228.6</ele>
        <time>2018-07-22T13:59:19Z</time>
      </trkpt>
      <trkpt lat="44.59738" lon="0.91314">
        <ele>228.6</ele>
        <time>2018-07-22T13:59:20Z</time>
      </trkpt>
      <trkpt lat="44.59738" lon="0.91309">
        <ele>228.6</ele>
        <time>2018-07-22T13:59:21Z</time>
      </trkpt>
      <trkpt lat="44.59739" lon="0.91304">
        <ele>228.6</ele>
        <time>2018-07-22T13:59:22Z</time>
      </trkpt>
      <trkpt lat="44.5974" lon="0.91299">
        <ele>228.5</ele>
        <time>2018-07-22T13:59:23Z</time>
      </trkpt>
      <trkpt lat="44.5974" lon="0.91294">
        <ele>228.5</ele>
        <time>2018-07-22T13:59:24Z</time>
      </trkpt>
      <trkpt lat="44.59741" lon="0.91289">
        <ele>228.4</ele>
        <time>2018-07-22T13:59:25Z</time>
      </trkpt>
      <trkpt lat="44.59741" lon="0.91284">
        <ele>228.3</ele>
        <time>2018-07-22T13:59:26Z</time>
      </trkpt>
      <trkpt lat="44.59742" lon="0.91278">
        <ele>228.1</ele>
        <time>2018-07-22T13:59:27Z</time>
      </trkpt>
      <trkpt lat="44.59743" lon="0.91272">
        <ele>227.9</ele>
        <time>2018-07-22T13:59:28Z</time>
      </trkpt>
      <trkpt lat="44.59743" lon="0.91267">
        <ele>227.6</ele>
        <time>2018-07-22T13:59:29Z</time>
      </trkpt>
      <trkpt lat="44.59744" lon="0.91261">
        <ele>227.3</ele>
        <time>2018-07-22T13:59:30Z</time>
      </trkpt>
      <trkpt lat="44.59745" lon="0.91255">
        <ele>227.1</ele>
        <time>2018-07-22T13:59:31Z</time>
      </trkpt>
      <trkpt lat="44.59747" lon="0.9125">
        <ele>227</ele>
        <time>2018-07-22T13:59:32Z</time>
      </trkpt>
      <trkpt lat="44.59748" lon="0.91245">
        <ele>226.8</ele>
        <time>2018-07-22T13:59:33Z</time>
      </trkpt>
      <trkpt lat="44.59749" lon="0.9124">
        <ele>226.7</ele>
        <time>2018-07-22T13:59:34Z</time>
      </trkpt>
      <trkpt lat="44.59751" lon="0.91235">
        <ele>226.5</ele>
        <time>2018-07-22T13:59:35Z</time>
      </trkpt>
      <trkpt lat="44.59752" lon="0.91229">
        <ele>226.2</ele>
        <time>2018-07-22T13:59:36Z</time>
      </trkpt>
      <trkpt lat="44.59753" lon="0.91224">
        <ele>225.9</ele>
        <time>2018-07-22T13:59:37Z</time>
      </trkpt>
      <trkpt lat="44.59755" lon="0.91218">
        <ele>225.6</ele>
        <time>2018-07-22T13:59:38Z</time>
      </trkpt>
      <trkpt lat="44.59756" lon="0.91212">
        <ele>225.2</ele>
        <time>2018-07-22T13:59:39Z</time>
      </trkpt>
      <trkpt lat="44.59759" lon="0.91206">
        <ele>225</ele>
        <time>2018-07-22T13:59:40Z</time>
      </trkpt>
      <trkpt lat="44.59761" lon="0.912">
        <ele>224.9</ele>
        <time>2018-07-22T13:59:41Z</time>
      </trkpt>
      <trkpt lat="44.59763" lon="0.91194">
        <ele>224.7</ele>
        <time>2018-07-22T13:59:42Z</time>
      </trkpt>
      <trkpt lat="44.59764" lon="0.91188">
        <ele>224.6</ele>
        <time>2018-07-22T13:59:43Z</time>
      </trkpt>
      <trkpt lat="44.59766" lon="0.91182">
        <ele>224.5</ele>
        <time>2018-07-22T13:59:44Z</time>
      </trkpt>
      <trkpt lat="44.59767" lon="0.91175">
        <ele>224.4</ele>
        <time>2018-07-22T13:59:45Z</time>
      </trkpt>
      <trkpt lat="44.59769" lon="0.91169">
        <ele>224.2</ele>
        <time>2018-07-22T13:59:46Z</time>
      </trkpt>
      <trkpt lat="44.59771" lon="0.91163">
        <ele>223.9</ele>
        <time>2018-07-22T13:59:47Z</time>
      </trkpt>
      <trkpt lat="44.59773" lon="0.91156">
        <ele>223.4</ele>
        <time>2018-07-22T13:59:48Z</time>
      </trkpt>
      <trkpt lat="44.59776" lon="0.9115">
        <ele>222.9</ele>
        <time>2018-07-22T13:59:49Z</time>
      </trkpt>
      <trkpt lat="44.59778" lon="0.91143">
        <ele>222.3</ele>
        <time>2018-07-22T13:59:50Z</time>
      </trkpt>
      <trkpt lat="44.59783" lon="0.91136">
        <ele>221.7</ele>
        <time>2018-07-22T13:59:51Z</time>
      </trkpt>
      <trkpt lat="44.59787" lon="0.91129">
        <ele>221.1</ele>
        <time>2018-07-22T13:59:52Z</time>
      </trkpt>
      <trkpt lat="44.59792" lon="0.9112">
        <ele>220.5</ele>
        <time>2018-07-22T13:59:53Z</time>
      </trkpt>
      <trkpt lat="44.59797" lon="0.9111">
        <ele>219.8</ele>
        <time>2018-07-22T13:59:54Z</time>
      </trkpt>
      <trkpt lat="44.59802" lon="0.91099">
        <ele>219</ele>
        <time>2018-07-22T13:59:55Z</time>
      </trkpt>
      <trkpt lat="44.59807" lon="0.91087">
        <ele>218.2</ele>
        <time>2018-07-22T13:59:56Z</time>
      </trkpt>
      <trkpt lat="44.59812" lon="0.91075">
        <ele>217.4</ele>
        <time>2018-07-22T13:59:57Z</time>
      </trkpt>
      <trkpt lat="44.59818" lon="0.91061">
        <ele>216.5</ele>
        <time>2018-07-22T13:59:58Z</time>
      </trkpt>
      <trkpt lat="44.59824" lon="0.91048">
        <ele>215.6</ele>
        <time>2018-07-22T13:59:59Z</time>
      </trkpt>
      <trkpt lat="44.59832" lon="0.91036">
        <ele>214.6</ele>
        <time>2018-07-22T14:00:00Z</time>
      </trkpt>
      <trkpt lat="44.59839" lon="0.91023">
        <ele>213.6</ele>
        <time>2018-07-22T14:00:01Z</time>
      </trkpt>
      <trkpt lat="44.59848" lon="0.91012">
        <ele>212.6</ele>
        <time>2018-07-22T14:00:02Z</time>
      </trkpt>
      <trkpt lat="44.59858" lon="0.91001">
        <ele>211.6</ele>
        <time>2018-07-22T14:00:03Z</time>
      </trkpt>
      <trkpt lat="44.59868" lon="0.9099">
        <ele>210.6</ele>
        <time>2018-07-22T14:00:04Z</time>
      </trkpt>
      <trkpt lat="44.59878" lon="0.90979">
        <ele>209.5</ele>
        <time>2018-07-22T14:00:05Z</time>
      </trkpt>
      <trkpt lat="44.59888" lon="0.90968">
        <ele>208.4</ele>
        <time>2018-07-22T14:00:06Z</time>
      </trkpt>
      <trkpt lat="44.59898" lon="0.90957">
        <ele>207.3</ele>
        <time>2018-07-22T14:00:07Z</time>
      </trkpt>
      <trkpt lat="44.59907" lon="0.90945">
        <ele>206.3</ele>
        <time>2018-07-22T14:00:08Z</time>
      </trkpt>
      <trkpt lat="44.59915" lon="0.90936">
        <ele>205.3</ele>
        <time>2018-07-22T14:00:09Z</time>
      </trkpt>
      <trkpt lat="44.59922" lon="0.90925">
        <ele>204.4</ele>
        <time>2018-07-22T14:00:10Z</time>
      </trkpt>
      <trkpt lat="44.59927" lon="0.90915">
        <ele>204</ele>
        <time>2018-07-22T14:00:11Z</time>
      </trkpt>
      <trkpt lat="44.59932" lon="0.90903">
        <ele>203.6</ele>
        <time>2018-07-22T14:00:12Z</time>
      </trkpt>
      <trkpt lat="44.59935" lon="0.90893">
        <ele>202.9</ele>
        <time>2018-07-22T14:00:13Z</time>
      </trkpt>
      <trkpt lat="44.59938" lon="0.9088">
        <ele>202.3</ele>
        <time>2018-07-22T14:00:14Z</time>
      </trkpt>
      <trkpt lat="44.59941" lon="0.90866">
        <ele>201.9</ele>
        <time>2018-07-22T14:00:15Z</time>
      </trkpt>
      <trkpt lat="44.59944" lon="0.90851">
        <ele>201.1</ele>
        <time>2018-07-22T14:00:16Z</time>
      </trkpt>
      <trkpt lat="44.59946" lon="0.90838">
        <ele>200.2</ele>
        <time>2018-07-22T14:00:17Z</time>
      </trkpt>
      <trkpt lat="44.5995" lon="0.90821">
        <ele>199</ele>
        <time>2018-07-22T14:00:18Z</time>
      </trkpt>
      <trkpt lat="44.59952" lon="0.90806">
        <ele>198.1</ele>
        <time>2018-07-22T14:00:19Z</time>
      </trkpt>
      <trkpt lat="44.59954" lon="0.90793">
        <ele>197.4</ele>
        <time>2018-07-22T14:00:20Z</time>
      </trkpt>
      <trkpt lat="44.59955" lon="0.90779">
        <ele>196.1</ele>
        <time>2018-07-22T14:00:21Z</time>
      </trkpt>
      <trkpt lat="44.59958" lon="0.90764">
        <ele>195.1</ele>
        <time>2018-07-22T14:00:22Z</time>
      </trkpt>
      <trkpt lat="44.59959" lon="0.90751">
        <ele>194.4</ele>
        <time>2018-07-22T14:00:23Z</time>
      </trkpt>
      <trkpt lat="44.5996" lon="0.90738">
        <ele>193.9</ele>
        <time>2018-07-22T14:00:24Z</time>
      </trkpt>
      <trkpt lat="44.59963" lon="0.90725">
        <ele>193.4</ele>
        <time>2018-07-22T14:00:25Z</time>
      </trkpt>
      <trkpt lat="44.59965" lon="0.90713">
        <ele>193</ele>
        <time>2018-07-22T14:00:26Z</time>
      </trkpt>
      <trkpt lat="44.59967" lon="0.90702">
        <ele>192.6</ele>
        <time>2018-07-22T14:00:27Z</time>
      </trkpt>
      <trkpt lat="44.5997" lon="0.90693">
        <ele>192.1</ele>
        <time>2018-07-22T14:00:28Z</time>
      </trkpt>
      <trkpt lat="44.59972" lon="0.90685">
        <ele>192</ele>
        <time>2018-07-22T14:00:29Z</time>
      </trkpt>
      <trkpt lat="44.59975" lon="0.90677">
        <ele>191.5</ele>
        <time>2018-07-22T14:00:30Z</time>
      </trkpt>
      <trkpt lat="44.59978" lon="0.90671">
        <ele>190.9</ele>
        <time>2018-07-22T14:00:31Z</time>
      </trkpt>
      <trkpt lat="44.59984" lon="0.90663">
        <ele>190.1</ele>
        <time>2018-07-22T14:00:32Z</time>
      </trkpt>
      <trkpt lat="44.59986" lon="0.90657">
        <ele>189.7</ele>
        <time>2018-07-22T14:00:33Z</time>
      </trkpt>
      <trkpt lat="44.59991" lon="0.90647">
        <ele>189</ele>
        <time>2018-07-22T14:00:34Z</time>
      </trkpt>
      <trkpt lat="44.59994" lon="0.90639">
        <ele>188.7</ele>
        <time>2018-07-22T14:00:35Z</time>
      </trkpt>
      <trkpt lat="44.59998" lon="0.90629">
        <ele>188</ele>
        <time>2018-07-22T14:00:36Z</time>
      </trkpt>
      <trkpt lat="44.60001" lon="0.90622">
        <ele>187.6</ele>
        <time>2018-07-22T14:00:37Z</time>
      </trkpt>
      <trkpt lat="44.60002" lon="0.90612">
        <ele>187.2</ele>
        <time>2018-07-22T14:00:38Z</time>
      </trkpt>
      <trkpt lat="44.6" lon="0.90604">
        <ele>186.9</ele>
        <time>2018-07-22T14:00:39Z</time>
      </trkpt>
      <trkpt lat="44.6" lon="0.90595">
        <ele>186.5</ele>
        <time>2018-07-22T14:00:40Z</time>
      </trkpt>
      <trkpt lat="44.6" lon="0.90584">
        <ele>185.9</ele>
        <time>2018-07-22T14:00:41Z</time>
      </trkpt>
      <trkpt lat="44.6" lon="0.90572">
        <ele>185.3</ele>
        <time>2018-07-22T14:00:42Z</time>
      </trkpt>
      <trkpt lat="44.60002" lon="0.90558">
        <ele>184.5</ele>
        <time>2018-07-22T14:00:43Z</time>
      </trkpt>
      <trkpt lat="44.60003" lon="0.90543">
        <ele>183.7</ele>
        <time>2018-07-22T14:00:44Z</time>
      </trkpt>
      <trkpt lat="44.60002" lon="0.90529">
        <ele>182.8</ele>
        <time>2018-07-22T14:00:45Z</time>
      </trkpt>
      <trkpt lat="44.60001" lon="0.90515">
        <ele>182</ele>
        <time>2018-07-22T14:00:46Z</time>
      </trkpt>
      <trkpt lat="44.60001" lon="0.905">
        <ele>181.1</ele>
        <time>2018-07-22T14:00:47Z</time>
      </trkpt>
      <trkpt lat="44.6" lon="0.90484">
        <ele>180.3</ele>
        <time>2018-07-22T14:00:48Z</time>
      </trkpt>
      <trkpt lat="44.6" lon="0.90469">
        <ele>179.6</ele>
        <time>2018-07-22T14:00:49Z</time>
      </trkpt>
      <trkpt lat="44.59999" lon="0.90454">
        <ele>179</ele>
        <time>2018-07-22T14:00:50Z</time>
      </trkpt>
      <trkpt lat="44.59998" lon="0.9044">
        <ele>178.7</ele>
        <time>2018-07-22T14:00:51Z</time>
      </trkpt>
      <trkpt lat="44.59996" lon="0.90426">
        <ele>178.3</ele>
        <time>2018-07-22T14:00:52Z</time>
      </trkpt>
      <trkpt lat="44.59995" lon="0.90413">
        <ele>177.9</ele>
        <time>2018-07-22T14:00:53Z</time>
      </trkpt>
      <trkpt lat="44.59994" lon="0.904">
        <ele>177.6</ele>
        <time>2018-07-22T14:00:54Z</time>
      </trkpt>
      <trkpt lat="44.59994" lon="0.90386">
        <ele>177.3</ele>
        <time>2018-07-22T14:00:55Z</time>
      </trkpt>
      <trkpt lat="44.59993" lon="0.90373">
        <ele>177</ele>
        <time>2018-07-22T14:00:56Z</time>
      </trkpt>
      <trkpt lat="44.59992" lon="0.90362">
        <ele>176.8</ele>
        <time>2018-07-22T14:00:57Z</time>
      </trkpt>
      <trkpt lat="44.59991" lon="0.9035">
        <ele>176.5</ele>
        <time>2018-07-22T14:00:58Z</time>
      </trkpt>
      <trkpt lat="44.59989" lon="0.9034">
        <ele>176.2</ele>
        <time>2018-07-22T14:00:59Z</time>
      </trkpt>
      <trkpt lat="44.59988" lon="0.90329">
        <ele>175.9</ele>
        <time>2018-07-22T14:01:00Z</time>
      </trkpt>
      <trkpt lat="44.59987" lon="0.90318">
        <ele>175.5</ele>
        <time>2018-07-22T14:01:01Z</time>
      </trkpt>
      <trkpt lat="44.59987" lon="0.90308">
        <ele>175.2</ele>
        <time>2018-07-22T14:01:02Z</time>
      </trkpt>
      <trkpt lat="44.59988" lon="0.90295">
        <ele>174.8</ele>
        <time>2018-07-22T14:01:03Z</time>
      </trkpt>
      <trkpt lat="44.59988" lon="0.90283">
        <ele>174.4</ele>
        <time>2018-07-22T14:01:04Z</time>
      </trkpt>
      <trkpt lat="44.59989" lon="0.90271">
        <ele>174.1</ele>
        <time>2018-07-22T14:01:05Z</time>
      </trkpt>
      <trkpt lat="44.59987" lon="0.90259">
        <ele>173.6</ele>
        <time>2018-07-22T14:01:06Z</time>
      </trkpt>
      <trkpt lat="44.59984" lon="0.90246">
        <ele>173.2</ele>
        <time>2018-07-22T14:01:07Z</time>
      </trkpt>
      <trkpt lat="44.5998" lon="0.90234">
        <ele>172.6</ele>
        <time>2018-07-22T14:01:08Z</time>
      </trkpt>
      <trkpt lat="44.59976" lon="0.90221">
        <ele>172.1</ele>
        <time>2018-07-22T14:01:09Z</time>
      </trkpt>
      <trkpt lat="44.59971" lon="0.9021">
        <ele>171.5</ele>
        <time>2018-07-22T14:01:10Z</time>
      </trkpt>
      <trkpt lat="44.59968" lon="0.90196">
        <ele>170.9</ele>
        <time>2018-07-22T14:01:11Z</time>
      </trkpt>
      <trkpt lat="44.59963" lon="0.90183">
        <ele>170.3</ele>
        <time>2018-07-22T14:01:12Z</time>
      </trkpt>
      <trkpt lat="44.5996" lon="0.90169">
        <ele>169.6</ele>
        <time>2018-07-22T14:01:13Z</time>
      </trkpt>
      <trkpt lat="44.59957" lon="0.90156">
        <ele>168.9</ele>
        <time>2018-07-22T14:01:14Z</time>
      </trkpt>
      <trkpt lat="44.59954" lon="0.90143">
        <ele>168.2</ele>
        <time>2018-07-22T14:01:15Z</time>
      </trkpt>
      <trkpt lat="44.59951" lon="0.90131">
        <ele>167.5</ele>
        <time>2018-07-22T14:01:16Z</time>
      </trkpt>
      <trkpt lat="44.59952" lon="0.90117">
        <ele>166.7</ele>
        <time>2018-07-22T14:01:17Z</time>
      </trkpt>
      <trkpt lat="44.59954" lon="0.90107">
        <ele>166</ele>
        <time>2018-07-22T14:01:18Z</time>
      </trkpt>
      <trkpt lat="44.59956" lon="0.90096">
        <ele>165.2</ele>
        <time>2018-07-22T14:01:19Z</time>
      </trkpt>
      <trkpt lat="44.59965" lon="0.90088">
        <ele>164.1</ele>
        <time>2018-07-22T14:01:20Z</time>
      </trkpt>
      <trkpt lat="44.5997" lon="0.90078">
        <ele>163.2</ele>
        <time>2018-07-22T14:01:21Z</time>
      </trkpt>
      <trkpt lat="44.59975" lon="0.90067">
        <ele>162.2</ele>
        <time>2018-07-22T14:01:22Z</time>
      </trkpt>
      <trkpt lat="44.59979" lon="0.90055">
        <ele>161.3</ele>
        <time>2018-07-22T14:01:23Z</time>
      </trkpt>
      <trkpt lat="44.59983" lon="0.90044">
        <ele>161</ele>
        <time>2018-07-22T14:01:24Z</time>
      </trkpt>
      <trkpt lat="44.59988" lon="0.9003">
        <ele>161.1</ele>
        <time>2018-07-22T14:01:25Z</time>
      </trkpt>
      <trkpt lat="44.59992" lon="0.90019">
        <ele>161.1</ele>
        <time>2018-07-22T14:01:26Z</time>
      </trkpt>
      <trkpt lat="44.59995" lon="0.90006">
        <ele>161.1</ele>
        <time>2018-07-22T14:01:27Z</time>
      </trkpt>
      <trkpt lat="44.59998" lon="0.89995">
        <ele>161.1</ele>
        <time>2018-07-22T14:01:28Z</time>
      </trkpt>
      <trkpt lat="44.60002" lon="0.89984">
        <ele>161.2</ele>
        <time>2018-07-22T14:01:29Z</time>
      </trkpt>
      <trkpt lat="44.60005" lon="0.89973">
        <ele>161.3</ele>
        <time>2018-07-22T14:01:30Z</time>
      </trkpt>
      <trkpt lat="44.60009" lon="0.89962">
        <ele>161.4</ele>
        <time>2018-07-22T14:01:31Z</time>
      </trkpt>
      <trkpt lat="44.60011" lon="0.8995">
        <ele>161.6</ele>
        <time>2018-07-22T14:01:32Z</time>
      </trkpt>
      <trkpt lat="44.60014" lon="0.89938">
        <ele>161.7</ele>
        <time>2018-07-22T14:01:33Z</time>
      </trkpt>
      <trkpt lat="44.60015" lon="0.89927">
        <ele>161.8</ele>
        <time>2018-07-22T14:01:34Z</time>
      </trkpt>
      <trkpt lat="44.60016" lon="0.89915">
        <ele>162</ele>
        <time>2018-07-22T14:01:35Z</time>
      </trkpt>
      <trkpt lat="44.60015" lon="0.89904">
        <ele>162.1</ele>
        <time>2018-07-22T14:01:36Z</time>
      </trkpt>
      <trkpt lat="44.60013" lon="0.89892">
        <ele>162.3</ele>
        <time>2018-07-22T14:01:37Z</time>
      </trkpt>
      <trkpt lat="44.60011" lon="0.89881">
        <ele>162.6</ele>
        <time>2018-07-22T14:01:38Z</time>
      </trkpt>
      <trkpt lat="44.60009" lon="0.8987">
        <ele>162.8</ele>
        <time>2018-07-22T14:01:39Z</time>
      </trkpt>
      <trkpt lat="44.60009" lon="0.8986">
        <ele>163</ele>
        <time>2018-07-22T14:01:40Z</time>
      </trkpt>
      <trkpt lat="44.60012" lon="0.8985">
        <ele>163.2</ele>
        <time>2018-07-22T14:01:41Z</time>
      </trkpt>
      <trkpt lat="44.60015" lon="0.89841">
        <ele>163.3</ele>
        <time>2018-07-22T14:01:42Z</time>
      </trkpt>
      <trkpt lat="44.60018" lon="0.89832">
        <ele>163.5</ele>
        <time>2018-07-22T14:01:43Z</time>
      </trkpt>
      <trkpt lat="44.6002" lon="0.89825">
        <ele>163.7</ele>
        <time>2018-07-22T14:01:44Z</time>
      </trkpt>
      <trkpt lat="44.60021" lon="0.89818">
        <ele>164</ele>
        <time>2018-07-22T14:01:45Z</time>
      </trkpt>
      <trkpt lat="44.60022" lon="0.89812">
        <ele>164.4</ele>
        <time>2018-07-22T14:01:46Z</time>
      </trkpt>
      <trkpt lat="44.60023" lon="0.89806">
        <ele>164.8</ele>
        <time>2018-07-22T14:01:47Z</time>
      </trkpt>
      <trkpt lat="44.60024" lon="0.89801">
        <ele>165.2</ele>
        <time>2018-07-22T14:01:48Z</time>
      </trkpt>
      <trkpt lat="44.60024" lon="0.89797">
        <ele>165.6</ele>
        <time>2018-07-22T14:01:49Z</time>
      </trkpt>
      <trkpt lat="44.60023" lon="0.8979">
        <ele>166.1</ele>
        <time>2018-07-22T14:01:51Z</time>
      </trkpt>
      <trkpt lat="44.60024" lon="0.89786">
        <ele>166.4</ele>
        <time>2018-07-22T14:01:52Z</time>
      </trkpt>
      <trkpt lat="44.60026" lon="0.89781">
        <ele>166.8</ele>
        <time>2018-07-22T14:01:53Z</time>
      </trkpt>
      <trkpt lat="44.60026" lon="0.89774">
        <ele>167.4</ele>
        <time>2018-07-22T14:01:55Z</time>
      </trkpt>
      <trkpt lat="44.60027" lon="0.8977">
        <ele>167.8</ele>
        <time>2018-07-22T14:01:57Z</time>
      </trkpt>
      <trkpt lat="44.60031" lon="0.89768">
        <ele>168</ele>
        <time>2018-07-22T14:02:00Z</time>
      </trkpt>
      <trkpt lat="44.60037" lon="0.89769">
        <ele>168</ele>
        <time>2018-07-22T14:02:02Z</time>
      </trkpt>
      <trkpt lat="44.60042" lon="0.8977">
        <ele>168</ele>
        <time>2018-07-22T14:02:03Z</time>
      </trkpt>
      <trkpt lat="44.60046" lon="0.8977">
        <ele>168</ele>
        <time>2018-07-22T14:02:04Z</time>
      </trkpt>
      <trkpt lat="44.60051" lon="0.8977">
        <ele>168</ele>
        <time>2018-07-22T14:02:05Z</time>
      </trkpt>
      <trkpt lat="44.60056" lon="0.8977">
        <ele>168.1</ele>
        <time>2018-07-22T14:02:06Z</time>
      </trkpt>
      <trkpt lat="44.60061" lon="0.8977">
        <ele>168.1</ele>
        <time>2018-07-22T14:02:07Z</time>
      </trkpt>
      <trkpt lat="44.6007" lon="0.89767">
        <ele>168.2</ele>
        <time>2018-07-22T14:02:08Z</time>
      </trkpt>
      <trkpt lat="44.60075" lon="0.89767">
        <ele>168.3</ele>
        <time>2018-07-22T14:02:09Z</time>
      </trkpt>
      <trkpt lat="44.60083" lon="0.89765">
        <ele>168.4</ele>
        <time>2018-07-22T14:02:10Z</time>
      </trkpt>
      <trkpt lat="44.60088" lon="0.89764">
        <ele>168.5</ele>
        <time>2018-07-22T14:02:11Z</time>
      </trkpt>
      <trkpt lat="44.60095" lon="0.89764">
        <ele>168.6</ele>
        <time>2018-07-22T14:02:12Z</time>
      </trkpt>
      <trkpt lat="44.60099" lon="0.89762">
        <ele>168.8</ele>
        <time>2018-07-22T14:02:13Z</time>
      </trkpt>
      <trkpt lat="44.60104" lon="0.89763">
        <ele>168.9</ele>
        <time>2018-07-22T14:02:14Z</time>
      </trkpt>
      <trkpt lat="44.60107" lon="0.89765">
        <ele>169</ele>
        <time>2018-07-22T14:02:15Z</time>
      </trkpt>
      <trkpt lat="44.60111" lon="0.89767">
        <ele>169.1</ele>
        <time>2018-07-22T14:02:16Z</time>
      </trkpt>
      <trkpt lat="44.60114" lon="0.89769">
        <ele>169.2</ele>
        <time>2018-07-22T14:02:17Z</time>
      </trkpt>
      <trkpt lat="44.60116" lon="0.89774">
        <ele>169</ele>
        <time>2018-07-22T14:02:18Z</time>
      </trkpt>
      <trkpt lat="44.60121" lon="0.89776">
        <ele>168.5</ele>
        <time>2018-07-22T14:02:19Z</time>
      </trkpt>
      <trkpt lat="44.60125" lon="0.89779">
        <ele>168.2</ele>
        <time>2018-07-22T14:02:20Z</time>
      </trkpt>
      <trkpt lat="44.60126" lon="0.89784">
        <ele>168</ele>
        <time>2018-07-22T14:02:21Z</time>
      </trkpt>
      <trkpt lat="44.6013" lon="0.89787">
        <ele>167.9</ele>
        <time>2018-07-22T14:02:22Z</time>
      </trkpt>
      <trkpt lat="44.60132" lon="0.89791">
        <ele>167.7</ele>
        <time>2018-07-22T14:02:23Z</time>
      </trkpt>
      <trkpt lat="44.60138" lon="0.89796">
        <ele>167.5</ele>
        <time>2018-07-22T14:02:24Z</time>
      </trkpt>
      <trkpt lat="44.6014" lon="0.89804">
        <ele>167.4</ele>
        <time>2018-07-22T14:02:25Z</time>
      </trkpt>
      <trkpt lat="44.60141" lon="0.8981">
        <ele>167.3</ele>
        <time>2018-07-22T14:02:26Z</time>
      </trkpt>
      <trkpt lat="44.60141" lon="0.89815">
        <ele>167.2</ele>
        <time>2018-07-22T14:02:27Z</time>
      </trkpt>
      <trkpt lat="44.60142" lon="0.89819">
        <ele>167.1</ele>
        <time>2018-07-22T14:02:28Z</time>
      </trkpt>
      <trkpt lat="44.60147" lon="0.89823">
        <ele>167.1</ele>
        <time>2018-07-22T14:02:29Z</time>
      </trkpt>
      <trkpt lat="44.60149" lon="0.89826">
        <ele>167</ele>
        <time>2018-07-22T14:02:30Z</time>
      </trkpt>
      <trkpt lat="44.60153" lon="0.89828">
        <ele>167</ele>
        <time>2018-07-22T14:02:31Z</time>
      </trkpt>
      <trkpt lat="44.60157" lon="0.89827">
        <ele>167</ele>
        <time>2018-07-22T14:02:32Z</time>
      </trkpt>
      <trkpt lat="44.60163" lon="0.89825">
        <ele>166.8</ele>
        <time>2018-07-22T14:02:34Z</time>
      </trkpt>
      <trkpt lat="44.60167" lon="0.89823">
        <ele>166.7</ele>
        <time>2018-07-22T14:02:35Z</time>
      </trkpt>
      <trkpt lat="44.60171" lon="0.89821">
        <ele>166.6</ele>
        <time>2018-07-22T14:02:36Z</time>
      </trkpt>
      <trkpt lat="44.60176" lon="0.89822">
        <ele>166.6</ele>
        <time>2018-07-22T14:02:37Z</time>
      </trkpt>
      <trkpt lat="44.60182" lon="0.89823">
        <ele>166.5</ele>
        <time>2018-07-22T14:02:39Z</time>
      </trkpt>
      <trkpt lat="44.60186" lon="0.89826">
        <ele>166.4</ele>
        <time>2018-07-22T14:02:40Z</time>
      </trkpt>
      <trkpt lat="44.60189" lon="0.89828">
        <ele>166.4</ele>
        <time>2018-07-22T14:02:41Z</time>
      </trkpt>
      <trkpt lat="44.60193" lon="0.89831">
        <ele>166.4</ele>
        <time>2018-07-22T14:02:42Z</time>
      </trkpt>
      <trkpt lat="44.60196" lon="0.89833">
        <ele>166.2</ele>
        <time>2018-07-22T14:02:43Z</time>
      </trkpt>
      <trkpt lat="44.60199" lon="0.89834">
        <ele>166.1</ele>
        <time>2018-07-22T14:02:44Z</time>
      </trkpt>
      <trkpt lat="44.60206" lon="0.89831">
        <ele>165.9</ele>
        <time>2018-07-22T14:02:46Z</time>
      </trkpt>
      <trkpt lat="44.60209" lon="0.89829">
        <ele>165.7</ele>
        <time>2018-07-22T14:02:47Z</time>
      </trkpt>
      <trkpt lat="44.60212" lon="0.89826">
        <ele>165.6</ele>
        <time>2018-07-22T14:02:48Z</time>
      </trkpt>
      <trkpt lat="44.60214" lon="0.89822">
        <ele>165.5</ele>
        <time>2018-07-22T14:02:49Z</time>
      </trkpt>
      <trkpt lat="44.60217" lon="0.89819">
        <ele>165.4</ele>
        <time>2018-07-22T14:02:50Z</time>
      </trkpt>
      <trkpt lat="44.60219" lon="0.89815">
        <ele>165.4</ele>
        <time>2018-07-22T14:02:51Z</time>
      </trkpt>
      <trkpt lat="44.60221" lon="0.89812">
        <ele>165.3</ele>
        <time>2018-07-22T14:02:52Z</time>
      </trkpt>
      <trkpt lat="44.60224" lon="0.89809">
        <ele>165.2</ele>
        <time>2018-07-22T14:02:53Z</time>
      </trkpt>
      <trkpt lat="44.60226" lon="0.89806">
        <ele>165.2</ele>
        <time>2018-07-22T14:02:54Z</time>
      </trkpt>
      <trkpt lat="44.60228" lon="0.89803">
        <ele>165.1</ele>
        <time>2018-07-22T14:02:55Z</time>
      </trkpt>
      <trkpt lat="44.60231" lon="0.898">
        <ele>165</ele>
        <time>2018-07-22T14:02:56Z</time>
      </trkpt>
      <trkpt lat="44.60233" lon="0.89797">
        <ele>165</ele>
        <time>2018-07-22T14:02:57Z</time>
      </trkpt>
      <trkpt lat="44.60235" lon="0.89794">
        <ele>164.9</ele>
        <time>2018-07-22T14:02:58Z</time>
      </trkpt>
      <trkpt lat="44.60237" lon="0.8979">
        <ele>164.9</ele>
        <time>2018-07-22T14:02:59Z</time>
      </trkpt>
      <trkpt lat="44.6024" lon="0.89787">
        <ele>164.9</ele>
        <time>2018-07-22T14:03:00Z</time>
      </trkpt>
      <trkpt lat="44.60242" lon="0.89784">
        <ele>164.9</ele>
        <time>2018-07-22T14:03:01Z</time>
      </trkpt>
      <trkpt lat="44.60245" lon="0.89781">
        <ele>164.9</ele>
        <time>2018-07-22T14:03:02Z</time>
      </trkpt>
      <trkpt lat="44.60247" lon="0.89778">
        <ele>164.9</ele>
        <time>2018-07-22T14:03:03Z</time>
      </trkpt>
      <trkpt lat="44.60249" lon="0.89775">
        <ele>164.9</ele>
        <time>2018-07-22T14:03:04Z</time>
      </trkpt>
      <trkpt lat="44.60252" lon="0.89772">
        <ele>165</ele>
        <time>2018-07-22T14:03:05Z</time>
      </trkpt>
      <trkpt lat="44.60254" lon="0.8977">
        <ele>165</ele>
        <time>2018-07-22T14:03:06Z</time>
      </trkpt>
      <trkpt lat="44.60257" lon="0.89765">
        <ele>165</ele>
        <time>2018-07-22T14:03:08Z</time>
      </trkpt>
      <trkpt lat="44.60259" lon="0.89762">
        <ele>165</ele>
        <time>2018-07-22T14:03:10Z</time>
      </trkpt>
      <trkpt lat="44.60257" lon="0.89757">
        <ele>165.9</ele>
        <time>2018-07-22T14:03:12Z</time>
      </trkpt>
      <trkpt lat="44.60253" lon="0.89752">
        <ele>167.2</ele>
        <time>2018-07-22T14:03:14Z</time>
      </trkpt>
      <trkpt lat="44.6025" lon="0.89749">
        <ele>167.9</ele>
        <time>2018-07-22T14:03:15Z</time>
      </trkpt>
      <trkpt lat="44.60248" lon="0.89746">
        <ele>168.6</ele>
        <time>2018-07-22T14:03:16Z</time>
      </trkpt>
      <trkpt lat="44.60246" lon="0.89742">
        <ele>169.4</ele>
        <time>2018-07-22T14:03:17Z</time>
      </trkpt>
      <trkpt lat="44.60244" lon="0.89738">
        <ele>170.2</ele>
        <time>2018-07-22T14:03:18Z</time>
      </trkpt>
      <trkpt lat="44.60243" lon="0.89733">
        <ele>170.9</ele>
        <time>2018-07-22T14:03:19Z</time>
      </trkpt>
      <trkpt lat="44.60242" lon="0.89729">
        <ele>171</ele>
        <time>2018-07-22T14:03:20Z</time>
      </trkpt>
      <trkpt lat="44.60242" lon="0.89724">
        <ele>171</ele>
        <time>2018-07-22T14:03:21Z</time>
      </trkpt>
      <trkpt lat="44.60243" lon="0.89719">
        <ele>171</ele>
        <time>2018-07-22T14:03:22Z</time>
      </trkpt>
      <trkpt lat="44.60244" lon="0.89714">
        <ele>171.1</ele>
        <time>2018-07-22T14:03:23Z</time>
      </trkpt>
      <trkpt lat="44.60245" lon="0.89709">
        <ele>171.2</ele>
        <time>2018-07-22T14:03:24Z</time>
      </trkpt>
      <trkpt lat="44.60246" lon="0.89704">
        <ele>171.3</ele>
        <time>2018-07-22T14:03:25Z</time>
      </trkpt>
      <trkpt lat="44.60246" lon="0.89698">
        <ele>171.4</ele>
        <time>2018-07-22T14:03:26Z</time>
      </trkpt>
      <trkpt lat="44.60247" lon="0.89693">
        <ele>171.5</ele>
        <time>2018-07-22T14:03:27Z</time>
      </trkpt>
      <trkpt lat="44.60247" lon="0.89687">
        <ele>171.7</ele>
        <time>2018-07-22T14:03:28Z</time>
      </trkpt>
      <trkpt lat="44.60247" lon="0.89682">
        <ele>171.9</ele>
        <time>2018-07-22T14:03:29Z</time>
      </trkpt>
      <trkpt lat="44.60247" lon="0.89677">
        <ele>172</ele>
        <time>2018-07-22T14:03:30Z</time>
      </trkpt>
      <trkpt lat="44.60247" lon="0.89672">
        <ele>172.1</ele>
        <time>2018-07-22T14:03:31Z</time>
      </trkpt>
      <trkpt lat="44.60248" lon="0.89667">
        <ele>172.3</ele>
        <time>2018-07-22T14:03:32Z</time>
      </trkpt>
      <trkpt lat="44.60248" lon="0.89662">
        <ele>172.6</ele>
        <time>2018-07-22T14:03:33Z</time>
      </trkpt>
      <trkpt lat="44.60249" lon="0.89657">
        <ele>172.9</ele>
        <time>2018-07-22T14:03:34Z</time>
      </trkpt>
      <trkpt lat="44.6025" lon="0.89652">
        <ele>173.2</ele>
        <time>2018-07-22T14:03:35Z</time>
      </trkpt>
      <trkpt lat="44.60251" lon="0.89648">
        <ele>173.5</ele>
        <time>2018-07-22T14:03:36Z</time>
      </trkpt>
      <trkpt lat="44.60252" lon="0.89643">
        <ele>173.6</ele>
        <time>2018-07-22T14:03:37Z</time>
      </trkpt>
      <trkpt lat="44.60253" lon="0.89639">
        <ele>173.6</ele>
        <time>2018-07-22T14:03:38Z</time>
      </trkpt>
      <trkpt lat="44.60254" lon="0.89634">
        <ele>173.7</ele>
        <time>2018-07-22T14:03:39Z</time>
      </trkpt>
      <trkpt lat="44.60255" lon="0.89629">
        <ele>173.9</ele>
        <time>2018-07-22T14:03:40Z</time>
      </trkpt>
      <trkpt lat="44.60256" lon="0.89624">
        <ele>174</ele>
        <time>2018-07-22T14:03:41Z</time>
      </trkpt>
      <trkpt lat="44.60257" lon="0.89619">
        <ele>174.2</ele>
        <time>2018-07-22T14:03:42Z</time>
      </trkpt>
      <trkpt lat="44.60257" lon="0.89614">
        <ele>174.3</ele>
        <time>2018-07-22T14:03:43Z</time>
      </trkpt>
      <trkpt lat="44.60257" lon="0.89608">
        <ele>174.2</ele>
        <time>2018-07-22T14:03:44Z</time>
      </trkpt>
      <trkpt lat="44.60256" lon="0.89603">
        <ele>174.2</ele>
        <time>2018-07-22T14:03:45Z</time>
      </trkpt>
      <trkpt lat="44.60256" lon="0.89598">
        <ele>174.3</ele>
        <time>2018-07-22T14:03:46Z</time>
      </trkpt>
      <trkpt lat="44.60256" lon="0.89594">
        <ele>174.4</ele>
        <time>2018-07-22T14:03:47Z</time>
      </trkpt>
      <trkpt lat="44.60255" lon="0.89589">
        <ele>174.6</ele>
        <time>2018-07-22T14:03:48Z</time>
      </trkpt>
      <trkpt lat="44.60255" lon="0.89584">
        <ele>174.7</ele>
        <time>2018-07-22T14:03:49Z</time>
      </trkpt>
      <trkpt lat="44.60255" lon="0.89578">
        <ele>174.8</ele>
        <time>2018-07-22T14:03:50Z</time>
      </trkpt>
      <trkpt lat="44.60255" lon="0.89573">
        <ele>175</ele>
        <time>2018-07-22T14:03:51Z</time>
      </trkpt>
      <trkpt lat="44.60254" lon="0.89567">
        <ele>175.2</ele>
        <time>2018-07-22T14:03:52Z</time>
      </trkpt>
      <trkpt lat="44.60254" lon="0.89562">
        <ele>175.4</ele>
        <time>2018-07-22T14:03:53Z</time>
      </trkpt>
      <trkpt lat="44.60253" lon="0.89556">
        <ele>175.5</ele>
        <time>2018-07-22T14:03:54Z</time>
      </trkpt>
      <trkpt lat="44.60253" lon="0.8955">
        <ele>175.6</ele>
        <time>2018-07-22T14:03:55Z</time>
      </trkpt>
      <trkpt lat="44.60253" lon="0.89544">
        <ele>175.6</ele>
        <time>2018-07-22T14:03:56Z</time>
      </trkpt>
      <trkpt lat="44.60253" lon="0.89538">
        <ele>175.7</ele>
        <time>2018-07-22T14:03:57Z</time>
      </trkpt>
      <trkpt lat="44.60253" lon="0.89532">
        <ele>175.7</ele>
        <time>2018-07-22T14:03:58Z</time>
      </trkpt>
      <trkpt lat="44.60253" lon="0.89526">
        <ele>175.5</ele>
        <time>2018-07-22T14:03:59Z</time>
      </trkpt>
      <trkpt lat="44.60253" lon="0.8952">
        <ele>175.4</ele>
        <time>2018-07-22T14:04:00Z</time>
      </trkpt>
      <trkpt lat="44.60253" lon="0.89514">
        <ele>175.5</ele>
        <time>2018-07-22T14:04:01Z</time>
      </trkpt>
      <trkpt lat="44.60254" lon="0.89509">
        <ele>175.6</ele>
        <time>2018-07-22T14:04:02Z</time>
      </trkpt>
      <trkpt lat="44.60254" lon="0.89503">
        <ele>175.8</ele>
        <time>2018-07-22T14:04:03Z</time>
      </trkpt>
      <trkpt lat="44.60254" lon="0.89497">
        <ele>176</ele>
        <time>2018-07-22T14:04:04Z</time>
      </trkpt>
      <trkpt lat="44.60253" lon="0.89492">
        <ele>176.3</ele>
        <time>2018-07-22T14:04:05Z</time>
      </trkpt>
      <trkpt lat="44.60253" lon="0.89486">
        <ele>176.7</ele>
        <time>2018-07-22T14:04:06Z</time>
      </trkpt>
      <trkpt lat="44.60251" lon="0.8948">
        <ele>176.8</ele>
        <time>2018-07-22T14:04:07Z</time>
      </trkpt>
      <trkpt lat="44.6025" lon="0.89475">
        <ele>177</ele>
        <time>2018-07-22T14:04:08Z</time>
      </trkpt>
      <trkpt lat="44.60248" lon="0.89469">
        <ele>177.1</ele>
        <time>2018-07-22T14:04:09Z</time>
      </trkpt>
      <trkpt lat="44.60246" lon="0.89464">
        <ele>177.1</ele>
        <time>2018-07-22T14:04:10Z</time>
      </trkpt>
      <trkpt lat="44.60244" lon="0.8946">
        <ele>177.2</ele>
        <time>2018-07-22T14:04:11Z</time>
      </trkpt>
      <trkpt lat="44.60242" lon="0.89455">
        <ele>177.2</ele>
        <time>2018-07-22T14:04:12Z</time>
      </trkpt>
      <trkpt lat="44.60239" lon="0.89451">
        <ele>177.1</ele>
        <time>2018-07-22T14:04:13Z</time>
      </trkpt>
      <trkpt lat="44.60236" lon="0.89447">
        <ele>176.9</ele>
        <time>2018-07-22T14:04:14Z</time>
      </trkpt>
      <trkpt lat="44.60233" lon="0.89442">
        <ele>176.8</ele>
        <time>2018-07-22T14:04:15Z</time>
      </trkpt>
      <trkpt lat="44.60231" lon="0.89437">
        <ele>176.6</ele>
        <time>2018-07-22T14:04:16Z</time>
      </trkpt>
      <trkpt lat="44.60228" lon="0.89433">
        <ele>176.5</ele>
        <time>2018-07-22T14:04:17Z</time>
      </trkpt>
      <trkpt lat="44.60225" lon="0.89428">
        <ele>176.4</ele>
        <time>2018-07-22T14:04:18Z</time>
      </trkpt>
      <trkpt lat="44.60222" lon="0.89424">
        <ele>176.5</ele>
        <time>2018-07-22T14:04:19Z</time>
      </trkpt>
      <trkpt lat="44.60219" lon="0.89417">
        <ele>176.5</ele>
        <time>2018-07-22T14:04:20Z</time>
      </trkpt>
      <trkpt lat="44.60217" lon="0.89412">
        <ele>176.5</ele>
        <time>2018-07-22T14:04:21Z</time>
      </trkpt>
      <trkpt lat="44.60214" lon="0.89406">
        <ele>176.6</ele>
        <time>2018-07-22T14:04:22Z</time>
      </trkpt>
      <trkpt lat="44.60211" lon="0.89401">
        <ele>176.6</ele>
        <time>2018-07-22T14:04:23Z</time>
      </trkpt>
      <trkpt lat="44.60209" lon="0.89395">
        <ele>176.6</ele>
        <time>2018-07-22T14:04:24Z</time>
      </trkpt>
      <trkpt lat="44.60205" lon="0.8939">
        <ele>176.6</ele>
        <time>2018-07-22T14:04:25Z</time>
      </trkpt>
      <trkpt lat="44.60204" lon="0.89383">
        <ele>176.7</ele>
        <time>2018-07-22T14:04:26Z</time>
      </trkpt>
      <trkpt lat="44.602" lon="0.89377">
        <ele>176.8</ele>
        <time>2018-07-22T14:04:27Z</time>
      </trkpt>
      <trkpt lat="44.60198" lon="0.8937">
        <ele>177</ele>
        <time>2018-07-22T14:04:28Z</time>
      </trkpt>
      <trkpt lat="44.60196" lon="0.89365">
        <ele>177</ele>
        <time>2018-07-22T14:04:29Z</time>
      </trkpt>
      <trkpt lat="44.60193" lon="0.8936">
        <ele>177.1</ele>
        <time>2018-07-22T14:04:30Z</time>
      </trkpt>
      <trkpt lat="44.60191" lon="0.89355">
        <ele>177.1</ele>
        <time>2018-07-22T14:04:31Z</time>
      </trkpt>
      <trkpt lat="44.60188" lon="0.8935">
        <ele>177</ele>
        <time>2018-07-22T14:04:32Z</time>
      </trkpt>
      <trkpt lat="44.60185" lon="0.89346">
        <ele>177</ele>
        <time>2018-07-22T14:04:33Z</time>
      </trkpt>
      <trkpt lat="44.6018" lon="0.89341">
        <ele>177</ele>
        <time>2018-07-22T14:04:34Z</time>
      </trkpt>
      <trkpt lat="44.60179" lon="0.89334">
        <ele>176.9</ele>
        <time>2018-07-22T14:04:35Z</time>
      </trkpt>
      <trkpt lat="44.60176" lon="0.8933">
        <ele>176.9</ele>
        <time>2018-07-22T14:04:36Z</time>
      </trkpt>
      <trkpt lat="44.60174" lon="0.89325">
        <ele>176.8</ele>
        <time>2018-07-22T14:04:37Z</time>
      </trkpt>
      <trkpt lat="44.60172" lon="0.89319">
        <ele>176.7</ele>
        <time>2018-07-22T14:04:38Z</time>
      </trkpt>
      <trkpt lat="44.60169" lon="0.89314">
        <ele>176.6</ele>
        <time>2018-07-22T14:04:39Z</time>
      </trkpt>
      <trkpt lat="44.6017" lon="0.89307">
        <ele>176.5</ele>
        <time>2018-07-22T14:04:40Z</time>
      </trkpt>
      <trkpt lat="44.60168" lon="0.89302">
        <ele>176.4</ele>
        <time>2018-07-22T14:04:41Z</time>
      </trkpt>
      <trkpt lat="44.60168" lon="0.89298">
        <ele>176.3</ele>
        <time>2018-07-22T14:04:42Z</time>
      </trkpt>
      <trkpt lat="44.60167" lon="0.89293">
        <ele>176.2</ele>
        <time>2018-07-22T14:04:43Z</time>
      </trkpt>
      <trkpt lat="44.6017" lon="0.89289">
        <ele>176.2</ele>
        <time>2018-07-22T14:04:44Z</time>
      </trkpt>
      <trkpt lat="44.60173" lon="0.89285">
        <ele>176.1</ele>
        <time>2018-07-22T14:04:45Z</time>
      </trkpt>
      <trkpt lat="44.60177" lon="0.89281">
        <ele>176.2</ele>
        <time>2018-07-22T14:04:46Z</time>
      </trkpt>
      <trkpt lat="44.6018" lon="0.89277">
        <ele>176.1</ele>
        <time>2018-07-22T14:04:47Z</time>
      </trkpt>
      <trkpt lat="44.60183" lon="0.89274">
        <ele>176</ele>
        <time>2018-07-22T14:04:48Z</time>
      </trkpt>
      <trkpt lat="44.60186" lon="0.89271">
        <ele>175.9</ele>
        <time>2018-07-22T14:04:49Z</time>
      </trkpt>
      <trkpt lat="44.6019" lon="0.89268">
        <ele>176</ele>
        <time>2018-07-22T14:04:50Z</time>
      </trkpt>
      <trkpt lat="44.60193" lon="0.89266">
        <ele>175.9</ele>
        <time>2018-07-22T14:04:51Z</time>
      </trkpt>
      <trkpt lat="44.60196" lon="0.89264">
        <ele>175.9</ele>
        <time>2018-07-22T14:04:52Z</time>
      </trkpt>
      <trkpt lat="44.60199" lon="0.89262">
        <ele>175.8</ele>
        <time>2018-07-22T14:04:53Z</time>
      </trkpt>
      <trkpt lat="44.60202" lon="0.8926">
        <ele>175.8</ele>
        <time>2018-07-22T14:04:54Z</time>
      </trkpt>
      <trkpt lat="44.60205" lon="0.89258">
        <ele>175.7</ele>
        <time>2018-07-22T14:04:55Z</time>
      </trkpt>
      <trkpt lat="44.60208" lon="0.89255">
        <ele>175.7</ele>
        <time>2018-07-22T14:04:56Z</time>
      </trkpt>
      <trkpt lat="44.6021" lon="0.89253">
        <ele>175.7</ele>
        <time>2018-07-22T14:04:57Z</time>
      </trkpt>
      <trkpt lat="44.60213" lon="0.89251">
        <ele>175.8</ele>
        <time>2018-07-22T14:04:58Z</time>
      </trkpt>
      <trkpt lat="44.60216" lon="0.8925">
        <ele>175.8</ele>
        <time>2018-07-22T14:04:59Z</time>
      </trkpt>
      <trkpt lat="44.60221" lon="0.89247">
        <ele>175.9</ele>
        <time>2018-07-22T14:05:01Z</time>
      </trkpt>
      <trkpt lat="44.60224" lon="0.89246">
        <ele>175.9</ele>
        <time>2018-07-22T14:05:02Z</time>
      </trkpt>
      <trkpt lat="44.60227" lon="0.89244">
        <ele>175.9</ele>
        <time>2018-07-22T14:05:03Z</time>
      </trkpt>
      <trkpt lat="44.60231" lon="0.89243">
        <ele>175.9</ele>
        <time>2018-07-22T14:05:04Z</time>
      </trkpt>
      <trkpt lat="44.60234" lon="0.89242">
        <ele>175.9</ele>
        <time>2018-07-22T14:05:05Z</time>
      </trkpt>
      <trkpt lat="44.60238" lon="0.89241">
        <ele>175.9</ele>
        <time>2018-07-22T14:05:06Z</time>
      </trkpt>
      <trkpt lat="44.60242" lon="0.8924">
        <ele>176</ele>
        <time>2018-07-22T14:05:07Z</time>
      </trkpt>
      <trkpt lat="44.60245" lon="0.89239">
        <ele>176.1</ele>
        <time>2018-07-22T14:05:08Z</time>
      </trkpt>
      <trkpt lat="44.60249" lon="0.89237">
        <ele>176</ele>
        <time>2018-07-22T14:05:09Z</time>
      </trkpt>
      <trkpt lat="44.60253" lon="0.89236">
        <ele>176</ele>
        <time>2018-07-22T14:05:10Z</time>
      </trkpt>
      <trkpt lat="44.60257" lon="0.89234">
        <ele>176.1</ele>
        <time>2018-07-22T14:05:11Z</time>
      </trkpt>
      <trkpt lat="44.60261" lon="0.89233">
        <ele>176</ele>
        <time>2018-07-22T14:05:12Z</time>
      </trkpt>
      <trkpt lat="44.60265" lon="0.89231">
        <ele>176</ele>
        <time>2018-07-22T14:05:13Z</time>
      </trkpt>
      <trkpt lat="44.60269" lon="0.89229">
        <ele>175.9</ele>
        <time>2018-07-22T14:05:14Z</time>
      </trkpt>
      <trkpt lat="44.60273" lon="0.89227">
        <ele>176</ele>
        <time>2018-07-22T14:05:15Z</time>
      </trkpt>
      <trkpt lat="44.60277" lon="0.89225">
        <ele>175.9</ele>
        <time>2018-07-22T14:05:16Z</time>
      </trkpt>
      <trkpt lat="44.60281" lon="0.89223">
        <ele>176</ele>
        <time>2018-07-22T14:05:17Z</time>
      </trkpt>
      <trkpt lat="44.60284" lon="0.89221">
        <ele>175.9</ele>
        <time>2018-07-22T14:05:18Z</time>
      </trkpt>
      <trkpt lat="44.60288" lon="0.89218">
        <ele>176</ele>
        <time>2018-07-22T14:05:19Z</time>
      </trkpt>
      <trkpt lat="44.60291" lon="0.89215">
        <ele>175.8</ele>
        <time>2018-07-22T14:05:20Z</time>
      </trkpt>
      <trkpt lat="44.60294" lon="0.89211">
        <ele>175.7</ele>
        <time>2018-07-22T14:05:21Z</time>
      </trkpt>
      <trkpt lat="44.60297" lon="0.89207">
        <ele>175.6</ele>
        <time>2018-07-22T14:05:22Z</time>
      </trkpt>
      <trkpt lat="44.60299" lon="0.89203">
        <ele>175.5</ele>
        <time>2018-07-22T14:05:23Z</time>
      </trkpt>
      <trkpt lat="44.60302" lon="0.89199">
        <ele>175.4</ele>
        <time>2018-07-22T14:05:24Z</time>
      </trkpt>
      <trkpt lat="44.60304" lon="0.89195">
        <ele>175.4</ele>
        <time>2018-07-22T14:05:25Z</time>
      </trkpt>
      <trkpt lat="44.60307" lon="0.8919">
        <ele>175.4</ele>
        <time>2018-07-22T14:05:26Z</time>
      </trkpt>
      <trkpt lat="44.60309" lon="0.89185">
        <ele>175.4</ele>
        <time>2018-07-22T14:05:27Z</time>
      </trkpt>
      <trkpt lat="44.60312" lon="0.8918">
        <ele>175.4</ele>
        <time>2018-07-22T14:05:28Z</time>
      </trkpt>
      <trkpt lat="44.60314" lon="0.89175">
        <ele>175.5</ele>
        <time>2018-07-22T14:05:29Z</time>
      </trkpt>
      <trkpt lat="44.60317" lon="0.89171">
        <ele>175.7</ele>
        <time>2018-07-22T14:05:30Z</time>
      </trkpt>
      <trkpt lat="44.6032" lon="0.89167">
        <ele>175.9</ele>
        <time>2018-07-22T14:05:31Z</time>
      </trkpt>
      <trkpt lat="44.60323" lon="0.89163">
        <ele>176</ele>
        <time>2018-07-22T14:05:32Z</time>
      </trkpt>
      <trkpt lat="44.60326" lon="0.89159">
        <ele>176.3</ele>
        <time>2018-07-22T14:05:33Z</time>
      </trkpt>
      <trkpt lat="44.60329" lon="0.89156">
        <ele>176.5</ele>
        <time>2018-07-22T14:05:34Z</time>
      </trkpt>
      <trkpt lat="44.60332" lon="0.89154">
        <ele>176.6</ele>
        <time>2018-07-22T14:05:35Z</time>
      </trkpt>
      <trkpt lat="44.60335" lon="0.89152">
        <ele>176.8</ele>
        <time>2018-07-22T14:05:36Z</time>
      </trkpt>
      <trkpt lat="44.60338" lon="0.8915">
        <ele>176.9</ele>
        <time>2018-07-22T14:05:37Z</time>
      </trkpt>
      <trkpt lat="44.60341" lon="0.89148">
        <ele>176.9</ele>
        <time>2018-07-22T14:05:38Z</time>
      </trkpt>
      <trkpt lat="44.60344" lon="0.89146">
        <ele>177.1</ele>
        <time>2018-07-22T14:05:39Z</time>
      </trkpt>
      <trkpt lat="44.60347" lon="0.89144">
        <ele>177.2</ele>
        <time>2018-07-22T14:05:40Z</time>
      </trkpt>
      <trkpt lat="44.6035" lon="0.89142">
        <ele>177.4</ele>
        <time>2018-07-22T14:05:41Z</time>
      </trkpt>
      <trkpt lat="44.60352" lon="0.8914">
        <ele>177.4</ele>
        <time>2018-07-22T14:05:42Z</time>
      </trkpt>
      <trkpt lat="44.60355" lon="0.89138">
        <ele>177.7</ele>
        <time>2018-07-22T14:05:43Z</time>
      </trkpt>
      <trkpt lat="44.6036" lon="0.89134">
        <ele>177.9</ele>
        <time>2018-07-22T14:05:45Z</time>
      </trkpt>
      <trkpt lat="44.60364" lon="0.89132">
        <ele>177.9</ele>
        <time>2018-07-22T14:05:47Z</time>
      </trkpt>
      <trkpt lat="44.60369" lon="0.89128">
        <ele>178.3</ele>
        <time>2018-07-22T14:05:49Z</time>
      </trkpt>
      <trkpt lat="44.60372" lon="0.89126">
        <ele>178.5</ele>
        <time>2018-07-22T14:05:50Z</time>
      </trkpt>
      <trkpt lat="44.60376" lon="0.89124">
        <ele>178.6</ele>
        <time>2018-07-22T14:05:51Z</time>
      </trkpt>
      <trkpt lat="44.60379" lon="0.89122">
        <ele>178.8</ele>
        <time>2018-07-22T14:05:52Z</time>
      </trkpt>
      <trkpt lat="44.60382" lon="0.8912">
        <ele>178.9</ele>
        <time>2018-07-22T14:05:53Z</time>
      </trkpt>
      <trkpt lat="44.60386" lon="0.89118">
        <ele>179.1</ele>
        <time>2018-07-22T14:05:54Z</time>
      </trkpt>
      <trkpt lat="44.60389" lon="0.89116">
        <ele>179.2</ele>
        <time>2018-07-22T14:05:55Z</time>
      </trkpt>
      <trkpt lat="44.60393" lon="0.89114">
        <ele>179.2</ele>
        <time>2018-07-22T14:05:56Z</time>
      </trkpt>
      <trkpt lat="44.60396" lon="0.89112">
        <ele>179.4</ele>
        <time>2018-07-22T14:05:57Z</time>
      </trkpt>
      <trkpt lat="44.604" lon="0.8911">
        <ele>179.5</ele>
        <time>2018-07-22T14:05:58Z</time>
      </trkpt>
      <trkpt lat="44.60404" lon="0.89108">
        <ele>179.6</ele>
        <time>2018-07-22T14:05:59Z</time>
      </trkpt>
      <trkpt lat="44.60407" lon="0.89106">
        <ele>179.7</ele>
        <time>2018-07-22T14:06:00Z</time>
      </trkpt>
      <trkpt lat="44.6041" lon="0.89103">
        <ele>179.8</ele>
        <time>2018-07-22T14:06:01Z</time>
      </trkpt>
      <trkpt lat="44.60414" lon="0.89101">
        <ele>179.8</ele>
        <time>2018-07-22T14:06:02Z</time>
      </trkpt>
      <trkpt lat="44.60417" lon="0.89099">
        <ele>179.9</ele>
        <time>2018-07-22T14:06:03Z</time>
      </trkpt>
      <trkpt lat="44.6042" lon="0.89096">
        <ele>180</ele>
        <time>2018-07-22T14:06:04Z</time>
      </trkpt>
      <trkpt lat="44.60423" lon="0.89094">
        <ele>180</ele>
        <time>2018-07-22T14:06:05Z</time>
      </trkpt>
      <trkpt lat="44.60427" lon="0.89091">
        <ele>180.1</ele>
        <time>2018-07-22T14:06:06Z</time>
      </trkpt>
      <trkpt lat="44.60431" lon="0.89088">
        <ele>180.2</ele>
        <time>2018-07-22T14:06:07Z</time>
      </trkpt>
      <trkpt lat="44.60434" lon="0.89086">
        <ele>180.2</ele>
        <time>2018-07-22T14:06:08Z</time>
      </trkpt>
      <trkpt lat="44.60437" lon="0.89084">
        <ele>180.2</ele>
        <time>2018-07-22T14:06:09Z</time>
      </trkpt>
      <trkpt lat="44.60441" lon="0.89082">
        <ele>180.3</ele>
        <time>2018-07-22T14:06:10Z</time>
      </trkpt>
      <trkpt lat="44.60444" lon="0.89079">
        <ele>180.4</ele>
        <time>2018-07-22T14:06:11Z</time>
      </trkpt>
      <trkpt lat="44.60447" lon="0.89077">
        <ele>180.4</ele>
        <time>2018-07-22T14:06:12Z</time>
      </trkpt>
      <trkpt lat="44.6045" lon="0.89075">
        <ele>180.5</ele>
        <time>2018-07-22T14:06:13Z</time>
      </trkpt>
      <trkpt lat="44.60452" lon="0.89073">
        <ele>180.5</ele>
        <time>2018-07-22T14:06:14Z</time>
      </trkpt>
      <trkpt lat="44.60455" lon="0.89071">
        <ele>180.5</ele>
        <time>2018-07-22T14:06:15Z</time>
      </trkpt>
      <trkpt lat="44.60457" lon="0.8907">
        <ele>180.6</ele>
        <time>2018-07-22T14:06:16Z</time>
      </trkpt>
      <trkpt lat="44.6046" lon="0.89068">
        <ele>180.6</ele>
        <time>2018-07-22T14:06:17Z</time>
      </trkpt>
      <trkpt lat="44.60463" lon="0.89067">
        <ele>180.6</ele>
        <time>2018-07-22T14:06:18Z</time>
      </trkpt>
      <trkpt lat="44.60466" lon="0.89066">
        <ele>180.7</ele>
        <time>2018-07-22T14:06:19Z</time>
      </trkpt>
      <trkpt lat="44.60469" lon="0.89065">
        <ele>180.7</ele>
        <time>2018-07-22T14:06:20Z</time>
      </trkpt>
      <trkpt lat="44.60472" lon="0.89064">
        <ele>180.7</ele>
        <time>2018-07-22T14:06:21Z</time>
      </trkpt>
      <trkpt lat="44.60476" lon="0.89062">
        <ele>180.8</ele>
        <time>2018-07-22T14:06:22Z</time>
      </trkpt>
      <trkpt lat="44.60479" lon="0.89061">
        <ele>180.8</ele>
        <time>2018-07-22T14:06:23Z</time>
      </trkpt>
      <trkpt lat="44.60482" lon="0.89059">
        <ele>180.8</ele>
        <time>2018-07-22T14:06:24Z</time>
      </trkpt>
      <trkpt lat="44.60485" lon="0.89057">
        <ele>180.9</ele>
        <time>2018-07-22T14:06:25Z</time>
      </trkpt>
      <trkpt lat="44.60489" lon="0.89055">
        <ele>180.9</ele>
        <time>2018-07-22T14:06:26Z</time>
      </trkpt>
      <trkpt lat="44.60493" lon="0.89053">
        <ele>181</ele>
        <time>2018-07-22T14:06:27Z</time>
      </trkpt>
      <trkpt lat="44.60497" lon="0.8905">
        <ele>181</ele>
        <time>2018-07-22T14:06:28Z</time>
      </trkpt>
      <trkpt lat="44.60501" lon="0.89048">
        <ele>181.1</ele>
        <time>2018-07-22T14:06:29Z</time>
      </trkpt>
      <trkpt lat="44.60505" lon="0.89045">
        <ele>181.1</ele>
        <time>2018-07-22T14:06:30Z</time>
      </trkpt>
      <trkpt lat="44.6051" lon="0.89042">
        <ele>181.2</ele>
        <time>2018-07-22T14:06:31Z</time>
      </trkpt>
      <trkpt lat="44.60513" lon="0.89039">
        <ele>181.3</ele>
        <time>2018-07-22T14:06:32Z</time>
      </trkpt>
      <trkpt lat="44.60517" lon="0.89037">
        <ele>181.3</ele>
        <time>2018-07-22T14:06:33Z</time>
      </trkpt>
      <trkpt lat="44.60522" lon="0.89031">
        <ele>181.5</ele>
        <time>2018-07-22T14:06:35Z</time>
      </trkpt>
      <trkpt lat="44.60526" lon="0.89026">
        <ele>181.7</ele>
        <time>2018-07-22T14:06:36Z</time>
      </trkpt>
      <trkpt lat="44.6053" lon="0.89023">
        <ele>181.8</ele>
        <time>2018-07-22T14:06:37Z</time>
      </trkpt>
      <trkpt lat="44.60537" lon="0.8902">
        <ele>181.9</ele>
        <time>2018-07-22T14:06:38Z</time>
      </trkpt>
      <trkpt lat="44.60542" lon="0.89018">
        <ele>182</ele>
        <time>2018-07-22T14:06:39Z</time>
      </trkpt>
      <trkpt lat="44.60547" lon="0.89015">
        <ele>182.2</ele>
        <time>2018-07-22T14:06:40Z</time>
      </trkpt>
      <trkpt lat="44.60551" lon="0.89013">
        <ele>182.2</ele>
        <time>2018-07-22T14:06:41Z</time>
      </trkpt>
      <trkpt lat="44.60557" lon="0.89009">
        <ele>182.4</ele>
        <time>2018-07-22T14:06:42Z</time>
      </trkpt>
      <trkpt lat="44.60564" lon="0.89006">
        <ele>182.5</ele>
        <time>2018-07-22T14:06:43Z</time>
      </trkpt>
      <trkpt lat="44.60567" lon="0.89005">
        <ele>182.6</ele>
        <time>2018-07-22T14:06:44Z</time>
      </trkpt>
      <trkpt lat="44.60571" lon="0.89003">
        <ele>182.6</ele>
        <time>2018-07-22T14:06:45Z</time>
      </trkpt>
      <trkpt lat="44.60577" lon="0.89002">
        <ele>182.9</ele>
        <time>2018-07-22T14:06:46Z</time>
      </trkpt>
      <trkpt lat="44.60581" lon="0.89">
        <ele>183.1</ele>
        <time>2018-07-22T14:06:47Z</time>
      </trkpt>
      <trkpt lat="44.60584" lon="0.88999">
        <ele>183.3</ele>
        <time>2018-07-22T14:06:48Z</time>
      </trkpt>
      <trkpt lat="44.60588" lon="0.88998">
        <ele>183.4</ele>
        <time>2018-07-22T14:06:49Z</time>
      </trkpt>
      <trkpt lat="44.60593" lon="0.88999">
        <ele>183.7</ele>
        <time>2018-07-22T14:06:51Z</time>
      </trkpt>
      <trkpt lat="44.60597" lon="0.88999">
        <ele>183.8</ele>
        <time>2018-07-22T14:06:52Z</time>
      </trkpt>
      <trkpt lat="44.606" lon="0.88998">
        <ele>184</ele>
        <time>2018-07-22T14:06:53Z</time>
      </trkpt>
      <trkpt lat="44.60605" lon="0.88996">
        <ele>184.1</ele>
        <time>2018-07-22T14:06:54Z</time>
      </trkpt>
      <trkpt lat="44.6061" lon="0.88994">
        <ele>184.1</ele>
        <time>2018-07-22T14:06:55Z</time>
      </trkpt>
      <trkpt lat="44.60613" lon="0.88993">
        <ele>184.3</ele>
        <time>2018-07-22T14:06:56Z</time>
      </trkpt>
      <trkpt lat="44.60618" lon="0.88992">
        <ele>184.4</ele>
        <time>2018-07-22T14:06:57Z</time>
      </trkpt>
      <trkpt lat="44.60622" lon="0.88991">
        <ele>184.4</ele>
        <time>2018-07-22T14:06:58Z</time>
      </trkpt>
      <trkpt lat="44.60627" lon="0.88989">
        <ele>184.7</ele>
        <time>2018-07-22T14:06:59Z</time>
      </trkpt>
      <trkpt lat="44.60632" lon="0.88986">
        <ele>184.7</ele>
        <time>2018-07-22T14:07:00Z</time>
      </trkpt>
      <trkpt lat="44.60636" lon="0.88984">
        <ele>185.1</ele>
        <time>2018-07-22T14:07:01Z</time>
      </trkpt>
      <trkpt lat="44.60641" lon="0.88981">
        <ele>185.2</ele>
        <time>2018-07-22T14:07:02Z</time>
      </trkpt>
      <trkpt lat="44.60652" lon="0.88979">
        <ele>185.7</ele>
        <time>2018-07-22T14:07:03Z</time>
      </trkpt>
      <trkpt lat="44.60657" lon="0.88978">
        <ele>185.8</ele>
        <time>2018-07-22T14:07:04Z</time>
      </trkpt>
      <trkpt lat="44.60663" lon="0.88975">
        <ele>186.1</ele>
        <time>2018-07-22T14:07:05Z</time>
      </trkpt>
      <trkpt lat="44.60666" lon="0.88975">
        <ele>186.2</ele>
        <time>2018-07-22T14:07:06Z</time>
      </trkpt>
      <trkpt lat="44.60672" lon="0.88972">
        <ele>186.4</ele>
        <time>2018-07-22T14:07:08Z</time>
      </trkpt>
      <trkpt lat="44.60678" lon="0.88971">
        <ele>186.5</ele>
        <time>2018-07-22T14:07:10Z</time>
      </trkpt>
      <trkpt lat="44.60681" lon="0.8897">
        <ele>186.5</ele>
        <time>2018-07-22T14:07:11Z</time>
      </trkpt>
      <trkpt lat="44.60685" lon="0.88969">
        <ele>186.6</ele>
        <time>2018-07-22T14:07:12Z</time>
      </trkpt>
      <trkpt lat="44.60689" lon="0.88968">
        <ele>186.6</ele>
        <time>2018-07-22T14:07:13Z</time>
      </trkpt>
      <trkpt lat="44.60698" lon="0.88964">
        <ele>186.7</ele>
        <time>2018-07-22T14:07:15Z</time>
      </trkpt>
      <trkpt lat="44.60704" lon="0.88963">
        <ele>186.8</ele>
        <time>2018-07-22T14:07:16Z</time>
      </trkpt>
      <trkpt lat="44.60709" lon="0.8896">
        <ele>186.8</ele>
        <time>2018-07-22T14:07:17Z</time>
      </trkpt>
      <trkpt lat="44.60713" lon="0.88957">
        <ele>186.8</ele>
        <time>2018-07-22T14:07:18Z</time>
      </trkpt>
      <trkpt lat="44.6072" lon="0.88954">
        <ele>186.8</ele>
        <time>2018-07-22T14:07:20Z</time>
      </trkpt>
      <trkpt lat="44.60726" lon="0.88953">
        <ele>186.9</ele>
        <time>2018-07-22T14:07:21Z</time>
      </trkpt>
      <trkpt lat="44.60733" lon="0.88951">
        <ele>186.9</ele>
        <time>2018-07-22T14:07:22Z</time>
      </trkpt>
      <trkpt lat="44.6074" lon="0.88947">
        <ele>187</ele>
        <time>2018-07-22T14:07:23Z</time>
      </trkpt>
      <trkpt lat="44.60744" lon="0.88947">
        <ele>187</ele>
        <time>2018-07-22T14:07:24Z</time>
      </trkpt>
      <trkpt lat="44.60752" lon="0.88943">
        <ele>187.1</ele>
        <time>2018-07-22T14:07:25Z</time>
      </trkpt>
      <trkpt lat="44.60756" lon="0.8894">
        <ele>187.2</ele>
        <time>2018-07-22T14:07:26Z</time>
      </trkpt>
      <trkpt lat="44.60761" lon="0.88932">
        <ele>187.2</ele>
        <time>2018-07-22T14:07:27Z</time>
      </trkpt>
      <trkpt lat="44.60765" lon="0.88926">
        <ele>187.4</ele>
        <time>2018-07-22T14:07:28Z</time>
      </trkpt>
      <trkpt lat="44.6077" lon="0.88922">
        <ele>187.5</ele>
        <time>2018-07-22T14:07:29Z</time>
      </trkpt>
      <trkpt lat="44.60774" lon="0.88918">
        <ele>187.6</ele>
        <time>2018-07-22T14:07:30Z</time>
      </trkpt>
      <trkpt lat="44.60779" lon="0.8892">
        <ele>187.7</ele>
        <time>2018-07-22T14:07:31Z</time>
      </trkpt>
      <trkpt lat="44.60784" lon="0.88919">
        <ele>187.9</ele>
        <time>2018-07-22T14:07:32Z</time>
      </trkpt>
      <trkpt lat="44.60788" lon="0.88916">
        <ele>187.9</ele>
        <time>2018-07-22T14:07:33Z</time>
      </trkpt>
      <trkpt lat="44.60793" lon="0.88913">
        <ele>188.1</ele>
        <time>2018-07-22T14:07:34Z</time>
      </trkpt>
      <trkpt lat="44.60803" lon="0.88907">
        <ele>188.2</ele>
        <time>2018-07-22T14:07:35Z</time>
      </trkpt>
      <trkpt lat="44.60812" lon="0.88898">
        <ele>188.3</ele>
        <time>2018-07-22T14:07:36Z</time>
      </trkpt>
      <trkpt lat="44.60823" lon="0.8889">
        <ele>188.2</ele>
        <time>2018-07-22T14:07:37Z</time>
      </trkpt>
      <trkpt lat="44.60829" lon="0.88887">
        <ele>188.1</ele>
        <time>2018-07-22T14:07:38Z</time>
      </trkpt>
      <trkpt lat="44.60837" lon="0.88884">
        <ele>188</ele>
        <time>2018-07-22T14:07:39Z</time>
      </trkpt>
      <trkpt lat="44.6084" lon="0.88883">
        <ele>187.9</ele>
        <time>2018-07-22T14:07:40Z</time>
      </trkpt>
      <trkpt lat="44.60845" lon="0.8888">
        <ele>187.7</ele>
        <time>2018-07-22T14:07:41Z</time>
      </trkpt>
      <trkpt lat="44.60852" lon="0.88875">
        <ele>187.5</ele>
        <time>2018-07-22T14:07:42Z</time>
      </trkpt>
      <trkpt lat="44.60857" lon="0.8887">
        <ele>187.2</ele>
        <time>2018-07-22T14:07:43Z</time>
      </trkpt>
      <trkpt lat="44.60863" lon="0.88866">
        <ele>187</ele>
        <time>2018-07-22T14:07:44Z</time>
      </trkpt>
      <trkpt lat="44.60867" lon="0.88863">
        <ele>186.9</ele>
        <time>2018-07-22T14:07:45Z</time>
      </trkpt>
      <trkpt lat="44.6087" lon="0.88859">
        <ele>186.8</ele>
        <time>2018-07-22T14:07:46Z</time>
      </trkpt>
      <trkpt lat="44.60874" lon="0.88859">
        <ele>186.7</ele>
        <time>2018-07-22T14:07:47Z</time>
      </trkpt>
      <trkpt lat="44.60878" lon="0.88855">
        <ele>186.6</ele>
        <time>2018-07-22T14:07:48Z</time>
      </trkpt>
      <trkpt lat="44.60882" lon="0.88852">
        <ele>186.6</ele>
        <time>2018-07-22T14:07:49Z</time>
      </trkpt>
      <trkpt lat="44.60888" lon="0.88848">
        <ele>186.5</ele>
        <time>2018-07-22T14:07:50Z</time>
      </trkpt>
      <trkpt lat="44.60895" lon="0.88844">
        <ele>186.5</ele>
        <time>2018-07-22T14:07:51Z</time>
      </trkpt>
      <trkpt lat="44.60902" lon="0.88837">
        <ele>186.5</ele>
        <time>2018-07-22T14:07:52Z</time>
      </trkpt>
      <trkpt lat="44.60906" lon="0.88832">
        <ele>186.5</ele>
        <time>2018-07-22T14:07:53Z</time>
      </trkpt>
      <trkpt lat="44.60912" lon="0.88828">
        <ele>186.5</ele>
        <time>2018-07-22T14:07:54Z</time>
      </trkpt>
      <trkpt lat="44.60919" lon="0.8882">
        <ele>186.7</ele>
        <time>2018-07-22T14:07:55Z</time>
      </trkpt>
      <trkpt lat="44.60919" lon="0.88815">
        <ele>186.7</ele>
        <time>2018-07-22T14:07:56Z</time>
      </trkpt>
      <trkpt lat="44.60923" lon="0.88809">
        <ele>186.7</ele>
        <time>2018-07-22T14:07:57Z</time>
      </trkpt>
      <trkpt lat="44.60928" lon="0.88803">
        <ele>186.9</ele>
        <time>2018-07-22T14:07:58Z</time>
      </trkpt>
      <trkpt lat="44.6093" lon="0.888">
        <ele>186.9</ele>
        <time>2018-07-22T14:07:59Z</time>
      </trkpt>
      <trkpt lat="44.60935" lon="0.88796">
        <ele>187</ele>
        <time>2018-07-22T14:08:00Z</time>
      </trkpt>
      <trkpt lat="44.60941" lon="0.88792">
        <ele>187.2</ele>
        <time>2018-07-22T14:08:02Z</time>
      </trkpt>
      <trkpt lat="44.60947" lon="0.88788">
        <ele>187.3</ele>
        <time>2018-07-22T14:08:03Z</time>
      </trkpt>
      <trkpt lat="44.60955" lon="0.88781">
        <ele>187.6</ele>
        <time>2018-07-22T14:08:04Z</time>
      </trkpt>
      <trkpt lat="44.60962" lon="0.88778">
        <ele>187.9</ele>
        <time>2018-07-22T14:08:05Z</time>
      </trkpt>
      <trkpt lat="44.60975" lon="0.88769">
        <ele>188.5</ele>
        <time>2018-07-22T14:08:06Z</time>
      </trkpt>
      <trkpt lat="44.60977" lon="0.88767">
        <ele>188.6</ele>
        <time>2018-07-22T14:08:07Z</time>
      </trkpt>
      <trkpt lat="44.61001" lon="0.88749">
        <ele>189.8</ele>
        <time>2018-07-22T14:08:09Z</time>
      </trkpt>
      <trkpt lat="44.61008" lon="0.88743">
        <ele>190</ele>
        <time>2018-07-22T14:08:10Z</time>
      </trkpt>
      <trkpt lat="44.6101" lon="0.8874">
        <ele>190.1</ele>
        <time>2018-07-22T14:08:11Z</time>
      </trkpt>
      <trkpt lat="44.6102" lon="0.88732">
        <ele>190.2</ele>
        <time>2018-07-22T14:08:12Z</time>
      </trkpt>
      <trkpt lat="44.61024" lon="0.88728">
        <ele>190.2</ele>
        <time>2018-07-22T14:08:13Z</time>
      </trkpt>
      <trkpt lat="44.61028" lon="0.88722">
        <ele>190.1</ele>
        <time>2018-07-22T14:08:14Z</time>
      </trkpt>
      <trkpt lat="44.61029" lon="0.88714">
        <ele>189.9</ele>
        <time>2018-07-22T14:08:15Z</time>
      </trkpt>
      <trkpt lat="44.61034" lon="0.88706">
        <ele>189.9</ele>
        <time>2018-07-22T14:08:16Z</time>
      </trkpt>
      <trkpt lat="44.6103" lon="0.887">
        <ele>189.7</ele>
        <time>2018-07-22T14:08:17Z</time>
      </trkpt>
      <trkpt lat="44.61029" lon="0.88694">
        <ele>189.7</ele>
        <time>2018-07-22T14:08:18Z</time>
      </trkpt>
      <trkpt lat="44.6103" lon="0.88689">
        <ele>189.7</ele>
        <time>2018-07-22T14:08:19Z</time>
      </trkpt>
      <trkpt lat="44.61026" lon="0.88688">
        <ele>189.6</ele>
        <time>2018-07-22T14:08:20Z</time>
      </trkpt>
      <trkpt lat="44.61026" lon="0.88683">
        <ele>189.6</ele>
        <time>2018-07-22T14:08:21Z</time>
      </trkpt>
      <trkpt lat="44.61023" lon="0.88678">
        <ele>189.6</ele>
        <time>2018-07-22T14:08:22Z</time>
      </trkpt>
      <trkpt lat="44.61024" lon="0.88675">
        <ele>189.7</ele>
        <time>2018-07-22T14:08:23Z</time>
      </trkpt>
      <trkpt lat="44.61025" lon="0.88668">
        <ele>189.8</ele>
        <time>2018-07-22T14:08:24Z</time>
      </trkpt>
      <trkpt lat="44.61025" lon="0.88664">
        <ele>190</ele>
        <time>2018-07-22T14:08:25Z</time>
      </trkpt>
      <trkpt lat="44.61026" lon="0.88659">
        <ele>190.1</ele>
        <time>2018-07-22T14:08:26Z</time>
      </trkpt>
      <trkpt lat="44.61026" lon="0.88655">
        <ele>190.3</ele>
        <time>2018-07-22T14:08:27Z</time>
      </trkpt>
      <trkpt lat="44.61027" lon="0.88651">
        <ele>190.6</ele>
        <time>2018-07-22T14:08:28Z</time>
      </trkpt>
      <trkpt lat="44.61029" lon="0.88647">
        <ele>190.8</ele>
        <time>2018-07-22T14:08:29Z</time>
      </trkpt>
      <trkpt lat="44.6103" lon="0.88639">
        <ele>191.2</ele>
        <time>2018-07-22T14:08:31Z</time>
      </trkpt>
      <trkpt lat="44.6103" lon="0.88634">
        <ele>191.5</ele>
        <time>2018-07-22T14:08:32Z</time>
      </trkpt>
      <trkpt lat="44.61031" lon="0.88628">
        <ele>192</ele>
        <time>2018-07-22T14:08:33Z</time>
      </trkpt>
      <trkpt lat="44.61032" lon="0.88622">
        <ele>192.2</ele>
        <time>2018-07-22T14:08:34Z</time>
      </trkpt>
      <trkpt lat="44.61032" lon="0.88616">
        <ele>192.7</ele>
        <time>2018-07-22T14:08:35Z</time>
      </trkpt>
      <trkpt lat="44.61032" lon="0.8861">
        <ele>193</ele>
        <time>2018-07-22T14:08:36Z</time>
      </trkpt>
      <trkpt lat="44.61032" lon="0.88605">
        <ele>193.2</ele>
        <time>2018-07-22T14:08:37Z</time>
      </trkpt>
      <trkpt lat="44.61031" lon="0.88601">
        <ele>193.4</ele>
        <time>2018-07-22T14:08:38Z</time>
      </trkpt>
      <trkpt lat="44.61031" lon="0.88596">
        <ele>193.6</ele>
        <time>2018-07-22T14:08:39Z</time>
      </trkpt>
      <trkpt lat="44.61032" lon="0.88592">
        <ele>193.8</ele>
        <time>2018-07-22T14:08:40Z</time>
      </trkpt>
      <trkpt lat="44.61034" lon="0.88588">
        <ele>194.1</ele>
        <time>2018-07-22T14:08:41Z</time>
      </trkpt>
      <trkpt lat="44.61037" lon="0.88586">
        <ele>194</ele>
        <time>2018-07-22T14:08:42Z</time>
      </trkpt>
      <trkpt lat="44.6104" lon="0.88586">
        <ele>193.8</ele>
        <time>2018-07-22T14:08:43Z</time>
      </trkpt>
      <trkpt lat="44.61044" lon="0.88587">
        <ele>193.6</ele>
        <time>2018-07-22T14:08:44Z</time>
      </trkpt>
      <trkpt lat="44.61048" lon="0.88589">
        <ele>193.4</ele>
        <time>2018-07-22T14:08:45Z</time>
      </trkpt>
      <trkpt lat="44.61052" lon="0.88592">
        <ele>193.3</ele>
        <time>2018-07-22T14:08:46Z</time>
      </trkpt>
      <trkpt lat="44.61059" lon="0.88599">
        <ele>192.8</ele>
        <time>2018-07-22T14:08:47Z</time>
      </trkpt>
      <trkpt lat="44.61063" lon="0.88604">
        <ele>192.8</ele>
        <time>2018-07-22T14:08:48Z</time>
      </trkpt>
      <trkpt lat="44.61068" lon="0.88607">
        <ele>192.7</ele>
        <time>2018-07-22T14:08:49Z</time>
      </trkpt>
      <trkpt lat="44.61074" lon="0.88612">
        <ele>192.7</ele>
        <time>2018-07-22T14:08:50Z</time>
      </trkpt>
      <trkpt lat="44.61079" lon="0.88616">
        <ele>192.6</ele>
        <time>2018-07-22T14:08:51Z</time>
      </trkpt>
      <trkpt lat="44.61085" lon="0.88623">
        <ele>192.5</ele>
        <time>2018-07-22T14:08:52Z</time>
      </trkpt>
      <trkpt lat="44.61086" lon="0.8863">
        <ele>192.5</ele>
        <time>2018-07-22T14:08:53Z</time>
      </trkpt>
      <trkpt lat="44.6109" lon="0.88635">
        <ele>192.5</ele>
        <time>2018-07-22T14:08:54Z</time>
      </trkpt>
      <trkpt lat="44.61093" lon="0.8864">
        <ele>192.4</ele>
        <time>2018-07-22T14:08:55Z</time>
      </trkpt>
      <trkpt lat="44.61097" lon="0.88645">
        <ele>192.5</ele>
        <time>2018-07-22T14:08:56Z</time>
      </trkpt>
      <trkpt lat="44.61102" lon="0.88648">
        <ele>192.5</ele>
        <time>2018-07-22T14:08:57Z</time>
      </trkpt>
      <trkpt lat="44.61104" lon="0.88653">
        <ele>192.5</ele>
        <time>2018-07-22T14:08:58Z</time>
      </trkpt>
      <trkpt lat="44.61108" lon="0.88657">
        <ele>192.5</ele>
        <time>2018-07-22T14:08:59Z</time>
      </trkpt>
      <trkpt lat="44.61112" lon="0.88659">
        <ele>192.5</ele>
        <time>2018-07-22T14:09:00Z</time>
      </trkpt>
      <trkpt lat="44.61117" lon="0.88664">
        <ele>192.5</ele>
        <time>2018-07-22T14:09:02Z</time>
      </trkpt>
      <trkpt lat="44.61121" lon="0.88667">
        <ele>192.6</ele>
        <time>2018-07-22T14:09:03Z</time>
      </trkpt>
      <trkpt lat="44.61125" lon="0.88668">
        <ele>192.6</ele>
        <time>2018-07-22T14:09:04Z</time>
      </trkpt>
      <trkpt lat="44.61129" lon="0.88667">
        <ele>192.6</ele>
        <time>2018-07-22T14:09:05Z</time>
      </trkpt>
      <trkpt lat="44.61133" lon="0.88666">
        <ele>192.7</ele>
        <time>2018-07-22T14:09:06Z</time>
      </trkpt>
      <trkpt lat="44.61137" lon="0.88663">
        <ele>192.7</ele>
        <time>2018-07-22T14:09:07Z</time>
      </trkpt>
      <trkpt lat="44.61141" lon="0.88661">
        <ele>192.8</ele>
        <time>2018-07-22T14:09:08Z</time>
      </trkpt>
      <trkpt lat="44.61145" lon="0.88658">
        <ele>192.9</ele>
        <time>2018-07-22T14:09:09Z</time>
      </trkpt>
      <trkpt lat="44.61148" lon="0.88656">
        <ele>192.9</ele>
        <time>2018-07-22T14:09:10Z</time>
      </trkpt>
      <trkpt lat="44.61151" lon="0.88653">
        <ele>193.2</ele>
        <time>2018-07-22T14:09:11Z</time>
      </trkpt>
      <trkpt lat="44.61154" lon="0.8865">
        <ele>193.4</ele>
        <time>2018-07-22T14:09:12Z</time>
      </trkpt>
      <trkpt lat="44.61157" lon="0.88648">
        <ele>193.6</ele>
        <time>2018-07-22T14:09:13Z</time>
      </trkpt>
      <trkpt lat="44.6116" lon="0.88645">
        <ele>193.9</ele>
        <time>2018-07-22T14:09:14Z</time>
      </trkpt>
      <trkpt lat="44.61163" lon="0.88643">
        <ele>194.1</ele>
        <time>2018-07-22T14:09:15Z</time>
      </trkpt>
      <trkpt lat="44.61167" lon="0.8864">
        <ele>194.4</ele>
        <time>2018-07-22T14:09:16Z</time>
      </trkpt>
      <trkpt lat="44.6117" lon="0.88638">
        <ele>194.6</ele>
        <time>2018-07-22T14:09:17Z</time>
      </trkpt>
      <trkpt lat="44.61174" lon="0.88635">
        <ele>195</ele>
        <time>2018-07-22T14:09:18Z</time>
      </trkpt>
      <trkpt lat="44.61177" lon="0.88632">
        <ele>195.4</ele>
        <time>2018-07-22T14:09:19Z</time>
      </trkpt>
      <trkpt lat="44.61181" lon="0.8863">
        <ele>195.5</ele>
        <time>2018-07-22T14:09:20Z</time>
      </trkpt>
      <trkpt lat="44.61184" lon="0.88628">
        <ele>195.8</ele>
        <time>2018-07-22T14:09:21Z</time>
      </trkpt>
      <trkpt lat="44.61187" lon="0.88625">
        <ele>196</ele>
        <time>2018-07-22T14:09:22Z</time>
      </trkpt>
      <trkpt lat="44.6119" lon="0.88622">
        <ele>196.2</ele>
        <time>2018-07-22T14:09:23Z</time>
      </trkpt>
      <trkpt lat="44.61194" lon="0.88619">
        <ele>196.5</ele>
        <time>2018-07-22T14:09:24Z</time>
      </trkpt>
      <trkpt lat="44.61197" lon="0.88617">
        <ele>196.7</ele>
        <time>2018-07-22T14:09:25Z</time>
      </trkpt>
      <trkpt lat="44.612" lon="0.88614">
        <ele>197</ele>
        <time>2018-07-22T14:09:26Z</time>
      </trkpt>
      <trkpt lat="44.61203" lon="0.88612">
        <ele>197.1</ele>
        <time>2018-07-22T14:09:27Z</time>
      </trkpt>
      <trkpt lat="44.61206" lon="0.8861">
        <ele>197.4</ele>
        <time>2018-07-22T14:09:28Z</time>
      </trkpt>
      <trkpt lat="44.61208" lon="0.88608">
        <ele>197.5</ele>
        <time>2018-07-22T14:09:29Z</time>
      </trkpt>
      <trkpt lat="44.61211" lon="0.88605">
        <ele>197.8</ele>
        <time>2018-07-22T14:09:30Z</time>
      </trkpt>
      <trkpt lat="44.61215" lon="0.88602">
        <ele>198.1</ele>
        <time>2018-07-22T14:09:31Z</time>
      </trkpt>
      <trkpt lat="44.61218" lon="0.886">
        <ele>198.2</ele>
        <time>2018-07-22T14:09:32Z</time>
      </trkpt>
      <trkpt lat="44.61222" lon="0.88598">
        <ele>198.5</ele>
        <time>2018-07-22T14:09:33Z</time>
      </trkpt>
      <trkpt lat="44.61226" lon="0.88595">
        <ele>198.8</ele>
        <time>2018-07-22T14:09:34Z</time>
      </trkpt>
      <trkpt lat="44.6123" lon="0.88592">
        <ele>199.1</ele>
        <time>2018-07-22T14:09:35Z</time>
      </trkpt>
      <trkpt lat="44.61234" lon="0.8859">
        <ele>199.4</ele>
        <time>2018-07-22T14:09:36Z</time>
      </trkpt>
      <trkpt lat="44.61238" lon="0.88587">
        <ele>199.6</ele>
        <time>2018-07-22T14:09:37Z</time>
      </trkpt>
      <trkpt lat="44.61242" lon="0.88584">
        <ele>200</ele>
        <time>2018-07-22T14:09:38Z</time>
      </trkpt>
      <trkpt lat="44.61246" lon="0.88581">
        <ele>200.3</ele>
        <time>2018-07-22T14:09:39Z</time>
      </trkpt>
      <trkpt lat="44.6125" lon="0.88578">
        <ele>200.5</ele>
        <time>2018-07-22T14:09:40Z</time>
      </trkpt>
      <trkpt lat="44.61255" lon="0.88575">
        <ele>200.9</ele>
        <time>2018-07-22T14:09:41Z</time>
      </trkpt>
      <trkpt lat="44.61259" lon="0.88572">
        <ele>201.2</ele>
        <time>2018-07-22T14:09:42Z</time>
      </trkpt>
      <trkpt lat="44.61263" lon="0.88569">
        <ele>201.3</ele>
        <time>2018-07-22T14:09:43Z</time>
      </trkpt>
      <trkpt lat="44.61267" lon="0.88566">
        <ele>201.6</ele>
        <time>2018-07-22T14:09:44Z</time>
      </trkpt>
      <trkpt lat="44.61271" lon="0.88563">
        <ele>201.9</ele>
        <time>2018-07-22T14:09:45Z</time>
      </trkpt>
      <trkpt lat="44.61275" lon="0.8856">
        <ele>202.3</ele>
        <time>2018-07-22T14:09:46Z</time>
      </trkpt>
      <trkpt lat="44.61278" lon="0.88556">
        <ele>202.4</ele>
        <time>2018-07-22T14:09:47Z</time>
      </trkpt>
      <trkpt lat="44.61282" lon="0.88553">
        <ele>202.7</ele>
        <time>2018-07-22T14:09:48Z</time>
      </trkpt>
      <trkpt lat="44.61286" lon="0.8855">
        <ele>203</ele>
        <time>2018-07-22T14:09:49Z</time>
      </trkpt>
      <trkpt lat="44.61292" lon="0.88547">
        <ele>203.4</ele>
        <time>2018-07-22T14:09:50Z</time>
      </trkpt>
      <trkpt lat="44.61296" lon="0.88544">
        <ele>203.5</ele>
        <time>2018-07-22T14:09:51Z</time>
      </trkpt>
      <trkpt lat="44.613" lon="0.88541">
        <ele>203.9</ele>
        <time>2018-07-22T14:09:52Z</time>
      </trkpt>
      <trkpt lat="44.61304" lon="0.88538">
        <ele>204.2</ele>
        <time>2018-07-22T14:09:53Z</time>
      </trkpt>
      <trkpt lat="44.61308" lon="0.88536">
        <ele>204.4</ele>
        <time>2018-07-22T14:09:54Z</time>
      </trkpt>
      <trkpt lat="44.61312" lon="0.88533">
        <ele>204.8</ele>
        <time>2018-07-22T14:09:55Z</time>
      </trkpt>
      <trkpt lat="44.61316" lon="0.88531">
        <ele>204.9</ele>
        <time>2018-07-22T14:09:56Z</time>
      </trkpt>
      <trkpt lat="44.6132" lon="0.88529">
        <ele>205.4</ele>
        <time>2018-07-22T14:09:57Z</time>
      </trkpt>
      <trkpt lat="44.61324" lon="0.88526">
        <ele>205.5</ele>
        <time>2018-07-22T14:09:58Z</time>
      </trkpt>
      <trkpt lat="44.61328" lon="0.88525">
        <ele>205.9</ele>
        <time>2018-07-22T14:09:59Z</time>
      </trkpt>
      <trkpt lat="44.61332" lon="0.88523">
        <ele>206.1</ele>
        <time>2018-07-22T14:10:00Z</time>
      </trkpt>
      <trkpt lat="44.61337" lon="0.8852">
        <ele>206.6</ele>
        <time>2018-07-22T14:10:01Z</time>
      </trkpt>
      <trkpt lat="44.61341" lon="0.88519">
        <ele>206.8</ele>
        <time>2018-07-22T14:10:02Z</time>
      </trkpt>
      <trkpt lat="44.61345" lon="0.88517">
        <ele>207.1</ele>
        <time>2018-07-22T14:10:03Z</time>
      </trkpt>
      <trkpt lat="44.61349" lon="0.88516">
        <ele>207.4</ele>
        <time>2018-07-22T14:10:04Z</time>
      </trkpt>
      <trkpt lat="44.61353" lon="0.88514">
        <ele>207.6</ele>
        <time>2018-07-22T14:10:05Z</time>
      </trkpt>
      <trkpt lat="44.61357" lon="0.88512">
        <ele>207.9</ele>
        <time>2018-07-22T14:10:06Z</time>
      </trkpt>
      <trkpt lat="44.6136" lon="0.8851">
        <ele>208.2</ele>
        <time>2018-07-22T14:10:07Z</time>
      </trkpt>
      <trkpt lat="44.61365" lon="0.88509">
        <ele>208.4</ele>
        <time>2018-07-22T14:10:08Z</time>
      </trkpt>
      <trkpt lat="44.61368" lon="0.88507">
        <ele>208.6</ele>
        <time>2018-07-22T14:10:09Z</time>
      </trkpt>
      <trkpt lat="44.61372" lon="0.88505">
        <ele>208.8</ele>
        <time>2018-07-22T14:10:10Z</time>
      </trkpt>
      <trkpt lat="44.61376" lon="0.88504">
        <ele>209.1</ele>
        <time>2018-07-22T14:10:11Z</time>
      </trkpt>
      <trkpt lat="44.6138" lon="0.88503">
        <ele>209.3</ele>
        <time>2018-07-22T14:10:12Z</time>
      </trkpt>
      <trkpt lat="44.61384" lon="0.88502">
        <ele>209.4</ele>
        <time>2018-07-22T14:10:13Z</time>
      </trkpt>
      <trkpt lat="44.61388" lon="0.88501">
        <ele>209.6</ele>
        <time>2018-07-22T14:10:14Z</time>
      </trkpt>
      <trkpt lat="44.61391" lon="0.885">
        <ele>209.7</ele>
        <time>2018-07-22T14:10:15Z</time>
      </trkpt>
      <trkpt lat="44.61394" lon="0.88499">
        <ele>210</ele>
        <time>2018-07-22T14:10:16Z</time>
      </trkpt>
      <trkpt lat="44.61397" lon="0.88499">
        <ele>210.1</ele>
        <time>2018-07-22T14:10:17Z</time>
      </trkpt>
      <trkpt lat="44.614" lon="0.88498">
        <ele>210.2</ele>
        <time>2018-07-22T14:10:18Z</time>
      </trkpt>
      <trkpt lat="44.61403" lon="0.88497">
        <ele>210.3</ele>
        <time>2018-07-22T14:10:19Z</time>
      </trkpt>
      <trkpt lat="44.61406" lon="0.88497">
        <ele>210.4</ele>
        <time>2018-07-22T14:10:20Z</time>
      </trkpt>
      <trkpt lat="44.61411" lon="0.88496">
        <ele>210.6</ele>
        <time>2018-07-22T14:10:22Z</time>
      </trkpt>
      <trkpt lat="44.61416" lon="0.88494">
        <ele>210.8</ele>
        <time>2018-07-22T14:10:24Z</time>
      </trkpt>
      <trkpt lat="44.61419" lon="0.88493">
        <ele>210.9</ele>
        <time>2018-07-22T14:10:25Z</time>
      </trkpt>
      <trkpt lat="44.61424" lon="0.88492">
        <ele>211.1</ele>
        <time>2018-07-22T14:10:27Z</time>
      </trkpt>
      <trkpt lat="44.61427" lon="0.88491">
        <ele>211.2</ele>
        <time>2018-07-22T14:10:28Z</time>
      </trkpt>
      <trkpt lat="44.6143" lon="0.88491">
        <ele>211.4</ele>
        <time>2018-07-22T14:10:29Z</time>
      </trkpt>
      <trkpt lat="44.61432" lon="0.8849">
        <ele>211.5</ele>
        <time>2018-07-22T14:10:30Z</time>
      </trkpt>
      <trkpt lat="44.61435" lon="0.88489">
        <ele>211.7</ele>
        <time>2018-07-22T14:10:31Z</time>
      </trkpt>
      <trkpt lat="44.61439" lon="0.88488">
        <ele>211.9</ele>
        <time>2018-07-22T14:10:32Z</time>
      </trkpt>
      <trkpt lat="44.61442" lon="0.88487">
        <ele>212</ele>
        <time>2018-07-22T14:10:33Z</time>
      </trkpt>
      <trkpt lat="44.61444" lon="0.88486">
        <ele>212.2</ele>
        <time>2018-07-22T14:10:34Z</time>
      </trkpt>
      <trkpt lat="44.61447" lon="0.88484">
        <ele>212.4</ele>
        <time>2018-07-22T14:10:35Z</time>
      </trkpt>
      <trkpt lat="44.6145" lon="0.88482">
        <ele>212.5</ele>
        <time>2018-07-22T14:10:36Z</time>
      </trkpt>
      <trkpt lat="44.61454" lon="0.8848">
        <ele>212.6</ele>
        <time>2018-07-22T14:10:37Z</time>
      </trkpt>
      <trkpt lat="44.61457" lon="0.88479">
        <ele>212.7</ele>
        <time>2018-07-22T14:10:38Z</time>
      </trkpt>
      <trkpt lat="44.61461" lon="0.88477">
        <ele>212.9</ele>
        <time>2018-07-22T14:10:39Z</time>
      </trkpt>
      <trkpt lat="44.61465" lon="0.88476">
        <ele>212.9</ele>
        <time>2018-07-22T14:10:40Z</time>
      </trkpt>
      <trkpt lat="44.61468" lon="0.88475">
        <ele>213</ele>
        <time>2018-07-22T14:10:41Z</time>
      </trkpt>
      <trkpt lat="44.61473" lon="0.88473">
        <ele>213</ele>
        <time>2018-07-22T14:10:42Z</time>
      </trkpt>
      <trkpt lat="44.61477" lon="0.88472">
        <ele>213.1</ele>
        <time>2018-07-22T14:10:43Z</time>
      </trkpt>
      <trkpt lat="44.61481" lon="0.8847">
        <ele>213.2</ele>
        <time>2018-07-22T14:10:44Z</time>
      </trkpt>
      <trkpt lat="44.61485" lon="0.88469">
        <ele>213.2</ele>
        <time>2018-07-22T14:10:45Z</time>
      </trkpt>
      <trkpt lat="44.6149" lon="0.88467">
        <ele>213.3</ele>
        <time>2018-07-22T14:10:46Z</time>
      </trkpt>
      <trkpt lat="44.61496" lon="0.88468">
        <ele>213.3</ele>
        <time>2018-07-22T14:10:47Z</time>
      </trkpt>
      <trkpt lat="44.615" lon="0.88467">
        <ele>213.4</ele>
        <time>2018-07-22T14:10:48Z</time>
      </trkpt>
      <trkpt lat="44.61505" lon="0.88466">
        <ele>213.4</ele>
        <time>2018-07-22T14:10:49Z</time>
      </trkpt>
      <trkpt lat="44.61509" lon="0.88464">
        <ele>213.5</ele>
        <time>2018-07-22T14:10:50Z</time>
      </trkpt>
      <trkpt lat="44.61514" lon="0.88464">
        <ele>213.5</ele>
        <time>2018-07-22T14:10:51Z</time>
      </trkpt>
      <trkpt lat="44.61519" lon="0.88463">
        <ele>213.6</ele>
        <time>2018-07-22T14:10:52Z</time>
      </trkpt>
      <trkpt lat="44.61523" lon="0.88461">
        <ele>213.6</ele>
        <time>2018-07-22T14:10:53Z</time>
      </trkpt>
      <trkpt lat="44.61527" lon="0.88461">
        <ele>213.6</ele>
        <time>2018-07-22T14:10:54Z</time>
      </trkpt>
      <trkpt lat="44.61531" lon="0.8846">
        <ele>213.7</ele>
        <time>2018-07-22T14:10:55Z</time>
      </trkpt>
      <trkpt lat="44.61536" lon="0.88459">
        <ele>213.8</ele>
        <time>2018-07-22T14:10:56Z</time>
      </trkpt>
      <trkpt lat="44.6154" lon="0.88458">
        <ele>213.9</ele>
        <time>2018-07-22T14:10:57Z</time>
      </trkpt>
      <trkpt lat="44.61544" lon="0.88458">
        <ele>213.9</ele>
        <time>2018-07-22T14:10:58Z</time>
      </trkpt>
      <trkpt lat="44.61547" lon="0.88459">
        <ele>213.9</ele>
        <time>2018-07-22T14:10:59Z</time>
      </trkpt>
      <trkpt lat="44.61551" lon="0.88459">
        <ele>214</ele>
        <time>2018-07-22T14:11:00Z</time>
      </trkpt>
      <trkpt lat="44.61556" lon="0.8846">
        <ele>214</ele>
        <time>2018-07-22T14:11:01Z</time>
      </trkpt>
      <trkpt lat="44.61561" lon="0.8846">
        <ele>214.1</ele>
        <time>2018-07-22T14:11:02Z</time>
      </trkpt>
      <trkpt lat="44.61565" lon="0.8846">
        <ele>214.1</ele>
        <time>2018-07-22T14:11:03Z</time>
      </trkpt>
      <trkpt lat="44.61569" lon="0.8846">
        <ele>214.1</ele>
        <time>2018-07-22T14:11:04Z</time>
      </trkpt>
      <trkpt lat="44.61573" lon="0.88459">
        <ele>214.1</ele>
        <time>2018-07-22T14:11:05Z</time>
      </trkpt>
      <trkpt lat="44.61577" lon="0.88458">
        <ele>214.1</ele>
        <time>2018-07-22T14:11:06Z</time>
      </trkpt>
      <trkpt lat="44.61583" lon="0.88457">
        <ele>214.1</ele>
        <time>2018-07-22T14:11:07Z</time>
      </trkpt>
      <trkpt lat="44.61588" lon="0.88457">
        <ele>214.1</ele>
        <time>2018-07-22T14:11:08Z</time>
      </trkpt>
      <trkpt lat="44.61592" lon="0.88456">
        <ele>214.2</ele>
        <time>2018-07-22T14:11:09Z</time>
      </trkpt>
      <trkpt lat="44.61597" lon="0.88455">
        <ele>214.2</ele>
        <time>2018-07-22T14:11:10Z</time>
      </trkpt>
      <trkpt lat="44.616" lon="0.88454">
        <ele>214.2</ele>
        <time>2018-07-22T14:11:11Z</time>
      </trkpt>
      <trkpt lat="44.61605" lon="0.88456">
        <ele>214.1</ele>
        <time>2018-07-22T14:11:12Z</time>
      </trkpt>
      <trkpt lat="44.6161" lon="0.88454">
        <ele>214.1</ele>
        <time>2018-07-22T14:11:13Z</time>
      </trkpt>
      <trkpt lat="44.61614" lon="0.88454">
        <ele>214.1</ele>
        <time>2018-07-22T14:11:14Z</time>
      </trkpt>
      <trkpt lat="44.61618" lon="0.88453">
        <ele>214.1</ele>
        <time>2018-07-22T14:11:15Z</time>
      </trkpt>
      <trkpt lat="44.61623" lon="0.88452">
        <ele>214</ele>
        <time>2018-07-22T14:11:16Z</time>
      </trkpt>
      <trkpt lat="44.61628" lon="0.88452">
        <ele>214</ele>
        <time>2018-07-22T14:11:17Z</time>
      </trkpt>
      <trkpt lat="44.61632" lon="0.88452">
        <ele>214</ele>
        <time>2018-07-22T14:11:18Z</time>
      </trkpt>
      <trkpt lat="44.61635" lon="0.88452">
        <ele>213.9</ele>
        <time>2018-07-22T14:11:19Z</time>
      </trkpt>
      <trkpt lat="44.61639" lon="0.88451">
        <ele>213.9</ele>
        <time>2018-07-22T14:11:20Z</time>
      </trkpt>
      <trkpt lat="44.61643" lon="0.8845">
        <ele>213.8</ele>
        <time>2018-07-22T14:11:21Z</time>
      </trkpt>
      <trkpt lat="44.61648" lon="0.88449">
        <ele>213.7</ele>
        <time>2018-07-22T14:11:22Z</time>
      </trkpt>
      <trkpt lat="44.61653" lon="0.88449">
        <ele>213.6</ele>
        <time>2018-07-22T14:11:23Z</time>
      </trkpt>
      <trkpt lat="44.61657" lon="0.8845">
        <ele>213.6</ele>
        <time>2018-07-22T14:11:24Z</time>
      </trkpt>
      <trkpt lat="44.61661" lon="0.8845">
        <ele>213.5</ele>
        <time>2018-07-22T14:11:25Z</time>
      </trkpt>
      <trkpt lat="44.61664" lon="0.88451">
        <ele>213.3</ele>
        <time>2018-07-22T14:11:26Z</time>
      </trkpt>
      <trkpt lat="44.61667" lon="0.88451">
        <ele>213.2</ele>
        <time>2018-07-22T14:11:27Z</time>
      </trkpt>
      <trkpt lat="44.6167" lon="0.88452">
        <ele>213.1</ele>
        <time>2018-07-22T14:11:28Z</time>
      </trkpt>
      <trkpt lat="44.61673" lon="0.88454">
        <ele>213.1</ele>
        <time>2018-07-22T14:11:29Z</time>
      </trkpt>
      <trkpt lat="44.61676" lon="0.88456">
        <ele>213</ele>
        <time>2018-07-22T14:11:30Z</time>
      </trkpt>
      <trkpt lat="44.61679" lon="0.88458">
        <ele>212.9</ele>
        <time>2018-07-22T14:11:31Z</time>
      </trkpt>
      <trkpt lat="44.61682" lon="0.88461">
        <ele>212.9</ele>
        <time>2018-07-22T14:11:32Z</time>
      </trkpt>
      <trkpt lat="44.61685" lon="0.88463">
        <ele>212.7</ele>
        <time>2018-07-22T14:11:33Z</time>
      </trkpt>
      <trkpt lat="44.61688" lon="0.88465">
        <ele>212.6</ele>
        <time>2018-07-22T14:11:34Z</time>
      </trkpt>
      <trkpt lat="44.61691" lon="0.88467">
        <ele>212.5</ele>
        <time>2018-07-22T14:11:35Z</time>
      </trkpt>
      <trkpt lat="44.61695" lon="0.8847">
        <ele>212.4</ele>
        <time>2018-07-22T14:11:37Z</time>
      </trkpt>
      <trkpt lat="44.617" lon="0.8847">
        <ele>212.2</ele>
        <time>2018-07-22T14:11:39Z</time>
      </trkpt>
      <trkpt lat="44.61703" lon="0.88469">
        <ele>212.1</ele>
        <time>2018-07-22T14:11:40Z</time>
      </trkpt>
      <trkpt lat="44.61705" lon="0.88468">
        <ele>212</ele>
        <time>2018-07-22T14:11:41Z</time>
      </trkpt>
      <trkpt lat="44.61708" lon="0.88466">
        <ele>212</ele>
        <time>2018-07-22T14:11:42Z</time>
      </trkpt>
      <trkpt lat="44.61711" lon="0.88463">
        <ele>211.9</ele>
        <time>2018-07-22T14:11:43Z</time>
      </trkpt>
      <trkpt lat="44.61714" lon="0.88459">
        <ele>211.9</ele>
        <time>2018-07-22T14:11:44Z</time>
      </trkpt>
      <trkpt lat="44.61717" lon="0.88456">
        <ele>211.9</ele>
        <time>2018-07-22T14:11:45Z</time>
      </trkpt>
      <trkpt lat="44.6172" lon="0.88453">
        <ele>211.8</ele>
        <time>2018-07-22T14:11:46Z</time>
      </trkpt>
      <trkpt lat="44.61724" lon="0.88451">
        <ele>211.8</ele>
        <time>2018-07-22T14:11:47Z</time>
      </trkpt>
      <trkpt lat="44.61731" lon="0.8845">
        <ele>211.7</ele>
        <time>2018-07-22T14:11:48Z</time>
      </trkpt>
      <trkpt lat="44.61736" lon="0.88448">
        <ele>211.6</ele>
        <time>2018-07-22T14:11:49Z</time>
      </trkpt>
      <trkpt lat="44.61741" lon="0.88446">
        <ele>211.5</ele>
        <time>2018-07-22T14:11:50Z</time>
      </trkpt>
      <trkpt lat="44.61745" lon="0.88442">
        <ele>211.2</ele>
        <time>2018-07-22T14:11:51Z</time>
      </trkpt>
      <trkpt lat="44.61751" lon="0.88437">
        <ele>211</ele>
        <time>2018-07-22T14:11:52Z</time>
      </trkpt>
      <trkpt lat="44.61754" lon="0.88433">
        <ele>210.6</ele>
        <time>2018-07-22T14:11:53Z</time>
      </trkpt>
      <trkpt lat="44.6176" lon="0.88431">
        <ele>210.3</ele>
        <time>2018-07-22T14:11:54Z</time>
      </trkpt>
      <trkpt lat="44.61765" lon="0.88428">
        <ele>210</ele>
        <time>2018-07-22T14:11:55Z</time>
      </trkpt>
      <trkpt lat="44.61769" lon="0.88425">
        <ele>209.6</ele>
        <time>2018-07-22T14:11:56Z</time>
      </trkpt>
      <trkpt lat="44.61772" lon="0.88421">
        <ele>209.1</ele>
        <time>2018-07-22T14:11:58Z</time>
      </trkpt>
      <trkpt lat="44.61776" lon="0.8842">
        <ele>208.8</ele>
        <time>2018-07-22T14:11:59Z</time>
      </trkpt>
      <trkpt lat="44.61783" lon="0.88416">
        <ele>208.2</ele>
        <time>2018-07-22T14:12:00Z</time>
      </trkpt>
      <trkpt lat="44.61789" lon="0.88413">
        <ele>207.6</ele>
        <time>2018-07-22T14:12:01Z</time>
      </trkpt>
      <trkpt lat="44.61795" lon="0.8841">
        <ele>207.1</ele>
        <time>2018-07-22T14:12:02Z</time>
      </trkpt>
      <trkpt lat="44.61805" lon="0.88405">
        <ele>205.9</ele>
        <time>2018-07-22T14:12:03Z</time>
      </trkpt>
      <trkpt lat="44.61812" lon="0.88399">
        <ele>205</ele>
        <time>2018-07-22T14:12:04Z</time>
      </trkpt>
      <trkpt lat="44.61818" lon="0.88391">
        <ele>203.8</ele>
        <time>2018-07-22T14:12:05Z</time>
      </trkpt>
      <trkpt lat="44.61824" lon="0.88383">
        <ele>202.6</ele>
        <time>2018-07-22T14:12:06Z</time>
      </trkpt>
      <trkpt lat="44.61829" lon="0.88378">
        <ele>202.2</ele>
        <time>2018-07-22T14:12:07Z</time>
      </trkpt>
      <trkpt lat="44.61834" lon="0.88372">
        <ele>201.6</ele>
        <time>2018-07-22T14:12:08Z</time>
      </trkpt>
      <trkpt lat="44.61841" lon="0.88367">
        <ele>201.2</ele>
        <time>2018-07-22T14:12:10Z</time>
      </trkpt>
      <trkpt lat="44.61845" lon="0.88362">
        <ele>201.1</ele>
        <time>2018-07-22T14:12:11Z</time>
      </trkpt>
      <trkpt lat="44.61848" lon="0.88351">
        <ele>201</ele>
        <time>2018-07-22T14:12:12Z</time>
      </trkpt>
      <trkpt lat="44.61853" lon="0.88344">
        <ele>200.9</ele>
        <time>2018-07-22T14:12:13Z</time>
      </trkpt>
      <trkpt lat="44.61857" lon="0.88337">
        <ele>200.7</ele>
        <time>2018-07-22T14:12:14Z</time>
      </trkpt>
      <trkpt lat="44.61864" lon="0.88334">
        <ele>200.3</ele>
        <time>2018-07-22T14:12:15Z</time>
      </trkpt>
      <trkpt lat="44.61869" lon="0.8833">
        <ele>200.2</ele>
        <time>2018-07-22T14:12:16Z</time>
      </trkpt>
      <trkpt lat="44.61874" lon="0.88326">
        <ele>200</ele>
        <time>2018-07-22T14:12:17Z</time>
      </trkpt>
      <trkpt lat="44.61879" lon="0.88321">
        <ele>199.7</ele>
        <time>2018-07-22T14:12:18Z</time>
      </trkpt>
      <trkpt lat="44.6189" lon="0.88318">
        <ele>199.2</ele>
        <time>2018-07-22T14:12:19Z</time>
      </trkpt>
      <trkpt lat="44.61893" lon="0.88316">
        <ele>199</ele>
        <time>2018-07-22T14:12:20Z</time>
      </trkpt>
      <trkpt lat="44.61896" lon="0.88314">
        <ele>198.8</ele>
        <time>2018-07-22T14:12:21Z</time>
      </trkpt>
      <trkpt lat="44.619" lon="0.88312">
        <ele>198.6</ele>
        <time>2018-07-22T14:12:22Z</time>
      </trkpt>
      <trkpt lat="44.61905" lon="0.88309">
        <ele>198.2</ele>
        <time>2018-07-22T14:12:23Z</time>
      </trkpt>
      <trkpt lat="44.61911" lon="0.88309">
        <ele>197.8</ele>
        <time>2018-07-22T14:12:24Z</time>
      </trkpt>
      <trkpt lat="44.61918" lon="0.88308">
        <ele>197.4</ele>
        <time>2018-07-22T14:12:25Z</time>
      </trkpt>
      <trkpt lat="44.61925" lon="0.88308">
        <ele>196.9</ele>
        <time>2018-07-22T14:12:26Z</time>
      </trkpt>
      <trkpt lat="44.6193" lon="0.88307">
        <ele>196.5</ele>
        <time>2018-07-22T14:12:27Z</time>
      </trkpt>
      <trkpt lat="44.61937" lon="0.88305">
        <ele>195.9</ele>
        <time>2018-07-22T14:12:28Z</time>
      </trkpt>
      <trkpt lat="44.61947" lon="0.88305">
        <ele>195.1</ele>
        <time>2018-07-22T14:12:29Z</time>
      </trkpt>
      <trkpt lat="44.61956" lon="0.88299">
        <ele>194.4</ele>
        <time>2018-07-22T14:12:30Z</time>
      </trkpt>
      <trkpt lat="44.61969" lon="0.88294">
        <ele>193.4</ele>
        <time>2018-07-22T14:12:31Z</time>
      </trkpt>
      <trkpt lat="44.61977" lon="0.88293">
        <ele>192.8</ele>
        <time>2018-07-22T14:12:32Z</time>
      </trkpt>
      <trkpt lat="44.61987" lon="0.88293">
        <ele>191.7</ele>
        <time>2018-07-22T14:12:33Z</time>
      </trkpt>
      <trkpt lat="44.61997" lon="0.88288">
        <ele>190.7</ele>
        <time>2018-07-22T14:12:34Z</time>
      </trkpt>
      <trkpt lat="44.62002" lon="0.88286">
        <ele>190.1</ele>
        <time>2018-07-22T14:12:35Z</time>
      </trkpt>
      <trkpt lat="44.62013" lon="0.8828">
        <ele>188.9</ele>
        <time>2018-07-22T14:12:36Z</time>
      </trkpt>
      <trkpt lat="44.62008" lon="0.88285">
        <ele>189.3</ele>
        <time>2018-07-22T14:12:37Z</time>
      </trkpt>
      <trkpt lat="44.62011" lon="0.88285">
        <ele>188.9</ele>
        <time>2018-07-22T14:12:38Z</time>
      </trkpt>
      <trkpt lat="44.62017" lon="0.88283">
        <ele>188.3</ele>
        <time>2018-07-22T14:12:39Z</time>
      </trkpt>
      <trkpt lat="44.62023" lon="0.88279">
        <ele>187.5</ele>
        <time>2018-07-22T14:12:40Z</time>
      </trkpt>
      <trkpt lat="44.62028" lon="0.88281">
        <ele>187.1</ele>
        <time>2018-07-22T14:12:41Z</time>
      </trkpt>
      <trkpt lat="44.62032" lon="0.88281">
        <ele>186.2</ele>
        <time>2018-07-22T14:12:42Z</time>
      </trkpt>
      <trkpt lat="44.62035" lon="0.88278">
        <ele>185.8</ele>
        <time>2018-07-22T14:12:43Z</time>
      </trkpt>
      <trkpt lat="44.62041" lon="0.88271">
        <ele>185.3</ele>
        <time>2018-07-22T14:12:44Z</time>
      </trkpt>
      <trkpt lat="44.62045" lon="0.88269">
        <ele>184.6</ele>
        <time>2018-07-22T14:12:45Z</time>
      </trkpt>
      <trkpt lat="44.6205" lon="0.88265">
        <ele>184.1</ele>
        <time>2018-07-22T14:12:46Z</time>
      </trkpt>
      <trkpt lat="44.62055" lon="0.88264">
        <ele>183.3</ele>
        <time>2018-07-22T14:12:47Z</time>
      </trkpt>
      <trkpt lat="44.6206" lon="0.88263">
        <ele>182.3</ele>
        <time>2018-07-22T14:12:48Z</time>
      </trkpt>
      <trkpt lat="44.62066" lon="0.88263">
        <ele>181.5</ele>
        <time>2018-07-22T14:12:49Z</time>
      </trkpt>
      <trkpt lat="44.62069" lon="0.88263">
        <ele>181.1</ele>
        <time>2018-07-22T14:12:51Z</time>
      </trkpt>
      <trkpt lat="44.62074" lon="0.88259">
        <ele>180.5</ele>
        <time>2018-07-22T14:12:52Z</time>
      </trkpt>
      <trkpt lat="44.6208" lon="0.88255">
        <ele>179.5</ele>
        <time>2018-07-22T14:12:53Z</time>
      </trkpt>
      <trkpt lat="44.62086" lon="0.88247">
        <ele>178.5</ele>
        <time>2018-07-22T14:12:54Z</time>
      </trkpt>
      <trkpt lat="44.62089" lon="0.88246">
        <ele>178</ele>
        <time>2018-07-22T14:12:55Z</time>
      </trkpt>
      <trkpt lat="44.62098" lon="0.88238">
        <ele>176.8</ele>
        <time>2018-07-22T14:12:56Z</time>
      </trkpt>
      <trkpt lat="44.62102" lon="0.88238">
        <ele>176.5</ele>
        <time>2018-07-22T14:12:57Z</time>
      </trkpt>
      <trkpt lat="44.62106" lon="0.88243">
        <ele>176.1</ele>
        <time>2018-07-22T14:12:58Z</time>
      </trkpt>
      <trkpt lat="44.6211" lon="0.88247">
        <ele>175.9</ele>
        <time>2018-07-22T14:13:00Z</time>
      </trkpt>
      <trkpt lat="44.62113" lon="0.88251">
        <ele>175.6</ele>
        <time>2018-07-22T14:13:01Z</time>
      </trkpt>
      <trkpt lat="44.62115" lon="0.88257">
        <ele>175.4</ele>
        <time>2018-07-22T14:13:03Z</time>
      </trkpt>
      <trkpt lat="44.62112" lon="0.88263">
        <ele>175.8</ele>
        <time>2018-07-22T14:13:05Z</time>
      </trkpt>
      <trkpt lat="44.6211" lon="0.88269">
        <ele>176.4</ele>
        <time>2018-07-22T14:13:06Z</time>
      </trkpt>
      <trkpt lat="44.62111" lon="0.88274">
        <ele>176.3</ele>
        <time>2018-07-22T14:13:07Z</time>
      </trkpt>
      <trkpt lat="44.62113" lon="0.88279">
        <ele>176.5</ele>
        <time>2018-07-22T14:13:08Z</time>
      </trkpt>
      <trkpt lat="44.62116" lon="0.88285">
        <ele>176.4</ele>
        <time>2018-07-22T14:13:09Z</time>
      </trkpt>
      <trkpt lat="44.6212" lon="0.88289">
        <ele>176.4</ele>
        <time>2018-07-22T14:13:10Z</time>
      </trkpt>
      <trkpt lat="44.62125" lon="0.88293">
        <ele>176</ele>
        <time>2018-07-22T14:13:11Z</time>
      </trkpt>
      <trkpt lat="44.62144" lon="0.88305">
        <ele>174.8</ele>
        <time>2018-07-22T14:13:13Z</time>
      </trkpt>
      <trkpt lat="44.62153" lon="0.88308">
        <ele>174.1</ele>
        <time>2018-07-22T14:13:14Z</time>
      </trkpt>
      <trkpt lat="44.6216" lon="0.8831">
        <ele>173.7</ele>
        <time>2018-07-22T14:13:15Z</time>
      </trkpt>
      <trkpt lat="44.62165" lon="0.8831">
        <ele>173.2</ele>
        <time>2018-07-22T14:13:16Z</time>
      </trkpt>
      <trkpt lat="44.62171" lon="0.88312">
        <ele>172.9</ele>
        <time>2018-07-22T14:13:17Z</time>
      </trkpt>
      <trkpt lat="44.62178" lon="0.88311">
        <ele>172.4</ele>
        <time>2018-07-22T14:13:18Z</time>
      </trkpt>
      <trkpt lat="44.62183" lon="0.8831">
        <ele>172.1</ele>
        <time>2018-07-22T14:13:19Z</time>
      </trkpt>
      <trkpt lat="44.62187" lon="0.88309">
        <ele>171.9</ele>
        <time>2018-07-22T14:13:20Z</time>
      </trkpt>
      <trkpt lat="44.62194" lon="0.88306">
        <ele>171.5</ele>
        <time>2018-07-22T14:13:21Z</time>
      </trkpt>
      <trkpt lat="44.62203" lon="0.88309">
        <ele>171.2</ele>
        <time>2018-07-22T14:13:22Z</time>
      </trkpt>
      <trkpt lat="44.62207" lon="0.88316">
        <ele>171.3</ele>
        <time>2018-07-22T14:13:23Z</time>
      </trkpt>
      <trkpt lat="44.62213" lon="0.88315">
        <ele>170.9</ele>
        <time>2018-07-22T14:13:24Z</time>
      </trkpt>
      <trkpt lat="44.62219" lon="0.88316">
        <ele>170.8</ele>
        <time>2018-07-22T14:13:25Z</time>
      </trkpt>
      <trkpt lat="44.62222" lon="0.88319">
        <ele>170.6</ele>
        <time>2018-07-22T14:13:26Z</time>
      </trkpt>
      <trkpt lat="44.62226" lon="0.88321">
        <ele>170.6</ele>
        <time>2018-07-22T14:13:27Z</time>
      </trkpt>
      <trkpt lat="44.6223" lon="0.88321">
        <ele>170.3</ele>
        <time>2018-07-22T14:13:28Z</time>
      </trkpt>
      <trkpt lat="44.62234" lon="0.88321">
        <ele>170.2</ele>
        <time>2018-07-22T14:13:29Z</time>
      </trkpt>
      <trkpt lat="44.62237" lon="0.8832">
        <ele>170</ele>
        <time>2018-07-22T14:13:30Z</time>
      </trkpt>
      <trkpt lat="44.62239" lon="0.88317">
        <ele>170</ele>
        <time>2018-07-22T14:13:31Z</time>
      </trkpt>
      <trkpt lat="44.62243" lon="0.88315">
        <ele>169.7</ele>
        <time>2018-07-22T14:13:32Z</time>
      </trkpt>
      <trkpt lat="44.62245" lon="0.88313">
        <ele>169.7</ele>
        <time>2018-07-22T14:13:33Z</time>
      </trkpt>
      <trkpt lat="44.62249" lon="0.8831">
        <ele>169.5</ele>
        <time>2018-07-22T14:13:34Z</time>
      </trkpt>
      <trkpt lat="44.62256" lon="0.88306">
        <ele>169.4</ele>
        <time>2018-07-22T14:13:36Z</time>
      </trkpt>
      <trkpt lat="44.62259" lon="0.88304">
        <ele>169.4</ele>
        <time>2018-07-22T14:13:37Z</time>
      </trkpt>
      <trkpt lat="44.62262" lon="0.88303">
        <ele>169.4</ele>
        <time>2018-07-22T14:13:38Z</time>
      </trkpt>
      <trkpt lat="44.62272" lon="0.88296">
        <ele>169.5</ele>
        <time>2018-07-22T14:13:40Z</time>
      </trkpt>
      <trkpt lat="44.62277" lon="0.88294">
        <ele>169.7</ele>
        <time>2018-07-22T14:13:41Z</time>
      </trkpt>
      <trkpt lat="44.62283" lon="0.88294">
        <ele>169.9</ele>
        <time>2018-07-22T14:13:42Z</time>
      </trkpt>
      <trkpt lat="44.62287" lon="0.88295">
        <ele>170</ele>
        <time>2018-07-22T14:13:43Z</time>
      </trkpt>
      <trkpt lat="44.62292" lon="0.88294">
        <ele>170.2</ele>
        <time>2018-07-22T14:13:44Z</time>
      </trkpt>
      <trkpt lat="44.62296" lon="0.88295">
        <ele>170.3</ele>
        <time>2018-07-22T14:13:45Z</time>
      </trkpt>
      <trkpt lat="44.62299" lon="0.88296">
        <ele>170.4</ele>
        <time>2018-07-22T14:13:46Z</time>
      </trkpt>
      <trkpt lat="44.62303" lon="0.88296">
        <ele>170.4</ele>
        <time>2018-07-22T14:13:47Z</time>
      </trkpt>
      <trkpt lat="44.62307" lon="0.88295">
        <ele>170.6</ele>
        <time>2018-07-22T14:13:48Z</time>
      </trkpt>
      <trkpt lat="44.6231" lon="0.88294">
        <ele>170.6</ele>
        <time>2018-07-22T14:13:49Z</time>
      </trkpt>
      <trkpt lat="44.62315" lon="0.88292">
        <ele>170.7</ele>
        <time>2018-07-22T14:13:50Z</time>
      </trkpt>
      <trkpt lat="44.62319" lon="0.88292">
        <ele>170.7</ele>
        <time>2018-07-22T14:13:51Z</time>
      </trkpt>
      <trkpt lat="44.62323" lon="0.88293">
        <ele>170.9</ele>
        <time>2018-07-22T14:13:52Z</time>
      </trkpt>
      <trkpt lat="44.62327" lon="0.88292">
        <ele>171</ele>
        <time>2018-07-22T14:13:53Z</time>
      </trkpt>
      <trkpt lat="44.62331" lon="0.88291">
        <ele>171.1</ele>
        <time>2018-07-22T14:13:54Z</time>
      </trkpt>
      <trkpt lat="44.62334" lon="0.88291">
        <ele>171.2</ele>
        <time>2018-07-22T14:13:55Z</time>
      </trkpt>
      <trkpt lat="44.62337" lon="0.8829">
        <ele>171.3</ele>
        <time>2018-07-22T14:13:56Z</time>
      </trkpt>
      <trkpt lat="44.62341" lon="0.88288">
        <ele>171.5</ele>
        <time>2018-07-22T14:13:57Z</time>
      </trkpt>
      <trkpt lat="44.62345" lon="0.88285">
        <ele>171.6</ele>
        <time>2018-07-22T14:13:58Z</time>
      </trkpt>
      <trkpt lat="44.62348" lon="0.88282">
        <ele>171.7</ele>
        <time>2018-07-22T14:13:59Z</time>
      </trkpt>
      <trkpt lat="44.6235" lon="0.88277">
        <ele>171.8</ele>
        <time>2018-07-22T14:14:00Z</time>
      </trkpt>
      <trkpt lat="44.62352" lon="0.88273">
        <ele>171.8</ele>
        <time>2018-07-22T14:14:01Z</time>
      </trkpt>
      <trkpt lat="44.62354" lon="0.88268">
        <ele>171.9</ele>
        <time>2018-07-22T14:14:02Z</time>
      </trkpt>
      <trkpt lat="44.62356" lon="0.88263">
        <ele>172</ele>
        <time>2018-07-22T14:14:03Z</time>
      </trkpt>
      <trkpt lat="44.62358" lon="0.88259">
        <ele>172</ele>
        <time>2018-07-22T14:14:04Z</time>
      </trkpt>
      <trkpt lat="44.62359" lon="0.88255">
        <ele>172.2</ele>
        <time>2018-07-22T14:14:05Z</time>
      </trkpt>
      <trkpt lat="44.62361" lon="0.88251">
        <ele>172.1</ele>
        <time>2018-07-22T14:14:06Z</time>
      </trkpt>
      <trkpt lat="44.62363" lon="0.88247">
        <ele>172.3</ele>
        <time>2018-07-22T14:14:07Z</time>
      </trkpt>
      <trkpt lat="44.62365" lon="0.88244">
        <ele>172.4</ele>
        <time>2018-07-22T14:14:08Z</time>
      </trkpt>
      <trkpt lat="44.62367" lon="0.88241">
        <ele>172.3</ele>
        <time>2018-07-22T14:14:09Z</time>
      </trkpt>
      <trkpt lat="44.62369" lon="0.88238">
        <ele>172.4</ele>
        <time>2018-07-22T14:14:10Z</time>
      </trkpt>
      <trkpt lat="44.62371" lon="0.88235">
        <ele>172.4</ele>
        <time>2018-07-22T14:14:11Z</time>
      </trkpt>
      <trkpt lat="44.62373" lon="0.88232">
        <ele>172.4</ele>
        <time>2018-07-22T14:14:12Z</time>
      </trkpt>
      <trkpt lat="44.62376" lon="0.88228">
        <ele>172.5</ele>
        <time>2018-07-22T14:14:13Z</time>
      </trkpt>
      <trkpt lat="44.62378" lon="0.88224">
        <ele>172.6</ele>
        <time>2018-07-22T14:14:14Z</time>
      </trkpt>
      <trkpt lat="44.62379" lon="0.8822">
        <ele>172.5</ele>
        <time>2018-07-22T14:14:15Z</time>
      </trkpt>
      <trkpt lat="44.62382" lon="0.88215">
        <ele>172.7</ele>
        <time>2018-07-22T14:14:17Z</time>
      </trkpt>
      <trkpt lat="44.62385" lon="0.88212">
        <ele>172.8</ele>
        <time>2018-07-22T14:14:19Z</time>
      </trkpt>
      <trkpt lat="44.62387" lon="0.88208">
        <ele>172.9</ele>
        <time>2018-07-22T14:14:21Z</time>
      </trkpt>
      <trkpt lat="44.62391" lon="0.88204">
        <ele>173.1</ele>
        <time>2018-07-22T14:14:23Z</time>
      </trkpt>
      <trkpt lat="44.62393" lon="0.88202">
        <ele>173.3</ele>
        <time>2018-07-22T14:14:24Z</time>
      </trkpt>
      <trkpt lat="44.62396" lon="0.88199">
        <ele>173.6</ele>
        <time>2018-07-22T14:14:25Z</time>
      </trkpt>
      <trkpt lat="44.624" lon="0.88196">
        <ele>173.7</ele>
        <time>2018-07-22T14:14:27Z</time>
      </trkpt>
      <trkpt lat="44.62404" lon="0.88198">
        <ele>173.8</ele>
        <time>2018-07-22T14:14:29Z</time>
      </trkpt>
      <trkpt lat="44.62407" lon="0.88205">
        <ele>173.8</ele>
        <time>2018-07-22T14:14:31Z</time>
      </trkpt>
      <trkpt lat="44.62408" lon="0.8821">
        <ele>173.9</ele>
        <time>2018-07-22T14:14:32Z</time>
      </trkpt>
      <trkpt lat="44.62409" lon="0.88214">
        <ele>173.8</ele>
        <time>2018-07-22T14:14:33Z</time>
      </trkpt>
      <trkpt lat="44.6241" lon="0.88219">
        <ele>173.8</ele>
        <time>2018-07-22T14:14:34Z</time>
      </trkpt>
      <trkpt lat="44.62412" lon="0.88224">
        <ele>173.9</ele>
        <time>2018-07-22T14:14:35Z</time>
      </trkpt>
      <trkpt lat="44.62414" lon="0.88228">
        <ele>174.2</ele>
        <time>2018-07-22T14:14:36Z</time>
      </trkpt>
      <trkpt lat="44.62417" lon="0.88231">
        <ele>174.4</ele>
        <time>2018-07-22T14:14:37Z</time>
      </trkpt>
      <trkpt lat="44.6242" lon="0.88234">
        <ele>174.6</ele>
        <time>2018-07-22T14:14:38Z</time>
      </trkpt>
      <trkpt lat="44.62423" lon="0.88236">
        <ele>174.9</ele>
        <time>2018-07-22T14:14:39Z</time>
      </trkpt>
      <trkpt lat="44.62426" lon="0.88237">
        <ele>175.1</ele>
        <time>2018-07-22T14:14:40Z</time>
      </trkpt>
      <trkpt lat="44.62429" lon="0.88238">
        <ele>175.2</ele>
        <time>2018-07-22T14:14:41Z</time>
      </trkpt>
      <trkpt lat="44.62432" lon="0.88239">
        <ele>175.3</ele>
        <time>2018-07-22T14:14:42Z</time>
      </trkpt>
      <trkpt lat="44.62435" lon="0.8824">
        <ele>175.4</ele>
        <time>2018-07-22T14:14:43Z</time>
      </trkpt>
      <trkpt lat="44.62437" lon="0.88241">
        <ele>175.6</ele>
        <time>2018-07-22T14:14:44Z</time>
      </trkpt>
      <trkpt lat="44.6244" lon="0.88242">
        <ele>175.7</ele>
        <time>2018-07-22T14:14:45Z</time>
      </trkpt>
      <trkpt lat="44.62443" lon="0.88242">
        <ele>175.9</ele>
        <time>2018-07-22T14:14:46Z</time>
      </trkpt>
      <trkpt lat="44.62446" lon="0.88242">
        <ele>176</ele>
        <time>2018-07-22T14:14:47Z</time>
      </trkpt>
      <trkpt lat="44.62449" lon="0.88241">
        <ele>176.2</ele>
        <time>2018-07-22T14:14:48Z</time>
      </trkpt>
      <trkpt lat="44.62453" lon="0.88239">
        <ele>176.3</ele>
        <time>2018-07-22T14:14:49Z</time>
      </trkpt>
      <trkpt lat="44.62455" lon="0.88237">
        <ele>176.5</ele>
        <time>2018-07-22T14:14:50Z</time>
      </trkpt>
      <trkpt lat="44.62458" lon="0.88232">
        <ele>176.8</ele>
        <time>2018-07-22T14:14:52Z</time>
      </trkpt>
      <trkpt lat="44.6246" lon="0.88225">
        <ele>177</ele>
        <time>2018-07-22T14:14:54Z</time>
      </trkpt>
      <trkpt lat="44.62462" lon="0.8822">
        <ele>177.1</ele>
        <time>2018-07-22T14:14:56Z</time>
      </trkpt>
      <trkpt lat="44.62465" lon="0.88214">
        <ele>177.3</ele>
        <time>2018-07-22T14:14:58Z</time>
      </trkpt>
      <trkpt lat="44.62468" lon="0.88208">
        <ele>177.6</ele>
        <time>2018-07-22T14:15:00Z</time>
      </trkpt>
      <trkpt lat="44.62471" lon="0.88203">
        <ele>177.8</ele>
        <time>2018-07-22T14:15:02Z</time>
      </trkpt>
      <trkpt lat="44.62475" lon="0.88201">
        <ele>178.3</ele>
        <time>2018-07-22T14:15:04Z</time>
      </trkpt>
      <trkpt lat="44.62478" lon="0.882">
        <ele>178.6</ele>
        <time>2018-07-22T14:15:06Z</time>
      </trkpt>
      <trkpt lat="44.62481" lon="0.88199">
        <ele>178.8</ele>
        <time>2018-07-22T14:15:09Z</time>
      </trkpt>
      <trkpt lat="44.62485" lon="0.882">
        <ele>179.1</ele>
        <time>2018-07-22T14:15:12Z</time>
      </trkpt>
      <trkpt lat="44.62487" lon="0.88202">
        <ele>179.4</ele>
        <time>2018-07-22T14:15:15Z</time>
      </trkpt>
      <trkpt lat="44.6249" lon="0.88202">
        <ele>179.7</ele>
        <time>2018-07-22T14:15:19Z</time>
      </trkpt>
      <trkpt lat="44.62494" lon="0.88205">
        <ele>179.9</ele>
        <time>2018-07-22T14:15:22Z</time>
      </trkpt>
      <trkpt lat="44.62497" lon="0.88206">
        <ele>180.3</ele>
        <time>2018-07-22T14:15:24Z</time>
      </trkpt>
      <trkpt lat="44.625" lon="0.88207">
        <ele>180.6</ele>
        <time>2018-07-22T14:15:26Z</time>
      </trkpt>
      <trkpt lat="44.62504" lon="0.8821">
        <ele>180.9</ele>
        <time>2018-07-22T14:15:28Z</time>
      </trkpt>
      <trkpt lat="44.62507" lon="0.88215">
        <ele>181.1</ele>
        <time>2018-07-22T14:15:30Z</time>
      </trkpt>
      <trkpt lat="44.62509" lon="0.8822">
        <ele>181.2</ele>
        <time>2018-07-22T14:15:32Z</time>
      </trkpt>
      <trkpt lat="44.62514" lon="0.88223">
        <ele>181.3</ele>
        <time>2018-07-22T14:15:34Z</time>
      </trkpt>
      <trkpt lat="44.62519" lon="0.88225">
        <ele>181.8</ele>
        <time>2018-07-22T14:15:36Z</time>
      </trkpt>
      <trkpt lat="44.62523" lon="0.88227">
        <ele>181.9</ele>
        <time>2018-07-22T14:15:38Z</time>
      </trkpt>
      <trkpt lat="44.62528" lon="0.88228">
        <ele>182.4</ele>
        <time>2018-07-22T14:15:40Z</time>
      </trkpt>
      <trkpt lat="44.62533" lon="0.88228">
        <ele>183</ele>
        <time>2018-07-22T14:15:42Z</time>
      </trkpt>
      <trkpt lat="44.62537" lon="0.88227">
        <ele>183.3</ele>
        <time>2018-07-22T14:15:44Z</time>
      </trkpt>
      <trkpt lat="44.6254" lon="0.88225">
        <ele>183.6</ele>
        <time>2018-07-22T14:15:45Z</time>
      </trkpt>
      <trkpt lat="44.62543" lon="0.88224">
        <ele>184.1</ele>
        <time>2018-07-22T14:15:46Z</time>
      </trkpt>
      <trkpt lat="44.62545" lon="0.88222">
        <ele>184.3</ele>
        <time>2018-07-22T14:15:47Z</time>
      </trkpt>
      <trkpt lat="44.6255" lon="0.88218">
        <ele>184.8</ele>
        <time>2018-07-22T14:15:49Z</time>
      </trkpt>
      <trkpt lat="44.62554" lon="0.88215">
        <ele>185.7</ele>
        <time>2018-07-22T14:15:51Z</time>
      </trkpt>
      <trkpt lat="44.62559" lon="0.88212">
        <ele>186.2</ele>
        <time>2018-07-22T14:15:53Z</time>
      </trkpt>
      <trkpt lat="44.62563" lon="0.88208">
        <ele>186.8</ele>
        <time>2018-07-22T14:15:55Z</time>
      </trkpt>
      <trkpt lat="44.62565" lon="0.88206">
        <ele>187.1</ele>
        <time>2018-07-22T14:15:56Z</time>
      </trkpt>
      <trkpt lat="44.62568" lon="0.88203">
        <ele>187.7</ele>
        <time>2018-07-22T14:15:57Z</time>
      </trkpt>
      <trkpt lat="44.62572" lon="0.882">
        <ele>188</ele>
        <time>2018-07-22T14:15:59Z</time>
      </trkpt>
      <trkpt lat="44.62576" lon="0.88199">
        <ele>188.6</ele>
        <time>2018-07-22T14:16:01Z</time>
      </trkpt>
      <trkpt lat="44.6258" lon="0.88199">
        <ele>189.3</ele>
        <time>2018-07-22T14:16:03Z</time>
      </trkpt>
      <trkpt lat="44.62584" lon="0.88199">
        <ele>189.7</ele>
        <time>2018-07-22T14:16:05Z</time>
      </trkpt>
      <trkpt lat="44.62588" lon="0.88196">
        <ele>190.4</ele>
        <time>2018-07-22T14:16:07Z</time>
      </trkpt>
      <trkpt lat="44.62591" lon="0.88194">
        <ele>190.9</ele>
        <time>2018-07-22T14:16:09Z</time>
      </trkpt>
      <trkpt lat="44.62594" lon="0.88192">
        <ele>191.2</ele>
        <time>2018-07-22T14:16:12Z</time>
      </trkpt>
      <trkpt lat="44.62599" lon="0.88191">
        <ele>191.4</ele>
        <time>2018-07-22T14:16:14Z</time>
      </trkpt>
      <trkpt lat="44.62602" lon="0.8819">
        <ele>191.7</ele>
        <time>2018-07-22T14:16:15Z</time>
      </trkpt>
      <trkpt lat="44.62606" lon="0.88187">
        <ele>192.1</ele>
        <time>2018-07-22T14:16:17Z</time>
      </trkpt>
      <trkpt lat="44.62611" lon="0.88184">
        <ele>192.3</ele>
        <time>2018-07-22T14:16:19Z</time>
      </trkpt>
      <trkpt lat="44.62616" lon="0.88181">
        <ele>192.7</ele>
        <time>2018-07-22T14:16:21Z</time>
      </trkpt>
      <trkpt lat="44.6262" lon="0.88178">
        <ele>192.8</ele>
        <time>2018-07-22T14:16:23Z</time>
      </trkpt>
      <trkpt lat="44.62624" lon="0.88174">
        <ele>193</ele>
        <time>2018-07-22T14:16:25Z</time>
      </trkpt>
      <trkpt lat="44.62627" lon="0.88171">
        <ele>193.2</ele>
        <time>2018-07-22T14:16:27Z</time>
      </trkpt>
      <trkpt lat="44.6263" lon="0.88169">
        <ele>193.4</ele>
        <time>2018-07-22T14:16:30Z</time>
      </trkpt>
      <trkpt lat="44.62633" lon="0.88166">
        <ele>193.5</ele>
        <time>2018-07-22T14:16:32Z</time>
      </trkpt>
      <trkpt lat="44.62635" lon="0.88162">
        <ele>193.7</ele>
        <time>2018-07-22T14:16:35Z</time>
      </trkpt>
      <trkpt lat="44.62637" lon="0.88158">
        <ele>193.8</ele>
        <time>2018-07-22T14:16:38Z</time>
      </trkpt>
      <trkpt lat="44.62639" lon="0.88155">
        <ele>194</ele>
        <time>2018-07-22T14:16:40Z</time>
      </trkpt>
      <trkpt lat="44.62643" lon="0.88151">
        <ele>194.2</ele>
        <time>2018-07-22T14:16:42Z</time>
      </trkpt>
      <trkpt lat="44.62646" lon="0.88146">
        <ele>194.4</ele>
        <time>2018-07-22T14:16:44Z</time>
      </trkpt>
      <trkpt lat="44.62648" lon="0.88141">
        <ele>194.5</ele>
        <time>2018-07-22T14:16:46Z</time>
      </trkpt>
      <trkpt lat="44.6265" lon="0.88136">
        <ele>194.7</ele>
        <time>2018-07-22T14:16:48Z</time>
      </trkpt>
      <trkpt lat="44.62653" lon="0.88131">
        <ele>194.8</ele>
        <time>2018-07-22T14:16:50Z</time>
      </trkpt>
      <trkpt lat="44.62655" lon="0.88126">
        <ele>195</ele>
        <time>2018-07-22T14:16:52Z</time>
      </trkpt>
      <trkpt lat="44.62657" lon="0.8812">
        <ele>195</ele>
        <time>2018-07-22T14:16:54Z</time>
      </trkpt>
      <trkpt lat="44.62658" lon="0.88116">
        <ele>195.1</ele>
        <time>2018-07-22T14:16:56Z</time>
      </trkpt>
      <trkpt lat="44.62661" lon="0.88109">
        <ele>194.9</ele>
        <time>2018-07-22T14:16:58Z</time>
      </trkpt>
      <trkpt lat="44.62662" lon="0.88106">
        <ele>195.1</ele>
        <time>2018-07-22T14:16:59Z</time>
      </trkpt>
      <trkpt lat="44.62665" lon="0.88099">
        <ele>195</ele>
        <time>2018-07-22T14:17:01Z</time>
      </trkpt>
      <trkpt lat="44.62666" lon="0.88095">
        <ele>194.9</ele>
        <time>2018-07-22T14:17:02Z</time>
      </trkpt>
      <trkpt lat="44.62667" lon="0.88091">
        <ele>194.8</ele>
        <time>2018-07-22T14:17:03Z</time>
      </trkpt>
      <trkpt lat="44.62668" lon="0.88088">
        <ele>194.8</ele>
        <time>2018-07-22T14:17:04Z</time>
      </trkpt>
      <trkpt lat="44.62671" lon="0.8808">
        <ele>194.8</ele>
        <time>2018-07-22T14:17:06Z</time>
      </trkpt>
      <trkpt lat="44.62672" lon="0.88075">
        <ele>194.6</ele>
        <time>2018-07-22T14:17:07Z</time>
      </trkpt>
      <trkpt lat="44.62674" lon="0.88071">
        <ele>194.4</ele>
        <time>2018-07-22T14:17:08Z</time>
      </trkpt>
      <trkpt lat="44.62676" lon="0.88068">
        <ele>194.4</ele>
        <time>2018-07-22T14:17:09Z</time>
      </trkpt>
      <trkpt lat="44.62678" lon="0.88065">
        <ele>194.2</ele>
        <time>2018-07-22T14:17:10Z</time>
      </trkpt>
      <trkpt lat="44.6268" lon="0.88062">
        <ele>194.1</ele>
        <time>2018-07-22T14:17:11Z</time>
      </trkpt>
      <trkpt lat="44.62684" lon="0.88059">
        <ele>194.2</ele>
        <time>2018-07-22T14:17:13Z</time>
      </trkpt>
      <trkpt lat="44.62689" lon="0.88056">
        <ele>194.1</ele>
        <time>2018-07-22T14:17:15Z</time>
      </trkpt>
      <trkpt lat="44.62693" lon="0.88053">
        <ele>194</ele>
        <time>2018-07-22T14:17:16Z</time>
      </trkpt>
      <trkpt lat="44.62696" lon="0.88048">
        <ele>193.8</ele>
        <time>2018-07-22T14:17:17Z</time>
      </trkpt>
      <trkpt lat="44.62704" lon="0.88035">
        <ele>193.3</ele>
        <time>2018-07-22T14:17:18Z</time>
      </trkpt>
      <trkpt lat="44.62707" lon="0.88031">
        <ele>193.3</ele>
        <time>2018-07-22T14:17:19Z</time>
      </trkpt>
      <trkpt lat="44.62711" lon="0.88026">
        <ele>193.1</ele>
        <time>2018-07-22T14:17:20Z</time>
      </trkpt>
      <trkpt lat="44.62715" lon="0.88022">
        <ele>193</ele>
        <time>2018-07-22T14:17:21Z</time>
      </trkpt>
      <trkpt lat="44.62719" lon="0.88016">
        <ele>192.8</ele>
        <time>2018-07-22T14:17:22Z</time>
      </trkpt>
      <trkpt lat="44.62722" lon="0.88012">
        <ele>192.8</ele>
        <time>2018-07-22T14:17:23Z</time>
      </trkpt>
      <trkpt lat="44.62727" lon="0.88006">
        <ele>192.4</ele>
        <time>2018-07-22T14:17:24Z</time>
      </trkpt>
      <trkpt lat="44.62731" lon="0.87999">
        <ele>192.2</ele>
        <time>2018-07-22T14:17:25Z</time>
      </trkpt>
      <trkpt lat="44.62736" lon="0.87994">
        <ele>191.7</ele>
        <time>2018-07-22T14:17:26Z</time>
      </trkpt>
      <trkpt lat="44.62742" lon="0.87988">
        <ele>191.5</ele>
        <time>2018-07-22T14:17:27Z</time>
      </trkpt>
      <trkpt lat="44.62747" lon="0.87983">
        <ele>191.4</ele>
        <time>2018-07-22T14:17:28Z</time>
      </trkpt>
      <trkpt lat="44.62752" lon="0.87977">
        <ele>191.3</ele>
        <time>2018-07-22T14:17:29Z</time>
      </trkpt>
      <trkpt lat="44.62757" lon="0.87971">
        <ele>191.3</ele>
        <time>2018-07-22T14:17:30Z</time>
      </trkpt>
      <trkpt lat="44.62763" lon="0.87965">
        <ele>191.6</ele>
        <time>2018-07-22T14:17:31Z</time>
      </trkpt>
      <trkpt lat="44.62768" lon="0.87958">
        <ele>191.6</ele>
        <time>2018-07-22T14:17:32Z</time>
      </trkpt>
      <trkpt lat="44.62773" lon="0.87952">
        <ele>192.1</ele>
        <time>2018-07-22T14:17:33Z</time>
      </trkpt>
      <trkpt lat="44.62777" lon="0.87945">
        <ele>192.1</ele>
        <time>2018-07-22T14:17:34Z</time>
      </trkpt>
      <trkpt lat="44.62781" lon="0.87939">
        <ele>192.7</ele>
        <time>2018-07-22T14:17:35Z</time>
      </trkpt>
      <trkpt lat="44.62786" lon="0.87933">
        <ele>192.9</ele>
        <time>2018-07-22T14:17:36Z</time>
      </trkpt>
      <trkpt lat="44.6279" lon="0.87927">
        <ele>193.6</ele>
        <time>2018-07-22T14:17:37Z</time>
      </trkpt>
      <trkpt lat="44.62794" lon="0.8792">
        <ele>193.9</ele>
        <time>2018-07-22T14:17:38Z</time>
      </trkpt>
      <trkpt lat="44.62796" lon="0.87916">
        <ele>194.3</ele>
        <time>2018-07-22T14:17:39Z</time>
      </trkpt>
      <trkpt lat="44.628" lon="0.87911">
        <ele>194.7</ele>
        <time>2018-07-22T14:17:40Z</time>
      </trkpt>
      <trkpt lat="44.62804" lon="0.87905">
        <ele>195.1</ele>
        <time>2018-07-22T14:17:41Z</time>
      </trkpt>
      <trkpt lat="44.62807" lon="0.87901">
        <ele>195.4</ele>
        <time>2018-07-22T14:17:42Z</time>
      </trkpt>
      <trkpt lat="44.62809" lon="0.87895">
        <ele>195.7</ele>
        <time>2018-07-22T14:17:43Z</time>
      </trkpt>
      <trkpt lat="44.62811" lon="0.87891">
        <ele>196</ele>
        <time>2018-07-22T14:17:44Z</time>
      </trkpt>
      <trkpt lat="44.62812" lon="0.87888">
        <ele>195.9</ele>
        <time>2018-07-22T14:17:45Z</time>
      </trkpt>
      <trkpt lat="44.62816" lon="0.87883">
        <ele>196.1</ele>
        <time>2018-07-22T14:17:47Z</time>
      </trkpt>
      <trkpt lat="44.62819" lon="0.87882">
        <ele>196.3</ele>
        <time>2018-07-22T14:17:49Z</time>
      </trkpt>
      <trkpt lat="44.62824" lon="0.87881">
        <ele>196.7</ele>
        <time>2018-07-22T14:17:51Z</time>
      </trkpt>
      <trkpt lat="44.62827" lon="0.87882">
        <ele>196.8</ele>
        <time>2018-07-22T14:17:52Z</time>
      </trkpt>
      <trkpt lat="44.62831" lon="0.87883">
        <ele>197.1</ele>
        <time>2018-07-22T14:17:54Z</time>
      </trkpt>
      <trkpt lat="44.62836" lon="0.87884">
        <ele>197.4</ele>
        <time>2018-07-22T14:17:56Z</time>
      </trkpt>
      <trkpt lat="44.62841" lon="0.87886">
        <ele>197.5</ele>
        <time>2018-07-22T14:17:58Z</time>
      </trkpt>
      <trkpt lat="44.62844" lon="0.87888">
        <ele>197.7</ele>
        <time>2018-07-22T14:18:00Z</time>
      </trkpt>
      <trkpt lat="44.62848" lon="0.87893">
        <ele>198.1</ele>
        <time>2018-07-22T14:18:02Z</time>
      </trkpt>
      <trkpt lat="44.62852" lon="0.87896">
        <ele>198.3</ele>
        <time>2018-07-22T14:18:04Z</time>
      </trkpt>
      <trkpt lat="44.62857" lon="0.87897">
        <ele>198.4</ele>
        <time>2018-07-22T14:18:06Z</time>
      </trkpt>
      <trkpt lat="44.62861" lon="0.87899">
        <ele>198.6</ele>
        <time>2018-07-22T14:18:08Z</time>
      </trkpt>
      <trkpt lat="44.62864" lon="0.87899">
        <ele>198.8</ele>
        <time>2018-07-22T14:18:10Z</time>
      </trkpt>
      <trkpt lat="44.62869" lon="0.87897">
        <ele>198.9</ele>
        <time>2018-07-22T14:18:12Z</time>
      </trkpt>
      <trkpt lat="44.62874" lon="0.87895">
        <ele>198.9</ele>
        <time>2018-07-22T14:18:14Z</time>
      </trkpt>
      <trkpt lat="44.62877" lon="0.87894">
        <ele>198.9</ele>
        <time>2018-07-22T14:18:15Z</time>
      </trkpt>
      <trkpt lat="44.6288" lon="0.87893">
        <ele>199</ele>
        <time>2018-07-22T14:18:16Z</time>
      </trkpt>
      <trkpt lat="44.62884" lon="0.87892">
        <ele>199</ele>
        <time>2018-07-22T14:18:17Z</time>
      </trkpt>
      <trkpt lat="44.62887" lon="0.8789">
        <ele>198.9</ele>
        <time>2018-07-22T14:18:18Z</time>
      </trkpt>
      <trkpt lat="44.62891" lon="0.87888">
        <ele>198.9</ele>
        <time>2018-07-22T14:18:19Z</time>
      </trkpt>
      <trkpt lat="44.62895" lon="0.87886">
        <ele>198.8</ele>
        <time>2018-07-22T14:18:20Z</time>
      </trkpt>
      <trkpt lat="44.62898" lon="0.87883">
        <ele>198.9</ele>
        <time>2018-07-22T14:18:21Z</time>
      </trkpt>
      <trkpt lat="44.62902" lon="0.87881">
        <ele>198.8</ele>
        <time>2018-07-22T14:18:22Z</time>
      </trkpt>
      <trkpt lat="44.62905" lon="0.87878">
        <ele>198.9</ele>
        <time>2018-07-22T14:18:23Z</time>
      </trkpt>
      <trkpt lat="44.62908" lon="0.87876">
        <ele>198.8</ele>
        <time>2018-07-22T14:18:24Z</time>
      </trkpt>
      <trkpt lat="44.62911" lon="0.87873">
        <ele>198.8</ele>
        <time>2018-07-22T14:18:25Z</time>
      </trkpt>
      <trkpt lat="44.62913" lon="0.87871">
        <ele>198.9</ele>
        <time>2018-07-22T14:18:26Z</time>
      </trkpt>
      <trkpt lat="44.62916" lon="0.87869">
        <ele>199</ele>
        <time>2018-07-22T14:18:27Z</time>
      </trkpt>
      <trkpt lat="44.6292" lon="0.87866">
        <ele>199</ele>
        <time>2018-07-22T14:18:29Z</time>
      </trkpt>
      <trkpt lat="44.62924" lon="0.87862">
        <ele>199.2</ele>
        <time>2018-07-22T14:18:31Z</time>
      </trkpt>
      <trkpt lat="44.62929" lon="0.8786">
        <ele>199.2</ele>
        <time>2018-07-22T14:18:33Z</time>
      </trkpt>
      <trkpt lat="44.62932" lon="0.87859">
        <ele>199.2</ele>
        <time>2018-07-22T14:18:35Z</time>
      </trkpt>
      <trkpt lat="44.62935" lon="0.87858">
        <ele>199.2</ele>
        <time>2018-07-22T14:18:37Z</time>
      </trkpt>
      <trkpt lat="44.62939" lon="0.87854">
        <ele>199.1</ele>
        <time>2018-07-22T14:18:39Z</time>
      </trkpt>
      <trkpt lat="44.62943" lon="0.87849">
        <ele>199.1</ele>
        <time>2018-07-22T14:18:41Z</time>
      </trkpt>
      <trkpt lat="44.62945" lon="0.87843">
        <ele>199.1</ele>
        <time>2018-07-22T14:18:43Z</time>
      </trkpt>
      <trkpt lat="44.62947" lon="0.87837">
        <ele>199</ele>
        <time>2018-07-22T14:18:45Z</time>
      </trkpt>
      <trkpt lat="44.62949" lon="0.87833">
        <ele>199</ele>
        <time>2018-07-22T14:18:46Z</time>
      </trkpt>
      <trkpt lat="44.62951" lon="0.87828">
        <ele>199</ele>
        <time>2018-07-22T14:18:47Z</time>
      </trkpt>
      <trkpt lat="44.62952" lon="0.87824">
        <ele>199</ele>
        <time>2018-07-22T14:18:48Z</time>
      </trkpt>
      <trkpt lat="44.62954" lon="0.87819">
        <ele>199</ele>
        <time>2018-07-22T14:18:49Z</time>
      </trkpt>
      <trkpt lat="44.62955" lon="0.87815">
        <ele>198.9</ele>
        <time>2018-07-22T14:18:50Z</time>
      </trkpt>
      <trkpt lat="44.62956" lon="0.8781">
        <ele>198.8</ele>
        <time>2018-07-22T14:18:51Z</time>
      </trkpt>
      <trkpt lat="44.62958" lon="0.87805">
        <ele>198.8</ele>
        <time>2018-07-22T14:18:52Z</time>
      </trkpt>
      <trkpt lat="44.62959" lon="0.87801">
        <ele>198.7</ele>
        <time>2018-07-22T14:18:53Z</time>
      </trkpt>
      <trkpt lat="44.6296" lon="0.87796">
        <ele>198.6</ele>
        <time>2018-07-22T14:18:54Z</time>
      </trkpt>
      <trkpt lat="44.62961" lon="0.87791">
        <ele>198.6</ele>
        <time>2018-07-22T14:18:55Z</time>
      </trkpt>
      <trkpt lat="44.62962" lon="0.87787">
        <ele>198.5</ele>
        <time>2018-07-22T14:18:56Z</time>
      </trkpt>
      <trkpt lat="44.62964" lon="0.87782">
        <ele>198.4</ele>
        <time>2018-07-22T14:18:57Z</time>
      </trkpt>
      <trkpt lat="44.62965" lon="0.87778">
        <ele>198.3</ele>
        <time>2018-07-22T14:18:58Z</time>
      </trkpt>
      <trkpt lat="44.62967" lon="0.87773">
        <ele>198.3</ele>
        <time>2018-07-22T14:18:59Z</time>
      </trkpt>
      <trkpt lat="44.62968" lon="0.87769">
        <ele>198.2</ele>
        <time>2018-07-22T14:19:00Z</time>
      </trkpt>
      <trkpt lat="44.62969" lon="0.87764">
        <ele>198.1</ele>
        <time>2018-07-22T14:19:01Z</time>
      </trkpt>
      <trkpt lat="44.62971" lon="0.8776">
        <ele>198.1</ele>
        <time>2018-07-22T14:19:02Z</time>
      </trkpt>
      <trkpt lat="44.62972" lon="0.87756">
        <ele>198.1</ele>
        <time>2018-07-22T14:19:03Z</time>
      </trkpt>
      <trkpt lat="44.62973" lon="0.87751">
        <ele>198.1</ele>
        <time>2018-07-22T14:19:04Z</time>
      </trkpt>
      <trkpt lat="44.62975" lon="0.87746">
        <ele>198.1</ele>
        <time>2018-07-22T14:19:05Z</time>
      </trkpt>
      <trkpt lat="44.62976" lon="0.87741">
        <ele>198</ele>
        <time>2018-07-22T14:19:06Z</time>
      </trkpt>
      <trkpt lat="44.62977" lon="0.87737">
        <ele>198</ele>
        <time>2018-07-22T14:19:07Z</time>
      </trkpt>
      <trkpt lat="44.62978" lon="0.87733">
        <ele>198</ele>
        <time>2018-07-22T14:19:08Z</time>
      </trkpt>
      <trkpt lat="44.62979" lon="0.87727">
        <ele>198</ele>
        <time>2018-07-22T14:19:10Z</time>
      </trkpt>
      <trkpt lat="44.62981" lon="0.87719">
        <ele>198</ele>
        <time>2018-07-22T14:19:12Z</time>
      </trkpt>
      <trkpt lat="44.62981" lon="0.87715">
        <ele>198</ele>
        <time>2018-07-22T14:19:13Z</time>
      </trkpt>
      <trkpt lat="44.62982" lon="0.8771">
        <ele>197.9</ele>
        <time>2018-07-22T14:19:14Z</time>
      </trkpt>
      <trkpt lat="44.62982" lon="0.87705">
        <ele>197.9</ele>
        <time>2018-07-22T14:19:15Z</time>
      </trkpt>
      <trkpt lat="44.62982" lon="0.877">
        <ele>197.9</ele>
        <time>2018-07-22T14:19:16Z</time>
      </trkpt>
      <trkpt lat="44.62981" lon="0.87696">
        <ele>198</ele>
        <time>2018-07-22T14:19:17Z</time>
      </trkpt>
      <trkpt lat="44.62981" lon="0.87692">
        <ele>198</ele>
        <time>2018-07-22T14:19:18Z</time>
      </trkpt>
      <trkpt lat="44.6298" lon="0.87688">
        <ele>198</ele>
        <time>2018-07-22T14:19:19Z</time>
      </trkpt>
      <trkpt lat="44.62978" lon="0.87683">
        <ele>198.1</ele>
        <time>2018-07-22T14:19:21Z</time>
      </trkpt>
      <trkpt lat="44.62976" lon="0.8768">
        <ele>198.1</ele>
        <time>2018-07-22T14:19:23Z</time>
      </trkpt>
      <trkpt lat="44.62974" lon="0.87683">
        <ele>198.1</ele>
        <time>2018-07-22T14:19:29Z</time>
      </trkpt>
      <trkpt lat="44.62973" lon="0.87679">
        <ele>198.2</ele>
        <time>2018-07-22T14:19:36Z</time>
      </trkpt>
      <trkpt lat="44.62975" lon="0.8768">
        <ele>198.2</ele>
        <time>2018-07-22T14:23:00Z</time>
      </trkpt>
      <trkpt lat="44.62975" lon="0.87683">
        <ele>198.2</ele>
        <time>2018-07-22T14:23:02Z</time>
      </trkpt>
      <trkpt lat="44.62975" lon="0.8768">
        <ele>198.3</ele>
        <time>2018-07-22T14:23:12Z</time>
      </trkpt>
      <trkpt lat="44.62975" lon="0.87676">
        <ele>198.3</ele>
        <time>2018-07-22T14:23:15Z</time>
      </trkpt>
      <trkpt lat="44.62974" lon="0.87671">
        <ele>198.3</ele>
        <time>2018-07-22T14:23:18Z</time>
      </trkpt>
      <trkpt lat="44.62974" lon="0.87667">
        <ele>198.4</ele>
        <time>2018-07-22T14:23:22Z</time>
      </trkpt>
      <trkpt lat="44.62971" lon="0.87664">
        <ele>198.4</ele>
        <time>2018-07-22T14:23:24Z</time>
      </trkpt>
      <trkpt lat="44.62967" lon="0.8766">
        <ele>198.5</ele>
        <time>2018-07-22T14:23:26Z</time>
      </trkpt>
      <trkpt lat="44.62965" lon="0.87657">
        <ele>198.5</ele>
        <time>2018-07-22T14:23:27Z</time>
      </trkpt>
      <trkpt lat="44.62963" lon="0.87653">
        <ele>198.5</ele>
        <time>2018-07-22T14:23:28Z</time>
      </trkpt>
      <trkpt lat="44.6296" lon="0.87649">
        <ele>198.5</ele>
        <time>2018-07-22T14:23:29Z</time>
      </trkpt>
      <trkpt lat="44.62955" lon="0.87645">
        <ele>198.6</ele>
        <time>2018-07-22T14:23:30Z</time>
      </trkpt>
      <trkpt lat="44.62951" lon="0.87641">
        <ele>198.6</ele>
        <time>2018-07-22T14:23:31Z</time>
      </trkpt>
      <trkpt lat="44.62948" lon="0.87637">
        <ele>198.6</ele>
        <time>2018-07-22T14:23:32Z</time>
      </trkpt>
      <trkpt lat="44.62943" lon="0.87633">
        <ele>198.6</ele>
        <time>2018-07-22T14:23:33Z</time>
      </trkpt>
      <trkpt lat="44.62938" lon="0.87629">
        <ele>198.6</ele>
        <time>2018-07-22T14:23:34Z</time>
      </trkpt>
      <trkpt lat="44.62934" lon="0.87624">
        <ele>198.6</ele>
        <time>2018-07-22T14:23:35Z</time>
      </trkpt>
      <trkpt lat="44.6293" lon="0.8762">
        <ele>198.6</ele>
        <time>2018-07-22T14:23:36Z</time>
      </trkpt>
      <trkpt lat="44.62925" lon="0.87616">
        <ele>198.6</ele>
        <time>2018-07-22T14:23:37Z</time>
      </trkpt>
      <trkpt lat="44.6292" lon="0.87612">
        <ele>198.6</ele>
        <time>2018-07-22T14:23:38Z</time>
      </trkpt>
      <trkpt lat="44.62915" lon="0.8761">
        <ele>198.6</ele>
        <time>2018-07-22T14:23:39Z</time>
      </trkpt>
      <trkpt lat="44.62911" lon="0.87606">
        <ele>198.6</ele>
        <time>2018-07-22T14:23:40Z</time>
      </trkpt>
      <trkpt lat="44.62909" lon="0.87601">
        <ele>198.6</ele>
        <time>2018-07-22T14:23:41Z</time>
      </trkpt>
      <trkpt lat="44.62905" lon="0.87597">
        <ele>198.6</ele>
        <time>2018-07-22T14:23:42Z</time>
      </trkpt>
      <trkpt lat="44.62901" lon="0.87593">
        <ele>198.6</ele>
        <time>2018-07-22T14:23:43Z</time>
      </trkpt>
      <trkpt lat="44.62896" lon="0.87588">
        <ele>198.7</ele>
        <time>2018-07-22T14:23:44Z</time>
      </trkpt>
      <trkpt lat="44.62891" lon="0.87584">
        <ele>198.8</ele>
        <time>2018-07-22T14:23:45Z</time>
      </trkpt>
      <trkpt lat="44.62886" lon="0.87579">
        <ele>198.8</ele>
        <time>2018-07-22T14:23:46Z</time>
      </trkpt>
      <trkpt lat="44.62882" lon="0.87575">
        <ele>199.1</ele>
        <time>2018-07-22T14:23:47Z</time>
      </trkpt>
      <trkpt lat="44.62878" lon="0.87571">
        <ele>199.3</ele>
        <time>2018-07-22T14:23:48Z</time>
      </trkpt>
      <trkpt lat="44.62875" lon="0.87567">
        <ele>199.4</ele>
        <time>2018-07-22T14:23:49Z</time>
      </trkpt>
      <trkpt lat="44.6287" lon="0.87563">
        <ele>199.5</ele>
        <time>2018-07-22T14:23:50Z</time>
      </trkpt>
      <trkpt lat="44.62867" lon="0.87561">
        <ele>199.6</ele>
        <time>2018-07-22T14:23:51Z</time>
      </trkpt>
      <trkpt lat="44.62864" lon="0.87558">
        <ele>199.7</ele>
        <time>2018-07-22T14:23:52Z</time>
      </trkpt>
      <trkpt lat="44.6286" lon="0.87553">
        <ele>199.8</ele>
        <time>2018-07-22T14:23:53Z</time>
      </trkpt>
      <trkpt lat="44.62857" lon="0.87547">
        <ele>200</ele>
        <time>2018-07-22T14:23:54Z</time>
      </trkpt>
      <trkpt lat="44.62853" lon="0.87543">
        <ele>200</ele>
        <time>2018-07-22T14:23:55Z</time>
      </trkpt>
      <trkpt lat="44.62849" lon="0.87539">
        <ele>200</ele>
        <time>2018-07-22T14:23:56Z</time>
      </trkpt>
      <trkpt lat="44.62841" lon="0.87536">
        <ele>199.9</ele>
        <time>2018-07-22T14:23:57Z</time>
      </trkpt>
      <trkpt lat="44.62838" lon="0.87533">
        <ele>199.9</ele>
        <time>2018-07-22T14:23:58Z</time>
      </trkpt>
      <trkpt lat="44.62833" lon="0.87529">
        <ele>199.8</ele>
        <time>2018-07-22T14:23:59Z</time>
      </trkpt>
      <trkpt lat="44.62829" lon="0.87526">
        <ele>199.8</ele>
        <time>2018-07-22T14:24:00Z</time>
      </trkpt>
      <trkpt lat="44.62825" lon="0.87523">
        <ele>199.7</ele>
        <time>2018-07-22T14:24:01Z</time>
      </trkpt>
      <trkpt lat="44.62822" lon="0.8752">
        <ele>199.6</ele>
        <time>2018-07-22T14:24:02Z</time>
      </trkpt>
      <trkpt lat="44.62818" lon="0.87517">
        <ele>199.3</ele>
        <time>2018-07-22T14:24:03Z</time>
      </trkpt>
      <trkpt lat="44.62814" lon="0.87511">
        <ele>198.8</ele>
        <time>2018-07-22T14:24:04Z</time>
      </trkpt>
      <trkpt lat="44.62809" lon="0.87507">
        <ele>198.5</ele>
        <time>2018-07-22T14:24:05Z</time>
      </trkpt>
      <trkpt lat="44.62805" lon="0.87503">
        <ele>198.3</ele>
        <time>2018-07-22T14:24:06Z</time>
      </trkpt>
      <trkpt lat="44.62801" lon="0.87499">
        <ele>198.1</ele>
        <time>2018-07-22T14:24:07Z</time>
      </trkpt>
      <trkpt lat="44.62796" lon="0.87493">
        <ele>197.9</ele>
        <time>2018-07-22T14:24:08Z</time>
      </trkpt>
      <trkpt lat="44.6279" lon="0.87489">
        <ele>197.6</ele>
        <time>2018-07-22T14:24:09Z</time>
      </trkpt>
      <trkpt lat="44.62783" lon="0.87485">
        <ele>197.2</ele>
        <time>2018-07-22T14:24:10Z</time>
      </trkpt>
      <trkpt lat="44.62777" lon="0.87479">
        <ele>196.6</ele>
        <time>2018-07-22T14:24:11Z</time>
      </trkpt>
      <trkpt lat="44.6277" lon="0.87475">
        <ele>196</ele>
        <time>2018-07-22T14:24:12Z</time>
      </trkpt>
      <trkpt lat="44.62764" lon="0.87468">
        <ele>195.4</ele>
        <time>2018-07-22T14:24:13Z</time>
      </trkpt>
      <trkpt lat="44.62758" lon="0.87462">
        <ele>194.8</ele>
        <time>2018-07-22T14:24:14Z</time>
      </trkpt>
      <trkpt lat="44.62751" lon="0.87456">
        <ele>194.4</ele>
        <time>2018-07-22T14:24:15Z</time>
      </trkpt>
      <trkpt lat="44.62744" lon="0.87448">
        <ele>193.9</ele>
        <time>2018-07-22T14:24:16Z</time>
      </trkpt>
      <trkpt lat="44.62737" lon="0.8744">
        <ele>193.2</ele>
        <time>2018-07-22T14:24:17Z</time>
      </trkpt>
      <trkpt lat="44.6273" lon="0.87432">
        <ele>192.5</ele>
        <time>2018-07-22T14:24:18Z</time>
      </trkpt>
      <trkpt lat="44.62723" lon="0.87425">
        <ele>192.2</ele>
        <time>2018-07-22T14:24:19Z</time>
      </trkpt>
      <trkpt lat="44.62715" lon="0.87417">
        <ele>191.9</ele>
        <time>2018-07-22T14:24:20Z</time>
      </trkpt>
      <trkpt lat="44.62708" lon="0.8741">
        <ele>191.7</ele>
        <time>2018-07-22T14:24:21Z</time>
      </trkpt>
      <trkpt lat="44.62703" lon="0.87402">
        <ele>191.6</ele>
        <time>2018-07-22T14:24:22Z</time>
      </trkpt>
      <trkpt lat="44.62694" lon="0.87394">
        <ele>191.5</ele>
        <time>2018-07-22T14:24:23Z</time>
      </trkpt>
      <trkpt lat="44.62687" lon="0.87386">
        <ele>191.4</ele>
        <time>2018-07-22T14:24:24Z</time>
      </trkpt>
      <trkpt lat="44.6268" lon="0.87378">
        <ele>191.1</ele>
        <time>2018-07-22T14:24:25Z</time>
      </trkpt>
      <trkpt lat="44.62674" lon="0.8737">
        <ele>190.7</ele>
        <time>2018-07-22T14:24:26Z</time>
      </trkpt>
      <trkpt lat="44.62669" lon="0.8736">
        <ele>190.3</ele>
        <time>2018-07-22T14:24:27Z</time>
      </trkpt>
      <trkpt lat="44.62662" lon="0.87351">
        <ele>190</ele>
        <time>2018-07-22T14:24:28Z</time>
      </trkpt>
      <trkpt lat="44.62657" lon="0.87344">
        <ele>189.8</ele>
        <time>2018-07-22T14:24:29Z</time>
      </trkpt>
      <trkpt lat="44.62652" lon="0.87336">
        <ele>189.7</ele>
        <time>2018-07-22T14:24:30Z</time>
      </trkpt>
      <trkpt lat="44.62645" lon="0.87326">
        <ele>189.4</ele>
        <time>2018-07-22T14:24:31Z</time>
      </trkpt>
      <trkpt lat="44.62638" lon="0.87319">
        <ele>189</ele>
        <time>2018-07-22T14:24:32Z</time>
      </trkpt>
      <trkpt lat="44.62635" lon="0.87312">
        <ele>188.7</ele>
        <time>2018-07-22T14:24:33Z</time>
      </trkpt>
      <trkpt lat="44.62629" lon="0.87305">
        <ele>188.4</ele>
        <time>2018-07-22T14:24:34Z</time>
      </trkpt>
      <trkpt lat="44.62623" lon="0.87298">
        <ele>188.4</ele>
        <time>2018-07-22T14:24:35Z</time>
      </trkpt>
      <trkpt lat="44.62617" lon="0.87291">
        <ele>188.3</ele>
        <time>2018-07-22T14:24:36Z</time>
      </trkpt>
      <trkpt lat="44.6261" lon="0.87283">
        <ele>188.2</ele>
        <time>2018-07-22T14:24:37Z</time>
      </trkpt>
      <trkpt lat="44.62604" lon="0.87276">
        <ele>188.1</ele>
        <time>2018-07-22T14:24:38Z</time>
      </trkpt>
      <trkpt lat="44.62598" lon="0.87268">
        <ele>188.1</ele>
        <time>2018-07-22T14:24:39Z</time>
      </trkpt>
      <trkpt lat="44.62594" lon="0.8726">
        <ele>188</ele>
        <time>2018-07-22T14:24:40Z</time>
      </trkpt>
      <trkpt lat="44.62587" lon="0.87253">
        <ele>188</ele>
        <time>2018-07-22T14:24:41Z</time>
      </trkpt>
      <trkpt lat="44.62583" lon="0.87247">
        <ele>188</ele>
        <time>2018-07-22T14:24:42Z</time>
      </trkpt>
      <trkpt lat="44.62576" lon="0.8724">
        <ele>187.9</ele>
        <time>2018-07-22T14:24:43Z</time>
      </trkpt>
      <trkpt lat="44.62569" lon="0.87233">
        <ele>187.9</ele>
        <time>2018-07-22T14:24:44Z</time>
      </trkpt>
      <trkpt lat="44.62562" lon="0.87226">
        <ele>187.9</ele>
        <time>2018-07-22T14:24:45Z</time>
      </trkpt>
      <trkpt lat="44.62555" lon="0.8722">
        <ele>187.9</ele>
        <time>2018-07-22T14:24:46Z</time>
      </trkpt>
      <trkpt lat="44.62549" lon="0.87213">
        <ele>187.9</ele>
        <time>2018-07-22T14:24:47Z</time>
      </trkpt>
      <trkpt lat="44.62541" lon="0.87206">
        <ele>187.9</ele>
        <time>2018-07-22T14:24:48Z</time>
      </trkpt>
      <trkpt lat="44.62535" lon="0.872">
        <ele>187.9</ele>
        <time>2018-07-22T14:24:49Z</time>
      </trkpt>
      <trkpt lat="44.6253" lon="0.87194">
        <ele>187.9</ele>
        <time>2018-07-22T14:24:50Z</time>
      </trkpt>
      <trkpt lat="44.62524" lon="0.87188">
        <ele>187.9</ele>
        <time>2018-07-22T14:24:51Z</time>
      </trkpt>
      <trkpt lat="44.62517" lon="0.87186">
        <ele>187.9</ele>
        <time>2018-07-22T14:24:52Z</time>
      </trkpt>
      <trkpt lat="44.62512" lon="0.87185">
        <ele>187.9</ele>
        <time>2018-07-22T14:24:53Z</time>
      </trkpt>
      <trkpt lat="44.62506" lon="0.87186">
        <ele>187.9</ele>
        <time>2018-07-22T14:24:54Z</time>
      </trkpt>
      <trkpt lat="44.62498" lon="0.87183">
        <ele>187.9</ele>
        <time>2018-07-22T14:24:55Z</time>
      </trkpt>
      <trkpt lat="44.62492" lon="0.8718">
        <ele>187.9</ele>
        <time>2018-07-22T14:24:56Z</time>
      </trkpt>
      <trkpt lat="44.62486" lon="0.87176">
        <ele>187.9</ele>
        <time>2018-07-22T14:24:57Z</time>
      </trkpt>
      <trkpt lat="44.6248" lon="0.87171">
        <ele>187.9</ele>
        <time>2018-07-22T14:24:58Z</time>
      </trkpt>
      <trkpt lat="44.62474" lon="0.87169">
        <ele>187.9</ele>
        <time>2018-07-22T14:24:59Z</time>
      </trkpt>
      <trkpt lat="44.62471" lon="0.87169">
        <ele>187.9</ele>
        <time>2018-07-22T14:25:00Z</time>
      </trkpt>
      <trkpt lat="44.62469" lon="0.87175">
        <ele>187.9</ele>
        <time>2018-07-22T14:25:01Z</time>
      </trkpt>
      <trkpt lat="44.62465" lon="0.87181">
        <ele>187.9</ele>
        <time>2018-07-22T14:25:02Z</time>
      </trkpt>
      <trkpt lat="44.62458" lon="0.87188">
        <ele>188.4</ele>
        <time>2018-07-22T14:25:03Z</time>
      </trkpt>
      <trkpt lat="44.62453" lon="0.87193">
        <ele>188.6</ele>
        <time>2018-07-22T14:25:04Z</time>
      </trkpt>
      <trkpt lat="44.62449" lon="0.87199">
        <ele>189</ele>
        <time>2018-07-22T14:25:05Z</time>
      </trkpt>
      <trkpt lat="44.62448" lon="0.87206">
        <ele>189.1</ele>
        <time>2018-07-22T14:25:06Z</time>
      </trkpt>
      <trkpt lat="44.6245" lon="0.87214">
        <ele>189.2</ele>
        <time>2018-07-22T14:25:07Z</time>
      </trkpt>
      <trkpt lat="44.62447" lon="0.87222">
        <ele>189.5</ele>
        <time>2018-07-22T14:25:08Z</time>
      </trkpt>
      <trkpt lat="44.62444" lon="0.87232">
        <ele>189.7</ele>
        <time>2018-07-22T14:25:09Z</time>
      </trkpt>
      <trkpt lat="44.62438" lon="0.87242">
        <ele>189.8</ele>
        <time>2018-07-22T14:25:10Z</time>
      </trkpt>
      <trkpt lat="44.62433" lon="0.87252">
        <ele>190</ele>
        <time>2018-07-22T14:25:11Z</time>
      </trkpt>
      <trkpt lat="44.62427" lon="0.87262">
        <ele>190.3</ele>
        <time>2018-07-22T14:25:12Z</time>
      </trkpt>
      <trkpt lat="44.62417" lon="0.87271">
        <ele>190.8</ele>
        <time>2018-07-22T14:25:13Z</time>
      </trkpt>
      <trkpt lat="44.62409" lon="0.87282">
        <ele>191.2</ele>
        <time>2018-07-22T14:25:14Z</time>
      </trkpt>
      <trkpt lat="44.62402" lon="0.87286">
        <ele>191.5</ele>
        <time>2018-07-22T14:25:15Z</time>
      </trkpt>
      <trkpt lat="44.62407" lon="0.87297">
        <ele>190.9</ele>
        <time>2018-07-22T14:25:16Z</time>
      </trkpt>
      <trkpt lat="44.62419" lon="0.87307">
        <ele>189.7</ele>
        <time>2018-07-22T14:25:17Z</time>
      </trkpt>
      <trkpt lat="44.6241" lon="0.87309">
        <ele>190.2</ele>
        <time>2018-07-22T14:25:18Z</time>
      </trkpt>
      <trkpt lat="44.624" lon="0.87318">
        <ele>190.5</ele>
        <time>2018-07-22T14:25:19Z</time>
      </trkpt>
      <trkpt lat="44.62396" lon="0.87326">
        <ele>190.4</ele>
        <time>2018-07-22T14:25:20Z</time>
      </trkpt>
      <trkpt lat="44.62399" lon="0.87337">
        <ele>189.8</ele>
        <time>2018-07-22T14:25:21Z</time>
      </trkpt>
      <trkpt lat="44.62399" lon="0.87347">
        <ele>189.1</ele>
        <time>2018-07-22T14:25:22Z</time>
      </trkpt>
      <trkpt lat="44.62395" lon="0.87356">
        <ele>189.1</ele>
        <time>2018-07-22T14:25:23Z</time>
      </trkpt>
      <trkpt lat="44.62388" lon="0.87361">
        <ele>189.3</ele>
        <time>2018-07-22T14:25:24Z</time>
      </trkpt>
      <trkpt lat="44.62382" lon="0.87367">
        <ele>189.3</ele>
        <time>2018-07-22T14:25:25Z</time>
      </trkpt>
      <trkpt lat="44.62379" lon="0.87372">
        <ele>189.4</ele>
        <time>2018-07-22T14:25:26Z</time>
      </trkpt>
      <trkpt lat="44.62372" lon="0.87382">
        <ele>189.7</ele>
        <time>2018-07-22T14:25:27Z</time>
      </trkpt>
      <trkpt lat="44.62368" lon="0.87391">
        <ele>189.8</ele>
        <time>2018-07-22T14:25:28Z</time>
      </trkpt>
      <trkpt lat="44.62364" lon="0.87398">
        <ele>190.3</ele>
        <time>2018-07-22T14:25:29Z</time>
      </trkpt>
      <trkpt lat="44.62359" lon="0.87403">
        <ele>190.5</ele>
        <time>2018-07-22T14:25:30Z</time>
      </trkpt>
      <trkpt lat="44.62354" lon="0.87405">
        <ele>191.2</ele>
        <time>2018-07-22T14:25:31Z</time>
      </trkpt>
      <trkpt lat="44.62351" lon="0.87414">
        <ele>191.1</ele>
        <time>2018-07-22T14:25:32Z</time>
      </trkpt>
      <trkpt lat="44.62347" lon="0.87422">
        <ele>191</ele>
        <time>2018-07-22T14:25:33Z</time>
      </trkpt>
      <trkpt lat="44.62343" lon="0.87429">
        <ele>191</ele>
        <time>2018-07-22T14:25:34Z</time>
      </trkpt>
      <trkpt lat="44.62344" lon="0.87438">
        <ele>190.4</ele>
        <time>2018-07-22T14:25:35Z</time>
      </trkpt>
      <trkpt lat="44.62341" lon="0.87445">
        <ele>190.1</ele>
        <time>2018-07-22T14:25:36Z</time>
      </trkpt>
      <trkpt lat="44.62338" lon="0.87453">
        <ele>189.9</ele>
        <time>2018-07-22T14:25:37Z</time>
      </trkpt>
      <trkpt lat="44.62336" lon="0.87459">
        <ele>189.9</ele>
        <time>2018-07-22T14:25:38Z</time>
      </trkpt>
      <trkpt lat="44.6233" lon="0.87468">
        <ele>189.7</ele>
        <time>2018-07-22T14:25:39Z</time>
      </trkpt>
      <trkpt lat="44.62329" lon="0.87461">
        <ele>190.3</ele>
        <time>2018-07-22T14:25:40Z</time>
      </trkpt>
      <trkpt lat="44.62332" lon="0.87461">
        <ele>190.1</ele>
        <time>2018-07-22T14:25:41Z</time>
      </trkpt>
      <trkpt lat="44.62329" lon="0.8746">
        <ele>190.3</ele>
        <time>2018-07-22T14:25:42Z</time>
      </trkpt>
      <trkpt lat="44.62321" lon="0.87458">
        <ele>190.7</ele>
        <time>2018-07-22T14:25:43Z</time>
      </trkpt>
      <trkpt lat="44.62317" lon="0.87457">
        <ele>191.1</ele>
        <time>2018-07-22T14:25:44Z</time>
      </trkpt>
      <trkpt lat="44.62314" lon="0.87458">
        <ele>190.9</ele>
        <time>2018-07-22T14:25:45Z</time>
      </trkpt>
      <trkpt lat="44.62309" lon="0.87455">
        <ele>191.4</ele>
        <time>2018-07-22T14:25:46Z</time>
      </trkpt>
      <trkpt lat="44.62306" lon="0.87453">
        <ele>191.8</ele>
        <time>2018-07-22T14:25:47Z</time>
      </trkpt>
      <trkpt lat="44.62299" lon="0.87447">
        <ele>192.2</ele>
        <time>2018-07-22T14:25:48Z</time>
      </trkpt>
      <trkpt lat="44.62295" lon="0.87444">
        <ele>192.5</ele>
        <time>2018-07-22T14:25:49Z</time>
      </trkpt>
      <trkpt lat="44.62291" lon="0.87441">
        <ele>192.5</ele>
        <time>2018-07-22T14:25:50Z</time>
      </trkpt>
      <trkpt lat="44.62285" lon="0.87439">
        <ele>192.7</ele>
        <time>2018-07-22T14:25:51Z</time>
      </trkpt>
      <trkpt lat="44.62275" lon="0.8744">
        <ele>192.6</ele>
        <time>2018-07-22T14:25:52Z</time>
      </trkpt>
      <trkpt lat="44.62263" lon="0.8744">
        <ele>192.4</ele>
        <time>2018-07-22T14:25:53Z</time>
      </trkpt>
      <trkpt lat="44.62255" lon="0.8744">
        <ele>192.2</ele>
        <time>2018-07-22T14:25:54Z</time>
      </trkpt>
      <trkpt lat="44.62251" lon="0.87438">
        <ele>192.2</ele>
        <time>2018-07-22T14:25:55Z</time>
      </trkpt>
      <trkpt lat="44.62247" lon="0.87438">
        <ele>192.1</ele>
        <time>2018-07-22T14:25:56Z</time>
      </trkpt>
      <trkpt lat="44.62243" lon="0.87437">
        <ele>192</ele>
        <time>2018-07-22T14:25:57Z</time>
      </trkpt>
      <trkpt lat="44.62237" lon="0.87436">
        <ele>191.9</ele>
        <time>2018-07-22T14:25:58Z</time>
      </trkpt>
      <trkpt lat="44.62232" lon="0.87433">
        <ele>191.9</ele>
        <time>2018-07-22T14:25:59Z</time>
      </trkpt>
      <trkpt lat="44.62228" lon="0.87432">
        <ele>191.8</ele>
        <time>2018-07-22T14:26:00Z</time>
      </trkpt>
      <trkpt lat="44.62222" lon="0.8743">
        <ele>191.8</ele>
        <time>2018-07-22T14:26:01Z</time>
      </trkpt>
      <trkpt lat="44.62213" lon="0.87428">
        <ele>191.6</ele>
        <time>2018-07-22T14:26:02Z</time>
      </trkpt>
      <trkpt lat="44.62208" lon="0.87427">
        <ele>191.5</ele>
        <time>2018-07-22T14:26:03Z</time>
      </trkpt>
      <trkpt lat="44.62205" lon="0.87426">
        <ele>191.5</ele>
        <time>2018-07-22T14:26:04Z</time>
      </trkpt>
      <trkpt lat="44.622" lon="0.87426">
        <ele>191.4</ele>
        <time>2018-07-22T14:26:05Z</time>
      </trkpt>
      <trkpt lat="44.62196" lon="0.87425">
        <ele>191.4</ele>
        <time>2018-07-22T14:26:06Z</time>
      </trkpt>
      <trkpt lat="44.62192" lon="0.87426">
        <ele>191.4</ele>
        <time>2018-07-22T14:26:07Z</time>
      </trkpt>
      <trkpt lat="44.62187" lon="0.87425">
        <ele>191.4</ele>
        <time>2018-07-22T14:26:08Z</time>
      </trkpt>
      <trkpt lat="44.62179" lon="0.87425">
        <ele>191.4</ele>
        <time>2018-07-22T14:26:09Z</time>
      </trkpt>
      <trkpt lat="44.62175" lon="0.87427">
        <ele>191.4</ele>
        <time>2018-07-22T14:26:10Z</time>
      </trkpt>
      <trkpt lat="44.62167" lon="0.87427">
        <ele>191.4</ele>
        <time>2018-07-22T14:26:11Z</time>
      </trkpt>
      <trkpt lat="44.62164" lon="0.87427">
        <ele>191.5</ele>
        <time>2018-07-22T14:26:12Z</time>
      </trkpt>
      <trkpt lat="44.62158" lon="0.87425">
        <ele>191.5</ele>
        <time>2018-07-22T14:26:13Z</time>
      </trkpt>
      <trkpt lat="44.62153" lon="0.87425">
        <ele>191.6</ele>
        <time>2018-07-22T14:26:14Z</time>
      </trkpt>
      <trkpt lat="44.62149" lon="0.87425">
        <ele>191.7</ele>
        <time>2018-07-22T14:26:15Z</time>
      </trkpt>
      <trkpt lat="44.62146" lon="0.87424">
        <ele>191.8</ele>
        <time>2018-07-22T14:26:16Z</time>
      </trkpt>
      <trkpt lat="44.62141" lon="0.87422">
        <ele>192</ele>
        <time>2018-07-22T14:26:17Z</time>
      </trkpt>
      <trkpt lat="44.62137" lon="0.87424">
        <ele>192</ele>
        <time>2018-07-22T14:26:18Z</time>
      </trkpt>
      <trkpt lat="44.62132" lon="0.87428">
        <ele>192.1</ele>
        <time>2018-07-22T14:26:19Z</time>
      </trkpt>
      <trkpt lat="44.62128" lon="0.87429">
        <ele>192.2</ele>
        <time>2018-07-22T14:26:20Z</time>
      </trkpt>
      <trkpt lat="44.62124" lon="0.87429">
        <ele>192.4</ele>
        <time>2018-07-22T14:26:21Z</time>
      </trkpt>
      <trkpt lat="44.62119" lon="0.8743">
        <ele>192.5</ele>
        <time>2018-07-22T14:26:22Z</time>
      </trkpt>
      <trkpt lat="44.62111" lon="0.87432">
        <ele>192.8</ele>
        <time>2018-07-22T14:26:23Z</time>
      </trkpt>
      <trkpt lat="44.62104" lon="0.87433">
        <ele>193</ele>
        <time>2018-07-22T14:26:24Z</time>
      </trkpt>
      <trkpt lat="44.62098" lon="0.8743">
        <ele>193.2</ele>
        <time>2018-07-22T14:26:26Z</time>
      </trkpt>
      <trkpt lat="44.62094" lon="0.87428">
        <ele>193.3</ele>
        <time>2018-07-22T14:26:27Z</time>
      </trkpt>
      <trkpt lat="44.62088" lon="0.87428">
        <ele>193.5</ele>
        <time>2018-07-22T14:26:28Z</time>
      </trkpt>
      <trkpt lat="44.62083" lon="0.87424">
        <ele>193.8</ele>
        <time>2018-07-22T14:26:29Z</time>
      </trkpt>
      <trkpt lat="44.6208" lon="0.87423">
        <ele>193.9</ele>
        <time>2018-07-22T14:26:30Z</time>
      </trkpt>
      <trkpt lat="44.62073" lon="0.8742">
        <ele>194.1</ele>
        <time>2018-07-22T14:26:31Z</time>
      </trkpt>
      <trkpt lat="44.62065" lon="0.87414">
        <ele>194.5</ele>
        <time>2018-07-22T14:26:32Z</time>
      </trkpt>
      <trkpt lat="44.62059" lon="0.87416">
        <ele>194.6</ele>
        <time>2018-07-22T14:26:34Z</time>
      </trkpt>
      <trkpt lat="44.62054" lon="0.87417">
        <ele>194.7</ele>
        <time>2018-07-22T14:26:35Z</time>
      </trkpt>
      <trkpt lat="44.62048" lon="0.87415">
        <ele>194.9</ele>
        <time>2018-07-22T14:26:36Z</time>
      </trkpt>
      <trkpt lat="44.62044" lon="0.87416">
        <ele>195.1</ele>
        <time>2018-07-22T14:26:37Z</time>
      </trkpt>
      <trkpt lat="44.62037" lon="0.87414">
        <ele>195.4</ele>
        <time>2018-07-22T14:26:38Z</time>
      </trkpt>
      <trkpt lat="44.62031" lon="0.87413">
        <ele>195.6</ele>
        <time>2018-07-22T14:26:39Z</time>
      </trkpt>
      <trkpt lat="44.62025" lon="0.8741">
        <ele>196</ele>
        <time>2018-07-22T14:26:40Z</time>
      </trkpt>
      <trkpt lat="44.62018" lon="0.8741">
        <ele>196.1</ele>
        <time>2018-07-22T14:26:42Z</time>
      </trkpt>
      <trkpt lat="44.62013" lon="0.87407">
        <ele>196.3</ele>
        <time>2018-07-22T14:26:43Z</time>
      </trkpt>
      <trkpt lat="44.62009" lon="0.87404">
        <ele>196.6</ele>
        <time>2018-07-22T14:26:44Z</time>
      </trkpt>
      <trkpt lat="44.62005" lon="0.87403">
        <ele>196.7</ele>
        <time>2018-07-22T14:26:45Z</time>
      </trkpt>
      <trkpt lat="44.62002" lon="0.87401">
        <ele>197</ele>
        <time>2018-07-22T14:26:46Z</time>
      </trkpt>
      <trkpt lat="44.61998" lon="0.87399">
        <ele>197.2</ele>
        <time>2018-07-22T14:26:47Z</time>
      </trkpt>
      <trkpt lat="44.61995" lon="0.87397">
        <ele>197.5</ele>
        <time>2018-07-22T14:26:48Z</time>
      </trkpt>
      <trkpt lat="44.61992" lon="0.87396">
        <ele>197.5</ele>
        <time>2018-07-22T14:26:49Z</time>
      </trkpt>
      <trkpt lat="44.61989" lon="0.87394">
        <ele>197.6</ele>
        <time>2018-07-22T14:26:50Z</time>
      </trkpt>
      <trkpt lat="44.61986" lon="0.87392">
        <ele>198</ele>
        <time>2018-07-22T14:26:51Z</time>
      </trkpt>
      <trkpt lat="44.61981" lon="0.87391">
        <ele>198.1</ele>
        <time>2018-07-22T14:26:52Z</time>
      </trkpt>
      <trkpt lat="44.61977" lon="0.87389">
        <ele>198.2</ele>
        <time>2018-07-22T14:26:53Z</time>
      </trkpt>
      <trkpt lat="44.61973" lon="0.87387">
        <ele>198.5</ele>
        <time>2018-07-22T14:26:54Z</time>
      </trkpt>
      <trkpt lat="44.6197" lon="0.87385">
        <ele>198.6</ele>
        <time>2018-07-22T14:26:55Z</time>
      </trkpt>
      <trkpt lat="44.61967" lon="0.87382">
        <ele>198.9</ele>
        <time>2018-07-22T14:26:56Z</time>
      </trkpt>
      <trkpt lat="44.61963" lon="0.87379">
        <ele>199.2</ele>
        <time>2018-07-22T14:26:57Z</time>
      </trkpt>
      <trkpt lat="44.61958" lon="0.87376">
        <ele>199.3</ele>
        <time>2018-07-22T14:26:58Z</time>
      </trkpt>
      <trkpt lat="44.61938" lon="0.87374">
        <ele>199.8</ele>
        <time>2018-07-22T14:27:00Z</time>
      </trkpt>
      <trkpt lat="44.61933" lon="0.87374">
        <ele>199.9</ele>
        <time>2018-07-22T14:27:01Z</time>
      </trkpt>
      <trkpt lat="44.61928" lon="0.87373">
        <ele>199.9</ele>
        <time>2018-07-22T14:27:02Z</time>
      </trkpt>
      <trkpt lat="44.61923" lon="0.87378">
        <ele>199.8</ele>
        <time>2018-07-22T14:27:03Z</time>
      </trkpt>
      <trkpt lat="44.61918" lon="0.87382">
        <ele>199.6</ele>
        <time>2018-07-22T14:27:04Z</time>
      </trkpt>
      <trkpt lat="44.61913" lon="0.87384">
        <ele>199.4</ele>
        <time>2018-07-22T14:27:05Z</time>
      </trkpt>
      <trkpt lat="44.61909" lon="0.87389">
        <ele>199.3</ele>
        <time>2018-07-22T14:27:06Z</time>
      </trkpt>
      <trkpt lat="44.61903" lon="0.87393">
        <ele>199.1</ele>
        <time>2018-07-22T14:27:07Z</time>
      </trkpt>
      <trkpt lat="44.61899" lon="0.87398">
        <ele>198.9</ele>
        <time>2018-07-22T14:27:08Z</time>
      </trkpt>
      <trkpt lat="44.61893" lon="0.874">
        <ele>198.8</ele>
        <time>2018-07-22T14:27:09Z</time>
      </trkpt>
      <trkpt lat="44.61888" lon="0.87404">
        <ele>198.4</ele>
        <time>2018-07-22T14:27:10Z</time>
      </trkpt>
      <trkpt lat="44.61872" lon="0.87405">
        <ele>197.9</ele>
        <time>2018-07-22T14:27:11Z</time>
      </trkpt>
      <trkpt lat="44.61858" lon="0.87412">
        <ele>197</ele>
        <time>2018-07-22T14:27:12Z</time>
      </trkpt>
      <trkpt lat="44.61851" lon="0.87421">
        <ele>196.2</ele>
        <time>2018-07-22T14:27:13Z</time>
      </trkpt>
      <trkpt lat="44.61842" lon="0.87425">
        <ele>195.5</ele>
        <time>2018-07-22T14:27:14Z</time>
      </trkpt>
      <trkpt lat="44.61838" lon="0.87429">
        <ele>195.1</ele>
        <time>2018-07-22T14:27:15Z</time>
      </trkpt>
      <trkpt lat="44.61834" lon="0.87435">
        <ele>194.7</ele>
        <time>2018-07-22T14:27:16Z</time>
      </trkpt>
      <trkpt lat="44.61825" lon="0.87443">
        <ele>193.7</ele>
        <time>2018-07-22T14:27:17Z</time>
      </trkpt>
      <trkpt lat="44.6182" lon="0.87448">
        <ele>193.2</ele>
        <time>2018-07-22T14:27:18Z</time>
      </trkpt>
      <trkpt lat="44.61811" lon="0.87451">
        <ele>192.6</ele>
        <time>2018-07-22T14:27:19Z</time>
      </trkpt>
      <trkpt lat="44.61801" lon="0.87453">
        <ele>192</ele>
        <time>2018-07-22T14:27:20Z</time>
      </trkpt>
      <trkpt lat="44.61796" lon="0.8745">
        <ele>191.7</ele>
        <time>2018-07-22T14:27:22Z</time>
      </trkpt>
      <trkpt lat="44.61791" lon="0.87451">
        <ele>191.2</ele>
        <time>2018-07-22T14:27:23Z</time>
      </trkpt>
      <trkpt lat="44.61782" lon="0.87452">
        <ele>190.6</ele>
        <time>2018-07-22T14:27:24Z</time>
      </trkpt>
      <trkpt lat="44.61773" lon="0.87452">
        <ele>189.7</ele>
        <time>2018-07-22T14:27:25Z</time>
      </trkpt>
      <trkpt lat="44.61768" lon="0.87456">
        <ele>189</ele>
        <time>2018-07-22T14:27:26Z</time>
      </trkpt>
      <trkpt lat="44.61764" lon="0.87456">
        <ele>188.8</ele>
        <time>2018-07-22T14:27:27Z</time>
      </trkpt>
      <trkpt lat="44.61759" lon="0.87457">
        <ele>188.3</ele>
        <time>2018-07-22T14:27:28Z</time>
      </trkpt>
      <trkpt lat="44.61756" lon="0.87456">
        <ele>188</ele>
        <time>2018-07-22T14:27:29Z</time>
      </trkpt>
      <trkpt lat="44.61751" lon="0.87455">
        <ele>187.3</ele>
        <time>2018-07-22T14:27:31Z</time>
      </trkpt>
      <trkpt lat="44.61746" lon="0.87456">
        <ele>187</ele>
        <time>2018-07-22T14:27:32Z</time>
      </trkpt>
      <trkpt lat="44.61737" lon="0.87454">
        <ele>186.1</ele>
        <time>2018-07-22T14:27:33Z</time>
      </trkpt>
      <trkpt lat="44.61723" lon="0.87451">
        <ele>184.2</ele>
        <time>2018-07-22T14:27:34Z</time>
      </trkpt>
      <trkpt lat="44.6172" lon="0.8745">
        <ele>183.9</ele>
        <time>2018-07-22T14:27:35Z</time>
      </trkpt>
      <trkpt lat="44.61703" lon="0.87433">
        <ele>181.1</ele>
        <time>2018-07-22T14:27:37Z</time>
      </trkpt>
      <trkpt lat="44.61696" lon="0.87427">
        <ele>180</ele>
        <time>2018-07-22T14:27:38Z</time>
      </trkpt>
      <trkpt lat="44.61685" lon="0.87421">
        <ele>178.7</ele>
        <time>2018-07-22T14:27:39Z</time>
      </trkpt>
      <trkpt lat="44.61678" lon="0.87417">
        <ele>178.3</ele>
        <time>2018-07-22T14:27:40Z</time>
      </trkpt>
      <trkpt lat="44.61671" lon="0.87412">
        <ele>177.8</ele>
        <time>2018-07-22T14:27:41Z</time>
      </trkpt>
      <trkpt lat="44.61666" lon="0.87409">
        <ele>177.7</ele>
        <time>2018-07-22T14:27:42Z</time>
      </trkpt>
      <trkpt lat="44.61659" lon="0.87405">
        <ele>177.3</ele>
        <time>2018-07-22T14:27:43Z</time>
      </trkpt>
      <trkpt lat="44.61653" lon="0.87402">
        <ele>177.1</ele>
        <time>2018-07-22T14:27:44Z</time>
      </trkpt>
      <trkpt lat="44.61645" lon="0.87399">
        <ele>177.1</ele>
        <time>2018-07-22T14:27:45Z</time>
      </trkpt>
      <trkpt lat="44.61641" lon="0.87394">
        <ele>177.3</ele>
        <time>2018-07-22T14:27:46Z</time>
      </trkpt>
      <trkpt lat="44.61637" lon="0.8739">
        <ele>177.3</ele>
        <time>2018-07-22T14:27:47Z</time>
      </trkpt>
      <trkpt lat="44.61633" lon="0.87388">
        <ele>177.4</ele>
        <time>2018-07-22T14:27:48Z</time>
      </trkpt>
      <trkpt lat="44.61629" lon="0.87384">
        <ele>177.3</ele>
        <time>2018-07-22T14:27:49Z</time>
      </trkpt>
      <trkpt lat="44.61625" lon="0.87381">
        <ele>177.4</ele>
        <time>2018-07-22T14:27:52Z</time>
      </trkpt>
      <trkpt lat="44.61622" lon="0.87379">
        <ele>177.6</ele>
        <time>2018-07-22T14:27:53Z</time>
      </trkpt>
      <trkpt lat="44.61619" lon="0.87377">
        <ele>177.5</ele>
        <time>2018-07-22T14:27:54Z</time>
      </trkpt>
      <trkpt lat="44.61616" lon="0.87376">
        <ele>177.7</ele>
        <time>2018-07-22T14:27:55Z</time>
      </trkpt>
      <trkpt lat="44.61614" lon="0.87369">
        <ele>178</ele>
        <time>2018-07-22T14:27:58Z</time>
      </trkpt>
      <trkpt lat="44.61612" lon="0.87367">
        <ele>178.2</ele>
        <time>2018-07-22T14:27:59Z</time>
      </trkpt>
      <trkpt lat="44.61611" lon="0.87363">
        <ele>178.4</ele>
        <time>2018-07-22T14:28:01Z</time>
      </trkpt>
      <trkpt lat="44.61613" lon="0.87359">
        <ele>178.5</ele>
        <time>2018-07-22T14:28:03Z</time>
      </trkpt>
      <trkpt lat="44.61615" lon="0.87356">
        <ele>178.6</ele>
        <time>2018-07-22T14:28:05Z</time>
      </trkpt>
      <trkpt lat="44.61616" lon="0.87351">
        <ele>178.9</ele>
        <time>2018-07-22T14:28:08Z</time>
      </trkpt>
      <trkpt lat="44.61615" lon="0.87346">
        <ele>179.3</ele>
        <time>2018-07-22T14:28:10Z</time>
      </trkpt>
      <trkpt lat="44.61616" lon="0.87342">
        <ele>179.6</ele>
        <time>2018-07-22T14:28:12Z</time>
      </trkpt>
      <trkpt lat="44.61617" lon="0.87339">
        <ele>180</ele>
        <time>2018-07-22T14:28:14Z</time>
      </trkpt>
      <trkpt lat="44.61618" lon="0.87334">
        <ele>180.3</ele>
        <time>2018-07-22T14:28:16Z</time>
      </trkpt>
      <trkpt lat="44.61619" lon="0.8733">
        <ele>180.7</ele>
        <time>2018-07-22T14:28:18Z</time>
      </trkpt>
      <trkpt lat="44.6162" lon="0.87324">
        <ele>181.2</ele>
        <time>2018-07-22T14:28:20Z</time>
      </trkpt>
      <trkpt lat="44.61621" lon="0.8732">
        <ele>181.5</ele>
        <time>2018-07-22T14:28:21Z</time>
      </trkpt>
      <trkpt lat="44.61622" lon="0.87315">
        <ele>181.8</ele>
        <time>2018-07-22T14:28:22Z</time>
      </trkpt>
      <trkpt lat="44.61623" lon="0.87311">
        <ele>182.2</ele>
        <time>2018-07-22T14:28:23Z</time>
      </trkpt>
      <trkpt lat="44.61624" lon="0.87307">
        <ele>182.6</ele>
        <time>2018-07-22T14:28:24Z</time>
      </trkpt>
      <trkpt lat="44.61625" lon="0.87302">
        <ele>183</ele>
        <time>2018-07-22T14:28:25Z</time>
      </trkpt>
      <trkpt lat="44.61625" lon="0.87298">
        <ele>183.3</ele>
        <time>2018-07-22T14:28:26Z</time>
      </trkpt>
      <trkpt lat="44.61626" lon="0.87293">
        <ele>183.6</ele>
        <time>2018-07-22T14:28:27Z</time>
      </trkpt>
      <trkpt lat="44.61627" lon="0.87289">
        <ele>183.8</ele>
        <time>2018-07-22T14:28:28Z</time>
      </trkpt>
      <trkpt lat="44.61628" lon="0.87284">
        <ele>184.1</ele>
        <time>2018-07-22T14:28:29Z</time>
      </trkpt>
      <trkpt lat="44.61629" lon="0.8728">
        <ele>184.3</ele>
        <time>2018-07-22T14:28:30Z</time>
      </trkpt>
      <trkpt lat="44.6163" lon="0.87275">
        <ele>184.6</ele>
        <time>2018-07-22T14:28:31Z</time>
      </trkpt>
      <trkpt lat="44.61631" lon="0.8727">
        <ele>184.8</ele>
        <time>2018-07-22T14:28:32Z</time>
      </trkpt>
      <trkpt lat="44.61633" lon="0.87266">
        <ele>185.1</ele>
        <time>2018-07-22T14:28:33Z</time>
      </trkpt>
      <trkpt lat="44.61634" lon="0.87261">
        <ele>185.3</ele>
        <time>2018-07-22T14:28:34Z</time>
      </trkpt>
      <trkpt lat="44.61636" lon="0.87256">
        <ele>185.5</ele>
        <time>2018-07-22T14:28:35Z</time>
      </trkpt>
      <trkpt lat="44.61638" lon="0.87251">
        <ele>185.7</ele>
        <time>2018-07-22T14:28:36Z</time>
      </trkpt>
      <trkpt lat="44.61641" lon="0.87246">
        <ele>185.9</ele>
        <time>2018-07-22T14:28:37Z</time>
      </trkpt>
      <trkpt lat="44.61643" lon="0.87241">
        <ele>186.2</ele>
        <time>2018-07-22T14:28:38Z</time>
      </trkpt>
      <trkpt lat="44.61645" lon="0.87236">
        <ele>186.6</ele>
        <time>2018-07-22T14:28:39Z</time>
      </trkpt>
      <trkpt lat="44.61647" lon="0.87231">
        <ele>186.8</ele>
        <time>2018-07-22T14:28:40Z</time>
      </trkpt>
      <trkpt lat="44.6165" lon="0.87224">
        <ele>187.1</ele>
        <time>2018-07-22T14:28:41Z</time>
      </trkpt>
      <trkpt lat="44.61652" lon="0.87217">
        <ele>187.4</ele>
        <time>2018-07-22T14:28:42Z</time>
      </trkpt>
      <trkpt lat="44.61653" lon="0.87212">
        <ele>187.6</ele>
        <time>2018-07-22T14:28:43Z</time>
      </trkpt>
      <trkpt lat="44.61656" lon="0.87204">
        <ele>188</ele>
        <time>2018-07-22T14:28:44Z</time>
      </trkpt>
      <trkpt lat="44.61658" lon="0.87196">
        <ele>188.5</ele>
        <time>2018-07-22T14:28:45Z</time>
      </trkpt>
      <trkpt lat="44.61659" lon="0.8719">
        <ele>188.8</ele>
        <time>2018-07-22T14:28:46Z</time>
      </trkpt>
      <trkpt lat="44.61662" lon="0.87182">
        <ele>189.1</ele>
        <time>2018-07-22T14:28:47Z</time>
      </trkpt>
      <trkpt lat="44.61664" lon="0.87176">
        <ele>189.3</ele>
        <time>2018-07-22T14:28:48Z</time>
      </trkpt>
      <trkpt lat="44.61667" lon="0.87169">
        <ele>189.5</ele>
        <time>2018-07-22T14:28:49Z</time>
      </trkpt>
      <trkpt lat="44.61669" lon="0.87162">
        <ele>189.7</ele>
        <time>2018-07-22T14:28:50Z</time>
      </trkpt>
      <trkpt lat="44.61673" lon="0.87156">
        <ele>189.8</ele>
        <time>2018-07-22T14:28:51Z</time>
      </trkpt>
      <trkpt lat="44.61676" lon="0.87149">
        <ele>189.8</ele>
        <time>2018-07-22T14:28:52Z</time>
      </trkpt>
      <trkpt lat="44.61679" lon="0.87142">
        <ele>189.7</ele>
        <time>2018-07-22T14:28:53Z</time>
      </trkpt>
      <trkpt lat="44.61683" lon="0.87136">
        <ele>189.7</ele>
        <time>2018-07-22T14:28:54Z</time>
      </trkpt>
      <trkpt lat="44.61687" lon="0.8713">
        <ele>189.6</ele>
        <time>2018-07-22T14:28:55Z</time>
      </trkpt>
      <trkpt lat="44.6169" lon="0.87125">
        <ele>189.5</ele>
        <time>2018-07-22T14:28:56Z</time>
      </trkpt>
      <trkpt lat="44.61693" lon="0.87119">
        <ele>189.5</ele>
        <time>2018-07-22T14:28:57Z</time>
      </trkpt>
      <trkpt lat="44.61696" lon="0.87113">
        <ele>189.4</ele>
        <time>2018-07-22T14:28:58Z</time>
      </trkpt>
      <trkpt lat="44.61699" lon="0.87109">
        <ele>189.3</ele>
        <time>2018-07-22T14:28:59Z</time>
      </trkpt>
      <trkpt lat="44.61702" lon="0.87103">
        <ele>189.3</ele>
        <time>2018-07-22T14:29:00Z</time>
      </trkpt>
      <trkpt lat="44.61704" lon="0.87098">
        <ele>189.3</ele>
        <time>2018-07-22T14:29:01Z</time>
      </trkpt>
      <trkpt lat="44.61707" lon="0.87092">
        <ele>189.4</ele>
        <time>2018-07-22T14:29:02Z</time>
      </trkpt>
      <trkpt lat="44.6171" lon="0.87087">
        <ele>189.5</ele>
        <time>2018-07-22T14:29:03Z</time>
      </trkpt>
      <trkpt lat="44.61713" lon="0.87082">
        <ele>189.6</ele>
        <time>2018-07-22T14:29:04Z</time>
      </trkpt>
      <trkpt lat="44.61715" lon="0.87078">
        <ele>189.7</ele>
        <time>2018-07-22T14:29:05Z</time>
      </trkpt>
      <trkpt lat="44.61718" lon="0.87073">
        <ele>189.8</ele>
        <time>2018-07-22T14:29:06Z</time>
      </trkpt>
      <trkpt lat="44.61721" lon="0.87067">
        <ele>190</ele>
        <time>2018-07-22T14:29:07Z</time>
      </trkpt>
      <trkpt lat="44.61725" lon="0.87062">
        <ele>190.1</ele>
        <time>2018-07-22T14:29:08Z</time>
      </trkpt>
      <trkpt lat="44.61728" lon="0.87056">
        <ele>190.3</ele>
        <time>2018-07-22T14:29:09Z</time>
      </trkpt>
      <trkpt lat="44.61729" lon="0.87052">
        <ele>190.4</ele>
        <time>2018-07-22T14:29:10Z</time>
      </trkpt>
      <trkpt lat="44.61731" lon="0.87048">
        <ele>190.4</ele>
        <time>2018-07-22T14:29:11Z</time>
      </trkpt>
      <trkpt lat="44.61734" lon="0.87042">
        <ele>190.6</ele>
        <time>2018-07-22T14:29:12Z</time>
      </trkpt>
      <trkpt lat="44.61736" lon="0.87037">
        <ele>190.7</ele>
        <time>2018-07-22T14:29:13Z</time>
      </trkpt>
      <trkpt lat="44.61738" lon="0.87033">
        <ele>190.8</ele>
        <time>2018-07-22T14:29:14Z</time>
      </trkpt>
      <trkpt lat="44.61741" lon="0.87029">
        <ele>191</ele>
        <time>2018-07-22T14:29:15Z</time>
      </trkpt>
      <trkpt lat="44.61744" lon="0.87024">
        <ele>191.2</ele>
        <time>2018-07-22T14:29:16Z</time>
      </trkpt>
      <trkpt lat="44.61747" lon="0.87018">
        <ele>191.4</ele>
        <time>2018-07-22T14:29:17Z</time>
      </trkpt>
      <trkpt lat="44.61749" lon="0.87014">
        <ele>191.5</ele>
        <time>2018-07-22T14:29:18Z</time>
      </trkpt>
      <trkpt lat="44.61752" lon="0.87008">
        <ele>191.6</ele>
        <time>2018-07-22T14:29:19Z</time>
      </trkpt>
      <trkpt lat="44.61754" lon="0.87003">
        <ele>191.8</ele>
        <time>2018-07-22T14:29:20Z</time>
      </trkpt>
      <trkpt lat="44.61756" lon="0.86997">
        <ele>191.8</ele>
        <time>2018-07-22T14:29:21Z</time>
      </trkpt>
      <trkpt lat="44.61758" lon="0.86992">
        <ele>191.8</ele>
        <time>2018-07-22T14:29:22Z</time>
      </trkpt>
      <trkpt lat="44.6176" lon="0.86987">
        <ele>191.7</ele>
        <time>2018-07-22T14:29:23Z</time>
      </trkpt>
      <trkpt lat="44.61762" lon="0.86981">
        <ele>191.7</ele>
        <time>2018-07-22T14:29:24Z</time>
      </trkpt>
      <trkpt lat="44.61763" lon="0.86976">
        <ele>191.6</ele>
        <time>2018-07-22T14:29:25Z</time>
      </trkpt>
      <trkpt lat="44.61765" lon="0.8697">
        <ele>191.6</ele>
        <time>2018-07-22T14:29:26Z</time>
      </trkpt>
      <trkpt lat="44.61766" lon="0.86965">
        <ele>191.6</ele>
        <time>2018-07-22T14:29:27Z</time>
      </trkpt>
      <trkpt lat="44.61767" lon="0.86959">
        <ele>191.6</ele>
        <time>2018-07-22T14:29:28Z</time>
      </trkpt>
      <trkpt lat="44.61768" lon="0.86953">
        <ele>191.5</ele>
        <time>2018-07-22T14:29:29Z</time>
      </trkpt>
      <trkpt lat="44.6177" lon="0.86947">
        <ele>191.5</ele>
        <time>2018-07-22T14:29:30Z</time>
      </trkpt>
      <trkpt lat="44.61772" lon="0.86942">
        <ele>191.5</ele>
        <time>2018-07-22T14:29:31Z</time>
      </trkpt>
      <trkpt lat="44.61773" lon="0.86936">
        <ele>191.6</ele>
        <time>2018-07-22T14:29:32Z</time>
      </trkpt>
      <trkpt lat="44.61774" lon="0.8693">
        <ele>191.6</ele>
        <time>2018-07-22T14:29:33Z</time>
      </trkpt>
      <trkpt lat="44.61776" lon="0.86925">
        <ele>191.6</ele>
        <time>2018-07-22T14:29:34Z</time>
      </trkpt>
      <trkpt lat="44.61777" lon="0.86919">
        <ele>191.7</ele>
        <time>2018-07-22T14:29:35Z</time>
      </trkpt>
      <trkpt lat="44.61778" lon="0.86914">
        <ele>191.8</ele>
        <time>2018-07-22T14:29:36Z</time>
      </trkpt>
      <trkpt lat="44.6178" lon="0.86908">
        <ele>191.9</ele>
        <time>2018-07-22T14:29:37Z</time>
      </trkpt>
      <trkpt lat="44.61781" lon="0.86903">
        <ele>192</ele>
        <time>2018-07-22T14:29:38Z</time>
      </trkpt>
      <trkpt lat="44.61782" lon="0.86897">
        <ele>192.2</ele>
        <time>2018-07-22T14:29:39Z</time>
      </trkpt>
      <trkpt lat="44.61783" lon="0.86892">
        <ele>192.5</ele>
        <time>2018-07-22T14:29:40Z</time>
      </trkpt>
      <trkpt lat="44.61784" lon="0.86887">
        <ele>192.8</ele>
        <time>2018-07-22T14:29:41Z</time>
      </trkpt>
      <trkpt lat="44.61785" lon="0.86882">
        <ele>193.1</ele>
        <time>2018-07-22T14:29:42Z</time>
      </trkpt>
      <trkpt lat="44.61786" lon="0.86877">
        <ele>193.4</ele>
        <time>2018-07-22T14:29:43Z</time>
      </trkpt>
      <trkpt lat="44.61787" lon="0.86872">
        <ele>193.6</ele>
        <time>2018-07-22T14:29:44Z</time>
      </trkpt>
      <trkpt lat="44.61788" lon="0.86868">
        <ele>193.8</ele>
        <time>2018-07-22T14:29:45Z</time>
      </trkpt>
      <trkpt lat="44.6179" lon="0.86864">
        <ele>194</ele>
        <time>2018-07-22T14:29:46Z</time>
      </trkpt>
      <trkpt lat="44.61791" lon="0.86859">
        <ele>193.8</ele>
        <time>2018-07-22T14:29:47Z</time>
      </trkpt>
      <trkpt lat="44.61793" lon="0.86854">
        <ele>193.7</ele>
        <time>2018-07-22T14:29:48Z</time>
      </trkpt>
      <trkpt lat="44.61794" lon="0.8685">
        <ele>193.7</ele>
        <time>2018-07-22T14:29:49Z</time>
      </trkpt>
      <trkpt lat="44.61796" lon="0.86845">
        <ele>193.6</ele>
        <time>2018-07-22T14:29:50Z</time>
      </trkpt>
      <trkpt lat="44.61797" lon="0.86841">
        <ele>193.5</ele>
        <time>2018-07-22T14:29:51Z</time>
      </trkpt>
      <trkpt lat="44.61798" lon="0.86836">
        <ele>193.4</ele>
        <time>2018-07-22T14:29:52Z</time>
      </trkpt>
      <trkpt lat="44.61799" lon="0.86831">
        <ele>193.3</ele>
        <time>2018-07-22T14:29:53Z</time>
      </trkpt>
      <trkpt lat="44.61799" lon="0.86826">
        <ele>193.2</ele>
        <time>2018-07-22T14:29:54Z</time>
      </trkpt>
      <trkpt lat="44.61799" lon="0.86822">
        <ele>193.1</ele>
        <time>2018-07-22T14:29:55Z</time>
      </trkpt>
      <trkpt lat="44.61799" lon="0.86817">
        <ele>193</ele>
        <time>2018-07-22T14:29:56Z</time>
      </trkpt>
      <trkpt lat="44.61798" lon="0.86812">
        <ele>192.9</ele>
        <time>2018-07-22T14:29:57Z</time>
      </trkpt>
      <trkpt lat="44.61797" lon="0.86808">
        <ele>192.8</ele>
        <time>2018-07-22T14:29:58Z</time>
      </trkpt>
      <trkpt lat="44.61796" lon="0.86805">
        <ele>192.6</ele>
        <time>2018-07-22T14:29:59Z</time>
      </trkpt>
      <trkpt lat="44.61795" lon="0.86801">
        <ele>192.5</ele>
        <time>2018-07-22T14:30:00Z</time>
      </trkpt>
      <trkpt lat="44.61794" lon="0.86798">
        <ele>192.4</ele>
        <time>2018-07-22T14:30:01Z</time>
      </trkpt>
      <trkpt lat="44.61792" lon="0.86794">
        <ele>192.2</ele>
        <time>2018-07-22T14:30:02Z</time>
      </trkpt>
      <trkpt lat="44.61789" lon="0.86789">
        <ele>192</ele>
        <time>2018-07-22T14:30:04Z</time>
      </trkpt>
      <trkpt lat="44.61786" lon="0.86785">
        <ele>191.7</ele>
        <time>2018-07-22T14:30:06Z</time>
      </trkpt>
      <trkpt lat="44.61782" lon="0.86781">
        <ele>190.9</ele>
        <time>2018-07-22T14:30:08Z</time>
      </trkpt>
      <trkpt lat="44.6178" lon="0.86775">
        <ele>190.8</ele>
        <time>2018-07-22T14:30:10Z</time>
      </trkpt>
      <trkpt lat="44.61781" lon="0.86768">
        <ele>190.7</ele>
        <time>2018-07-22T14:30:12Z</time>
      </trkpt>
      <trkpt lat="44.61783" lon="0.86764">
        <ele>190.6</ele>
        <time>2018-07-22T14:30:13Z</time>
      </trkpt>
      <trkpt lat="44.61785" lon="0.86761">
        <ele>190.5</ele>
        <time>2018-07-22T14:30:14Z</time>
      </trkpt>
      <trkpt lat="44.61788" lon="0.86758">
        <ele>190.5</ele>
        <time>2018-07-22T14:30:15Z</time>
      </trkpt>
      <trkpt lat="44.61791" lon="0.86755">
        <ele>190.4</ele>
        <time>2018-07-22T14:30:16Z</time>
      </trkpt>
      <trkpt lat="44.61793" lon="0.86753">
        <ele>190.3</ele>
        <time>2018-07-22T14:30:17Z</time>
      </trkpt>
      <trkpt lat="44.61796" lon="0.86751">
        <ele>190.3</ele>
        <time>2018-07-22T14:30:18Z</time>
      </trkpt>
      <trkpt lat="44.61798" lon="0.86748">
        <ele>190.2</ele>
        <time>2018-07-22T14:30:19Z</time>
      </trkpt>
      <trkpt lat="44.61803" lon="0.86744">
        <ele>190.1</ele>
        <time>2018-07-22T14:30:21Z</time>
      </trkpt>
      <trkpt lat="44.61807" lon="0.86742">
        <ele>190</ele>
        <time>2018-07-22T14:30:22Z</time>
      </trkpt>
      <trkpt lat="44.6181" lon="0.86738">
        <ele>189.9</ele>
        <time>2018-07-22T14:30:23Z</time>
      </trkpt>
      <trkpt lat="44.61813" lon="0.86733">
        <ele>189.9</ele>
        <time>2018-07-22T14:30:24Z</time>
      </trkpt>
      <trkpt lat="44.61815" lon="0.86725">
        <ele>189.8</ele>
        <time>2018-07-22T14:30:26Z</time>
      </trkpt>
      <trkpt lat="44.61818" lon="0.86719">
        <ele>189.7</ele>
        <time>2018-07-22T14:30:27Z</time>
      </trkpt>
      <trkpt lat="44.6182" lon="0.86712">
        <ele>189.7</ele>
        <time>2018-07-22T14:30:28Z</time>
      </trkpt>
      <trkpt lat="44.61826" lon="0.86707">
        <ele>189.6</ele>
        <time>2018-07-22T14:30:29Z</time>
      </trkpt>
      <trkpt lat="44.61826" lon="0.86704">
        <ele>189.5</ele>
        <time>2018-07-22T14:30:30Z</time>
      </trkpt>
      <trkpt lat="44.61824" lon="0.86692">
        <ele>189.5</ele>
        <time>2018-07-22T14:30:31Z</time>
      </trkpt>
      <trkpt lat="44.61824" lon="0.8668">
        <ele>189.4</ele>
        <time>2018-07-22T14:30:32Z</time>
      </trkpt>
      <trkpt lat="44.61823" lon="0.86676">
        <ele>189.3</ele>
        <time>2018-07-22T14:30:33Z</time>
      </trkpt>
      <trkpt lat="44.61825" lon="0.86669">
        <ele>189.3</ele>
        <time>2018-07-22T14:30:35Z</time>
      </trkpt>
      <trkpt lat="44.61834" lon="0.86663">
        <ele>189.2</ele>
        <time>2018-07-22T14:30:36Z</time>
      </trkpt>
      <trkpt lat="44.61836" lon="0.86658">
        <ele>189.2</ele>
        <time>2018-07-22T14:30:37Z</time>
      </trkpt>
      <trkpt lat="44.61837" lon="0.86653">
        <ele>189.1</ele>
        <time>2018-07-22T14:30:38Z</time>
      </trkpt>
      <trkpt lat="44.61843" lon="0.86645">
        <ele>189</ele>
        <time>2018-07-22T14:30:39Z</time>
      </trkpt>
      <trkpt lat="44.61844" lon="0.86638">
        <ele>189</ele>
        <time>2018-07-22T14:30:40Z</time>
      </trkpt>
      <trkpt lat="44.6185" lon="0.8663">
        <ele>189</ele>
        <time>2018-07-22T14:30:41Z</time>
      </trkpt>
      <trkpt lat="44.61854" lon="0.86624">
        <ele>189</ele>
        <time>2018-07-22T14:30:42Z</time>
      </trkpt>
      <trkpt lat="44.61856" lon="0.86618">
        <ele>189</ele>
        <time>2018-07-22T14:30:43Z</time>
      </trkpt>
      <trkpt lat="44.61859" lon="0.86612">
        <ele>189</ele>
        <time>2018-07-22T14:30:44Z</time>
      </trkpt>
      <trkpt lat="44.61863" lon="0.86604">
        <ele>189</ele>
        <time>2018-07-22T14:30:45Z</time>
      </trkpt>
      <trkpt lat="44.61866" lon="0.86597">
        <ele>188.9</ele>
        <time>2018-07-22T14:30:46Z</time>
      </trkpt>
      <trkpt lat="44.61868" lon="0.8659">
        <ele>188.8</ele>
        <time>2018-07-22T14:30:47Z</time>
      </trkpt>
      <trkpt lat="44.61871" lon="0.86583">
        <ele>188.8</ele>
        <time>2018-07-22T14:30:48Z</time>
      </trkpt>
      <trkpt lat="44.61874" lon="0.86575">
        <ele>188.6</ele>
        <time>2018-07-22T14:30:49Z</time>
      </trkpt>
      <trkpt lat="44.61878" lon="0.86568">
        <ele>188.6</ele>
        <time>2018-07-22T14:30:50Z</time>
      </trkpt>
      <trkpt lat="44.61883" lon="0.86561">
        <ele>188.5</ele>
        <time>2018-07-22T14:30:51Z</time>
      </trkpt>
      <trkpt lat="44.61886" lon="0.86555">
        <ele>188.3</ele>
        <time>2018-07-22T14:30:52Z</time>
      </trkpt>
      <trkpt lat="44.61888" lon="0.86549">
        <ele>188.3</ele>
        <time>2018-07-22T14:30:53Z</time>
      </trkpt>
      <trkpt lat="44.6189" lon="0.86543">
        <ele>188.3</ele>
        <time>2018-07-22T14:30:54Z</time>
      </trkpt>
      <trkpt lat="44.61891" lon="0.86536">
        <ele>188.2</ele>
        <time>2018-07-22T14:30:55Z</time>
      </trkpt>
      <trkpt lat="44.61889" lon="0.86528">
        <ele>188</ele>
        <time>2018-07-22T14:30:56Z</time>
      </trkpt>
      <trkpt lat="44.61887" lon="0.86522">
        <ele>187.9</ele>
        <time>2018-07-22T14:30:57Z</time>
      </trkpt>
      <trkpt lat="44.61886" lon="0.86515">
        <ele>187.8</ele>
        <time>2018-07-22T14:30:58Z</time>
      </trkpt>
      <trkpt lat="44.61886" lon="0.86508">
        <ele>187.7</ele>
        <time>2018-07-22T14:30:59Z</time>
      </trkpt>
      <trkpt lat="44.61886" lon="0.86501">
        <ele>187.7</ele>
        <time>2018-07-22T14:31:00Z</time>
      </trkpt>
      <trkpt lat="44.61889" lon="0.86493">
        <ele>187.7</ele>
        <time>2018-07-22T14:31:01Z</time>
      </trkpt>
      <trkpt lat="44.6189" lon="0.86484">
        <ele>187.6</ele>
        <time>2018-07-22T14:31:02Z</time>
      </trkpt>
      <trkpt lat="44.6189" lon="0.86476">
        <ele>187.6</ele>
        <time>2018-07-22T14:31:03Z</time>
      </trkpt>
      <trkpt lat="44.6189" lon="0.86469">
        <ele>187.5</ele>
        <time>2018-07-22T14:31:04Z</time>
      </trkpt>
      <trkpt lat="44.61889" lon="0.86462">
        <ele>187.5</ele>
        <time>2018-07-22T14:31:05Z</time>
      </trkpt>
      <trkpt lat="44.6189" lon="0.86456">
        <ele>187.4</ele>
        <time>2018-07-22T14:31:06Z</time>
      </trkpt>
      <trkpt lat="44.6189" lon="0.86449">
        <ele>187.4</ele>
        <time>2018-07-22T14:31:07Z</time>
      </trkpt>
      <trkpt lat="44.61892" lon="0.86441">
        <ele>187.3</ele>
        <time>2018-07-22T14:31:08Z</time>
      </trkpt>
      <trkpt lat="44.61889" lon="0.86434">
        <ele>187.1</ele>
        <time>2018-07-22T14:31:09Z</time>
      </trkpt>
      <trkpt lat="44.61896" lon="0.86424">
        <ele>187.1</ele>
        <time>2018-07-22T14:31:10Z</time>
      </trkpt>
      <trkpt lat="44.61895" lon="0.86417">
        <ele>186.9</ele>
        <time>2018-07-22T14:31:11Z</time>
      </trkpt>
      <trkpt lat="44.61896" lon="0.8641">
        <ele>186.8</ele>
        <time>2018-07-22T14:31:12Z</time>
      </trkpt>
      <trkpt lat="44.61897" lon="0.86404">
        <ele>186.6</ele>
        <time>2018-07-22T14:31:13Z</time>
      </trkpt>
      <trkpt lat="44.61895" lon="0.86398">
        <ele>186.5</ele>
        <time>2018-07-22T14:31:14Z</time>
      </trkpt>
      <trkpt lat="44.61892" lon="0.86391">
        <ele>186.3</ele>
        <time>2018-07-22T14:31:15Z</time>
      </trkpt>
      <trkpt lat="44.61886" lon="0.86382">
        <ele>186.2</ele>
        <time>2018-07-22T14:31:16Z</time>
      </trkpt>
      <trkpt lat="44.61887" lon="0.86373">
        <ele>186.1</ele>
        <time>2018-07-22T14:31:17Z</time>
      </trkpt>
      <trkpt lat="44.61887" lon="0.86366">
        <ele>186</ele>
        <time>2018-07-22T14:31:18Z</time>
      </trkpt>
      <trkpt lat="44.61887" lon="0.86358">
        <ele>185.8</ele>
        <time>2018-07-22T14:31:19Z</time>
      </trkpt>
      <trkpt lat="44.61885" lon="0.86349">
        <ele>185.7</ele>
        <time>2018-07-22T14:31:20Z</time>
      </trkpt>
      <trkpt lat="44.61885" lon="0.8634">
        <ele>185.5</ele>
        <time>2018-07-22T14:31:21Z</time>
      </trkpt>
      <trkpt lat="44.61885" lon="0.8633">
        <ele>185.3</ele>
        <time>2018-07-22T14:31:22Z</time>
      </trkpt>
      <trkpt lat="44.61886" lon="0.86321">
        <ele>185.1</ele>
        <time>2018-07-22T14:31:23Z</time>
      </trkpt>
      <trkpt lat="44.61885" lon="0.86311">
        <ele>184.7</ele>
        <time>2018-07-22T14:31:24Z</time>
      </trkpt>
      <trkpt lat="44.61884" lon="0.86302">
        <ele>184.4</ele>
        <time>2018-07-22T14:31:25Z</time>
      </trkpt>
      <trkpt lat="44.6188" lon="0.86293">
        <ele>184</ele>
        <time>2018-07-22T14:31:26Z</time>
      </trkpt>
      <trkpt lat="44.61876" lon="0.86285">
        <ele>183.5</ele>
        <time>2018-07-22T14:31:27Z</time>
      </trkpt>
      <trkpt lat="44.6187" lon="0.86279">
        <ele>183.3</ele>
        <time>2018-07-22T14:31:28Z</time>
      </trkpt>
      <trkpt lat="44.61864" lon="0.86273">
        <ele>182.8</ele>
        <time>2018-07-22T14:31:29Z</time>
      </trkpt>
      <trkpt lat="44.61858" lon="0.86269">
        <ele>182.5</ele>
        <time>2018-07-22T14:31:30Z</time>
      </trkpt>
      <trkpt lat="44.61851" lon="0.86268">
        <ele>181.9</ele>
        <time>2018-07-22T14:31:31Z</time>
      </trkpt>
      <trkpt lat="44.61846" lon="0.86265">
        <ele>181.6</ele>
        <time>2018-07-22T14:31:32Z</time>
      </trkpt>
      <trkpt lat="44.61842" lon="0.86262">
        <ele>181.2</ele>
        <time>2018-07-22T14:31:33Z</time>
      </trkpt>
      <trkpt lat="44.61847" lon="0.86264">
        <ele>181.6</ele>
        <time>2018-07-22T14:31:34Z</time>
      </trkpt>
      <trkpt lat="44.61842" lon="0.86263">
        <ele>181.2</ele>
        <time>2018-07-22T14:31:35Z</time>
      </trkpt>
      <trkpt lat="44.61837" lon="0.8626">
        <ele>181</ele>
        <time>2018-07-22T14:31:36Z</time>
      </trkpt>
      <trkpt lat="44.6183" lon="0.86254">
        <ele>180.1</ele>
        <time>2018-07-22T14:31:37Z</time>
      </trkpt>
      <trkpt lat="44.61825" lon="0.8625">
        <ele>179.7</ele>
        <time>2018-07-22T14:31:38Z</time>
      </trkpt>
      <trkpt lat="44.61822" lon="0.86245">
        <ele>179.4</ele>
        <time>2018-07-22T14:31:39Z</time>
      </trkpt>
      <trkpt lat="44.61818" lon="0.86239">
        <ele>179.1</ele>
        <time>2018-07-22T14:31:40Z</time>
      </trkpt>
      <trkpt lat="44.61817" lon="0.86233">
        <ele>178.6</ele>
        <time>2018-07-22T14:31:41Z</time>
      </trkpt>
      <trkpt lat="44.61813" lon="0.86227">
        <ele>178.3</ele>
        <time>2018-07-22T14:31:42Z</time>
      </trkpt>
      <trkpt lat="44.61809" lon="0.86221">
        <ele>177.8</ele>
        <time>2018-07-22T14:31:43Z</time>
      </trkpt>
      <trkpt lat="44.61806" lon="0.86214">
        <ele>177.5</ele>
        <time>2018-07-22T14:31:44Z</time>
      </trkpt>
      <trkpt lat="44.61802" lon="0.86208">
        <ele>177</ele>
        <time>2018-07-22T14:31:45Z</time>
      </trkpt>
      <trkpt lat="44.61799" lon="0.86202">
        <ele>176.7</ele>
        <time>2018-07-22T14:31:46Z</time>
      </trkpt>
      <trkpt lat="44.61795" lon="0.86196">
        <ele>176.5</ele>
        <time>2018-07-22T14:31:47Z</time>
      </trkpt>
      <trkpt lat="44.61791" lon="0.86189">
        <ele>176.1</ele>
        <time>2018-07-22T14:31:48Z</time>
      </trkpt>
      <trkpt lat="44.61788" lon="0.86181">
        <ele>175.6</ele>
        <time>2018-07-22T14:31:49Z</time>
      </trkpt>
      <trkpt lat="44.61783" lon="0.86172">
        <ele>175</ele>
        <time>2018-07-22T14:31:50Z</time>
      </trkpt>
      <trkpt lat="44.61781" lon="0.86163">
        <ele>174.5</ele>
        <time>2018-07-22T14:31:51Z</time>
      </trkpt>
      <trkpt lat="44.61777" lon="0.86153">
        <ele>174</ele>
        <time>2018-07-22T14:31:52Z</time>
      </trkpt>
      <trkpt lat="44.61774" lon="0.86144">
        <ele>173.5</ele>
        <time>2018-07-22T14:31:53Z</time>
      </trkpt>
      <trkpt lat="44.6177" lon="0.86136">
        <ele>173</ele>
        <time>2018-07-22T14:31:54Z</time>
      </trkpt>
      <trkpt lat="44.61766" lon="0.86126">
        <ele>172.5</ele>
        <time>2018-07-22T14:31:55Z</time>
      </trkpt>
      <trkpt lat="44.61762" lon="0.86115">
        <ele>172.3</ele>
        <time>2018-07-22T14:31:56Z</time>
      </trkpt>
      <trkpt lat="44.6176" lon="0.86105">
        <ele>172.3</ele>
        <time>2018-07-22T14:31:57Z</time>
      </trkpt>
      <trkpt lat="44.61757" lon="0.86095">
        <ele>172.3</ele>
        <time>2018-07-22T14:31:58Z</time>
      </trkpt>
      <trkpt lat="44.61754" lon="0.86084">
        <ele>172.4</ele>
        <time>2018-07-22T14:31:59Z</time>
      </trkpt>
      <trkpt lat="44.61751" lon="0.86073">
        <ele>172.5</ele>
        <time>2018-07-22T14:32:00Z</time>
      </trkpt>
      <trkpt lat="44.61748" lon="0.86063">
        <ele>172.6</ele>
        <time>2018-07-22T14:32:01Z</time>
      </trkpt>
      <trkpt lat="44.61745" lon="0.86052">
        <ele>172.8</ele>
        <time>2018-07-22T14:32:02Z</time>
      </trkpt>
      <trkpt lat="44.61742" lon="0.86042">
        <ele>173</ele>
        <time>2018-07-22T14:32:03Z</time>
      </trkpt>
      <trkpt lat="44.61739" lon="0.86033">
        <ele>173.1</ele>
        <time>2018-07-22T14:32:04Z</time>
      </trkpt>
      <trkpt lat="44.61737" lon="0.86023">
        <ele>173.4</ele>
        <time>2018-07-22T14:32:05Z</time>
      </trkpt>
      <trkpt lat="44.61738" lon="0.86016">
        <ele>173.5</ele>
        <time>2018-07-22T14:32:06Z</time>
      </trkpt>
      <trkpt lat="44.61737" lon="0.86007">
        <ele>173.8</ele>
        <time>2018-07-22T14:32:07Z</time>
      </trkpt>
      <trkpt lat="44.61734" lon="0.86">
        <ele>174.1</ele>
        <time>2018-07-22T14:32:08Z</time>
      </trkpt>
      <trkpt lat="44.61732" lon="0.85994">
        <ele>174.4</ele>
        <time>2018-07-22T14:32:09Z</time>
      </trkpt>
      <trkpt lat="44.61729" lon="0.85988">
        <ele>174.5</ele>
        <time>2018-07-22T14:32:10Z</time>
      </trkpt>
      <trkpt lat="44.61729" lon="0.85982">
        <ele>174.7</ele>
        <time>2018-07-22T14:32:11Z</time>
      </trkpt>
      <trkpt lat="44.61728" lon="0.85975">
        <ele>175.1</ele>
        <time>2018-07-22T14:32:12Z</time>
      </trkpt>
      <trkpt lat="44.61723" lon="0.8597">
        <ele>175.1</ele>
        <time>2018-07-22T14:32:13Z</time>
      </trkpt>
      <trkpt lat="44.61721" lon="0.85963">
        <ele>175.4</ele>
        <time>2018-07-22T14:32:14Z</time>
      </trkpt>
      <trkpt lat="44.6172" lon="0.85958">
        <ele>175.6</ele>
        <time>2018-07-22T14:32:15Z</time>
      </trkpt>
      <trkpt lat="44.61719" lon="0.85953">
        <ele>175.8</ele>
        <time>2018-07-22T14:32:16Z</time>
      </trkpt>
      <trkpt lat="44.61716" lon="0.85949">
        <ele>175.9</ele>
        <time>2018-07-22T14:32:17Z</time>
      </trkpt>
      <trkpt lat="44.61714" lon="0.85944">
        <ele>176</ele>
        <time>2018-07-22T14:32:18Z</time>
      </trkpt>
      <trkpt lat="44.61709" lon="0.85939">
        <ele>176.2</ele>
        <time>2018-07-22T14:32:19Z</time>
      </trkpt>
      <trkpt lat="44.61705" lon="0.85933">
        <ele>176.4</ele>
        <time>2018-07-22T14:32:20Z</time>
      </trkpt>
      <trkpt lat="44.61701" lon="0.85925">
        <ele>176.3</ele>
        <time>2018-07-22T14:32:21Z</time>
      </trkpt>
      <trkpt lat="44.61698" lon="0.85918">
        <ele>176.3</ele>
        <time>2018-07-22T14:32:22Z</time>
      </trkpt>
      <trkpt lat="44.61692" lon="0.85911">
        <ele>176.1</ele>
        <time>2018-07-22T14:32:23Z</time>
      </trkpt>
      <trkpt lat="44.61687" lon="0.85903">
        <ele>175.8</ele>
        <time>2018-07-22T14:32:24Z</time>
      </trkpt>
      <trkpt lat="44.61683" lon="0.85897">
        <ele>175.6</ele>
        <time>2018-07-22T14:32:25Z</time>
      </trkpt>
      <trkpt lat="44.6168" lon="0.85891">
        <ele>175.5</ele>
        <time>2018-07-22T14:32:26Z</time>
      </trkpt>
      <trkpt lat="44.61676" lon="0.85885">
        <ele>175.4</ele>
        <time>2018-07-22T14:32:27Z</time>
      </trkpt>
      <trkpt lat="44.61674" lon="0.85879">
        <ele>175.3</ele>
        <time>2018-07-22T14:32:28Z</time>
      </trkpt>
      <trkpt lat="44.61671" lon="0.85873">
        <ele>175.2</ele>
        <time>2018-07-22T14:32:29Z</time>
      </trkpt>
      <trkpt lat="44.61666" lon="0.85867">
        <ele>175.1</ele>
        <time>2018-07-22T14:32:30Z</time>
      </trkpt>
      <trkpt lat="44.61663" lon="0.8586">
        <ele>175</ele>
        <time>2018-07-22T14:32:31Z</time>
      </trkpt>
      <trkpt lat="44.61663" lon="0.85852">
        <ele>174.9</ele>
        <time>2018-07-22T14:32:32Z</time>
      </trkpt>
      <trkpt lat="44.61664" lon="0.85842">
        <ele>174.8</ele>
        <time>2018-07-22T14:32:33Z</time>
      </trkpt>
      <trkpt lat="44.61663" lon="0.85834">
        <ele>174.6</ele>
        <time>2018-07-22T14:32:34Z</time>
      </trkpt>
      <trkpt lat="44.61664" lon="0.85825">
        <ele>174.3</ele>
        <time>2018-07-22T14:32:35Z</time>
      </trkpt>
      <trkpt lat="44.61661" lon="0.85813">
        <ele>173.8</ele>
        <time>2018-07-22T14:32:36Z</time>
      </trkpt>
      <trkpt lat="44.61662" lon="0.85809">
        <ele>173.8</ele>
        <time>2018-07-22T14:32:37Z</time>
      </trkpt>
      <trkpt lat="44.61664" lon="0.85799">
        <ele>173.6</ele>
        <time>2018-07-22T14:32:38Z</time>
      </trkpt>
      <trkpt lat="44.61664" lon="0.8579">
        <ele>173.3</ele>
        <time>2018-07-22T14:32:39Z</time>
      </trkpt>
      <trkpt lat="44.61664" lon="0.85782">
        <ele>173</ele>
        <time>2018-07-22T14:32:40Z</time>
      </trkpt>
      <trkpt lat="44.61666" lon="0.85773">
        <ele>172.7</ele>
        <time>2018-07-22T14:32:41Z</time>
      </trkpt>
      <trkpt lat="44.61667" lon="0.85767">
        <ele>172.5</ele>
        <time>2018-07-22T14:32:42Z</time>
      </trkpt>
      <trkpt lat="44.61668" lon="0.85757">
        <ele>172.1</ele>
        <time>2018-07-22T14:32:43Z</time>
      </trkpt>
      <trkpt lat="44.61668" lon="0.85749">
        <ele>171.9</ele>
        <time>2018-07-22T14:32:44Z</time>
      </trkpt>
      <trkpt lat="44.61671" lon="0.85739">
        <ele>171.4</ele>
        <time>2018-07-22T14:32:45Z</time>
      </trkpt>
      <trkpt lat="44.61674" lon="0.8573">
        <ele>171.1</ele>
        <time>2018-07-22T14:32:46Z</time>
      </trkpt>
      <trkpt lat="44.61675" lon="0.85719">
        <ele>170.8</ele>
        <time>2018-07-22T14:32:47Z</time>
      </trkpt>
      <trkpt lat="44.61677" lon="0.85711">
        <ele>170.2</ele>
        <time>2018-07-22T14:32:48Z</time>
      </trkpt>
      <trkpt lat="44.61677" lon="0.85703">
        <ele>169.4</ele>
        <time>2018-07-22T14:32:49Z</time>
      </trkpt>
      <trkpt lat="44.61681" lon="0.85692">
        <ele>168</ele>
        <time>2018-07-22T14:32:50Z</time>
      </trkpt>
      <trkpt lat="44.61686" lon="0.85683">
        <ele>167</ele>
        <time>2018-07-22T14:32:51Z</time>
      </trkpt>
      <trkpt lat="44.61689" lon="0.85673">
        <ele>166.1</ele>
        <time>2018-07-22T14:32:52Z</time>
      </trkpt>
      <trkpt lat="44.61694" lon="0.85665">
        <ele>165.2</ele>
        <time>2018-07-22T14:32:53Z</time>
      </trkpt>
      <trkpt lat="44.61699" lon="0.85657">
        <ele>164.3</ele>
        <time>2018-07-22T14:32:54Z</time>
      </trkpt>
      <trkpt lat="44.617" lon="0.85647">
        <ele>163.4</ele>
        <time>2018-07-22T14:32:55Z</time>
      </trkpt>
      <trkpt lat="44.61703" lon="0.85638">
        <ele>162.4</ele>
        <time>2018-07-22T14:32:56Z</time>
      </trkpt>
      <trkpt lat="44.61705" lon="0.85627">
        <ele>160.9</ele>
        <time>2018-07-22T14:32:57Z</time>
      </trkpt>
      <trkpt lat="44.61708" lon="0.85617">
        <ele>160.1</ele>
        <time>2018-07-22T14:32:58Z</time>
      </trkpt>
      <trkpt lat="44.61712" lon="0.85607">
        <ele>158.6</ele>
        <time>2018-07-22T14:32:59Z</time>
      </trkpt>
      <trkpt lat="44.61712" lon="0.85598">
        <ele>157.9</ele>
        <time>2018-07-22T14:33:00Z</time>
      </trkpt>
      <trkpt lat="44.61715" lon="0.8559">
        <ele>157.5</ele>
        <time>2018-07-22T14:33:01Z</time>
      </trkpt>
      <trkpt lat="44.61718" lon="0.85584">
        <ele>156.9</ele>
        <time>2018-07-22T14:33:02Z</time>
      </trkpt>
      <trkpt lat="44.6172" lon="0.85578">
        <ele>156.8</ele>
        <time>2018-07-22T14:33:03Z</time>
      </trkpt>
      <trkpt lat="44.61723" lon="0.85573">
        <ele>156.5</ele>
        <time>2018-07-22T14:33:04Z</time>
      </trkpt>
      <trkpt lat="44.61728" lon="0.85568">
        <ele>156.1</ele>
        <time>2018-07-22T14:33:05Z</time>
      </trkpt>
      <trkpt lat="44.61729" lon="0.85561">
        <ele>156</ele>
        <time>2018-07-22T14:33:06Z</time>
      </trkpt>
      <trkpt lat="44.61733" lon="0.85556">
        <ele>155.8</ele>
        <time>2018-07-22T14:33:07Z</time>
      </trkpt>
      <trkpt lat="44.61733" lon="0.8555">
        <ele>155.6</ele>
        <time>2018-07-22T14:33:08Z</time>
      </trkpt>
      <trkpt lat="44.61733" lon="0.85535">
        <ele>155.5</ele>
        <time>2018-07-22T14:33:09Z</time>
      </trkpt>
      <trkpt lat="44.61736" lon="0.85526">
        <ele>155.3</ele>
        <time>2018-07-22T14:33:10Z</time>
      </trkpt>
      <trkpt lat="44.61737" lon="0.85517">
        <ele>155.1</ele>
        <time>2018-07-22T14:33:11Z</time>
      </trkpt>
      <trkpt lat="44.61736" lon="0.85508">
        <ele>154.8</ele>
        <time>2018-07-22T14:33:12Z</time>
      </trkpt>
      <trkpt lat="44.61738" lon="0.85501">
        <ele>154.6</ele>
        <time>2018-07-22T14:33:13Z</time>
      </trkpt>
      <trkpt lat="44.61738" lon="0.85494">
        <ele>154.2</ele>
        <time>2018-07-22T14:33:14Z</time>
      </trkpt>
      <trkpt lat="44.61734" lon="0.85487">
        <ele>153.9</ele>
        <time>2018-07-22T14:33:17Z</time>
      </trkpt>
      <trkpt lat="44.61733" lon="0.85485">
        <ele>153.9</ele>
        <time>2018-07-22T14:33:34Z</time>
      </trkpt>
      <trkpt lat="44.61732" lon="0.85482">
        <ele>153.8</ele>
        <time>2018-07-22T14:33:35Z</time>
      </trkpt>
      <trkpt lat="44.61725" lon="0.85484">
        <ele>154.1</ele>
        <time>2018-07-22T14:33:36Z</time>
      </trkpt>
      <trkpt lat="44.61722" lon="0.85483">
        <ele>154.1</ele>
        <time>2018-07-22T14:33:37Z</time>
      </trkpt>
      <trkpt lat="44.61719" lon="0.85482">
        <ele>154.2</ele>
        <time>2018-07-22T14:33:38Z</time>
      </trkpt>
      <trkpt lat="44.61714" lon="0.8548">
        <ele>154.5</ele>
        <time>2018-07-22T14:33:40Z</time>
      </trkpt>
      <trkpt lat="44.61709" lon="0.85479">
        <ele>154.5</ele>
        <time>2018-07-22T14:33:42Z</time>
      </trkpt>
      <trkpt lat="44.61706" lon="0.85477">
        <ele>154.6</ele>
        <time>2018-07-22T14:33:43Z</time>
      </trkpt>
      <trkpt lat="44.61701" lon="0.85476">
        <ele>154.9</ele>
        <time>2018-07-22T14:33:45Z</time>
      </trkpt>
      <trkpt lat="44.61696" lon="0.85477">
        <ele>155</ele>
        <time>2018-07-22T14:33:47Z</time>
      </trkpt>
      <trkpt lat="44.61693" lon="0.85481">
        <ele>155.4</ele>
        <time>2018-07-22T14:33:49Z</time>
      </trkpt>
      <trkpt lat="44.6169" lon="0.85482">
        <ele>155.4</ele>
        <time>2018-07-22T14:33:50Z</time>
      </trkpt>
      <trkpt lat="44.61687" lon="0.85484">
        <ele>155.6</ele>
        <time>2018-07-22T14:33:51Z</time>
      </trkpt>
      <trkpt lat="44.61684" lon="0.85486">
        <ele>155.8</ele>
        <time>2018-07-22T14:33:52Z</time>
      </trkpt>
      <trkpt lat="44.61682" lon="0.85487">
        <ele>155.9</ele>
        <time>2018-07-22T14:33:53Z</time>
      </trkpt>
      <trkpt lat="44.61679" lon="0.85489">
        <ele>156.2</ele>
        <time>2018-07-22T14:33:54Z</time>
      </trkpt>
      <trkpt lat="44.61674" lon="0.8549">
        <ele>156.6</ele>
        <time>2018-07-22T14:33:56Z</time>
      </trkpt>
      <trkpt lat="44.61668" lon="0.85491">
        <ele>157.1</ele>
        <time>2018-07-22T14:33:58Z</time>
      </trkpt>
      <trkpt lat="44.61665" lon="0.85493">
        <ele>157.3</ele>
        <time>2018-07-22T14:33:59Z</time>
      </trkpt>
      <trkpt lat="44.61661" lon="0.85495">
        <ele>157.6</ele>
        <time>2018-07-22T14:34:00Z</time>
      </trkpt>
      <trkpt lat="44.61658" lon="0.85496">
        <ele>157.8</ele>
        <time>2018-07-22T14:34:01Z</time>
      </trkpt>
      <trkpt lat="44.61654" lon="0.85498">
        <ele>158</ele>
        <time>2018-07-22T14:34:02Z</time>
      </trkpt>
      <trkpt lat="44.61652" lon="0.85501">
        <ele>158.1</ele>
        <time>2018-07-22T14:34:03Z</time>
      </trkpt>
      <trkpt lat="44.6165" lon="0.85503">
        <ele>158.3</ele>
        <time>2018-07-22T14:34:04Z</time>
      </trkpt>
      <trkpt lat="44.61648" lon="0.85507">
        <ele>158.2</ele>
        <time>2018-07-22T14:34:05Z</time>
      </trkpt>
      <trkpt lat="44.61644" lon="0.85512">
        <ele>158.5</ele>
        <time>2018-07-22T14:34:06Z</time>
      </trkpt>
      <trkpt lat="44.6164" lon="0.85517">
        <ele>158.5</ele>
        <time>2018-07-22T14:34:07Z</time>
      </trkpt>
      <trkpt lat="44.61635" lon="0.85521">
        <ele>158.7</ele>
        <time>2018-07-22T14:34:08Z</time>
      </trkpt>
      <trkpt lat="44.61631" lon="0.85524">
        <ele>158.9</ele>
        <time>2018-07-22T14:34:09Z</time>
      </trkpt>
      <trkpt lat="44.61626" lon="0.85527">
        <ele>159</ele>
        <time>2018-07-22T14:34:10Z</time>
      </trkpt>
      <trkpt lat="44.61622" lon="0.85529">
        <ele>159.2</ele>
        <time>2018-07-22T14:34:11Z</time>
      </trkpt>
      <trkpt lat="44.61611" lon="0.85532">
        <ele>159.6</ele>
        <time>2018-07-22T14:34:12Z</time>
      </trkpt>
      <trkpt lat="44.61604" lon="0.85536">
        <ele>160</ele>
        <time>2018-07-22T14:34:13Z</time>
      </trkpt>
      <trkpt lat="44.61601" lon="0.85537">
        <ele>160.1</ele>
        <time>2018-07-22T14:34:14Z</time>
      </trkpt>
      <trkpt lat="44.61595" lon="0.85543">
        <ele>160.3</ele>
        <time>2018-07-22T14:34:16Z</time>
      </trkpt>
      <trkpt lat="44.6159" lon="0.85545">
        <ele>160.4</ele>
        <time>2018-07-22T14:34:17Z</time>
      </trkpt>
      <trkpt lat="44.61583" lon="0.8555">
        <ele>160.7</ele>
        <time>2018-07-22T14:34:18Z</time>
      </trkpt>
      <trkpt lat="44.61581" lon="0.85555">
        <ele>160.7</ele>
        <time>2018-07-22T14:34:19Z</time>
      </trkpt>
      <trkpt lat="44.61575" lon="0.85561">
        <ele>160.9</ele>
        <time>2018-07-22T14:34:20Z</time>
      </trkpt>
      <trkpt lat="44.6157" lon="0.85565">
        <ele>161.1</ele>
        <time>2018-07-22T14:34:21Z</time>
      </trkpt>
      <trkpt lat="44.6157" lon="0.85571">
        <ele>161.1</ele>
        <time>2018-07-22T14:34:22Z</time>
      </trkpt>
      <trkpt lat="44.61567" lon="0.85576">
        <ele>161.2</ele>
        <time>2018-07-22T14:34:23Z</time>
      </trkpt>
      <trkpt lat="44.61568" lon="0.85583">
        <ele>161.1</ele>
        <time>2018-07-22T14:34:24Z</time>
      </trkpt>
      <trkpt lat="44.61568" lon="0.85587">
        <ele>161.1</ele>
        <time>2018-07-22T14:34:25Z</time>
      </trkpt>
      <trkpt lat="44.61568" lon="0.85592">
        <ele>161.1</ele>
        <time>2018-07-22T14:34:26Z</time>
      </trkpt>
      <trkpt lat="44.61569" lon="0.85598">
        <ele>161.2</ele>
        <time>2018-07-22T14:34:27Z</time>
      </trkpt>
      <trkpt lat="44.61569" lon="0.85603">
        <ele>161.2</ele>
        <time>2018-07-22T14:34:28Z</time>
      </trkpt>
      <trkpt lat="44.61569" lon="0.85608">
        <ele>161.4</ele>
        <time>2018-07-22T14:34:29Z</time>
      </trkpt>
      <trkpt lat="44.61569" lon="0.85614">
        <ele>161.5</ele>
        <time>2018-07-22T14:34:30Z</time>
      </trkpt>
      <trkpt lat="44.6157" lon="0.85621">
        <ele>161.8</ele>
        <time>2018-07-22T14:34:31Z</time>
      </trkpt>
      <trkpt lat="44.6157" lon="0.85626">
        <ele>161.9</ele>
        <time>2018-07-22T14:34:32Z</time>
      </trkpt>
      <trkpt lat="44.6157" lon="0.85632">
        <ele>162</ele>
        <time>2018-07-22T14:34:33Z</time>
      </trkpt>
      <trkpt lat="44.61569" lon="0.85638">
        <ele>162.4</ele>
        <time>2018-07-22T14:34:34Z</time>
      </trkpt>
      <trkpt lat="44.61567" lon="0.85644">
        <ele>162.6</ele>
        <time>2018-07-22T14:34:35Z</time>
      </trkpt>
      <trkpt lat="44.61565" lon="0.8565">
        <ele>162.8</ele>
        <time>2018-07-22T14:34:36Z</time>
      </trkpt>
      <trkpt lat="44.61563" lon="0.85656">
        <ele>163.2</ele>
        <time>2018-07-22T14:34:37Z</time>
      </trkpt>
      <trkpt lat="44.61562" lon="0.85662">
        <ele>163.4</ele>
        <time>2018-07-22T14:34:38Z</time>
      </trkpt>
      <trkpt lat="44.61561" lon="0.85667">
        <ele>163.6</ele>
        <time>2018-07-22T14:34:39Z</time>
      </trkpt>
      <trkpt lat="44.61561" lon="0.85672">
        <ele>164</ele>
        <time>2018-07-22T14:34:40Z</time>
      </trkpt>
      <trkpt lat="44.61561" lon="0.85678">
        <ele>164.2</ele>
        <time>2018-07-22T14:34:41Z</time>
      </trkpt>
      <trkpt lat="44.61561" lon="0.85684">
        <ele>164.4</ele>
        <time>2018-07-22T14:34:42Z</time>
      </trkpt>
      <trkpt lat="44.6156" lon="0.8569">
        <ele>164.9</ele>
        <time>2018-07-22T14:34:43Z</time>
      </trkpt>
      <trkpt lat="44.61559" lon="0.85696">
        <ele>165.3</ele>
        <time>2018-07-22T14:34:44Z</time>
      </trkpt>
      <trkpt lat="44.61559" lon="0.85703">
        <ele>165.7</ele>
        <time>2018-07-22T14:34:45Z</time>
      </trkpt>
      <trkpt lat="44.61559" lon="0.85708">
        <ele>165.9</ele>
        <time>2018-07-22T14:34:46Z</time>
      </trkpt>
      <trkpt lat="44.6156" lon="0.85714">
        <ele>166.1</ele>
        <time>2018-07-22T14:34:47Z</time>
      </trkpt>
      <trkpt lat="44.61561" lon="0.85719">
        <ele>166.6</ele>
        <time>2018-07-22T14:34:48Z</time>
      </trkpt>
      <trkpt lat="44.61562" lon="0.85725">
        <ele>166.7</ele>
        <time>2018-07-22T14:34:49Z</time>
      </trkpt>
      <trkpt lat="44.61563" lon="0.85732">
        <ele>166.9</ele>
        <time>2018-07-22T14:34:50Z</time>
      </trkpt>
      <trkpt lat="44.61564" lon="0.85739">
        <ele>167.3</ele>
        <time>2018-07-22T14:34:51Z</time>
      </trkpt>
      <trkpt lat="44.61564" lon="0.85747">
        <ele>167.6</ele>
        <time>2018-07-22T14:34:52Z</time>
      </trkpt>
      <trkpt lat="44.61572" lon="0.85763">
        <ele>168.1</ele>
        <time>2018-07-22T14:34:53Z</time>
      </trkpt>
      <trkpt lat="44.61572" lon="0.85776">
        <ele>168.4</ele>
        <time>2018-07-22T14:34:54Z</time>
      </trkpt>
      <trkpt lat="44.61571" lon="0.85785">
        <ele>168.6</ele>
        <time>2018-07-22T14:34:55Z</time>
      </trkpt>
      <trkpt lat="44.61574" lon="0.85795">
        <ele>168.7</ele>
        <time>2018-07-22T14:34:56Z</time>
      </trkpt>
      <trkpt lat="44.61576" lon="0.85804">
        <ele>168.9</ele>
        <time>2018-07-22T14:34:57Z</time>
      </trkpt>
      <trkpt lat="44.61577" lon="0.8582">
        <ele>169.1</ele>
        <time>2018-07-22T14:34:58Z</time>
      </trkpt>
      <trkpt lat="44.61571" lon="0.85832">
        <ele>169</ele>
        <time>2018-07-22T14:34:59Z</time>
      </trkpt>
      <trkpt lat="44.61568" lon="0.8584">
        <ele>168.9</ele>
        <time>2018-07-22T14:35:00Z</time>
      </trkpt>
      <trkpt lat="44.61572" lon="0.85846">
        <ele>168.9</ele>
        <time>2018-07-22T14:35:01Z</time>
      </trkpt>
      <trkpt lat="44.61569" lon="0.85841">
        <ele>168.9</ele>
        <time>2018-07-22T14:35:02Z</time>
      </trkpt>
      <trkpt lat="44.61562" lon="0.8584">
        <ele>168.8</ele>
        <time>2018-07-22T14:35:03Z</time>
      </trkpt>
      <trkpt lat="44.6156" lon="0.85843">
        <ele>168.8</ele>
        <time>2018-07-22T14:35:04Z</time>
      </trkpt>
      <trkpt lat="44.61555" lon="0.85844">
        <ele>168.7</ele>
        <time>2018-07-22T14:35:05Z</time>
      </trkpt>
      <trkpt lat="44.61552" lon="0.85846">
        <ele>168.7</ele>
        <time>2018-07-22T14:35:08Z</time>
      </trkpt>
      <trkpt lat="44.61547" lon="0.85847">
        <ele>168.7</ele>
        <time>2018-07-22T14:35:10Z</time>
      </trkpt>
      <trkpt lat="44.61543" lon="0.85848">
        <ele>168.7</ele>
        <time>2018-07-22T14:35:11Z</time>
      </trkpt>
      <trkpt lat="44.61539" lon="0.8585">
        <ele>168.7</ele>
        <time>2018-07-22T14:35:14Z</time>
      </trkpt>
      <trkpt lat="44.61536" lon="0.85852">
        <ele>168.7</ele>
        <time>2018-07-22T14:35:15Z</time>
      </trkpt>
      <trkpt lat="44.61534" lon="0.85854">
        <ele>168.6</ele>
        <time>2018-07-22T14:35:16Z</time>
      </trkpt>
      <trkpt lat="44.61531" lon="0.8586">
        <ele>168.3</ele>
        <time>2018-07-22T14:35:18Z</time>
      </trkpt>
      <trkpt lat="44.61531" lon="0.85865">
        <ele>168.1</ele>
        <time>2018-07-22T14:35:19Z</time>
      </trkpt>
      <trkpt lat="44.61533" lon="0.8587">
        <ele>167.9</ele>
        <time>2018-07-22T14:35:20Z</time>
      </trkpt>
      <trkpt lat="44.61535" lon="0.85876">
        <ele>167.7</ele>
        <time>2018-07-22T14:35:21Z</time>
      </trkpt>
      <trkpt lat="44.61538" lon="0.8588">
        <ele>167.4</ele>
        <time>2018-07-22T14:35:22Z</time>
      </trkpt>
      <trkpt lat="44.61541" lon="0.85885">
        <ele>167.2</ele>
        <time>2018-07-22T14:35:23Z</time>
      </trkpt>
      <trkpt lat="44.61543" lon="0.85889">
        <ele>167.1</ele>
        <time>2018-07-22T14:35:24Z</time>
      </trkpt>
      <trkpt lat="44.61544" lon="0.85896">
        <ele>166.9</ele>
        <time>2018-07-22T14:35:26Z</time>
      </trkpt>
      <trkpt lat="44.61547" lon="0.85903">
        <ele>166.7</ele>
        <time>2018-07-22T14:35:28Z</time>
      </trkpt>
      <trkpt lat="44.61548" lon="0.85906">
        <ele>166.5</ele>
        <time>2018-07-22T14:35:29Z</time>
      </trkpt>
      <trkpt lat="44.61551" lon="0.85911">
        <ele>166.4</ele>
        <time>2018-07-22T14:35:31Z</time>
      </trkpt>
      <trkpt lat="44.61553" lon="0.85915">
        <ele>166.3</ele>
        <time>2018-07-22T14:35:35Z</time>
      </trkpt>
      <trkpt lat="44.61553" lon="0.85922">
        <ele>166.1</ele>
        <time>2018-07-22T14:35:37Z</time>
      </trkpt>
      <trkpt lat="44.61554" lon="0.85926">
        <ele>166</ele>
        <time>2018-07-22T14:35:38Z</time>
      </trkpt>
      <trkpt lat="44.61555" lon="0.8593">
        <ele>165.9</ele>
        <time>2018-07-22T14:35:39Z</time>
      </trkpt>
      <trkpt lat="44.61556" lon="0.85934">
        <ele>165.9</ele>
        <time>2018-07-22T14:35:40Z</time>
      </trkpt>
      <trkpt lat="44.61558" lon="0.85938">
        <ele>165.8</ele>
        <time>2018-07-22T14:35:41Z</time>
      </trkpt>
      <trkpt lat="44.6156" lon="0.85942">
        <ele>165.8</ele>
        <time>2018-07-22T14:35:42Z</time>
      </trkpt>
      <trkpt lat="44.61563" lon="0.85946">
        <ele>165.8</ele>
        <time>2018-07-22T14:35:43Z</time>
      </trkpt>
      <trkpt lat="44.61565" lon="0.8595">
        <ele>165.8</ele>
        <time>2018-07-22T14:35:44Z</time>
      </trkpt>
      <trkpt lat="44.61568" lon="0.85954">
        <ele>165.9</ele>
        <time>2018-07-22T14:35:45Z</time>
      </trkpt>
      <trkpt lat="44.6157" lon="0.85958">
        <ele>165.9</ele>
        <time>2018-07-22T14:35:46Z</time>
      </trkpt>
      <trkpt lat="44.61573" lon="0.85962">
        <ele>166</ele>
        <time>2018-07-22T14:35:47Z</time>
      </trkpt>
      <trkpt lat="44.61575" lon="0.85965">
        <ele>166.1</ele>
        <time>2018-07-22T14:35:48Z</time>
      </trkpt>
      <trkpt lat="44.61579" lon="0.85971">
        <ele>166.2</ele>
        <time>2018-07-22T14:35:50Z</time>
      </trkpt>
      <trkpt lat="44.61581" lon="0.85974">
        <ele>166.3</ele>
        <time>2018-07-22T14:35:51Z</time>
      </trkpt>
      <trkpt lat="44.61585" lon="0.85977">
        <ele>166.4</ele>
        <time>2018-07-22T14:35:53Z</time>
      </trkpt>
      <trkpt lat="44.61589" lon="0.85982">
        <ele>166.6</ele>
        <time>2018-07-22T14:35:55Z</time>
      </trkpt>
      <trkpt lat="44.61592" lon="0.85986">
        <ele>166.7</ele>
        <time>2018-07-22T14:35:56Z</time>
      </trkpt>
      <trkpt lat="44.61595" lon="0.85989">
        <ele>166.7</ele>
        <time>2018-07-22T14:35:57Z</time>
      </trkpt>
      <trkpt lat="44.61597" lon="0.85992">
        <ele>166.7</ele>
        <time>2018-07-22T14:35:58Z</time>
      </trkpt>
      <trkpt lat="44.616" lon="0.85995">
        <ele>166.7</ele>
        <time>2018-07-22T14:35:59Z</time>
      </trkpt>
      <trkpt lat="44.61602" lon="0.85998">
        <ele>166.8</ele>
        <time>2018-07-22T14:36:00Z</time>
      </trkpt>
      <trkpt lat="44.61605" lon="0.86001">
        <ele>166.8</ele>
        <time>2018-07-22T14:36:01Z</time>
      </trkpt>
      <trkpt lat="44.61608" lon="0.86003">
        <ele>166.8</ele>
        <time>2018-07-22T14:36:02Z</time>
      </trkpt>
      <trkpt lat="44.61611" lon="0.86006">
        <ele>166.8</ele>
        <time>2018-07-22T14:36:03Z</time>
      </trkpt>
      <trkpt lat="44.61614" lon="0.86008">
        <ele>166.8</ele>
        <time>2018-07-22T14:36:04Z</time>
      </trkpt>
      <trkpt lat="44.61617" lon="0.8601">
        <ele>166.9</ele>
        <time>2018-07-22T14:36:05Z</time>
      </trkpt>
      <trkpt lat="44.6162" lon="0.86013">
        <ele>166.9</ele>
        <time>2018-07-22T14:36:06Z</time>
      </trkpt>
      <trkpt lat="44.61623" lon="0.86016">
        <ele>166.9</ele>
        <time>2018-07-22T14:36:07Z</time>
      </trkpt>
      <trkpt lat="44.61627" lon="0.86019">
        <ele>166.8</ele>
        <time>2018-07-22T14:36:08Z</time>
      </trkpt>
      <trkpt lat="44.61632" lon="0.86022">
        <ele>166.8</ele>
        <time>2018-07-22T14:36:09Z</time>
      </trkpt>
      <trkpt lat="44.61637" lon="0.86025">
        <ele>166.9</ele>
        <time>2018-07-22T14:36:10Z</time>
      </trkpt>
      <trkpt lat="44.61642" lon="0.86029">
        <ele>167</ele>
        <time>2018-07-22T14:36:11Z</time>
      </trkpt>
      <trkpt lat="44.61645" lon="0.86033">
        <ele>167.1</ele>
        <time>2018-07-22T14:36:12Z</time>
      </trkpt>
      <trkpt lat="44.61647" lon="0.86037">
        <ele>167.1</ele>
        <time>2018-07-22T14:36:13Z</time>
      </trkpt>
      <trkpt lat="44.61648" lon="0.86041">
        <ele>167.1</ele>
        <time>2018-07-22T14:36:14Z</time>
      </trkpt>
      <trkpt lat="44.61647" lon="0.86048">
        <ele>167.1</ele>
        <time>2018-07-22T14:36:16Z</time>
      </trkpt>
      <trkpt lat="44.61645" lon="0.86051">
        <ele>167.1</ele>
        <time>2018-07-22T14:36:17Z</time>
      </trkpt>
      <trkpt lat="44.61643" lon="0.86054">
        <ele>167.1</ele>
        <time>2018-07-22T14:36:18Z</time>
      </trkpt>
      <trkpt lat="44.61641" lon="0.86057">
        <ele>167.1</ele>
        <time>2018-07-22T14:36:19Z</time>
      </trkpt>
      <trkpt lat="44.61639" lon="0.86059">
        <ele>167.1</ele>
        <time>2018-07-22T14:36:20Z</time>
      </trkpt>
      <trkpt lat="44.61636" lon="0.86062">
        <ele>167</ele>
        <time>2018-07-22T14:36:21Z</time>
      </trkpt>
      <trkpt lat="44.61633" lon="0.86065">
        <ele>167.1</ele>
        <time>2018-07-22T14:36:22Z</time>
      </trkpt>
      <trkpt lat="44.6163" lon="0.86068">
        <ele>167.1</ele>
        <time>2018-07-22T14:36:23Z</time>
      </trkpt>
      <trkpt lat="44.61627" lon="0.86073">
        <ele>167.2</ele>
        <time>2018-07-22T14:36:25Z</time>
      </trkpt>
      <trkpt lat="44.61624" lon="0.8608">
        <ele>167.3</ele>
        <time>2018-07-22T14:36:27Z</time>
      </trkpt>
      <trkpt lat="44.61621" lon="0.86083">
        <ele>167.4</ele>
        <time>2018-07-22T14:36:28Z</time>
      </trkpt>
      <trkpt lat="44.61619" lon="0.86087">
        <ele>167.5</ele>
        <time>2018-07-22T14:36:29Z</time>
      </trkpt>
      <trkpt lat="44.61616" lon="0.8609">
        <ele>167.6</ele>
        <time>2018-07-22T14:36:30Z</time>
      </trkpt>
      <trkpt lat="44.61612" lon="0.86094">
        <ele>167.8</ele>
        <time>2018-07-22T14:36:31Z</time>
      </trkpt>
      <trkpt lat="44.6161" lon="0.86097">
        <ele>167.9</ele>
        <time>2018-07-22T14:36:32Z</time>
      </trkpt>
      <trkpt lat="44.61607" lon="0.861">
        <ele>167.9</ele>
        <time>2018-07-22T14:36:33Z</time>
      </trkpt>
      <trkpt lat="44.61605" lon="0.86104">
        <ele>168.1</ele>
        <time>2018-07-22T14:36:34Z</time>
      </trkpt>
      <trkpt lat="44.61603" lon="0.86107">
        <ele>168.3</ele>
        <time>2018-07-22T14:36:35Z</time>
      </trkpt>
      <trkpt lat="44.616" lon="0.86111">
        <ele>168.4</ele>
        <time>2018-07-22T14:36:36Z</time>
      </trkpt>
      <trkpt lat="44.61597" lon="0.86115">
        <ele>168.6</ele>
        <time>2018-07-22T14:36:37Z</time>
      </trkpt>
      <trkpt lat="44.61595" lon="0.86119">
        <ele>168.8</ele>
        <time>2018-07-22T14:36:38Z</time>
      </trkpt>
      <trkpt lat="44.61593" lon="0.86123">
        <ele>168.9</ele>
        <time>2018-07-22T14:36:39Z</time>
      </trkpt>
      <trkpt lat="44.61591" lon="0.86127">
        <ele>169.2</ele>
        <time>2018-07-22T14:36:40Z</time>
      </trkpt>
      <trkpt lat="44.61589" lon="0.86131">
        <ele>169.2</ele>
        <time>2018-07-22T14:36:41Z</time>
      </trkpt>
      <trkpt lat="44.61587" lon="0.86134">
        <ele>169.4</ele>
        <time>2018-07-22T14:36:42Z</time>
      </trkpt>
      <trkpt lat="44.61585" lon="0.86137">
        <ele>169.6</ele>
        <time>2018-07-22T14:36:43Z</time>
      </trkpt>
      <trkpt lat="44.61583" lon="0.8614">
        <ele>169.7</ele>
        <time>2018-07-22T14:36:44Z</time>
      </trkpt>
      <trkpt lat="44.61581" lon="0.86144">
        <ele>169.8</ele>
        <time>2018-07-22T14:36:45Z</time>
      </trkpt>
      <trkpt lat="44.61577" lon="0.86148">
        <ele>170</ele>
        <time>2018-07-22T14:36:46Z</time>
      </trkpt>
      <trkpt lat="44.61573" lon="0.86152">
        <ele>170.3</ele>
        <time>2018-07-22T14:36:47Z</time>
      </trkpt>
      <trkpt lat="44.61569" lon="0.86155">
        <ele>170.4</ele>
        <time>2018-07-22T14:36:48Z</time>
      </trkpt>
      <trkpt lat="44.61565" lon="0.86159">
        <ele>170.6</ele>
        <time>2018-07-22T14:36:49Z</time>
      </trkpt>
      <trkpt lat="44.61561" lon="0.86163">
        <ele>170.8</ele>
        <time>2018-07-22T14:36:50Z</time>
      </trkpt>
      <trkpt lat="44.61558" lon="0.86167">
        <ele>171</ele>
        <time>2018-07-22T14:36:51Z</time>
      </trkpt>
      <trkpt lat="44.61556" lon="0.86171">
        <ele>171.1</ele>
        <time>2018-07-22T14:36:52Z</time>
      </trkpt>
      <trkpt lat="44.61553" lon="0.86175">
        <ele>171.3</ele>
        <time>2018-07-22T14:36:53Z</time>
      </trkpt>
      <trkpt lat="44.61551" lon="0.86178">
        <ele>171.3</ele>
        <time>2018-07-22T14:36:54Z</time>
      </trkpt>
      <trkpt lat="44.61549" lon="0.86181">
        <ele>171.5</ele>
        <time>2018-07-22T14:36:55Z</time>
      </trkpt>
      <trkpt lat="44.61547" lon="0.86187">
        <ele>171.9</ele>
        <time>2018-07-22T14:36:57Z</time>
      </trkpt>
      <trkpt lat="44.61546" lon="0.86191">
        <ele>171.9</ele>
        <time>2018-07-22T14:36:58Z</time>
      </trkpt>
      <trkpt lat="44.61544" lon="0.86195">
        <ele>172.1</ele>
        <time>2018-07-22T14:36:59Z</time>
      </trkpt>
      <trkpt lat="44.61542" lon="0.86199">
        <ele>172.3</ele>
        <time>2018-07-22T14:37:00Z</time>
      </trkpt>
      <trkpt lat="44.6154" lon="0.86203">
        <ele>172.5</ele>
        <time>2018-07-22T14:37:01Z</time>
      </trkpt>
      <trkpt lat="44.61537" lon="0.86207">
        <ele>172.6</ele>
        <time>2018-07-22T14:37:02Z</time>
      </trkpt>
      <trkpt lat="44.61535" lon="0.8621">
        <ele>172.8</ele>
        <time>2018-07-22T14:37:03Z</time>
      </trkpt>
      <trkpt lat="44.61532" lon="0.86214">
        <ele>173</ele>
        <time>2018-07-22T14:37:04Z</time>
      </trkpt>
      <trkpt lat="44.61529" lon="0.86219">
        <ele>173.2</ele>
        <time>2018-07-22T14:37:05Z</time>
      </trkpt>
      <trkpt lat="44.61526" lon="0.86223">
        <ele>173.5</ele>
        <time>2018-07-22T14:37:06Z</time>
      </trkpt>
      <trkpt lat="44.61524" lon="0.86228">
        <ele>173.7</ele>
        <time>2018-07-22T14:37:07Z</time>
      </trkpt>
      <trkpt lat="44.61522" lon="0.86232">
        <ele>173.9</ele>
        <time>2018-07-22T14:37:08Z</time>
      </trkpt>
      <trkpt lat="44.6152" lon="0.86237">
        <ele>174.1</ele>
        <time>2018-07-22T14:37:09Z</time>
      </trkpt>
      <trkpt lat="44.61518" lon="0.86242">
        <ele>174.3</ele>
        <time>2018-07-22T14:37:10Z</time>
      </trkpt>
      <trkpt lat="44.61516" lon="0.86246">
        <ele>174.4</ele>
        <time>2018-07-22T14:37:11Z</time>
      </trkpt>
      <trkpt lat="44.61514" lon="0.8625">
        <ele>174.6</ele>
        <time>2018-07-22T14:37:12Z</time>
      </trkpt>
      <trkpt lat="44.61512" lon="0.86253">
        <ele>174.8</ele>
        <time>2018-07-22T14:37:13Z</time>
      </trkpt>
      <trkpt lat="44.6151" lon="0.86257">
        <ele>175</ele>
        <time>2018-07-22T14:37:14Z</time>
      </trkpt>
      <trkpt lat="44.61508" lon="0.8626">
        <ele>175.2</ele>
        <time>2018-07-22T14:37:15Z</time>
      </trkpt>
      <trkpt lat="44.61507" lon="0.86263">
        <ele>175.2</ele>
        <time>2018-07-22T14:37:16Z</time>
      </trkpt>
      <trkpt lat="44.61505" lon="0.86267">
        <ele>175.4</ele>
        <time>2018-07-22T14:37:17Z</time>
      </trkpt>
      <trkpt lat="44.61503" lon="0.8627">
        <ele>175.6</ele>
        <time>2018-07-22T14:37:18Z</time>
      </trkpt>
      <trkpt lat="44.61501" lon="0.86273">
        <ele>175.7</ele>
        <time>2018-07-22T14:37:19Z</time>
      </trkpt>
      <trkpt lat="44.615" lon="0.86277">
        <ele>175.8</ele>
        <time>2018-07-22T14:37:20Z</time>
      </trkpt>
      <trkpt lat="44.61498" lon="0.86281">
        <ele>175.9</ele>
        <time>2018-07-22T14:37:21Z</time>
      </trkpt>
      <trkpt lat="44.61496" lon="0.86284">
        <ele>176.2</ele>
        <time>2018-07-22T14:37:22Z</time>
      </trkpt>
      <trkpt lat="44.61495" lon="0.86287">
        <ele>176.2</ele>
        <time>2018-07-22T14:37:23Z</time>
      </trkpt>
      <trkpt lat="44.61493" lon="0.86291">
        <ele>176.4</ele>
        <time>2018-07-22T14:37:24Z</time>
      </trkpt>
      <trkpt lat="44.61491" lon="0.86295">
        <ele>176.5</ele>
        <time>2018-07-22T14:37:25Z</time>
      </trkpt>
      <trkpt lat="44.61489" lon="0.86299">
        <ele>176.7</ele>
        <time>2018-07-22T14:37:26Z</time>
      </trkpt>
      <trkpt lat="44.61488" lon="0.86302">
        <ele>176.8</ele>
        <time>2018-07-22T14:37:27Z</time>
      </trkpt>
      <trkpt lat="44.61484" lon="0.86307">
        <ele>177.1</ele>
        <time>2018-07-22T14:37:29Z</time>
      </trkpt>
      <trkpt lat="44.61481" lon="0.8631">
        <ele>177.2</ele>
        <time>2018-07-22T14:37:30Z</time>
      </trkpt>
      <trkpt lat="44.61479" lon="0.86313">
        <ele>177.3</ele>
        <time>2018-07-22T14:37:31Z</time>
      </trkpt>
      <trkpt lat="44.61477" lon="0.86317">
        <ele>177.5</ele>
        <time>2018-07-22T14:37:32Z</time>
      </trkpt>
      <trkpt lat="44.61474" lon="0.86321">
        <ele>177.8</ele>
        <time>2018-07-22T14:37:33Z</time>
      </trkpt>
      <trkpt lat="44.61471" lon="0.86325">
        <ele>178</ele>
        <time>2018-07-22T14:37:34Z</time>
      </trkpt>
      <trkpt lat="44.61468" lon="0.86329">
        <ele>178.3</ele>
        <time>2018-07-22T14:37:35Z</time>
      </trkpt>
      <trkpt lat="44.61465" lon="0.86333">
        <ele>178.5</ele>
        <time>2018-07-22T14:37:36Z</time>
      </trkpt>
      <trkpt lat="44.61462" lon="0.86338">
        <ele>178.8</ele>
        <time>2018-07-22T14:37:37Z</time>
      </trkpt>
      <trkpt lat="44.6146" lon="0.86344">
        <ele>179</ele>
        <time>2018-07-22T14:37:38Z</time>
      </trkpt>
      <trkpt lat="44.61458" lon="0.8635">
        <ele>179</ele>
        <time>2018-07-22T14:37:39Z</time>
      </trkpt>
      <trkpt lat="44.61457" lon="0.86357">
        <ele>179.3</ele>
        <time>2018-07-22T14:37:40Z</time>
      </trkpt>
      <trkpt lat="44.61455" lon="0.86364">
        <ele>179.5</ele>
        <time>2018-07-22T14:37:41Z</time>
      </trkpt>
      <trkpt lat="44.61455" lon="0.8637">
        <ele>179.6</ele>
        <time>2018-07-22T14:37:42Z</time>
      </trkpt>
      <trkpt lat="44.61454" lon="0.86377">
        <ele>180.1</ele>
        <time>2018-07-22T14:37:43Z</time>
      </trkpt>
      <trkpt lat="44.61454" lon="0.86382">
        <ele>180.3</ele>
        <time>2018-07-22T14:37:44Z</time>
      </trkpt>
      <trkpt lat="44.61453" lon="0.86387">
        <ele>180.5</ele>
        <time>2018-07-22T14:37:45Z</time>
      </trkpt>
      <trkpt lat="44.61451" lon="0.86391">
        <ele>180.9</ele>
        <time>2018-07-22T14:37:46Z</time>
      </trkpt>
      <trkpt lat="44.61449" lon="0.86395">
        <ele>181.1</ele>
        <time>2018-07-22T14:37:47Z</time>
      </trkpt>
      <trkpt lat="44.61446" lon="0.86398">
        <ele>181.6</ele>
        <time>2018-07-22T14:37:48Z</time>
      </trkpt>
      <trkpt lat="44.61444" lon="0.86401">
        <ele>181.9</ele>
        <time>2018-07-22T14:37:49Z</time>
      </trkpt>
      <trkpt lat="44.6144" lon="0.86405">
        <ele>182.5</ele>
        <time>2018-07-22T14:37:51Z</time>
      </trkpt>
      <trkpt lat="44.61438" lon="0.86408">
        <ele>183</ele>
        <time>2018-07-22T14:37:52Z</time>
      </trkpt>
      <trkpt lat="44.61435" lon="0.86409">
        <ele>183.3</ele>
        <time>2018-07-22T14:37:53Z</time>
      </trkpt>
      <trkpt lat="44.61431" lon="0.86414">
        <ele>183.8</ele>
        <time>2018-07-22T14:37:55Z</time>
      </trkpt>
      <trkpt lat="44.61428" lon="0.86419">
        <ele>184.3</ele>
        <time>2018-07-22T14:37:57Z</time>
      </trkpt>
      <trkpt lat="44.61425" lon="0.86424">
        <ele>184.7</ele>
        <time>2018-07-22T14:37:59Z</time>
      </trkpt>
      <trkpt lat="44.61422" lon="0.86429">
        <ele>185.1</ele>
        <time>2018-07-22T14:38:01Z</time>
      </trkpt>
      <trkpt lat="44.6142" lon="0.86434">
        <ele>185.4</ele>
        <time>2018-07-22T14:38:03Z</time>
      </trkpt>
      <trkpt lat="44.61419" lon="0.8644">
        <ele>185.5</ele>
        <time>2018-07-22T14:38:05Z</time>
      </trkpt>
      <trkpt lat="44.61416" lon="0.86445">
        <ele>185.9</ele>
        <time>2018-07-22T14:38:07Z</time>
      </trkpt>
      <trkpt lat="44.61414" lon="0.8645">
        <ele>186.3</ele>
        <time>2018-07-22T14:38:09Z</time>
      </trkpt>
      <trkpt lat="44.6141" lon="0.86455">
        <ele>186.6</ele>
        <time>2018-07-22T14:38:11Z</time>
      </trkpt>
      <trkpt lat="44.61408" lon="0.8646">
        <ele>186.8</ele>
        <time>2018-07-22T14:38:13Z</time>
      </trkpt>
      <trkpt lat="44.61404" lon="0.86464">
        <ele>187.1</ele>
        <time>2018-07-22T14:38:15Z</time>
      </trkpt>
      <trkpt lat="44.61401" lon="0.86469">
        <ele>187.3</ele>
        <time>2018-07-22T14:38:17Z</time>
      </trkpt>
      <trkpt lat="44.61399" lon="0.86472">
        <ele>187.6</ele>
        <time>2018-07-22T14:38:18Z</time>
      </trkpt>
      <trkpt lat="44.61397" lon="0.86476">
        <ele>187.6</ele>
        <time>2018-07-22T14:38:19Z</time>
      </trkpt>
      <trkpt lat="44.61395" lon="0.86479">
        <ele>187.8</ele>
        <time>2018-07-22T14:38:20Z</time>
      </trkpt>
      <trkpt lat="44.61393" lon="0.86482">
        <ele>188.2</ele>
        <time>2018-07-22T14:38:21Z</time>
      </trkpt>
      <trkpt lat="44.6139" lon="0.86485">
        <ele>188.2</ele>
        <time>2018-07-22T14:38:22Z</time>
      </trkpt>
      <trkpt lat="44.61388" lon="0.86488">
        <ele>188.4</ele>
        <time>2018-07-22T14:38:23Z</time>
      </trkpt>
      <trkpt lat="44.61386" lon="0.86494">
        <ele>188.6</ele>
        <time>2018-07-22T14:38:25Z</time>
      </trkpt>
      <trkpt lat="44.61385" lon="0.86501">
        <ele>188.4</ele>
        <time>2018-07-22T14:38:27Z</time>
      </trkpt>
      <trkpt lat="44.61385" lon="0.86506">
        <ele>188.4</ele>
        <time>2018-07-22T14:38:29Z</time>
      </trkpt>
      <trkpt lat="44.61383" lon="0.86512">
        <ele>188.4</ele>
        <time>2018-07-22T14:38:31Z</time>
      </trkpt>
      <trkpt lat="44.61381" lon="0.86517">
        <ele>188.5</ele>
        <time>2018-07-22T14:38:33Z</time>
      </trkpt>
      <trkpt lat="44.61378" lon="0.86518">
        <ele>188.5</ele>
        <time>2018-07-22T14:38:34Z</time>
      </trkpt>
      <trkpt lat="44.61375" lon="0.86518">
        <ele>188.5</ele>
        <time>2018-07-22T14:38:35Z</time>
      </trkpt>
      <trkpt lat="44.61372" lon="0.86516">
        <ele>188.5</ele>
        <time>2018-07-22T14:38:36Z</time>
      </trkpt>
      <trkpt lat="44.61369" lon="0.86514">
        <ele>188.5</ele>
        <time>2018-07-22T14:38:37Z</time>
      </trkpt>
      <trkpt lat="44.61366" lon="0.86511">
        <ele>188.5</ele>
        <time>2018-07-22T14:38:38Z</time>
      </trkpt>
      <trkpt lat="44.61363" lon="0.86507">
        <ele>188.5</ele>
        <time>2018-07-22T14:38:39Z</time>
      </trkpt>
      <trkpt lat="44.6136" lon="0.86504">
        <ele>188.5</ele>
        <time>2018-07-22T14:38:40Z</time>
      </trkpt>
      <trkpt lat="44.61357" lon="0.86501">
        <ele>188.4</ele>
        <time>2018-07-22T14:38:41Z</time>
      </trkpt>
      <trkpt lat="44.61353" lon="0.86497">
        <ele>188.4</ele>
        <time>2018-07-22T14:38:42Z</time>
      </trkpt>
      <trkpt lat="44.6135" lon="0.86494">
        <ele>188.4</ele>
        <time>2018-07-22T14:38:43Z</time>
      </trkpt>
      <trkpt lat="44.61347" lon="0.86492">
        <ele>188.4</ele>
        <time>2018-07-22T14:38:44Z</time>
      </trkpt>
      <trkpt lat="44.61344" lon="0.8649">
        <ele>188.4</ele>
        <time>2018-07-22T14:38:45Z</time>
      </trkpt>
      <trkpt lat="44.61341" lon="0.86488">
        <ele>188.4</ele>
        <time>2018-07-22T14:38:46Z</time>
      </trkpt>
      <trkpt lat="44.61337" lon="0.86485">
        <ele>188.4</ele>
        <time>2018-07-22T14:38:47Z</time>
      </trkpt>
      <trkpt lat="44.61334" lon="0.86482">
        <ele>188.3</ele>
        <time>2018-07-22T14:38:48Z</time>
      </trkpt>
      <trkpt lat="44.61332" lon="0.86479">
        <ele>188.3</ele>
        <time>2018-07-22T14:38:49Z</time>
      </trkpt>
      <trkpt lat="44.61329" lon="0.86477">
        <ele>188.3</ele>
        <time>2018-07-22T14:38:50Z</time>
      </trkpt>
      <trkpt lat="44.61326" lon="0.86474">
        <ele>188.3</ele>
        <time>2018-07-22T14:38:51Z</time>
      </trkpt>
      <trkpt lat="44.61322" lon="0.86471">
        <ele>188.2</ele>
        <time>2018-07-22T14:38:53Z</time>
      </trkpt>
      <trkpt lat="44.6132" lon="0.86469">
        <ele>188.2</ele>
        <time>2018-07-22T14:38:54Z</time>
      </trkpt>
      <trkpt lat="44.61317" lon="0.86467">
        <ele>188.1</ele>
        <time>2018-07-22T14:38:55Z</time>
      </trkpt>
      <trkpt lat="44.61314" lon="0.86465">
        <ele>188.1</ele>
        <time>2018-07-22T14:38:56Z</time>
      </trkpt>
      <trkpt lat="44.61311" lon="0.86463">
        <ele>188</ele>
        <time>2018-07-22T14:38:57Z</time>
      </trkpt>
      <trkpt lat="44.61308" lon="0.86461">
        <ele>188</ele>
        <time>2018-07-22T14:38:58Z</time>
      </trkpt>
      <trkpt lat="44.61305" lon="0.86459">
        <ele>187.9</ele>
        <time>2018-07-22T14:38:59Z</time>
      </trkpt>
      <trkpt lat="44.61303" lon="0.86458">
        <ele>187.8</ele>
        <time>2018-07-22T14:39:00Z</time>
      </trkpt>
      <trkpt lat="44.613" lon="0.86456">
        <ele>187.7</ele>
        <time>2018-07-22T14:39:01Z</time>
      </trkpt>
      <trkpt lat="44.61297" lon="0.86455">
        <ele>187.5</ele>
        <time>2018-07-22T14:39:02Z</time>
      </trkpt>
      <trkpt lat="44.61294" lon="0.86452">
        <ele>187.3</ele>
        <time>2018-07-22T14:39:03Z</time>
      </trkpt>
      <trkpt lat="44.61291" lon="0.8645">
        <ele>187.1</ele>
        <time>2018-07-22T14:39:04Z</time>
      </trkpt>
      <trkpt lat="44.61288" lon="0.86446">
        <ele>186.8</ele>
        <time>2018-07-22T14:39:05Z</time>
      </trkpt>
      <trkpt lat="44.61286" lon="0.86443">
        <ele>186.6</ele>
        <time>2018-07-22T14:39:06Z</time>
      </trkpt>
      <trkpt lat="44.61283" lon="0.86439">
        <ele>186.3</ele>
        <time>2018-07-22T14:39:07Z</time>
      </trkpt>
      <trkpt lat="44.6128" lon="0.86436">
        <ele>186</ele>
        <time>2018-07-22T14:39:08Z</time>
      </trkpt>
      <trkpt lat="44.61277" lon="0.86432">
        <ele>185.8</ele>
        <time>2018-07-22T14:39:09Z</time>
      </trkpt>
      <trkpt lat="44.61273" lon="0.86428">
        <ele>185.5</ele>
        <time>2018-07-22T14:39:10Z</time>
      </trkpt>
      <trkpt lat="44.6127" lon="0.86424">
        <ele>185.2</ele>
        <time>2018-07-22T14:39:11Z</time>
      </trkpt>
      <trkpt lat="44.61252" lon="0.86412">
        <ele>184.5</ele>
        <time>2018-07-22T14:39:13Z</time>
      </trkpt>
      <trkpt lat="44.61245" lon="0.86408">
        <ele>184.4</ele>
        <time>2018-07-22T14:39:15Z</time>
      </trkpt>
      <trkpt lat="44.61241" lon="0.86407">
        <ele>184.4</ele>
        <time>2018-07-22T14:39:16Z</time>
      </trkpt>
      <trkpt lat="44.61237" lon="0.86409">
        <ele>184.4</ele>
        <time>2018-07-22T14:39:19Z</time>
      </trkpt>
      <trkpt lat="44.61234" lon="0.86413">
        <ele>184.4</ele>
        <time>2018-07-22T14:39:21Z</time>
      </trkpt>
      <trkpt lat="44.61231" lon="0.8642">
        <ele>184.5</ele>
        <time>2018-07-22T14:39:23Z</time>
      </trkpt>
      <trkpt lat="44.61229" lon="0.86424">
        <ele>184.7</ele>
        <time>2018-07-22T14:39:24Z</time>
      </trkpt>
      <trkpt lat="44.61228" lon="0.86428">
        <ele>184.7</ele>
        <time>2018-07-22T14:39:25Z</time>
      </trkpt>
      <trkpt lat="44.61227" lon="0.86432">
        <ele>184.8</ele>
        <time>2018-07-22T14:39:26Z</time>
      </trkpt>
      <trkpt lat="44.61225" lon="0.86436">
        <ele>184.7</ele>
        <time>2018-07-22T14:39:27Z</time>
      </trkpt>
      <trkpt lat="44.61222" lon="0.86439">
        <ele>184.7</ele>
        <time>2018-07-22T14:39:28Z</time>
      </trkpt>
      <trkpt lat="44.61219" lon="0.86443">
        <ele>184.8</ele>
        <time>2018-07-22T14:39:29Z</time>
      </trkpt>
      <trkpt lat="44.61217" lon="0.86446">
        <ele>184.8</ele>
        <time>2018-07-22T14:39:30Z</time>
      </trkpt>
      <trkpt lat="44.61214" lon="0.8645">
        <ele>184.8</ele>
        <time>2018-07-22T14:39:31Z</time>
      </trkpt>
      <trkpt lat="44.61212" lon="0.86453">
        <ele>184.8</ele>
        <time>2018-07-22T14:39:32Z</time>
      </trkpt>
      <trkpt lat="44.61209" lon="0.86457">
        <ele>184.7</ele>
        <time>2018-07-22T14:39:33Z</time>
      </trkpt>
      <trkpt lat="44.61206" lon="0.86461">
        <ele>184.6</ele>
        <time>2018-07-22T14:39:34Z</time>
      </trkpt>
      <trkpt lat="44.61204" lon="0.86464">
        <ele>184.6</ele>
        <time>2018-07-22T14:39:35Z</time>
      </trkpt>
      <trkpt lat="44.61201" lon="0.86468">
        <ele>184.7</ele>
        <time>2018-07-22T14:39:36Z</time>
      </trkpt>
      <trkpt lat="44.61199" lon="0.86472">
        <ele>184.6</ele>
        <time>2018-07-22T14:39:37Z</time>
      </trkpt>
      <trkpt lat="44.61196" lon="0.86477">
        <ele>184.6</ele>
        <time>2018-07-22T14:39:38Z</time>
      </trkpt>
      <trkpt lat="44.61193" lon="0.86481">
        <ele>184.6</ele>
        <time>2018-07-22T14:39:39Z</time>
      </trkpt>
      <trkpt lat="44.6119" lon="0.86485">
        <ele>184.6</ele>
        <time>2018-07-22T14:39:40Z</time>
      </trkpt>
      <trkpt lat="44.61186" lon="0.86489">
        <ele>184.6</ele>
        <time>2018-07-22T14:39:41Z</time>
      </trkpt>
      <trkpt lat="44.61183" lon="0.86493">
        <ele>184.6</ele>
        <time>2018-07-22T14:39:42Z</time>
      </trkpt>
      <trkpt lat="44.6118" lon="0.86497">
        <ele>184.6</ele>
        <time>2018-07-22T14:39:43Z</time>
      </trkpt>
      <trkpt lat="44.61177" lon="0.86501">
        <ele>184.6</ele>
        <time>2018-07-22T14:39:44Z</time>
      </trkpt>
      <trkpt lat="44.61175" lon="0.86505">
        <ele>184.5</ele>
        <time>2018-07-22T14:39:45Z</time>
      </trkpt>
      <trkpt lat="44.61172" lon="0.86509">
        <ele>184.5</ele>
        <time>2018-07-22T14:39:46Z</time>
      </trkpt>
      <trkpt lat="44.61169" lon="0.86513">
        <ele>184.5</ele>
        <time>2018-07-22T14:39:47Z</time>
      </trkpt>
      <trkpt lat="44.61167" lon="0.86517">
        <ele>184.4</ele>
        <time>2018-07-22T14:39:48Z</time>
      </trkpt>
      <trkpt lat="44.61165" lon="0.86522">
        <ele>184.4</ele>
        <time>2018-07-22T14:39:49Z</time>
      </trkpt>
      <trkpt lat="44.61163" lon="0.86527">
        <ele>184.4</ele>
        <time>2018-07-22T14:39:50Z</time>
      </trkpt>
      <trkpt lat="44.61161" lon="0.86534">
        <ele>184.4</ele>
        <time>2018-07-22T14:39:51Z</time>
      </trkpt>
      <trkpt lat="44.61158" lon="0.86541">
        <ele>184.4</ele>
        <time>2018-07-22T14:39:52Z</time>
      </trkpt>
      <trkpt lat="44.61156" lon="0.86548">
        <ele>184.4</ele>
        <time>2018-07-22T14:39:53Z</time>
      </trkpt>
      <trkpt lat="44.61154" lon="0.86555">
        <ele>184.4</ele>
        <time>2018-07-22T14:39:54Z</time>
      </trkpt>
      <trkpt lat="44.61153" lon="0.86562">
        <ele>184.4</ele>
        <time>2018-07-22T14:39:55Z</time>
      </trkpt>
      <trkpt lat="44.61151" lon="0.8657">
        <ele>184.4</ele>
        <time>2018-07-22T14:39:56Z</time>
      </trkpt>
      <trkpt lat="44.6115" lon="0.86577">
        <ele>184.4</ele>
        <time>2018-07-22T14:39:57Z</time>
      </trkpt>
      <trkpt lat="44.61148" lon="0.86585">
        <ele>184.3</ele>
        <time>2018-07-22T14:39:58Z</time>
      </trkpt>
      <trkpt lat="44.61145" lon="0.86591">
        <ele>184.3</ele>
        <time>2018-07-22T14:39:59Z</time>
      </trkpt>
      <trkpt lat="44.61143" lon="0.86598">
        <ele>184.3</ele>
        <time>2018-07-22T14:40:00Z</time>
      </trkpt>
      <trkpt lat="44.61141" lon="0.86604">
        <ele>184.2</ele>
        <time>2018-07-22T14:40:01Z</time>
      </trkpt>
      <trkpt lat="44.61139" lon="0.86609">
        <ele>184.2</ele>
        <time>2018-07-22T14:40:02Z</time>
      </trkpt>
      <trkpt lat="44.61137" lon="0.86616">
        <ele>184.2</ele>
        <time>2018-07-22T14:40:03Z</time>
      </trkpt>
      <trkpt lat="44.61138" lon="0.86625">
        <ele>184.1</ele>
        <time>2018-07-22T14:40:04Z</time>
      </trkpt>
      <trkpt lat="44.61135" lon="0.86633">
        <ele>184.1</ele>
        <time>2018-07-22T14:40:05Z</time>
      </trkpt>
      <trkpt lat="44.61133" lon="0.86643">
        <ele>184</ele>
        <time>2018-07-22T14:40:06Z</time>
      </trkpt>
      <trkpt lat="44.61132" lon="0.86651">
        <ele>183.9</ele>
        <time>2018-07-22T14:40:07Z</time>
      </trkpt>
      <trkpt lat="44.61133" lon="0.86658">
        <ele>183.8</ele>
        <time>2018-07-22T14:40:08Z</time>
      </trkpt>
      <trkpt lat="44.61129" lon="0.86665">
        <ele>183.8</ele>
        <time>2018-07-22T14:40:09Z</time>
      </trkpt>
      <trkpt lat="44.61127" lon="0.86671">
        <ele>183.8</ele>
        <time>2018-07-22T14:40:10Z</time>
      </trkpt>
      <trkpt lat="44.61124" lon="0.86675">
        <ele>183.8</ele>
        <time>2018-07-22T14:40:11Z</time>
      </trkpt>
      <trkpt lat="44.61122" lon="0.86681">
        <ele>183.6</ele>
        <time>2018-07-22T14:40:12Z</time>
      </trkpt>
      <trkpt lat="44.61122" lon="0.86691">
        <ele>183.4</ele>
        <time>2018-07-22T14:40:13Z</time>
      </trkpt>
      <trkpt lat="44.61119" lon="0.86697">
        <ele>183.4</ele>
        <time>2018-07-22T14:40:14Z</time>
      </trkpt>
      <trkpt lat="44.61117" lon="0.86703">
        <ele>183.4</ele>
        <time>2018-07-22T14:40:15Z</time>
      </trkpt>
      <trkpt lat="44.61114" lon="0.86709">
        <ele>183.4</ele>
        <time>2018-07-22T14:40:16Z</time>
      </trkpt>
      <trkpt lat="44.61111" lon="0.86716">
        <ele>183.4</ele>
        <time>2018-07-22T14:40:17Z</time>
      </trkpt>
      <trkpt lat="44.61112" lon="0.86724">
        <ele>183.2</ele>
        <time>2018-07-22T14:40:18Z</time>
      </trkpt>
      <trkpt lat="44.61105" lon="0.86731">
        <ele>183.5</ele>
        <time>2018-07-22T14:40:19Z</time>
      </trkpt>
      <trkpt lat="44.61104" lon="0.86738">
        <ele>183.3</ele>
        <time>2018-07-22T14:40:20Z</time>
      </trkpt>
      <trkpt lat="44.611" lon="0.86743">
        <ele>183.3</ele>
        <time>2018-07-22T14:40:21Z</time>
      </trkpt>
      <trkpt lat="44.611" lon="0.86749">
        <ele>183.4</ele>
        <time>2018-07-22T14:40:22Z</time>
      </trkpt>
      <trkpt lat="44.61101" lon="0.86758">
        <ele>183</ele>
        <time>2018-07-22T14:40:23Z</time>
      </trkpt>
      <trkpt lat="44.61101" lon="0.86767">
        <ele>182.5</ele>
        <time>2018-07-22T14:40:24Z</time>
      </trkpt>
      <trkpt lat="44.61099" lon="0.86781">
        <ele>182.2</ele>
        <time>2018-07-22T14:40:25Z</time>
      </trkpt>
      <trkpt lat="44.61093" lon="0.8679">
        <ele>182.1</ele>
        <time>2018-07-22T14:40:26Z</time>
      </trkpt>
      <trkpt lat="44.61091" lon="0.868">
        <ele>181.8</ele>
        <time>2018-07-22T14:40:27Z</time>
      </trkpt>
      <trkpt lat="44.61086" lon="0.86812">
        <ele>181.4</ele>
        <time>2018-07-22T14:40:28Z</time>
      </trkpt>
      <trkpt lat="44.61085" lon="0.86818">
        <ele>181.1</ele>
        <time>2018-07-22T14:40:29Z</time>
      </trkpt>
      <trkpt lat="44.61083" lon="0.86826">
        <ele>180.9</ele>
        <time>2018-07-22T14:40:30Z</time>
      </trkpt>
      <trkpt lat="44.61082" lon="0.86832">
        <ele>180.6</ele>
        <time>2018-07-22T14:40:31Z</time>
      </trkpt>
      <trkpt lat="44.61085" lon="0.86842">
        <ele>180.2</ele>
        <time>2018-07-22T14:40:32Z</time>
      </trkpt>
      <trkpt lat="44.61082" lon="0.86849">
        <ele>179.9</ele>
        <time>2018-07-22T14:40:33Z</time>
      </trkpt>
      <trkpt lat="44.61076" lon="0.86859">
        <ele>179.5</ele>
        <time>2018-07-22T14:40:34Z</time>
      </trkpt>
      <trkpt lat="44.61076" lon="0.86866">
        <ele>179.1</ele>
        <time>2018-07-22T14:40:35Z</time>
      </trkpt>
      <trkpt lat="44.6107" lon="0.86876">
        <ele>178.7</ele>
        <time>2018-07-22T14:40:36Z</time>
      </trkpt>
      <trkpt lat="44.61067" lon="0.86879">
        <ele>178.6</ele>
        <time>2018-07-22T14:40:37Z</time>
      </trkpt>
      <trkpt lat="44.61064" lon="0.86884">
        <ele>178.4</ele>
        <time>2018-07-22T14:40:38Z</time>
      </trkpt>
      <trkpt lat="44.61062" lon="0.8689">
        <ele>178.3</ele>
        <time>2018-07-22T14:40:39Z</time>
      </trkpt>
      <trkpt lat="44.61064" lon="0.86899">
        <ele>177.9</ele>
        <time>2018-07-22T14:40:40Z</time>
      </trkpt>
      <trkpt lat="44.61058" lon="0.86903">
        <ele>177.7</ele>
        <time>2018-07-22T14:40:41Z</time>
      </trkpt>
      <trkpt lat="44.61057" lon="0.86909">
        <ele>177.3</ele>
        <time>2018-07-22T14:40:42Z</time>
      </trkpt>
      <trkpt lat="44.61056" lon="0.86915">
        <ele>177.1</ele>
        <time>2018-07-22T14:40:43Z</time>
      </trkpt>
      <trkpt lat="44.61054" lon="0.86922">
        <ele>176.7</ele>
        <time>2018-07-22T14:40:44Z</time>
      </trkpt>
      <trkpt lat="44.61052" lon="0.86929">
        <ele>176.5</ele>
        <time>2018-07-22T14:40:45Z</time>
      </trkpt>
      <trkpt lat="44.6105" lon="0.86937">
        <ele>176.2</ele>
        <time>2018-07-22T14:40:46Z</time>
      </trkpt>
      <trkpt lat="44.61048" lon="0.86947">
        <ele>175.7</ele>
        <time>2018-07-22T14:40:47Z</time>
      </trkpt>
      <trkpt lat="44.61048" lon="0.86956">
        <ele>175.5</ele>
        <time>2018-07-22T14:40:48Z</time>
      </trkpt>
      <trkpt lat="44.61049" lon="0.86963">
        <ele>175.5</ele>
        <time>2018-07-22T14:40:49Z</time>
      </trkpt>
      <trkpt lat="44.61048" lon="0.86971">
        <ele>175.4</ele>
        <time>2018-07-22T14:40:50Z</time>
      </trkpt>
      <trkpt lat="44.61046" lon="0.86979">
        <ele>175.4</ele>
        <time>2018-07-22T14:40:51Z</time>
      </trkpt>
      <trkpt lat="44.61045" lon="0.86987">
        <ele>175.4</ele>
        <time>2018-07-22T14:40:52Z</time>
      </trkpt>
      <trkpt lat="44.6104" lon="0.86994">
        <ele>175.4</ele>
        <time>2018-07-22T14:40:53Z</time>
      </trkpt>
      <trkpt lat="44.61037" lon="0.87">
        <ele>175.4</ele>
        <time>2018-07-22T14:40:54Z</time>
      </trkpt>
      <trkpt lat="44.61034" lon="0.87005">
        <ele>175.4</ele>
        <time>2018-07-22T14:40:56Z</time>
      </trkpt>
      <trkpt lat="44.61034" lon="0.87014">
        <ele>175.3</ele>
        <time>2018-07-22T14:40:57Z</time>
      </trkpt>
      <trkpt lat="44.6103" lon="0.87029">
        <ele>175.3</ele>
        <time>2018-07-22T14:40:58Z</time>
      </trkpt>
      <trkpt lat="44.61027" lon="0.87044">
        <ele>175.1</ele>
        <time>2018-07-22T14:41:00Z</time>
      </trkpt>
      <trkpt lat="44.61031" lon="0.87057">
        <ele>174.8</ele>
        <time>2018-07-22T14:41:01Z</time>
      </trkpt>
      <trkpt lat="44.61032" lon="0.87061">
        <ele>174.8</ele>
        <time>2018-07-22T14:41:02Z</time>
      </trkpt>
      <trkpt lat="44.61032" lon="0.87071">
        <ele>174.7</ele>
        <time>2018-07-22T14:41:03Z</time>
      </trkpt>
      <trkpt lat="44.61033" lon="0.87079">
        <ele>174.6</ele>
        <time>2018-07-22T14:41:04Z</time>
      </trkpt>
      <trkpt lat="44.61038" lon="0.87088">
        <ele>174.3</ele>
        <time>2018-07-22T14:41:05Z</time>
      </trkpt>
      <trkpt lat="44.61036" lon="0.87098">
        <ele>174.3</ele>
        <time>2018-07-22T14:41:06Z</time>
      </trkpt>
      <trkpt lat="44.61038" lon="0.87109">
        <ele>174.2</ele>
        <time>2018-07-22T14:41:07Z</time>
      </trkpt>
      <trkpt lat="44.61038" lon="0.8712">
        <ele>173.9</ele>
        <time>2018-07-22T14:41:08Z</time>
      </trkpt>
      <trkpt lat="44.61035" lon="0.87126">
        <ele>174</ele>
        <time>2018-07-22T14:41:09Z</time>
      </trkpt>
      <trkpt lat="44.61036" lon="0.87133">
        <ele>173.7</ele>
        <time>2018-07-22T14:41:10Z</time>
      </trkpt>
      <trkpt lat="44.61035" lon="0.87141">
        <ele>173.5</ele>
        <time>2018-07-22T14:41:11Z</time>
      </trkpt>
      <trkpt lat="44.61034" lon="0.87149">
        <ele>173.2</ele>
        <time>2018-07-22T14:41:12Z</time>
      </trkpt>
      <trkpt lat="44.6103" lon="0.87157">
        <ele>173.1</ele>
        <time>2018-07-22T14:41:13Z</time>
      </trkpt>
      <trkpt lat="44.61026" lon="0.87166">
        <ele>173.1</ele>
        <time>2018-07-22T14:41:14Z</time>
      </trkpt>
      <trkpt lat="44.61024" lon="0.87175">
        <ele>172.7</ele>
        <time>2018-07-22T14:41:15Z</time>
      </trkpt>
      <trkpt lat="44.61021" lon="0.87187">
        <ele>172.3</ele>
        <time>2018-07-22T14:41:16Z</time>
      </trkpt>
      <trkpt lat="44.6102" lon="0.87196">
        <ele>172.1</ele>
        <time>2018-07-22T14:41:17Z</time>
      </trkpt>
      <trkpt lat="44.61018" lon="0.87205">
        <ele>171.7</ele>
        <time>2018-07-22T14:41:18Z</time>
      </trkpt>
      <trkpt lat="44.61013" lon="0.87212">
        <ele>171.7</ele>
        <time>2018-07-22T14:41:19Z</time>
      </trkpt>
      <trkpt lat="44.61009" lon="0.8722">
        <ele>171.5</ele>
        <time>2018-07-22T14:41:20Z</time>
      </trkpt>
      <trkpt lat="44.61003" lon="0.87228">
        <ele>171.3</ele>
        <time>2018-07-22T14:41:21Z</time>
      </trkpt>
      <trkpt lat="44.60998" lon="0.87236">
        <ele>171.2</ele>
        <time>2018-07-22T14:41:22Z</time>
      </trkpt>
      <trkpt lat="44.60995" lon="0.87243">
        <ele>170.9</ele>
        <time>2018-07-22T14:41:23Z</time>
      </trkpt>
      <trkpt lat="44.60989" lon="0.87249">
        <ele>170.9</ele>
        <time>2018-07-22T14:41:24Z</time>
      </trkpt>
      <trkpt lat="44.60984" lon="0.87256">
        <ele>170.6</ele>
        <time>2018-07-22T14:41:25Z</time>
      </trkpt>
      <trkpt lat="44.60981" lon="0.87263">
        <ele>170.6</ele>
        <time>2018-07-22T14:41:26Z</time>
      </trkpt>
      <trkpt lat="44.60976" lon="0.87269">
        <ele>170.3</ele>
        <time>2018-07-22T14:41:27Z</time>
      </trkpt>
      <trkpt lat="44.60973" lon="0.87274">
        <ele>170.2</ele>
        <time>2018-07-22T14:41:28Z</time>
      </trkpt>
      <trkpt lat="44.60969" lon="0.8728">
        <ele>170.1</ele>
        <time>2018-07-22T14:41:29Z</time>
      </trkpt>
      <trkpt lat="44.60965" lon="0.87286">
        <ele>170</ele>
        <time>2018-07-22T14:41:30Z</time>
      </trkpt>
      <trkpt lat="44.60962" lon="0.87293">
        <ele>170</ele>
        <time>2018-07-22T14:41:31Z</time>
      </trkpt>
      <trkpt lat="44.60958" lon="0.87299">
        <ele>169.9</ele>
        <time>2018-07-22T14:41:32Z</time>
      </trkpt>
      <trkpt lat="44.60955" lon="0.87306">
        <ele>169.9</ele>
        <time>2018-07-22T14:41:33Z</time>
      </trkpt>
      <trkpt lat="44.60955" lon="0.87312">
        <ele>169.4</ele>
        <time>2018-07-22T14:41:34Z</time>
      </trkpt>
      <trkpt lat="44.6095" lon="0.87319">
        <ele>169.5</ele>
        <time>2018-07-22T14:41:35Z</time>
      </trkpt>
      <trkpt lat="44.60947" lon="0.87326">
        <ele>169.2</ele>
        <time>2018-07-22T14:41:36Z</time>
      </trkpt>
      <trkpt lat="44.60942" lon="0.87333">
        <ele>169.1</ele>
        <time>2018-07-22T14:41:37Z</time>
      </trkpt>
      <trkpt lat="44.60935" lon="0.8734">
        <ele>168.9</ele>
        <time>2018-07-22T14:41:38Z</time>
      </trkpt>
      <trkpt lat="44.60931" lon="0.87346">
        <ele>168.5</ele>
        <time>2018-07-22T14:41:39Z</time>
      </trkpt>
      <trkpt lat="44.60928" lon="0.87352">
        <ele>168.4</ele>
        <time>2018-07-22T14:41:40Z</time>
      </trkpt>
      <trkpt lat="44.60925" lon="0.87359">
        <ele>167.9</ele>
        <time>2018-07-22T14:41:41Z</time>
      </trkpt>
      <trkpt lat="44.6092" lon="0.87365">
        <ele>167.8</ele>
        <time>2018-07-22T14:41:42Z</time>
      </trkpt>
      <trkpt lat="44.60916" lon="0.8737">
        <ele>167.9</ele>
        <time>2018-07-22T14:41:43Z</time>
      </trkpt>
      <trkpt lat="44.60911" lon="0.87377">
        <ele>167.3</ele>
        <time>2018-07-22T14:41:44Z</time>
      </trkpt>
      <trkpt lat="44.60906" lon="0.87381">
        <ele>167.3</ele>
        <time>2018-07-22T14:41:45Z</time>
      </trkpt>
      <trkpt lat="44.609" lon="0.87385">
        <ele>167.1</ele>
        <time>2018-07-22T14:41:46Z</time>
      </trkpt>
      <trkpt lat="44.60896" lon="0.8739">
        <ele>166.7</ele>
        <time>2018-07-22T14:41:47Z</time>
      </trkpt>
      <trkpt lat="44.60892" lon="0.87396">
        <ele>166.4</ele>
        <time>2018-07-22T14:41:48Z</time>
      </trkpt>
      <trkpt lat="44.60892" lon="0.87404">
        <ele>165.6</ele>
        <time>2018-07-22T14:41:49Z</time>
      </trkpt>
      <trkpt lat="44.6089" lon="0.87411">
        <ele>164.8</ele>
        <time>2018-07-22T14:41:50Z</time>
      </trkpt>
      <trkpt lat="44.60888" lon="0.87417">
        <ele>164.6</ele>
        <time>2018-07-22T14:41:51Z</time>
      </trkpt>
      <trkpt lat="44.60884" lon="0.87425">
        <ele>164</ele>
        <time>2018-07-22T14:41:52Z</time>
      </trkpt>
      <trkpt lat="44.6088" lon="0.87433">
        <ele>163.6</ele>
        <time>2018-07-22T14:41:53Z</time>
      </trkpt>
      <trkpt lat="44.60879" lon="0.87439">
        <ele>163.4</ele>
        <time>2018-07-22T14:41:54Z</time>
      </trkpt>
      <trkpt lat="44.60878" lon="0.87444">
        <ele>163.2</ele>
        <time>2018-07-22T14:41:55Z</time>
      </trkpt>
      <trkpt lat="44.60878" lon="0.87452">
        <ele>162.8</ele>
        <time>2018-07-22T14:41:56Z</time>
      </trkpt>
      <trkpt lat="44.60874" lon="0.87458">
        <ele>162.5</ele>
        <time>2018-07-22T14:41:57Z</time>
      </trkpt>
      <trkpt lat="44.60871" lon="0.87463">
        <ele>162.4</ele>
        <time>2018-07-22T14:41:58Z</time>
      </trkpt>
      <trkpt lat="44.60869" lon="0.87468">
        <ele>162.2</ele>
        <time>2018-07-22T14:41:59Z</time>
      </trkpt>
      <trkpt lat="44.60867" lon="0.87472">
        <ele>162.1</ele>
        <time>2018-07-22T14:42:00Z</time>
      </trkpt>
      <trkpt lat="44.60867" lon="0.87476">
        <ele>162</ele>
        <time>2018-07-22T14:42:01Z</time>
      </trkpt>
      <trkpt lat="44.60868" lon="0.8748">
        <ele>161.9</ele>
        <time>2018-07-22T14:42:03Z</time>
      </trkpt>
      <trkpt lat="44.60867" lon="0.87486">
        <ele>161.8</ele>
        <time>2018-07-22T14:42:04Z</time>
      </trkpt>
      <trkpt lat="44.60867" lon="0.87497">
        <ele>161.7</ele>
        <time>2018-07-22T14:42:05Z</time>
      </trkpt>
      <trkpt lat="44.60864" lon="0.87503">
        <ele>161.7</ele>
        <time>2018-07-22T14:42:06Z</time>
      </trkpt>
      <trkpt lat="44.60865" lon="0.87513">
        <ele>161.7</ele>
        <time>2018-07-22T14:42:07Z</time>
      </trkpt>
      <trkpt lat="44.60861" lon="0.87521">
        <ele>161.8</ele>
        <time>2018-07-22T14:42:08Z</time>
      </trkpt>
      <trkpt lat="44.60859" lon="0.87525">
        <ele>162</ele>
        <time>2018-07-22T14:42:09Z</time>
      </trkpt>
      <trkpt lat="44.60858" lon="0.87533">
        <ele>162.3</ele>
        <time>2018-07-22T14:42:10Z</time>
      </trkpt>
      <trkpt lat="44.60854" lon="0.87538">
        <ele>162.5</ele>
        <time>2018-07-22T14:42:11Z</time>
      </trkpt>
      <trkpt lat="44.60852" lon="0.87542">
        <ele>162.7</ele>
        <time>2018-07-22T14:42:12Z</time>
      </trkpt>
      <trkpt lat="44.60849" lon="0.87544">
        <ele>162.9</ele>
        <time>2018-07-22T14:42:13Z</time>
      </trkpt>
      <trkpt lat="44.60845" lon="0.87548">
        <ele>163</ele>
        <time>2018-07-22T14:42:14Z</time>
      </trkpt>
      <trkpt lat="44.60841" lon="0.87552">
        <ele>163.1</ele>
        <time>2018-07-22T14:42:15Z</time>
      </trkpt>
      <trkpt lat="44.60837" lon="0.87553">
        <ele>163</ele>
        <time>2018-07-22T14:42:16Z</time>
      </trkpt>
      <trkpt lat="44.60834" lon="0.87558">
        <ele>163.1</ele>
        <time>2018-07-22T14:42:18Z</time>
      </trkpt>
      <trkpt lat="44.60832" lon="0.87561">
        <ele>163.2</ele>
        <time>2018-07-22T14:42:19Z</time>
      </trkpt>
      <trkpt lat="44.60828" lon="0.87564">
        <ele>163</ele>
        <time>2018-07-22T14:42:21Z</time>
      </trkpt>
      <trkpt lat="44.60824" lon="0.87567">
        <ele>163.1</ele>
        <time>2018-07-22T14:42:23Z</time>
      </trkpt>
      <trkpt lat="44.6082" lon="0.8757">
        <ele>163.2</ele>
        <time>2018-07-22T14:42:25Z</time>
      </trkpt>
      <trkpt lat="44.60816" lon="0.87574">
        <ele>163.3</ele>
        <time>2018-07-22T14:42:27Z</time>
      </trkpt>
      <trkpt lat="44.60814" lon="0.87576">
        <ele>163.2</ele>
        <time>2018-07-22T14:42:28Z</time>
      </trkpt>
      <trkpt lat="44.60811" lon="0.87578">
        <ele>163.3</ele>
        <time>2018-07-22T14:42:29Z</time>
      </trkpt>
      <trkpt lat="44.60807" lon="0.8758">
        <ele>163.2</ele>
        <time>2018-07-22T14:42:30Z</time>
      </trkpt>
      <trkpt lat="44.60804" lon="0.87581">
        <ele>163</ele>
        <time>2018-07-22T14:42:31Z</time>
      </trkpt>
      <trkpt lat="44.60802" lon="0.87583">
        <ele>163.1</ele>
        <time>2018-07-22T14:42:32Z</time>
      </trkpt>
      <trkpt lat="44.60799" lon="0.87585">
        <ele>162.9</ele>
        <time>2018-07-22T14:42:33Z</time>
      </trkpt>
      <trkpt lat="44.60796" lon="0.87587">
        <ele>163</ele>
        <time>2018-07-22T14:42:34Z</time>
      </trkpt>
      <trkpt lat="44.60794" lon="0.8759">
        <ele>162.9</ele>
        <time>2018-07-22T14:42:35Z</time>
      </trkpt>
      <trkpt lat="44.60791" lon="0.87592">
        <ele>162.9</ele>
        <time>2018-07-22T14:42:36Z</time>
      </trkpt>
      <trkpt lat="44.60788" lon="0.87594">
        <ele>162.8</ele>
        <time>2018-07-22T14:42:37Z</time>
      </trkpt>
      <trkpt lat="44.60786" lon="0.87597">
        <ele>163</ele>
        <time>2018-07-22T14:42:38Z</time>
      </trkpt>
      <trkpt lat="44.60782" lon="0.876">
        <ele>162.9</ele>
        <time>2018-07-22T14:42:40Z</time>
      </trkpt>
      <trkpt lat="44.60777" lon="0.87602">
        <ele>162.7</ele>
        <time>2018-07-22T14:42:42Z</time>
      </trkpt>
      <trkpt lat="44.60772" lon="0.87603">
        <ele>162.5</ele>
        <time>2018-07-22T14:42:44Z</time>
      </trkpt>
      <trkpt lat="44.60769" lon="0.87602">
        <ele>162.4</ele>
        <time>2018-07-22T14:42:46Z</time>
      </trkpt>
      <trkpt lat="44.60766" lon="0.87602">
        <ele>162.4</ele>
        <time>2018-07-22T14:42:48Z</time>
      </trkpt>
      <trkpt lat="44.60763" lon="0.87602">
        <ele>162.3</ele>
        <time>2018-07-22T14:42:49Z</time>
      </trkpt>
      <trkpt lat="44.60759" lon="0.87602">
        <ele>162.3</ele>
        <time>2018-07-22T14:42:50Z</time>
      </trkpt>
      <trkpt lat="44.60755" lon="0.87603">
        <ele>162.4</ele>
        <time>2018-07-22T14:42:51Z</time>
      </trkpt>
      <trkpt lat="44.60752" lon="0.87606">
        <ele>162.4</ele>
        <time>2018-07-22T14:42:52Z</time>
      </trkpt>
      <trkpt lat="44.60749" lon="0.87609">
        <ele>162.6</ele>
        <time>2018-07-22T14:42:53Z</time>
      </trkpt>
      <trkpt lat="44.60746" lon="0.87612">
        <ele>162.8</ele>
        <time>2018-07-22T14:42:54Z</time>
      </trkpt>
      <trkpt lat="44.60744" lon="0.87616">
        <ele>162.8</ele>
        <time>2018-07-22T14:42:55Z</time>
      </trkpt>
      <trkpt lat="44.60742" lon="0.8762">
        <ele>163</ele>
        <time>2018-07-22T14:42:56Z</time>
      </trkpt>
      <trkpt lat="44.6074" lon="0.87624">
        <ele>163.2</ele>
        <time>2018-07-22T14:42:57Z</time>
      </trkpt>
      <trkpt lat="44.60737" lon="0.87628">
        <ele>163.5</ele>
        <time>2018-07-22T14:42:58Z</time>
      </trkpt>
      <trkpt lat="44.60733" lon="0.87633">
        <ele>163.7</ele>
        <time>2018-07-22T14:42:59Z</time>
      </trkpt>
      <trkpt lat="44.60724" lon="0.87637">
        <ele>164</ele>
        <time>2018-07-22T14:43:00Z</time>
      </trkpt>
      <trkpt lat="44.60721" lon="0.87644">
        <ele>164.4</ele>
        <time>2018-07-22T14:43:01Z</time>
      </trkpt>
      <trkpt lat="44.60719" lon="0.87651">
        <ele>164.7</ele>
        <time>2018-07-22T14:43:02Z</time>
      </trkpt>
      <trkpt lat="44.60717" lon="0.87658">
        <ele>164.9</ele>
        <time>2018-07-22T14:43:03Z</time>
      </trkpt>
      <trkpt lat="44.60713" lon="0.87665">
        <ele>165.2</ele>
        <time>2018-07-22T14:43:04Z</time>
      </trkpt>
      <trkpt lat="44.6071" lon="0.87671">
        <ele>165.4</ele>
        <time>2018-07-22T14:43:05Z</time>
      </trkpt>
      <trkpt lat="44.60708" lon="0.87679">
        <ele>165.7</ele>
        <time>2018-07-22T14:43:06Z</time>
      </trkpt>
      <trkpt lat="44.60706" lon="0.87684">
        <ele>165.8</ele>
        <time>2018-07-22T14:43:07Z</time>
      </trkpt>
      <trkpt lat="44.60705" lon="0.87689">
        <ele>166.1</ele>
        <time>2018-07-22T14:43:08Z</time>
      </trkpt>
      <trkpt lat="44.60703" lon="0.87695">
        <ele>166.2</ele>
        <time>2018-07-22T14:43:09Z</time>
      </trkpt>
      <trkpt lat="44.60701" lon="0.87701">
        <ele>166.4</ele>
        <time>2018-07-22T14:43:10Z</time>
      </trkpt>
      <trkpt lat="44.60699" lon="0.87705">
        <ele>166.5</ele>
        <time>2018-07-22T14:43:11Z</time>
      </trkpt>
      <trkpt lat="44.60698" lon="0.8771">
        <ele>166.7</ele>
        <time>2018-07-22T14:43:12Z</time>
      </trkpt>
      <trkpt lat="44.60697" lon="0.87714">
        <ele>166.8</ele>
        <time>2018-07-22T14:43:13Z</time>
      </trkpt>
      <trkpt lat="44.60696" lon="0.87721">
        <ele>167.2</ele>
        <time>2018-07-22T14:43:15Z</time>
      </trkpt>
      <trkpt lat="44.60695" lon="0.87725">
        <ele>167.3</ele>
        <time>2018-07-22T14:43:16Z</time>
      </trkpt>
      <trkpt lat="44.60693" lon="0.87729">
        <ele>167.6</ele>
        <time>2018-07-22T14:43:17Z</time>
      </trkpt>
      <trkpt lat="44.60692" lon="0.87733">
        <ele>167.7</ele>
        <time>2018-07-22T14:43:18Z</time>
      </trkpt>
      <trkpt lat="44.60691" lon="0.87737">
        <ele>167.9</ele>
        <time>2018-07-22T14:43:19Z</time>
      </trkpt>
      <trkpt lat="44.6069" lon="0.8774">
        <ele>168</ele>
        <time>2018-07-22T14:43:20Z</time>
      </trkpt>
      <trkpt lat="44.60689" lon="0.87744">
        <ele>168.2</ele>
        <time>2018-07-22T14:43:21Z</time>
      </trkpt>
      <trkpt lat="44.60688" lon="0.87748">
        <ele>168.3</ele>
        <time>2018-07-22T14:43:22Z</time>
      </trkpt>
      <trkpt lat="44.60687" lon="0.87751">
        <ele>168.5</ele>
        <time>2018-07-22T14:43:23Z</time>
      </trkpt>
      <trkpt lat="44.60685" lon="0.87758">
        <ele>168.8</ele>
        <time>2018-07-22T14:43:25Z</time>
      </trkpt>
      <trkpt lat="44.60682" lon="0.87764">
        <ele>169</ele>
        <time>2018-07-22T14:43:27Z</time>
      </trkpt>
      <trkpt lat="44.60679" lon="0.8777">
        <ele>169.2</ele>
        <time>2018-07-22T14:43:29Z</time>
      </trkpt>
      <trkpt lat="44.60676" lon="0.87773">
        <ele>169.4</ele>
        <time>2018-07-22T14:43:30Z</time>
      </trkpt>
      <trkpt lat="44.60674" lon="0.87775">
        <ele>169.5</ele>
        <time>2018-07-22T14:43:31Z</time>
      </trkpt>
      <trkpt lat="44.60672" lon="0.87777">
        <ele>169.7</ele>
        <time>2018-07-22T14:43:32Z</time>
      </trkpt>
      <trkpt lat="44.60669" lon="0.87779">
        <ele>169.9</ele>
        <time>2018-07-22T14:43:33Z</time>
      </trkpt>
      <trkpt lat="44.60667" lon="0.87781">
        <ele>170.1</ele>
        <time>2018-07-22T14:43:34Z</time>
      </trkpt>
      <trkpt lat="44.60664" lon="0.87783">
        <ele>170.2</ele>
        <time>2018-07-22T14:43:35Z</time>
      </trkpt>
      <trkpt lat="44.60661" lon="0.87784">
        <ele>170.4</ele>
        <time>2018-07-22T14:43:36Z</time>
      </trkpt>
      <trkpt lat="44.60658" lon="0.87786">
        <ele>170.5</ele>
        <time>2018-07-22T14:43:37Z</time>
      </trkpt>
      <trkpt lat="44.60655" lon="0.87787">
        <ele>170.6</ele>
        <time>2018-07-22T14:43:38Z</time>
      </trkpt>
      <trkpt lat="44.60651" lon="0.87787">
        <ele>170.8</ele>
        <time>2018-07-22T14:43:39Z</time>
      </trkpt>
      <trkpt lat="44.60648" lon="0.87787">
        <ele>171</ele>
        <time>2018-07-22T14:43:40Z</time>
      </trkpt>
      <trkpt lat="44.60646" lon="0.87787">
        <ele>171.1</ele>
        <time>2018-07-22T14:43:41Z</time>
      </trkpt>
      <trkpt lat="44.60642" lon="0.87787">
        <ele>171.3</ele>
        <time>2018-07-22T14:43:42Z</time>
      </trkpt>
      <trkpt lat="44.60639" lon="0.87786">
        <ele>171.3</ele>
        <time>2018-07-22T14:43:43Z</time>
      </trkpt>
      <trkpt lat="44.60636" lon="0.87784">
        <ele>171.4</ele>
        <time>2018-07-22T14:43:44Z</time>
      </trkpt>
      <trkpt lat="44.60633" lon="0.87783">
        <ele>171.4</ele>
        <time>2018-07-22T14:43:45Z</time>
      </trkpt>
      <trkpt lat="44.60631" lon="0.87781">
        <ele>171.4</ele>
        <time>2018-07-22T14:43:46Z</time>
      </trkpt>
      <trkpt lat="44.60628" lon="0.87779">
        <ele>171.5</ele>
        <time>2018-07-22T14:43:47Z</time>
      </trkpt>
      <trkpt lat="44.60625" lon="0.87777">
        <ele>171.5</ele>
        <time>2018-07-22T14:43:48Z</time>
      </trkpt>
      <trkpt lat="44.60622" lon="0.87774">
        <ele>171.6</ele>
        <time>2018-07-22T14:43:49Z</time>
      </trkpt>
      <trkpt lat="44.60618" lon="0.87772">
        <ele>171.7</ele>
        <time>2018-07-22T14:43:50Z</time>
      </trkpt>
      <trkpt lat="44.60614" lon="0.8777">
        <ele>171.7</ele>
        <time>2018-07-22T14:43:51Z</time>
      </trkpt>
      <trkpt lat="44.60608" lon="0.87769">
        <ele>172</ele>
        <time>2018-07-22T14:43:52Z</time>
      </trkpt>
      <trkpt lat="44.60598" lon="0.87768">
        <ele>172.5</ele>
        <time>2018-07-22T14:43:53Z</time>
      </trkpt>
      <trkpt lat="44.60592" lon="0.87768">
        <ele>173.1</ele>
        <time>2018-07-22T14:43:54Z</time>
      </trkpt>
      <trkpt lat="44.60585" lon="0.87769">
        <ele>173.3</ele>
        <time>2018-07-22T14:43:55Z</time>
      </trkpt>
      <trkpt lat="44.6058" lon="0.87769">
        <ele>173.3</ele>
        <time>2018-07-22T14:43:56Z</time>
      </trkpt>
      <trkpt lat="44.60574" lon="0.87769">
        <ele>173.5</ele>
        <time>2018-07-22T14:43:57Z</time>
      </trkpt>
      <trkpt lat="44.60569" lon="0.87768">
        <ele>173.8</ele>
        <time>2018-07-22T14:43:58Z</time>
      </trkpt>
      <trkpt lat="44.60562" lon="0.87768">
        <ele>174.1</ele>
        <time>2018-07-22T14:43:59Z</time>
      </trkpt>
      <trkpt lat="44.60556" lon="0.87768">
        <ele>174.4</ele>
        <time>2018-07-22T14:44:00Z</time>
      </trkpt>
      <trkpt lat="44.60552" lon="0.87767">
        <ele>174.7</ele>
        <time>2018-07-22T14:44:01Z</time>
      </trkpt>
      <trkpt lat="44.60548" lon="0.87766">
        <ele>174.9</ele>
        <time>2018-07-22T14:44:02Z</time>
      </trkpt>
      <trkpt lat="44.60542" lon="0.87765">
        <ele>175.3</ele>
        <time>2018-07-22T14:44:03Z</time>
      </trkpt>
      <trkpt lat="44.60538" lon="0.87765">
        <ele>175.5</ele>
        <time>2018-07-22T14:44:04Z</time>
      </trkpt>
      <trkpt lat="44.60534" lon="0.87766">
        <ele>175.8</ele>
        <time>2018-07-22T14:44:05Z</time>
      </trkpt>
      <trkpt lat="44.60529" lon="0.87764">
        <ele>176.1</ele>
        <time>2018-07-22T14:44:06Z</time>
      </trkpt>
      <trkpt lat="44.60523" lon="0.87763">
        <ele>176.5</ele>
        <time>2018-07-22T14:44:08Z</time>
      </trkpt>
      <trkpt lat="44.60514" lon="0.87762">
        <ele>177</ele>
        <time>2018-07-22T14:44:09Z</time>
      </trkpt>
      <trkpt lat="44.60509" lon="0.87761">
        <ele>177.1</ele>
        <time>2018-07-22T14:44:10Z</time>
      </trkpt>
      <trkpt lat="44.60506" lon="0.87758">
        <ele>177.2</ele>
        <time>2018-07-22T14:44:11Z</time>
      </trkpt>
      <trkpt lat="44.60502" lon="0.87755">
        <ele>177.3</ele>
        <time>2018-07-22T14:44:12Z</time>
      </trkpt>
      <trkpt lat="44.605" lon="0.87752">
        <ele>177.3</ele>
        <time>2018-07-22T14:44:13Z</time>
      </trkpt>
      <trkpt lat="44.60496" lon="0.87748">
        <ele>177.4</ele>
        <time>2018-07-22T14:44:14Z</time>
      </trkpt>
      <trkpt lat="44.60494" lon="0.87745">
        <ele>177.4</ele>
        <time>2018-07-22T14:44:15Z</time>
      </trkpt>
      <trkpt lat="44.60489" lon="0.8774">
        <ele>177.3</ele>
        <time>2018-07-22T14:44:17Z</time>
      </trkpt>
      <trkpt lat="44.60486" lon="0.87737">
        <ele>177.3</ele>
        <time>2018-07-22T14:44:18Z</time>
      </trkpt>
      <trkpt lat="44.60487" lon="0.87733">
        <ele>177.4</ele>
        <time>2018-07-22T14:44:21Z</time>
      </trkpt>
      <trkpt lat="44.60488" lon="0.87729">
        <ele>177.4</ele>
        <time>2018-07-22T14:44:23Z</time>
      </trkpt>
      <trkpt lat="44.60489" lon="0.87724">
        <ele>177.5</ele>
        <time>2018-07-22T14:44:28Z</time>
      </trkpt>
      <trkpt lat="44.60491" lon="0.87727">
        <ele>177.6</ele>
        <time>2018-07-22T14:44:37Z</time>
      </trkpt>
      <trkpt lat="44.60492" lon="0.87722">
        <ele>177.4</ele>
        <time>2018-07-22T14:46:27Z</time>
      </trkpt>
      <trkpt lat="44.6049" lon="0.87719">
        <ele>177.2</ele>
        <time>2018-07-22T14:46:28Z</time>
      </trkpt>
      <trkpt lat="44.60488" lon="0.87715">
        <ele>177.5</ele>
        <time>2018-07-22T14:46:29Z</time>
      </trkpt>
      <trkpt lat="44.60486" lon="0.87711">
        <ele>177.5</ele>
        <time>2018-07-22T14:46:30Z</time>
      </trkpt>
      <trkpt lat="44.60484" lon="0.87707">
        <ele>177.3</ele>
        <time>2018-07-22T14:46:31Z</time>
      </trkpt>
      <trkpt lat="44.60482" lon="0.87703">
        <ele>177.3</ele>
        <time>2018-07-22T14:46:32Z</time>
      </trkpt>
      <trkpt lat="44.60481" lon="0.877">
        <ele>177.1</ele>
        <time>2018-07-22T14:46:33Z</time>
      </trkpt>
      <trkpt lat="44.6048" lon="0.87696">
        <ele>177.1</ele>
        <time>2018-07-22T14:46:34Z</time>
      </trkpt>
      <trkpt lat="44.60479" lon="0.87691">
        <ele>176.9</ele>
        <time>2018-07-22T14:46:35Z</time>
      </trkpt>
      <trkpt lat="44.60477" lon="0.87687">
        <ele>176.9</ele>
        <time>2018-07-22T14:46:36Z</time>
      </trkpt>
      <trkpt lat="44.60475" lon="0.87682">
        <ele>176.7</ele>
        <time>2018-07-22T14:46:37Z</time>
      </trkpt>
      <trkpt lat="44.60473" lon="0.87677">
        <ele>176.6</ele>
        <time>2018-07-22T14:46:38Z</time>
      </trkpt>
      <trkpt lat="44.60471" lon="0.87672">
        <ele>176.4</ele>
        <time>2018-07-22T14:46:39Z</time>
      </trkpt>
      <trkpt lat="44.6047" lon="0.87667">
        <ele>176</ele>
        <time>2018-07-22T14:46:40Z</time>
      </trkpt>
      <trkpt lat="44.60469" lon="0.87662">
        <ele>175.7</ele>
        <time>2018-07-22T14:46:41Z</time>
      </trkpt>
      <trkpt lat="44.60464" lon="0.8765">
        <ele>175.4</ele>
        <time>2018-07-22T14:46:42Z</time>
      </trkpt>
      <trkpt lat="44.60461" lon="0.87644">
        <ele>174.9</ele>
        <time>2018-07-22T14:46:43Z</time>
      </trkpt>
      <trkpt lat="44.60459" lon="0.87635">
        <ele>174.2</ele>
        <time>2018-07-22T14:46:44Z</time>
      </trkpt>
      <trkpt lat="44.60458" lon="0.8763">
        <ele>174</ele>
        <time>2018-07-22T14:46:45Z</time>
      </trkpt>
      <trkpt lat="44.60458" lon="0.87625">
        <ele>173.7</ele>
        <time>2018-07-22T14:46:46Z</time>
      </trkpt>
      <trkpt lat="44.60457" lon="0.8762">
        <ele>173.1</ele>
        <time>2018-07-22T14:46:47Z</time>
      </trkpt>
      <trkpt lat="44.60455" lon="0.87609">
        <ele>172.7</ele>
        <time>2018-07-22T14:46:48Z</time>
      </trkpt>
      <trkpt lat="44.60453" lon="0.876">
        <ele>172.2</ele>
        <time>2018-07-22T14:46:49Z</time>
      </trkpt>
      <trkpt lat="44.60451" lon="0.8759">
        <ele>171.6</ele>
        <time>2018-07-22T14:46:50Z</time>
      </trkpt>
      <trkpt lat="44.60445" lon="0.87581">
        <ele>171.3</ele>
        <time>2018-07-22T14:46:51Z</time>
      </trkpt>
      <trkpt lat="44.6044" lon="0.87573">
        <ele>171.2</ele>
        <time>2018-07-22T14:46:52Z</time>
      </trkpt>
      <trkpt lat="44.60435" lon="0.87567">
        <ele>171</ele>
        <time>2018-07-22T14:46:53Z</time>
      </trkpt>
      <trkpt lat="44.60432" lon="0.87559">
        <ele>170.7</ele>
        <time>2018-07-22T14:46:54Z</time>
      </trkpt>
      <trkpt lat="44.60429" lon="0.87551">
        <ele>170.4</ele>
        <time>2018-07-22T14:46:55Z</time>
      </trkpt>
      <trkpt lat="44.60423" lon="0.87541">
        <ele>170.2</ele>
        <time>2018-07-22T14:46:56Z</time>
      </trkpt>
      <trkpt lat="44.60422" lon="0.87537">
        <ele>170.1</ele>
        <time>2018-07-22T14:46:57Z</time>
      </trkpt>
      <trkpt lat="44.60417" lon="0.8753">
        <ele>169.9</ele>
        <time>2018-07-22T14:46:58Z</time>
      </trkpt>
      <trkpt lat="44.60409" lon="0.87525">
        <ele>169.9</ele>
        <time>2018-07-22T14:46:59Z</time>
      </trkpt>
      <trkpt lat="44.60403" lon="0.87515">
        <ele>169.7</ele>
        <time>2018-07-22T14:47:00Z</time>
      </trkpt>
      <trkpt lat="44.60398" lon="0.87506">
        <ele>169.5</ele>
        <time>2018-07-22T14:47:01Z</time>
      </trkpt>
      <trkpt lat="44.60391" lon="0.87499">
        <ele>169.3</ele>
        <time>2018-07-22T14:47:02Z</time>
      </trkpt>
      <trkpt lat="44.60386" lon="0.87493">
        <ele>169.2</ele>
        <time>2018-07-22T14:47:03Z</time>
      </trkpt>
      <trkpt lat="44.60374" lon="0.87483">
        <ele>168.6</ele>
        <time>2018-07-22T14:47:04Z</time>
      </trkpt>
      <trkpt lat="44.60369" lon="0.87474">
        <ele>168.2</ele>
        <time>2018-07-22T14:47:05Z</time>
      </trkpt>
      <trkpt lat="44.60362" lon="0.87464">
        <ele>167.6</ele>
        <time>2018-07-22T14:47:06Z</time>
      </trkpt>
      <trkpt lat="44.60359" lon="0.87454">
        <ele>167.2</ele>
        <time>2018-07-22T14:47:07Z</time>
      </trkpt>
      <trkpt lat="44.60354" lon="0.87443">
        <ele>166.2</ele>
        <time>2018-07-22T14:47:08Z</time>
      </trkpt>
      <trkpt lat="44.60348" lon="0.87433">
        <ele>165.4</ele>
        <time>2018-07-22T14:47:09Z</time>
      </trkpt>
      <trkpt lat="44.60343" lon="0.87424">
        <ele>164.7</ele>
        <time>2018-07-22T14:47:10Z</time>
      </trkpt>
      <trkpt lat="44.60334" lon="0.87413">
        <ele>163.6</ele>
        <time>2018-07-22T14:47:11Z</time>
      </trkpt>
      <trkpt lat="44.60328" lon="0.87404">
        <ele>163</ele>
        <time>2018-07-22T14:47:12Z</time>
      </trkpt>
      <trkpt lat="44.6032" lon="0.87394">
        <ele>162.4</ele>
        <time>2018-07-22T14:47:13Z</time>
      </trkpt>
      <trkpt lat="44.60315" lon="0.87385">
        <ele>161.8</ele>
        <time>2018-07-22T14:47:14Z</time>
      </trkpt>
      <trkpt lat="44.6031" lon="0.87372">
        <ele>161</ele>
        <time>2018-07-22T14:47:15Z</time>
      </trkpt>
      <trkpt lat="44.60299" lon="0.87366">
        <ele>160.6</ele>
        <time>2018-07-22T14:47:16Z</time>
      </trkpt>
      <trkpt lat="44.60288" lon="0.8736">
        <ele>160.6</ele>
        <time>2018-07-22T14:47:17Z</time>
      </trkpt>
      <trkpt lat="44.60281" lon="0.87358">
        <ele>160.5</ele>
        <time>2018-07-22T14:47:18Z</time>
      </trkpt>
      <trkpt lat="44.60277" lon="0.87356">
        <ele>160.6</ele>
        <time>2018-07-22T14:47:19Z</time>
      </trkpt>
      <trkpt lat="44.60271" lon="0.87352">
        <ele>160.5</ele>
        <time>2018-07-22T14:47:20Z</time>
      </trkpt>
      <trkpt lat="44.60267" lon="0.87347">
        <ele>160.5</ele>
        <time>2018-07-22T14:47:21Z</time>
      </trkpt>
      <trkpt lat="44.60264" lon="0.87344">
        <ele>160.5</ele>
        <time>2018-07-22T14:47:22Z</time>
      </trkpt>
      <trkpt lat="44.60263" lon="0.87338">
        <ele>160.4</ele>
        <time>2018-07-22T14:47:23Z</time>
      </trkpt>
      <trkpt lat="44.60263" lon="0.87331">
        <ele>160.4</ele>
        <time>2018-07-22T14:47:24Z</time>
      </trkpt>
      <trkpt lat="44.60264" lon="0.87324">
        <ele>160.3</ele>
        <time>2018-07-22T14:47:25Z</time>
      </trkpt>
      <trkpt lat="44.60261" lon="0.87319">
        <ele>160.4</ele>
        <time>2018-07-22T14:47:26Z</time>
      </trkpt>
      <trkpt lat="44.60258" lon="0.87314">
        <ele>160.4</ele>
        <time>2018-07-22T14:47:27Z</time>
      </trkpt>
      <trkpt lat="44.60255" lon="0.8731">
        <ele>160.5</ele>
        <time>2018-07-22T14:47:28Z</time>
      </trkpt>
      <trkpt lat="44.6025" lon="0.87305">
        <ele>160.6</ele>
        <time>2018-07-22T14:47:29Z</time>
      </trkpt>
      <trkpt lat="44.60246" lon="0.873">
        <ele>160.7</ele>
        <time>2018-07-22T14:47:30Z</time>
      </trkpt>
      <trkpt lat="44.60241" lon="0.87302">
        <ele>160.8</ele>
        <time>2018-07-22T14:47:31Z</time>
      </trkpt>
      <trkpt lat="44.60238" lon="0.87302">
        <ele>160.8</ele>
        <time>2018-07-22T14:47:32Z</time>
      </trkpt>
      <trkpt lat="44.60232" lon="0.87303">
        <ele>160.9</ele>
        <time>2018-07-22T14:47:34Z</time>
      </trkpt>
      <trkpt lat="44.60227" lon="0.87302">
        <ele>160.9</ele>
        <time>2018-07-22T14:47:35Z</time>
      </trkpt>
      <trkpt lat="44.6022" lon="0.87303">
        <ele>160.9</ele>
        <time>2018-07-22T14:47:37Z</time>
      </trkpt>
      <trkpt lat="44.60216" lon="0.87299">
        <ele>160.8</ele>
        <time>2018-07-22T14:47:39Z</time>
      </trkpt>
      <trkpt lat="44.60211" lon="0.87298">
        <ele>160.7</ele>
        <time>2018-07-22T14:47:40Z</time>
      </trkpt>
      <trkpt lat="44.60205" lon="0.87298">
        <ele>160.6</ele>
        <time>2018-07-22T14:47:41Z</time>
      </trkpt>
      <trkpt lat="44.60199" lon="0.87298">
        <ele>160.7</ele>
        <time>2018-07-22T14:47:42Z</time>
      </trkpt>
      <trkpt lat="44.60191" lon="0.87297">
        <ele>160.7</ele>
        <time>2018-07-22T14:47:43Z</time>
      </trkpt>
      <trkpt lat="44.60185" lon="0.87297">
        <ele>160.8</ele>
        <time>2018-07-22T14:47:44Z</time>
      </trkpt>
      <trkpt lat="44.60181" lon="0.87297">
        <ele>160.9</ele>
        <time>2018-07-22T14:47:45Z</time>
      </trkpt>
      <trkpt lat="44.60177" lon="0.87297">
        <ele>160.9</ele>
        <time>2018-07-22T14:47:46Z</time>
      </trkpt>
      <trkpt lat="44.60172" lon="0.87297">
        <ele>161</ele>
        <time>2018-07-22T14:47:47Z</time>
      </trkpt>
      <trkpt lat="44.60168" lon="0.87298">
        <ele>161</ele>
        <time>2018-07-22T14:47:48Z</time>
      </trkpt>
      <trkpt lat="44.60163" lon="0.87298">
        <ele>161.1</ele>
        <time>2018-07-22T14:47:49Z</time>
      </trkpt>
      <trkpt lat="44.60157" lon="0.87298">
        <ele>161.1</ele>
        <time>2018-07-22T14:47:50Z</time>
      </trkpt>
      <trkpt lat="44.60153" lon="0.87298">
        <ele>161.2</ele>
        <time>2018-07-22T14:47:51Z</time>
      </trkpt>
      <trkpt lat="44.60149" lon="0.87297">
        <ele>161.3</ele>
        <time>2018-07-22T14:47:52Z</time>
      </trkpt>
      <trkpt lat="44.60141" lon="0.87296">
        <ele>161.3</ele>
        <time>2018-07-22T14:47:53Z</time>
      </trkpt>
      <trkpt lat="44.60122" lon="0.87295">
        <ele>161.5</ele>
        <time>2018-07-22T14:47:56Z</time>
      </trkpt>
      <trkpt lat="44.60125" lon="0.87293">
        <ele>161.3</ele>
        <time>2018-07-22T14:47:57Z</time>
      </trkpt>
      <trkpt lat="44.60121" lon="0.87291">
        <ele>161.4</ele>
        <time>2018-07-22T14:47:58Z</time>
      </trkpt>
      <trkpt lat="44.60111" lon="0.8729">
        <ele>161.5</ele>
        <time>2018-07-22T14:47:59Z</time>
      </trkpt>
      <trkpt lat="44.60103" lon="0.87292">
        <ele>161.6</ele>
        <time>2018-07-22T14:48:00Z</time>
      </trkpt>
      <trkpt lat="44.60095" lon="0.87292">
        <ele>161.5</ele>
        <time>2018-07-22T14:48:01Z</time>
      </trkpt>
      <trkpt lat="44.6009" lon="0.87291">
        <ele>161.3</ele>
        <time>2018-07-22T14:48:02Z</time>
      </trkpt>
      <trkpt lat="44.60085" lon="0.87289">
        <ele>160.9</ele>
        <time>2018-07-22T14:48:03Z</time>
      </trkpt>
      <trkpt lat="44.6008" lon="0.87287">
        <ele>160.9</ele>
        <time>2018-07-22T14:48:04Z</time>
      </trkpt>
      <trkpt lat="44.60077" lon="0.87288">
        <ele>161</ele>
        <time>2018-07-22T14:48:06Z</time>
      </trkpt>
      <trkpt lat="44.60073" lon="0.87287">
        <ele>161.2</ele>
        <time>2018-07-22T14:48:07Z</time>
      </trkpt>
      <trkpt lat="44.60069" lon="0.87285">
        <ele>161.3</ele>
        <time>2018-07-22T14:48:08Z</time>
      </trkpt>
      <trkpt lat="44.60067" lon="0.87283">
        <ele>161.6</ele>
        <time>2018-07-22T14:48:09Z</time>
      </trkpt>
      <trkpt lat="44.60063" lon="0.87282">
        <ele>162</ele>
        <time>2018-07-22T14:48:10Z</time>
      </trkpt>
      <trkpt lat="44.60058" lon="0.87279">
        <ele>162.5</ele>
        <time>2018-07-22T14:48:11Z</time>
      </trkpt>
      <trkpt lat="44.60055" lon="0.87277">
        <ele>162.9</ele>
        <time>2018-07-22T14:48:13Z</time>
      </trkpt>
      <trkpt lat="44.60051" lon="0.87277">
        <ele>162.8</ele>
        <time>2018-07-22T14:48:14Z</time>
      </trkpt>
      <trkpt lat="44.60047" lon="0.87277">
        <ele>163.2</ele>
        <time>2018-07-22T14:48:15Z</time>
      </trkpt>
      <trkpt lat="44.60044" lon="0.8728">
        <ele>163.2</ele>
        <time>2018-07-22T14:48:18Z</time>
      </trkpt>
      <trkpt lat="44.60041" lon="0.87282">
        <ele>163.2</ele>
        <time>2018-07-22T14:48:19Z</time>
      </trkpt>
      <trkpt lat="44.60038" lon="0.87284">
        <ele>163.2</ele>
        <time>2018-07-22T14:48:20Z</time>
      </trkpt>
      <trkpt lat="44.60034" lon="0.87286">
        <ele>163.3</ele>
        <time>2018-07-22T14:48:21Z</time>
      </trkpt>
      <trkpt lat="44.6003" lon="0.87288">
        <ele>164.2</ele>
        <time>2018-07-22T14:48:22Z</time>
      </trkpt>
      <trkpt lat="44.60026" lon="0.8729">
        <ele>164.3</ele>
        <time>2018-07-22T14:48:23Z</time>
      </trkpt>
      <trkpt lat="44.60022" lon="0.8729">
        <ele>164.4</ele>
        <time>2018-07-22T14:48:24Z</time>
      </trkpt>
      <trkpt lat="44.60018" lon="0.87291">
        <ele>164.6</ele>
        <time>2018-07-22T14:48:25Z</time>
      </trkpt>
      <trkpt lat="44.60015" lon="0.87291">
        <ele>164.7</ele>
        <time>2018-07-22T14:48:26Z</time>
      </trkpt>
      <trkpt lat="44.60011" lon="0.8729">
        <ele>164.9</ele>
        <time>2018-07-22T14:48:27Z</time>
      </trkpt>
      <trkpt lat="44.60008" lon="0.8729">
        <ele>165</ele>
        <time>2018-07-22T14:48:28Z</time>
      </trkpt>
      <trkpt lat="44.60004" lon="0.87289">
        <ele>165.1</ele>
        <time>2018-07-22T14:48:29Z</time>
      </trkpt>
      <trkpt lat="44.60001" lon="0.87288">
        <ele>165.3</ele>
        <time>2018-07-22T14:48:30Z</time>
      </trkpt>
      <trkpt lat="44.59997" lon="0.87287">
        <ele>165.6</ele>
        <time>2018-07-22T14:48:31Z</time>
      </trkpt>
      <trkpt lat="44.59994" lon="0.87286">
        <ele>165.8</ele>
        <time>2018-07-22T14:48:32Z</time>
      </trkpt>
      <trkpt lat="44.59991" lon="0.87285">
        <ele>166.1</ele>
        <time>2018-07-22T14:48:33Z</time>
      </trkpt>
      <trkpt lat="44.59988" lon="0.87283">
        <ele>166.3</ele>
        <time>2018-07-22T14:48:34Z</time>
      </trkpt>
      <trkpt lat="44.59984" lon="0.8728">
        <ele>166.8</ele>
        <time>2018-07-22T14:48:36Z</time>
      </trkpt>
      <trkpt lat="44.5998" lon="0.87276">
        <ele>167.4</ele>
        <time>2018-07-22T14:48:38Z</time>
      </trkpt>
      <trkpt lat="44.59977" lon="0.87271">
        <ele>168.1</ele>
        <time>2018-07-22T14:48:40Z</time>
      </trkpt>
      <trkpt lat="44.59973" lon="0.87266">
        <ele>168.9</ele>
        <time>2018-07-22T14:48:42Z</time>
      </trkpt>
      <trkpt lat="44.59971" lon="0.87262">
        <ele>169.3</ele>
        <time>2018-07-22T14:48:43Z</time>
      </trkpt>
      <trkpt lat="44.59969" lon="0.87259">
        <ele>169.7</ele>
        <time>2018-07-22T14:48:44Z</time>
      </trkpt>
      <trkpt lat="44.59967" lon="0.87256">
        <ele>170</ele>
        <time>2018-07-22T14:48:45Z</time>
      </trkpt>
      <trkpt lat="44.59966" lon="0.87253">
        <ele>170.2</ele>
        <time>2018-07-22T14:48:46Z</time>
      </trkpt>
      <trkpt lat="44.59964" lon="0.87249">
        <ele>170.4</ele>
        <time>2018-07-22T14:48:47Z</time>
      </trkpt>
      <trkpt lat="44.59962" lon="0.87243">
        <ele>170.8</ele>
        <time>2018-07-22T14:48:49Z</time>
      </trkpt>
      <trkpt lat="44.5996" lon="0.87236">
        <ele>171.2</ele>
        <time>2018-07-22T14:48:51Z</time>
      </trkpt>
      <trkpt lat="44.59958" lon="0.87229">
        <ele>171.5</ele>
        <time>2018-07-22T14:48:53Z</time>
      </trkpt>
      <trkpt lat="44.59956" lon="0.87226">
        <ele>171.7</ele>
        <time>2018-07-22T14:48:54Z</time>
      </trkpt>
      <trkpt lat="44.59954" lon="0.87223">
        <ele>171.9</ele>
        <time>2018-07-22T14:48:55Z</time>
      </trkpt>
      <trkpt lat="44.5995" lon="0.87218">
        <ele>172.2</ele>
        <time>2018-07-22T14:48:57Z</time>
      </trkpt>
      <trkpt lat="44.59947" lon="0.87213">
        <ele>172.3</ele>
        <time>2018-07-22T14:48:59Z</time>
      </trkpt>
      <trkpt lat="44.59943" lon="0.87207">
        <ele>172.5</ele>
        <time>2018-07-22T14:49:01Z</time>
      </trkpt>
      <trkpt lat="44.5994" lon="0.87205">
        <ele>172.6</ele>
        <time>2018-07-22T14:49:02Z</time>
      </trkpt>
      <trkpt lat="44.59937" lon="0.87203">
        <ele>172.7</ele>
        <time>2018-07-22T14:49:03Z</time>
      </trkpt>
      <trkpt lat="44.59934" lon="0.87201">
        <ele>172.8</ele>
        <time>2018-07-22T14:49:04Z</time>
      </trkpt>
      <trkpt lat="44.59931" lon="0.87199">
        <ele>172.9</ele>
        <time>2018-07-22T14:49:05Z</time>
      </trkpt>
      <trkpt lat="44.59928" lon="0.87197">
        <ele>173</ele>
        <time>2018-07-22T14:49:06Z</time>
      </trkpt>
      <trkpt lat="44.59924" lon="0.87195">
        <ele>173.1</ele>
        <time>2018-07-22T14:49:07Z</time>
      </trkpt>
      <trkpt lat="44.59922" lon="0.87192">
        <ele>173.1</ele>
        <time>2018-07-22T14:49:08Z</time>
      </trkpt>
      <trkpt lat="44.59919" lon="0.87189">
        <ele>173.2</ele>
        <time>2018-07-22T14:49:09Z</time>
      </trkpt>
      <trkpt lat="44.59916" lon="0.87186">
        <ele>173.3</ele>
        <time>2018-07-22T14:49:10Z</time>
      </trkpt>
      <trkpt lat="44.59912" lon="0.87184">
        <ele>173.3</ele>
        <time>2018-07-22T14:49:11Z</time>
      </trkpt>
      <trkpt lat="44.59907" lon="0.87182">
        <ele>173.4</ele>
        <time>2018-07-22T14:49:12Z</time>
      </trkpt>
      <trkpt lat="44.59903" lon="0.87181">
        <ele>173.5</ele>
        <time>2018-07-22T14:49:13Z</time>
      </trkpt>
      <trkpt lat="44.59898" lon="0.8718">
        <ele>173.6</ele>
        <time>2018-07-22T14:49:14Z</time>
      </trkpt>
      <trkpt lat="44.59887" lon="0.87186">
        <ele>173.8</ele>
        <time>2018-07-22T14:49:15Z</time>
      </trkpt>
      <trkpt lat="44.59881" lon="0.8719">
        <ele>173.9</ele>
        <time>2018-07-22T14:49:16Z</time>
      </trkpt>
      <trkpt lat="44.59877" lon="0.87193">
        <ele>173.9</ele>
        <time>2018-07-22T14:49:17Z</time>
      </trkpt>
      <trkpt lat="44.59872" lon="0.87196">
        <ele>174</ele>
        <time>2018-07-22T14:49:18Z</time>
      </trkpt>
      <trkpt lat="44.59868" lon="0.872">
        <ele>174.1</ele>
        <time>2018-07-22T14:49:20Z</time>
      </trkpt>
      <trkpt lat="44.59866" lon="0.87203">
        <ele>174.2</ele>
        <time>2018-07-22T14:49:21Z</time>
      </trkpt>
      <trkpt lat="44.59861" lon="0.87207">
        <ele>174.3</ele>
        <time>2018-07-22T14:49:22Z</time>
      </trkpt>
      <trkpt lat="44.59858" lon="0.87211">
        <ele>174.4</ele>
        <time>2018-07-22T14:49:23Z</time>
      </trkpt>
      <trkpt lat="44.59855" lon="0.87216">
        <ele>174.5</ele>
        <time>2018-07-22T14:49:24Z</time>
      </trkpt>
      <trkpt lat="44.59854" lon="0.87222">
        <ele>174.6</ele>
        <time>2018-07-22T14:49:25Z</time>
      </trkpt>
      <trkpt lat="44.59852" lon="0.87227">
        <ele>174.7</ele>
        <time>2018-07-22T14:49:26Z</time>
      </trkpt>
      <trkpt lat="44.59848" lon="0.8723">
        <ele>174.8</ele>
        <time>2018-07-22T14:49:27Z</time>
      </trkpt>
      <trkpt lat="44.59845" lon="0.87238">
        <ele>175.1</ele>
        <time>2018-07-22T14:49:28Z</time>
      </trkpt>
      <trkpt lat="44.59843" lon="0.87245">
        <ele>175.1</ele>
        <time>2018-07-22T14:49:29Z</time>
      </trkpt>
      <trkpt lat="44.59841" lon="0.87251">
        <ele>175.2</ele>
        <time>2018-07-22T14:49:30Z</time>
      </trkpt>
      <trkpt lat="44.59838" lon="0.87255">
        <ele>175.3</ele>
        <time>2018-07-22T14:49:31Z</time>
      </trkpt>
      <trkpt lat="44.59834" lon="0.87259">
        <ele>175.4</ele>
        <time>2018-07-22T14:49:32Z</time>
      </trkpt>
      <trkpt lat="44.59828" lon="0.87264">
        <ele>175.5</ele>
        <time>2018-07-22T14:49:33Z</time>
      </trkpt>
      <trkpt lat="44.59825" lon="0.87273">
        <ele>175.6</ele>
        <time>2018-07-22T14:49:34Z</time>
      </trkpt>
      <trkpt lat="44.59822" lon="0.87279">
        <ele>175.7</ele>
        <time>2018-07-22T14:49:35Z</time>
      </trkpt>
      <trkpt lat="44.5982" lon="0.87286">
        <ele>175.8</ele>
        <time>2018-07-22T14:49:36Z</time>
      </trkpt>
      <trkpt lat="44.59814" lon="0.87288">
        <ele>175.9</ele>
        <time>2018-07-22T14:49:37Z</time>
      </trkpt>
      <trkpt lat="44.59811" lon="0.87295">
        <ele>176.1</ele>
        <time>2018-07-22T14:49:38Z</time>
      </trkpt>
      <trkpt lat="44.59808" lon="0.873">
        <ele>176.2</ele>
        <time>2018-07-22T14:49:39Z</time>
      </trkpt>
      <trkpt lat="44.59804" lon="0.87304">
        <ele>176.3</ele>
        <time>2018-07-22T14:49:40Z</time>
      </trkpt>
      <trkpt lat="44.59799" lon="0.87307">
        <ele>176.4</ele>
        <time>2018-07-22T14:49:41Z</time>
      </trkpt>
      <trkpt lat="44.59796" lon="0.87312">
        <ele>176.5</ele>
        <time>2018-07-22T14:49:42Z</time>
      </trkpt>
      <trkpt lat="44.59795" lon="0.87317">
        <ele>176.6</ele>
        <time>2018-07-22T14:49:43Z</time>
      </trkpt>
      <trkpt lat="44.59792" lon="0.87321">
        <ele>176.9</ele>
        <time>2018-07-22T14:49:44Z</time>
      </trkpt>
      <trkpt lat="44.59789" lon="0.87324">
        <ele>177.1</ele>
        <time>2018-07-22T14:49:45Z</time>
      </trkpt>
      <trkpt lat="44.59787" lon="0.87333">
        <ele>177.6</ele>
        <time>2018-07-22T14:49:47Z</time>
      </trkpt>
      <trkpt lat="44.59782" lon="0.87339">
        <ele>178</ele>
        <time>2018-07-22T14:49:49Z</time>
      </trkpt>
      <trkpt lat="44.5978" lon="0.87342">
        <ele>178.2</ele>
        <time>2018-07-22T14:49:50Z</time>
      </trkpt>
      <trkpt lat="44.59778" lon="0.87345">
        <ele>178.4</ele>
        <time>2018-07-22T14:49:51Z</time>
      </trkpt>
      <trkpt lat="44.59776" lon="0.87349">
        <ele>178.7</ele>
        <time>2018-07-22T14:49:52Z</time>
      </trkpt>
      <trkpt lat="44.59774" lon="0.87353">
        <ele>179</ele>
        <time>2018-07-22T14:49:53Z</time>
      </trkpt>
      <trkpt lat="44.59773" lon="0.87358">
        <ele>179.3</ele>
        <time>2018-07-22T14:49:54Z</time>
      </trkpt>
      <trkpt lat="44.59772" lon="0.87362">
        <ele>179.6</ele>
        <time>2018-07-22T14:49:55Z</time>
      </trkpt>
      <trkpt lat="44.5977" lon="0.87365">
        <ele>179.9</ele>
        <time>2018-07-22T14:49:56Z</time>
      </trkpt>
      <trkpt lat="44.59767" lon="0.87371">
        <ele>180.2</ele>
        <time>2018-07-22T14:49:58Z</time>
      </trkpt>
      <trkpt lat="44.59764" lon="0.87375">
        <ele>180.5</ele>
        <time>2018-07-22T14:50:00Z</time>
      </trkpt>
      <trkpt lat="44.59761" lon="0.87378">
        <ele>180.8</ele>
        <time>2018-07-22T14:50:02Z</time>
      </trkpt>
      <trkpt lat="44.59756" lon="0.87384">
        <ele>181.1</ele>
        <time>2018-07-22T14:50:04Z</time>
      </trkpt>
      <trkpt lat="44.59754" lon="0.87387">
        <ele>181.4</ele>
        <time>2018-07-22T14:50:05Z</time>
      </trkpt>
      <trkpt lat="44.59751" lon="0.87391">
        <ele>181.7</ele>
        <time>2018-07-22T14:50:06Z</time>
      </trkpt>
      <trkpt lat="44.59749" lon="0.87394">
        <ele>182</ele>
        <time>2018-07-22T14:50:07Z</time>
      </trkpt>
      <trkpt lat="44.59747" lon="0.87396">
        <ele>182.3</ele>
        <time>2018-07-22T14:50:08Z</time>
      </trkpt>
      <trkpt lat="44.59744" lon="0.87399">
        <ele>182.7</ele>
        <time>2018-07-22T14:50:09Z</time>
      </trkpt>
      <trkpt lat="44.59742" lon="0.87403">
        <ele>183</ele>
        <time>2018-07-22T14:50:10Z</time>
      </trkpt>
      <trkpt lat="44.5974" lon="0.87406">
        <ele>183.4</ele>
        <time>2018-07-22T14:50:11Z</time>
      </trkpt>
      <trkpt lat="44.59737" lon="0.8741">
        <ele>183.8</ele>
        <time>2018-07-22T14:50:12Z</time>
      </trkpt>
      <trkpt lat="44.59736" lon="0.87414">
        <ele>184.1</ele>
        <time>2018-07-22T14:50:13Z</time>
      </trkpt>
      <trkpt lat="44.59734" lon="0.87421">
        <ele>184.7</ele>
        <time>2018-07-22T14:50:15Z</time>
      </trkpt>
      <trkpt lat="44.59733" lon="0.87428">
        <ele>185.3</ele>
        <time>2018-07-22T14:50:17Z</time>
      </trkpt>
      <trkpt lat="44.59732" lon="0.87432">
        <ele>185.8</ele>
        <time>2018-07-22T14:50:18Z</time>
      </trkpt>
      <trkpt lat="44.59731" lon="0.87436">
        <ele>186.4</ele>
        <time>2018-07-22T14:50:19Z</time>
      </trkpt>
      <trkpt lat="44.59728" lon="0.87442">
        <ele>186.9</ele>
        <time>2018-07-22T14:50:21Z</time>
      </trkpt>
      <trkpt lat="44.59725" lon="0.87446">
        <ele>187.6</ele>
        <time>2018-07-22T14:50:23Z</time>
      </trkpt>
      <trkpt lat="44.59722" lon="0.87448">
        <ele>187.9</ele>
        <time>2018-07-22T14:50:24Z</time>
      </trkpt>
      <trkpt lat="44.5972" lon="0.87452">
        <ele>188.5</ele>
        <time>2018-07-22T14:50:25Z</time>
      </trkpt>
      <trkpt lat="44.59717" lon="0.87455">
        <ele>189.1</ele>
        <time>2018-07-22T14:50:26Z</time>
      </trkpt>
      <trkpt lat="44.59715" lon="0.87458">
        <ele>189.7</ele>
        <time>2018-07-22T14:50:27Z</time>
      </trkpt>
      <trkpt lat="44.59712" lon="0.8746">
        <ele>190</ele>
        <time>2018-07-22T14:50:28Z</time>
      </trkpt>
      <trkpt lat="44.59708" lon="0.87462">
        <ele>190.6</ele>
        <time>2018-07-22T14:50:29Z</time>
      </trkpt>
      <trkpt lat="44.59705" lon="0.87464">
        <ele>190.9</ele>
        <time>2018-07-22T14:50:30Z</time>
      </trkpt>
      <trkpt lat="44.59702" lon="0.87465">
        <ele>191.1</ele>
        <time>2018-07-22T14:50:31Z</time>
      </trkpt>
      <trkpt lat="44.59699" lon="0.87467">
        <ele>191.2</ele>
        <time>2018-07-22T14:50:32Z</time>
      </trkpt>
      <trkpt lat="44.59695" lon="0.87471">
        <ele>191.3</ele>
        <time>2018-07-22T14:50:34Z</time>
      </trkpt>
      <trkpt lat="44.59691" lon="0.87476">
        <ele>191.5</ele>
        <time>2018-07-22T14:50:36Z</time>
      </trkpt>
      <trkpt lat="44.59689" lon="0.8748">
        <ele>191.6</ele>
        <time>2018-07-22T14:50:37Z</time>
      </trkpt>
      <trkpt lat="44.59686" lon="0.87483">
        <ele>191.6</ele>
        <time>2018-07-22T14:50:38Z</time>
      </trkpt>
      <trkpt lat="44.59684" lon="0.87486">
        <ele>191.7</ele>
        <time>2018-07-22T14:50:39Z</time>
      </trkpt>
      <trkpt lat="44.59682" lon="0.87489">
        <ele>191.8</ele>
        <time>2018-07-22T14:50:40Z</time>
      </trkpt>
      <trkpt lat="44.59678" lon="0.87493">
        <ele>191.9</ele>
        <time>2018-07-22T14:50:42Z</time>
      </trkpt>
      <trkpt lat="44.59676" lon="0.87496">
        <ele>192</ele>
        <time>2018-07-22T14:50:43Z</time>
      </trkpt>
      <trkpt lat="44.59674" lon="0.87498">
        <ele>192</ele>
        <time>2018-07-22T14:50:44Z</time>
      </trkpt>
      <trkpt lat="44.59671" lon="0.875">
        <ele>192</ele>
        <time>2018-07-22T14:50:45Z</time>
      </trkpt>
      <trkpt lat="44.59668" lon="0.87502">
        <ele>192.1</ele>
        <time>2018-07-22T14:50:46Z</time>
      </trkpt>
      <trkpt lat="44.59665" lon="0.87504">
        <ele>192.1</ele>
        <time>2018-07-22T14:50:47Z</time>
      </trkpt>
      <trkpt lat="44.59662" lon="0.87507">
        <ele>192.1</ele>
        <time>2018-07-22T14:50:48Z</time>
      </trkpt>
      <trkpt lat="44.5966" lon="0.87509">
        <ele>192.2</ele>
        <time>2018-07-22T14:50:49Z</time>
      </trkpt>
      <trkpt lat="44.59657" lon="0.87511">
        <ele>192.2</ele>
        <time>2018-07-22T14:50:50Z</time>
      </trkpt>
      <trkpt lat="44.59655" lon="0.87514">
        <ele>192.3</ele>
        <time>2018-07-22T14:50:51Z</time>
      </trkpt>
      <trkpt lat="44.5965" lon="0.87518">
        <ele>192.3</ele>
        <time>2018-07-22T14:50:53Z</time>
      </trkpt>
      <trkpt lat="44.59648" lon="0.8752">
        <ele>192.3</ele>
        <time>2018-07-22T14:50:54Z</time>
      </trkpt>
      <trkpt lat="44.59645" lon="0.87523">
        <ele>192.3</ele>
        <time>2018-07-22T14:50:55Z</time>
      </trkpt>
      <trkpt lat="44.59643" lon="0.87526">
        <ele>192.3</ele>
        <time>2018-07-22T14:50:56Z</time>
      </trkpt>
      <trkpt lat="44.59641" lon="0.87529">
        <ele>192.3</ele>
        <time>2018-07-22T14:50:57Z</time>
      </trkpt>
      <trkpt lat="44.59639" lon="0.87532">
        <ele>192.3</ele>
        <time>2018-07-22T14:50:58Z</time>
      </trkpt>
      <trkpt lat="44.59637" lon="0.87536">
        <ele>192.3</ele>
        <time>2018-07-22T14:50:59Z</time>
      </trkpt>
      <trkpt lat="44.59635" lon="0.87541">
        <ele>192.3</ele>
        <time>2018-07-22T14:51:00Z</time>
      </trkpt>
      <trkpt lat="44.59634" lon="0.87544">
        <ele>192.3</ele>
        <time>2018-07-22T14:51:01Z</time>
      </trkpt>
      <trkpt lat="44.59631" lon="0.87549">
        <ele>192.3</ele>
        <time>2018-07-22T14:51:03Z</time>
      </trkpt>
      <trkpt lat="44.59629" lon="0.87552">
        <ele>192.3</ele>
        <time>2018-07-22T14:51:05Z</time>
      </trkpt>
      <trkpt lat="44.59625" lon="0.87557">
        <ele>192.6</ele>
        <time>2018-07-22T14:51:07Z</time>
      </trkpt>
      <trkpt lat="44.59623" lon="0.87561">
        <ele>193</ele>
        <time>2018-07-22T14:51:09Z</time>
      </trkpt>
      <trkpt lat="44.5962" lon="0.87568">
        <ele>193.4</ele>
        <time>2018-07-22T14:51:11Z</time>
      </trkpt>
      <trkpt lat="44.59618" lon="0.87574">
        <ele>194.3</ele>
        <time>2018-07-22T14:51:13Z</time>
      </trkpt>
      <trkpt lat="44.59615" lon="0.87579">
        <ele>194.7</ele>
        <time>2018-07-22T14:51:15Z</time>
      </trkpt>
      <trkpt lat="44.59613" lon="0.87583">
        <ele>195.2</ele>
        <time>2018-07-22T14:51:16Z</time>
      </trkpt>
      <trkpt lat="44.59611" lon="0.87586">
        <ele>195.6</ele>
        <time>2018-07-22T14:51:17Z</time>
      </trkpt>
      <trkpt lat="44.59609" lon="0.87591">
        <ele>196.1</ele>
        <time>2018-07-22T14:51:18Z</time>
      </trkpt>
      <trkpt lat="44.59607" lon="0.87597">
        <ele>196.5</ele>
        <time>2018-07-22T14:51:19Z</time>
      </trkpt>
      <trkpt lat="44.59605" lon="0.87603">
        <ele>196.9</ele>
        <time>2018-07-22T14:51:20Z</time>
      </trkpt>
      <trkpt lat="44.59603" lon="0.87609">
        <ele>197.6</ele>
        <time>2018-07-22T14:51:21Z</time>
      </trkpt>
      <trkpt lat="44.59601" lon="0.87615">
        <ele>198</ele>
        <time>2018-07-22T14:51:22Z</time>
      </trkpt>
      <trkpt lat="44.59598" lon="0.8762">
        <ele>198.4</ele>
        <time>2018-07-22T14:51:23Z</time>
      </trkpt>
      <trkpt lat="44.59596" lon="0.87625">
        <ele>199</ele>
        <time>2018-07-22T14:51:24Z</time>
      </trkpt>
      <trkpt lat="44.59594" lon="0.87632">
        <ele>199.3</ele>
        <time>2018-07-22T14:51:25Z</time>
      </trkpt>
      <trkpt lat="44.59592" lon="0.87639">
        <ele>199.9</ele>
        <time>2018-07-22T14:51:26Z</time>
      </trkpt>
      <trkpt lat="44.5959" lon="0.87646">
        <ele>200.3</ele>
        <time>2018-07-22T14:51:27Z</time>
      </trkpt>
      <trkpt lat="44.59589" lon="0.87654">
        <ele>200.5</ele>
        <time>2018-07-22T14:51:28Z</time>
      </trkpt>
      <trkpt lat="44.59588" lon="0.87661">
        <ele>201</ele>
        <time>2018-07-22T14:51:29Z</time>
      </trkpt>
      <trkpt lat="44.59587" lon="0.87668">
        <ele>201.6</ele>
        <time>2018-07-22T14:51:30Z</time>
      </trkpt>
      <trkpt lat="44.59585" lon="0.87673">
        <ele>202</ele>
        <time>2018-07-22T14:51:31Z</time>
      </trkpt>
      <trkpt lat="44.59584" lon="0.87679">
        <ele>202.1</ele>
        <time>2018-07-22T14:51:32Z</time>
      </trkpt>
      <trkpt lat="44.59582" lon="0.87683">
        <ele>202.5</ele>
        <time>2018-07-22T14:51:33Z</time>
      </trkpt>
      <trkpt lat="44.59581" lon="0.87687">
        <ele>202.6</ele>
        <time>2018-07-22T14:51:34Z</time>
      </trkpt>
      <trkpt lat="44.5958" lon="0.8769">
        <ele>202.9</ele>
        <time>2018-07-22T14:51:35Z</time>
      </trkpt>
      <trkpt lat="44.59579" lon="0.87695">
        <ele>203.2</ele>
        <time>2018-07-22T14:51:36Z</time>
      </trkpt>
      <trkpt lat="44.59577" lon="0.877">
        <ele>203.3</ele>
        <time>2018-07-22T14:51:37Z</time>
      </trkpt>
      <trkpt lat="44.59575" lon="0.87704">
        <ele>203.4</ele>
        <time>2018-07-22T14:51:38Z</time>
      </trkpt>
      <trkpt lat="44.59571" lon="0.87706">
        <ele>203.3</ele>
        <time>2018-07-22T14:51:40Z</time>
      </trkpt>
      <trkpt lat="44.59568" lon="0.87705">
        <ele>202.9</ele>
        <time>2018-07-22T14:51:41Z</time>
      </trkpt>
      <trkpt lat="44.59564" lon="0.87702">
        <ele>202.6</ele>
        <time>2018-07-22T14:51:42Z</time>
      </trkpt>
      <trkpt lat="44.59558" lon="0.8769">
        <ele>201.3</ele>
        <time>2018-07-22T14:51:43Z</time>
      </trkpt>
      <trkpt lat="44.59553" lon="0.8768">
        <ele>200.2</ele>
        <time>2018-07-22T14:51:44Z</time>
      </trkpt>
      <trkpt lat="44.59548" lon="0.87675">
        <ele>199.2</ele>
        <time>2018-07-22T14:51:45Z</time>
      </trkpt>
      <trkpt lat="44.5954" lon="0.87668">
        <ele>198.5</ele>
        <time>2018-07-22T14:51:46Z</time>
      </trkpt>
      <trkpt lat="44.59536" lon="0.87663">
        <ele>197.6</ele>
        <time>2018-07-22T14:51:47Z</time>
      </trkpt>
      <trkpt lat="44.5953" lon="0.87658">
        <ele>197.3</ele>
        <time>2018-07-22T14:51:48Z</time>
      </trkpt>
      <trkpt lat="44.59525" lon="0.87652">
        <ele>196.8</ele>
        <time>2018-07-22T14:51:49Z</time>
      </trkpt>
      <trkpt lat="44.59523" lon="0.87647">
        <ele>196.5</ele>
        <time>2018-07-22T14:51:50Z</time>
      </trkpt>
      <trkpt lat="44.5952" lon="0.87643">
        <ele>196.2</ele>
        <time>2018-07-22T14:51:51Z</time>
      </trkpt>
      <trkpt lat="44.59517" lon="0.87638">
        <ele>195.9</ele>
        <time>2018-07-22T14:51:52Z</time>
      </trkpt>
      <trkpt lat="44.59512" lon="0.87634">
        <ele>195.7</ele>
        <time>2018-07-22T14:51:53Z</time>
      </trkpt>
      <trkpt lat="44.59508" lon="0.8763">
        <ele>195.4</ele>
        <time>2018-07-22T14:51:54Z</time>
      </trkpt>
      <trkpt lat="44.59499" lon="0.87627">
        <ele>195.1</ele>
        <time>2018-07-22T14:51:55Z</time>
      </trkpt>
      <trkpt lat="44.59495" lon="0.87627">
        <ele>195.1</ele>
        <time>2018-07-22T14:51:56Z</time>
      </trkpt>
      <trkpt lat="44.59492" lon="0.87627">
        <ele>195</ele>
        <time>2018-07-22T14:51:57Z</time>
      </trkpt>
      <trkpt lat="44.59489" lon="0.87631">
        <ele>195.1</ele>
        <time>2018-07-22T14:51:58Z</time>
      </trkpt>
      <trkpt lat="44.59485" lon="0.87636">
        <ele>195.2</ele>
        <time>2018-07-22T14:51:59Z</time>
      </trkpt>
      <trkpt lat="44.59482" lon="0.87639">
        <ele>195.3</ele>
        <time>2018-07-22T14:52:00Z</time>
      </trkpt>
      <trkpt lat="44.59479" lon="0.87644">
        <ele>195.4</ele>
        <time>2018-07-22T14:52:02Z</time>
      </trkpt>
      <trkpt lat="44.59476" lon="0.87649">
        <ele>195.4</ele>
        <time>2018-07-22T14:52:03Z</time>
      </trkpt>
      <trkpt lat="44.59472" lon="0.87653">
        <ele>195.4</ele>
        <time>2018-07-22T14:52:04Z</time>
      </trkpt>
      <trkpt lat="44.59469" lon="0.87657">
        <ele>195.4</ele>
        <time>2018-07-22T14:52:05Z</time>
      </trkpt>
      <trkpt lat="44.59467" lon="0.87661">
        <ele>195.5</ele>
        <time>2018-07-22T14:52:06Z</time>
      </trkpt>
      <trkpt lat="44.59464" lon="0.87665">
        <ele>195.5</ele>
        <time>2018-07-22T14:52:07Z</time>
      </trkpt>
      <trkpt lat="44.59462" lon="0.8767">
        <ele>195.5</ele>
        <time>2018-07-22T14:52:08Z</time>
      </trkpt>
      <trkpt lat="44.5946" lon="0.87675">
        <ele>195.7</ele>
        <time>2018-07-22T14:52:09Z</time>
      </trkpt>
      <trkpt lat="44.59458" lon="0.87679">
        <ele>195.7</ele>
        <time>2018-07-22T14:52:10Z</time>
      </trkpt>
      <trkpt lat="44.59456" lon="0.87683">
        <ele>195.8</ele>
        <time>2018-07-22T14:52:11Z</time>
      </trkpt>
      <trkpt lat="44.59454" lon="0.87687">
        <ele>196</ele>
        <time>2018-07-22T14:52:12Z</time>
      </trkpt>
      <trkpt lat="44.59451" lon="0.87691">
        <ele>196.1</ele>
        <time>2018-07-22T14:52:13Z</time>
      </trkpt>
      <trkpt lat="44.59449" lon="0.87696">
        <ele>196.2</ele>
        <time>2018-07-22T14:52:14Z</time>
      </trkpt>
      <trkpt lat="44.59447" lon="0.87701">
        <ele>196.4</ele>
        <time>2018-07-22T14:52:15Z</time>
      </trkpt>
      <trkpt lat="44.59446" lon="0.87706">
        <ele>196.7</ele>
        <time>2018-07-22T14:52:16Z</time>
      </trkpt>
      <trkpt lat="44.59444" lon="0.8771">
        <ele>196.6</ele>
        <time>2018-07-22T14:52:17Z</time>
      </trkpt>
      <trkpt lat="44.59442" lon="0.87714">
        <ele>196.8</ele>
        <time>2018-07-22T14:52:18Z</time>
      </trkpt>
      <trkpt lat="44.5944" lon="0.87717">
        <ele>196.9</ele>
        <time>2018-07-22T14:52:19Z</time>
      </trkpt>
      <trkpt lat="44.59438" lon="0.87723">
        <ele>196.9</ele>
        <time>2018-07-22T14:52:21Z</time>
      </trkpt>
      <trkpt lat="44.59435" lon="0.87729">
        <ele>197.2</ele>
        <time>2018-07-22T14:52:23Z</time>
      </trkpt>
      <trkpt lat="44.59433" lon="0.87733">
        <ele>197.2</ele>
        <time>2018-07-22T14:52:24Z</time>
      </trkpt>
      <trkpt lat="44.59431" lon="0.87737">
        <ele>197.2</ele>
        <time>2018-07-22T14:52:25Z</time>
      </trkpt>
      <trkpt lat="44.59429" lon="0.87742">
        <ele>197.3</ele>
        <time>2018-07-22T14:52:26Z</time>
      </trkpt>
      <trkpt lat="44.59426" lon="0.87748">
        <ele>197.3</ele>
        <time>2018-07-22T14:52:27Z</time>
      </trkpt>
      <trkpt lat="44.59423" lon="0.87754">
        <ele>197.4</ele>
        <time>2018-07-22T14:52:28Z</time>
      </trkpt>
      <trkpt lat="44.5942" lon="0.8776">
        <ele>197.4</ele>
        <time>2018-07-22T14:52:29Z</time>
      </trkpt>
      <trkpt lat="44.59417" lon="0.87766">
        <ele>197.6</ele>
        <time>2018-07-22T14:52:30Z</time>
      </trkpt>
      <trkpt lat="44.59413" lon="0.87772">
        <ele>197.7</ele>
        <time>2018-07-22T14:52:31Z</time>
      </trkpt>
      <trkpt lat="44.5941" lon="0.87777">
        <ele>197.8</ele>
        <time>2018-07-22T14:52:32Z</time>
      </trkpt>
      <trkpt lat="44.59406" lon="0.87783">
        <ele>197.9</ele>
        <time>2018-07-22T14:52:33Z</time>
      </trkpt>
      <trkpt lat="44.59402" lon="0.87787">
        <ele>198.1</ele>
        <time>2018-07-22T14:52:34Z</time>
      </trkpt>
      <trkpt lat="44.59399" lon="0.87791">
        <ele>198.2</ele>
        <time>2018-07-22T14:52:35Z</time>
      </trkpt>
      <trkpt lat="44.59396" lon="0.87796">
        <ele>198.4</ele>
        <time>2018-07-22T14:52:36Z</time>
      </trkpt>
      <trkpt lat="44.59392" lon="0.87801">
        <ele>198.6</ele>
        <time>2018-07-22T14:52:37Z</time>
      </trkpt>
      <trkpt lat="44.59389" lon="0.87806">
        <ele>198.8</ele>
        <time>2018-07-22T14:52:38Z</time>
      </trkpt>
      <trkpt lat="44.59387" lon="0.87809">
        <ele>198.8</ele>
        <time>2018-07-22T14:52:39Z</time>
      </trkpt>
      <trkpt lat="44.59383" lon="0.87812">
        <ele>198.8</ele>
        <time>2018-07-22T14:52:40Z</time>
      </trkpt>
      <trkpt lat="44.59379" lon="0.87814">
        <ele>198.9</ele>
        <time>2018-07-22T14:52:41Z</time>
      </trkpt>
      <trkpt lat="44.59375" lon="0.87816">
        <ele>198.9</ele>
        <time>2018-07-22T14:52:42Z</time>
      </trkpt>
      <trkpt lat="44.59371" lon="0.87818">
        <ele>199</ele>
        <time>2018-07-22T14:52:43Z</time>
      </trkpt>
      <trkpt lat="44.59367" lon="0.8782">
        <ele>199</ele>
        <time>2018-07-22T14:52:44Z</time>
      </trkpt>
      <trkpt lat="44.59363" lon="0.87823">
        <ele>199.1</ele>
        <time>2018-07-22T14:52:45Z</time>
      </trkpt>
      <trkpt lat="44.5936" lon="0.87825">
        <ele>199.1</ele>
        <time>2018-07-22T14:52:46Z</time>
      </trkpt>
      <trkpt lat="44.59357" lon="0.87827">
        <ele>199.2</ele>
        <time>2018-07-22T14:52:47Z</time>
      </trkpt>
      <trkpt lat="44.59354" lon="0.87829">
        <ele>199.2</ele>
        <time>2018-07-22T14:52:48Z</time>
      </trkpt>
      <trkpt lat="44.59351" lon="0.87832">
        <ele>199.4</ele>
        <time>2018-07-22T14:52:49Z</time>
      </trkpt>
      <trkpt lat="44.59347" lon="0.87834">
        <ele>199.4</ele>
        <time>2018-07-22T14:52:50Z</time>
      </trkpt>
      <trkpt lat="44.59343" lon="0.87836">
        <ele>199.5</ele>
        <time>2018-07-22T14:52:51Z</time>
      </trkpt>
      <trkpt lat="44.59339" lon="0.87838">
        <ele>199.5</ele>
        <time>2018-07-22T14:52:52Z</time>
      </trkpt>
      <trkpt lat="44.59336" lon="0.87839">
        <ele>199.6</ele>
        <time>2018-07-22T14:52:53Z</time>
      </trkpt>
      <trkpt lat="44.59333" lon="0.87841">
        <ele>199.6</ele>
        <time>2018-07-22T14:52:54Z</time>
      </trkpt>
      <trkpt lat="44.5933" lon="0.87842">
        <ele>199.5</ele>
        <time>2018-07-22T14:52:55Z</time>
      </trkpt>
      <trkpt lat="44.59327" lon="0.87844">
        <ele>199.6</ele>
        <time>2018-07-22T14:52:56Z</time>
      </trkpt>
      <trkpt lat="44.59324" lon="0.87847">
        <ele>199.5</ele>
        <time>2018-07-22T14:52:57Z</time>
      </trkpt>
      <trkpt lat="44.5932" lon="0.87849">
        <ele>199.5</ele>
        <time>2018-07-22T14:52:58Z</time>
      </trkpt>
      <trkpt lat="44.59316" lon="0.87851">
        <ele>199.5</ele>
        <time>2018-07-22T14:52:59Z</time>
      </trkpt>
      <trkpt lat="44.59312" lon="0.87853">
        <ele>199.4</ele>
        <time>2018-07-22T14:53:00Z</time>
      </trkpt>
      <trkpt lat="44.593" lon="0.87856">
        <ele>199.1</ele>
        <time>2018-07-22T14:53:01Z</time>
      </trkpt>
      <trkpt lat="44.59296" lon="0.87861">
        <ele>199</ele>
        <time>2018-07-22T14:53:02Z</time>
      </trkpt>
      <trkpt lat="44.59291" lon="0.87867">
        <ele>198.9</ele>
        <time>2018-07-22T14:53:03Z</time>
      </trkpt>
      <trkpt lat="44.59285" lon="0.87871">
        <ele>198.8</ele>
        <time>2018-07-22T14:53:04Z</time>
      </trkpt>
      <trkpt lat="44.5928" lon="0.87877">
        <ele>198.7</ele>
        <time>2018-07-22T14:53:05Z</time>
      </trkpt>
      <trkpt lat="44.59274" lon="0.87884">
        <ele>198.3</ele>
        <time>2018-07-22T14:53:06Z</time>
      </trkpt>
      <trkpt lat="44.59269" lon="0.8789">
        <ele>197.9</ele>
        <time>2018-07-22T14:53:07Z</time>
      </trkpt>
      <trkpt lat="44.59263" lon="0.87896">
        <ele>197</ele>
        <time>2018-07-22T14:53:08Z</time>
      </trkpt>
      <trkpt lat="44.59257" lon="0.87902">
        <ele>196.4</ele>
        <time>2018-07-22T14:53:09Z</time>
      </trkpt>
      <trkpt lat="44.59252" lon="0.87908">
        <ele>195.7</ele>
        <time>2018-07-22T14:53:10Z</time>
      </trkpt>
      <trkpt lat="44.59247" lon="0.87915">
        <ele>195.1</ele>
        <time>2018-07-22T14:53:11Z</time>
      </trkpt>
      <trkpt lat="44.59243" lon="0.87923">
        <ele>194.4</ele>
        <time>2018-07-22T14:53:12Z</time>
      </trkpt>
      <trkpt lat="44.59239" lon="0.87932">
        <ele>193.7</ele>
        <time>2018-07-22T14:53:13Z</time>
      </trkpt>
      <trkpt lat="44.59235" lon="0.8794">
        <ele>192.8</ele>
        <time>2018-07-22T14:53:14Z</time>
      </trkpt>
      <trkpt lat="44.5923" lon="0.87948">
        <ele>192.1</ele>
        <time>2018-07-22T14:53:15Z</time>
      </trkpt>
      <trkpt lat="44.59224" lon="0.87953">
        <ele>191.5</ele>
        <time>2018-07-22T14:53:16Z</time>
      </trkpt>
      <trkpt lat="44.59221" lon="0.87963">
        <ele>190.7</ele>
        <time>2018-07-22T14:53:17Z</time>
      </trkpt>
      <trkpt lat="44.59216" lon="0.87971">
        <ele>189.8</ele>
        <time>2018-07-22T14:53:18Z</time>
      </trkpt>
      <trkpt lat="44.59212" lon="0.8798">
        <ele>188.6</ele>
        <time>2018-07-22T14:53:19Z</time>
      </trkpt>
      <trkpt lat="44.59208" lon="0.87988">
        <ele>187.5</ele>
        <time>2018-07-22T14:53:20Z</time>
      </trkpt>
      <trkpt lat="44.59202" lon="0.87996">
        <ele>186.3</ele>
        <time>2018-07-22T14:53:21Z</time>
      </trkpt>
      <trkpt lat="44.59197" lon="0.88003">
        <ele>185.3</ele>
        <time>2018-07-22T14:53:22Z</time>
      </trkpt>
      <trkpt lat="44.5919" lon="0.8801">
        <ele>184.6</ele>
        <time>2018-07-22T14:53:23Z</time>
      </trkpt>
      <trkpt lat="44.59183" lon="0.88021">
        <ele>183.3</ele>
        <time>2018-07-22T14:53:24Z</time>
      </trkpt>
      <trkpt lat="44.59173" lon="0.88029">
        <ele>182.4</ele>
        <time>2018-07-22T14:53:25Z</time>
      </trkpt>
      <trkpt lat="44.59165" lon="0.88033">
        <ele>182</ele>
        <time>2018-07-22T14:53:26Z</time>
      </trkpt>
      <trkpt lat="44.59157" lon="0.88043">
        <ele>181.5</ele>
        <time>2018-07-22T14:53:27Z</time>
      </trkpt>
      <trkpt lat="44.59151" lon="0.88051">
        <ele>180.9</ele>
        <time>2018-07-22T14:53:28Z</time>
      </trkpt>
      <trkpt lat="44.59144" lon="0.88063">
        <ele>180</ele>
        <time>2018-07-22T14:53:29Z</time>
      </trkpt>
      <trkpt lat="44.59139" lon="0.88074">
        <ele>179.3</ele>
        <time>2018-07-22T14:53:30Z</time>
      </trkpt>
      <trkpt lat="44.59135" lon="0.88086">
        <ele>178.3</ele>
        <time>2018-07-22T14:53:31Z</time>
      </trkpt>
      <trkpt lat="44.59128" lon="0.88097">
        <ele>177.4</ele>
        <time>2018-07-22T14:53:32Z</time>
      </trkpt>
      <trkpt lat="44.59122" lon="0.88109">
        <ele>176.6</ele>
        <time>2018-07-22T14:53:33Z</time>
      </trkpt>
      <trkpt lat="44.59117" lon="0.88118">
        <ele>175.8</ele>
        <time>2018-07-22T14:53:34Z</time>
      </trkpt>
      <trkpt lat="44.59109" lon="0.88127">
        <ele>174.6</ele>
        <time>2018-07-22T14:53:35Z</time>
      </trkpt>
      <trkpt lat="44.59102" lon="0.88134">
        <ele>174.1</ele>
        <time>2018-07-22T14:53:36Z</time>
      </trkpt>
      <trkpt lat="44.59094" lon="0.8814">
        <ele>173.4</ele>
        <time>2018-07-22T14:53:37Z</time>
      </trkpt>
      <trkpt lat="44.59086" lon="0.88145">
        <ele>172.9</ele>
        <time>2018-07-22T14:53:38Z</time>
      </trkpt>
      <trkpt lat="44.5908" lon="0.88148">
        <ele>172.5</ele>
        <time>2018-07-22T14:53:39Z</time>
      </trkpt>
      <trkpt lat="44.59073" lon="0.88149">
        <ele>172.4</ele>
        <time>2018-07-22T14:53:40Z</time>
      </trkpt>
      <trkpt lat="44.59069" lon="0.88145">
        <ele>172.6</ele>
        <time>2018-07-22T14:53:41Z</time>
      </trkpt>
      <trkpt lat="44.59064" lon="0.88141">
        <ele>172.6</ele>
        <time>2018-07-22T14:53:42Z</time>
      </trkpt>
      <trkpt lat="44.59059" lon="0.88136">
        <ele>172.7</ele>
        <time>2018-07-22T14:53:43Z</time>
      </trkpt>
      <trkpt lat="44.59055" lon="0.88132">
        <ele>172.7</ele>
        <time>2018-07-22T14:53:44Z</time>
      </trkpt>
      <trkpt lat="44.5905" lon="0.88126">
        <ele>173</ele>
        <time>2018-07-22T14:53:45Z</time>
      </trkpt>
      <trkpt lat="44.59047" lon="0.88121">
        <ele>172.9</ele>
        <time>2018-07-22T14:53:46Z</time>
      </trkpt>
      <trkpt lat="44.59042" lon="0.88117">
        <ele>172.9</ele>
        <time>2018-07-22T14:53:47Z</time>
      </trkpt>
      <trkpt lat="44.59037" lon="0.88116">
        <ele>172.6</ele>
        <time>2018-07-22T14:53:48Z</time>
      </trkpt>
      <trkpt lat="44.59032" lon="0.88117">
        <ele>172.4</ele>
        <time>2018-07-22T14:53:49Z</time>
      </trkpt>
      <trkpt lat="44.59029" lon="0.88121">
        <ele>171.9</ele>
        <time>2018-07-22T14:53:50Z</time>
      </trkpt>
      <trkpt lat="44.59025" lon="0.88124">
        <ele>171.1</ele>
        <time>2018-07-22T14:53:51Z</time>
      </trkpt>
      <trkpt lat="44.59022" lon="0.8813">
        <ele>170.5</ele>
        <time>2018-07-22T14:53:52Z</time>
      </trkpt>
      <trkpt lat="44.59019" lon="0.88132">
        <ele>169.9</ele>
        <time>2018-07-22T14:53:53Z</time>
      </trkpt>
      <trkpt lat="44.59015" lon="0.88134">
        <ele>169.6</ele>
        <time>2018-07-22T14:53:54Z</time>
      </trkpt>
      <trkpt lat="44.59011" lon="0.88137">
        <ele>169</ele>
        <time>2018-07-22T14:53:55Z</time>
      </trkpt>
      <trkpt lat="44.59007" lon="0.8814">
        <ele>168</ele>
        <time>2018-07-22T14:53:56Z</time>
      </trkpt>
      <trkpt lat="44.59003" lon="0.88143">
        <ele>167.7</ele>
        <time>2018-07-22T14:53:57Z</time>
      </trkpt>
      <trkpt lat="44.59" lon="0.88146">
        <ele>167</ele>
        <time>2018-07-22T14:53:58Z</time>
      </trkpt>
      <trkpt lat="44.58996" lon="0.88148">
        <ele>166.3</ele>
        <time>2018-07-22T14:53:59Z</time>
      </trkpt>
      <trkpt lat="44.58994" lon="0.88151">
        <ele>165.9</ele>
        <time>2018-07-22T14:54:00Z</time>
      </trkpt>
      <trkpt lat="44.5899" lon="0.88155">
        <ele>165.2</ele>
        <time>2018-07-22T14:54:02Z</time>
      </trkpt>
      <trkpt lat="44.5899" lon="0.88159">
        <ele>164.9</ele>
        <time>2018-07-22T14:54:03Z</time>
      </trkpt>
      <trkpt lat="44.58992" lon="0.88165">
        <ele>164.8</ele>
        <time>2018-07-22T14:54:05Z</time>
      </trkpt>
      <trkpt lat="44.58995" lon="0.88169">
        <ele>164.8</ele>
        <time>2018-07-22T14:54:07Z</time>
      </trkpt>
      <trkpt lat="44.58999" lon="0.88173">
        <ele>164.8</ele>
        <time>2018-07-22T14:54:09Z</time>
      </trkpt>
      <trkpt lat="44.59003" lon="0.88176">
        <ele>164.9</ele>
        <time>2018-07-22T14:54:11Z</time>
      </trkpt>
      <trkpt lat="44.59007" lon="0.8818">
        <ele>165.3</ele>
        <time>2018-07-22T14:54:13Z</time>
      </trkpt>
      <trkpt lat="44.5901" lon="0.88183">
        <ele>165</ele>
        <time>2018-07-22T14:54:14Z</time>
      </trkpt>
      <trkpt lat="44.59012" lon="0.88187">
        <ele>165</ele>
        <time>2018-07-22T14:54:15Z</time>
      </trkpt>
      <trkpt lat="44.59014" lon="0.88192">
        <ele>165</ele>
        <time>2018-07-22T14:54:16Z</time>
      </trkpt>
      <trkpt lat="44.59016" lon="0.88197">
        <ele>164.7</ele>
        <time>2018-07-22T14:54:17Z</time>
      </trkpt>
      <trkpt lat="44.59018" lon="0.88204">
        <ele>164.4</ele>
        <time>2018-07-22T14:54:18Z</time>
      </trkpt>
      <trkpt lat="44.5902" lon="0.8821">
        <ele>163.9</ele>
        <time>2018-07-22T14:54:19Z</time>
      </trkpt>
      <trkpt lat="44.59023" lon="0.88216">
        <ele>163.2</ele>
        <time>2018-07-22T14:54:20Z</time>
      </trkpt>
      <trkpt lat="44.59025" lon="0.88223">
        <ele>162.9</ele>
        <time>2018-07-22T14:54:21Z</time>
      </trkpt>
      <trkpt lat="44.59025" lon="0.8823">
        <ele>162.6</ele>
        <time>2018-07-22T14:54:22Z</time>
      </trkpt>
      <trkpt lat="44.59024" lon="0.88235">
        <ele>162</ele>
        <time>2018-07-22T14:54:23Z</time>
      </trkpt>
      <trkpt lat="44.5902" lon="0.88241">
        <ele>161.3</ele>
        <time>2018-07-22T14:54:24Z</time>
      </trkpt>
      <trkpt lat="44.59016" lon="0.88246">
        <ele>160.6</ele>
        <time>2018-07-22T14:54:25Z</time>
      </trkpt>
      <trkpt lat="44.5901" lon="0.88248">
        <ele>160.2</ele>
        <time>2018-07-22T14:54:26Z</time>
      </trkpt>
      <trkpt lat="44.59003" lon="0.88251">
        <ele>159.5</ele>
        <time>2018-07-22T14:54:27Z</time>
      </trkpt>
      <trkpt lat="44.58996" lon="0.88252">
        <ele>158.7</ele>
        <time>2018-07-22T14:54:28Z</time>
      </trkpt>
      <trkpt lat="44.58988" lon="0.88254">
        <ele>158.1</ele>
        <time>2018-07-22T14:54:29Z</time>
      </trkpt>
      <trkpt lat="44.5898" lon="0.88255">
        <ele>157.2</ele>
        <time>2018-07-22T14:54:30Z</time>
      </trkpt>
      <trkpt lat="44.58971" lon="0.88256">
        <ele>156.7</ele>
        <time>2018-07-22T14:54:31Z</time>
      </trkpt>
      <trkpt lat="44.58963" lon="0.88258">
        <ele>156.4</ele>
        <time>2018-07-22T14:54:32Z</time>
      </trkpt>
      <trkpt lat="44.58954" lon="0.88261">
        <ele>156.2</ele>
        <time>2018-07-22T14:54:33Z</time>
      </trkpt>
      <trkpt lat="44.58945" lon="0.88264">
        <ele>156.1</ele>
        <time>2018-07-22T14:54:34Z</time>
      </trkpt>
      <trkpt lat="44.58938" lon="0.88268">
        <ele>156.1</ele>
        <time>2018-07-22T14:54:35Z</time>
      </trkpt>
      <trkpt lat="44.5893" lon="0.88272">
        <ele>156.1</ele>
        <time>2018-07-22T14:54:36Z</time>
      </trkpt>
      <trkpt lat="44.58924" lon="0.88277">
        <ele>156</ele>
        <time>2018-07-22T14:54:37Z</time>
      </trkpt>
      <trkpt lat="44.58917" lon="0.88283">
        <ele>156</ele>
        <time>2018-07-22T14:54:38Z</time>
      </trkpt>
      <trkpt lat="44.58913" lon="0.88291">
        <ele>156</ele>
        <time>2018-07-22T14:54:39Z</time>
      </trkpt>
      <trkpt lat="44.58913" lon="0.88297">
        <ele>156</ele>
        <time>2018-07-22T14:54:40Z</time>
      </trkpt>
      <trkpt lat="44.58909" lon="0.88302">
        <ele>156</ele>
        <time>2018-07-22T14:54:41Z</time>
      </trkpt>
      <trkpt lat="44.58905" lon="0.88308">
        <ele>156</ele>
        <time>2018-07-22T14:54:42Z</time>
      </trkpt>
      <trkpt lat="44.58901" lon="0.88314">
        <ele>156</ele>
        <time>2018-07-22T14:54:43Z</time>
      </trkpt>
      <trkpt lat="44.58898" lon="0.88317">
        <ele>156</ele>
        <time>2018-07-22T14:54:44Z</time>
      </trkpt>
      <trkpt lat="44.58895" lon="0.8832">
        <ele>156</ele>
        <time>2018-07-22T14:54:45Z</time>
      </trkpt>
      <trkpt lat="44.58892" lon="0.88323">
        <ele>156</ele>
        <time>2018-07-22T14:54:46Z</time>
      </trkpt>
      <trkpt lat="44.5889" lon="0.88326">
        <ele>156</ele>
        <time>2018-07-22T14:54:47Z</time>
      </trkpt>
      <trkpt lat="44.58886" lon="0.88329">
        <ele>156.3</ele>
        <time>2018-07-22T14:54:49Z</time>
      </trkpt>
      <trkpt lat="44.58884" lon="0.88334">
        <ele>156.6</ele>
        <time>2018-07-22T14:54:50Z</time>
      </trkpt>
      <trkpt lat="44.58882" lon="0.88337">
        <ele>156.9</ele>
        <time>2018-07-22T14:54:52Z</time>
      </trkpt>
      <trkpt lat="44.5888" lon="0.88339">
        <ele>157.1</ele>
        <time>2018-07-22T14:54:53Z</time>
      </trkpt>
      <trkpt lat="44.58877" lon="0.88342">
        <ele>157.4</ele>
        <time>2018-07-22T14:54:54Z</time>
      </trkpt>
      <trkpt lat="44.58875" lon="0.88345">
        <ele>157.8</ele>
        <time>2018-07-22T14:54:55Z</time>
      </trkpt>
      <trkpt lat="44.58872" lon="0.88348">
        <ele>158.3</ele>
        <time>2018-07-22T14:54:56Z</time>
      </trkpt>
      <trkpt lat="44.58869" lon="0.8835">
        <ele>158.5</ele>
        <time>2018-07-22T14:54:57Z</time>
      </trkpt>
      <trkpt lat="44.58867" lon="0.88352">
        <ele>158.7</ele>
        <time>2018-07-22T14:54:58Z</time>
      </trkpt>
      <trkpt lat="44.58865" lon="0.88355">
        <ele>158.8</ele>
        <time>2018-07-22T14:54:59Z</time>
      </trkpt>
      <trkpt lat="44.58863" lon="0.88358">
        <ele>159</ele>
        <time>2018-07-22T14:55:00Z</time>
      </trkpt>
      <trkpt lat="44.5886" lon="0.88361">
        <ele>159.3</ele>
        <time>2018-07-22T14:55:01Z</time>
      </trkpt>
      <trkpt lat="44.58858" lon="0.88364">
        <ele>159.5</ele>
        <time>2018-07-22T14:55:02Z</time>
      </trkpt>
      <trkpt lat="44.58856" lon="0.88367">
        <ele>159.7</ele>
        <time>2018-07-22T14:55:03Z</time>
      </trkpt>
      <trkpt lat="44.58853" lon="0.8837">
        <ele>160</ele>
        <time>2018-07-22T14:55:04Z</time>
      </trkpt>
      <trkpt lat="44.58852" lon="0.88373">
        <ele>160.3</ele>
        <time>2018-07-22T14:55:05Z</time>
      </trkpt>
      <trkpt lat="44.5885" lon="0.88376">
        <ele>160.6</ele>
        <time>2018-07-22T14:55:06Z</time>
      </trkpt>
      <trkpt lat="44.58848" lon="0.88379">
        <ele>160.9</ele>
        <time>2018-07-22T14:55:07Z</time>
      </trkpt>
      <trkpt lat="44.58845" lon="0.88385">
        <ele>161.6</ele>
        <time>2018-07-22T14:55:09Z</time>
      </trkpt>
      <trkpt lat="44.58842" lon="0.8839">
        <ele>162.2</ele>
        <time>2018-07-22T14:55:11Z</time>
      </trkpt>
      <trkpt lat="44.58838" lon="0.88393">
        <ele>162.8</ele>
        <time>2018-07-22T14:55:13Z</time>
      </trkpt>
      <trkpt lat="44.58835" lon="0.88396">
        <ele>163.3</ele>
        <time>2018-07-22T14:55:15Z</time>
      </trkpt>
      <trkpt lat="44.58832" lon="0.884">
        <ele>163.8</ele>
        <time>2018-07-22T14:55:17Z</time>
      </trkpt>
      <trkpt lat="44.58829" lon="0.88405">
        <ele>164.2</ele>
        <time>2018-07-22T14:55:19Z</time>
      </trkpt>
      <trkpt lat="44.58827" lon="0.88409">
        <ele>164.4</ele>
        <time>2018-07-22T14:55:21Z</time>
      </trkpt>
      <trkpt lat="44.58824" lon="0.88415">
        <ele>164.6</ele>
        <time>2018-07-22T14:55:23Z</time>
      </trkpt>
      <trkpt lat="44.58821" lon="0.8842">
        <ele>164.8</ele>
        <time>2018-07-22T14:55:25Z</time>
      </trkpt>
      <trkpt lat="44.58819" lon="0.88427">
        <ele>165.1</ele>
        <time>2018-07-22T14:55:27Z</time>
      </trkpt>
      <trkpt lat="44.58817" lon="0.88434">
        <ele>165.4</ele>
        <time>2018-07-22T14:55:29Z</time>
      </trkpt>
      <trkpt lat="44.58816" lon="0.88437">
        <ele>165.5</ele>
        <time>2018-07-22T14:55:30Z</time>
      </trkpt>
      <trkpt lat="44.58814" lon="0.88443">
        <ele>165.7</ele>
        <time>2018-07-22T14:55:32Z</time>
      </trkpt>
      <trkpt lat="44.58813" lon="0.88449">
        <ele>165.9</ele>
        <time>2018-07-22T14:55:34Z</time>
      </trkpt>
      <trkpt lat="44.58812" lon="0.88455">
        <ele>166.1</ele>
        <time>2018-07-22T14:55:36Z</time>
      </trkpt>
      <trkpt lat="44.5881" lon="0.88459">
        <ele>166.3</ele>
        <time>2018-07-22T14:55:38Z</time>
      </trkpt>
      <trkpt lat="44.58809" lon="0.88467">
        <ele>166.5</ele>
        <time>2018-07-22T14:55:40Z</time>
      </trkpt>
      <trkpt lat="44.58809" lon="0.88471">
        <ele>166.6</ele>
        <time>2018-07-22T14:55:41Z</time>
      </trkpt>
      <trkpt lat="44.58808" lon="0.88475">
        <ele>166.8</ele>
        <time>2018-07-22T14:55:42Z</time>
      </trkpt>
      <trkpt lat="44.58807" lon="0.88479">
        <ele>166.9</ele>
        <time>2018-07-22T14:55:43Z</time>
      </trkpt>
      <trkpt lat="44.58806" lon="0.88482">
        <ele>167</ele>
        <time>2018-07-22T14:55:44Z</time>
      </trkpt>
      <trkpt lat="44.58804" lon="0.88489">
        <ele>167.2</ele>
        <time>2018-07-22T14:55:46Z</time>
      </trkpt>
      <trkpt lat="44.58802" lon="0.88496">
        <ele>167.4</ele>
        <time>2018-07-22T14:55:48Z</time>
      </trkpt>
      <trkpt lat="44.58799" lon="0.88502">
        <ele>167.7</ele>
        <time>2018-07-22T14:55:50Z</time>
      </trkpt>
      <trkpt lat="44.58797" lon="0.88506">
        <ele>167.8</ele>
        <time>2018-07-22T14:55:51Z</time>
      </trkpt>
      <trkpt lat="44.58795" lon="0.88509">
        <ele>167.9</ele>
        <time>2018-07-22T14:55:52Z</time>
      </trkpt>
      <trkpt lat="44.58793" lon="0.88513">
        <ele>168.1</ele>
        <time>2018-07-22T14:55:53Z</time>
      </trkpt>
      <trkpt lat="44.58791" lon="0.88516">
        <ele>168.2</ele>
        <time>2018-07-22T14:55:54Z</time>
      </trkpt>
      <trkpt lat="44.5879" lon="0.88519">
        <ele>168.3</ele>
        <time>2018-07-22T14:55:55Z</time>
      </trkpt>
      <trkpt lat="44.58787" lon="0.88526">
        <ele>168.6</ele>
        <time>2018-07-22T14:55:57Z</time>
      </trkpt>
      <trkpt lat="44.58785" lon="0.8853">
        <ele>168.7</ele>
        <time>2018-07-22T14:55:58Z</time>
      </trkpt>
      <trkpt lat="44.58784" lon="0.88535">
        <ele>169</ele>
        <time>2018-07-22T14:56:00Z</time>
      </trkpt>
      <trkpt lat="44.58782" lon="0.8854">
        <ele>169.2</ele>
        <time>2018-07-22T14:56:02Z</time>
      </trkpt>
      <trkpt lat="44.5878" lon="0.88545">
        <ele>169.5</ele>
        <time>2018-07-22T14:56:04Z</time>
      </trkpt>
      <trkpt lat="44.58777" lon="0.88551">
        <ele>169.7</ele>
        <time>2018-07-22T14:56:06Z</time>
      </trkpt>
      <trkpt lat="44.58774" lon="0.88556">
        <ele>169.9</ele>
        <time>2018-07-22T14:56:08Z</time>
      </trkpt>
      <trkpt lat="44.58771" lon="0.8856">
        <ele>170.2</ele>
        <time>2018-07-22T14:56:10Z</time>
      </trkpt>
      <trkpt lat="44.58767" lon="0.88563">
        <ele>170.5</ele>
        <time>2018-07-22T14:56:12Z</time>
      </trkpt>
      <trkpt lat="44.58765" lon="0.88566">
        <ele>170.6</ele>
        <time>2018-07-22T14:56:13Z</time>
      </trkpt>
      <trkpt lat="44.58762" lon="0.88569">
        <ele>170.8</ele>
        <time>2018-07-22T14:56:14Z</time>
      </trkpt>
      <trkpt lat="44.58761" lon="0.88573">
        <ele>171</ele>
        <time>2018-07-22T14:56:15Z</time>
      </trkpt>
      <trkpt lat="44.58758" lon="0.88575">
        <ele>171.2</ele>
        <time>2018-07-22T14:56:16Z</time>
      </trkpt>
      <trkpt lat="44.58755" lon="0.88577">
        <ele>171.5</ele>
        <time>2018-07-22T14:56:17Z</time>
      </trkpt>
      <trkpt lat="44.58751" lon="0.88582">
        <ele>171.8</ele>
        <time>2018-07-22T14:56:19Z</time>
      </trkpt>
      <trkpt lat="44.58749" lon="0.88588">
        <ele>172.1</ele>
        <time>2018-07-22T14:56:21Z</time>
      </trkpt>
      <trkpt lat="44.58745" lon="0.88593">
        <ele>172.5</ele>
        <time>2018-07-22T14:56:23Z</time>
      </trkpt>
      <trkpt lat="44.58743" lon="0.88596">
        <ele>172.7</ele>
        <time>2018-07-22T14:56:24Z</time>
      </trkpt>
      <trkpt lat="44.58741" lon="0.88599">
        <ele>172.9</ele>
        <time>2018-07-22T14:56:25Z</time>
      </trkpt>
      <trkpt lat="44.58739" lon="0.88602">
        <ele>173.2</ele>
        <time>2018-07-22T14:56:26Z</time>
      </trkpt>
      <trkpt lat="44.58736" lon="0.88606">
        <ele>173.4</ele>
        <time>2018-07-22T14:56:27Z</time>
      </trkpt>
      <trkpt lat="44.58733" lon="0.88608">
        <ele>173.6</ele>
        <time>2018-07-22T14:56:28Z</time>
      </trkpt>
      <trkpt lat="44.5873" lon="0.88612">
        <ele>174</ele>
        <time>2018-07-22T14:56:30Z</time>
      </trkpt>
      <trkpt lat="44.58727" lon="0.88617">
        <ele>174.3</ele>
        <time>2018-07-22T14:56:32Z</time>
      </trkpt>
      <trkpt lat="44.58723" lon="0.88621">
        <ele>174.7</ele>
        <time>2018-07-22T14:56:34Z</time>
      </trkpt>
      <trkpt lat="44.5872" lon="0.88625">
        <ele>174.9</ele>
        <time>2018-07-22T14:56:36Z</time>
      </trkpt>
      <trkpt lat="44.58717" lon="0.8863">
        <ele>175.2</ele>
        <time>2018-07-22T14:56:38Z</time>
      </trkpt>
      <trkpt lat="44.58713" lon="0.88634">
        <ele>176</ele>
        <time>2018-07-22T14:56:40Z</time>
      </trkpt>
      <trkpt lat="44.58709" lon="0.88639">
        <ele>176.7</ele>
        <time>2018-07-22T14:56:42Z</time>
      </trkpt>
      <trkpt lat="44.58707" lon="0.88642">
        <ele>177</ele>
        <time>2018-07-22T14:56:43Z</time>
      </trkpt>
      <trkpt lat="44.58703" lon="0.88647">
        <ele>177.8</ele>
        <time>2018-07-22T14:56:45Z</time>
      </trkpt>
      <trkpt lat="44.58701" lon="0.8865">
        <ele>178.2</ele>
        <time>2018-07-22T14:56:46Z</time>
      </trkpt>
      <trkpt lat="44.58698" lon="0.88652">
        <ele>178.6</ele>
        <time>2018-07-22T14:56:47Z</time>
      </trkpt>
      <trkpt lat="44.58695" lon="0.88657">
        <ele>179.3</ele>
        <time>2018-07-22T14:56:49Z</time>
      </trkpt>
      <trkpt lat="44.58693" lon="0.88661">
        <ele>179.5</ele>
        <time>2018-07-22T14:56:50Z</time>
      </trkpt>
      <trkpt lat="44.58691" lon="0.88667">
        <ele>179.8</ele>
        <time>2018-07-22T14:56:52Z</time>
      </trkpt>
      <trkpt lat="44.58688" lon="0.88673">
        <ele>180.1</ele>
        <time>2018-07-22T14:56:54Z</time>
      </trkpt>
      <trkpt lat="44.58685" lon="0.8868">
        <ele>180.4</ele>
        <time>2018-07-22T14:56:56Z</time>
      </trkpt>
      <trkpt lat="44.58683" lon="0.88685">
        <ele>180.7</ele>
        <time>2018-07-22T14:56:58Z</time>
      </trkpt>
      <trkpt lat="44.58682" lon="0.88692">
        <ele>181</ele>
        <time>2018-07-22T14:57:00Z</time>
      </trkpt>
      <trkpt lat="44.58682" lon="0.88696">
        <ele>181.2</ele>
        <time>2018-07-22T14:57:01Z</time>
      </trkpt>
      <trkpt lat="44.58682" lon="0.88703">
        <ele>181.5</ele>
        <time>2018-07-22T14:57:03Z</time>
      </trkpt>
      <trkpt lat="44.58682" lon="0.88707">
        <ele>181.7</ele>
        <time>2018-07-22T14:57:04Z</time>
      </trkpt>
      <trkpt lat="44.58682" lon="0.88711">
        <ele>181.9</ele>
        <time>2018-07-22T14:57:05Z</time>
      </trkpt>
      <trkpt lat="44.58683" lon="0.88717">
        <ele>182.2</ele>
        <time>2018-07-22T14:57:06Z</time>
      </trkpt>
      <trkpt lat="44.58684" lon="0.88722">
        <ele>182.4</ele>
        <time>2018-07-22T14:57:07Z</time>
      </trkpt>
      <trkpt lat="44.58685" lon="0.88728">
        <ele>182.7</ele>
        <time>2018-07-22T14:57:08Z</time>
      </trkpt>
      <trkpt lat="44.58686" lon="0.88733">
        <ele>183</ele>
        <time>2018-07-22T14:57:09Z</time>
      </trkpt>
      <trkpt lat="44.58687" lon="0.88738">
        <ele>183</ele>
        <time>2018-07-22T14:57:10Z</time>
      </trkpt>
      <trkpt lat="44.58689" lon="0.88743">
        <ele>183.1</ele>
        <time>2018-07-22T14:57:11Z</time>
      </trkpt>
      <trkpt lat="44.5869" lon="0.88748">
        <ele>183.2</ele>
        <time>2018-07-22T14:57:12Z</time>
      </trkpt>
      <trkpt lat="44.58692" lon="0.88753">
        <ele>183.3</ele>
        <time>2018-07-22T14:57:13Z</time>
      </trkpt>
      <trkpt lat="44.58693" lon="0.88757">
        <ele>183.4</ele>
        <time>2018-07-22T14:57:14Z</time>
      </trkpt>
      <trkpt lat="44.58695" lon="0.88762">
        <ele>183.7</ele>
        <time>2018-07-22T14:57:15Z</time>
      </trkpt>
      <trkpt lat="44.58697" lon="0.88766">
        <ele>183.8</ele>
        <time>2018-07-22T14:57:16Z</time>
      </trkpt>
      <trkpt lat="44.58699" lon="0.88771">
        <ele>183.8</ele>
        <time>2018-07-22T14:57:17Z</time>
      </trkpt>
      <trkpt lat="44.58701" lon="0.88774">
        <ele>183.8</ele>
        <time>2018-07-22T14:57:18Z</time>
      </trkpt>
      <trkpt lat="44.58703" lon="0.88778">
        <ele>183.9</ele>
        <time>2018-07-22T14:57:19Z</time>
      </trkpt>
      <trkpt lat="44.58704" lon="0.88782">
        <ele>184</ele>
        <time>2018-07-22T14:57:20Z</time>
      </trkpt>
      <trkpt lat="44.58706" lon="0.88785">
        <ele>184.1</ele>
        <time>2018-07-22T14:57:21Z</time>
      </trkpt>
      <trkpt lat="44.58708" lon="0.88788">
        <ele>184.2</ele>
        <time>2018-07-22T14:57:22Z</time>
      </trkpt>
      <trkpt lat="44.5871" lon="0.88792">
        <ele>184.1</ele>
        <time>2018-07-22T14:57:23Z</time>
      </trkpt>
      <trkpt lat="44.58712" lon="0.88795">
        <ele>184.2</ele>
        <time>2018-07-22T14:57:24Z</time>
      </trkpt>
      <trkpt lat="44.58714" lon="0.88798">
        <ele>184.2</ele>
        <time>2018-07-22T14:57:25Z</time>
      </trkpt>
      <trkpt lat="44.58716" lon="0.88801">
        <ele>184.4</ele>
        <time>2018-07-22T14:57:26Z</time>
      </trkpt>
      <trkpt lat="44.58719" lon="0.88804">
        <ele>184.2</ele>
        <time>2018-07-22T14:57:27Z</time>
      </trkpt>
      <trkpt lat="44.58721" lon="0.88807">
        <ele>184.2</ele>
        <time>2018-07-22T14:57:28Z</time>
      </trkpt>
      <trkpt lat="44.58723" lon="0.88811">
        <ele>184.3</ele>
        <time>2018-07-22T14:57:29Z</time>
      </trkpt>
      <trkpt lat="44.58725" lon="0.88814">
        <ele>184.4</ele>
        <time>2018-07-22T14:57:30Z</time>
      </trkpt>
      <trkpt lat="44.58727" lon="0.88818">
        <ele>184.5</ele>
        <time>2018-07-22T14:57:31Z</time>
      </trkpt>
      <trkpt lat="44.58728" lon="0.88822">
        <ele>184.5</ele>
        <time>2018-07-22T14:57:32Z</time>
      </trkpt>
      <trkpt lat="44.5873" lon="0.88825">
        <ele>184.5</ele>
        <time>2018-07-22T14:57:33Z</time>
      </trkpt>
      <trkpt lat="44.58732" lon="0.88829">
        <ele>184.6</ele>
        <time>2018-07-22T14:57:34Z</time>
      </trkpt>
      <trkpt lat="44.58734" lon="0.88833">
        <ele>184.8</ele>
        <time>2018-07-22T14:57:35Z</time>
      </trkpt>
      <trkpt lat="44.58736" lon="0.88837">
        <ele>185</ele>
        <time>2018-07-22T14:57:36Z</time>
      </trkpt>
      <trkpt lat="44.58738" lon="0.88842">
        <ele>185.2</ele>
        <time>2018-07-22T14:57:37Z</time>
      </trkpt>
      <trkpt lat="44.58739" lon="0.88846">
        <ele>185.3</ele>
        <time>2018-07-22T14:57:38Z</time>
      </trkpt>
      <trkpt lat="44.58741" lon="0.88851">
        <ele>185.4</ele>
        <time>2018-07-22T14:57:39Z</time>
      </trkpt>
      <trkpt lat="44.58742" lon="0.88856">
        <ele>185.5</ele>
        <time>2018-07-22T14:57:40Z</time>
      </trkpt>
      <trkpt lat="44.58743" lon="0.88861">
        <ele>185.6</ele>
        <time>2018-07-22T14:57:41Z</time>
      </trkpt>
      <trkpt lat="44.58744" lon="0.88867">
        <ele>185.7</ele>
        <time>2018-07-22T14:57:42Z</time>
      </trkpt>
      <trkpt lat="44.58745" lon="0.88873">
        <ele>185.6</ele>
        <time>2018-07-22T14:57:43Z</time>
      </trkpt>
      <trkpt lat="44.58746" lon="0.88878">
        <ele>185.7</ele>
        <time>2018-07-22T14:57:44Z</time>
      </trkpt>
      <trkpt lat="44.58748" lon="0.88884">
        <ele>185.6</ele>
        <time>2018-07-22T14:57:45Z</time>
      </trkpt>
      <trkpt lat="44.58749" lon="0.88889">
        <ele>185.6</ele>
        <time>2018-07-22T14:57:46Z</time>
      </trkpt>
      <trkpt lat="44.58751" lon="0.88895">
        <ele>185.6</ele>
        <time>2018-07-22T14:57:47Z</time>
      </trkpt>
      <trkpt lat="44.58753" lon="0.889">
        <ele>185.7</ele>
        <time>2018-07-22T14:57:48Z</time>
      </trkpt>
      <trkpt lat="44.58754" lon="0.88905">
        <ele>185.6</ele>
        <time>2018-07-22T14:57:49Z</time>
      </trkpt>
      <trkpt lat="44.58755" lon="0.8891">
        <ele>185.7</ele>
        <time>2018-07-22T14:57:50Z</time>
      </trkpt>
      <trkpt lat="44.58757" lon="0.88915">
        <ele>185.7</ele>
        <time>2018-07-22T14:57:51Z</time>
      </trkpt>
      <trkpt lat="44.58758" lon="0.8892">
        <ele>185.8</ele>
        <time>2018-07-22T14:57:52Z</time>
      </trkpt>
      <trkpt lat="44.58759" lon="0.88924">
        <ele>185.9</ele>
        <time>2018-07-22T14:57:53Z</time>
      </trkpt>
      <trkpt lat="44.5876" lon="0.88928">
        <ele>186</ele>
        <time>2018-07-22T14:57:54Z</time>
      </trkpt>
      <trkpt lat="44.5876" lon="0.88932">
        <ele>186.1</ele>
        <time>2018-07-22T14:57:55Z</time>
      </trkpt>
      <trkpt lat="44.5876" lon="0.88937">
        <ele>186.3</ele>
        <time>2018-07-22T14:57:56Z</time>
      </trkpt>
      <trkpt lat="44.5876" lon="0.8894">
        <ele>186.5</ele>
        <time>2018-07-22T14:57:57Z</time>
      </trkpt>
      <trkpt lat="44.58761" lon="0.88948">
        <ele>186.8</ele>
        <time>2018-07-22T14:57:59Z</time>
      </trkpt>
      <trkpt lat="44.58761" lon="0.88955">
        <ele>187</ele>
        <time>2018-07-22T14:58:01Z</time>
      </trkpt>
      <trkpt lat="44.58761" lon="0.88962">
        <ele>187.3</ele>
        <time>2018-07-22T14:58:03Z</time>
      </trkpt>
      <trkpt lat="44.58761" lon="0.88966">
        <ele>187.5</ele>
        <time>2018-07-22T14:58:04Z</time>
      </trkpt>
      <trkpt lat="44.58761" lon="0.8897">
        <ele>187.7</ele>
        <time>2018-07-22T14:58:05Z</time>
      </trkpt>
      <trkpt lat="44.58761" lon="0.88977">
        <ele>188</ele>
        <time>2018-07-22T14:58:07Z</time>
      </trkpt>
      <trkpt lat="44.58762" lon="0.88984">
        <ele>188.2</ele>
        <time>2018-07-22T14:58:09Z</time>
      </trkpt>
      <trkpt lat="44.58762" lon="0.8899">
        <ele>188.6</ele>
        <time>2018-07-22T14:58:11Z</time>
      </trkpt>
      <trkpt lat="44.58762" lon="0.88997">
        <ele>188.7</ele>
        <time>2018-07-22T14:58:13Z</time>
      </trkpt>
      <trkpt lat="44.58763" lon="0.89004">
        <ele>188.8</ele>
        <time>2018-07-22T14:58:15Z</time>
      </trkpt>
      <trkpt lat="44.58763" lon="0.89011">
        <ele>189.2</ele>
        <time>2018-07-22T14:58:17Z</time>
      </trkpt>
      <trkpt lat="44.58763" lon="0.89015">
        <ele>189.2</ele>
        <time>2018-07-22T14:58:18Z</time>
      </trkpt>
      <trkpt lat="44.58763" lon="0.89019">
        <ele>189.4</ele>
        <time>2018-07-22T14:58:19Z</time>
      </trkpt>
      <trkpt lat="44.58764" lon="0.89026">
        <ele>189.9</ele>
        <time>2018-07-22T14:58:21Z</time>
      </trkpt>
      <trkpt lat="44.58764" lon="0.89033">
        <ele>190.3</ele>
        <time>2018-07-22T14:58:23Z</time>
      </trkpt>
      <trkpt lat="44.58763" lon="0.8904">
        <ele>190.5</ele>
        <time>2018-07-22T14:58:25Z</time>
      </trkpt>
      <trkpt lat="44.58762" lon="0.89044">
        <ele>190.9</ele>
        <time>2018-07-22T14:58:26Z</time>
      </trkpt>
      <trkpt lat="44.58757" lon="0.89056">
        <ele>191.6</ele>
        <time>2018-07-22T14:58:28Z</time>
      </trkpt>
      <trkpt lat="44.58755" lon="0.89062">
        <ele>192.1</ele>
        <time>2018-07-22T14:58:29Z</time>
      </trkpt>
      <trkpt lat="44.58751" lon="0.89068">
        <ele>192.3</ele>
        <time>2018-07-22T14:58:30Z</time>
      </trkpt>
      <trkpt lat="44.5875" lon="0.89073">
        <ele>192.4</ele>
        <time>2018-07-22T14:58:31Z</time>
      </trkpt>
      <trkpt lat="44.58748" lon="0.89078">
        <ele>192.6</ele>
        <time>2018-07-22T14:58:32Z</time>
      </trkpt>
      <trkpt lat="44.58747" lon="0.89082">
        <ele>192.7</ele>
        <time>2018-07-22T14:58:33Z</time>
      </trkpt>
      <trkpt lat="44.58743" lon="0.89083">
        <ele>192.9</ele>
        <time>2018-07-22T14:58:34Z</time>
      </trkpt>
      <trkpt lat="44.5874" lon="0.89088">
        <ele>193.4</ele>
        <time>2018-07-22T14:58:36Z</time>
      </trkpt>
      <trkpt lat="44.58738" lon="0.89092">
        <ele>193.3</ele>
        <time>2018-07-22T14:58:37Z</time>
      </trkpt>
      <trkpt lat="44.58738" lon="0.89096">
        <ele>193.6</ele>
        <time>2018-07-22T14:58:38Z</time>
      </trkpt>
      <trkpt lat="44.58736" lon="0.89103">
        <ele>194</ele>
        <time>2018-07-22T14:58:40Z</time>
      </trkpt>
      <trkpt lat="44.58733" lon="0.89108">
        <ele>194.3</ele>
        <time>2018-07-22T14:58:42Z</time>
      </trkpt>
      <trkpt lat="44.58731" lon="0.89113">
        <ele>194.6</ele>
        <time>2018-07-22T14:58:44Z</time>
      </trkpt>
      <trkpt lat="44.58728" lon="0.89118">
        <ele>194.8</ele>
        <time>2018-07-22T14:58:46Z</time>
      </trkpt>
      <trkpt lat="44.58726" lon="0.89122">
        <ele>195</ele>
        <time>2018-07-22T14:58:48Z</time>
      </trkpt>
      <trkpt lat="44.58723" lon="0.89127">
        <ele>195.3</ele>
        <time>2018-07-22T14:58:50Z</time>
      </trkpt>
      <trkpt lat="44.58721" lon="0.89132">
        <ele>195.6</ele>
        <time>2018-07-22T14:58:52Z</time>
      </trkpt>
      <trkpt lat="44.58719" lon="0.89136">
        <ele>195.8</ele>
        <time>2018-07-22T14:58:54Z</time>
      </trkpt>
      <trkpt lat="44.58716" lon="0.89141">
        <ele>196.1</ele>
        <time>2018-07-22T14:58:57Z</time>
      </trkpt>
      <trkpt lat="44.58714" lon="0.89144">
        <ele>196.2</ele>
        <time>2018-07-22T14:58:58Z</time>
      </trkpt>
      <trkpt lat="44.58714" lon="0.89148">
        <ele>196.3</ele>
        <time>2018-07-22T14:58:59Z</time>
      </trkpt>
      <trkpt lat="44.58712" lon="0.89155">
        <ele>196.6</ele>
        <time>2018-07-22T14:59:01Z</time>
      </trkpt>
      <trkpt lat="44.5871" lon="0.89159">
        <ele>196.9</ele>
        <time>2018-07-22T14:59:02Z</time>
      </trkpt>
      <trkpt lat="44.58708" lon="0.89162">
        <ele>197</ele>
        <time>2018-07-22T14:59:03Z</time>
      </trkpt>
      <trkpt lat="44.58706" lon="0.89165">
        <ele>197.2</ele>
        <time>2018-07-22T14:59:04Z</time>
      </trkpt>
      <trkpt lat="44.58703" lon="0.8917">
        <ele>197.7</ele>
        <time>2018-07-22T14:59:06Z</time>
      </trkpt>
      <trkpt lat="44.58701" lon="0.89175">
        <ele>198</ele>
        <time>2018-07-22T14:59:08Z</time>
      </trkpt>
      <trkpt lat="44.587" lon="0.89179">
        <ele>198.1</ele>
        <time>2018-07-22T14:59:09Z</time>
      </trkpt>
      <trkpt lat="44.58698" lon="0.89183">
        <ele>198.5</ele>
        <time>2018-07-22T14:59:10Z</time>
      </trkpt>
      <trkpt lat="44.58697" lon="0.89189">
        <ele>198.7</ele>
        <time>2018-07-22T14:59:11Z</time>
      </trkpt>
      <trkpt lat="44.58695" lon="0.89195">
        <ele>199</ele>
        <time>2018-07-22T14:59:12Z</time>
      </trkpt>
      <trkpt lat="44.58694" lon="0.89198">
        <ele>199.2</ele>
        <time>2018-07-22T14:59:13Z</time>
      </trkpt>
      <trkpt lat="44.58693" lon="0.89207">
        <ele>199.5</ele>
        <time>2018-07-22T14:59:15Z</time>
      </trkpt>
      <trkpt lat="44.58692" lon="0.89213">
        <ele>199.9</ele>
        <time>2018-07-22T14:59:16Z</time>
      </trkpt>
      <trkpt lat="44.58691" lon="0.89219">
        <ele>200.1</ele>
        <time>2018-07-22T14:59:17Z</time>
      </trkpt>
      <trkpt lat="44.58689" lon="0.89224">
        <ele>200.4</ele>
        <time>2018-07-22T14:59:18Z</time>
      </trkpt>
      <trkpt lat="44.58685" lon="0.89228">
        <ele>200.6</ele>
        <time>2018-07-22T14:59:19Z</time>
      </trkpt>
      <trkpt lat="44.58682" lon="0.89231">
        <ele>200.8</ele>
        <time>2018-07-22T14:59:20Z</time>
      </trkpt>
      <trkpt lat="44.58679" lon="0.89235">
        <ele>201</ele>
        <time>2018-07-22T14:59:21Z</time>
      </trkpt>
      <trkpt lat="44.58677" lon="0.89238">
        <ele>201.1</ele>
        <time>2018-07-22T14:59:22Z</time>
      </trkpt>
      <trkpt lat="44.58676" lon="0.89242">
        <ele>201.2</ele>
        <time>2018-07-22T14:59:23Z</time>
      </trkpt>
      <trkpt lat="44.58674" lon="0.89245">
        <ele>201.3</ele>
        <time>2018-07-22T14:59:24Z</time>
      </trkpt>
      <trkpt lat="44.58673" lon="0.8925">
        <ele>201.5</ele>
        <time>2018-07-22T14:59:25Z</time>
      </trkpt>
      <trkpt lat="44.58673" lon="0.89255">
        <ele>201.6</ele>
        <time>2018-07-22T14:59:26Z</time>
      </trkpt>
      <trkpt lat="44.58674" lon="0.89261">
        <ele>201.8</ele>
        <time>2018-07-22T14:59:27Z</time>
      </trkpt>
      <trkpt lat="44.58676" lon="0.89265">
        <ele>201.9</ele>
        <time>2018-07-22T14:59:28Z</time>
      </trkpt>
      <trkpt lat="44.58679" lon="0.89269">
        <ele>202</ele>
        <time>2018-07-22T14:59:29Z</time>
      </trkpt>
      <trkpt lat="44.58682" lon="0.89273">
        <ele>202.2</ele>
        <time>2018-07-22T14:59:30Z</time>
      </trkpt>
      <trkpt lat="44.58685" lon="0.89276">
        <ele>202.2</ele>
        <time>2018-07-22T14:59:31Z</time>
      </trkpt>
      <trkpt lat="44.58687" lon="0.89279">
        <ele>202.4</ele>
        <time>2018-07-22T14:59:32Z</time>
      </trkpt>
      <trkpt lat="44.5869" lon="0.89281">
        <ele>202.7</ele>
        <time>2018-07-22T14:59:33Z</time>
      </trkpt>
      <trkpt lat="44.58692" lon="0.89285">
        <ele>202.7</ele>
        <time>2018-07-22T14:59:35Z</time>
      </trkpt>
      <trkpt lat="44.58694" lon="0.89289">
        <ele>203</ele>
        <time>2018-07-22T14:59:37Z</time>
      </trkpt>
      <trkpt lat="44.58695" lon="0.89294">
        <ele>203.3</ele>
        <time>2018-07-22T14:59:40Z</time>
      </trkpt>
      <trkpt lat="44.58695" lon="0.89297">
        <ele>203.7</ele>
        <time>2018-07-22T14:59:42Z</time>
      </trkpt>
      <trkpt lat="44.58696" lon="0.89302">
        <ele>204</ele>
        <time>2018-07-22T14:59:44Z</time>
      </trkpt>
      <trkpt lat="44.58696" lon="0.89306">
        <ele>204.4</ele>
        <time>2018-07-22T14:59:46Z</time>
      </trkpt>
      <trkpt lat="44.58697" lon="0.89312">
        <ele>205.1</ele>
        <time>2018-07-22T14:59:48Z</time>
      </trkpt>
      <trkpt lat="44.58698" lon="0.89318">
        <ele>205.4</ele>
        <time>2018-07-22T14:59:50Z</time>
      </trkpt>
      <trkpt lat="44.58698" lon="0.89323">
        <ele>205.7</ele>
        <time>2018-07-22T14:59:52Z</time>
      </trkpt>
      <trkpt lat="44.58698" lon="0.89328">
        <ele>206.2</ele>
        <time>2018-07-22T14:59:54Z</time>
      </trkpt>
      <trkpt lat="44.587" lon="0.89333">
        <ele>206.8</ele>
        <time>2018-07-22T14:59:56Z</time>
      </trkpt>
      <trkpt lat="44.58701" lon="0.89337">
        <ele>206.8</ele>
        <time>2018-07-22T14:59:59Z</time>
      </trkpt>
      <trkpt lat="44.58701" lon="0.89341">
        <ele>207.1</ele>
        <time>2018-07-22T15:00:01Z</time>
      </trkpt>
      <trkpt lat="44.58702" lon="0.89346">
        <ele>207.9</ele>
        <time>2018-07-22T15:00:03Z</time>
      </trkpt>
      <trkpt lat="44.58703" lon="0.89351">
        <ele>208.2</ele>
        <time>2018-07-22T15:00:05Z</time>
      </trkpt>
      <trkpt lat="44.58705" lon="0.89355">
        <ele>208.6</ele>
        <time>2018-07-22T15:00:08Z</time>
      </trkpt>
      <trkpt lat="44.58706" lon="0.89359">
        <ele>208.9</ele>
        <time>2018-07-22T15:00:10Z</time>
      </trkpt>
      <trkpt lat="44.58707" lon="0.89363">
        <ele>209.3</ele>
        <time>2018-07-22T15:00:12Z</time>
      </trkpt>
      <trkpt lat="44.58708" lon="0.89367">
        <ele>209.8</ele>
        <time>2018-07-22T15:00:14Z</time>
      </trkpt>
      <trkpt lat="44.58709" lon="0.89372">
        <ele>210.1</ele>
        <time>2018-07-22T15:00:16Z</time>
      </trkpt>
      <trkpt lat="44.58711" lon="0.89376">
        <ele>210.4</ele>
        <time>2018-07-22T15:00:18Z</time>
      </trkpt>
      <trkpt lat="44.58712" lon="0.8938">
        <ele>210.6</ele>
        <time>2018-07-22T15:00:20Z</time>
      </trkpt>
      <trkpt lat="44.58713" lon="0.89384">
        <ele>210.9</ele>
        <time>2018-07-22T15:00:22Z</time>
      </trkpt>
      <trkpt lat="44.58713" lon="0.89388">
        <ele>211.2</ele>
        <time>2018-07-22T15:00:24Z</time>
      </trkpt>
      <trkpt lat="44.58714" lon="0.89394">
        <ele>211.9</ele>
        <time>2018-07-22T15:00:26Z</time>
      </trkpt>
      <trkpt lat="44.58715" lon="0.89399">
        <ele>212.2</ele>
        <time>2018-07-22T15:00:28Z</time>
      </trkpt>
      <trkpt lat="44.58716" lon="0.89406">
        <ele>212.6</ele>
        <time>2018-07-22T15:00:30Z</time>
      </trkpt>
      <trkpt lat="44.58715" lon="0.89412">
        <ele>212.8</ele>
        <time>2018-07-22T15:00:32Z</time>
      </trkpt>
      <trkpt lat="44.58715" lon="0.89418">
        <ele>213</ele>
        <time>2018-07-22T15:00:34Z</time>
      </trkpt>
      <trkpt lat="44.58714" lon="0.89425">
        <ele>213.4</ele>
        <time>2018-07-22T15:00:36Z</time>
      </trkpt>
      <trkpt lat="44.58714" lon="0.89431">
        <ele>213.6</ele>
        <time>2018-07-22T15:00:38Z</time>
      </trkpt>
      <trkpt lat="44.58714" lon="0.89437">
        <ele>213.7</ele>
        <time>2018-07-22T15:00:40Z</time>
      </trkpt>
      <trkpt lat="44.58714" lon="0.89446">
        <ele>213.9</ele>
        <time>2018-07-22T15:00:42Z</time>
      </trkpt>
      <trkpt lat="44.58714" lon="0.89452">
        <ele>213.9</ele>
        <time>2018-07-22T15:00:43Z</time>
      </trkpt>
      <trkpt lat="44.58714" lon="0.89458">
        <ele>214.1</ele>
        <time>2018-07-22T15:00:44Z</time>
      </trkpt>
      <trkpt lat="44.58714" lon="0.89464">
        <ele>214.2</ele>
        <time>2018-07-22T15:00:45Z</time>
      </trkpt>
      <trkpt lat="44.58714" lon="0.8947">
        <ele>214.3</ele>
        <time>2018-07-22T15:00:46Z</time>
      </trkpt>
      <trkpt lat="44.58713" lon="0.89475">
        <ele>214.3</ele>
        <time>2018-07-22T15:00:47Z</time>
      </trkpt>
      <trkpt lat="44.58713" lon="0.8948">
        <ele>214.4</ele>
        <time>2018-07-22T15:00:48Z</time>
      </trkpt>
      <trkpt lat="44.58713" lon="0.89484">
        <ele>214.5</ele>
        <time>2018-07-22T15:00:49Z</time>
      </trkpt>
      <trkpt lat="44.58714" lon="0.89488">
        <ele>214.7</ele>
        <time>2018-07-22T15:00:50Z</time>
      </trkpt>
      <trkpt lat="44.58715" lon="0.89493">
        <ele>214.8</ele>
        <time>2018-07-22T15:00:51Z</time>
      </trkpt>
      <trkpt lat="44.58717" lon="0.89497">
        <ele>215</ele>
        <time>2018-07-22T15:00:52Z</time>
      </trkpt>
      <trkpt lat="44.5872" lon="0.89504">
        <ele>215</ele>
        <time>2018-07-22T15:00:54Z</time>
      </trkpt>
      <trkpt lat="44.58722" lon="0.89508">
        <ele>215.2</ele>
        <time>2018-07-22T15:00:55Z</time>
      </trkpt>
      <trkpt lat="44.58724" lon="0.89513">
        <ele>215.4</ele>
        <time>2018-07-22T15:00:56Z</time>
      </trkpt>
      <trkpt lat="44.58726" lon="0.89516">
        <ele>215.5</ele>
        <time>2018-07-22T15:00:57Z</time>
      </trkpt>
      <trkpt lat="44.58729" lon="0.89521">
        <ele>215.5</ele>
        <time>2018-07-22T15:00:59Z</time>
      </trkpt>
      <trkpt lat="44.58731" lon="0.89527">
        <ele>215.6</ele>
        <time>2018-07-22T15:01:01Z</time>
      </trkpt>
      <trkpt lat="44.58733" lon="0.89534">
        <ele>215.7</ele>
        <time>2018-07-22T15:01:03Z</time>
      </trkpt>
      <trkpt lat="44.58735" lon="0.89537">
        <ele>215.7</ele>
        <time>2018-07-22T15:01:04Z</time>
      </trkpt>
      <trkpt lat="44.58737" lon="0.8954">
        <ele>215.8</ele>
        <time>2018-07-22T15:01:05Z</time>
      </trkpt>
      <trkpt lat="44.58739" lon="0.89543">
        <ele>215.8</ele>
        <time>2018-07-22T15:01:06Z</time>
      </trkpt>
      <trkpt lat="44.58742" lon="0.89548">
        <ele>215.9</ele>
        <time>2018-07-22T15:01:08Z</time>
      </trkpt>
      <trkpt lat="44.58744" lon="0.89552">
        <ele>216</ele>
        <time>2018-07-22T15:01:10Z</time>
      </trkpt>
      <trkpt lat="44.58747" lon="0.89556">
        <ele>216</ele>
        <time>2018-07-22T15:01:12Z</time>
      </trkpt>
      <trkpt lat="44.5875" lon="0.89561">
        <ele>216.1</ele>
        <time>2018-07-22T15:01:14Z</time>
      </trkpt>
      <trkpt lat="44.58753" lon="0.89566">
        <ele>216</ele>
        <time>2018-07-22T15:01:16Z</time>
      </trkpt>
      <trkpt lat="44.58756" lon="0.8957">
        <ele>216.1</ele>
        <time>2018-07-22T15:01:18Z</time>
      </trkpt>
      <trkpt lat="44.58758" lon="0.89575">
        <ele>216.2</ele>
        <time>2018-07-22T15:01:20Z</time>
      </trkpt>
      <trkpt lat="44.5876" lon="0.8958">
        <ele>216.2</ele>
        <time>2018-07-22T15:01:22Z</time>
      </trkpt>
      <trkpt lat="44.58762" lon="0.89584">
        <ele>216.1</ele>
        <time>2018-07-22T15:01:24Z</time>
      </trkpt>
      <trkpt lat="44.58765" lon="0.89587">
        <ele>216.2</ele>
        <time>2018-07-22T15:01:27Z</time>
      </trkpt>
      <trkpt lat="44.58768" lon="0.89589">
        <ele>216.3</ele>
        <time>2018-07-22T15:01:29Z</time>
      </trkpt>
      <trkpt lat="44.58772" lon="0.89592">
        <ele>216.5</ele>
        <time>2018-07-22T15:01:31Z</time>
      </trkpt>
      <trkpt lat="44.58776" lon="0.89595">
        <ele>216.7</ele>
        <time>2018-07-22T15:01:33Z</time>
      </trkpt>
      <trkpt lat="44.58779" lon="0.89598">
        <ele>216.9</ele>
        <time>2018-07-22T15:01:35Z</time>
      </trkpt>
      <trkpt lat="44.58783" lon="0.89601">
        <ele>217.1</ele>
        <time>2018-07-22T15:01:37Z</time>
      </trkpt>
      <trkpt lat="44.58787" lon="0.89605">
        <ele>217.3</ele>
        <time>2018-07-22T15:01:39Z</time>
      </trkpt>
      <trkpt lat="44.58791" lon="0.89607">
        <ele>217.8</ele>
        <time>2018-07-22T15:01:41Z</time>
      </trkpt>
      <trkpt lat="44.58794" lon="0.89609">
        <ele>218.1</ele>
        <time>2018-07-22T15:01:43Z</time>
      </trkpt>
      <trkpt lat="44.58797" lon="0.89612">
        <ele>218.4</ele>
        <time>2018-07-22T15:01:45Z</time>
      </trkpt>
      <trkpt lat="44.588" lon="0.89615">
        <ele>218.7</ele>
        <time>2018-07-22T15:01:47Z</time>
      </trkpt>
      <trkpt lat="44.58803" lon="0.89618">
        <ele>219</ele>
        <time>2018-07-22T15:01:49Z</time>
      </trkpt>
      <trkpt lat="44.58806" lon="0.89622">
        <ele>219.3</ele>
        <time>2018-07-22T15:01:51Z</time>
      </trkpt>
      <trkpt lat="44.58808" lon="0.89626">
        <ele>219.4</ele>
        <time>2018-07-22T15:01:53Z</time>
      </trkpt>
      <trkpt lat="44.5881" lon="0.89629">
        <ele>219.7</ele>
        <time>2018-07-22T15:01:55Z</time>
      </trkpt>
      <trkpt lat="44.58813" lon="0.89632">
        <ele>220</ele>
        <time>2018-07-22T15:01:59Z</time>
      </trkpt>
      <trkpt lat="44.58815" lon="0.89634">
        <ele>220.3</ele>
        <time>2018-07-22T15:02:07Z</time>
      </trkpt>
      <trkpt lat="44.58818" lon="0.89637">
        <ele>220.5</ele>
        <time>2018-07-22T15:02:24Z</time>
      </trkpt>
      <trkpt lat="44.5882" lon="0.89641">
        <ele>220.5</ele>
        <time>2018-07-22T15:02:26Z</time>
      </trkpt>
      <trkpt lat="44.58821" lon="0.89644">
        <ele>220.8</ele>
        <time>2018-07-22T15:02:32Z</time>
      </trkpt>
      <trkpt lat="44.58819" lon="0.89636">
        <ele>220.4</ele>
        <time>2018-07-22T15:04:43Z</time>
      </trkpt>
      <trkpt lat="44.58817" lon="0.8963">
        <ele>220.1</ele>
        <time>2018-07-22T15:04:47Z</time>
      </trkpt>
      <trkpt lat="44.58815" lon="0.89629">
        <ele>220</ele>
        <time>2018-07-22T15:04:49Z</time>
      </trkpt>
      <trkpt lat="44.58812" lon="0.89629">
        <ele>219.7</ele>
        <time>2018-07-22T15:04:51Z</time>
      </trkpt>
      <trkpt lat="44.58814" lon="0.89633">
        <ele>219.8</ele>
        <time>2018-07-22T15:05:01Z</time>
      </trkpt>
      <trkpt lat="44.58815" lon="0.89637">
        <ele>220.1</ele>
        <time>2018-07-22T15:05:05Z</time>
      </trkpt>
      <trkpt lat="44.58817" lon="0.89641">
        <ele>220.1</ele>
        <time>2018-07-22T15:05:15Z</time>
      </trkpt>
      <trkpt lat="44.5882" lon="0.89644">
        <ele>220.4</ele>
        <time>2018-07-22T15:05:19Z</time>
      </trkpt>
      <trkpt lat="44.58822" lon="0.89646">
        <ele>220.7</ele>
        <time>2018-07-22T15:05:22Z</time>
      </trkpt>
      <trkpt lat="44.58825" lon="0.89648">
        <ele>220.8</ele>
        <time>2018-07-22T15:05:24Z</time>
      </trkpt>
      <trkpt lat="44.5883" lon="0.89651">
        <ele>221</ele>
        <time>2018-07-22T15:05:26Z</time>
      </trkpt>
      <trkpt lat="44.58835" lon="0.89653">
        <ele>221.4</ele>
        <time>2018-07-22T15:05:28Z</time>
      </trkpt>
      <trkpt lat="44.58837" lon="0.89654">
        <ele>221.6</ele>
        <time>2018-07-22T15:05:29Z</time>
      </trkpt>
      <trkpt lat="44.58841" lon="0.89655">
        <ele>222</ele>
        <time>2018-07-22T15:05:30Z</time>
      </trkpt>
      <trkpt lat="44.58844" lon="0.89657">
        <ele>222.4</ele>
        <time>2018-07-22T15:05:31Z</time>
      </trkpt>
      <trkpt lat="44.58846" lon="0.89659">
        <ele>222.8</ele>
        <time>2018-07-22T15:05:32Z</time>
      </trkpt>
      <trkpt lat="44.58849" lon="0.89661">
        <ele>223</ele>
        <time>2018-07-22T15:05:33Z</time>
      </trkpt>
      <trkpt lat="44.58851" lon="0.89663">
        <ele>223.1</ele>
        <time>2018-07-22T15:05:34Z</time>
      </trkpt>
      <trkpt lat="44.58854" lon="0.89669">
        <ele>223.3</ele>
        <time>2018-07-22T15:05:36Z</time>
      </trkpt>
      <trkpt lat="44.58856" lon="0.89675">
        <ele>223.4</ele>
        <time>2018-07-22T15:05:38Z</time>
      </trkpt>
      <trkpt lat="44.58857" lon="0.8968">
        <ele>223.4</ele>
        <time>2018-07-22T15:05:39Z</time>
      </trkpt>
      <trkpt lat="44.58857" lon="0.89683">
        <ele>223.5</ele>
        <time>2018-07-22T15:05:40Z</time>
      </trkpt>
      <trkpt lat="44.58857" lon="0.89688">
        <ele>223.6</ele>
        <time>2018-07-22T15:05:41Z</time>
      </trkpt>
      <trkpt lat="44.58857" lon="0.89693">
        <ele>223.6</ele>
        <time>2018-07-22T15:05:42Z</time>
      </trkpt>
      <trkpt lat="44.58856" lon="0.89698">
        <ele>223.7</ele>
        <time>2018-07-22T15:05:43Z</time>
      </trkpt>
      <trkpt lat="44.58856" lon="0.89703">
        <ele>223.7</ele>
        <time>2018-07-22T15:05:44Z</time>
      </trkpt>
      <trkpt lat="44.58856" lon="0.89709">
        <ele>223.7</ele>
        <time>2018-07-22T15:05:45Z</time>
      </trkpt>
      <trkpt lat="44.58856" lon="0.89714">
        <ele>223.8</ele>
        <time>2018-07-22T15:05:46Z</time>
      </trkpt>
      <trkpt lat="44.58856" lon="0.89718">
        <ele>223.8</ele>
        <time>2018-07-22T15:05:47Z</time>
      </trkpt>
      <trkpt lat="44.58857" lon="0.89723">
        <ele>223.8</ele>
        <time>2018-07-22T15:05:48Z</time>
      </trkpt>
      <trkpt lat="44.58857" lon="0.89727">
        <ele>223.9</ele>
        <time>2018-07-22T15:05:49Z</time>
      </trkpt>
      <trkpt lat="44.58858" lon="0.89731">
        <ele>223.9</ele>
        <time>2018-07-22T15:05:50Z</time>
      </trkpt>
      <trkpt lat="44.58859" lon="0.89736">
        <ele>223.9</ele>
        <time>2018-07-22T15:05:52Z</time>
      </trkpt>
      <trkpt lat="44.5886" lon="0.8974">
        <ele>223.9</ele>
        <time>2018-07-22T15:05:53Z</time>
      </trkpt>
      <trkpt lat="44.58862" lon="0.89744">
        <ele>224</ele>
        <time>2018-07-22T15:05:54Z</time>
      </trkpt>
      <trkpt lat="44.58864" lon="0.89749">
        <ele>224</ele>
        <time>2018-07-22T15:05:55Z</time>
      </trkpt>
      <trkpt lat="44.58866" lon="0.89753">
        <ele>224</ele>
        <time>2018-07-22T15:05:56Z</time>
      </trkpt>
      <trkpt lat="44.58867" lon="0.89757">
        <ele>224</ele>
        <time>2018-07-22T15:05:57Z</time>
      </trkpt>
      <trkpt lat="44.58869" lon="0.89761">
        <ele>224.1</ele>
        <time>2018-07-22T15:05:58Z</time>
      </trkpt>
      <trkpt lat="44.58871" lon="0.89765">
        <ele>224.1</ele>
        <time>2018-07-22T15:05:59Z</time>
      </trkpt>
      <trkpt lat="44.58873" lon="0.89769">
        <ele>224.1</ele>
        <time>2018-07-22T15:06:00Z</time>
      </trkpt>
      <trkpt lat="44.58875" lon="0.89772">
        <ele>224.1</ele>
        <time>2018-07-22T15:06:01Z</time>
      </trkpt>
      <trkpt lat="44.58877" lon="0.89776">
        <ele>224.2</ele>
        <time>2018-07-22T15:06:02Z</time>
      </trkpt>
      <trkpt lat="44.58879" lon="0.8978">
        <ele>224.2</ele>
        <time>2018-07-22T15:06:03Z</time>
      </trkpt>
      <trkpt lat="44.58882" lon="0.89784">
        <ele>224.2</ele>
        <time>2018-07-22T15:06:04Z</time>
      </trkpt>
      <trkpt lat="44.58884" lon="0.89788">
        <ele>224.3</ele>
        <time>2018-07-22T15:06:05Z</time>
      </trkpt>
      <trkpt lat="44.58887" lon="0.89792">
        <ele>224.3</ele>
        <time>2018-07-22T15:06:06Z</time>
      </trkpt>
      <trkpt lat="44.58889" lon="0.89796">
        <ele>224.4</ele>
        <time>2018-07-22T15:06:07Z</time>
      </trkpt>
      <trkpt lat="44.58892" lon="0.898">
        <ele>224.4</ele>
        <time>2018-07-22T15:06:08Z</time>
      </trkpt>
      <trkpt lat="44.58895" lon="0.89804">
        <ele>224.5</ele>
        <time>2018-07-22T15:06:09Z</time>
      </trkpt>
      <trkpt lat="44.58897" lon="0.89808">
        <ele>224.5</ele>
        <time>2018-07-22T15:06:10Z</time>
      </trkpt>
      <trkpt lat="44.589" lon="0.89812">
        <ele>224.6</ele>
        <time>2018-07-22T15:06:11Z</time>
      </trkpt>
      <trkpt lat="44.58903" lon="0.89816">
        <ele>224.7</ele>
        <time>2018-07-22T15:06:12Z</time>
      </trkpt>
      <trkpt lat="44.58906" lon="0.8982">
        <ele>224.8</ele>
        <time>2018-07-22T15:06:13Z</time>
      </trkpt>
      <trkpt lat="44.58908" lon="0.89824">
        <ele>224.9</ele>
        <time>2018-07-22T15:06:14Z</time>
      </trkpt>
      <trkpt lat="44.58911" lon="0.89828">
        <ele>225.1</ele>
        <time>2018-07-22T15:06:15Z</time>
      </trkpt>
      <trkpt lat="44.58913" lon="0.89832">
        <ele>225.3</ele>
        <time>2018-07-22T15:06:16Z</time>
      </trkpt>
      <trkpt lat="44.58915" lon="0.89836">
        <ele>225.6</ele>
        <time>2018-07-22T15:06:17Z</time>
      </trkpt>
      <trkpt lat="44.58918" lon="0.8984">
        <ele>225.9</ele>
        <time>2018-07-22T15:06:18Z</time>
      </trkpt>
      <trkpt lat="44.5892" lon="0.89845">
        <ele>226.2</ele>
        <time>2018-07-22T15:06:19Z</time>
      </trkpt>
      <trkpt lat="44.58921" lon="0.8985">
        <ele>226.4</ele>
        <time>2018-07-22T15:06:20Z</time>
      </trkpt>
      <trkpt lat="44.58922" lon="0.89854">
        <ele>226.5</ele>
        <time>2018-07-22T15:06:21Z</time>
      </trkpt>
      <trkpt lat="44.58923" lon="0.8986">
        <ele>226.6</ele>
        <time>2018-07-22T15:06:22Z</time>
      </trkpt>
      <trkpt lat="44.58924" lon="0.89865">
        <ele>226.7</ele>
        <time>2018-07-22T15:06:23Z</time>
      </trkpt>
      <trkpt lat="44.58925" lon="0.89871">
        <ele>226.8</ele>
        <time>2018-07-22T15:06:24Z</time>
      </trkpt>
      <trkpt lat="44.58925" lon="0.89876">
        <ele>226.8</ele>
        <time>2018-07-22T15:06:25Z</time>
      </trkpt>
      <trkpt lat="44.58925" lon="0.89882">
        <ele>226.9</ele>
        <time>2018-07-22T15:06:26Z</time>
      </trkpt>
      <trkpt lat="44.58925" lon="0.89888">
        <ele>226.9</ele>
        <time>2018-07-22T15:06:27Z</time>
      </trkpt>
      <trkpt lat="44.58924" lon="0.89894">
        <ele>227</ele>
        <time>2018-07-22T15:06:28Z</time>
      </trkpt>
      <trkpt lat="44.58924" lon="0.89899">
        <ele>227.1</ele>
        <time>2018-07-22T15:06:29Z</time>
      </trkpt>
      <trkpt lat="44.58924" lon="0.89905">
        <ele>227.1</ele>
        <time>2018-07-22T15:06:30Z</time>
      </trkpt>
      <trkpt lat="44.58923" lon="0.89911">
        <ele>227.2</ele>
        <time>2018-07-22T15:06:31Z</time>
      </trkpt>
      <trkpt lat="44.58923" lon="0.89917">
        <ele>227.2</ele>
        <time>2018-07-22T15:06:32Z</time>
      </trkpt>
      <trkpt lat="44.58923" lon="0.89922">
        <ele>227.3</ele>
        <time>2018-07-22T15:06:33Z</time>
      </trkpt>
      <trkpt lat="44.58922" lon="0.89928">
        <ele>227.4</ele>
        <time>2018-07-22T15:06:34Z</time>
      </trkpt>
      <trkpt lat="44.58922" lon="0.89933">
        <ele>227.4</ele>
        <time>2018-07-22T15:06:35Z</time>
      </trkpt>
      <trkpt lat="44.58922" lon="0.89939">
        <ele>227.5</ele>
        <time>2018-07-22T15:06:36Z</time>
      </trkpt>
      <trkpt lat="44.58921" lon="0.89945">
        <ele>227.6</ele>
        <time>2018-07-22T15:06:37Z</time>
      </trkpt>
      <trkpt lat="44.58921" lon="0.89951">
        <ele>227.6</ele>
        <time>2018-07-22T15:06:38Z</time>
      </trkpt>
      <trkpt lat="44.58921" lon="0.89956">
        <ele>227.9</ele>
        <time>2018-07-22T15:06:39Z</time>
      </trkpt>
      <trkpt lat="44.5892" lon="0.89962">
        <ele>228.2</ele>
        <time>2018-07-22T15:06:40Z</time>
      </trkpt>
      <trkpt lat="44.58919" lon="0.89967">
        <ele>228.5</ele>
        <time>2018-07-22T15:06:41Z</time>
      </trkpt>
      <trkpt lat="44.58918" lon="0.89973">
        <ele>228.9</ele>
        <time>2018-07-22T15:06:42Z</time>
      </trkpt>
      <trkpt lat="44.58917" lon="0.89979">
        <ele>229.2</ele>
        <time>2018-07-22T15:06:43Z</time>
      </trkpt>
      <trkpt lat="44.58915" lon="0.89985">
        <ele>229.4</ele>
        <time>2018-07-22T15:06:44Z</time>
      </trkpt>
      <trkpt lat="44.58914" lon="0.89991">
        <ele>229.5</ele>
        <time>2018-07-22T15:06:45Z</time>
      </trkpt>
      <trkpt lat="44.58913" lon="0.89997">
        <ele>229.6</ele>
        <time>2018-07-22T15:06:46Z</time>
      </trkpt>
      <trkpt lat="44.58911" lon="0.90002">
        <ele>229.6</ele>
        <time>2018-07-22T15:06:47Z</time>
      </trkpt>
      <trkpt lat="44.5891" lon="0.90008">
        <ele>229.7</ele>
        <time>2018-07-22T15:06:48Z</time>
      </trkpt>
      <trkpt lat="44.58909" lon="0.90013">
        <ele>229.7</ele>
        <time>2018-07-22T15:06:49Z</time>
      </trkpt>
      <trkpt lat="44.58908" lon="0.90019">
        <ele>229.8</ele>
        <time>2018-07-22T15:06:50Z</time>
      </trkpt>
      <trkpt lat="44.58906" lon="0.90024">
        <ele>229.9</ele>
        <time>2018-07-22T15:06:51Z</time>
      </trkpt>
      <trkpt lat="44.58905" lon="0.9003">
        <ele>229.9</ele>
        <time>2018-07-22T15:06:52Z</time>
      </trkpt>
      <trkpt lat="44.58904" lon="0.90036">
        <ele>230</ele>
        <time>2018-07-22T15:06:53Z</time>
      </trkpt>
      <trkpt lat="44.58903" lon="0.90041">
        <ele>230</ele>
        <time>2018-07-22T15:06:54Z</time>
      </trkpt>
      <trkpt lat="44.58902" lon="0.90047">
        <ele>230.1</ele>
        <time>2018-07-22T15:06:55Z</time>
      </trkpt>
      <trkpt lat="44.58901" lon="0.90053">
        <ele>230.1</ele>
        <time>2018-07-22T15:06:56Z</time>
      </trkpt>
      <trkpt lat="44.589" lon="0.90059">
        <ele>230.2</ele>
        <time>2018-07-22T15:06:57Z</time>
      </trkpt>
      <trkpt lat="44.58899" lon="0.90066">
        <ele>230.3</ele>
        <time>2018-07-22T15:06:58Z</time>
      </trkpt>
      <trkpt lat="44.58899" lon="0.90071">
        <ele>230.3</ele>
        <time>2018-07-22T15:06:59Z</time>
      </trkpt>
      <trkpt lat="44.58898" lon="0.90078">
        <ele>230.4</ele>
        <time>2018-07-22T15:07:00Z</time>
      </trkpt>
      <trkpt lat="44.58898" lon="0.90084">
        <ele>230.5</ele>
        <time>2018-07-22T15:07:01Z</time>
      </trkpt>
      <trkpt lat="44.58899" lon="0.90091">
        <ele>230.6</ele>
        <time>2018-07-22T15:07:02Z</time>
      </trkpt>
      <trkpt lat="44.58899" lon="0.90097">
        <ele>230.7</ele>
        <time>2018-07-22T15:07:03Z</time>
      </trkpt>
      <trkpt lat="44.589" lon="0.90103">
        <ele>230.8</ele>
        <time>2018-07-22T15:07:04Z</time>
      </trkpt>
      <trkpt lat="44.589" lon="0.90109">
        <ele>230.9</ele>
        <time>2018-07-22T15:07:05Z</time>
      </trkpt>
      <trkpt lat="44.58901" lon="0.90116">
        <ele>231.2</ele>
        <time>2018-07-22T15:07:06Z</time>
      </trkpt>
      <trkpt lat="44.58902" lon="0.90121">
        <ele>231.5</ele>
        <time>2018-07-22T15:07:07Z</time>
      </trkpt>
      <trkpt lat="44.58904" lon="0.90127">
        <ele>231.8</ele>
        <time>2018-07-22T15:07:08Z</time>
      </trkpt>
      <trkpt lat="44.58905" lon="0.90132">
        <ele>232</ele>
        <time>2018-07-22T15:07:09Z</time>
      </trkpt>
      <trkpt lat="44.58907" lon="0.90138">
        <ele>232.1</ele>
        <time>2018-07-22T15:07:10Z</time>
      </trkpt>
      <trkpt lat="44.58909" lon="0.90144">
        <ele>232.3</ele>
        <time>2018-07-22T15:07:11Z</time>
      </trkpt>
      <trkpt lat="44.58911" lon="0.90148">
        <ele>232.3</ele>
        <time>2018-07-22T15:07:12Z</time>
      </trkpt>
      <trkpt lat="44.58912" lon="0.90153">
        <ele>232.4</ele>
        <time>2018-07-22T15:07:13Z</time>
      </trkpt>
      <trkpt lat="44.58914" lon="0.90158">
        <ele>232.5</ele>
        <time>2018-07-22T15:07:14Z</time>
      </trkpt>
      <trkpt lat="44.58916" lon="0.90163">
        <ele>232.5</ele>
        <time>2018-07-22T15:07:15Z</time>
      </trkpt>
      <trkpt lat="44.58918" lon="0.90168">
        <ele>232.6</ele>
        <time>2018-07-22T15:07:16Z</time>
      </trkpt>
      <trkpt lat="44.5892" lon="0.90173">
        <ele>232.6</ele>
        <time>2018-07-22T15:07:17Z</time>
      </trkpt>
      <trkpt lat="44.58921" lon="0.90178">
        <ele>232.7</ele>
        <time>2018-07-22T15:07:18Z</time>
      </trkpt>
      <trkpt lat="44.58923" lon="0.90183">
        <ele>232.7</ele>
        <time>2018-07-22T15:07:19Z</time>
      </trkpt>
      <trkpt lat="44.58924" lon="0.90189">
        <ele>232.7</ele>
        <time>2018-07-22T15:07:20Z</time>
      </trkpt>
      <trkpt lat="44.58924" lon="0.90195">
        <ele>232.8</ele>
        <time>2018-07-22T15:07:21Z</time>
      </trkpt>
      <trkpt lat="44.58926" lon="0.90202">
        <ele>232.8</ele>
        <time>2018-07-22T15:07:22Z</time>
      </trkpt>
      <trkpt lat="44.58926" lon="0.90208">
        <ele>232.9</ele>
        <time>2018-07-22T15:07:23Z</time>
      </trkpt>
      <trkpt lat="44.58926" lon="0.90214">
        <ele>232.9</ele>
        <time>2018-07-22T15:07:24Z</time>
      </trkpt>
      <trkpt lat="44.58926" lon="0.9022">
        <ele>232.9</ele>
        <time>2018-07-22T15:07:25Z</time>
      </trkpt>
      <trkpt lat="44.58926" lon="0.90227">
        <ele>233</ele>
        <time>2018-07-22T15:07:26Z</time>
      </trkpt>
      <trkpt lat="44.58926" lon="0.90234">
        <ele>233</ele>
        <time>2018-07-22T15:07:27Z</time>
      </trkpt>
      <trkpt lat="44.58925" lon="0.9024">
        <ele>233.1</ele>
        <time>2018-07-22T15:07:28Z</time>
      </trkpt>
      <trkpt lat="44.58925" lon="0.90247">
        <ele>233.1</ele>
        <time>2018-07-22T15:07:29Z</time>
      </trkpt>
      <trkpt lat="44.58924" lon="0.90253">
        <ele>233.2</ele>
        <time>2018-07-22T15:07:30Z</time>
      </trkpt>
      <trkpt lat="44.58923" lon="0.9026">
        <ele>233.3</ele>
        <time>2018-07-22T15:07:31Z</time>
      </trkpt>
      <trkpt lat="44.58923" lon="0.90266">
        <ele>233.4</ele>
        <time>2018-07-22T15:07:32Z</time>
      </trkpt>
      <trkpt lat="44.58923" lon="0.90272">
        <ele>233.5</ele>
        <time>2018-07-22T15:07:33Z</time>
      </trkpt>
      <trkpt lat="44.58923" lon="0.90278">
        <ele>233.6</ele>
        <time>2018-07-22T15:07:34Z</time>
      </trkpt>
      <trkpt lat="44.58924" lon="0.90284">
        <ele>233.8</ele>
        <time>2018-07-22T15:07:35Z</time>
      </trkpt>
      <trkpt lat="44.58924" lon="0.9029">
        <ele>234</ele>
        <time>2018-07-22T15:07:36Z</time>
      </trkpt>
      <trkpt lat="44.58926" lon="0.90295">
        <ele>234.3</ele>
        <time>2018-07-22T15:07:37Z</time>
      </trkpt>
      <trkpt lat="44.58928" lon="0.90299">
        <ele>234.6</ele>
        <time>2018-07-22T15:07:38Z</time>
      </trkpt>
      <trkpt lat="44.5893" lon="0.90304">
        <ele>234.9</ele>
        <time>2018-07-22T15:07:39Z</time>
      </trkpt>
      <trkpt lat="44.58933" lon="0.90309">
        <ele>235</ele>
        <time>2018-07-22T15:07:40Z</time>
      </trkpt>
      <trkpt lat="44.58936" lon="0.90314">
        <ele>235.1</ele>
        <time>2018-07-22T15:07:41Z</time>
      </trkpt>
      <trkpt lat="44.5894" lon="0.90317">
        <ele>235.2</ele>
        <time>2018-07-22T15:07:42Z</time>
      </trkpt>
      <trkpt lat="44.58943" lon="0.90323">
        <ele>235.3</ele>
        <time>2018-07-22T15:07:43Z</time>
      </trkpt>
      <trkpt lat="44.58947" lon="0.90325">
        <ele>235.3</ele>
        <time>2018-07-22T15:07:44Z</time>
      </trkpt>
      <trkpt lat="44.5895" lon="0.90328">
        <ele>235.3</ele>
        <time>2018-07-22T15:07:45Z</time>
      </trkpt>
      <trkpt lat="44.58954" lon="0.90331">
        <ele>235.3</ele>
        <time>2018-07-22T15:07:46Z</time>
      </trkpt>
      <trkpt lat="44.58957" lon="0.9034">
        <ele>235.4</ele>
        <time>2018-07-22T15:07:47Z</time>
      </trkpt>
      <trkpt lat="44.58962" lon="0.90347">
        <ele>235.4</ele>
        <time>2018-07-22T15:07:48Z</time>
      </trkpt>
      <trkpt lat="44.58966" lon="0.90352">
        <ele>235.3</ele>
        <time>2018-07-22T15:07:49Z</time>
      </trkpt>
      <trkpt lat="44.58971" lon="0.90356">
        <ele>235.3</ele>
        <time>2018-07-22T15:07:50Z</time>
      </trkpt>
      <trkpt lat="44.58975" lon="0.90361">
        <ele>235.2</ele>
        <time>2018-07-22T15:07:51Z</time>
      </trkpt>
      <trkpt lat="44.58976" lon="0.90366">
        <ele>235</ele>
        <time>2018-07-22T15:07:52Z</time>
      </trkpt>
      <trkpt lat="44.58977" lon="0.90371">
        <ele>234.9</ele>
        <time>2018-07-22T15:07:53Z</time>
      </trkpt>
      <trkpt lat="44.5898" lon="0.90373">
        <ele>234.7</ele>
        <time>2018-07-22T15:07:54Z</time>
      </trkpt>
      <trkpt lat="44.58984" lon="0.90375">
        <ele>234.5</ele>
        <time>2018-07-22T15:07:55Z</time>
      </trkpt>
      <trkpt lat="44.58988" lon="0.90377">
        <ele>234</ele>
        <time>2018-07-22T15:07:56Z</time>
      </trkpt>
      <trkpt lat="44.58994" lon="0.90378">
        <ele>233.9</ele>
        <time>2018-07-22T15:07:57Z</time>
      </trkpt>
      <trkpt lat="44.58997" lon="0.9038">
        <ele>233.9</ele>
        <time>2018-07-22T15:07:58Z</time>
      </trkpt>
      <trkpt lat="44.59001" lon="0.90382">
        <ele>233.9</ele>
        <time>2018-07-22T15:07:59Z</time>
      </trkpt>
      <trkpt lat="44.59004" lon="0.90387">
        <ele>233.9</ele>
        <time>2018-07-22T15:08:00Z</time>
      </trkpt>
      <trkpt lat="44.59008" lon="0.90393">
        <ele>233.9</ele>
        <time>2018-07-22T15:08:01Z</time>
      </trkpt>
      <trkpt lat="44.59011" lon="0.90398">
        <ele>233.8</ele>
        <time>2018-07-22T15:08:02Z</time>
      </trkpt>
      <trkpt lat="44.59014" lon="0.90405">
        <ele>233.7</ele>
        <time>2018-07-22T15:08:03Z</time>
      </trkpt>
      <trkpt lat="44.59017" lon="0.90413">
        <ele>233.5</ele>
        <time>2018-07-22T15:08:04Z</time>
      </trkpt>
      <trkpt lat="44.59021" lon="0.90421">
        <ele>233.4</ele>
        <time>2018-07-22T15:08:05Z</time>
      </trkpt>
      <trkpt lat="44.59024" lon="0.9043">
        <ele>233.2</ele>
        <time>2018-07-22T15:08:06Z</time>
      </trkpt>
      <trkpt lat="44.59028" lon="0.90441">
        <ele>233</ele>
        <time>2018-07-22T15:08:07Z</time>
      </trkpt>
      <trkpt lat="44.59031" lon="0.90449">
        <ele>232.9</ele>
        <time>2018-07-22T15:08:08Z</time>
      </trkpt>
      <trkpt lat="44.59034" lon="0.90458">
        <ele>232.7</ele>
        <time>2018-07-22T15:08:09Z</time>
      </trkpt>
      <trkpt lat="44.59038" lon="0.90466">
        <ele>232.5</ele>
        <time>2018-07-22T15:08:10Z</time>
      </trkpt>
      <trkpt lat="44.59042" lon="0.90475">
        <ele>232.3</ele>
        <time>2018-07-22T15:08:11Z</time>
      </trkpt>
      <trkpt lat="44.59045" lon="0.90484">
        <ele>232.1</ele>
        <time>2018-07-22T15:08:12Z</time>
      </trkpt>
      <trkpt lat="44.59049" lon="0.90495">
        <ele>231.8</ele>
        <time>2018-07-22T15:08:13Z</time>
      </trkpt>
      <trkpt lat="44.59051" lon="0.90505">
        <ele>231.4</ele>
        <time>2018-07-22T15:08:14Z</time>
      </trkpt>
      <trkpt lat="44.59052" lon="0.90515">
        <ele>231.1</ele>
        <time>2018-07-22T15:08:15Z</time>
      </trkpt>
      <trkpt lat="44.59053" lon="0.90526">
        <ele>230.7</ele>
        <time>2018-07-22T15:08:16Z</time>
      </trkpt>
      <trkpt lat="44.59053" lon="0.90537">
        <ele>230.4</ele>
        <time>2018-07-22T15:08:17Z</time>
      </trkpt>
      <trkpt lat="44.59054" lon="0.90549">
        <ele>229.9</ele>
        <time>2018-07-22T15:08:18Z</time>
      </trkpt>
      <trkpt lat="44.59053" lon="0.90557">
        <ele>229.5</ele>
        <time>2018-07-22T15:08:19Z</time>
      </trkpt>
      <trkpt lat="44.59054" lon="0.90571">
        <ele>228.8</ele>
        <time>2018-07-22T15:08:20Z</time>
      </trkpt>
      <trkpt lat="44.59057" lon="0.90582">
        <ele>227.9</ele>
        <time>2018-07-22T15:08:21Z</time>
      </trkpt>
      <trkpt lat="44.5906" lon="0.90592">
        <ele>227.1</ele>
        <time>2018-07-22T15:08:22Z</time>
      </trkpt>
      <trkpt lat="44.59064" lon="0.90609">
        <ele>225.7</ele>
        <time>2018-07-22T15:08:23Z</time>
      </trkpt>
      <trkpt lat="44.59067" lon="0.90622">
        <ele>224.5</ele>
        <time>2018-07-22T15:08:24Z</time>
      </trkpt>
      <trkpt lat="44.59068" lon="0.90634">
        <ele>223.3</ele>
        <time>2018-07-22T15:08:25Z</time>
      </trkpt>
      <trkpt lat="44.5907" lon="0.90646">
        <ele>222.3</ele>
        <time>2018-07-22T15:08:26Z</time>
      </trkpt>
      <trkpt lat="44.59072" lon="0.90659">
        <ele>221.6</ele>
        <time>2018-07-22T15:08:27Z</time>
      </trkpt>
      <trkpt lat="44.59067" lon="0.90668">
        <ele>221.1</ele>
        <time>2018-07-22T15:08:28Z</time>
      </trkpt>
      <trkpt lat="44.59061" lon="0.90679">
        <ele>220.5</ele>
        <time>2018-07-22T15:08:29Z</time>
      </trkpt>
      <trkpt lat="44.59057" lon="0.90691">
        <ele>219.9</ele>
        <time>2018-07-22T15:08:30Z</time>
      </trkpt>
      <trkpt lat="44.59052" lon="0.90703">
        <ele>219.2</ele>
        <time>2018-07-22T15:08:31Z</time>
      </trkpt>
      <trkpt lat="44.59048" lon="0.90714">
        <ele>218.6</ele>
        <time>2018-07-22T15:08:32Z</time>
      </trkpt>
      <trkpt lat="44.59043" lon="0.90725">
        <ele>217.4</ele>
        <time>2018-07-22T15:08:33Z</time>
      </trkpt>
      <trkpt lat="44.59041" lon="0.90737">
        <ele>216.3</ele>
        <time>2018-07-22T15:08:34Z</time>
      </trkpt>
      <trkpt lat="44.59038" lon="0.90747">
        <ele>215.5</ele>
        <time>2018-07-22T15:08:35Z</time>
      </trkpt>
      <trkpt lat="44.59028" lon="0.90762">
        <ele>213.9</ele>
        <time>2018-07-22T15:08:36Z</time>
      </trkpt>
      <trkpt lat="44.59023" lon="0.90774">
        <ele>213.2</ele>
        <time>2018-07-22T15:08:37Z</time>
      </trkpt>
      <trkpt lat="44.59015" lon="0.90785">
        <ele>212.3</ele>
        <time>2018-07-22T15:08:38Z</time>
      </trkpt>
      <trkpt lat="44.59014" lon="0.908">
        <ele>211</ele>
        <time>2018-07-22T15:08:39Z</time>
      </trkpt>
      <trkpt lat="44.59011" lon="0.90818">
        <ele>209.7</ele>
        <time>2018-07-22T15:08:40Z</time>
      </trkpt>
      <trkpt lat="44.59013" lon="0.90829">
        <ele>209.2</ele>
        <time>2018-07-22T15:08:41Z</time>
      </trkpt>
      <trkpt lat="44.59015" lon="0.90838">
        <ele>208.9</ele>
        <time>2018-07-22T15:08:42Z</time>
      </trkpt>
      <trkpt lat="44.59014" lon="0.90846">
        <ele>208.6</ele>
        <time>2018-07-22T15:08:43Z</time>
      </trkpt>
      <trkpt lat="44.59012" lon="0.90854">
        <ele>208.2</ele>
        <time>2018-07-22T15:08:44Z</time>
      </trkpt>
      <trkpt lat="44.59008" lon="0.90856">
        <ele>207.9</ele>
        <time>2018-07-22T15:08:45Z</time>
      </trkpt>
      <trkpt lat="44.59005" lon="0.90859">
        <ele>207.8</ele>
        <time>2018-07-22T15:08:47Z</time>
      </trkpt>
      <trkpt lat="44.59" lon="0.90861">
        <ele>207.5</ele>
        <time>2018-07-22T15:08:48Z</time>
      </trkpt>
      <trkpt lat="44.58998" lon="0.90864">
        <ele>207.4</ele>
        <time>2018-07-22T15:08:51Z</time>
      </trkpt>
      <trkpt lat="44.58994" lon="0.90865">
        <ele>207.2</ele>
        <time>2018-07-22T15:08:53Z</time>
      </trkpt>
      <trkpt lat="44.58989" lon="0.90867">
        <ele>207.1</ele>
        <time>2018-07-22T15:08:55Z</time>
      </trkpt>
      <trkpt lat="44.58986" lon="0.90869">
        <ele>207</ele>
        <time>2018-07-22T15:08:57Z</time>
      </trkpt>
      <trkpt lat="44.58982" lon="0.90872">
        <ele>206.8</ele>
        <time>2018-07-22T15:08:59Z</time>
      </trkpt>
      <trkpt lat="44.5898" lon="0.90874">
        <ele>206.8</ele>
        <time>2018-07-22T15:09:00Z</time>
      </trkpt>
      <trkpt lat="44.58976" lon="0.90878">
        <ele>206.8</ele>
        <time>2018-07-22T15:09:01Z</time>
      </trkpt>
      <trkpt lat="44.58973" lon="0.90882">
        <ele>206.8</ele>
        <time>2018-07-22T15:09:02Z</time>
      </trkpt>
      <trkpt lat="44.5897" lon="0.90885">
        <ele>206.9</ele>
        <time>2018-07-22T15:09:03Z</time>
      </trkpt>
      <trkpt lat="44.58967" lon="0.90888">
        <ele>207.1</ele>
        <time>2018-07-22T15:09:04Z</time>
      </trkpt>
      <trkpt lat="44.58964" lon="0.90892">
        <ele>207.2</ele>
        <time>2018-07-22T15:09:05Z</time>
      </trkpt>
      <trkpt lat="44.58962" lon="0.90895">
        <ele>207.5</ele>
        <time>2018-07-22T15:09:06Z</time>
      </trkpt>
      <trkpt lat="44.5896" lon="0.90898">
        <ele>207.6</ele>
        <time>2018-07-22T15:09:07Z</time>
      </trkpt>
      <trkpt lat="44.58956" lon="0.90903">
        <ele>208</ele>
        <time>2018-07-22T15:09:09Z</time>
      </trkpt>
      <trkpt lat="44.58952" lon="0.90906">
        <ele>208.3</ele>
        <time>2018-07-22T15:09:10Z</time>
      </trkpt>
      <trkpt lat="44.58947" lon="0.9091">
        <ele>208.8</ele>
        <time>2018-07-22T15:09:11Z</time>
      </trkpt>
      <trkpt lat="44.58941" lon="0.90914">
        <ele>209.2</ele>
        <time>2018-07-22T15:09:12Z</time>
      </trkpt>
      <trkpt lat="44.58936" lon="0.90917">
        <ele>209.6</ele>
        <time>2018-07-22T15:09:13Z</time>
      </trkpt>
      <trkpt lat="44.58931" lon="0.9092">
        <ele>209.6</ele>
        <time>2018-07-22T15:09:14Z</time>
      </trkpt>
      <trkpt lat="44.58926" lon="0.90923">
        <ele>210</ele>
        <time>2018-07-22T15:09:15Z</time>
      </trkpt>
      <trkpt lat="44.58922" lon="0.90925">
        <ele>210.3</ele>
        <time>2018-07-22T15:09:16Z</time>
      </trkpt>
      <trkpt lat="44.58919" lon="0.90928">
        <ele>210.3</ele>
        <time>2018-07-22T15:09:17Z</time>
      </trkpt>
      <trkpt lat="44.58916" lon="0.9093">
        <ele>210.5</ele>
        <time>2018-07-22T15:09:18Z</time>
      </trkpt>
      <trkpt lat="44.58913" lon="0.90933">
        <ele>210.5</ele>
        <time>2018-07-22T15:09:19Z</time>
      </trkpt>
      <trkpt lat="44.58911" lon="0.90936">
        <ele>210.7</ele>
        <time>2018-07-22T15:09:20Z</time>
      </trkpt>
      <trkpt lat="44.58908" lon="0.9094">
        <ele>210.9</ele>
        <time>2018-07-22T15:09:21Z</time>
      </trkpt>
      <trkpt lat="44.58905" lon="0.90944">
        <ele>211.1</ele>
        <time>2018-07-22T15:09:22Z</time>
      </trkpt>
      <trkpt lat="44.58903" lon="0.90947">
        <ele>211.4</ele>
        <time>2018-07-22T15:09:23Z</time>
      </trkpt>
      <trkpt lat="44.58901" lon="0.90951">
        <ele>211.6</ele>
        <time>2018-07-22T15:09:24Z</time>
      </trkpt>
      <trkpt lat="44.58899" lon="0.90955">
        <ele>211.8</ele>
        <time>2018-07-22T15:09:25Z</time>
      </trkpt>
      <trkpt lat="44.58897" lon="0.9096">
        <ele>212</ele>
        <time>2018-07-22T15:09:26Z</time>
      </trkpt>
      <trkpt lat="44.58896" lon="0.90964">
        <ele>212.2</ele>
        <time>2018-07-22T15:09:27Z</time>
      </trkpt>
      <trkpt lat="44.58894" lon="0.90969">
        <ele>212.4</ele>
        <time>2018-07-22T15:09:28Z</time>
      </trkpt>
      <trkpt lat="44.58893" lon="0.90974">
        <ele>212.6</ele>
        <time>2018-07-22T15:09:29Z</time>
      </trkpt>
      <trkpt lat="44.5889" lon="0.90979">
        <ele>212.7</ele>
        <time>2018-07-22T15:09:30Z</time>
      </trkpt>
      <trkpt lat="44.58888" lon="0.90982">
        <ele>212.9</ele>
        <time>2018-07-22T15:09:31Z</time>
      </trkpt>
      <trkpt lat="44.58885" lon="0.90986">
        <ele>213.1</ele>
        <time>2018-07-22T15:09:32Z</time>
      </trkpt>
      <trkpt lat="44.58883" lon="0.9099">
        <ele>213.3</ele>
        <time>2018-07-22T15:09:33Z</time>
      </trkpt>
      <trkpt lat="44.58881" lon="0.90994">
        <ele>213.5</ele>
        <time>2018-07-22T15:09:34Z</time>
      </trkpt>
      <trkpt lat="44.5888" lon="0.90998">
        <ele>213.8</ele>
        <time>2018-07-22T15:09:35Z</time>
      </trkpt>
      <trkpt lat="44.58877" lon="0.91004">
        <ele>214</ele>
        <time>2018-07-22T15:09:37Z</time>
      </trkpt>
      <trkpt lat="44.58875" lon="0.91008">
        <ele>214.2</ele>
        <time>2018-07-22T15:09:38Z</time>
      </trkpt>
      <trkpt lat="44.58873" lon="0.91012">
        <ele>214.5</ele>
        <time>2018-07-22T15:09:39Z</time>
      </trkpt>
      <trkpt lat="44.58872" lon="0.91016">
        <ele>214.7</ele>
        <time>2018-07-22T15:09:40Z</time>
      </trkpt>
      <trkpt lat="44.58871" lon="0.9102">
        <ele>214.9</ele>
        <time>2018-07-22T15:09:41Z</time>
      </trkpt>
      <trkpt lat="44.58869" lon="0.91027">
        <ele>215.2</ele>
        <time>2018-07-22T15:09:43Z</time>
      </trkpt>
      <trkpt lat="44.58868" lon="0.91031">
        <ele>215.4</ele>
        <time>2018-07-22T15:09:44Z</time>
      </trkpt>
      <trkpt lat="44.58867" lon="0.91034">
        <ele>215.7</ele>
        <time>2018-07-22T15:09:45Z</time>
      </trkpt>
      <trkpt lat="44.58865" lon="0.91041">
        <ele>216.3</ele>
        <time>2018-07-22T15:09:47Z</time>
      </trkpt>
      <trkpt lat="44.58864" lon="0.91045">
        <ele>216.6</ele>
        <time>2018-07-22T15:09:48Z</time>
      </trkpt>
      <trkpt lat="44.58863" lon="0.91049">
        <ele>216.6</ele>
        <time>2018-07-22T15:09:49Z</time>
      </trkpt>
      <trkpt lat="44.58861" lon="0.91056">
        <ele>217.3</ele>
        <time>2018-07-22T15:09:51Z</time>
      </trkpt>
      <trkpt lat="44.5886" lon="0.91061">
        <ele>217.6</ele>
        <time>2018-07-22T15:09:52Z</time>
      </trkpt>
      <trkpt lat="44.58859" lon="0.91064">
        <ele>217.9</ele>
        <time>2018-07-22T15:09:53Z</time>
      </trkpt>
      <trkpt lat="44.58857" lon="0.91068">
        <ele>218.2</ele>
        <time>2018-07-22T15:09:54Z</time>
      </trkpt>
      <trkpt lat="44.58856" lon="0.91072">
        <ele>218.4</ele>
        <time>2018-07-22T15:09:55Z</time>
      </trkpt>
      <trkpt lat="44.58854" lon="0.91076">
        <ele>218.7</ele>
        <time>2018-07-22T15:09:56Z</time>
      </trkpt>
      <trkpt lat="44.58853" lon="0.9108">
        <ele>219</ele>
        <time>2018-07-22T15:09:57Z</time>
      </trkpt>
      <trkpt lat="44.58851" lon="0.91083">
        <ele>218.9</ele>
        <time>2018-07-22T15:09:58Z</time>
      </trkpt>
      <trkpt lat="44.58849" lon="0.91086">
        <ele>219.2</ele>
        <time>2018-07-22T15:09:59Z</time>
      </trkpt>
      <trkpt lat="44.58848" lon="0.9109">
        <ele>219.5</ele>
        <time>2018-07-22T15:10:00Z</time>
      </trkpt>
      <trkpt lat="44.58845" lon="0.91096">
        <ele>219.8</ele>
        <time>2018-07-22T15:10:02Z</time>
      </trkpt>
      <trkpt lat="44.58843" lon="0.91099">
        <ele>220.1</ele>
        <time>2018-07-22T15:10:03Z</time>
      </trkpt>
      <trkpt lat="44.5884" lon="0.91106">
        <ele>220.7</ele>
        <time>2018-07-22T15:10:05Z</time>
      </trkpt>
      <trkpt lat="44.58838" lon="0.9111">
        <ele>221.1</ele>
        <time>2018-07-22T15:10:06Z</time>
      </trkpt>
      <trkpt lat="44.58836" lon="0.91114">
        <ele>221.4</ele>
        <time>2018-07-22T15:10:07Z</time>
      </trkpt>
      <trkpt lat="44.58835" lon="0.91117">
        <ele>221.5</ele>
        <time>2018-07-22T15:10:08Z</time>
      </trkpt>
      <trkpt lat="44.58834" lon="0.9112">
        <ele>221.8</ele>
        <time>2018-07-22T15:10:09Z</time>
      </trkpt>
      <trkpt lat="44.58833" lon="0.91124">
        <ele>222.1</ele>
        <time>2018-07-22T15:10:12Z</time>
      </trkpt>
      <trkpt lat="44.58832" lon="0.91131">
        <ele>222.7</ele>
        <time>2018-07-22T15:10:15Z</time>
      </trkpt>
      <trkpt lat="44.58832" lon="0.91136">
        <ele>222.9</ele>
        <time>2018-07-22T15:10:16Z</time>
      </trkpt>
      <trkpt lat="44.58832" lon="0.91142">
        <ele>223.1</ele>
        <time>2018-07-22T15:10:17Z</time>
      </trkpt>
      <trkpt lat="44.58832" lon="0.91147">
        <ele>223.3</ele>
        <time>2018-07-22T15:10:18Z</time>
      </trkpt>
      <trkpt lat="44.58832" lon="0.91152">
        <ele>223.7</ele>
        <time>2018-07-22T15:10:19Z</time>
      </trkpt>
      <trkpt lat="44.58832" lon="0.91158">
        <ele>223.8</ele>
        <time>2018-07-22T15:10:20Z</time>
      </trkpt>
      <trkpt lat="44.58831" lon="0.91163">
        <ele>224</ele>
        <time>2018-07-22T15:10:21Z</time>
      </trkpt>
      <trkpt lat="44.58831" lon="0.91168">
        <ele>224.2</ele>
        <time>2018-07-22T15:10:22Z</time>
      </trkpt>
      <trkpt lat="44.5883" lon="0.91173">
        <ele>224.3</ele>
        <time>2018-07-22T15:10:23Z</time>
      </trkpt>
      <trkpt lat="44.58829" lon="0.91177">
        <ele>224.3</ele>
        <time>2018-07-22T15:10:24Z</time>
      </trkpt>
      <trkpt lat="44.58829" lon="0.91182">
        <ele>224.5</ele>
        <time>2018-07-22T15:10:25Z</time>
      </trkpt>
      <trkpt lat="44.58828" lon="0.91187">
        <ele>224.7</ele>
        <time>2018-07-22T15:10:26Z</time>
      </trkpt>
      <trkpt lat="44.58827" lon="0.91191">
        <ele>225.1</ele>
        <time>2018-07-22T15:10:27Z</time>
      </trkpt>
      <trkpt lat="44.58825" lon="0.91196">
        <ele>225.1</ele>
        <time>2018-07-22T15:10:28Z</time>
      </trkpt>
      <trkpt lat="44.58824" lon="0.912">
        <ele>225.3</ele>
        <time>2018-07-22T15:10:29Z</time>
      </trkpt>
      <trkpt lat="44.58822" lon="0.91205">
        <ele>225.3</ele>
        <time>2018-07-22T15:10:30Z</time>
      </trkpt>
      <trkpt lat="44.58821" lon="0.9121">
        <ele>225.5</ele>
        <time>2018-07-22T15:10:31Z</time>
      </trkpt>
      <trkpt lat="44.58819" lon="0.91215">
        <ele>225.6</ele>
        <time>2018-07-22T15:10:32Z</time>
      </trkpt>
      <trkpt lat="44.58817" lon="0.91219">
        <ele>225.6</ele>
        <time>2018-07-22T15:10:33Z</time>
      </trkpt>
      <trkpt lat="44.58815" lon="0.91223">
        <ele>225.8</ele>
        <time>2018-07-22T15:10:34Z</time>
      </trkpt>
      <trkpt lat="44.58813" lon="0.91225">
        <ele>225.8</ele>
        <time>2018-07-22T15:10:35Z</time>
      </trkpt>
      <trkpt lat="44.5881" lon="0.9123">
        <ele>225.9</ele>
        <time>2018-07-22T15:10:37Z</time>
      </trkpt>
      <trkpt lat="44.58808" lon="0.91233">
        <ele>225.8</ele>
        <time>2018-07-22T15:10:38Z</time>
      </trkpt>
      <trkpt lat="44.58806" lon="0.91236">
        <ele>225.9</ele>
        <time>2018-07-22T15:10:39Z</time>
      </trkpt>
      <trkpt lat="44.58805" lon="0.91239">
        <ele>225.9</ele>
        <time>2018-07-22T15:10:40Z</time>
      </trkpt>
      <trkpt lat="44.58802" lon="0.91246">
        <ele>226</ele>
        <time>2018-07-22T15:10:42Z</time>
      </trkpt>
      <trkpt lat="44.58801" lon="0.91249">
        <ele>226.1</ele>
        <time>2018-07-22T15:10:43Z</time>
      </trkpt>
      <trkpt lat="44.58799" lon="0.91253">
        <ele>226.3</ele>
        <time>2018-07-22T15:10:44Z</time>
      </trkpt>
      <trkpt lat="44.58798" lon="0.91258">
        <ele>226.4</ele>
        <time>2018-07-22T15:10:45Z</time>
      </trkpt>
      <trkpt lat="44.58798" lon="0.91263">
        <ele>226.5</ele>
        <time>2018-07-22T15:10:46Z</time>
      </trkpt>
      <trkpt lat="44.58797" lon="0.91268">
        <ele>226.7</ele>
        <time>2018-07-22T15:10:47Z</time>
      </trkpt>
      <trkpt lat="44.58796" lon="0.91272">
        <ele>226.8</ele>
        <time>2018-07-22T15:10:48Z</time>
      </trkpt>
      <trkpt lat="44.58794" lon="0.91275">
        <ele>227</ele>
        <time>2018-07-22T15:10:49Z</time>
      </trkpt>
      <trkpt lat="44.58793" lon="0.91279">
        <ele>227.1</ele>
        <time>2018-07-22T15:10:50Z</time>
      </trkpt>
      <trkpt lat="44.58791" lon="0.91282">
        <ele>227.3</ele>
        <time>2018-07-22T15:10:51Z</time>
      </trkpt>
      <trkpt lat="44.58789" lon="0.91285">
        <ele>227.3</ele>
        <time>2018-07-22T15:10:52Z</time>
      </trkpt>
      <trkpt lat="44.58787" lon="0.91288">
        <ele>227.5</ele>
        <time>2018-07-22T15:10:53Z</time>
      </trkpt>
      <trkpt lat="44.58785" lon="0.91291">
        <ele>227.7</ele>
        <time>2018-07-22T15:10:54Z</time>
      </trkpt>
      <trkpt lat="44.58783" lon="0.91294">
        <ele>227.9</ele>
        <time>2018-07-22T15:10:55Z</time>
      </trkpt>
      <trkpt lat="44.58781" lon="0.91296">
        <ele>227.9</ele>
        <time>2018-07-22T15:10:56Z</time>
      </trkpt>
      <trkpt lat="44.58778" lon="0.91299">
        <ele>228.1</ele>
        <time>2018-07-22T15:10:57Z</time>
      </trkpt>
      <trkpt lat="44.58776" lon="0.91301">
        <ele>228.1</ele>
        <time>2018-07-22T15:10:58Z</time>
      </trkpt>
      <trkpt lat="44.58773" lon="0.91303">
        <ele>228.4</ele>
        <time>2018-07-22T15:10:59Z</time>
      </trkpt>
      <trkpt lat="44.58771" lon="0.91307">
        <ele>228.4</ele>
        <time>2018-07-22T15:11:00Z</time>
      </trkpt>
      <trkpt lat="44.58768" lon="0.91309">
        <ele>228.6</ele>
        <time>2018-07-22T15:11:01Z</time>
      </trkpt>
      <trkpt lat="44.58766" lon="0.91312">
        <ele>228.8</ele>
        <time>2018-07-22T15:11:02Z</time>
      </trkpt>
      <trkpt lat="44.58764" lon="0.91315">
        <ele>229</ele>
        <time>2018-07-22T15:11:03Z</time>
      </trkpt>
      <trkpt lat="44.58761" lon="0.91319">
        <ele>229</ele>
        <time>2018-07-22T15:11:04Z</time>
      </trkpt>
      <trkpt lat="44.58759" lon="0.91322">
        <ele>229.2</ele>
        <time>2018-07-22T15:11:05Z</time>
      </trkpt>
      <trkpt lat="44.58756" lon="0.91326">
        <ele>229.3</ele>
        <time>2018-07-22T15:11:06Z</time>
      </trkpt>
      <trkpt lat="44.58754" lon="0.9133">
        <ele>229.5</ele>
        <time>2018-07-22T15:11:07Z</time>
      </trkpt>
      <trkpt lat="44.58752" lon="0.91334">
        <ele>229.6</ele>
        <time>2018-07-22T15:11:08Z</time>
      </trkpt>
      <trkpt lat="44.58751" lon="0.91338">
        <ele>229.7</ele>
        <time>2018-07-22T15:11:09Z</time>
      </trkpt>
      <trkpt lat="44.58749" lon="0.91342">
        <ele>229.8</ele>
        <time>2018-07-22T15:11:10Z</time>
      </trkpt>
      <trkpt lat="44.58747" lon="0.91346">
        <ele>229.9</ele>
        <time>2018-07-22T15:11:11Z</time>
      </trkpt>
      <trkpt lat="44.58746" lon="0.91349">
        <ele>229.9</ele>
        <time>2018-07-22T15:11:12Z</time>
      </trkpt>
      <trkpt lat="44.58744" lon="0.91353">
        <ele>229.9</ele>
        <time>2018-07-22T15:11:13Z</time>
      </trkpt>
      <trkpt lat="44.58743" lon="0.91357">
        <ele>230</ele>
        <time>2018-07-22T15:11:14Z</time>
      </trkpt>
      <trkpt lat="44.58741" lon="0.91362">
        <ele>230.1</ele>
        <time>2018-07-22T15:11:15Z</time>
      </trkpt>
      <trkpt lat="44.58739" lon="0.91367">
        <ele>230.1</ele>
        <time>2018-07-22T15:11:16Z</time>
      </trkpt>
      <trkpt lat="44.58737" lon="0.91372">
        <ele>230.2</ele>
        <time>2018-07-22T15:11:17Z</time>
      </trkpt>
      <trkpt lat="44.58735" lon="0.91377">
        <ele>230.3</ele>
        <time>2018-07-22T15:11:18Z</time>
      </trkpt>
      <trkpt lat="44.58733" lon="0.91383">
        <ele>230.3</ele>
        <time>2018-07-22T15:11:19Z</time>
      </trkpt>
      <trkpt lat="44.58732" lon="0.91387">
        <ele>230.3</ele>
        <time>2018-07-22T15:11:20Z</time>
      </trkpt>
      <trkpt lat="44.58729" lon="0.9139">
        <ele>230.3</ele>
        <time>2018-07-22T15:11:21Z</time>
      </trkpt>
      <trkpt lat="44.58727" lon="0.91393">
        <ele>230.4</ele>
        <time>2018-07-22T15:11:22Z</time>
      </trkpt>
      <trkpt lat="44.58725" lon="0.91395">
        <ele>230.4</ele>
        <time>2018-07-22T15:11:23Z</time>
      </trkpt>
      <trkpt lat="44.58721" lon="0.91397">
        <ele>230.4</ele>
        <time>2018-07-22T15:11:25Z</time>
      </trkpt>
      <trkpt lat="44.58716" lon="0.91399">
        <ele>230.4</ele>
        <time>2018-07-22T15:11:27Z</time>
      </trkpt>
      <trkpt lat="44.58713" lon="0.91402">
        <ele>230.5</ele>
        <time>2018-07-22T15:11:28Z</time>
      </trkpt>
      <trkpt lat="44.58711" lon="0.91406">
        <ele>230.5</ele>
        <time>2018-07-22T15:11:29Z</time>
      </trkpt>
      <trkpt lat="44.58708" lon="0.91409">
        <ele>230.5</ele>
        <time>2018-07-22T15:11:30Z</time>
      </trkpt>
      <trkpt lat="44.58705" lon="0.91413">
        <ele>230.6</ele>
        <time>2018-07-22T15:11:31Z</time>
      </trkpt>
      <trkpt lat="44.58702" lon="0.91417">
        <ele>230.7</ele>
        <time>2018-07-22T15:11:32Z</time>
      </trkpt>
      <trkpt lat="44.58699" lon="0.91421">
        <ele>230.8</ele>
        <time>2018-07-22T15:11:33Z</time>
      </trkpt>
      <trkpt lat="44.58697" lon="0.91424">
        <ele>230.8</ele>
        <time>2018-07-22T15:11:34Z</time>
      </trkpt>
      <trkpt lat="44.58694" lon="0.91427">
        <ele>230.9</ele>
        <time>2018-07-22T15:11:35Z</time>
      </trkpt>
      <trkpt lat="44.58692" lon="0.9143">
        <ele>230.9</ele>
        <time>2018-07-22T15:11:36Z</time>
      </trkpt>
      <trkpt lat="44.58689" lon="0.91433">
        <ele>231</ele>
        <time>2018-07-22T15:11:37Z</time>
      </trkpt>
      <trkpt lat="44.58687" lon="0.91435">
        <ele>231</ele>
        <time>2018-07-22T15:11:38Z</time>
      </trkpt>
      <trkpt lat="44.58682" lon="0.91439">
        <ele>231.1</ele>
        <time>2018-07-22T15:11:40Z</time>
      </trkpt>
      <trkpt lat="44.58679" lon="0.91441">
        <ele>231.2</ele>
        <time>2018-07-22T15:11:41Z</time>
      </trkpt>
      <trkpt lat="44.58676" lon="0.91443">
        <ele>231.2</ele>
        <time>2018-07-22T15:11:42Z</time>
      </trkpt>
      <trkpt lat="44.58672" lon="0.91444">
        <ele>231.3</ele>
        <time>2018-07-22T15:11:43Z</time>
      </trkpt>
      <trkpt lat="44.5867" lon="0.91447">
        <ele>231.3</ele>
        <time>2018-07-22T15:11:44Z</time>
      </trkpt>
      <trkpt lat="44.58666" lon="0.91452">
        <ele>231.4</ele>
        <time>2018-07-22T15:11:46Z</time>
      </trkpt>
      <trkpt lat="44.58662" lon="0.91456">
        <ele>231.4</ele>
        <time>2018-07-22T15:11:48Z</time>
      </trkpt>
      <trkpt lat="44.58659" lon="0.91459">
        <ele>231.5</ele>
        <time>2018-07-22T15:11:49Z</time>
      </trkpt>
      <trkpt lat="44.58656" lon="0.91461">
        <ele>231.5</ele>
        <time>2018-07-22T15:11:50Z</time>
      </trkpt>
      <trkpt lat="44.58653" lon="0.91463">
        <ele>231.6</ele>
        <time>2018-07-22T15:11:51Z</time>
      </trkpt>
      <trkpt lat="44.58651" lon="0.91465">
        <ele>231.6</ele>
        <time>2018-07-22T15:11:52Z</time>
      </trkpt>
      <trkpt lat="44.58647" lon="0.9147">
        <ele>231.8</ele>
        <time>2018-07-22T15:11:54Z</time>
      </trkpt>
      <trkpt lat="44.58645" lon="0.91474">
        <ele>231.8</ele>
        <time>2018-07-22T15:11:55Z</time>
      </trkpt>
      <trkpt lat="44.58642" lon="0.91477">
        <ele>231.9</ele>
        <time>2018-07-22T15:11:56Z</time>
      </trkpt>
      <trkpt lat="44.5864" lon="0.91479">
        <ele>232</ele>
        <time>2018-07-22T15:11:57Z</time>
      </trkpt>
      <trkpt lat="44.58637" lon="0.91483">
        <ele>232.1</ele>
        <time>2018-07-22T15:11:59Z</time>
      </trkpt>
      <trkpt lat="44.58634" lon="0.91487">
        <ele>232.3</ele>
        <time>2018-07-22T15:12:01Z</time>
      </trkpt>
      <trkpt lat="44.5863" lon="0.91491">
        <ele>232.3</ele>
        <time>2018-07-22T15:12:03Z</time>
      </trkpt>
      <trkpt lat="44.58627" lon="0.91494">
        <ele>232.5</ele>
        <time>2018-07-22T15:12:05Z</time>
      </trkpt>
      <trkpt lat="44.58623" lon="0.91497">
        <ele>232.6</ele>
        <time>2018-07-22T15:12:07Z</time>
      </trkpt>
      <trkpt lat="44.5862" lon="0.91499">
        <ele>232.7</ele>
        <time>2018-07-22T15:12:09Z</time>
      </trkpt>
      <trkpt lat="44.58616" lon="0.91502">
        <ele>232.9</ele>
        <time>2018-07-22T15:12:11Z</time>
      </trkpt>
      <trkpt lat="44.58611" lon="0.91506">
        <ele>233.1</ele>
        <time>2018-07-22T15:12:13Z</time>
      </trkpt>
      <trkpt lat="44.58608" lon="0.91507">
        <ele>233.1</ele>
        <time>2018-07-22T15:12:14Z</time>
      </trkpt>
      <trkpt lat="44.58605" lon="0.91513">
        <ele>233.4</ele>
        <time>2018-07-22T15:12:16Z</time>
      </trkpt>
      <trkpt lat="44.58604" lon="0.91517">
        <ele>233.5</ele>
        <time>2018-07-22T15:12:17Z</time>
      </trkpt>
      <trkpt lat="44.58602" lon="0.91521">
        <ele>233.5</ele>
        <time>2018-07-22T15:12:18Z</time>
      </trkpt>
      <trkpt lat="44.58601" lon="0.91525">
        <ele>233.6</ele>
        <time>2018-07-22T15:12:19Z</time>
      </trkpt>
      <trkpt lat="44.586" lon="0.91529">
        <ele>233.8</ele>
        <time>2018-07-22T15:12:20Z</time>
      </trkpt>
      <trkpt lat="44.58598" lon="0.91534">
        <ele>233.9</ele>
        <time>2018-07-22T15:12:21Z</time>
      </trkpt>
      <trkpt lat="44.58596" lon="0.91539">
        <ele>234.1</ele>
        <time>2018-07-22T15:12:22Z</time>
      </trkpt>
      <trkpt lat="44.58594" lon="0.91544">
        <ele>234.2</ele>
        <time>2018-07-22T15:12:23Z</time>
      </trkpt>
      <trkpt lat="44.58591" lon="0.91549">
        <ele>234.3</ele>
        <time>2018-07-22T15:12:24Z</time>
      </trkpt>
      <trkpt lat="44.58589" lon="0.91553">
        <ele>234.3</ele>
        <time>2018-07-22T15:12:25Z</time>
      </trkpt>
      <trkpt lat="44.58586" lon="0.91559">
        <ele>234.4</ele>
        <time>2018-07-22T15:12:26Z</time>
      </trkpt>
      <trkpt lat="44.58583" lon="0.91566">
        <ele>234.4</ele>
        <time>2018-07-22T15:12:27Z</time>
      </trkpt>
      <trkpt lat="44.5858" lon="0.91573">
        <ele>234.4</ele>
        <time>2018-07-22T15:12:28Z</time>
      </trkpt>
      <trkpt lat="44.58578" lon="0.91579">
        <ele>234.3</ele>
        <time>2018-07-22T15:12:29Z</time>
      </trkpt>
      <trkpt lat="44.58576" lon="0.91585">
        <ele>234.2</ele>
        <time>2018-07-22T15:12:30Z</time>
      </trkpt>
      <trkpt lat="44.58572" lon="0.91591">
        <ele>234.2</ele>
        <time>2018-07-22T15:12:31Z</time>
      </trkpt>
      <trkpt lat="44.58568" lon="0.91597">
        <ele>234</ele>
        <time>2018-07-22T15:12:32Z</time>
      </trkpt>
      <trkpt lat="44.58556" lon="0.91607">
        <ele>232.9</ele>
        <time>2018-07-22T15:12:33Z</time>
      </trkpt>
      <trkpt lat="44.58551" lon="0.91613">
        <ele>232.1</ele>
        <time>2018-07-22T15:12:34Z</time>
      </trkpt>
      <trkpt lat="44.58547" lon="0.91619">
        <ele>231.8</ele>
        <time>2018-07-22T15:12:35Z</time>
      </trkpt>
      <trkpt lat="44.58544" lon="0.91629">
        <ele>231.6</ele>
        <time>2018-07-22T15:12:36Z</time>
      </trkpt>
      <trkpt lat="44.5854" lon="0.91639">
        <ele>231.4</ele>
        <time>2018-07-22T15:12:37Z</time>
      </trkpt>
      <trkpt lat="44.58537" lon="0.9165">
        <ele>231.1</ele>
        <time>2018-07-22T15:12:38Z</time>
      </trkpt>
      <trkpt lat="44.58529" lon="0.91662">
        <ele>230.3</ele>
        <time>2018-07-22T15:12:39Z</time>
      </trkpt>
      <trkpt lat="44.58525" lon="0.91678">
        <ele>229.9</ele>
        <time>2018-07-22T15:12:40Z</time>
      </trkpt>
      <trkpt lat="44.5852" lon="0.9169">
        <ele>229.4</ele>
        <time>2018-07-22T15:12:41Z</time>
      </trkpt>
      <trkpt lat="44.58513" lon="0.917">
        <ele>229</ele>
        <time>2018-07-22T15:12:42Z</time>
      </trkpt>
      <trkpt lat="44.58506" lon="0.91706">
        <ele>228.7</ele>
        <time>2018-07-22T15:12:43Z</time>
      </trkpt>
      <trkpt lat="44.58498" lon="0.9171">
        <ele>228.4</ele>
        <time>2018-07-22T15:12:44Z</time>
      </trkpt>
      <trkpt lat="44.58489" lon="0.91712">
        <ele>228.3</ele>
        <time>2018-07-22T15:12:45Z</time>
      </trkpt>
      <trkpt lat="44.58481" lon="0.9171">
        <ele>228.2</ele>
        <time>2018-07-22T15:12:46Z</time>
      </trkpt>
      <trkpt lat="44.58474" lon="0.91707">
        <ele>228.4</ele>
        <time>2018-07-22T15:12:47Z</time>
      </trkpt>
      <trkpt lat="44.58468" lon="0.91704">
        <ele>228.5</ele>
        <time>2018-07-22T15:12:48Z</time>
      </trkpt>
      <trkpt lat="44.58462" lon="0.91702">
        <ele>228.5</ele>
        <time>2018-07-22T15:12:49Z</time>
      </trkpt>
      <trkpt lat="44.58457" lon="0.917">
        <ele>228.6</ele>
        <time>2018-07-22T15:12:50Z</time>
      </trkpt>
      <trkpt lat="44.58453" lon="0.91697">
        <ele>228.6</ele>
        <time>2018-07-22T15:12:51Z</time>
      </trkpt>
      <trkpt lat="44.58448" lon="0.91695">
        <ele>228.7</ele>
        <time>2018-07-22T15:12:52Z</time>
      </trkpt>
      <trkpt lat="44.58443" lon="0.91695">
        <ele>228.7</ele>
        <time>2018-07-22T15:12:53Z</time>
      </trkpt>
      <trkpt lat="44.58439" lon="0.91693">
        <ele>228.7</ele>
        <time>2018-07-22T15:12:54Z</time>
      </trkpt>
      <trkpt lat="44.58435" lon="0.91692">
        <ele>228.7</ele>
        <time>2018-07-22T15:12:55Z</time>
      </trkpt>
      <trkpt lat="44.58432" lon="0.91691">
        <ele>228.7</ele>
        <time>2018-07-22T15:12:56Z</time>
      </trkpt>
      <trkpt lat="44.58427" lon="0.91689">
        <ele>228.7</ele>
        <time>2018-07-22T15:12:58Z</time>
      </trkpt>
      <trkpt lat="44.58423" lon="0.91688">
        <ele>228.7</ele>
        <time>2018-07-22T15:12:59Z</time>
      </trkpt>
      <trkpt lat="44.5842" lon="0.91687">
        <ele>228.8</ele>
        <time>2018-07-22T15:13:00Z</time>
      </trkpt>
      <trkpt lat="44.58415" lon="0.91688">
        <ele>228.9</ele>
        <time>2018-07-22T15:13:01Z</time>
      </trkpt>
      <trkpt lat="44.58411" lon="0.91689">
        <ele>229.1</ele>
        <time>2018-07-22T15:13:02Z</time>
      </trkpt>
      <trkpt lat="44.58407" lon="0.91691">
        <ele>229.3</ele>
        <time>2018-07-22T15:13:03Z</time>
      </trkpt>
      <trkpt lat="44.58403" lon="0.91693">
        <ele>229.4</ele>
        <time>2018-07-22T15:13:04Z</time>
      </trkpt>
      <trkpt lat="44.58399" lon="0.91695">
        <ele>229.6</ele>
        <time>2018-07-22T15:13:05Z</time>
      </trkpt>
      <trkpt lat="44.58396" lon="0.91698">
        <ele>230</ele>
        <time>2018-07-22T15:13:06Z</time>
      </trkpt>
      <trkpt lat="44.58392" lon="0.91701">
        <ele>230.2</ele>
        <time>2018-07-22T15:13:07Z</time>
      </trkpt>
      <trkpt lat="44.58388" lon="0.91703">
        <ele>230.4</ele>
        <time>2018-07-22T15:13:08Z</time>
      </trkpt>
      <trkpt lat="44.58385" lon="0.91706">
        <ele>230.6</ele>
        <time>2018-07-22T15:13:09Z</time>
      </trkpt>
      <trkpt lat="44.58381" lon="0.91709">
        <ele>230.8</ele>
        <time>2018-07-22T15:13:10Z</time>
      </trkpt>
      <trkpt lat="44.58378" lon="0.91711">
        <ele>230.9</ele>
        <time>2018-07-22T15:13:11Z</time>
      </trkpt>
      <trkpt lat="44.58374" lon="0.91714">
        <ele>231.2</ele>
        <time>2018-07-22T15:13:12Z</time>
      </trkpt>
      <trkpt lat="44.58371" lon="0.91717">
        <ele>231.3</ele>
        <time>2018-07-22T15:13:13Z</time>
      </trkpt>
      <trkpt lat="44.58367" lon="0.91719">
        <ele>231.5</ele>
        <time>2018-07-22T15:13:14Z</time>
      </trkpt>
      <trkpt lat="44.58364" lon="0.91721">
        <ele>231.6</ele>
        <time>2018-07-22T15:13:15Z</time>
      </trkpt>
      <trkpt lat="44.58361" lon="0.91723">
        <ele>231.7</ele>
        <time>2018-07-22T15:13:16Z</time>
      </trkpt>
      <trkpt lat="44.58357" lon="0.91726">
        <ele>231.9</ele>
        <time>2018-07-22T15:13:17Z</time>
      </trkpt>
      <trkpt lat="44.58354" lon="0.91728">
        <ele>232</ele>
        <time>2018-07-22T15:13:18Z</time>
      </trkpt>
      <trkpt lat="44.58351" lon="0.9173">
        <ele>232.2</ele>
        <time>2018-07-22T15:13:19Z</time>
      </trkpt>
      <trkpt lat="44.58349" lon="0.91732">
        <ele>232.3</ele>
        <time>2018-07-22T15:13:20Z</time>
      </trkpt>
      <trkpt lat="44.58346" lon="0.91735">
        <ele>232.5</ele>
        <time>2018-07-22T15:13:21Z</time>
      </trkpt>
      <trkpt lat="44.58344" lon="0.91737">
        <ele>232.5</ele>
        <time>2018-07-22T15:13:22Z</time>
      </trkpt>
      <trkpt lat="44.58342" lon="0.9174">
        <ele>232.6</ele>
        <time>2018-07-22T15:13:23Z</time>
      </trkpt>
      <trkpt lat="44.58339" lon="0.91742">
        <ele>232.8</ele>
        <time>2018-07-22T15:13:24Z</time>
      </trkpt>
      <trkpt lat="44.58337" lon="0.91744">
        <ele>233</ele>
        <time>2018-07-22T15:13:25Z</time>
      </trkpt>
      <trkpt lat="44.58333" lon="0.91749">
        <ele>233.3</ele>
        <time>2018-07-22T15:13:27Z</time>
      </trkpt>
      <trkpt lat="44.58331" lon="0.91752">
        <ele>233.5</ele>
        <time>2018-07-22T15:13:28Z</time>
      </trkpt>
      <trkpt lat="44.58329" lon="0.91754">
        <ele>233.5</ele>
        <time>2018-07-22T15:13:29Z</time>
      </trkpt>
      <trkpt lat="44.58327" lon="0.91757">
        <ele>233.7</ele>
        <time>2018-07-22T15:13:30Z</time>
      </trkpt>
      <trkpt lat="44.58324" lon="0.91759">
        <ele>233.9</ele>
        <time>2018-07-22T15:13:31Z</time>
      </trkpt>
      <trkpt lat="44.58322" lon="0.91762">
        <ele>234.1</ele>
        <time>2018-07-22T15:13:32Z</time>
      </trkpt>
      <trkpt lat="44.5832" lon="0.91765">
        <ele>234.1</ele>
        <time>2018-07-22T15:13:33Z</time>
      </trkpt>
      <trkpt lat="44.58317" lon="0.91768">
        <ele>234.3</ele>
        <time>2018-07-22T15:13:34Z</time>
      </trkpt>
      <trkpt lat="44.58315" lon="0.91771">
        <ele>234.5</ele>
        <time>2018-07-22T15:13:35Z</time>
      </trkpt>
      <trkpt lat="44.58312" lon="0.91774">
        <ele>234.6</ele>
        <time>2018-07-22T15:13:36Z</time>
      </trkpt>
      <trkpt lat="44.58309" lon="0.91777">
        <ele>234.7</ele>
        <time>2018-07-22T15:13:37Z</time>
      </trkpt>
      <trkpt lat="44.58307" lon="0.9178">
        <ele>234.7</ele>
        <time>2018-07-22T15:13:38Z</time>
      </trkpt>
      <trkpt lat="44.58306" lon="0.91784">
        <ele>234.6</ele>
        <time>2018-07-22T15:13:39Z</time>
      </trkpt>
      <trkpt lat="44.58306" lon="0.91789">
        <ele>234.6</ele>
        <time>2018-07-22T15:13:40Z</time>
      </trkpt>
      <trkpt lat="44.58307" lon="0.91794">
        <ele>234.5</ele>
        <time>2018-07-22T15:13:41Z</time>
      </trkpt>
      <trkpt lat="44.58309" lon="0.91799">
        <ele>234.4</ele>
        <time>2018-07-22T15:13:42Z</time>
      </trkpt>
      <trkpt lat="44.58312" lon="0.91803">
        <ele>234.4</ele>
        <time>2018-07-22T15:13:43Z</time>
      </trkpt>
      <trkpt lat="44.58315" lon="0.91806">
        <ele>234.3</ele>
        <time>2018-07-22T15:13:44Z</time>
      </trkpt>
      <trkpt lat="44.58318" lon="0.9181">
        <ele>234.2</ele>
        <time>2018-07-22T15:13:45Z</time>
      </trkpt>
      <trkpt lat="44.58322" lon="0.91813">
        <ele>234.1</ele>
        <time>2018-07-22T15:13:46Z</time>
      </trkpt>
      <trkpt lat="44.58325" lon="0.91816">
        <ele>233.9</ele>
        <time>2018-07-22T15:13:47Z</time>
      </trkpt>
      <trkpt lat="44.58328" lon="0.9182">
        <ele>233.8</ele>
        <time>2018-07-22T15:13:48Z</time>
      </trkpt>
      <trkpt lat="44.58331" lon="0.91823">
        <ele>233.6</ele>
        <time>2018-07-22T15:13:49Z</time>
      </trkpt>
      <trkpt lat="44.58334" lon="0.91827">
        <ele>233.5</ele>
        <time>2018-07-22T15:13:50Z</time>
      </trkpt>
      <trkpt lat="44.58337" lon="0.9183">
        <ele>233.5</ele>
        <time>2018-07-22T15:13:51Z</time>
      </trkpt>
      <trkpt lat="44.5834" lon="0.91835">
        <ele>233.4</ele>
        <time>2018-07-22T15:13:52Z</time>
      </trkpt>
      <trkpt lat="44.58342" lon="0.91839">
        <ele>233.3</ele>
        <time>2018-07-22T15:13:53Z</time>
      </trkpt>
      <trkpt lat="44.58345" lon="0.91843">
        <ele>233.2</ele>
        <time>2018-07-22T15:13:54Z</time>
      </trkpt>
      <trkpt lat="44.58347" lon="0.91847">
        <ele>233.3</ele>
        <time>2018-07-22T15:13:55Z</time>
      </trkpt>
      <trkpt lat="44.58349" lon="0.91852">
        <ele>233.3</ele>
        <time>2018-07-22T15:13:56Z</time>
      </trkpt>
      <trkpt lat="44.58351" lon="0.91857">
        <ele>233.4</ele>
        <time>2018-07-22T15:13:57Z</time>
      </trkpt>
      <trkpt lat="44.58352" lon="0.91862">
        <ele>233.5</ele>
        <time>2018-07-22T15:13:58Z</time>
      </trkpt>
      <trkpt lat="44.58354" lon="0.91867">
        <ele>233.5</ele>
        <time>2018-07-22T15:13:59Z</time>
      </trkpt>
      <trkpt lat="44.58356" lon="0.91873">
        <ele>233.6</ele>
        <time>2018-07-22T15:14:00Z</time>
      </trkpt>
      <trkpt lat="44.58357" lon="0.91878">
        <ele>233.6</ele>
        <time>2018-07-22T15:14:01Z</time>
      </trkpt>
      <trkpt lat="44.58358" lon="0.91883">
        <ele>233.6</ele>
        <time>2018-07-22T15:14:02Z</time>
      </trkpt>
      <trkpt lat="44.58359" lon="0.91889">
        <ele>233.6</ele>
        <time>2018-07-22T15:14:03Z</time>
      </trkpt>
      <trkpt lat="44.58361" lon="0.91895">
        <ele>233.6</ele>
        <time>2018-07-22T15:14:04Z</time>
      </trkpt>
      <trkpt lat="44.58362" lon="0.91901">
        <ele>233.6</ele>
        <time>2018-07-22T15:14:05Z</time>
      </trkpt>
      <trkpt lat="44.58363" lon="0.91907">
        <ele>233.5</ele>
        <time>2018-07-22T15:14:06Z</time>
      </trkpt>
      <trkpt lat="44.58364" lon="0.91913">
        <ele>233.5</ele>
        <time>2018-07-22T15:14:07Z</time>
      </trkpt>
      <trkpt lat="44.58366" lon="0.91918">
        <ele>233.5</ele>
        <time>2018-07-22T15:14:08Z</time>
      </trkpt>
      <trkpt lat="44.58367" lon="0.91926">
        <ele>233.6</ele>
        <time>2018-07-22T15:14:09Z</time>
      </trkpt>
      <trkpt lat="44.58369" lon="0.91932">
        <ele>233.6</ele>
        <time>2018-07-22T15:14:10Z</time>
      </trkpt>
      <trkpt lat="44.58371" lon="0.91939">
        <ele>233.7</ele>
        <time>2018-07-22T15:14:11Z</time>
      </trkpt>
      <trkpt lat="44.58373" lon="0.91944">
        <ele>233.7</ele>
        <time>2018-07-22T15:14:12Z</time>
      </trkpt>
      <trkpt lat="44.58376" lon="0.9195">
        <ele>233.8</ele>
        <time>2018-07-22T15:14:13Z</time>
      </trkpt>
      <trkpt lat="44.58379" lon="0.91956">
        <ele>233.9</ele>
        <time>2018-07-22T15:14:14Z</time>
      </trkpt>
      <trkpt lat="44.58382" lon="0.91962">
        <ele>234</ele>
        <time>2018-07-22T15:14:15Z</time>
      </trkpt>
      <trkpt lat="44.58385" lon="0.91967">
        <ele>234.1</ele>
        <time>2018-07-22T15:14:16Z</time>
      </trkpt>
      <trkpt lat="44.58389" lon="0.91973">
        <ele>234.3</ele>
        <time>2018-07-22T15:14:17Z</time>
      </trkpt>
      <trkpt lat="44.58393" lon="0.91978">
        <ele>234.4</ele>
        <time>2018-07-22T15:14:18Z</time>
      </trkpt>
      <trkpt lat="44.58397" lon="0.91982">
        <ele>234.5</ele>
        <time>2018-07-22T15:14:19Z</time>
      </trkpt>
      <trkpt lat="44.58401" lon="0.91987">
        <ele>234.6</ele>
        <time>2018-07-22T15:14:20Z</time>
      </trkpt>
      <trkpt lat="44.58406" lon="0.91992">
        <ele>234.6</ele>
        <time>2018-07-22T15:14:21Z</time>
      </trkpt>
      <trkpt lat="44.58411" lon="0.91995">
        <ele>234.7</ele>
        <time>2018-07-22T15:14:22Z</time>
      </trkpt>
      <trkpt lat="44.58415" lon="0.91999">
        <ele>234.7</ele>
        <time>2018-07-22T15:14:23Z</time>
      </trkpt>
      <trkpt lat="44.5842" lon="0.92003">
        <ele>234.7</ele>
        <time>2018-07-22T15:14:24Z</time>
      </trkpt>
      <trkpt lat="44.58425" lon="0.92006">
        <ele>234.7</ele>
        <time>2018-07-22T15:14:25Z</time>
      </trkpt>
      <trkpt lat="44.5843" lon="0.92009">
        <ele>234.7</ele>
        <time>2018-07-22T15:14:26Z</time>
      </trkpt>
      <trkpt lat="44.58435" lon="0.92012">
        <ele>234.7</ele>
        <time>2018-07-22T15:14:27Z</time>
      </trkpt>
      <trkpt lat="44.5844" lon="0.92016">
        <ele>234.7</ele>
        <time>2018-07-22T15:14:28Z</time>
      </trkpt>
      <trkpt lat="44.58445" lon="0.92018">
        <ele>234.8</ele>
        <time>2018-07-22T15:14:29Z</time>
      </trkpt>
      <trkpt lat="44.5845" lon="0.92021">
        <ele>234.8</ele>
        <time>2018-07-22T15:14:30Z</time>
      </trkpt>
      <trkpt lat="44.58455" lon="0.92023">
        <ele>234.9</ele>
        <time>2018-07-22T15:14:31Z</time>
      </trkpt>
      <trkpt lat="44.5846" lon="0.92026">
        <ele>235</ele>
        <time>2018-07-22T15:14:32Z</time>
      </trkpt>
      <trkpt lat="44.58465" lon="0.92028">
        <ele>235.1</ele>
        <time>2018-07-22T15:14:33Z</time>
      </trkpt>
      <trkpt lat="44.5847" lon="0.9203">
        <ele>235.2</ele>
        <time>2018-07-22T15:14:34Z</time>
      </trkpt>
      <trkpt lat="44.58474" lon="0.92033">
        <ele>235.3</ele>
        <time>2018-07-22T15:14:35Z</time>
      </trkpt>
      <trkpt lat="44.58479" lon="0.92036">
        <ele>235.4</ele>
        <time>2018-07-22T15:14:36Z</time>
      </trkpt>
      <trkpt lat="44.58483" lon="0.92039">
        <ele>235.6</ele>
        <time>2018-07-22T15:14:37Z</time>
      </trkpt>
      <trkpt lat="44.58488" lon="0.92041">
        <ele>235.7</ele>
        <time>2018-07-22T15:14:38Z</time>
      </trkpt>
      <trkpt lat="44.58493" lon="0.92044">
        <ele>235.9</ele>
        <time>2018-07-22T15:14:39Z</time>
      </trkpt>
      <trkpt lat="44.58498" lon="0.92046">
        <ele>236.1</ele>
        <time>2018-07-22T15:14:40Z</time>
      </trkpt>
      <trkpt lat="44.58503" lon="0.92048">
        <ele>236.3</ele>
        <time>2018-07-22T15:14:41Z</time>
      </trkpt>
      <trkpt lat="44.58508" lon="0.92051">
        <ele>236.5</ele>
        <time>2018-07-22T15:14:42Z</time>
      </trkpt>
      <trkpt lat="44.58513" lon="0.92054">
        <ele>236.7</ele>
        <time>2018-07-22T15:14:43Z</time>
      </trkpt>
      <trkpt lat="44.58517" lon="0.92057">
        <ele>236.9</ele>
        <time>2018-07-22T15:14:44Z</time>
      </trkpt>
      <trkpt lat="44.58522" lon="0.92061">
        <ele>237.2</ele>
        <time>2018-07-22T15:14:45Z</time>
      </trkpt>
      <trkpt lat="44.58526" lon="0.92065">
        <ele>237.4</ele>
        <time>2018-07-22T15:14:46Z</time>
      </trkpt>
      <trkpt lat="44.5853" lon="0.9207">
        <ele>237.5</ele>
        <time>2018-07-22T15:14:47Z</time>
      </trkpt>
      <trkpt lat="44.58534" lon="0.92075">
        <ele>237.7</ele>
        <time>2018-07-22T15:14:48Z</time>
      </trkpt>
      <trkpt lat="44.58538" lon="0.9208">
        <ele>237.9</ele>
        <time>2018-07-22T15:14:49Z</time>
      </trkpt>
      <trkpt lat="44.58541" lon="0.92085">
        <ele>238.1</ele>
        <time>2018-07-22T15:14:50Z</time>
      </trkpt>
      <trkpt lat="44.58544" lon="0.92091">
        <ele>238.3</ele>
        <time>2018-07-22T15:14:51Z</time>
      </trkpt>
      <trkpt lat="44.58547" lon="0.92097">
        <ele>238.4</ele>
        <time>2018-07-22T15:14:52Z</time>
      </trkpt>
      <trkpt lat="44.5855" lon="0.92103">
        <ele>238.6</ele>
        <time>2018-07-22T15:14:53Z</time>
      </trkpt>
      <trkpt lat="44.58554" lon="0.92108">
        <ele>238.7</ele>
        <time>2018-07-22T15:14:54Z</time>
      </trkpt>
      <trkpt lat="44.58558" lon="0.92115">
        <ele>238.9</ele>
        <time>2018-07-22T15:14:55Z</time>
      </trkpt>
      <trkpt lat="44.58561" lon="0.9212">
        <ele>239.1</ele>
        <time>2018-07-22T15:14:56Z</time>
      </trkpt>
      <trkpt lat="44.58565" lon="0.92126">
        <ele>239.3</ele>
        <time>2018-07-22T15:14:57Z</time>
      </trkpt>
      <trkpt lat="44.58569" lon="0.92132">
        <ele>239.6</ele>
        <time>2018-07-22T15:14:58Z</time>
      </trkpt>
      <trkpt lat="44.58572" lon="0.92138">
        <ele>239.8</ele>
        <time>2018-07-22T15:14:59Z</time>
      </trkpt>
      <trkpt lat="44.58576" lon="0.92144">
        <ele>240</ele>
        <time>2018-07-22T15:15:00Z</time>
      </trkpt>
      <trkpt lat="44.5858" lon="0.92151">
        <ele>240.3</ele>
        <time>2018-07-22T15:15:01Z</time>
      </trkpt>
      <trkpt lat="44.58583" lon="0.92157">
        <ele>240.5</ele>
        <time>2018-07-22T15:15:02Z</time>
      </trkpt>
      <trkpt lat="44.58586" lon="0.92164">
        <ele>240.8</ele>
        <time>2018-07-22T15:15:03Z</time>
      </trkpt>
      <trkpt lat="44.58588" lon="0.9217">
        <ele>241.1</ele>
        <time>2018-07-22T15:15:04Z</time>
      </trkpt>
      <trkpt lat="44.5859" lon="0.92177">
        <ele>241.3</ele>
        <time>2018-07-22T15:15:05Z</time>
      </trkpt>
      <trkpt lat="44.58592" lon="0.92185">
        <ele>241.7</ele>
        <time>2018-07-22T15:15:06Z</time>
      </trkpt>
      <trkpt lat="44.58595" lon="0.92193">
        <ele>242</ele>
        <time>2018-07-22T15:15:07Z</time>
      </trkpt>
      <trkpt lat="44.58597" lon="0.92201">
        <ele>242.4</ele>
        <time>2018-07-22T15:15:08Z</time>
      </trkpt>
      <trkpt lat="44.58599" lon="0.92209">
        <ele>242.8</ele>
        <time>2018-07-22T15:15:09Z</time>
      </trkpt>
      <trkpt lat="44.58602" lon="0.92217">
        <ele>243.2</ele>
        <time>2018-07-22T15:15:10Z</time>
      </trkpt>
      <trkpt lat="44.58604" lon="0.92225">
        <ele>243.5</ele>
        <time>2018-07-22T15:15:11Z</time>
      </trkpt>
      <trkpt lat="44.58606" lon="0.92233">
        <ele>243.7</ele>
        <time>2018-07-22T15:15:12Z</time>
      </trkpt>
      <trkpt lat="44.58608" lon="0.92241">
        <ele>244</ele>
        <time>2018-07-22T15:15:13Z</time>
      </trkpt>
      <trkpt lat="44.5861" lon="0.92249">
        <ele>244.2</ele>
        <time>2018-07-22T15:15:14Z</time>
      </trkpt>
      <trkpt lat="44.58612" lon="0.92257">
        <ele>244.5</ele>
        <time>2018-07-22T15:15:15Z</time>
      </trkpt>
      <trkpt lat="44.58614" lon="0.92265">
        <ele>244.7</ele>
        <time>2018-07-22T15:15:16Z</time>
      </trkpt>
      <trkpt lat="44.58616" lon="0.92273">
        <ele>244.8</ele>
        <time>2018-07-22T15:15:17Z</time>
      </trkpt>
      <trkpt lat="44.58618" lon="0.92281">
        <ele>245</ele>
        <time>2018-07-22T15:15:18Z</time>
      </trkpt>
      <trkpt lat="44.5862" lon="0.92288">
        <ele>245.1</ele>
        <time>2018-07-22T15:15:19Z</time>
      </trkpt>
      <trkpt lat="44.58622" lon="0.92295">
        <ele>245.3</ele>
        <time>2018-07-22T15:15:20Z</time>
      </trkpt>
      <trkpt lat="44.58624" lon="0.92304">
        <ele>245.5</ele>
        <time>2018-07-22T15:15:21Z</time>
      </trkpt>
      <trkpt lat="44.58626" lon="0.92311">
        <ele>245.7</ele>
        <time>2018-07-22T15:15:22Z</time>
      </trkpt>
      <trkpt lat="44.58628" lon="0.92319">
        <ele>245.8</ele>
        <time>2018-07-22T15:15:23Z</time>
      </trkpt>
      <trkpt lat="44.58629" lon="0.92327">
        <ele>245.9</ele>
        <time>2018-07-22T15:15:24Z</time>
      </trkpt>
      <trkpt lat="44.58631" lon="0.92335">
        <ele>246.1</ele>
        <time>2018-07-22T15:15:25Z</time>
      </trkpt>
      <trkpt lat="44.58633" lon="0.92343">
        <ele>246.2</ele>
        <time>2018-07-22T15:15:26Z</time>
      </trkpt>
      <trkpt lat="44.58634" lon="0.92351">
        <ele>246.2</ele>
        <time>2018-07-22T15:15:27Z</time>
      </trkpt>
      <trkpt lat="44.58636" lon="0.92358">
        <ele>246.2</ele>
        <time>2018-07-22T15:15:28Z</time>
      </trkpt>
      <trkpt lat="44.58638" lon="0.92364">
        <ele>246.2</ele>
        <time>2018-07-22T15:15:29Z</time>
      </trkpt>
      <trkpt lat="44.58639" lon="0.92367">
        <ele>246.1</ele>
        <time>2018-07-22T15:15:30Z</time>
      </trkpt>
      <trkpt lat="44.58642" lon="0.92377">
        <ele>245.9</ele>
        <time>2018-07-22T15:15:32Z</time>
      </trkpt>
      <trkpt lat="44.58642" lon="0.92383">
        <ele>245.8</ele>
        <time>2018-07-22T15:15:33Z</time>
      </trkpt>
      <trkpt lat="44.58644" lon="0.92391">
        <ele>245.7</ele>
        <time>2018-07-22T15:15:34Z</time>
      </trkpt>
      <trkpt lat="44.58646" lon="0.92398">
        <ele>245.6</ele>
        <time>2018-07-22T15:15:35Z</time>
      </trkpt>
      <trkpt lat="44.58647" lon="0.92405">
        <ele>245.4</ele>
        <time>2018-07-22T15:15:36Z</time>
      </trkpt>
      <trkpt lat="44.58649" lon="0.92415">
        <ele>245.2</ele>
        <time>2018-07-22T15:15:37Z</time>
      </trkpt>
      <trkpt lat="44.58649" lon="0.92424">
        <ele>245</ele>
        <time>2018-07-22T15:15:38Z</time>
      </trkpt>
      <trkpt lat="44.5865" lon="0.92434">
        <ele>244.8</ele>
        <time>2018-07-22T15:15:39Z</time>
      </trkpt>
      <trkpt lat="44.58653" lon="0.92441">
        <ele>244.6</ele>
        <time>2018-07-22T15:15:40Z</time>
      </trkpt>
      <trkpt lat="44.58654" lon="0.92449">
        <ele>244.5</ele>
        <time>2018-07-22T15:15:41Z</time>
      </trkpt>
      <trkpt lat="44.58656" lon="0.92457">
        <ele>244.3</ele>
        <time>2018-07-22T15:15:42Z</time>
      </trkpt>
      <trkpt lat="44.58658" lon="0.92462">
        <ele>244.2</ele>
        <time>2018-07-22T15:15:43Z</time>
      </trkpt>
      <trkpt lat="44.58661" lon="0.92466">
        <ele>244</ele>
        <time>2018-07-22T15:15:44Z</time>
      </trkpt>
      <trkpt lat="44.58665" lon="0.92466">
        <ele>243.8</ele>
        <time>2018-07-22T15:15:45Z</time>
      </trkpt>
      <trkpt lat="44.58669" lon="0.92466">
        <ele>243.6</ele>
        <time>2018-07-22T15:15:46Z</time>
      </trkpt>
      <trkpt lat="44.58673" lon="0.92465">
        <ele>243.4</ele>
        <time>2018-07-22T15:15:47Z</time>
      </trkpt>
      <trkpt lat="44.58678" lon="0.92465">
        <ele>243.4</ele>
        <time>2018-07-22T15:15:48Z</time>
      </trkpt>
      <trkpt lat="44.58684" lon="0.92464">
        <ele>243.4</ele>
        <time>2018-07-22T15:15:49Z</time>
      </trkpt>
      <trkpt lat="44.58689" lon="0.92463">
        <ele>243.5</ele>
        <time>2018-07-22T15:15:50Z</time>
      </trkpt>
      <trkpt lat="44.58694" lon="0.92462">
        <ele>243.5</ele>
        <time>2018-07-22T15:15:51Z</time>
      </trkpt>
      <trkpt lat="44.587" lon="0.92462">
        <ele>243.6</ele>
        <time>2018-07-22T15:15:52Z</time>
      </trkpt>
      <trkpt lat="44.58705" lon="0.9246">
        <ele>243.9</ele>
        <time>2018-07-22T15:15:53Z</time>
      </trkpt>
      <trkpt lat="44.5871" lon="0.9246">
        <ele>244</ele>
        <time>2018-07-22T15:15:54Z</time>
      </trkpt>
      <trkpt lat="44.58716" lon="0.92459">
        <ele>244.1</ele>
        <time>2018-07-22T15:15:55Z</time>
      </trkpt>
      <trkpt lat="44.58722" lon="0.92458">
        <ele>244.2</ele>
        <time>2018-07-22T15:15:56Z</time>
      </trkpt>
      <trkpt lat="44.58728" lon="0.92459">
        <ele>244.3</ele>
        <time>2018-07-22T15:15:57Z</time>
      </trkpt>
      <trkpt lat="44.58732" lon="0.92457">
        <ele>244.4</ele>
        <time>2018-07-22T15:15:58Z</time>
      </trkpt>
      <trkpt lat="44.58738" lon="0.92455">
        <ele>244.7</ele>
        <time>2018-07-22T15:15:59Z</time>
      </trkpt>
      <trkpt lat="44.58742" lon="0.92454">
        <ele>244.7</ele>
        <time>2018-07-22T15:16:00Z</time>
      </trkpt>
      <trkpt lat="44.58746" lon="0.92453">
        <ele>244.7</ele>
        <time>2018-07-22T15:16:01Z</time>
      </trkpt>
      <trkpt lat="44.58751" lon="0.92451">
        <ele>244.9</ele>
        <time>2018-07-22T15:16:02Z</time>
      </trkpt>
      <trkpt lat="44.58755" lon="0.92449">
        <ele>244.8</ele>
        <time>2018-07-22T15:16:03Z</time>
      </trkpt>
      <trkpt lat="44.5876" lon="0.92447">
        <ele>245</ele>
        <time>2018-07-22T15:16:04Z</time>
      </trkpt>
      <trkpt lat="44.58765" lon="0.92446">
        <ele>245</ele>
        <time>2018-07-22T15:16:05Z</time>
      </trkpt>
      <trkpt lat="44.58769" lon="0.92445">
        <ele>244.9</ele>
        <time>2018-07-22T15:16:06Z</time>
      </trkpt>
      <trkpt lat="44.58774" lon="0.92446">
        <ele>244.9</ele>
        <time>2018-07-22T15:16:07Z</time>
      </trkpt>
      <trkpt lat="44.58779" lon="0.92446">
        <ele>244.8</ele>
        <time>2018-07-22T15:16:08Z</time>
      </trkpt>
      <trkpt lat="44.58784" lon="0.92446">
        <ele>244.8</ele>
        <time>2018-07-22T15:16:09Z</time>
      </trkpt>
      <trkpt lat="44.58789" lon="0.92446">
        <ele>244.7</ele>
        <time>2018-07-22T15:16:10Z</time>
      </trkpt>
      <trkpt lat="44.58795" lon="0.92446">
        <ele>244.6</ele>
        <time>2018-07-22T15:16:11Z</time>
      </trkpt>
      <trkpt lat="44.588" lon="0.92445">
        <ele>244.5</ele>
        <time>2018-07-22T15:16:12Z</time>
      </trkpt>
      <trkpt lat="44.58805" lon="0.92444">
        <ele>244.5</ele>
        <time>2018-07-22T15:16:13Z</time>
      </trkpt>
      <trkpt lat="44.5881" lon="0.92443">
        <ele>244.5</ele>
        <time>2018-07-22T15:16:14Z</time>
      </trkpt>
      <trkpt lat="44.58815" lon="0.9244">
        <ele>244.4</ele>
        <time>2018-07-22T15:16:15Z</time>
      </trkpt>
      <trkpt lat="44.5882" lon="0.92439">
        <ele>244.4</ele>
        <time>2018-07-22T15:16:16Z</time>
      </trkpt>
      <trkpt lat="44.58823" lon="0.92437">
        <ele>244.4</ele>
        <time>2018-07-22T15:16:17Z</time>
      </trkpt>
      <trkpt lat="44.58828" lon="0.92436">
        <ele>244.2</ele>
        <time>2018-07-22T15:16:18Z</time>
      </trkpt>
      <trkpt lat="44.58833" lon="0.92435">
        <ele>244.1</ele>
        <time>2018-07-22T15:16:19Z</time>
      </trkpt>
      <trkpt lat="44.58837" lon="0.92433">
        <ele>244.1</ele>
        <time>2018-07-22T15:16:20Z</time>
      </trkpt>
      <trkpt lat="44.58842" lon="0.92432">
        <ele>243.9</ele>
        <time>2018-07-22T15:16:21Z</time>
      </trkpt>
      <trkpt lat="44.58845" lon="0.9243">
        <ele>243.9</ele>
        <time>2018-07-22T15:16:22Z</time>
      </trkpt>
      <trkpt lat="44.58848" lon="0.92428">
        <ele>243.8</ele>
        <time>2018-07-22T15:16:23Z</time>
      </trkpt>
      <trkpt lat="44.58852" lon="0.92426">
        <ele>243.8</ele>
        <time>2018-07-22T15:16:24Z</time>
      </trkpt>
      <trkpt lat="44.58855" lon="0.92424">
        <ele>243.7</ele>
        <time>2018-07-22T15:16:25Z</time>
      </trkpt>
      <trkpt lat="44.58859" lon="0.92421">
        <ele>243.7</ele>
        <time>2018-07-22T15:16:26Z</time>
      </trkpt>
      <trkpt lat="44.58863" lon="0.92419">
        <ele>243.6</ele>
        <time>2018-07-22T15:16:27Z</time>
      </trkpt>
      <trkpt lat="44.58867" lon="0.92417">
        <ele>243.4</ele>
        <time>2018-07-22T15:16:28Z</time>
      </trkpt>
      <trkpt lat="44.58871" lon="0.92414">
        <ele>243.4</ele>
        <time>2018-07-22T15:16:29Z</time>
      </trkpt>
      <trkpt lat="44.58875" lon="0.92412">
        <ele>243.3</ele>
        <time>2018-07-22T15:16:30Z</time>
      </trkpt>
      <trkpt lat="44.58881" lon="0.9241">
        <ele>243.2</ele>
        <time>2018-07-22T15:16:31Z</time>
      </trkpt>
      <trkpt lat="44.58885" lon="0.92409">
        <ele>243</ele>
        <time>2018-07-22T15:16:32Z</time>
      </trkpt>
      <trkpt lat="44.58891" lon="0.92408">
        <ele>242.8</ele>
        <time>2018-07-22T15:16:33Z</time>
      </trkpt>
      <trkpt lat="44.58897" lon="0.92406">
        <ele>242.7</ele>
        <time>2018-07-22T15:16:34Z</time>
      </trkpt>
      <trkpt lat="44.58902" lon="0.92405">
        <ele>242.6</ele>
        <time>2018-07-22T15:16:35Z</time>
      </trkpt>
      <trkpt lat="44.58909" lon="0.92403">
        <ele>242.4</ele>
        <time>2018-07-22T15:16:36Z</time>
      </trkpt>
      <trkpt lat="44.58915" lon="0.92401">
        <ele>242.2</ele>
        <time>2018-07-22T15:16:37Z</time>
      </trkpt>
      <trkpt lat="44.58922" lon="0.92399">
        <ele>242</ele>
        <time>2018-07-22T15:16:38Z</time>
      </trkpt>
      <trkpt lat="44.58929" lon="0.92396">
        <ele>241.8</ele>
        <time>2018-07-22T15:16:39Z</time>
      </trkpt>
      <trkpt lat="44.58935" lon="0.92395">
        <ele>241.5</ele>
        <time>2018-07-22T15:16:40Z</time>
      </trkpt>
      <trkpt lat="44.58941" lon="0.92394">
        <ele>241.3</ele>
        <time>2018-07-22T15:16:41Z</time>
      </trkpt>
      <trkpt lat="44.58947" lon="0.92395">
        <ele>241</ele>
        <time>2018-07-22T15:16:42Z</time>
      </trkpt>
      <trkpt lat="44.58952" lon="0.92405">
        <ele>240.7</ele>
        <time>2018-07-22T15:16:43Z</time>
      </trkpt>
      <trkpt lat="44.58956" lon="0.92414">
        <ele>240.6</ele>
        <time>2018-07-22T15:16:44Z</time>
      </trkpt>
      <trkpt lat="44.58959" lon="0.92421">
        <ele>240.5</ele>
        <time>2018-07-22T15:16:45Z</time>
      </trkpt>
      <trkpt lat="44.58962" lon="0.92428">
        <ele>240.5</ele>
        <time>2018-07-22T15:16:46Z</time>
      </trkpt>
      <trkpt lat="44.58966" lon="0.92435">
        <ele>240.4</ele>
        <time>2018-07-22T15:16:47Z</time>
      </trkpt>
      <trkpt lat="44.5897" lon="0.92442">
        <ele>240.5</ele>
        <time>2018-07-22T15:16:48Z</time>
      </trkpt>
      <trkpt lat="44.58974" lon="0.92449">
        <ele>240.5</ele>
        <time>2018-07-22T15:16:49Z</time>
      </trkpt>
      <trkpt lat="44.58978" lon="0.92456">
        <ele>240.5</ele>
        <time>2018-07-22T15:16:50Z</time>
      </trkpt>
      <trkpt lat="44.58983" lon="0.92465">
        <ele>240.5</ele>
        <time>2018-07-22T15:16:51Z</time>
      </trkpt>
      <trkpt lat="44.58987" lon="0.92472">
        <ele>240.7</ele>
        <time>2018-07-22T15:16:52Z</time>
      </trkpt>
      <trkpt lat="44.58991" lon="0.92479">
        <ele>240.9</ele>
        <time>2018-07-22T15:16:53Z</time>
      </trkpt>
      <trkpt lat="44.58995" lon="0.92487">
        <ele>241.1</ele>
        <time>2018-07-22T15:16:54Z</time>
      </trkpt>
      <trkpt lat="44.58998" lon="0.92495">
        <ele>241.1</ele>
        <time>2018-07-22T15:16:55Z</time>
      </trkpt>
      <trkpt lat="44.59001" lon="0.92502">
        <ele>241.3</ele>
        <time>2018-07-22T15:16:56Z</time>
      </trkpt>
      <trkpt lat="44.59004" lon="0.92509">
        <ele>241.4</ele>
        <time>2018-07-22T15:16:57Z</time>
      </trkpt>
      <trkpt lat="44.59007" lon="0.92516">
        <ele>241.5</ele>
        <time>2018-07-22T15:16:58Z</time>
      </trkpt>
      <trkpt lat="44.5901" lon="0.92522">
        <ele>241.8</ele>
        <time>2018-07-22T15:16:59Z</time>
      </trkpt>
      <trkpt lat="44.59013" lon="0.92528">
        <ele>241.8</ele>
        <time>2018-07-22T15:17:00Z</time>
      </trkpt>
      <trkpt lat="44.59016" lon="0.92535">
        <ele>242</ele>
        <time>2018-07-22T15:17:01Z</time>
      </trkpt>
      <trkpt lat="44.59018" lon="0.9254">
        <ele>242</ele>
        <time>2018-07-22T15:17:02Z</time>
      </trkpt>
      <trkpt lat="44.59021" lon="0.92545">
        <ele>242</ele>
        <time>2018-07-22T15:17:03Z</time>
      </trkpt>
      <trkpt lat="44.59023" lon="0.92551">
        <ele>242.1</ele>
        <time>2018-07-22T15:17:04Z</time>
      </trkpt>
      <trkpt lat="44.59025" lon="0.92556">
        <ele>242.3</ele>
        <time>2018-07-22T15:17:05Z</time>
      </trkpt>
      <trkpt lat="44.59028" lon="0.92561">
        <ele>242.3</ele>
        <time>2018-07-22T15:17:06Z</time>
      </trkpt>
      <trkpt lat="44.59029" lon="0.92567">
        <ele>242.3</ele>
        <time>2018-07-22T15:17:07Z</time>
      </trkpt>
      <trkpt lat="44.59031" lon="0.92573">
        <ele>242.5</ele>
        <time>2018-07-22T15:17:08Z</time>
      </trkpt>
      <trkpt lat="44.59032" lon="0.92581">
        <ele>242.5</ele>
        <time>2018-07-22T15:17:09Z</time>
      </trkpt>
      <trkpt lat="44.59033" lon="0.92588">
        <ele>242.6</ele>
        <time>2018-07-22T15:17:10Z</time>
      </trkpt>
      <trkpt lat="44.59033" lon="0.92597">
        <ele>242.6</ele>
        <time>2018-07-22T15:17:11Z</time>
      </trkpt>
      <trkpt lat="44.59032" lon="0.92606">
        <ele>242.5</ele>
        <time>2018-07-22T15:17:12Z</time>
      </trkpt>
      <trkpt lat="44.5903" lon="0.92615">
        <ele>242.5</ele>
        <time>2018-07-22T15:17:13Z</time>
      </trkpt>
      <trkpt lat="44.59027" lon="0.92624">
        <ele>242.3</ele>
        <time>2018-07-22T15:17:14Z</time>
      </trkpt>
      <trkpt lat="44.59025" lon="0.92634">
        <ele>242.1</ele>
        <time>2018-07-22T15:17:15Z</time>
      </trkpt>
      <trkpt lat="44.59021" lon="0.92643">
        <ele>241.9</ele>
        <time>2018-07-22T15:17:16Z</time>
      </trkpt>
      <trkpt lat="44.59018" lon="0.92651">
        <ele>241.8</ele>
        <time>2018-07-22T15:17:17Z</time>
      </trkpt>
      <trkpt lat="44.59015" lon="0.92659">
        <ele>241.6</ele>
        <time>2018-07-22T15:17:18Z</time>
      </trkpt>
      <trkpt lat="44.59012" lon="0.92667">
        <ele>241.5</ele>
        <time>2018-07-22T15:17:19Z</time>
      </trkpt>
      <trkpt lat="44.59009" lon="0.92675">
        <ele>241.5</ele>
        <time>2018-07-22T15:17:20Z</time>
      </trkpt>
      <trkpt lat="44.59006" lon="0.92682">
        <ele>241.4</ele>
        <time>2018-07-22T15:17:21Z</time>
      </trkpt>
      <trkpt lat="44.59003" lon="0.92689">
        <ele>241.4</ele>
        <time>2018-07-22T15:17:22Z</time>
      </trkpt>
      <trkpt lat="44.58999" lon="0.92695">
        <ele>241.4</ele>
        <time>2018-07-22T15:17:23Z</time>
      </trkpt>
      <trkpt lat="44.58996" lon="0.92701">
        <ele>241.4</ele>
        <time>2018-07-22T15:17:24Z</time>
      </trkpt>
      <trkpt lat="44.58994" lon="0.92708">
        <ele>241.4</ele>
        <time>2018-07-22T15:17:25Z</time>
      </trkpt>
      <trkpt lat="44.58993" lon="0.92715">
        <ele>241.4</ele>
        <time>2018-07-22T15:17:26Z</time>
      </trkpt>
      <trkpt lat="44.58994" lon="0.92722">
        <ele>241.4</ele>
        <time>2018-07-22T15:17:27Z</time>
      </trkpt>
      <trkpt lat="44.58997" lon="0.92726">
        <ele>241.4</ele>
        <time>2018-07-22T15:17:28Z</time>
      </trkpt>
      <trkpt lat="44.59" lon="0.9273">
        <ele>241.4</ele>
        <time>2018-07-22T15:17:29Z</time>
      </trkpt>
      <trkpt lat="44.59006" lon="0.92731">
        <ele>241.4</ele>
        <time>2018-07-22T15:17:30Z</time>
      </trkpt>
      <trkpt lat="44.59012" lon="0.92733">
        <ele>241.4</ele>
        <time>2018-07-22T15:17:31Z</time>
      </trkpt>
      <trkpt lat="44.59017" lon="0.92735">
        <ele>241.4</ele>
        <time>2018-07-22T15:17:32Z</time>
      </trkpt>
      <trkpt lat="44.59023" lon="0.92736">
        <ele>241.4</ele>
        <time>2018-07-22T15:17:33Z</time>
      </trkpt>
      <trkpt lat="44.59029" lon="0.92738">
        <ele>241.4</ele>
        <time>2018-07-22T15:17:34Z</time>
      </trkpt>
      <trkpt lat="44.59036" lon="0.92741">
        <ele>241.4</ele>
        <time>2018-07-22T15:17:35Z</time>
      </trkpt>
      <trkpt lat="44.59042" lon="0.92742">
        <ele>241.4</ele>
        <time>2018-07-22T15:17:36Z</time>
      </trkpt>
      <trkpt lat="44.59048" lon="0.92745">
        <ele>241.4</ele>
        <time>2018-07-22T15:17:37Z</time>
      </trkpt>
      <trkpt lat="44.59054" lon="0.92745">
        <ele>241.4</ele>
        <time>2018-07-22T15:17:38Z</time>
      </trkpt>
      <trkpt lat="44.5906" lon="0.92746">
        <ele>241.3</ele>
        <time>2018-07-22T15:17:39Z</time>
      </trkpt>
      <trkpt lat="44.59066" lon="0.92749">
        <ele>241.4</ele>
        <time>2018-07-22T15:17:40Z</time>
      </trkpt>
      <trkpt lat="44.59072" lon="0.9275">
        <ele>241.3</ele>
        <time>2018-07-22T15:17:41Z</time>
      </trkpt>
      <trkpt lat="44.59079" lon="0.92754">
        <ele>241.3</ele>
        <time>2018-07-22T15:17:42Z</time>
      </trkpt>
      <trkpt lat="44.59086" lon="0.92757">
        <ele>241.3</ele>
        <time>2018-07-22T15:17:43Z</time>
      </trkpt>
      <trkpt lat="44.59091" lon="0.9276">
        <ele>241.3</ele>
        <time>2018-07-22T15:17:44Z</time>
      </trkpt>
      <trkpt lat="44.59098" lon="0.92765">
        <ele>241.2</ele>
        <time>2018-07-22T15:17:45Z</time>
      </trkpt>
      <trkpt lat="44.59103" lon="0.92769">
        <ele>241.2</ele>
        <time>2018-07-22T15:17:46Z</time>
      </trkpt>
      <trkpt lat="44.59109" lon="0.92775">
        <ele>241.3</ele>
        <time>2018-07-22T15:17:47Z</time>
      </trkpt>
      <trkpt lat="44.59114" lon="0.92778">
        <ele>241.2</ele>
        <time>2018-07-22T15:17:48Z</time>
      </trkpt>
      <trkpt lat="44.59118" lon="0.92779">
        <ele>241.2</ele>
        <time>2018-07-22T15:17:49Z</time>
      </trkpt>
      <trkpt lat="44.59123" lon="0.92778">
        <ele>241.1</ele>
        <time>2018-07-22T15:17:50Z</time>
      </trkpt>
      <trkpt lat="44.5913" lon="0.92778">
        <ele>241</ele>
        <time>2018-07-22T15:17:51Z</time>
      </trkpt>
      <trkpt lat="44.59135" lon="0.92776">
        <ele>241</ele>
        <time>2018-07-22T15:17:52Z</time>
      </trkpt>
      <trkpt lat="44.59139" lon="0.92772">
        <ele>241.1</ele>
        <time>2018-07-22T15:17:53Z</time>
      </trkpt>
      <trkpt lat="44.59143" lon="0.92769">
        <ele>241.1</ele>
        <time>2018-07-22T15:17:54Z</time>
      </trkpt>
      <trkpt lat="44.59148" lon="0.92767">
        <ele>241.1</ele>
        <time>2018-07-22T15:17:55Z</time>
      </trkpt>
      <trkpt lat="44.59152" lon="0.92764">
        <ele>241.1</ele>
        <time>2018-07-22T15:17:56Z</time>
      </trkpt>
      <trkpt lat="44.59157" lon="0.9276">
        <ele>241.1</ele>
        <time>2018-07-22T15:17:57Z</time>
      </trkpt>
      <trkpt lat="44.59161" lon="0.92757">
        <ele>241.1</ele>
        <time>2018-07-22T15:17:58Z</time>
      </trkpt>
      <trkpt lat="44.59164" lon="0.92755">
        <ele>241.1</ele>
        <time>2018-07-22T15:17:59Z</time>
      </trkpt>
      <trkpt lat="44.59167" lon="0.92752">
        <ele>241.1</ele>
        <time>2018-07-22T15:18:00Z</time>
      </trkpt>
      <trkpt lat="44.59171" lon="0.92749">
        <ele>241.1</ele>
        <time>2018-07-22T15:18:01Z</time>
      </trkpt>
      <trkpt lat="44.59175" lon="0.92747">
        <ele>241.1</ele>
        <time>2018-07-22T15:18:02Z</time>
      </trkpt>
      <trkpt lat="44.59178" lon="0.92747">
        <ele>241.1</ele>
        <time>2018-07-22T15:18:03Z</time>
      </trkpt>
      <trkpt lat="44.59183" lon="0.92747">
        <ele>241.1</ele>
        <time>2018-07-22T15:18:04Z</time>
      </trkpt>
      <trkpt lat="44.59187" lon="0.92747">
        <ele>241.1</ele>
        <time>2018-07-22T15:18:05Z</time>
      </trkpt>
      <trkpt lat="44.59191" lon="0.9275">
        <ele>241</ele>
        <time>2018-07-22T15:18:06Z</time>
      </trkpt>
      <trkpt lat="44.59195" lon="0.92748">
        <ele>241</ele>
        <time>2018-07-22T15:18:07Z</time>
      </trkpt>
      <trkpt lat="44.59199" lon="0.92744">
        <ele>241</ele>
        <time>2018-07-22T15:18:08Z</time>
      </trkpt>
      <trkpt lat="44.59201" lon="0.92737">
        <ele>241</ele>
        <time>2018-07-22T15:18:09Z</time>
      </trkpt>
      <trkpt lat="44.59202" lon="0.92728">
        <ele>240.9</ele>
        <time>2018-07-22T15:18:10Z</time>
      </trkpt>
      <trkpt lat="44.59205" lon="0.9272">
        <ele>240.9</ele>
        <time>2018-07-22T15:18:11Z</time>
      </trkpt>
      <trkpt lat="44.59207" lon="0.92712">
        <ele>240.9</ele>
        <time>2018-07-22T15:18:12Z</time>
      </trkpt>
      <trkpt lat="44.5921" lon="0.92703">
        <ele>240.8</ele>
        <time>2018-07-22T15:18:13Z</time>
      </trkpt>
      <trkpt lat="44.59213" lon="0.92695">
        <ele>240.8</ele>
        <time>2018-07-22T15:18:14Z</time>
      </trkpt>
      <trkpt lat="44.59217" lon="0.92688">
        <ele>240.8</ele>
        <time>2018-07-22T15:18:15Z</time>
      </trkpt>
      <trkpt lat="44.5922" lon="0.92678">
        <ele>240.8</ele>
        <time>2018-07-22T15:18:16Z</time>
      </trkpt>
      <trkpt lat="44.59223" lon="0.9267">
        <ele>240.8</ele>
        <time>2018-07-22T15:18:17Z</time>
      </trkpt>
      <trkpt lat="44.59227" lon="0.92662">
        <ele>240.7</ele>
        <time>2018-07-22T15:18:18Z</time>
      </trkpt>
      <trkpt lat="44.59231" lon="0.92652">
        <ele>240.7</ele>
        <time>2018-07-22T15:18:19Z</time>
      </trkpt>
      <trkpt lat="44.59234" lon="0.92645">
        <ele>240.7</ele>
        <time>2018-07-22T15:18:20Z</time>
      </trkpt>
      <trkpt lat="44.59237" lon="0.92635">
        <ele>240.7</ele>
        <time>2018-07-22T15:18:21Z</time>
      </trkpt>
      <trkpt lat="44.59239" lon="0.92627">
        <ele>240.7</ele>
        <time>2018-07-22T15:18:22Z</time>
      </trkpt>
      <trkpt lat="44.59243" lon="0.92616">
        <ele>240.7</ele>
        <time>2018-07-22T15:18:23Z</time>
      </trkpt>
      <trkpt lat="44.59244" lon="0.92611">
        <ele>240.7</ele>
        <time>2018-07-22T15:18:24Z</time>
      </trkpt>
      <trkpt lat="44.59246" lon="0.92607">
        <ele>240.7</ele>
        <time>2018-07-22T15:18:25Z</time>
      </trkpt>
      <trkpt lat="44.59249" lon="0.92598">
        <ele>240.7</ele>
        <time>2018-07-22T15:18:26Z</time>
      </trkpt>
      <trkpt lat="44.59252" lon="0.92593">
        <ele>240.7</ele>
        <time>2018-07-22T15:18:27Z</time>
      </trkpt>
      <trkpt lat="44.59255" lon="0.92586">
        <ele>240.8</ele>
        <time>2018-07-22T15:18:28Z</time>
      </trkpt>
      <trkpt lat="44.59258" lon="0.92582">
        <ele>240.8</ele>
        <time>2018-07-22T15:18:29Z</time>
      </trkpt>
      <trkpt lat="44.5926" lon="0.92577">
        <ele>240.8</ele>
        <time>2018-07-22T15:18:30Z</time>
      </trkpt>
      <trkpt lat="44.59264" lon="0.92571">
        <ele>240.8</ele>
        <time>2018-07-22T15:18:31Z</time>
      </trkpt>
      <trkpt lat="44.59267" lon="0.92565">
        <ele>240.9</ele>
        <time>2018-07-22T15:18:32Z</time>
      </trkpt>
      <trkpt lat="44.59269" lon="0.92559">
        <ele>240.9</ele>
        <time>2018-07-22T15:18:33Z</time>
      </trkpt>
      <trkpt lat="44.59273" lon="0.92551">
        <ele>240.9</ele>
        <time>2018-07-22T15:18:34Z</time>
      </trkpt>
      <trkpt lat="44.59276" lon="0.92545">
        <ele>241</ele>
        <time>2018-07-22T15:18:35Z</time>
      </trkpt>
      <trkpt lat="44.59279" lon="0.92541">
        <ele>241</ele>
        <time>2018-07-22T15:18:36Z</time>
      </trkpt>
      <trkpt lat="44.59281" lon="0.92537">
        <ele>241</ele>
        <time>2018-07-22T15:18:37Z</time>
      </trkpt>
      <trkpt lat="44.59283" lon="0.92533">
        <ele>241</ele>
        <time>2018-07-22T15:18:38Z</time>
      </trkpt>
      <trkpt lat="44.59284" lon="0.92526">
        <ele>241</ele>
        <time>2018-07-22T15:18:40Z</time>
      </trkpt>
      <trkpt lat="44.59284" lon="0.92522">
        <ele>241</ele>
        <time>2018-07-22T15:18:41Z</time>
      </trkpt>
      <trkpt lat="44.59284" lon="0.92518">
        <ele>241</ele>
        <time>2018-07-22T15:18:42Z</time>
      </trkpt>
      <trkpt lat="44.59281" lon="0.92517">
        <ele>241</ele>
        <time>2018-07-22T15:18:45Z</time>
      </trkpt>
      <trkpt lat="44.59281" lon="0.92513">
        <ele>241</ele>
        <time>2018-07-22T15:18:56Z</time>
      </trkpt>
      <trkpt lat="44.59281" lon="0.92509">
        <ele>241</ele>
        <time>2018-07-22T15:18:59Z</time>
      </trkpt>
      <trkpt lat="44.59277" lon="0.92508">
        <ele>241</ele>
        <time>2018-07-22T15:19:02Z</time>
      </trkpt>
      <trkpt lat="44.59274" lon="0.92509">
        <ele>241</ele>
        <time>2018-07-22T15:19:05Z</time>
      </trkpt>
      <trkpt lat="44.59276" lon="0.92512">
        <ele>241</ele>
        <time>2018-07-22T15:19:13Z</time>
      </trkpt>
      <trkpt lat="44.59278" lon="0.92515">
        <ele>241</ele>
        <time>2018-07-22T15:19:18Z</time>
      </trkpt>
    </trkseg>
  </trk>
</gpx>